<?xml version="1.0" encoding="UTF-8" standalone="no" ?>
<gpx xmlns="http://www.topografix.com/GPX/1/1" xmlns:xsi="http://www.w3.org/2001/XMLSchema-instance" xsi:schemaLocation="http://www.topografix.com/GPX/1/1 http://www.topografix.com/GPX/1/1/gpx.xsd" version="1.1" creator="VisuGPX - https://www.visugpx.com">
  <metadata>
    <name>hilaireBalmesCreux le 17 sept. 2022 13:59:08</name>
  </metadata>
  <trk>
    <name><![CDATA[hilaireBalmesCreux le 17 sept. 2022 13:59:08]]></name>
    <trkseg>
      <trkpt lat="45.11518" lon="5.31874">
        <ele>214.7</ele>
        <time>2022-09-17T11:59:10.000Z</time>
      </trkpt>
      <trkpt lat="45.11515" lon="5.31864">
        <ele>214.5</ele>
        <time>2022-09-17T11:59:11.000Z</time>
      </trkpt>
      <trkpt lat="45.11512" lon="5.31864">
        <ele>214.6</ele>
        <time>2022-09-17T11:59:12.000Z</time>
      </trkpt>
      <trkpt lat="45.11505" lon="5.31875">
        <ele>214.9</ele>
        <time>2022-09-17T11:59:13.000Z</time>
      </trkpt>
      <trkpt lat="45.11499" lon="5.31881">
        <ele>215</ele>
        <time>2022-09-17T11:59:14.000Z</time>
      </trkpt>
      <trkpt lat="45.11493" lon="5.31879">
        <ele>215</ele>
        <time>2022-09-17T11:59:15.000Z</time>
      </trkpt>
      <trkpt lat="45.1149" lon="5.3187">
        <ele>215</ele>
        <time>2022-09-17T11:59:17.000Z</time>
      </trkpt>
      <trkpt lat="45.1149" lon="5.31865">
        <ele>215</ele>
        <time>2022-09-17T11:59:19.000Z</time>
      </trkpt>
      <trkpt lat="45.11489" lon="5.31856">
        <ele>215</ele>
        <time>2022-09-17T11:59:20.000Z</time>
      </trkpt>
      <trkpt lat="45.11489" lon="5.31852">
        <ele>215</ele>
        <time>2022-09-17T11:59:21.000Z</time>
      </trkpt>
      <trkpt lat="45.11491" lon="5.31848">
        <ele>215</ele>
        <time>2022-09-17T11:59:23.000Z</time>
      </trkpt>
      <trkpt lat="45.11492" lon="5.31846">
        <ele>215</ele>
        <time>2022-09-17T11:59:24.000Z</time>
      </trkpt>
      <trkpt lat="45.11494" lon="5.31845">
        <ele>215</ele>
        <time>2022-09-17T11:59:25.000Z</time>
      </trkpt>
      <trkpt lat="45.11496" lon="5.31843">
        <ele>215</ele>
        <time>2022-09-17T11:59:26.000Z</time>
      </trkpt>
      <trkpt lat="45.11499" lon="5.31842">
        <ele>215</ele>
        <time>2022-09-17T11:59:27.000Z</time>
      </trkpt>
      <trkpt lat="45.11501" lon="5.31839">
        <ele>215</ele>
        <time>2022-09-17T11:59:28.000Z</time>
      </trkpt>
      <trkpt lat="45.11504" lon="5.31838">
        <ele>214.9</ele>
        <time>2022-09-17T11:59:29.000Z</time>
      </trkpt>
      <trkpt lat="45.11508" lon="5.31838">
        <ele>214.7</ele>
        <time>2022-09-17T11:59:30.000Z</time>
      </trkpt>
      <trkpt lat="45.11511" lon="5.31836">
        <ele>214.6</ele>
        <time>2022-09-17T11:59:31.000Z</time>
      </trkpt>
      <trkpt lat="45.11514" lon="5.31834">
        <ele>214.5</ele>
        <time>2022-09-17T11:59:32.000Z</time>
      </trkpt>
      <trkpt lat="45.11517" lon="5.31831">
        <ele>214.4</ele>
        <time>2022-09-17T11:59:33.000Z</time>
      </trkpt>
      <trkpt lat="45.11519" lon="5.31829">
        <ele>214.3</ele>
        <time>2022-09-17T11:59:34.000Z</time>
      </trkpt>
      <trkpt lat="45.11519" lon="5.31824">
        <ele>214.3</ele>
        <time>2022-09-17T11:59:35.000Z</time>
      </trkpt>
      <trkpt lat="45.11519" lon="5.3182">
        <ele>214.3</ele>
        <time>2022-09-17T11:59:36.000Z</time>
      </trkpt>
      <trkpt lat="45.11516" lon="5.31817">
        <ele>214.4</ele>
        <time>2022-09-17T11:59:37.000Z</time>
      </trkpt>
      <trkpt lat="45.11514" lon="5.31814">
        <ele>214.5</ele>
        <time>2022-09-17T11:59:38.000Z</time>
      </trkpt>
      <trkpt lat="45.11511" lon="5.31812">
        <ele>214.6</ele>
        <time>2022-09-17T11:59:39.000Z</time>
      </trkpt>
      <trkpt lat="45.11508" lon="5.31809">
        <ele>214.7</ele>
        <time>2022-09-17T11:59:40.000Z</time>
      </trkpt>
      <trkpt lat="45.11506" lon="5.31806">
        <ele>214.8</ele>
        <time>2022-09-17T11:59:41.000Z</time>
      </trkpt>
      <trkpt lat="45.11503" lon="5.31802">
        <ele>214.7</ele>
        <time>2022-09-17T11:59:42.000Z</time>
      </trkpt>
      <trkpt lat="45.11501" lon="5.31798">
        <ele>214.7</ele>
        <time>2022-09-17T11:59:43.000Z</time>
      </trkpt>
      <trkpt lat="45.11499" lon="5.31795">
        <ele>214.6</ele>
        <time>2022-09-17T11:59:44.000Z</time>
      </trkpt>
      <trkpt lat="45.11498" lon="5.31791">
        <ele>214.5</ele>
        <time>2022-09-17T11:59:45.000Z</time>
      </trkpt>
      <trkpt lat="45.11496" lon="5.31788">
        <ele>214.5</ele>
        <time>2022-09-17T11:59:46.000Z</time>
      </trkpt>
      <trkpt lat="45.11494" lon="5.31785">
        <ele>214.4</ele>
        <time>2022-09-17T11:59:47.000Z</time>
      </trkpt>
      <trkpt lat="45.11493" lon="5.31783">
        <ele>214.4</ele>
        <time>2022-09-17T11:59:48.000Z</time>
      </trkpt>
      <trkpt lat="45.11491" lon="5.31778">
        <ele>214.3</ele>
        <time>2022-09-17T11:59:49.000Z</time>
      </trkpt>
      <trkpt lat="45.1149" lon="5.31775">
        <ele>214.4</ele>
        <time>2022-09-17T11:59:50.000Z</time>
      </trkpt>
      <trkpt lat="45.11488" lon="5.3177">
        <ele>214.5</ele>
        <time>2022-09-17T11:59:51.000Z</time>
      </trkpt>
      <trkpt lat="45.11486" lon="5.31766">
        <ele>214.5</ele>
        <time>2022-09-17T11:59:52.000Z</time>
      </trkpt>
      <trkpt lat="45.11483" lon="5.31762">
        <ele>214.6</ele>
        <time>2022-09-17T11:59:53.000Z</time>
      </trkpt>
      <trkpt lat="45.11481" lon="5.31758">
        <ele>214.7</ele>
        <time>2022-09-17T11:59:54.000Z</time>
      </trkpt>
      <trkpt lat="45.11479" lon="5.31754">
        <ele>214.8</ele>
        <time>2022-09-17T11:59:55.000Z</time>
      </trkpt>
      <trkpt lat="45.11476" lon="5.31749">
        <ele>214.8</ele>
        <time>2022-09-17T11:59:56.000Z</time>
      </trkpt>
      <trkpt lat="45.11474" lon="5.31745">
        <ele>214.7</ele>
        <time>2022-09-17T11:59:57.000Z</time>
      </trkpt>
      <trkpt lat="45.11472" lon="5.31741">
        <ele>214.7</ele>
        <time>2022-09-17T11:59:58.000Z</time>
      </trkpt>
      <trkpt lat="45.11469" lon="5.31737">
        <ele>214.6</ele>
        <time>2022-09-17T11:59:59.000Z</time>
      </trkpt>
      <trkpt lat="45.11467" lon="5.31733">
        <ele>214.5</ele>
        <time>2022-09-17T12:00:00.000Z</time>
      </trkpt>
      <trkpt lat="45.11465" lon="5.31729">
        <ele>214.5</ele>
        <time>2022-09-17T12:00:01.000Z</time>
      </trkpt>
      <trkpt lat="45.11462" lon="5.31725">
        <ele>214.4</ele>
        <time>2022-09-17T12:00:02.000Z</time>
      </trkpt>
      <trkpt lat="45.1146" lon="5.31721">
        <ele>214.5</ele>
        <time>2022-09-17T12:00:03.000Z</time>
      </trkpt>
      <trkpt lat="45.11457" lon="5.31717">
        <ele>214.5</ele>
        <time>2022-09-17T12:00:04.000Z</time>
      </trkpt>
      <trkpt lat="45.11455" lon="5.31712">
        <ele>214.6</ele>
        <time>2022-09-17T12:00:05.000Z</time>
      </trkpt>
      <trkpt lat="45.11453" lon="5.31707">
        <ele>214.7</ele>
        <time>2022-09-17T12:00:06.000Z</time>
      </trkpt>
      <trkpt lat="45.1145" lon="5.31702">
        <ele>214.8</ele>
        <time>2022-09-17T12:00:07.000Z</time>
      </trkpt>
      <trkpt lat="45.11448" lon="5.31697">
        <ele>214.9</ele>
        <time>2022-09-17T12:00:08.000Z</time>
      </trkpt>
      <trkpt lat="45.11447" lon="5.31692">
        <ele>214.9</ele>
        <time>2022-09-17T12:00:09.000Z</time>
      </trkpt>
      <trkpt lat="45.11445" lon="5.31688">
        <ele>214.8</ele>
        <time>2022-09-17T12:00:10.000Z</time>
      </trkpt>
      <trkpt lat="45.11443" lon="5.31684">
        <ele>214.6</ele>
        <time>2022-09-17T12:00:11.000Z</time>
      </trkpt>
      <trkpt lat="45.11442" lon="5.31679">
        <ele>214.5</ele>
        <time>2022-09-17T12:00:12.000Z</time>
      </trkpt>
      <trkpt lat="45.11441" lon="5.31675">
        <ele>214.4</ele>
        <time>2022-09-17T12:00:13.000Z</time>
      </trkpt>
      <trkpt lat="45.11439" lon="5.31671">
        <ele>214.3</ele>
        <time>2022-09-17T12:00:14.000Z</time>
      </trkpt>
      <trkpt lat="45.11438" lon="5.31667">
        <ele>214.2</ele>
        <time>2022-09-17T12:00:15.000Z</time>
      </trkpt>
      <trkpt lat="45.11437" lon="5.31663">
        <ele>214.3</ele>
        <time>2022-09-17T12:00:16.000Z</time>
      </trkpt>
      <trkpt lat="45.11435" lon="5.31659">
        <ele>214.3</ele>
        <time>2022-09-17T12:00:17.000Z</time>
      </trkpt>
      <trkpt lat="45.11434" lon="5.31655">
        <ele>214.4</ele>
        <time>2022-09-17T12:00:18.000Z</time>
      </trkpt>
      <trkpt lat="45.11433" lon="5.31651">
        <ele>214.4</ele>
        <time>2022-09-17T12:00:19.000Z</time>
      </trkpt>
      <trkpt lat="45.11431" lon="5.31646">
        <ele>214.5</ele>
        <time>2022-09-17T12:00:20.000Z</time>
      </trkpt>
      <trkpt lat="45.1143" lon="5.31642">
        <ele>214.5</ele>
        <time>2022-09-17T12:00:21.000Z</time>
      </trkpt>
      <trkpt lat="45.11429" lon="5.31638">
        <ele>214.6</ele>
        <time>2022-09-17T12:00:22.000Z</time>
      </trkpt>
      <trkpt lat="45.11427" lon="5.31633">
        <ele>214.6</ele>
        <time>2022-09-17T12:00:23.000Z</time>
      </trkpt>
      <trkpt lat="45.11426" lon="5.31628">
        <ele>214.7</ele>
        <time>2022-09-17T12:00:24.000Z</time>
      </trkpt>
      <trkpt lat="45.11424" lon="5.31623">
        <ele>214.7</ele>
        <time>2022-09-17T12:00:25.000Z</time>
      </trkpt>
      <trkpt lat="45.11423" lon="5.31618">
        <ele>214.8</ele>
        <time>2022-09-17T12:00:26.000Z</time>
      </trkpt>
      <trkpt lat="45.11421" lon="5.31613">
        <ele>214.8</ele>
        <time>2022-09-17T12:00:27.000Z</time>
      </trkpt>
      <trkpt lat="45.11419" lon="5.31608">
        <ele>214.8</ele>
        <time>2022-09-17T12:00:28.000Z</time>
      </trkpt>
      <trkpt lat="45.11418" lon="5.31603">
        <ele>214.7</ele>
        <time>2022-09-17T12:00:29.000Z</time>
      </trkpt>
      <trkpt lat="45.11416" lon="5.31598">
        <ele>214.5</ele>
        <time>2022-09-17T12:00:30.000Z</time>
      </trkpt>
      <trkpt lat="45.11415" lon="5.31593">
        <ele>214.4</ele>
        <time>2022-09-17T12:00:31.000Z</time>
      </trkpt>
      <trkpt lat="45.11413" lon="5.31588">
        <ele>214.3</ele>
        <time>2022-09-17T12:00:32.000Z</time>
      </trkpt>
      <trkpt lat="45.11412" lon="5.31583">
        <ele>214.2</ele>
        <time>2022-09-17T12:00:33.000Z</time>
      </trkpt>
      <trkpt lat="45.1141" lon="5.31578">
        <ele>214.2</ele>
        <time>2022-09-17T12:00:34.000Z</time>
      </trkpt>
      <trkpt lat="45.11408" lon="5.31573">
        <ele>214.3</ele>
        <time>2022-09-17T12:00:35.000Z</time>
      </trkpt>
      <trkpt lat="45.11407" lon="5.31567">
        <ele>214.4</ele>
        <time>2022-09-17T12:00:36.000Z</time>
      </trkpt>
      <trkpt lat="45.11405" lon="5.31562">
        <ele>214.4</ele>
        <time>2022-09-17T12:00:37.000Z</time>
      </trkpt>
      <trkpt lat="45.11403" lon="5.31556">
        <ele>214.5</ele>
        <time>2022-09-17T12:00:38.000Z</time>
      </trkpt>
      <trkpt lat="45.114" lon="5.31551">
        <ele>214.5</ele>
        <time>2022-09-17T12:00:39.000Z</time>
      </trkpt>
      <trkpt lat="45.11398" lon="5.31546">
        <ele>214.5</ele>
        <time>2022-09-17T12:00:40.000Z</time>
      </trkpt>
      <trkpt lat="45.11395" lon="5.31542">
        <ele>214.4</ele>
        <time>2022-09-17T12:00:41.000Z</time>
      </trkpt>
      <trkpt lat="45.11392" lon="5.31538">
        <ele>214.3</ele>
        <time>2022-09-17T12:00:42.000Z</time>
      </trkpt>
      <trkpt lat="45.11389" lon="5.31533">
        <ele>214.2</ele>
        <time>2022-09-17T12:00:43.000Z</time>
      </trkpt>
      <trkpt lat="45.11387" lon="5.31529">
        <ele>214.1</ele>
        <time>2022-09-17T12:00:44.000Z</time>
      </trkpt>
      <trkpt lat="45.11384" lon="5.31525">
        <ele>214.1</ele>
        <time>2022-09-17T12:00:45.000Z</time>
      </trkpt>
      <trkpt lat="45.11382" lon="5.31521">
        <ele>214.2</ele>
        <time>2022-09-17T12:00:46.000Z</time>
      </trkpt>
      <trkpt lat="45.1138" lon="5.31518">
        <ele>214.2</ele>
        <time>2022-09-17T12:00:47.000Z</time>
      </trkpt>
      <trkpt lat="45.11377" lon="5.31514">
        <ele>214.2</ele>
        <time>2022-09-17T12:00:48.000Z</time>
      </trkpt>
      <trkpt lat="45.11375" lon="5.31512">
        <ele>214.2</ele>
        <time>2022-09-17T12:00:49.000Z</time>
      </trkpt>
      <trkpt lat="45.11374" lon="5.31508">
        <ele>214.1</ele>
        <time>2022-09-17T12:00:50.000Z</time>
      </trkpt>
      <trkpt lat="45.11372" lon="5.31505">
        <ele>214.1</ele>
        <time>2022-09-17T12:00:51.000Z</time>
      </trkpt>
      <trkpt lat="45.1137" lon="5.315">
        <ele>214</ele>
        <time>2022-09-17T12:00:52.000Z</time>
      </trkpt>
      <trkpt lat="45.11367" lon="5.31494">
        <ele>214</ele>
        <time>2022-09-17T12:00:53.000Z</time>
      </trkpt>
      <trkpt lat="45.11364" lon="5.31488">
        <ele>214</ele>
        <time>2022-09-17T12:00:54.000Z</time>
      </trkpt>
      <trkpt lat="45.11361" lon="5.31484">
        <ele>214</ele>
        <time>2022-09-17T12:00:55.000Z</time>
      </trkpt>
      <trkpt lat="45.11358" lon="5.31482">
        <ele>214.1</ele>
        <time>2022-09-17T12:00:56.000Z</time>
      </trkpt>
      <trkpt lat="45.11356" lon="5.3148">
        <ele>214.2</ele>
        <time>2022-09-17T12:00:57.000Z</time>
      </trkpt>
      <trkpt lat="45.11353" lon="5.31477">
        <ele>214.3</ele>
        <time>2022-09-17T12:00:58.000Z</time>
      </trkpt>
      <trkpt lat="45.1135" lon="5.31474">
        <ele>214.4</ele>
        <time>2022-09-17T12:00:59.000Z</time>
      </trkpt>
      <trkpt lat="45.11347" lon="5.3147">
        <ele>214.5</ele>
        <time>2022-09-17T12:01:00.000Z</time>
      </trkpt>
      <trkpt lat="45.11344" lon="5.31467">
        <ele>214.6</ele>
        <time>2022-09-17T12:01:01.000Z</time>
      </trkpt>
      <trkpt lat="45.11341" lon="5.31463">
        <ele>214.7</ele>
        <time>2022-09-17T12:01:02.000Z</time>
      </trkpt>
      <trkpt lat="45.11338" lon="5.31459">
        <ele>214.8</ele>
        <time>2022-09-17T12:01:03.000Z</time>
      </trkpt>
      <trkpt lat="45.11335" lon="5.31455">
        <ele>215</ele>
        <time>2022-09-17T12:01:04.000Z</time>
      </trkpt>
      <trkpt lat="45.11331" lon="5.31453">
        <ele>215</ele>
        <time>2022-09-17T12:01:05.000Z</time>
      </trkpt>
      <trkpt lat="45.11328" lon="5.31451">
        <ele>215</ele>
        <time>2022-09-17T12:01:06.000Z</time>
      </trkpt>
      <trkpt lat="45.11325" lon="5.31447">
        <ele>215</ele>
        <time>2022-09-17T12:01:07.000Z</time>
      </trkpt>
      <trkpt lat="45.11322" lon="5.31444">
        <ele>215</ele>
        <time>2022-09-17T12:01:08.000Z</time>
      </trkpt>
      <trkpt lat="45.11319" lon="5.31441">
        <ele>215</ele>
        <time>2022-09-17T12:01:09.000Z</time>
      </trkpt>
      <trkpt lat="45.11317" lon="5.31438">
        <ele>215</ele>
        <time>2022-09-17T12:01:10.000Z</time>
      </trkpt>
      <trkpt lat="45.11314" lon="5.31435">
        <ele>215</ele>
        <time>2022-09-17T12:01:11.000Z</time>
      </trkpt>
      <trkpt lat="45.11311" lon="5.31432">
        <ele>215</ele>
        <time>2022-09-17T12:01:12.000Z</time>
      </trkpt>
      <trkpt lat="45.11308" lon="5.31429">
        <ele>215</ele>
        <time>2022-09-17T12:01:13.000Z</time>
      </trkpt>
      <trkpt lat="45.11305" lon="5.31424">
        <ele>215</ele>
        <time>2022-09-17T12:01:14.000Z</time>
      </trkpt>
      <trkpt lat="45.11302" lon="5.3142">
        <ele>215</ele>
        <time>2022-09-17T12:01:15.000Z</time>
      </trkpt>
      <trkpt lat="45.11299" lon="5.31416">
        <ele>215</ele>
        <time>2022-09-17T12:01:16.000Z</time>
      </trkpt>
      <trkpt lat="45.11296" lon="5.31413">
        <ele>215</ele>
        <time>2022-09-17T12:01:17.000Z</time>
      </trkpt>
      <trkpt lat="45.11293" lon="5.31408">
        <ele>215</ele>
        <time>2022-09-17T12:01:18.000Z</time>
      </trkpt>
      <trkpt lat="45.1129" lon="5.31405">
        <ele>215</ele>
        <time>2022-09-17T12:01:19.000Z</time>
      </trkpt>
      <trkpt lat="45.11288" lon="5.314">
        <ele>215</ele>
        <time>2022-09-17T12:01:20.000Z</time>
      </trkpt>
      <trkpt lat="45.11285" lon="5.31396">
        <ele>215</ele>
        <time>2022-09-17T12:01:21.000Z</time>
      </trkpt>
      <trkpt lat="45.11281" lon="5.31392">
        <ele>215</ele>
        <time>2022-09-17T12:01:22.000Z</time>
      </trkpt>
      <trkpt lat="45.11278" lon="5.31388">
        <ele>215</ele>
        <time>2022-09-17T12:01:23.000Z</time>
      </trkpt>
      <trkpt lat="45.11274" lon="5.31385">
        <ele>215</ele>
        <time>2022-09-17T12:01:24.000Z</time>
      </trkpt>
      <trkpt lat="45.11272" lon="5.3138">
        <ele>215</ele>
        <time>2022-09-17T12:01:25.000Z</time>
      </trkpt>
      <trkpt lat="45.11269" lon="5.31376">
        <ele>215</ele>
        <time>2022-09-17T12:01:26.000Z</time>
      </trkpt>
      <trkpt lat="45.11267" lon="5.31372">
        <ele>215</ele>
        <time>2022-09-17T12:01:27.000Z</time>
      </trkpt>
      <trkpt lat="45.11265" lon="5.31369">
        <ele>215</ele>
        <time>2022-09-17T12:01:28.000Z</time>
      </trkpt>
      <trkpt lat="45.11263" lon="5.31365">
        <ele>215</ele>
        <time>2022-09-17T12:01:29.000Z</time>
      </trkpt>
      <trkpt lat="45.1126" lon="5.31362">
        <ele>215</ele>
        <time>2022-09-17T12:01:30.000Z</time>
      </trkpt>
      <trkpt lat="45.11258" lon="5.31358">
        <ele>215</ele>
        <time>2022-09-17T12:01:31.000Z</time>
      </trkpt>
      <trkpt lat="45.11255" lon="5.31354">
        <ele>215</ele>
        <time>2022-09-17T12:01:32.000Z</time>
      </trkpt>
      <trkpt lat="45.11253" lon="5.31349">
        <ele>215</ele>
        <time>2022-09-17T12:01:33.000Z</time>
      </trkpt>
      <trkpt lat="45.11251" lon="5.31344">
        <ele>215</ele>
        <time>2022-09-17T12:01:34.000Z</time>
      </trkpt>
      <trkpt lat="45.11249" lon="5.3134">
        <ele>215</ele>
        <time>2022-09-17T12:01:35.000Z</time>
      </trkpt>
      <trkpt lat="45.11246" lon="5.31335">
        <ele>215</ele>
        <time>2022-09-17T12:01:36.000Z</time>
      </trkpt>
      <trkpt lat="45.11243" lon="5.31331">
        <ele>214.9</ele>
        <time>2022-09-17T12:01:37.000Z</time>
      </trkpt>
      <trkpt lat="45.11241" lon="5.31326">
        <ele>214.8</ele>
        <time>2022-09-17T12:01:38.000Z</time>
      </trkpt>
      <trkpt lat="45.11238" lon="5.31322">
        <ele>214.8</ele>
        <time>2022-09-17T12:01:39.000Z</time>
      </trkpt>
      <trkpt lat="45.11235" lon="5.31317">
        <ele>214.7</ele>
        <time>2022-09-17T12:01:40.000Z</time>
      </trkpt>
      <trkpt lat="45.11232" lon="5.31313">
        <ele>214.8</ele>
        <time>2022-09-17T12:01:41.000Z</time>
      </trkpt>
      <trkpt lat="45.11229" lon="5.31309">
        <ele>214.8</ele>
        <time>2022-09-17T12:01:42.000Z</time>
      </trkpt>
      <trkpt lat="45.11226" lon="5.31306">
        <ele>214.9</ele>
        <time>2022-09-17T12:01:43.000Z</time>
      </trkpt>
      <trkpt lat="45.11223" lon="5.31302">
        <ele>214.8</ele>
        <time>2022-09-17T12:01:44.000Z</time>
      </trkpt>
      <trkpt lat="45.1122" lon="5.31297">
        <ele>214.7</ele>
        <time>2022-09-17T12:01:45.000Z</time>
      </trkpt>
      <trkpt lat="45.11217" lon="5.31293">
        <ele>214.6</ele>
        <time>2022-09-17T12:01:46.000Z</time>
      </trkpt>
      <trkpt lat="45.11214" lon="5.31288">
        <ele>214.6</ele>
        <time>2022-09-17T12:01:47.000Z</time>
      </trkpt>
      <trkpt lat="45.11211" lon="5.31283">
        <ele>214.5</ele>
        <time>2022-09-17T12:01:48.000Z</time>
      </trkpt>
      <trkpt lat="45.11208" lon="5.31278">
        <ele>214.5</ele>
        <time>2022-09-17T12:01:49.000Z</time>
      </trkpt>
      <trkpt lat="45.11204" lon="5.31272">
        <ele>214.6</ele>
        <time>2022-09-17T12:01:50.000Z</time>
      </trkpt>
      <trkpt lat="45.11201" lon="5.31267">
        <ele>214.8</ele>
        <time>2022-09-17T12:01:51.000Z</time>
      </trkpt>
      <trkpt lat="45.11198" lon="5.31262">
        <ele>214.9</ele>
        <time>2022-09-17T12:01:52.000Z</time>
      </trkpt>
      <trkpt lat="45.11195" lon="5.31257">
        <ele>215</ele>
        <time>2022-09-17T12:01:53.000Z</time>
      </trkpt>
      <trkpt lat="45.11192" lon="5.31253">
        <ele>215</ele>
        <time>2022-09-17T12:01:54.000Z</time>
      </trkpt>
      <trkpt lat="45.1119" lon="5.31248">
        <ele>214.9</ele>
        <time>2022-09-17T12:01:55.000Z</time>
      </trkpt>
      <trkpt lat="45.11187" lon="5.31243">
        <ele>214.8</ele>
        <time>2022-09-17T12:01:56.000Z</time>
      </trkpt>
      <trkpt lat="45.11184" lon="5.31238">
        <ele>214.7</ele>
        <time>2022-09-17T12:01:57.000Z</time>
      </trkpt>
      <trkpt lat="45.11181" lon="5.31234">
        <ele>214.7</ele>
        <time>2022-09-17T12:01:58.000Z</time>
      </trkpt>
      <trkpt lat="45.11178" lon="5.31229">
        <ele>214.7</ele>
        <time>2022-09-17T12:01:59.000Z</time>
      </trkpt>
      <trkpt lat="45.11174" lon="5.31224">
        <ele>214.7</ele>
        <time>2022-09-17T12:02:00.000Z</time>
      </trkpt>
      <trkpt lat="45.11172" lon="5.31219">
        <ele>214.7</ele>
        <time>2022-09-17T12:02:01.000Z</time>
      </trkpt>
      <trkpt lat="45.11169" lon="5.31214">
        <ele>214.6</ele>
        <time>2022-09-17T12:02:02.000Z</time>
      </trkpt>
      <trkpt lat="45.11166" lon="5.31209">
        <ele>214.5</ele>
        <time>2022-09-17T12:02:03.000Z</time>
      </trkpt>
      <trkpt lat="45.11163" lon="5.31204">
        <ele>214.4</ele>
        <time>2022-09-17T12:02:04.000Z</time>
      </trkpt>
      <trkpt lat="45.1116" lon="5.31199">
        <ele>214.4</ele>
        <time>2022-09-17T12:02:05.000Z</time>
      </trkpt>
      <trkpt lat="45.11157" lon="5.31194">
        <ele>214.3</ele>
        <time>2022-09-17T12:02:06.000Z</time>
      </trkpt>
      <trkpt lat="45.11154" lon="5.31189">
        <ele>214.5</ele>
        <time>2022-09-17T12:02:07.000Z</time>
      </trkpt>
      <trkpt lat="45.11152" lon="5.31184">
        <ele>214.7</ele>
        <time>2022-09-17T12:02:08.000Z</time>
      </trkpt>
      <trkpt lat="45.1115" lon="5.31179">
        <ele>215</ele>
        <time>2022-09-17T12:02:09.000Z</time>
      </trkpt>
      <trkpt lat="45.11147" lon="5.31174">
        <ele>215.2</ele>
        <time>2022-09-17T12:02:10.000Z</time>
      </trkpt>
      <trkpt lat="45.11145" lon="5.31169">
        <ele>215.5</ele>
        <time>2022-09-17T12:02:11.000Z</time>
      </trkpt>
      <trkpt lat="45.11143" lon="5.31165">
        <ele>215.7</ele>
        <time>2022-09-17T12:02:12.000Z</time>
      </trkpt>
      <trkpt lat="45.11141" lon="5.3116">
        <ele>215.6</ele>
        <time>2022-09-17T12:02:13.000Z</time>
      </trkpt>
      <trkpt lat="45.11139" lon="5.31154">
        <ele>215.6</ele>
        <time>2022-09-17T12:02:14.000Z</time>
      </trkpt>
      <trkpt lat="45.11137" lon="5.31149">
        <ele>215.4</ele>
        <time>2022-09-17T12:02:15.000Z</time>
      </trkpt>
      <trkpt lat="45.11135" lon="5.31143">
        <ele>215.3</ele>
        <time>2022-09-17T12:02:16.000Z</time>
      </trkpt>
      <trkpt lat="45.11133" lon="5.31138">
        <ele>215.2</ele>
        <time>2022-09-17T12:02:17.000Z</time>
      </trkpt>
      <trkpt lat="45.11131" lon="5.31132">
        <ele>215.3</ele>
        <time>2022-09-17T12:02:18.000Z</time>
      </trkpt>
      <trkpt lat="45.11129" lon="5.31126">
        <ele>215.3</ele>
        <time>2022-09-17T12:02:19.000Z</time>
      </trkpt>
      <trkpt lat="45.11127" lon="5.3112">
        <ele>215.4</ele>
        <time>2022-09-17T12:02:20.000Z</time>
      </trkpt>
      <trkpt lat="45.11126" lon="5.31114">
        <ele>215.5</ele>
        <time>2022-09-17T12:02:21.000Z</time>
      </trkpt>
      <trkpt lat="45.11124" lon="5.31108">
        <ele>215.5</ele>
        <time>2022-09-17T12:02:22.000Z</time>
      </trkpt>
      <trkpt lat="45.11123" lon="5.31102">
        <ele>215.4</ele>
        <time>2022-09-17T12:02:23.000Z</time>
      </trkpt>
      <trkpt lat="45.11122" lon="5.31095">
        <ele>215.3</ele>
        <time>2022-09-17T12:02:24.000Z</time>
      </trkpt>
      <trkpt lat="45.1112" lon="5.31089">
        <ele>215.1</ele>
        <time>2022-09-17T12:02:25.000Z</time>
      </trkpt>
      <trkpt lat="45.11119" lon="5.31083">
        <ele>215</ele>
        <time>2022-09-17T12:02:26.000Z</time>
      </trkpt>
      <trkpt lat="45.11118" lon="5.31077">
        <ele>215</ele>
        <time>2022-09-17T12:02:27.000Z</time>
      </trkpt>
      <trkpt lat="45.11117" lon="5.31071">
        <ele>215</ele>
        <time>2022-09-17T12:02:28.000Z</time>
      </trkpt>
      <trkpt lat="45.11116" lon="5.31065">
        <ele>215</ele>
        <time>2022-09-17T12:02:29.000Z</time>
      </trkpt>
      <trkpt lat="45.11115" lon="5.3106">
        <ele>215</ele>
        <time>2022-09-17T12:02:30.000Z</time>
      </trkpt>
      <trkpt lat="45.11114" lon="5.31054">
        <ele>215</ele>
        <time>2022-09-17T12:02:31.000Z</time>
      </trkpt>
      <trkpt lat="45.11113" lon="5.31048">
        <ele>215</ele>
        <time>2022-09-17T12:02:32.000Z</time>
      </trkpt>
      <trkpt lat="45.11111" lon="5.31043">
        <ele>215</ele>
        <time>2022-09-17T12:02:33.000Z</time>
      </trkpt>
      <trkpt lat="45.1111" lon="5.31037">
        <ele>215</ele>
        <time>2022-09-17T12:02:34.000Z</time>
      </trkpt>
      <trkpt lat="45.11109" lon="5.31032">
        <ele>215</ele>
        <time>2022-09-17T12:02:35.000Z</time>
      </trkpt>
      <trkpt lat="45.11107" lon="5.31026">
        <ele>215</ele>
        <time>2022-09-17T12:02:36.000Z</time>
      </trkpt>
      <trkpt lat="45.11106" lon="5.31021">
        <ele>214.8</ele>
        <time>2022-09-17T12:02:37.000Z</time>
      </trkpt>
      <trkpt lat="45.11104" lon="5.31016">
        <ele>214.7</ele>
        <time>2022-09-17T12:02:38.000Z</time>
      </trkpt>
      <trkpt lat="45.11102" lon="5.31011">
        <ele>214.6</ele>
        <time>2022-09-17T12:02:39.000Z</time>
      </trkpt>
      <trkpt lat="45.11101" lon="5.31006">
        <ele>214.5</ele>
        <time>2022-09-17T12:02:40.000Z</time>
      </trkpt>
      <trkpt lat="45.11099" lon="5.31">
        <ele>214.4</ele>
        <time>2022-09-17T12:02:41.000Z</time>
      </trkpt>
      <trkpt lat="45.11097" lon="5.30995">
        <ele>214.5</ele>
        <time>2022-09-17T12:02:42.000Z</time>
      </trkpt>
      <trkpt lat="45.11095" lon="5.3099">
        <ele>214.6</ele>
        <time>2022-09-17T12:02:43.000Z</time>
      </trkpt>
      <trkpt lat="45.11093" lon="5.30984">
        <ele>214.6</ele>
        <time>2022-09-17T12:02:44.000Z</time>
      </trkpt>
      <trkpt lat="45.11092" lon="5.30979">
        <ele>214.7</ele>
        <time>2022-09-17T12:02:45.000Z</time>
      </trkpt>
      <trkpt lat="45.1109" lon="5.30973">
        <ele>214.8</ele>
        <time>2022-09-17T12:02:46.000Z</time>
      </trkpt>
      <trkpt lat="45.11088" lon="5.30967">
        <ele>214.8</ele>
        <time>2022-09-17T12:02:47.000Z</time>
      </trkpt>
      <trkpt lat="45.11086" lon="5.30962">
        <ele>214.9</ele>
        <time>2022-09-17T12:02:48.000Z</time>
      </trkpt>
      <trkpt lat="45.11084" lon="5.30956">
        <ele>215</ele>
        <time>2022-09-17T12:02:49.000Z</time>
      </trkpt>
      <trkpt lat="45.11082" lon="5.3095">
        <ele>215</ele>
        <time>2022-09-17T12:02:50.000Z</time>
      </trkpt>
      <trkpt lat="45.1108" lon="5.30944">
        <ele>215</ele>
        <time>2022-09-17T12:02:51.000Z</time>
      </trkpt>
      <trkpt lat="45.11078" lon="5.30938">
        <ele>214.8</ele>
        <time>2022-09-17T12:02:52.000Z</time>
      </trkpt>
      <trkpt lat="45.11076" lon="5.30932">
        <ele>214.7</ele>
        <time>2022-09-17T12:02:53.000Z</time>
      </trkpt>
      <trkpt lat="45.11074" lon="5.30927">
        <ele>214.6</ele>
        <time>2022-09-17T12:02:54.000Z</time>
      </trkpt>
      <trkpt lat="45.11073" lon="5.30921">
        <ele>214.5</ele>
        <time>2022-09-17T12:02:55.000Z</time>
      </trkpt>
      <trkpt lat="45.11071" lon="5.30916">
        <ele>214.4</ele>
        <time>2022-09-17T12:02:56.000Z</time>
      </trkpt>
      <trkpt lat="45.11069" lon="5.30911">
        <ele>214.5</ele>
        <time>2022-09-17T12:02:57.000Z</time>
      </trkpt>
      <trkpt lat="45.11068" lon="5.30906">
        <ele>214.6</ele>
        <time>2022-09-17T12:02:58.000Z</time>
      </trkpt>
      <trkpt lat="45.11066" lon="5.30901">
        <ele>214.6</ele>
        <time>2022-09-17T12:02:59.000Z</time>
      </trkpt>
      <trkpt lat="45.11064" lon="5.30896">
        <ele>214.7</ele>
        <time>2022-09-17T12:03:00.000Z</time>
      </trkpt>
      <trkpt lat="45.11062" lon="5.30891">
        <ele>214.8</ele>
        <time>2022-09-17T12:03:01.000Z</time>
      </trkpt>
      <trkpt lat="45.1106" lon="5.30886">
        <ele>214.7</ele>
        <time>2022-09-17T12:03:02.000Z</time>
      </trkpt>
      <trkpt lat="45.11059" lon="5.30882">
        <ele>214.6</ele>
        <time>2022-09-17T12:03:03.000Z</time>
      </trkpt>
      <trkpt lat="45.11058" lon="5.30878">
        <ele>214.6</ele>
        <time>2022-09-17T12:03:04.000Z</time>
      </trkpt>
      <trkpt lat="45.11056" lon="5.30874">
        <ele>214.4</ele>
        <time>2022-09-17T12:03:05.000Z</time>
      </trkpt>
      <trkpt lat="45.11055" lon="5.30869">
        <ele>214.3</ele>
        <time>2022-09-17T12:03:06.000Z</time>
      </trkpt>
      <trkpt lat="45.11052" lon="5.30865">
        <ele>214.2</ele>
        <time>2022-09-17T12:03:07.000Z</time>
      </trkpt>
      <trkpt lat="45.11051" lon="5.30862">
        <ele>214</ele>
        <time>2022-09-17T12:03:08.000Z</time>
      </trkpt>
      <trkpt lat="45.11049" lon="5.30857">
        <ele>214</ele>
        <time>2022-09-17T12:03:09.000Z</time>
      </trkpt>
      <trkpt lat="45.11048" lon="5.30853">
        <ele>214</ele>
        <time>2022-09-17T12:03:10.000Z</time>
      </trkpt>
      <trkpt lat="45.11047" lon="5.30848">
        <ele>214</ele>
        <time>2022-09-17T12:03:11.000Z</time>
      </trkpt>
      <trkpt lat="45.11045" lon="5.30843">
        <ele>214</ele>
        <time>2022-09-17T12:03:12.000Z</time>
      </trkpt>
      <trkpt lat="45.11044" lon="5.30837">
        <ele>214</ele>
        <time>2022-09-17T12:03:13.000Z</time>
      </trkpt>
      <trkpt lat="45.11042" lon="5.30832">
        <ele>214</ele>
        <time>2022-09-17T12:03:14.000Z</time>
      </trkpt>
      <trkpt lat="45.11039" lon="5.30827">
        <ele>214</ele>
        <time>2022-09-17T12:03:15.000Z</time>
      </trkpt>
      <trkpt lat="45.11036" lon="5.30821">
        <ele>214</ele>
        <time>2022-09-17T12:03:16.000Z</time>
      </trkpt>
      <trkpt lat="45.11033" lon="5.30816">
        <ele>214</ele>
        <time>2022-09-17T12:03:17.000Z</time>
      </trkpt>
      <trkpt lat="45.1103" lon="5.30811">
        <ele>214</ele>
        <time>2022-09-17T12:03:18.000Z</time>
      </trkpt>
      <trkpt lat="45.11026" lon="5.30805">
        <ele>214</ele>
        <time>2022-09-17T12:03:19.000Z</time>
      </trkpt>
      <trkpt lat="45.11023" lon="5.308">
        <ele>214</ele>
        <time>2022-09-17T12:03:20.000Z</time>
      </trkpt>
      <trkpt lat="45.1102" lon="5.30794">
        <ele>214</ele>
        <time>2022-09-17T12:03:21.000Z</time>
      </trkpt>
      <trkpt lat="45.11017" lon="5.30788">
        <ele>214</ele>
        <time>2022-09-17T12:03:22.000Z</time>
      </trkpt>
      <trkpt lat="45.11014" lon="5.30783">
        <ele>214</ele>
        <time>2022-09-17T12:03:23.000Z</time>
      </trkpt>
      <trkpt lat="45.11011" lon="5.30778">
        <ele>214</ele>
        <time>2022-09-17T12:03:24.000Z</time>
      </trkpt>
      <trkpt lat="45.11008" lon="5.30773">
        <ele>213.8</ele>
        <time>2022-09-17T12:03:25.000Z</time>
      </trkpt>
      <trkpt lat="45.11005" lon="5.30769">
        <ele>213.7</ele>
        <time>2022-09-17T12:03:26.000Z</time>
      </trkpt>
      <trkpt lat="45.11002" lon="5.30764">
        <ele>213.5</ele>
        <time>2022-09-17T12:03:27.000Z</time>
      </trkpt>
      <trkpt lat="45.10999" lon="5.30759">
        <ele>213.4</ele>
        <time>2022-09-17T12:03:28.000Z</time>
      </trkpt>
      <trkpt lat="45.10996" lon="5.30755">
        <ele>213.3</ele>
        <time>2022-09-17T12:03:29.000Z</time>
      </trkpt>
      <trkpt lat="45.10993" lon="5.30751">
        <ele>213.3</ele>
        <time>2022-09-17T12:03:30.000Z</time>
      </trkpt>
      <trkpt lat="45.10991" lon="5.30747">
        <ele>213.3</ele>
        <time>2022-09-17T12:03:31.000Z</time>
      </trkpt>
      <trkpt lat="45.10988" lon="5.30742">
        <ele>213.4</ele>
        <time>2022-09-17T12:03:32.000Z</time>
      </trkpt>
      <trkpt lat="45.10985" lon="5.30738">
        <ele>213.5</ele>
        <time>2022-09-17T12:03:33.000Z</time>
      </trkpt>
      <trkpt lat="45.10982" lon="5.30733">
        <ele>213.6</ele>
        <time>2022-09-17T12:03:34.000Z</time>
      </trkpt>
      <trkpt lat="45.1098" lon="5.30729">
        <ele>213.7</ele>
        <time>2022-09-17T12:03:35.000Z</time>
      </trkpt>
      <trkpt lat="45.10977" lon="5.30725">
        <ele>213.8</ele>
        <time>2022-09-17T12:03:36.000Z</time>
      </trkpt>
      <trkpt lat="45.10975" lon="5.30721">
        <ele>213.9</ele>
        <time>2022-09-17T12:03:37.000Z</time>
      </trkpt>
      <trkpt lat="45.10974" lon="5.30717">
        <ele>213.8</ele>
        <time>2022-09-17T12:03:38.000Z</time>
      </trkpt>
      <trkpt lat="45.10972" lon="5.30713">
        <ele>213.7</ele>
        <time>2022-09-17T12:03:39.000Z</time>
      </trkpt>
      <trkpt lat="45.10969" lon="5.3071">
        <ele>213.6</ele>
        <time>2022-09-17T12:03:40.000Z</time>
      </trkpt>
      <trkpt lat="45.10967" lon="5.30707">
        <ele>213.4</ele>
        <time>2022-09-17T12:03:41.000Z</time>
      </trkpt>
      <trkpt lat="45.10965" lon="5.30703">
        <ele>213.3</ele>
        <time>2022-09-17T12:03:42.000Z</time>
      </trkpt>
      <trkpt lat="45.10963" lon="5.307">
        <ele>213.2</ele>
        <time>2022-09-17T12:03:43.000Z</time>
      </trkpt>
      <trkpt lat="45.10961" lon="5.30696">
        <ele>213.1</ele>
        <time>2022-09-17T12:03:44.000Z</time>
      </trkpt>
      <trkpt lat="45.10958" lon="5.30692">
        <ele>212.9</ele>
        <time>2022-09-17T12:03:45.000Z</time>
      </trkpt>
      <trkpt lat="45.10956" lon="5.30688">
        <ele>212.9</ele>
        <time>2022-09-17T12:03:46.000Z</time>
      </trkpt>
      <trkpt lat="45.10953" lon="5.30684">
        <ele>212.9</ele>
        <time>2022-09-17T12:03:47.000Z</time>
      </trkpt>
      <trkpt lat="45.10951" lon="5.3068">
        <ele>212.9</ele>
        <time>2022-09-17T12:03:48.000Z</time>
      </trkpt>
      <trkpt lat="45.10948" lon="5.30676">
        <ele>212.9</ele>
        <time>2022-09-17T12:03:49.000Z</time>
      </trkpt>
      <trkpt lat="45.10945" lon="5.30672">
        <ele>213</ele>
        <time>2022-09-17T12:03:50.000Z</time>
      </trkpt>
      <trkpt lat="45.10942" lon="5.30668">
        <ele>213</ele>
        <time>2022-09-17T12:03:51.000Z</time>
      </trkpt>
      <trkpt lat="45.10939" lon="5.30664">
        <ele>213</ele>
        <time>2022-09-17T12:03:52.000Z</time>
      </trkpt>
      <trkpt lat="45.10936" lon="5.3066">
        <ele>213</ele>
        <time>2022-09-17T12:03:53.000Z</time>
      </trkpt>
      <trkpt lat="45.10933" lon="5.30655">
        <ele>213</ele>
        <time>2022-09-17T12:03:54.000Z</time>
      </trkpt>
      <trkpt lat="45.1093" lon="5.30651">
        <ele>213</ele>
        <time>2022-09-17T12:03:55.000Z</time>
      </trkpt>
      <trkpt lat="45.10927" lon="5.30648">
        <ele>213</ele>
        <time>2022-09-17T12:03:56.000Z</time>
      </trkpt>
      <trkpt lat="45.10924" lon="5.30644">
        <ele>213</ele>
        <time>2022-09-17T12:03:57.000Z</time>
      </trkpt>
      <trkpt lat="45.1092" lon="5.30641">
        <ele>213</ele>
        <time>2022-09-17T12:03:58.000Z</time>
      </trkpt>
      <trkpt lat="45.10917" lon="5.30638">
        <ele>213</ele>
        <time>2022-09-17T12:03:59.000Z</time>
      </trkpt>
      <trkpt lat="45.10914" lon="5.30634">
        <ele>213.1</ele>
        <time>2022-09-17T12:04:00.000Z</time>
      </trkpt>
      <trkpt lat="45.10911" lon="5.30631">
        <ele>213.2</ele>
        <time>2022-09-17T12:04:01.000Z</time>
      </trkpt>
      <trkpt lat="45.10908" lon="5.30627">
        <ele>213.3</ele>
        <time>2022-09-17T12:04:02.000Z</time>
      </trkpt>
      <trkpt lat="45.10905" lon="5.30623">
        <ele>213.4</ele>
        <time>2022-09-17T12:04:03.000Z</time>
      </trkpt>
      <trkpt lat="45.10902" lon="5.30619">
        <ele>213.5</ele>
        <time>2022-09-17T12:04:04.000Z</time>
      </trkpt>
      <trkpt lat="45.109" lon="5.30615">
        <ele>213.6</ele>
        <time>2022-09-17T12:04:05.000Z</time>
      </trkpt>
      <trkpt lat="45.10898" lon="5.30611">
        <ele>213.7</ele>
        <time>2022-09-17T12:04:06.000Z</time>
      </trkpt>
      <trkpt lat="45.10896" lon="5.30606">
        <ele>213.7</ele>
        <time>2022-09-17T12:04:07.000Z</time>
      </trkpt>
      <trkpt lat="45.10895" lon="5.30601">
        <ele>213.7</ele>
        <time>2022-09-17T12:04:08.000Z</time>
      </trkpt>
      <trkpt lat="45.10894" lon="5.30595">
        <ele>213.7</ele>
        <time>2022-09-17T12:04:09.000Z</time>
      </trkpt>
      <trkpt lat="45.10894" lon="5.30589">
        <ele>213.7</ele>
        <time>2022-09-17T12:04:10.000Z</time>
      </trkpt>
      <trkpt lat="45.10893" lon="5.30583">
        <ele>213.7</ele>
        <time>2022-09-17T12:04:11.000Z</time>
      </trkpt>
      <trkpt lat="45.10891" lon="5.30578">
        <ele>213.6</ele>
        <time>2022-09-17T12:04:12.000Z</time>
      </trkpt>
      <trkpt lat="45.1089" lon="5.30572">
        <ele>213.5</ele>
        <time>2022-09-17T12:04:13.000Z</time>
      </trkpt>
      <trkpt lat="45.10889" lon="5.30569">
        <ele>213.4</ele>
        <time>2022-09-17T12:04:14.000Z</time>
      </trkpt>
      <trkpt lat="45.10889" lon="5.30563">
        <ele>213.3</ele>
        <time>2022-09-17T12:04:15.000Z</time>
      </trkpt>
      <trkpt lat="45.10889" lon="5.3056">
        <ele>213.1</ele>
        <time>2022-09-17T12:04:16.000Z</time>
      </trkpt>
      <trkpt lat="45.10889" lon="5.30555">
        <ele>213</ele>
        <time>2022-09-17T12:04:17.000Z</time>
      </trkpt>
      <trkpt lat="45.10889" lon="5.30551">
        <ele>213</ele>
        <time>2022-09-17T12:04:18.000Z</time>
      </trkpt>
      <trkpt lat="45.10889" lon="5.30547">
        <ele>213</ele>
        <time>2022-09-17T12:04:19.000Z</time>
      </trkpt>
      <trkpt lat="45.10889" lon="5.30542">
        <ele>213</ele>
        <time>2022-09-17T12:04:20.000Z</time>
      </trkpt>
      <trkpt lat="45.10889" lon="5.30536">
        <ele>213</ele>
        <time>2022-09-17T12:04:21.000Z</time>
      </trkpt>
      <trkpt lat="45.10889" lon="5.30532">
        <ele>213</ele>
        <time>2022-09-17T12:04:22.000Z</time>
      </trkpt>
      <trkpt lat="45.10888" lon="5.30527">
        <ele>213</ele>
        <time>2022-09-17T12:04:23.000Z</time>
      </trkpt>
      <trkpt lat="45.10887" lon="5.30521">
        <ele>213.1</ele>
        <time>2022-09-17T12:04:24.000Z</time>
      </trkpt>
      <trkpt lat="45.10887" lon="5.30517">
        <ele>213.1</ele>
        <time>2022-09-17T12:04:25.000Z</time>
      </trkpt>
      <trkpt lat="45.10886" lon="5.30512">
        <ele>213.1</ele>
        <time>2022-09-17T12:04:26.000Z</time>
      </trkpt>
      <trkpt lat="45.10886" lon="5.30508">
        <ele>213.1</ele>
        <time>2022-09-17T12:04:27.000Z</time>
      </trkpt>
      <trkpt lat="45.10886" lon="5.30502">
        <ele>213.1</ele>
        <time>2022-09-17T12:04:28.000Z</time>
      </trkpt>
      <trkpt lat="45.10886" lon="5.30496">
        <ele>213</ele>
        <time>2022-09-17T12:04:29.000Z</time>
      </trkpt>
      <trkpt lat="45.10886" lon="5.30489">
        <ele>212.7</ele>
        <time>2022-09-17T12:04:30.000Z</time>
      </trkpt>
      <trkpt lat="45.10885" lon="5.30481">
        <ele>212.4</ele>
        <time>2022-09-17T12:04:31.000Z</time>
      </trkpt>
      <trkpt lat="45.10884" lon="5.30472">
        <ele>212.2</ele>
        <time>2022-09-17T12:04:32.000Z</time>
      </trkpt>
      <trkpt lat="45.10883" lon="5.30464">
        <ele>212.2</ele>
        <time>2022-09-17T12:04:33.000Z</time>
      </trkpt>
      <trkpt lat="45.10883" lon="5.30455">
        <ele>212.2</ele>
        <time>2022-09-17T12:04:34.000Z</time>
      </trkpt>
      <trkpt lat="45.10882" lon="5.30447">
        <ele>212.3</ele>
        <time>2022-09-17T12:04:35.000Z</time>
      </trkpt>
      <trkpt lat="45.10881" lon="5.30438">
        <ele>212.2</ele>
        <time>2022-09-17T12:04:36.000Z</time>
      </trkpt>
      <trkpt lat="45.1088" lon="5.3043">
        <ele>212.2</ele>
        <time>2022-09-17T12:04:37.000Z</time>
      </trkpt>
      <trkpt lat="45.10879" lon="5.30421">
        <ele>212.1</ele>
        <time>2022-09-17T12:04:38.000Z</time>
      </trkpt>
      <trkpt lat="45.10879" lon="5.30413">
        <ele>212</ele>
        <time>2022-09-17T12:04:39.000Z</time>
      </trkpt>
      <trkpt lat="45.10878" lon="5.30404">
        <ele>212</ele>
        <time>2022-09-17T12:04:40.000Z</time>
      </trkpt>
      <trkpt lat="45.10877" lon="5.30396">
        <ele>212</ele>
        <time>2022-09-17T12:04:41.000Z</time>
      </trkpt>
      <trkpt lat="45.10876" lon="5.30388">
        <ele>212</ele>
        <time>2022-09-17T12:04:42.000Z</time>
      </trkpt>
      <trkpt lat="45.10875" lon="5.30381">
        <ele>212</ele>
        <time>2022-09-17T12:04:43.000Z</time>
      </trkpt>
      <trkpt lat="45.10874" lon="5.30372">
        <ele>212</ele>
        <time>2022-09-17T12:04:44.000Z</time>
      </trkpt>
      <trkpt lat="45.10874" lon="5.30365">
        <ele>212</ele>
        <time>2022-09-17T12:04:45.000Z</time>
      </trkpt>
      <trkpt lat="45.10873" lon="5.30357">
        <ele>211.9</ele>
        <time>2022-09-17T12:04:46.000Z</time>
      </trkpt>
      <trkpt lat="45.10872" lon="5.3035">
        <ele>211.8</ele>
        <time>2022-09-17T12:04:47.000Z</time>
      </trkpt>
      <trkpt lat="45.10872" lon="5.30342">
        <ele>211.7</ele>
        <time>2022-09-17T12:04:48.000Z</time>
      </trkpt>
      <trkpt lat="45.10871" lon="5.30335">
        <ele>211.7</ele>
        <time>2022-09-17T12:04:49.000Z</time>
      </trkpt>
      <trkpt lat="45.1087" lon="5.30328">
        <ele>211.7</ele>
        <time>2022-09-17T12:04:50.000Z</time>
      </trkpt>
      <trkpt lat="45.1087" lon="5.30321">
        <ele>211.7</ele>
        <time>2022-09-17T12:04:51.000Z</time>
      </trkpt>
      <trkpt lat="45.10869" lon="5.30313">
        <ele>211.7</ele>
        <time>2022-09-17T12:04:52.000Z</time>
      </trkpt>
      <trkpt lat="45.10869" lon="5.30305">
        <ele>211.7</ele>
        <time>2022-09-17T12:04:53.000Z</time>
      </trkpt>
      <trkpt lat="45.10869" lon="5.30297">
        <ele>211.5</ele>
        <time>2022-09-17T12:04:54.000Z</time>
      </trkpt>
      <trkpt lat="45.10868" lon="5.30289">
        <ele>211.3</ele>
        <time>2022-09-17T12:04:55.000Z</time>
      </trkpt>
      <trkpt lat="45.10867" lon="5.30281">
        <ele>211.1</ele>
        <time>2022-09-17T12:04:56.000Z</time>
      </trkpt>
      <trkpt lat="45.10867" lon="5.30273">
        <ele>211</ele>
        <time>2022-09-17T12:04:57.000Z</time>
      </trkpt>
      <trkpt lat="45.10866" lon="5.30265">
        <ele>210.9</ele>
        <time>2022-09-17T12:04:58.000Z</time>
      </trkpt>
      <trkpt lat="45.10865" lon="5.30256">
        <ele>210.9</ele>
        <time>2022-09-17T12:04:59.000Z</time>
      </trkpt>
      <trkpt lat="45.10865" lon="5.30249">
        <ele>210.9</ele>
        <time>2022-09-17T12:05:00.000Z</time>
      </trkpt>
      <trkpt lat="45.10863" lon="5.30241">
        <ele>210.9</ele>
        <time>2022-09-17T12:05:01.000Z</time>
      </trkpt>
      <trkpt lat="45.10863" lon="5.30233">
        <ele>211</ele>
        <time>2022-09-17T12:05:02.000Z</time>
      </trkpt>
      <trkpt lat="45.10862" lon="5.30225">
        <ele>211</ele>
        <time>2022-09-17T12:05:03.000Z</time>
      </trkpt>
      <trkpt lat="45.10861" lon="5.30216">
        <ele>211</ele>
        <time>2022-09-17T12:05:04.000Z</time>
      </trkpt>
      <trkpt lat="45.1086" lon="5.30208">
        <ele>211</ele>
        <time>2022-09-17T12:05:05.000Z</time>
      </trkpt>
      <trkpt lat="45.1086" lon="5.302">
        <ele>211</ele>
        <time>2022-09-17T12:05:06.000Z</time>
      </trkpt>
      <trkpt lat="45.10859" lon="5.30192">
        <ele>211</ele>
        <time>2022-09-17T12:05:07.000Z</time>
      </trkpt>
      <trkpt lat="45.10859" lon="5.30184">
        <ele>211</ele>
        <time>2022-09-17T12:05:08.000Z</time>
      </trkpt>
      <trkpt lat="45.10858" lon="5.30176">
        <ele>211</ele>
        <time>2022-09-17T12:05:09.000Z</time>
      </trkpt>
      <trkpt lat="45.10857" lon="5.30168">
        <ele>211</ele>
        <time>2022-09-17T12:05:10.000Z</time>
      </trkpt>
      <trkpt lat="45.10856" lon="5.30161">
        <ele>211</ele>
        <time>2022-09-17T12:05:11.000Z</time>
      </trkpt>
      <trkpt lat="45.10855" lon="5.30153">
        <ele>211</ele>
        <time>2022-09-17T12:05:12.000Z</time>
      </trkpt>
      <trkpt lat="45.10855" lon="5.30145">
        <ele>211</ele>
        <time>2022-09-17T12:05:13.000Z</time>
      </trkpt>
      <trkpt lat="45.10854" lon="5.30138">
        <ele>211</ele>
        <time>2022-09-17T12:05:14.000Z</time>
      </trkpt>
      <trkpt lat="45.10853" lon="5.3013">
        <ele>211</ele>
        <time>2022-09-17T12:05:15.000Z</time>
      </trkpt>
      <trkpt lat="45.10853" lon="5.30122">
        <ele>211</ele>
        <time>2022-09-17T12:05:16.000Z</time>
      </trkpt>
      <trkpt lat="45.10852" lon="5.30114">
        <ele>211</ele>
        <time>2022-09-17T12:05:17.000Z</time>
      </trkpt>
      <trkpt lat="45.10852" lon="5.30107">
        <ele>211</ele>
        <time>2022-09-17T12:05:18.000Z</time>
      </trkpt>
      <trkpt lat="45.10851" lon="5.30099">
        <ele>211</ele>
        <time>2022-09-17T12:05:19.000Z</time>
      </trkpt>
      <trkpt lat="45.10851" lon="5.30091">
        <ele>211</ele>
        <time>2022-09-17T12:05:20.000Z</time>
      </trkpt>
      <trkpt lat="45.1085" lon="5.30084">
        <ele>211</ele>
        <time>2022-09-17T12:05:21.000Z</time>
      </trkpt>
      <trkpt lat="45.1085" lon="5.30076">
        <ele>211</ele>
        <time>2022-09-17T12:05:22.000Z</time>
      </trkpt>
      <trkpt lat="45.10849" lon="5.30069">
        <ele>211</ele>
        <time>2022-09-17T12:05:23.000Z</time>
      </trkpt>
      <trkpt lat="45.10848" lon="5.30062">
        <ele>211</ele>
        <time>2022-09-17T12:05:24.000Z</time>
      </trkpt>
      <trkpt lat="45.10848" lon="5.30054">
        <ele>211</ele>
        <time>2022-09-17T12:05:25.000Z</time>
      </trkpt>
      <trkpt lat="45.10847" lon="5.30047">
        <ele>211</ele>
        <time>2022-09-17T12:05:26.000Z</time>
      </trkpt>
      <trkpt lat="45.10846" lon="5.3004">
        <ele>211</ele>
        <time>2022-09-17T12:05:27.000Z</time>
      </trkpt>
      <trkpt lat="45.10846" lon="5.30032">
        <ele>211</ele>
        <time>2022-09-17T12:05:28.000Z</time>
      </trkpt>
      <trkpt lat="45.10845" lon="5.30025">
        <ele>211</ele>
        <time>2022-09-17T12:05:29.000Z</time>
      </trkpt>
      <trkpt lat="45.10844" lon="5.30018">
        <ele>211</ele>
        <time>2022-09-17T12:05:30.000Z</time>
      </trkpt>
      <trkpt lat="45.10844" lon="5.30011">
        <ele>211</ele>
        <time>2022-09-17T12:05:31.000Z</time>
      </trkpt>
      <trkpt lat="45.10843" lon="5.30004">
        <ele>211</ele>
        <time>2022-09-17T12:05:32.000Z</time>
      </trkpt>
      <trkpt lat="45.10842" lon="5.29996">
        <ele>211</ele>
        <time>2022-09-17T12:05:33.000Z</time>
      </trkpt>
      <trkpt lat="45.10842" lon="5.2999">
        <ele>211</ele>
        <time>2022-09-17T12:05:34.000Z</time>
      </trkpt>
      <trkpt lat="45.10841" lon="5.29983">
        <ele>211</ele>
        <time>2022-09-17T12:05:35.000Z</time>
      </trkpt>
      <trkpt lat="45.10841" lon="5.29976">
        <ele>211</ele>
        <time>2022-09-17T12:05:36.000Z</time>
      </trkpt>
      <trkpt lat="45.1084" lon="5.29969">
        <ele>211.1</ele>
        <time>2022-09-17T12:05:37.000Z</time>
      </trkpt>
      <trkpt lat="45.1084" lon="5.29962">
        <ele>211.4</ele>
        <time>2022-09-17T12:05:38.000Z</time>
      </trkpt>
      <trkpt lat="45.1084" lon="5.29955">
        <ele>211.6</ele>
        <time>2022-09-17T12:05:39.000Z</time>
      </trkpt>
      <trkpt lat="45.10839" lon="5.29949">
        <ele>211.9</ele>
        <time>2022-09-17T12:05:40.000Z</time>
      </trkpt>
      <trkpt lat="45.10839" lon="5.29942">
        <ele>211.9</ele>
        <time>2022-09-17T12:05:41.000Z</time>
      </trkpt>
      <trkpt lat="45.10838" lon="5.29936">
        <ele>211.7</ele>
        <time>2022-09-17T12:05:42.000Z</time>
      </trkpt>
      <trkpt lat="45.10838" lon="5.29929">
        <ele>211.5</ele>
        <time>2022-09-17T12:05:43.000Z</time>
      </trkpt>
      <trkpt lat="45.10838" lon="5.29923">
        <ele>211.2</ele>
        <time>2022-09-17T12:05:44.000Z</time>
      </trkpt>
      <trkpt lat="45.10837" lon="5.29916">
        <ele>211</ele>
        <time>2022-09-17T12:05:45.000Z</time>
      </trkpt>
      <trkpt lat="45.10836" lon="5.29909">
        <ele>211</ele>
        <time>2022-09-17T12:05:46.000Z</time>
      </trkpt>
      <trkpt lat="45.10836" lon="5.29902">
        <ele>211</ele>
        <time>2022-09-17T12:05:47.000Z</time>
      </trkpt>
      <trkpt lat="45.10835" lon="5.29895">
        <ele>211</ele>
        <time>2022-09-17T12:05:48.000Z</time>
      </trkpt>
      <trkpt lat="45.10835" lon="5.29889">
        <ele>211</ele>
        <time>2022-09-17T12:05:49.000Z</time>
      </trkpt>
      <trkpt lat="45.10835" lon="5.29883">
        <ele>211</ele>
        <time>2022-09-17T12:05:50.000Z</time>
      </trkpt>
      <trkpt lat="45.10835" lon="5.29877">
        <ele>211</ele>
        <time>2022-09-17T12:05:51.000Z</time>
      </trkpt>
      <trkpt lat="45.10835" lon="5.2987">
        <ele>211</ele>
        <time>2022-09-17T12:05:52.000Z</time>
      </trkpt>
      <trkpt lat="45.10834" lon="5.29864">
        <ele>211</ele>
        <time>2022-09-17T12:05:53.000Z</time>
      </trkpt>
      <trkpt lat="45.10834" lon="5.29857">
        <ele>211</ele>
        <time>2022-09-17T12:05:54.000Z</time>
      </trkpt>
      <trkpt lat="45.10833" lon="5.29852">
        <ele>211</ele>
        <time>2022-09-17T12:05:55.000Z</time>
      </trkpt>
      <trkpt lat="45.10833" lon="5.29846">
        <ele>211</ele>
        <time>2022-09-17T12:05:56.000Z</time>
      </trkpt>
      <trkpt lat="45.10832" lon="5.2984">
        <ele>211</ele>
        <time>2022-09-17T12:05:57.000Z</time>
      </trkpt>
      <trkpt lat="45.10831" lon="5.29833">
        <ele>211</ele>
        <time>2022-09-17T12:05:58.000Z</time>
      </trkpt>
      <trkpt lat="45.1083" lon="5.29827">
        <ele>211</ele>
        <time>2022-09-17T12:05:59.000Z</time>
      </trkpt>
      <trkpt lat="45.10829" lon="5.2982">
        <ele>211</ele>
        <time>2022-09-17T12:06:00.000Z</time>
      </trkpt>
      <trkpt lat="45.10829" lon="5.29813">
        <ele>211</ele>
        <time>2022-09-17T12:06:01.000Z</time>
      </trkpt>
      <trkpt lat="45.10828" lon="5.29806">
        <ele>211</ele>
        <time>2022-09-17T12:06:02.000Z</time>
      </trkpt>
      <trkpt lat="45.10827" lon="5.298">
        <ele>211</ele>
        <time>2022-09-17T12:06:03.000Z</time>
      </trkpt>
      <trkpt lat="45.10827" lon="5.29793">
        <ele>211</ele>
        <time>2022-09-17T12:06:04.000Z</time>
      </trkpt>
      <trkpt lat="45.10826" lon="5.29787">
        <ele>211</ele>
        <time>2022-09-17T12:06:05.000Z</time>
      </trkpt>
      <trkpt lat="45.10826" lon="5.2978">
        <ele>211</ele>
        <time>2022-09-17T12:06:06.000Z</time>
      </trkpt>
      <trkpt lat="45.10825" lon="5.29772">
        <ele>211</ele>
        <time>2022-09-17T12:06:07.000Z</time>
      </trkpt>
      <trkpt lat="45.10825" lon="5.29765">
        <ele>211</ele>
        <time>2022-09-17T12:06:08.000Z</time>
      </trkpt>
      <trkpt lat="45.10824" lon="5.29758">
        <ele>211</ele>
        <time>2022-09-17T12:06:09.000Z</time>
      </trkpt>
      <trkpt lat="45.10824" lon="5.29751">
        <ele>211</ele>
        <time>2022-09-17T12:06:10.000Z</time>
      </trkpt>
      <trkpt lat="45.10823" lon="5.29744">
        <ele>211</ele>
        <time>2022-09-17T12:06:11.000Z</time>
      </trkpt>
      <trkpt lat="45.10822" lon="5.29736">
        <ele>211</ele>
        <time>2022-09-17T12:06:12.000Z</time>
      </trkpt>
      <trkpt lat="45.10822" lon="5.29729">
        <ele>211</ele>
        <time>2022-09-17T12:06:13.000Z</time>
      </trkpt>
      <trkpt lat="45.10821" lon="5.29722">
        <ele>211</ele>
        <time>2022-09-17T12:06:14.000Z</time>
      </trkpt>
      <trkpt lat="45.10821" lon="5.29715">
        <ele>211</ele>
        <time>2022-09-17T12:06:15.000Z</time>
      </trkpt>
      <trkpt lat="45.1082" lon="5.29708">
        <ele>211</ele>
        <time>2022-09-17T12:06:16.000Z</time>
      </trkpt>
      <trkpt lat="45.10819" lon="5.29701">
        <ele>211</ele>
        <time>2022-09-17T12:06:17.000Z</time>
      </trkpt>
      <trkpt lat="45.10819" lon="5.29694">
        <ele>211</ele>
        <time>2022-09-17T12:06:18.000Z</time>
      </trkpt>
      <trkpt lat="45.10818" lon="5.29687">
        <ele>211</ele>
        <time>2022-09-17T12:06:19.000Z</time>
      </trkpt>
      <trkpt lat="45.10818" lon="5.2968">
        <ele>211</ele>
        <time>2022-09-17T12:06:20.000Z</time>
      </trkpt>
      <trkpt lat="45.10817" lon="5.29673">
        <ele>211</ele>
        <time>2022-09-17T12:06:21.000Z</time>
      </trkpt>
      <trkpt lat="45.10817" lon="5.29666">
        <ele>211</ele>
        <time>2022-09-17T12:06:22.000Z</time>
      </trkpt>
      <trkpt lat="45.10816" lon="5.29659">
        <ele>211</ele>
        <time>2022-09-17T12:06:23.000Z</time>
      </trkpt>
      <trkpt lat="45.10816" lon="5.29652">
        <ele>211</ele>
        <time>2022-09-17T12:06:24.000Z</time>
      </trkpt>
      <trkpt lat="45.10815" lon="5.29645">
        <ele>211</ele>
        <time>2022-09-17T12:06:25.000Z</time>
      </trkpt>
      <trkpt lat="45.10815" lon="5.29638">
        <ele>211</ele>
        <time>2022-09-17T12:06:26.000Z</time>
      </trkpt>
      <trkpt lat="45.10814" lon="5.29631">
        <ele>211</ele>
        <time>2022-09-17T12:06:27.000Z</time>
      </trkpt>
      <trkpt lat="45.10813" lon="5.29624">
        <ele>211</ele>
        <time>2022-09-17T12:06:28.000Z</time>
      </trkpt>
      <trkpt lat="45.10813" lon="5.29617">
        <ele>211</ele>
        <time>2022-09-17T12:06:29.000Z</time>
      </trkpt>
      <trkpt lat="45.10812" lon="5.2961">
        <ele>211</ele>
        <time>2022-09-17T12:06:30.000Z</time>
      </trkpt>
      <trkpt lat="45.10812" lon="5.29603">
        <ele>211</ele>
        <time>2022-09-17T12:06:31.000Z</time>
      </trkpt>
      <trkpt lat="45.10812" lon="5.29596">
        <ele>211</ele>
        <time>2022-09-17T12:06:32.000Z</time>
      </trkpt>
      <trkpt lat="45.10811" lon="5.29589">
        <ele>211</ele>
        <time>2022-09-17T12:06:33.000Z</time>
      </trkpt>
      <trkpt lat="45.1081" lon="5.29582">
        <ele>211</ele>
        <time>2022-09-17T12:06:34.000Z</time>
      </trkpt>
      <trkpt lat="45.1081" lon="5.29575">
        <ele>211</ele>
        <time>2022-09-17T12:06:35.000Z</time>
      </trkpt>
      <trkpt lat="45.10809" lon="5.29569">
        <ele>211</ele>
        <time>2022-09-17T12:06:36.000Z</time>
      </trkpt>
      <trkpt lat="45.10809" lon="5.29563">
        <ele>211</ele>
        <time>2022-09-17T12:06:37.000Z</time>
      </trkpt>
      <trkpt lat="45.10809" lon="5.29557">
        <ele>211</ele>
        <time>2022-09-17T12:06:38.000Z</time>
      </trkpt>
      <trkpt lat="45.10808" lon="5.2955">
        <ele>211</ele>
        <time>2022-09-17T12:06:39.000Z</time>
      </trkpt>
      <trkpt lat="45.10808" lon="5.29544">
        <ele>211</ele>
        <time>2022-09-17T12:06:40.000Z</time>
      </trkpt>
      <trkpt lat="45.10807" lon="5.29538">
        <ele>211</ele>
        <time>2022-09-17T12:06:41.000Z</time>
      </trkpt>
      <trkpt lat="45.10806" lon="5.29532">
        <ele>211</ele>
        <time>2022-09-17T12:06:42.000Z</time>
      </trkpt>
      <trkpt lat="45.10806" lon="5.29527">
        <ele>211</ele>
        <time>2022-09-17T12:06:43.000Z</time>
      </trkpt>
      <trkpt lat="45.10805" lon="5.29522">
        <ele>211</ele>
        <time>2022-09-17T12:06:44.000Z</time>
      </trkpt>
      <trkpt lat="45.10805" lon="5.29516">
        <ele>211</ele>
        <time>2022-09-17T12:06:45.000Z</time>
      </trkpt>
      <trkpt lat="45.10804" lon="5.2951">
        <ele>211</ele>
        <time>2022-09-17T12:06:46.000Z</time>
      </trkpt>
      <trkpt lat="45.10804" lon="5.29505">
        <ele>211</ele>
        <time>2022-09-17T12:06:47.000Z</time>
      </trkpt>
      <trkpt lat="45.10804" lon="5.29499">
        <ele>211</ele>
        <time>2022-09-17T12:06:48.000Z</time>
      </trkpt>
      <trkpt lat="45.10803" lon="5.29493">
        <ele>211</ele>
        <time>2022-09-17T12:06:49.000Z</time>
      </trkpt>
      <trkpt lat="45.10803" lon="5.29487">
        <ele>211</ele>
        <time>2022-09-17T12:06:50.000Z</time>
      </trkpt>
      <trkpt lat="45.10802" lon="5.29481">
        <ele>211</ele>
        <time>2022-09-17T12:06:51.000Z</time>
      </trkpt>
      <trkpt lat="45.10802" lon="5.29475">
        <ele>211</ele>
        <time>2022-09-17T12:06:52.000Z</time>
      </trkpt>
      <trkpt lat="45.10801" lon="5.29469">
        <ele>211</ele>
        <time>2022-09-17T12:06:53.000Z</time>
      </trkpt>
      <trkpt lat="45.108" lon="5.29463">
        <ele>211</ele>
        <time>2022-09-17T12:06:54.000Z</time>
      </trkpt>
      <trkpt lat="45.108" lon="5.29457">
        <ele>211</ele>
        <time>2022-09-17T12:06:55.000Z</time>
      </trkpt>
      <trkpt lat="45.10799" lon="5.29451">
        <ele>211</ele>
        <time>2022-09-17T12:06:56.000Z</time>
      </trkpt>
      <trkpt lat="45.10799" lon="5.29445">
        <ele>211</ele>
        <time>2022-09-17T12:06:57.000Z</time>
      </trkpt>
      <trkpt lat="45.10798" lon="5.29439">
        <ele>211.1</ele>
        <time>2022-09-17T12:06:58.000Z</time>
      </trkpt>
      <trkpt lat="45.10797" lon="5.29433">
        <ele>211.3</ele>
        <time>2022-09-17T12:06:59.000Z</time>
      </trkpt>
      <trkpt lat="45.10797" lon="5.29427">
        <ele>211.4</ele>
        <time>2022-09-17T12:07:00.000Z</time>
      </trkpt>
      <trkpt lat="45.10796" lon="5.29421">
        <ele>211.6</ele>
        <time>2022-09-17T12:07:01.000Z</time>
      </trkpt>
      <trkpt lat="45.10796" lon="5.29414">
        <ele>211.6</ele>
        <time>2022-09-17T12:07:02.000Z</time>
      </trkpt>
      <trkpt lat="45.10795" lon="5.29408">
        <ele>211.4</ele>
        <time>2022-09-17T12:07:03.000Z</time>
      </trkpt>
      <trkpt lat="45.10795" lon="5.29402">
        <ele>211.3</ele>
        <time>2022-09-17T12:07:04.000Z</time>
      </trkpt>
      <trkpt lat="45.10794" lon="5.29395">
        <ele>211.1</ele>
        <time>2022-09-17T12:07:05.000Z</time>
      </trkpt>
      <trkpt lat="45.10794" lon="5.29389">
        <ele>211</ele>
        <time>2022-09-17T12:07:06.000Z</time>
      </trkpt>
      <trkpt lat="45.10793" lon="5.29383">
        <ele>211</ele>
        <time>2022-09-17T12:07:07.000Z</time>
      </trkpt>
      <trkpt lat="45.10793" lon="5.29377">
        <ele>211</ele>
        <time>2022-09-17T12:07:08.000Z</time>
      </trkpt>
      <trkpt lat="45.10792" lon="5.29371">
        <ele>211</ele>
        <time>2022-09-17T12:07:09.000Z</time>
      </trkpt>
      <trkpt lat="45.10792" lon="5.29365">
        <ele>211</ele>
        <time>2022-09-17T12:07:10.000Z</time>
      </trkpt>
      <trkpt lat="45.10791" lon="5.29358">
        <ele>211</ele>
        <time>2022-09-17T12:07:11.000Z</time>
      </trkpt>
      <trkpt lat="45.10791" lon="5.29352">
        <ele>211</ele>
        <time>2022-09-17T12:07:12.000Z</time>
      </trkpt>
      <trkpt lat="45.1079" lon="5.29345">
        <ele>211</ele>
        <time>2022-09-17T12:07:13.000Z</time>
      </trkpt>
      <trkpt lat="45.10789" lon="5.29338">
        <ele>211</ele>
        <time>2022-09-17T12:07:14.000Z</time>
      </trkpt>
      <trkpt lat="45.10789" lon="5.29332">
        <ele>211</ele>
        <time>2022-09-17T12:07:15.000Z</time>
      </trkpt>
      <trkpt lat="45.10788" lon="5.29325">
        <ele>211</ele>
        <time>2022-09-17T12:07:16.000Z</time>
      </trkpt>
      <trkpt lat="45.10788" lon="5.29319">
        <ele>211</ele>
        <time>2022-09-17T12:07:17.000Z</time>
      </trkpt>
      <trkpt lat="45.10787" lon="5.29312">
        <ele>211</ele>
        <time>2022-09-17T12:07:18.000Z</time>
      </trkpt>
      <trkpt lat="45.10787" lon="5.29305">
        <ele>211</ele>
        <time>2022-09-17T12:07:19.000Z</time>
      </trkpt>
      <trkpt lat="45.10786" lon="5.29298">
        <ele>211.2</ele>
        <time>2022-09-17T12:07:20.000Z</time>
      </trkpt>
      <trkpt lat="45.10786" lon="5.29291">
        <ele>211.4</ele>
        <time>2022-09-17T12:07:21.000Z</time>
      </trkpt>
      <trkpt lat="45.10785" lon="5.29284">
        <ele>211.6</ele>
        <time>2022-09-17T12:07:22.000Z</time>
      </trkpt>
      <trkpt lat="45.10785" lon="5.29278">
        <ele>211.8</ele>
        <time>2022-09-17T12:07:23.000Z</time>
      </trkpt>
      <trkpt lat="45.10784" lon="5.29271">
        <ele>211.8</ele>
        <time>2022-09-17T12:07:24.000Z</time>
      </trkpt>
      <trkpt lat="45.10784" lon="5.29265">
        <ele>211.8</ele>
        <time>2022-09-17T12:07:25.000Z</time>
      </trkpt>
      <trkpt lat="45.10784" lon="5.29259">
        <ele>211.8</ele>
        <time>2022-09-17T12:07:26.000Z</time>
      </trkpt>
      <trkpt lat="45.10783" lon="5.29253">
        <ele>211.8</ele>
        <time>2022-09-17T12:07:27.000Z</time>
      </trkpt>
      <trkpt lat="45.10783" lon="5.29246">
        <ele>211.8</ele>
        <time>2022-09-17T12:07:28.000Z</time>
      </trkpt>
      <trkpt lat="45.10782" lon="5.2924">
        <ele>211.8</ele>
        <time>2022-09-17T12:07:29.000Z</time>
      </trkpt>
      <trkpt lat="45.10781" lon="5.29235">
        <ele>211.9</ele>
        <time>2022-09-17T12:07:30.000Z</time>
      </trkpt>
      <trkpt lat="45.10781" lon="5.29228">
        <ele>211.9</ele>
        <time>2022-09-17T12:07:31.000Z</time>
      </trkpt>
      <trkpt lat="45.1078" lon="5.29222">
        <ele>211.9</ele>
        <time>2022-09-17T12:07:32.000Z</time>
      </trkpt>
      <trkpt lat="45.10779" lon="5.29216">
        <ele>211.7</ele>
        <time>2022-09-17T12:07:33.000Z</time>
      </trkpt>
      <trkpt lat="45.10779" lon="5.2921">
        <ele>211.5</ele>
        <time>2022-09-17T12:07:34.000Z</time>
      </trkpt>
      <trkpt lat="45.10778" lon="5.29203">
        <ele>211.3</ele>
        <time>2022-09-17T12:07:35.000Z</time>
      </trkpt>
      <trkpt lat="45.10777" lon="5.29196">
        <ele>211.1</ele>
        <time>2022-09-17T12:07:36.000Z</time>
      </trkpt>
      <trkpt lat="45.10776" lon="5.29189">
        <ele>211.1</ele>
        <time>2022-09-17T12:07:37.000Z</time>
      </trkpt>
      <trkpt lat="45.10776" lon="5.29181">
        <ele>211.1</ele>
        <time>2022-09-17T12:07:38.000Z</time>
      </trkpt>
      <trkpt lat="45.10775" lon="5.29174">
        <ele>211.1</ele>
        <time>2022-09-17T12:07:39.000Z</time>
      </trkpt>
      <trkpt lat="45.10775" lon="5.29167">
        <ele>211.1</ele>
        <time>2022-09-17T12:07:40.000Z</time>
      </trkpt>
      <trkpt lat="45.10774" lon="5.29159">
        <ele>211.1</ele>
        <time>2022-09-17T12:07:41.000Z</time>
      </trkpt>
      <trkpt lat="45.10774" lon="5.29152">
        <ele>211.1</ele>
        <time>2022-09-17T12:07:42.000Z</time>
      </trkpt>
      <trkpt lat="45.10773" lon="5.29144">
        <ele>211.2</ele>
        <time>2022-09-17T12:07:43.000Z</time>
      </trkpt>
      <trkpt lat="45.10772" lon="5.29137">
        <ele>211.2</ele>
        <time>2022-09-17T12:07:44.000Z</time>
      </trkpt>
      <trkpt lat="45.10772" lon="5.29131">
        <ele>211.2</ele>
        <time>2022-09-17T12:07:45.000Z</time>
      </trkpt>
      <trkpt lat="45.10771" lon="5.29123">
        <ele>211.2</ele>
        <time>2022-09-17T12:07:46.000Z</time>
      </trkpt>
      <trkpt lat="45.10771" lon="5.29116">
        <ele>211.3</ele>
        <time>2022-09-17T12:07:47.000Z</time>
      </trkpt>
      <trkpt lat="45.1077" lon="5.29109">
        <ele>211.2</ele>
        <time>2022-09-17T12:07:48.000Z</time>
      </trkpt>
      <trkpt lat="45.10769" lon="5.29101">
        <ele>211</ele>
        <time>2022-09-17T12:07:49.000Z</time>
      </trkpt>
      <trkpt lat="45.10768" lon="5.29094">
        <ele>210.7</ele>
        <time>2022-09-17T12:07:50.000Z</time>
      </trkpt>
      <trkpt lat="45.10768" lon="5.29087">
        <ele>210.5</ele>
        <time>2022-09-17T12:07:51.000Z</time>
      </trkpt>
      <trkpt lat="45.10767" lon="5.2908">
        <ele>210.3</ele>
        <time>2022-09-17T12:07:52.000Z</time>
      </trkpt>
      <trkpt lat="45.10767" lon="5.29073">
        <ele>210.2</ele>
        <time>2022-09-17T12:07:53.000Z</time>
      </trkpt>
      <trkpt lat="45.10767" lon="5.29067">
        <ele>210.1</ele>
        <time>2022-09-17T12:07:54.000Z</time>
      </trkpt>
      <trkpt lat="45.10768" lon="5.29058">
        <ele>210</ele>
        <time>2022-09-17T12:07:55.000Z</time>
      </trkpt>
      <trkpt lat="45.10768" lon="5.29049">
        <ele>209.8</ele>
        <time>2022-09-17T12:07:56.000Z</time>
      </trkpt>
      <trkpt lat="45.10767" lon="5.29041">
        <ele>209.5</ele>
        <time>2022-09-17T12:07:57.000Z</time>
      </trkpt>
      <trkpt lat="45.10767" lon="5.29033">
        <ele>209.2</ele>
        <time>2022-09-17T12:07:58.000Z</time>
      </trkpt>
      <trkpt lat="45.10767" lon="5.29025">
        <ele>209</ele>
        <time>2022-09-17T12:07:59.000Z</time>
      </trkpt>
      <trkpt lat="45.10766" lon="5.29018">
        <ele>209</ele>
        <time>2022-09-17T12:08:00.000Z</time>
      </trkpt>
      <trkpt lat="45.10766" lon="5.2901">
        <ele>209</ele>
        <time>2022-09-17T12:08:01.000Z</time>
      </trkpt>
      <trkpt lat="45.10766" lon="5.29003">
        <ele>209</ele>
        <time>2022-09-17T12:08:02.000Z</time>
      </trkpt>
      <trkpt lat="45.10765" lon="5.28996">
        <ele>209</ele>
        <time>2022-09-17T12:08:03.000Z</time>
      </trkpt>
      <trkpt lat="45.10765" lon="5.28989">
        <ele>209</ele>
        <time>2022-09-17T12:08:04.000Z</time>
      </trkpt>
      <trkpt lat="45.10765" lon="5.28982">
        <ele>209</ele>
        <time>2022-09-17T12:08:05.000Z</time>
      </trkpt>
      <trkpt lat="45.10765" lon="5.28976">
        <ele>209</ele>
        <time>2022-09-17T12:08:06.000Z</time>
      </trkpt>
      <trkpt lat="45.10765" lon="5.2897">
        <ele>209</ele>
        <time>2022-09-17T12:08:07.000Z</time>
      </trkpt>
      <trkpt lat="45.10766" lon="5.28965">
        <ele>209.1</ele>
        <time>2022-09-17T12:08:08.000Z</time>
      </trkpt>
      <trkpt lat="45.10766" lon="5.28959">
        <ele>209.2</ele>
        <time>2022-09-17T12:08:09.000Z</time>
      </trkpt>
      <trkpt lat="45.10767" lon="5.28954">
        <ele>209.3</ele>
        <time>2022-09-17T12:08:10.000Z</time>
      </trkpt>
      <trkpt lat="45.10766" lon="5.28948">
        <ele>209.4</ele>
        <time>2022-09-17T12:08:11.000Z</time>
      </trkpt>
      <trkpt lat="45.10765" lon="5.28942">
        <ele>209.4</ele>
        <time>2022-09-17T12:08:12.000Z</time>
      </trkpt>
      <trkpt lat="45.10764" lon="5.28937">
        <ele>209.4</ele>
        <time>2022-09-17T12:08:13.000Z</time>
      </trkpt>
      <trkpt lat="45.10762" lon="5.28931">
        <ele>209.3</ele>
        <time>2022-09-17T12:08:14.000Z</time>
      </trkpt>
      <trkpt lat="45.10761" lon="5.28924">
        <ele>209.2</ele>
        <time>2022-09-17T12:08:15.000Z</time>
      </trkpt>
      <trkpt lat="45.10759" lon="5.28917">
        <ele>209</ele>
        <time>2022-09-17T12:08:16.000Z</time>
      </trkpt>
      <trkpt lat="45.10758" lon="5.2891">
        <ele>209</ele>
        <time>2022-09-17T12:08:17.000Z</time>
      </trkpt>
      <trkpt lat="45.10757" lon="5.28903">
        <ele>209</ele>
        <time>2022-09-17T12:08:18.000Z</time>
      </trkpt>
      <trkpt lat="45.10757" lon="5.28896">
        <ele>209</ele>
        <time>2022-09-17T12:08:19.000Z</time>
      </trkpt>
      <trkpt lat="45.10756" lon="5.28889">
        <ele>209</ele>
        <time>2022-09-17T12:08:20.000Z</time>
      </trkpt>
      <trkpt lat="45.10755" lon="5.28882">
        <ele>209</ele>
        <time>2022-09-17T12:08:21.000Z</time>
      </trkpt>
      <trkpt lat="45.10754" lon="5.28875">
        <ele>209</ele>
        <time>2022-09-17T12:08:22.000Z</time>
      </trkpt>
      <trkpt lat="45.10754" lon="5.28868">
        <ele>209</ele>
        <time>2022-09-17T12:08:23.000Z</time>
      </trkpt>
      <trkpt lat="45.10753" lon="5.28862">
        <ele>209</ele>
        <time>2022-09-17T12:08:24.000Z</time>
      </trkpt>
      <trkpt lat="45.10753" lon="5.28855">
        <ele>209</ele>
        <time>2022-09-17T12:08:25.000Z</time>
      </trkpt>
      <trkpt lat="45.10753" lon="5.28849">
        <ele>209</ele>
        <time>2022-09-17T12:08:26.000Z</time>
      </trkpt>
      <trkpt lat="45.10752" lon="5.28842">
        <ele>209</ele>
        <time>2022-09-17T12:08:27.000Z</time>
      </trkpt>
      <trkpt lat="45.10751" lon="5.28836">
        <ele>209</ele>
        <time>2022-09-17T12:08:28.000Z</time>
      </trkpt>
      <trkpt lat="45.1075" lon="5.2883">
        <ele>208.9</ele>
        <time>2022-09-17T12:08:29.000Z</time>
      </trkpt>
      <trkpt lat="45.10749" lon="5.28824">
        <ele>208.7</ele>
        <time>2022-09-17T12:08:30.000Z</time>
      </trkpt>
      <trkpt lat="45.10749" lon="5.28817">
        <ele>208.4</ele>
        <time>2022-09-17T12:08:31.000Z</time>
      </trkpt>
      <trkpt lat="45.10748" lon="5.28811">
        <ele>208.2</ele>
        <time>2022-09-17T12:08:32.000Z</time>
      </trkpt>
      <trkpt lat="45.10748" lon="5.28804">
        <ele>208.1</ele>
        <time>2022-09-17T12:08:33.000Z</time>
      </trkpt>
      <trkpt lat="45.10747" lon="5.28797">
        <ele>208.1</ele>
        <time>2022-09-17T12:08:34.000Z</time>
      </trkpt>
      <trkpt lat="45.10747" lon="5.2879">
        <ele>208.1</ele>
        <time>2022-09-17T12:08:35.000Z</time>
      </trkpt>
      <trkpt lat="45.10746" lon="5.28783">
        <ele>208.1</ele>
        <time>2022-09-17T12:08:36.000Z</time>
      </trkpt>
      <trkpt lat="45.10746" lon="5.28776">
        <ele>208.1</ele>
        <time>2022-09-17T12:08:37.000Z</time>
      </trkpt>
      <trkpt lat="45.10745" lon="5.28769">
        <ele>208.1</ele>
        <time>2022-09-17T12:08:38.000Z</time>
      </trkpt>
      <trkpt lat="45.10745" lon="5.28763">
        <ele>208.1</ele>
        <time>2022-09-17T12:08:39.000Z</time>
      </trkpt>
      <trkpt lat="45.10744" lon="5.28756">
        <ele>208</ele>
        <time>2022-09-17T12:08:40.000Z</time>
      </trkpt>
      <trkpt lat="45.10744" lon="5.28749">
        <ele>208</ele>
        <time>2022-09-17T12:08:41.000Z</time>
      </trkpt>
      <trkpt lat="45.10743" lon="5.28742">
        <ele>208.2</ele>
        <time>2022-09-17T12:08:42.000Z</time>
      </trkpt>
      <trkpt lat="45.10743" lon="5.28736">
        <ele>208.4</ele>
        <time>2022-09-17T12:08:43.000Z</time>
      </trkpt>
      <trkpt lat="45.10743" lon="5.28729">
        <ele>208.6</ele>
        <time>2022-09-17T12:08:44.000Z</time>
      </trkpt>
      <trkpt lat="45.10742" lon="5.28723">
        <ele>208.7</ele>
        <time>2022-09-17T12:08:45.000Z</time>
      </trkpt>
      <trkpt lat="45.10742" lon="5.28716">
        <ele>208.7</ele>
        <time>2022-09-17T12:08:46.000Z</time>
      </trkpt>
      <trkpt lat="45.10741" lon="5.2871">
        <ele>208.7</ele>
        <time>2022-09-17T12:08:47.000Z</time>
      </trkpt>
      <trkpt lat="45.1074" lon="5.28703">
        <ele>208.7</ele>
        <time>2022-09-17T12:08:48.000Z</time>
      </trkpt>
      <trkpt lat="45.1074" lon="5.28697">
        <ele>208.6</ele>
        <time>2022-09-17T12:08:49.000Z</time>
      </trkpt>
      <trkpt lat="45.10739" lon="5.28691">
        <ele>208.6</ele>
        <time>2022-09-17T12:08:50.000Z</time>
      </trkpt>
      <trkpt lat="45.10739" lon="5.28685">
        <ele>208.6</ele>
        <time>2022-09-17T12:08:51.000Z</time>
      </trkpt>
      <trkpt lat="45.10738" lon="5.28679">
        <ele>208.6</ele>
        <time>2022-09-17T12:08:52.000Z</time>
      </trkpt>
      <trkpt lat="45.10738" lon="5.28673">
        <ele>208.5</ele>
        <time>2022-09-17T12:08:53.000Z</time>
      </trkpt>
      <trkpt lat="45.10737" lon="5.28667">
        <ele>208.5</ele>
        <time>2022-09-17T12:08:54.000Z</time>
      </trkpt>
      <trkpt lat="45.10736" lon="5.2866">
        <ele>208.5</ele>
        <time>2022-09-17T12:08:55.000Z</time>
      </trkpt>
      <trkpt lat="45.10735" lon="5.28654">
        <ele>208.5</ele>
        <time>2022-09-17T12:08:56.000Z</time>
      </trkpt>
      <trkpt lat="45.10735" lon="5.28649">
        <ele>208.5</ele>
        <time>2022-09-17T12:08:57.000Z</time>
      </trkpt>
      <trkpt lat="45.10734" lon="5.28643">
        <ele>208.4</ele>
        <time>2022-09-17T12:08:58.000Z</time>
      </trkpt>
      <trkpt lat="45.10734" lon="5.28636">
        <ele>208.5</ele>
        <time>2022-09-17T12:08:59.000Z</time>
      </trkpt>
      <trkpt lat="45.10733" lon="5.2863">
        <ele>208.6</ele>
        <time>2022-09-17T12:09:00.000Z</time>
      </trkpt>
      <trkpt lat="45.10733" lon="5.28623">
        <ele>208.7</ele>
        <time>2022-09-17T12:09:01.000Z</time>
      </trkpt>
      <trkpt lat="45.10733" lon="5.28617">
        <ele>208.9</ele>
        <time>2022-09-17T12:09:02.000Z</time>
      </trkpt>
      <trkpt lat="45.10732" lon="5.2861">
        <ele>209</ele>
        <time>2022-09-17T12:09:03.000Z</time>
      </trkpt>
      <trkpt lat="45.10732" lon="5.28604">
        <ele>209.2</ele>
        <time>2022-09-17T12:09:04.000Z</time>
      </trkpt>
      <trkpt lat="45.10731" lon="5.28597">
        <ele>209.3</ele>
        <time>2022-09-17T12:09:05.000Z</time>
      </trkpt>
      <trkpt lat="45.10731" lon="5.2859">
        <ele>209.4</ele>
        <time>2022-09-17T12:09:06.000Z</time>
      </trkpt>
      <trkpt lat="45.1073" lon="5.28584">
        <ele>209.5</ele>
        <time>2022-09-17T12:09:07.000Z</time>
      </trkpt>
      <trkpt lat="45.1073" lon="5.28578">
        <ele>209.5</ele>
        <time>2022-09-17T12:09:08.000Z</time>
      </trkpt>
      <trkpt lat="45.10729" lon="5.28571">
        <ele>209.4</ele>
        <time>2022-09-17T12:09:09.000Z</time>
      </trkpt>
      <trkpt lat="45.10729" lon="5.28565">
        <ele>209.3</ele>
        <time>2022-09-17T12:09:10.000Z</time>
      </trkpt>
      <trkpt lat="45.10728" lon="5.28558">
        <ele>209.2</ele>
        <time>2022-09-17T12:09:11.000Z</time>
      </trkpt>
      <trkpt lat="45.10728" lon="5.28552">
        <ele>209.3</ele>
        <time>2022-09-17T12:09:12.000Z</time>
      </trkpt>
      <trkpt lat="45.10727" lon="5.28546">
        <ele>209.4</ele>
        <time>2022-09-17T12:09:13.000Z</time>
      </trkpt>
      <trkpt lat="45.10727" lon="5.28541">
        <ele>209.5</ele>
        <time>2022-09-17T12:09:14.000Z</time>
      </trkpt>
      <trkpt lat="45.10726" lon="5.28535">
        <ele>209.7</ele>
        <time>2022-09-17T12:09:15.000Z</time>
      </trkpt>
      <trkpt lat="45.10725" lon="5.28529">
        <ele>209.9</ele>
        <time>2022-09-17T12:09:16.000Z</time>
      </trkpt>
      <trkpt lat="45.10725" lon="5.28523">
        <ele>209.9</ele>
        <time>2022-09-17T12:09:17.000Z</time>
      </trkpt>
      <trkpt lat="45.10724" lon="5.28517">
        <ele>209.9</ele>
        <time>2022-09-17T12:09:18.000Z</time>
      </trkpt>
      <trkpt lat="45.10724" lon="5.2851">
        <ele>209.9</ele>
        <time>2022-09-17T12:09:19.000Z</time>
      </trkpt>
      <trkpt lat="45.10724" lon="5.28504">
        <ele>209.9</ele>
        <time>2022-09-17T12:09:20.000Z</time>
      </trkpt>
      <trkpt lat="45.10723" lon="5.28498">
        <ele>209.9</ele>
        <time>2022-09-17T12:09:21.000Z</time>
      </trkpt>
      <trkpt lat="45.10722" lon="5.28492">
        <ele>210</ele>
        <time>2022-09-17T12:09:22.000Z</time>
      </trkpt>
      <trkpt lat="45.10722" lon="5.28486">
        <ele>210</ele>
        <time>2022-09-17T12:09:23.000Z</time>
      </trkpt>
      <trkpt lat="45.10722" lon="5.28479">
        <ele>210</ele>
        <time>2022-09-17T12:09:24.000Z</time>
      </trkpt>
      <trkpt lat="45.10721" lon="5.28472">
        <ele>210</ele>
        <time>2022-09-17T12:09:25.000Z</time>
      </trkpt>
      <trkpt lat="45.10721" lon="5.28465">
        <ele>210.2</ele>
        <time>2022-09-17T12:09:26.000Z</time>
      </trkpt>
      <trkpt lat="45.1072" lon="5.28459">
        <ele>210.4</ele>
        <time>2022-09-17T12:09:27.000Z</time>
      </trkpt>
      <trkpt lat="45.1072" lon="5.28452">
        <ele>210.6</ele>
        <time>2022-09-17T12:09:28.000Z</time>
      </trkpt>
      <trkpt lat="45.1072" lon="5.28444">
        <ele>210.8</ele>
        <time>2022-09-17T12:09:29.000Z</time>
      </trkpt>
      <trkpt lat="45.10719" lon="5.28437">
        <ele>210.5</ele>
        <time>2022-09-17T12:09:30.000Z</time>
      </trkpt>
      <trkpt lat="45.10719" lon="5.2843">
        <ele>210.3</ele>
        <time>2022-09-17T12:09:31.000Z</time>
      </trkpt>
      <trkpt lat="45.10718" lon="5.28422">
        <ele>210</ele>
        <time>2022-09-17T12:09:32.000Z</time>
      </trkpt>
      <trkpt lat="45.10718" lon="5.28415">
        <ele>209.8</ele>
        <time>2022-09-17T12:09:33.000Z</time>
      </trkpt>
      <trkpt lat="45.10717" lon="5.28408">
        <ele>209.9</ele>
        <time>2022-09-17T12:09:34.000Z</time>
      </trkpt>
      <trkpt lat="45.10717" lon="5.28401">
        <ele>209.9</ele>
        <time>2022-09-17T12:09:35.000Z</time>
      </trkpt>
      <trkpt lat="45.10717" lon="5.28393">
        <ele>210</ele>
        <time>2022-09-17T12:09:36.000Z</time>
      </trkpt>
      <trkpt lat="45.10716" lon="5.28386">
        <ele>209.9</ele>
        <time>2022-09-17T12:09:37.000Z</time>
      </trkpt>
      <trkpt lat="45.10716" lon="5.28378">
        <ele>209.7</ele>
        <time>2022-09-17T12:09:38.000Z</time>
      </trkpt>
      <trkpt lat="45.10715" lon="5.2837">
        <ele>209.5</ele>
        <time>2022-09-17T12:09:39.000Z</time>
      </trkpt>
      <trkpt lat="45.10714" lon="5.28362">
        <ele>209.3</ele>
        <time>2022-09-17T12:09:40.000Z</time>
      </trkpt>
      <trkpt lat="45.10713" lon="5.28353">
        <ele>209.1</ele>
        <time>2022-09-17T12:09:41.000Z</time>
      </trkpt>
      <trkpt lat="45.10712" lon="5.28345">
        <ele>209</ele>
        <time>2022-09-17T12:09:42.000Z</time>
      </trkpt>
      <trkpt lat="45.10711" lon="5.28336">
        <ele>208.8</ele>
        <time>2022-09-17T12:09:43.000Z</time>
      </trkpt>
      <trkpt lat="45.10711" lon="5.28326">
        <ele>208.6</ele>
        <time>2022-09-17T12:09:44.000Z</time>
      </trkpt>
      <trkpt lat="45.1071" lon="5.28316">
        <ele>208.2</ele>
        <time>2022-09-17T12:09:45.000Z</time>
      </trkpt>
      <trkpt lat="45.10709" lon="5.28306">
        <ele>207.9</ele>
        <time>2022-09-17T12:09:46.000Z</time>
      </trkpt>
      <trkpt lat="45.10707" lon="5.28296">
        <ele>207.8</ele>
        <time>2022-09-17T12:09:47.000Z</time>
      </trkpt>
      <trkpt lat="45.10706" lon="5.28286">
        <ele>207.6</ele>
        <time>2022-09-17T12:09:48.000Z</time>
      </trkpt>
      <trkpt lat="45.10706" lon="5.28276">
        <ele>207.3</ele>
        <time>2022-09-17T12:09:49.000Z</time>
      </trkpt>
      <trkpt lat="45.10705" lon="5.28266">
        <ele>206.5</ele>
        <time>2022-09-17T12:09:50.000Z</time>
      </trkpt>
      <trkpt lat="45.10705" lon="5.28255">
        <ele>205.7</ele>
        <time>2022-09-17T12:09:51.000Z</time>
      </trkpt>
      <trkpt lat="45.10704" lon="5.28245">
        <ele>204.8</ele>
        <time>2022-09-17T12:09:52.000Z</time>
      </trkpt>
      <trkpt lat="45.10703" lon="5.28235">
        <ele>204</ele>
        <time>2022-09-17T12:09:53.000Z</time>
      </trkpt>
      <trkpt lat="45.10702" lon="5.28225">
        <ele>203.1</ele>
        <time>2022-09-17T12:09:54.000Z</time>
      </trkpt>
      <trkpt lat="45.10701" lon="5.28214">
        <ele>202.8</ele>
        <time>2022-09-17T12:09:55.000Z</time>
      </trkpt>
      <trkpt lat="45.107" lon="5.28203">
        <ele>202.6</ele>
        <time>2022-09-17T12:09:56.000Z</time>
      </trkpt>
      <trkpt lat="45.10699" lon="5.28192">
        <ele>202.5</ele>
        <time>2022-09-17T12:09:57.000Z</time>
      </trkpt>
      <trkpt lat="45.10698" lon="5.28181">
        <ele>202.5</ele>
        <time>2022-09-17T12:09:58.000Z</time>
      </trkpt>
      <trkpt lat="45.10698" lon="5.2817">
        <ele>202.6</ele>
        <time>2022-09-17T12:09:59.000Z</time>
      </trkpt>
      <trkpt lat="45.10697" lon="5.2816">
        <ele>202.7</ele>
        <time>2022-09-17T12:10:00.000Z</time>
      </trkpt>
      <trkpt lat="45.10696" lon="5.2815">
        <ele>202.8</ele>
        <time>2022-09-17T12:10:01.000Z</time>
      </trkpt>
      <trkpt lat="45.10695" lon="5.2814">
        <ele>202.9</ele>
        <time>2022-09-17T12:10:02.000Z</time>
      </trkpt>
      <trkpt lat="45.10695" lon="5.2813">
        <ele>202.7</ele>
        <time>2022-09-17T12:10:03.000Z</time>
      </trkpt>
      <trkpt lat="45.10694" lon="5.2812">
        <ele>202.2</ele>
        <time>2022-09-17T12:10:04.000Z</time>
      </trkpt>
      <trkpt lat="45.10693" lon="5.28111">
        <ele>201.8</ele>
        <time>2022-09-17T12:10:05.000Z</time>
      </trkpt>
      <trkpt lat="45.10693" lon="5.28101">
        <ele>201.8</ele>
        <time>2022-09-17T12:10:06.000Z</time>
      </trkpt>
      <trkpt lat="45.10693" lon="5.28092">
        <ele>201.8</ele>
        <time>2022-09-17T12:10:07.000Z</time>
      </trkpt>
      <trkpt lat="45.10692" lon="5.28083">
        <ele>201.8</ele>
        <time>2022-09-17T12:10:08.000Z</time>
      </trkpt>
      <trkpt lat="45.10692" lon="5.28074">
        <ele>201.8</ele>
        <time>2022-09-17T12:10:09.000Z</time>
      </trkpt>
      <trkpt lat="45.10691" lon="5.28066">
        <ele>201.8</ele>
        <time>2022-09-17T12:10:10.000Z</time>
      </trkpt>
      <trkpt lat="45.1069" lon="5.28058">
        <ele>201.8</ele>
        <time>2022-09-17T12:10:11.000Z</time>
      </trkpt>
      <trkpt lat="45.10689" lon="5.2805">
        <ele>201.8</ele>
        <time>2022-09-17T12:10:12.000Z</time>
      </trkpt>
      <trkpt lat="45.10689" lon="5.28043">
        <ele>201.8</ele>
        <time>2022-09-17T12:10:13.000Z</time>
      </trkpt>
      <trkpt lat="45.10688" lon="5.28035">
        <ele>201.8</ele>
        <time>2022-09-17T12:10:14.000Z</time>
      </trkpt>
      <trkpt lat="45.10688" lon="5.28027">
        <ele>201.8</ele>
        <time>2022-09-17T12:10:15.000Z</time>
      </trkpt>
      <trkpt lat="45.10688" lon="5.2802">
        <ele>201.8</ele>
        <time>2022-09-17T12:10:16.000Z</time>
      </trkpt>
      <trkpt lat="45.10687" lon="5.28013">
        <ele>201.9</ele>
        <time>2022-09-17T12:10:17.000Z</time>
      </trkpt>
      <trkpt lat="45.10686" lon="5.28006">
        <ele>201.9</ele>
        <time>2022-09-17T12:10:18.000Z</time>
      </trkpt>
      <trkpt lat="45.10686" lon="5.27998">
        <ele>202</ele>
        <time>2022-09-17T12:10:19.000Z</time>
      </trkpt>
      <trkpt lat="45.10685" lon="5.27992">
        <ele>202</ele>
        <time>2022-09-17T12:10:20.000Z</time>
      </trkpt>
      <trkpt lat="45.10685" lon="5.27985">
        <ele>202</ele>
        <time>2022-09-17T12:10:21.000Z</time>
      </trkpt>
      <trkpt lat="45.10684" lon="5.27979">
        <ele>202</ele>
        <time>2022-09-17T12:10:22.000Z</time>
      </trkpt>
      <trkpt lat="45.10684" lon="5.27973">
        <ele>202</ele>
        <time>2022-09-17T12:10:23.000Z</time>
      </trkpt>
      <trkpt lat="45.10683" lon="5.27967">
        <ele>202</ele>
        <time>2022-09-17T12:10:24.000Z</time>
      </trkpt>
      <trkpt lat="45.10683" lon="5.2796">
        <ele>202</ele>
        <time>2022-09-17T12:10:25.000Z</time>
      </trkpt>
      <trkpt lat="45.10683" lon="5.27955">
        <ele>202</ele>
        <time>2022-09-17T12:10:26.000Z</time>
      </trkpt>
      <trkpt lat="45.10682" lon="5.27949">
        <ele>202</ele>
        <time>2022-09-17T12:10:27.000Z</time>
      </trkpt>
      <trkpt lat="45.10682" lon="5.27943">
        <ele>202</ele>
        <time>2022-09-17T12:10:28.000Z</time>
      </trkpt>
      <trkpt lat="45.10681" lon="5.27938">
        <ele>202</ele>
        <time>2022-09-17T12:10:29.000Z</time>
      </trkpt>
      <trkpt lat="45.10681" lon="5.27933">
        <ele>202</ele>
        <time>2022-09-17T12:10:30.000Z</time>
      </trkpt>
      <trkpt lat="45.10681" lon="5.27927">
        <ele>202</ele>
        <time>2022-09-17T12:10:31.000Z</time>
      </trkpt>
      <trkpt lat="45.10681" lon="5.27922">
        <ele>202</ele>
        <time>2022-09-17T12:10:32.000Z</time>
      </trkpt>
      <trkpt lat="45.1068" lon="5.27916">
        <ele>202</ele>
        <time>2022-09-17T12:10:33.000Z</time>
      </trkpt>
      <trkpt lat="45.1068" lon="5.2791">
        <ele>202</ele>
        <time>2022-09-17T12:10:34.000Z</time>
      </trkpt>
      <trkpt lat="45.1068" lon="5.27904">
        <ele>202</ele>
        <time>2022-09-17T12:10:35.000Z</time>
      </trkpt>
      <trkpt lat="45.10679" lon="5.27898">
        <ele>202</ele>
        <time>2022-09-17T12:10:36.000Z</time>
      </trkpt>
      <trkpt lat="45.10679" lon="5.27892">
        <ele>202</ele>
        <time>2022-09-17T12:10:37.000Z</time>
      </trkpt>
      <trkpt lat="45.10678" lon="5.27886">
        <ele>202</ele>
        <time>2022-09-17T12:10:38.000Z</time>
      </trkpt>
      <trkpt lat="45.10677" lon="5.2788">
        <ele>202</ele>
        <time>2022-09-17T12:10:39.000Z</time>
      </trkpt>
      <trkpt lat="45.10677" lon="5.27874">
        <ele>202</ele>
        <time>2022-09-17T12:10:40.000Z</time>
      </trkpt>
      <trkpt lat="45.10676" lon="5.27868">
        <ele>202</ele>
        <time>2022-09-17T12:10:41.000Z</time>
      </trkpt>
      <trkpt lat="45.10676" lon="5.27862">
        <ele>202</ele>
        <time>2022-09-17T12:10:42.000Z</time>
      </trkpt>
      <trkpt lat="45.10675" lon="5.27856">
        <ele>202</ele>
        <time>2022-09-17T12:10:43.000Z</time>
      </trkpt>
      <trkpt lat="45.10674" lon="5.2785">
        <ele>202</ele>
        <time>2022-09-17T12:10:44.000Z</time>
      </trkpt>
      <trkpt lat="45.10673" lon="5.27844">
        <ele>202</ele>
        <time>2022-09-17T12:10:45.000Z</time>
      </trkpt>
      <trkpt lat="45.10672" lon="5.27839">
        <ele>202</ele>
        <time>2022-09-17T12:10:46.000Z</time>
      </trkpt>
      <trkpt lat="45.10671" lon="5.27833">
        <ele>202</ele>
        <time>2022-09-17T12:10:47.000Z</time>
      </trkpt>
      <trkpt lat="45.10671" lon="5.27827">
        <ele>202</ele>
        <time>2022-09-17T12:10:48.000Z</time>
      </trkpt>
      <trkpt lat="45.1067" lon="5.27821">
        <ele>201.9</ele>
        <time>2022-09-17T12:10:49.000Z</time>
      </trkpt>
      <trkpt lat="45.10669" lon="5.27815">
        <ele>201.9</ele>
        <time>2022-09-17T12:10:50.000Z</time>
      </trkpt>
      <trkpt lat="45.10669" lon="5.27809">
        <ele>201.9</ele>
        <time>2022-09-17T12:10:51.000Z</time>
      </trkpt>
      <trkpt lat="45.10668" lon="5.27802">
        <ele>202</ele>
        <time>2022-09-17T12:10:52.000Z</time>
      </trkpt>
      <trkpt lat="45.10667" lon="5.27795">
        <ele>202</ele>
        <time>2022-09-17T12:10:53.000Z</time>
      </trkpt>
      <trkpt lat="45.10667" lon="5.27788">
        <ele>202</ele>
        <time>2022-09-17T12:10:54.000Z</time>
      </trkpt>
      <trkpt lat="45.10666" lon="5.27781">
        <ele>202</ele>
        <time>2022-09-17T12:10:55.000Z</time>
      </trkpt>
      <trkpt lat="45.10666" lon="5.27774">
        <ele>201.8</ele>
        <time>2022-09-17T12:10:56.000Z</time>
      </trkpt>
      <trkpt lat="45.10665" lon="5.27768">
        <ele>201.6</ele>
        <time>2022-09-17T12:10:57.000Z</time>
      </trkpt>
      <trkpt lat="45.10665" lon="5.27761">
        <ele>201.3</ele>
        <time>2022-09-17T12:10:58.000Z</time>
      </trkpt>
      <trkpt lat="45.10664" lon="5.27754">
        <ele>201.1</ele>
        <time>2022-09-17T12:10:59.000Z</time>
      </trkpt>
      <trkpt lat="45.10663" lon="5.27748">
        <ele>201</ele>
        <time>2022-09-17T12:11:00.000Z</time>
      </trkpt>
      <trkpt lat="45.10663" lon="5.27741">
        <ele>201</ele>
        <time>2022-09-17T12:11:01.000Z</time>
      </trkpt>
      <trkpt lat="45.10662" lon="5.27735">
        <ele>200.9</ele>
        <time>2022-09-17T12:11:02.000Z</time>
      </trkpt>
      <trkpt lat="45.10663" lon="5.27729">
        <ele>200.9</ele>
        <time>2022-09-17T12:11:03.000Z</time>
      </trkpt>
      <trkpt lat="45.10662" lon="5.27723">
        <ele>200.8</ele>
        <time>2022-09-17T12:11:04.000Z</time>
      </trkpt>
      <trkpt lat="45.10662" lon="5.27718">
        <ele>200.9</ele>
        <time>2022-09-17T12:11:05.000Z</time>
      </trkpt>
      <trkpt lat="45.10664" lon="5.27713">
        <ele>200.9</ele>
        <time>2022-09-17T12:11:06.000Z</time>
      </trkpt>
      <trkpt lat="45.10666" lon="5.27709">
        <ele>201</ele>
        <time>2022-09-17T12:11:07.000Z</time>
      </trkpt>
      <trkpt lat="45.10669" lon="5.27708">
        <ele>201</ele>
        <time>2022-09-17T12:11:08.000Z</time>
      </trkpt>
      <trkpt lat="45.10671" lon="5.27709">
        <ele>201</ele>
        <time>2022-09-17T12:11:09.000Z</time>
      </trkpt>
      <trkpt lat="45.10674" lon="5.27712">
        <ele>201</ele>
        <time>2022-09-17T12:11:10.000Z</time>
      </trkpt>
      <trkpt lat="45.10677" lon="5.27715">
        <ele>201</ele>
        <time>2022-09-17T12:11:11.000Z</time>
      </trkpt>
      <trkpt lat="45.1068" lon="5.27718">
        <ele>201</ele>
        <time>2022-09-17T12:11:12.000Z</time>
      </trkpt>
      <trkpt lat="45.10682" lon="5.27722">
        <ele>201</ele>
        <time>2022-09-17T12:11:13.000Z</time>
      </trkpt>
      <trkpt lat="45.10686" lon="5.27726">
        <ele>201</ele>
        <time>2022-09-17T12:11:14.000Z</time>
      </trkpt>
      <trkpt lat="45.10689" lon="5.2773">
        <ele>201</ele>
        <time>2022-09-17T12:11:15.000Z</time>
      </trkpt>
      <trkpt lat="45.10692" lon="5.27734">
        <ele>201</ele>
        <time>2022-09-17T12:11:16.000Z</time>
      </trkpt>
      <trkpt lat="45.10696" lon="5.27738">
        <ele>201</ele>
        <time>2022-09-17T12:11:17.000Z</time>
      </trkpt>
      <trkpt lat="45.10699" lon="5.27742">
        <ele>200.9</ele>
        <time>2022-09-17T12:11:18.000Z</time>
      </trkpt>
      <trkpt lat="45.10703" lon="5.27746">
        <ele>201</ele>
        <time>2022-09-17T12:11:19.000Z</time>
      </trkpt>
      <trkpt lat="45.10706" lon="5.2775">
        <ele>201</ele>
        <time>2022-09-17T12:11:20.000Z</time>
      </trkpt>
      <trkpt lat="45.1071" lon="5.27754">
        <ele>201</ele>
        <time>2022-09-17T12:11:21.000Z</time>
      </trkpt>
      <trkpt lat="45.10713" lon="5.27758">
        <ele>201</ele>
        <time>2022-09-17T12:11:22.000Z</time>
      </trkpt>
      <trkpt lat="45.10716" lon="5.27763">
        <ele>201</ele>
        <time>2022-09-17T12:11:23.000Z</time>
      </trkpt>
      <trkpt lat="45.1072" lon="5.27767">
        <ele>201</ele>
        <time>2022-09-17T12:11:24.000Z</time>
      </trkpt>
      <trkpt lat="45.10723" lon="5.27771">
        <ele>201</ele>
        <time>2022-09-17T12:11:25.000Z</time>
      </trkpt>
      <trkpt lat="45.10726" lon="5.27775">
        <ele>200.9</ele>
        <time>2022-09-17T12:11:26.000Z</time>
      </trkpt>
      <trkpt lat="45.1073" lon="5.27779">
        <ele>200.7</ele>
        <time>2022-09-17T12:11:27.000Z</time>
      </trkpt>
      <trkpt lat="45.10733" lon="5.27783">
        <ele>200.5</ele>
        <time>2022-09-17T12:11:28.000Z</time>
      </trkpt>
      <trkpt lat="45.10737" lon="5.27787">
        <ele>200.3</ele>
        <time>2022-09-17T12:11:29.000Z</time>
      </trkpt>
      <trkpt lat="45.1074" lon="5.27791">
        <ele>200.2</ele>
        <time>2022-09-17T12:11:30.000Z</time>
      </trkpt>
      <trkpt lat="45.10744" lon="5.27795">
        <ele>200.1</ele>
        <time>2022-09-17T12:11:31.000Z</time>
      </trkpt>
      <trkpt lat="45.10748" lon="5.27799">
        <ele>200</ele>
        <time>2022-09-17T12:11:32.000Z</time>
      </trkpt>
      <trkpt lat="45.10751" lon="5.27803">
        <ele>200</ele>
        <time>2022-09-17T12:11:33.000Z</time>
      </trkpt>
      <trkpt lat="45.10754" lon="5.27806">
        <ele>200</ele>
        <time>2022-09-17T12:11:34.000Z</time>
      </trkpt>
      <trkpt lat="45.10758" lon="5.2781">
        <ele>200</ele>
        <time>2022-09-17T12:11:35.000Z</time>
      </trkpt>
      <trkpt lat="45.10761" lon="5.27814">
        <ele>200.1</ele>
        <time>2022-09-17T12:11:36.000Z</time>
      </trkpt>
      <trkpt lat="45.10764" lon="5.27818">
        <ele>200.2</ele>
        <time>2022-09-17T12:11:37.000Z</time>
      </trkpt>
      <trkpt lat="45.10768" lon="5.27821">
        <ele>200.4</ele>
        <time>2022-09-17T12:11:38.000Z</time>
      </trkpt>
      <trkpt lat="45.10771" lon="5.27825">
        <ele>200.5</ele>
        <time>2022-09-17T12:11:39.000Z</time>
      </trkpt>
      <trkpt lat="45.10774" lon="5.27829">
        <ele>200.7</ele>
        <time>2022-09-17T12:11:40.000Z</time>
      </trkpt>
      <trkpt lat="45.10778" lon="5.27833">
        <ele>201</ele>
        <time>2022-09-17T12:11:41.000Z</time>
      </trkpt>
      <trkpt lat="45.10781" lon="5.27837">
        <ele>201</ele>
        <time>2022-09-17T12:11:42.000Z</time>
      </trkpt>
      <trkpt lat="45.10784" lon="5.27841">
        <ele>200.9</ele>
        <time>2022-09-17T12:11:43.000Z</time>
      </trkpt>
      <trkpt lat="45.10787" lon="5.27844">
        <ele>200.9</ele>
        <time>2022-09-17T12:11:44.000Z</time>
      </trkpt>
      <trkpt lat="45.1079" lon="5.27847">
        <ele>200.8</ele>
        <time>2022-09-17T12:11:45.000Z</time>
      </trkpt>
      <trkpt lat="45.10792" lon="5.27851">
        <ele>200.7</ele>
        <time>2022-09-17T12:11:46.000Z</time>
      </trkpt>
      <trkpt lat="45.10795" lon="5.27855">
        <ele>200.5</ele>
        <time>2022-09-17T12:11:47.000Z</time>
      </trkpt>
      <trkpt lat="45.10798" lon="5.27858">
        <ele>200.3</ele>
        <time>2022-09-17T12:11:48.000Z</time>
      </trkpt>
      <trkpt lat="45.10801" lon="5.27862">
        <ele>200.2</ele>
        <time>2022-09-17T12:11:49.000Z</time>
      </trkpt>
      <trkpt lat="45.10804" lon="5.27865">
        <ele>200.2</ele>
        <time>2022-09-17T12:11:50.000Z</time>
      </trkpt>
      <trkpt lat="45.10808" lon="5.27868">
        <ele>200.2</ele>
        <time>2022-09-17T12:11:51.000Z</time>
      </trkpt>
      <trkpt lat="45.10812" lon="5.27871">
        <ele>200.1</ele>
        <time>2022-09-17T12:11:52.000Z</time>
      </trkpt>
      <trkpt lat="45.10815" lon="5.27875">
        <ele>200.1</ele>
        <time>2022-09-17T12:11:53.000Z</time>
      </trkpt>
      <trkpt lat="45.10819" lon="5.27879">
        <ele>200.2</ele>
        <time>2022-09-17T12:11:54.000Z</time>
      </trkpt>
      <trkpt lat="45.10822" lon="5.27883">
        <ele>200.2</ele>
        <time>2022-09-17T12:11:55.000Z</time>
      </trkpt>
      <trkpt lat="45.10826" lon="5.27888">
        <ele>200.2</ele>
        <time>2022-09-17T12:11:56.000Z</time>
      </trkpt>
      <trkpt lat="45.10829" lon="5.27893">
        <ele>200.3</ele>
        <time>2022-09-17T12:11:57.000Z</time>
      </trkpt>
      <trkpt lat="45.10833" lon="5.27898">
        <ele>200.3</ele>
        <time>2022-09-17T12:11:58.000Z</time>
      </trkpt>
      <trkpt lat="45.10837" lon="5.27902">
        <ele>200.3</ele>
        <time>2022-09-17T12:11:59.000Z</time>
      </trkpt>
      <trkpt lat="45.10841" lon="5.27907">
        <ele>200.2</ele>
        <time>2022-09-17T12:12:00.000Z</time>
      </trkpt>
      <trkpt lat="45.10844" lon="5.27911">
        <ele>200.1</ele>
        <time>2022-09-17T12:12:01.000Z</time>
      </trkpt>
      <trkpt lat="45.10848" lon="5.27915">
        <ele>199.9</ele>
        <time>2022-09-17T12:12:02.000Z</time>
      </trkpt>
      <trkpt lat="45.10851" lon="5.2792">
        <ele>199.9</ele>
        <time>2022-09-17T12:12:03.000Z</time>
      </trkpt>
      <trkpt lat="45.10855" lon="5.27924">
        <ele>199.9</ele>
        <time>2022-09-17T12:12:04.000Z</time>
      </trkpt>
      <trkpt lat="45.10859" lon="5.27929">
        <ele>200</ele>
        <time>2022-09-17T12:12:05.000Z</time>
      </trkpt>
      <trkpt lat="45.10863" lon="5.27933">
        <ele>200.1</ele>
        <time>2022-09-17T12:12:06.000Z</time>
      </trkpt>
      <trkpt lat="45.10866" lon="5.27938">
        <ele>200.2</ele>
        <time>2022-09-17T12:12:07.000Z</time>
      </trkpt>
      <trkpt lat="45.1087" lon="5.27943">
        <ele>200.3</ele>
        <time>2022-09-17T12:12:08.000Z</time>
      </trkpt>
      <trkpt lat="45.10873" lon="5.27947">
        <ele>200.2</ele>
        <time>2022-09-17T12:12:09.000Z</time>
      </trkpt>
      <trkpt lat="45.10877" lon="5.27952">
        <ele>200.2</ele>
        <time>2022-09-17T12:12:10.000Z</time>
      </trkpt>
      <trkpt lat="45.1088" lon="5.27956">
        <ele>200.1</ele>
        <time>2022-09-17T12:12:11.000Z</time>
      </trkpt>
      <trkpt lat="45.10884" lon="5.27961">
        <ele>199.9</ele>
        <time>2022-09-17T12:12:12.000Z</time>
      </trkpt>
      <trkpt lat="45.10888" lon="5.27966">
        <ele>199.8</ele>
        <time>2022-09-17T12:12:13.000Z</time>
      </trkpt>
      <trkpt lat="45.10892" lon="5.2797">
        <ele>199.8</ele>
        <time>2022-09-17T12:12:14.000Z</time>
      </trkpt>
      <trkpt lat="45.10897" lon="5.27975">
        <ele>199.8</ele>
        <time>2022-09-17T12:12:15.000Z</time>
      </trkpt>
      <trkpt lat="45.10901" lon="5.2798">
        <ele>199.7</ele>
        <time>2022-09-17T12:12:16.000Z</time>
      </trkpt>
      <trkpt lat="45.10905" lon="5.27985">
        <ele>199.6</ele>
        <time>2022-09-17T12:12:17.000Z</time>
      </trkpt>
      <trkpt lat="45.10909" lon="5.27991">
        <ele>199.4</ele>
        <time>2022-09-17T12:12:18.000Z</time>
      </trkpt>
      <trkpt lat="45.10914" lon="5.27996">
        <ele>199.2</ele>
        <time>2022-09-17T12:12:19.000Z</time>
      </trkpt>
      <trkpt lat="45.10918" lon="5.28001">
        <ele>199</ele>
        <time>2022-09-17T12:12:20.000Z</time>
      </trkpt>
      <trkpt lat="45.10922" lon="5.28007">
        <ele>199.1</ele>
        <time>2022-09-17T12:12:21.000Z</time>
      </trkpt>
      <trkpt lat="45.10926" lon="5.28013">
        <ele>198.9</ele>
        <time>2022-09-17T12:12:22.000Z</time>
      </trkpt>
      <trkpt lat="45.10931" lon="5.28018">
        <ele>198.5</ele>
        <time>2022-09-17T12:12:23.000Z</time>
      </trkpt>
      <trkpt lat="45.10935" lon="5.28024">
        <ele>197.8</ele>
        <time>2022-09-17T12:12:24.000Z</time>
      </trkpt>
      <trkpt lat="45.1094" lon="5.2803">
        <ele>197</ele>
        <time>2022-09-17T12:12:25.000Z</time>
      </trkpt>
      <trkpt lat="45.10945" lon="5.28035">
        <ele>197.1</ele>
        <time>2022-09-17T12:12:26.000Z</time>
      </trkpt>
      <trkpt lat="45.10949" lon="5.28041">
        <ele>197.7</ele>
        <time>2022-09-17T12:12:27.000Z</time>
      </trkpt>
      <trkpt lat="45.10954" lon="5.28046">
        <ele>197.8</ele>
        <time>2022-09-17T12:12:28.000Z</time>
      </trkpt>
      <trkpt lat="45.10959" lon="5.28052">
        <ele>197.4</ele>
        <time>2022-09-17T12:12:29.000Z</time>
      </trkpt>
      <trkpt lat="45.10964" lon="5.28058">
        <ele>196.8</ele>
        <time>2022-09-17T12:12:30.000Z</time>
      </trkpt>
      <trkpt lat="45.10969" lon="5.28064">
        <ele>196.7</ele>
        <time>2022-09-17T12:12:31.000Z</time>
      </trkpt>
      <trkpt lat="45.10974" lon="5.2807">
        <ele>197</ele>
        <time>2022-09-17T12:12:32.000Z</time>
      </trkpt>
      <trkpt lat="45.10979" lon="5.28076">
        <ele>197.3</ele>
        <time>2022-09-17T12:12:33.000Z</time>
      </trkpt>
      <trkpt lat="45.10985" lon="5.28082">
        <ele>196.7</ele>
        <time>2022-09-17T12:12:34.000Z</time>
      </trkpt>
      <trkpt lat="45.1099" lon="5.28088">
        <ele>196.2</ele>
        <time>2022-09-17T12:12:35.000Z</time>
      </trkpt>
      <trkpt lat="45.10996" lon="5.28094">
        <ele>195.8</ele>
        <time>2022-09-17T12:12:36.000Z</time>
      </trkpt>
      <trkpt lat="45.11001" lon="5.281">
        <ele>195.6</ele>
        <time>2022-09-17T12:12:37.000Z</time>
      </trkpt>
      <trkpt lat="45.11007" lon="5.28106">
        <ele>195.2</ele>
        <time>2022-09-17T12:12:38.000Z</time>
      </trkpt>
      <trkpt lat="45.11013" lon="5.28112">
        <ele>194.3</ele>
        <time>2022-09-17T12:12:39.000Z</time>
      </trkpt>
      <trkpt lat="45.1102" lon="5.28116">
        <ele>193.8</ele>
        <time>2022-09-17T12:12:40.000Z</time>
      </trkpt>
      <trkpt lat="45.11027" lon="5.2812">
        <ele>193.3</ele>
        <time>2022-09-17T12:12:41.000Z</time>
      </trkpt>
      <trkpt lat="45.11034" lon="5.28122">
        <ele>193.5</ele>
        <time>2022-09-17T12:12:42.000Z</time>
      </trkpt>
      <trkpt lat="45.11041" lon="5.28122">
        <ele>193.4</ele>
        <time>2022-09-17T12:12:43.000Z</time>
      </trkpt>
      <trkpt lat="45.11049" lon="5.2812">
        <ele>192.8</ele>
        <time>2022-09-17T12:12:44.000Z</time>
      </trkpt>
      <trkpt lat="45.11056" lon="5.28116">
        <ele>191.3</ele>
        <time>2022-09-17T12:12:45.000Z</time>
      </trkpt>
      <trkpt lat="45.11062" lon="5.28109">
        <ele>188.9</ele>
        <time>2022-09-17T12:12:46.000Z</time>
      </trkpt>
      <trkpt lat="45.11067" lon="5.28101">
        <ele>186.6</ele>
        <time>2022-09-17T12:12:47.000Z</time>
      </trkpt>
      <trkpt lat="45.11072" lon="5.28093">
        <ele>183.4</ele>
        <time>2022-09-17T12:12:48.000Z</time>
      </trkpt>
      <trkpt lat="45.11077" lon="5.28085">
        <ele>179.1</ele>
        <time>2022-09-17T12:12:49.000Z</time>
      </trkpt>
      <trkpt lat="45.11081" lon="5.28078">
        <ele>174.2</ele>
        <time>2022-09-17T12:12:50.000Z</time>
      </trkpt>
      <trkpt lat="45.11086" lon="5.2807">
        <ele>169.6</ele>
        <time>2022-09-17T12:12:51.000Z</time>
      </trkpt>
      <trkpt lat="45.11091" lon="5.28063">
        <ele>166.1</ele>
        <time>2022-09-17T12:12:52.000Z</time>
      </trkpt>
      <trkpt lat="45.11095" lon="5.28055">
        <ele>163.7</ele>
        <time>2022-09-17T12:12:53.000Z</time>
      </trkpt>
      <trkpt lat="45.111" lon="5.28047">
        <ele>162.9</ele>
        <time>2022-09-17T12:12:54.000Z</time>
      </trkpt>
      <trkpt lat="45.11105" lon="5.2804">
        <ele>162.3</ele>
        <time>2022-09-17T12:12:55.000Z</time>
      </trkpt>
      <trkpt lat="45.11109" lon="5.28032">
        <ele>162</ele>
        <time>2022-09-17T12:12:56.000Z</time>
      </trkpt>
      <trkpt lat="45.11113" lon="5.28024">
        <ele>161.9</ele>
        <time>2022-09-17T12:12:57.000Z</time>
      </trkpt>
      <trkpt lat="45.11118" lon="5.28018">
        <ele>161.7</ele>
        <time>2022-09-17T12:12:58.000Z</time>
      </trkpt>
      <trkpt lat="45.11122" lon="5.28011">
        <ele>161.6</ele>
        <time>2022-09-17T12:12:59.000Z</time>
      </trkpt>
      <trkpt lat="45.11126" lon="5.28003">
        <ele>161.6</ele>
        <time>2022-09-17T12:13:00.000Z</time>
      </trkpt>
      <trkpt lat="45.11131" lon="5.27996">
        <ele>161.7</ele>
        <time>2022-09-17T12:13:01.000Z</time>
      </trkpt>
      <trkpt lat="45.11135" lon="5.27989">
        <ele>161.9</ele>
        <time>2022-09-17T12:13:02.000Z</time>
      </trkpt>
      <trkpt lat="45.11139" lon="5.27982">
        <ele>162.1</ele>
        <time>2022-09-17T12:13:03.000Z</time>
      </trkpt>
      <trkpt lat="45.11143" lon="5.27974">
        <ele>163.2</ele>
        <time>2022-09-17T12:13:04.000Z</time>
      </trkpt>
      <trkpt lat="45.11148" lon="5.27967">
        <ele>166</ele>
        <time>2022-09-17T12:13:05.000Z</time>
      </trkpt>
      <trkpt lat="45.11152" lon="5.27961">
        <ele>169.5</ele>
        <time>2022-09-17T12:13:06.000Z</time>
      </trkpt>
      <trkpt lat="45.11155" lon="5.27954">
        <ele>173.3</ele>
        <time>2022-09-17T12:13:07.000Z</time>
      </trkpt>
      <trkpt lat="45.11159" lon="5.27947">
        <ele>177.5</ele>
        <time>2022-09-17T12:13:08.000Z</time>
      </trkpt>
      <trkpt lat="45.11163" lon="5.2794">
        <ele>181.1</ele>
        <time>2022-09-17T12:13:09.000Z</time>
      </trkpt>
      <trkpt lat="45.11167" lon="5.27934">
        <ele>183.5</ele>
        <time>2022-09-17T12:13:10.000Z</time>
      </trkpt>
      <trkpt lat="45.11171" lon="5.27928">
        <ele>184.7</ele>
        <time>2022-09-17T12:13:11.000Z</time>
      </trkpt>
      <trkpt lat="45.11175" lon="5.27921">
        <ele>185.8</ele>
        <time>2022-09-17T12:13:12.000Z</time>
      </trkpt>
      <trkpt lat="45.11177" lon="5.27914">
        <ele>186.5</ele>
        <time>2022-09-17T12:13:13.000Z</time>
      </trkpt>
      <trkpt lat="45.11179" lon="5.27907">
        <ele>186.8</ele>
        <time>2022-09-17T12:13:14.000Z</time>
      </trkpt>
      <trkpt lat="45.11181" lon="5.279">
        <ele>187.1</ele>
        <time>2022-09-17T12:13:15.000Z</time>
      </trkpt>
      <trkpt lat="45.11181" lon="5.27893">
        <ele>187.4</ele>
        <time>2022-09-17T12:13:16.000Z</time>
      </trkpt>
      <trkpt lat="45.11181" lon="5.27886">
        <ele>187.6</ele>
        <time>2022-09-17T12:13:17.000Z</time>
      </trkpt>
      <trkpt lat="45.1118" lon="5.2788">
        <ele>187.6</ele>
        <time>2022-09-17T12:13:18.000Z</time>
      </trkpt>
      <trkpt lat="45.11178" lon="5.27874">
        <ele>187.6</ele>
        <time>2022-09-17T12:13:19.000Z</time>
      </trkpt>
      <trkpt lat="45.11177" lon="5.27869">
        <ele>187.6</ele>
        <time>2022-09-17T12:13:20.000Z</time>
      </trkpt>
      <trkpt lat="45.11175" lon="5.27863">
        <ele>187.6</ele>
        <time>2022-09-17T12:13:21.000Z</time>
      </trkpt>
      <trkpt lat="45.11174" lon="5.27857">
        <ele>187.6</ele>
        <time>2022-09-17T12:13:22.000Z</time>
      </trkpt>
      <trkpt lat="45.11173" lon="5.27851">
        <ele>187.6</ele>
        <time>2022-09-17T12:13:23.000Z</time>
      </trkpt>
      <trkpt lat="45.11172" lon="5.27845">
        <ele>187.7</ele>
        <time>2022-09-17T12:13:24.000Z</time>
      </trkpt>
      <trkpt lat="45.1117" lon="5.27839">
        <ele>187.9</ele>
        <time>2022-09-17T12:13:25.000Z</time>
      </trkpt>
      <trkpt lat="45.11169" lon="5.27832">
        <ele>188</ele>
        <time>2022-09-17T12:13:26.000Z</time>
      </trkpt>
      <trkpt lat="45.11167" lon="5.27826">
        <ele>188.3</ele>
        <time>2022-09-17T12:13:27.000Z</time>
      </trkpt>
      <trkpt lat="45.11166" lon="5.27821">
        <ele>188.4</ele>
        <time>2022-09-17T12:13:28.000Z</time>
      </trkpt>
      <trkpt lat="45.11164" lon="5.27814">
        <ele>188.5</ele>
        <time>2022-09-17T12:13:29.000Z</time>
      </trkpt>
      <trkpt lat="45.11162" lon="5.27808">
        <ele>188.6</ele>
        <time>2022-09-17T12:13:30.000Z</time>
      </trkpt>
      <trkpt lat="45.1116" lon="5.27801">
        <ele>188.7</ele>
        <time>2022-09-17T12:13:31.000Z</time>
      </trkpt>
      <trkpt lat="45.11158" lon="5.27794">
        <ele>188.7</ele>
        <time>2022-09-17T12:13:32.000Z</time>
      </trkpt>
      <trkpt lat="45.11156" lon="5.27788">
        <ele>188.6</ele>
        <time>2022-09-17T12:13:33.000Z</time>
      </trkpt>
      <trkpt lat="45.11154" lon="5.27782">
        <ele>188.5</ele>
        <time>2022-09-17T12:13:34.000Z</time>
      </trkpt>
      <trkpt lat="45.11152" lon="5.27775">
        <ele>188.5</ele>
        <time>2022-09-17T12:13:35.000Z</time>
      </trkpt>
      <trkpt lat="45.11151" lon="5.27768">
        <ele>188.5</ele>
        <time>2022-09-17T12:13:36.000Z</time>
      </trkpt>
      <trkpt lat="45.1115" lon="5.27761">
        <ele>188.5</ele>
        <time>2022-09-17T12:13:37.000Z</time>
      </trkpt>
      <trkpt lat="45.11149" lon="5.27755">
        <ele>188.6</ele>
        <time>2022-09-17T12:13:38.000Z</time>
      </trkpt>
      <trkpt lat="45.11147" lon="5.27748">
        <ele>188.7</ele>
        <time>2022-09-17T12:13:39.000Z</time>
      </trkpt>
      <trkpt lat="45.11146" lon="5.27741">
        <ele>189.1</ele>
        <time>2022-09-17T12:13:40.000Z</time>
      </trkpt>
      <trkpt lat="45.11145" lon="5.27735">
        <ele>189.3</ele>
        <time>2022-09-17T12:13:41.000Z</time>
      </trkpt>
      <trkpt lat="45.11143" lon="5.27727">
        <ele>189.5</ele>
        <time>2022-09-17T12:13:42.000Z</time>
      </trkpt>
      <trkpt lat="45.11142" lon="5.2772">
        <ele>189.6</ele>
        <time>2022-09-17T12:13:43.000Z</time>
      </trkpt>
      <trkpt lat="45.1114" lon="5.27714">
        <ele>189.5</ele>
        <time>2022-09-17T12:13:44.000Z</time>
      </trkpt>
      <trkpt lat="45.11139" lon="5.27706">
        <ele>189.6</ele>
        <time>2022-09-17T12:13:45.000Z</time>
      </trkpt>
      <trkpt lat="45.11138" lon="5.27698">
        <ele>189.8</ele>
        <time>2022-09-17T12:13:46.000Z</time>
      </trkpt>
      <trkpt lat="45.11137" lon="5.27691">
        <ele>190</ele>
        <time>2022-09-17T12:13:47.000Z</time>
      </trkpt>
      <trkpt lat="45.11136" lon="5.27683">
        <ele>190.2</ele>
        <time>2022-09-17T12:13:48.000Z</time>
      </trkpt>
      <trkpt lat="45.11135" lon="5.27677">
        <ele>190.4</ele>
        <time>2022-09-17T12:13:49.000Z</time>
      </trkpt>
      <trkpt lat="45.11134" lon="5.2767">
        <ele>190.5</ele>
        <time>2022-09-17T12:13:50.000Z</time>
      </trkpt>
      <trkpt lat="45.11134" lon="5.27664">
        <ele>191</ele>
        <time>2022-09-17T12:13:51.000Z</time>
      </trkpt>
      <trkpt lat="45.11133" lon="5.27659">
        <ele>191.8</ele>
        <time>2022-09-17T12:13:52.000Z</time>
      </trkpt>
      <trkpt lat="45.11133" lon="5.27653">
        <ele>192.5</ele>
        <time>2022-09-17T12:13:53.000Z</time>
      </trkpt>
      <trkpt lat="45.11132" lon="5.27648">
        <ele>193.2</ele>
        <time>2022-09-17T12:13:54.000Z</time>
      </trkpt>
      <trkpt lat="45.11131" lon="5.27643">
        <ele>193.8</ele>
        <time>2022-09-17T12:13:55.000Z</time>
      </trkpt>
      <trkpt lat="45.1113" lon="5.27639">
        <ele>194.2</ele>
        <time>2022-09-17T12:13:56.000Z</time>
      </trkpt>
      <trkpt lat="45.1113" lon="5.27634">
        <ele>194.5</ele>
        <time>2022-09-17T12:13:57.000Z</time>
      </trkpt>
      <trkpt lat="45.1113" lon="5.2763">
        <ele>194.9</ele>
        <time>2022-09-17T12:13:58.000Z</time>
      </trkpt>
      <trkpt lat="45.11129" lon="5.27626">
        <ele>195.3</ele>
        <time>2022-09-17T12:13:59.000Z</time>
      </trkpt>
      <trkpt lat="45.11129" lon="5.27622">
        <ele>195.7</ele>
        <time>2022-09-17T12:14:00.000Z</time>
      </trkpt>
      <trkpt lat="45.11129" lon="5.27617">
        <ele>196.2</ele>
        <time>2022-09-17T12:14:01.000Z</time>
      </trkpt>
      <trkpt lat="45.11129" lon="5.27613">
        <ele>196.6</ele>
        <time>2022-09-17T12:14:02.000Z</time>
      </trkpt>
      <trkpt lat="45.11129" lon="5.27608">
        <ele>196.5</ele>
        <time>2022-09-17T12:14:03.000Z</time>
      </trkpt>
      <trkpt lat="45.1113" lon="5.27604">
        <ele>196.3</ele>
        <time>2022-09-17T12:14:04.000Z</time>
      </trkpt>
      <trkpt lat="45.1113" lon="5.276">
        <ele>195.9</ele>
        <time>2022-09-17T12:14:05.000Z</time>
      </trkpt>
      <trkpt lat="45.1113" lon="5.27596">
        <ele>195.6</ele>
        <time>2022-09-17T12:14:06.000Z</time>
      </trkpt>
      <trkpt lat="45.11131" lon="5.27591">
        <ele>195.5</ele>
        <time>2022-09-17T12:14:07.000Z</time>
      </trkpt>
      <trkpt lat="45.11132" lon="5.27587">
        <ele>195.5</ele>
        <time>2022-09-17T12:14:08.000Z</time>
      </trkpt>
      <trkpt lat="45.11134" lon="5.27584">
        <ele>195.8</ele>
        <time>2022-09-17T12:14:09.000Z</time>
      </trkpt>
      <trkpt lat="45.11136" lon="5.2758">
        <ele>196.1</ele>
        <time>2022-09-17T12:14:10.000Z</time>
      </trkpt>
      <trkpt lat="45.11138" lon="5.27577">
        <ele>196.4</ele>
        <time>2022-09-17T12:14:11.000Z</time>
      </trkpt>
      <trkpt lat="45.11139" lon="5.27574">
        <ele>196.5</ele>
        <time>2022-09-17T12:14:12.000Z</time>
      </trkpt>
      <trkpt lat="45.11141" lon="5.27571">
        <ele>196.9</ele>
        <time>2022-09-17T12:14:13.000Z</time>
      </trkpt>
      <trkpt lat="45.11143" lon="5.27568">
        <ele>197.4</ele>
        <time>2022-09-17T12:14:14.000Z</time>
      </trkpt>
      <trkpt lat="45.11145" lon="5.27565">
        <ele>197.7</ele>
        <time>2022-09-17T12:14:15.000Z</time>
      </trkpt>
      <trkpt lat="45.11147" lon="5.27562">
        <ele>198</ele>
        <time>2022-09-17T12:14:16.000Z</time>
      </trkpt>
      <trkpt lat="45.11149" lon="5.27559">
        <ele>198.3</ele>
        <time>2022-09-17T12:14:17.000Z</time>
      </trkpt>
      <trkpt lat="45.1115" lon="5.27556">
        <ele>198.4</ele>
        <time>2022-09-17T12:14:18.000Z</time>
      </trkpt>
      <trkpt lat="45.11152" lon="5.27553">
        <ele>198.5</ele>
        <time>2022-09-17T12:14:19.000Z</time>
      </trkpt>
      <trkpt lat="45.11153" lon="5.2755">
        <ele>198.5</ele>
        <time>2022-09-17T12:14:20.000Z</time>
      </trkpt>
      <trkpt lat="45.11155" lon="5.27548">
        <ele>198.7</ele>
        <time>2022-09-17T12:14:21.000Z</time>
      </trkpt>
      <trkpt lat="45.11157" lon="5.27545">
        <ele>198.8</ele>
        <time>2022-09-17T12:14:22.000Z</time>
      </trkpt>
      <trkpt lat="45.11159" lon="5.27543">
        <ele>198.7</ele>
        <time>2022-09-17T12:14:23.000Z</time>
      </trkpt>
      <trkpt lat="45.11161" lon="5.2754">
        <ele>198.5</ele>
        <time>2022-09-17T12:14:24.000Z</time>
      </trkpt>
      <trkpt lat="45.11163" lon="5.27536">
        <ele>197.8</ele>
        <time>2022-09-17T12:14:25.000Z</time>
      </trkpt>
      <trkpt lat="45.11165" lon="5.27533">
        <ele>197.3</ele>
        <time>2022-09-17T12:14:26.000Z</time>
      </trkpt>
      <trkpt lat="45.11167" lon="5.27529">
        <ele>196.8</ele>
        <time>2022-09-17T12:14:27.000Z</time>
      </trkpt>
      <trkpt lat="45.11169" lon="5.27526">
        <ele>197.3</ele>
        <time>2022-09-17T12:14:28.000Z</time>
      </trkpt>
      <trkpt lat="45.11172" lon="5.27524">
        <ele>198.3</ele>
        <time>2022-09-17T12:14:29.000Z</time>
      </trkpt>
      <trkpt lat="45.11174" lon="5.27521">
        <ele>199.1</ele>
        <time>2022-09-17T12:14:30.000Z</time>
      </trkpt>
      <trkpt lat="45.11177" lon="5.27518">
        <ele>199.7</ele>
        <time>2022-09-17T12:14:31.000Z</time>
      </trkpt>
      <trkpt lat="45.1118" lon="5.27515">
        <ele>199.8</ele>
        <time>2022-09-17T12:14:32.000Z</time>
      </trkpt>
      <trkpt lat="45.11182" lon="5.27512">
        <ele>199.8</ele>
        <time>2022-09-17T12:14:33.000Z</time>
      </trkpt>
      <trkpt lat="45.11184" lon="5.2751">
        <ele>199.8</ele>
        <time>2022-09-17T12:14:34.000Z</time>
      </trkpt>
      <trkpt lat="45.11186" lon="5.27508">
        <ele>199.8</ele>
        <time>2022-09-17T12:14:35.000Z</time>
      </trkpt>
      <trkpt lat="45.11189" lon="5.27507">
        <ele>199.8</ele>
        <time>2022-09-17T12:14:36.000Z</time>
      </trkpt>
      <trkpt lat="45.11191" lon="5.27505">
        <ele>199.8</ele>
        <time>2022-09-17T12:14:37.000Z</time>
      </trkpt>
      <trkpt lat="45.11194" lon="5.27503">
        <ele>199.3</ele>
        <time>2022-09-17T12:14:38.000Z</time>
      </trkpt>
      <trkpt lat="45.11197" lon="5.275">
        <ele>198.7</ele>
        <time>2022-09-17T12:14:39.000Z</time>
      </trkpt>
      <trkpt lat="45.112" lon="5.27499">
        <ele>199.2</ele>
        <time>2022-09-17T12:14:40.000Z</time>
      </trkpt>
      <trkpt lat="45.11203" lon="5.27497">
        <ele>199.7</ele>
        <time>2022-09-17T12:14:41.000Z</time>
      </trkpt>
      <trkpt lat="45.11206" lon="5.27495">
        <ele>200.2</ele>
        <time>2022-09-17T12:14:42.000Z</time>
      </trkpt>
      <trkpt lat="45.11208" lon="5.27493">
        <ele>200.5</ele>
        <time>2022-09-17T12:14:43.000Z</time>
      </trkpt>
      <trkpt lat="45.11211" lon="5.27492">
        <ele>200.8</ele>
        <time>2022-09-17T12:14:44.000Z</time>
      </trkpt>
      <trkpt lat="45.11214" lon="5.2749">
        <ele>200.9</ele>
        <time>2022-09-17T12:14:45.000Z</time>
      </trkpt>
      <trkpt lat="45.11217" lon="5.27488">
        <ele>201</ele>
        <time>2022-09-17T12:14:46.000Z</time>
      </trkpt>
      <trkpt lat="45.11219" lon="5.27486">
        <ele>201</ele>
        <time>2022-09-17T12:14:47.000Z</time>
      </trkpt>
      <trkpt lat="45.11221" lon="5.27485">
        <ele>201</ele>
        <time>2022-09-17T12:14:48.000Z</time>
      </trkpt>
      <trkpt lat="45.11223" lon="5.27484">
        <ele>201.1</ele>
        <time>2022-09-17T12:14:49.000Z</time>
      </trkpt>
      <trkpt lat="45.11225" lon="5.27483">
        <ele>201.4</ele>
        <time>2022-09-17T12:14:50.000Z</time>
      </trkpt>
      <trkpt lat="45.11228" lon="5.27482">
        <ele>201.6</ele>
        <time>2022-09-17T12:14:51.000Z</time>
      </trkpt>
      <trkpt lat="45.1123" lon="5.27481">
        <ele>201.7</ele>
        <time>2022-09-17T12:14:52.000Z</time>
      </trkpt>
      <trkpt lat="45.11233" lon="5.2748">
        <ele>201.6</ele>
        <time>2022-09-17T12:14:53.000Z</time>
      </trkpt>
      <trkpt lat="45.11235" lon="5.27477">
        <ele>200.9</ele>
        <time>2022-09-17T12:14:54.000Z</time>
      </trkpt>
      <trkpt lat="45.11236" lon="5.27474">
        <ele>199.8</ele>
        <time>2022-09-17T12:14:55.000Z</time>
      </trkpt>
      <trkpt lat="45.11236" lon="5.27471">
        <ele>198.9</ele>
        <time>2022-09-17T12:14:56.000Z</time>
      </trkpt>
      <trkpt lat="45.11236" lon="5.27467">
        <ele>198.9</ele>
        <time>2022-09-17T12:14:57.000Z</time>
      </trkpt>
      <trkpt lat="45.11236" lon="5.27463">
        <ele>198.8</ele>
        <time>2022-09-17T12:14:58.000Z</time>
      </trkpt>
      <trkpt lat="45.11235" lon="5.27459">
        <ele>198.7</ele>
        <time>2022-09-17T12:14:59.000Z</time>
      </trkpt>
      <trkpt lat="45.11234" lon="5.27455">
        <ele>198.6</ele>
        <time>2022-09-17T12:15:00.000Z</time>
      </trkpt>
      <trkpt lat="45.11233" lon="5.27452">
        <ele>198.5</ele>
        <time>2022-09-17T12:15:01.000Z</time>
      </trkpt>
      <trkpt lat="45.11232" lon="5.27448">
        <ele>198.4</ele>
        <time>2022-09-17T12:15:02.000Z</time>
      </trkpt>
      <trkpt lat="45.11231" lon="5.27445">
        <ele>198.3</ele>
        <time>2022-09-17T12:15:03.000Z</time>
      </trkpt>
      <trkpt lat="45.1123" lon="5.27443">
        <ele>198.6</ele>
        <time>2022-09-17T12:15:04.000Z</time>
      </trkpt>
      <trkpt lat="45.11228" lon="5.27438">
        <ele>199.2</ele>
        <time>2022-09-17T12:15:06.000Z</time>
      </trkpt>
      <trkpt lat="45.11227" lon="5.27436">
        <ele>199.6</ele>
        <time>2022-09-17T12:15:07.000Z</time>
      </trkpt>
      <trkpt lat="45.11225" lon="5.27433">
        <ele>200</ele>
        <time>2022-09-17T12:15:08.000Z</time>
      </trkpt>
      <trkpt lat="45.11223" lon="5.27432">
        <ele>200.3</ele>
        <time>2022-09-17T12:15:09.000Z</time>
      </trkpt>
      <trkpt lat="45.11221" lon="5.2743">
        <ele>200.7</ele>
        <time>2022-09-17T12:15:10.000Z</time>
      </trkpt>
      <trkpt lat="45.11219" lon="5.27428">
        <ele>201.1</ele>
        <time>2022-09-17T12:15:11.000Z</time>
      </trkpt>
      <trkpt lat="45.11218" lon="5.27427">
        <ele>201.5</ele>
        <time>2022-09-17T12:15:12.000Z</time>
      </trkpt>
      <trkpt lat="45.11216" lon="5.27425">
        <ele>201.9</ele>
        <time>2022-09-17T12:15:13.000Z</time>
      </trkpt>
      <trkpt lat="45.11214" lon="5.27425">
        <ele>202.1</ele>
        <time>2022-09-17T12:15:14.000Z</time>
      </trkpt>
      <trkpt lat="45.11211" lon="5.27425">
        <ele>202.3</ele>
        <time>2022-09-17T12:15:15.000Z</time>
      </trkpt>
      <trkpt lat="45.11209" lon="5.27424">
        <ele>202.6</ele>
        <time>2022-09-17T12:15:16.000Z</time>
      </trkpt>
      <trkpt lat="45.11208" lon="5.27424">
        <ele>202.8</ele>
        <time>2022-09-17T12:15:17.000Z</time>
      </trkpt>
      <trkpt lat="45.11204" lon="5.27424">
        <ele>203</ele>
        <time>2022-09-17T12:15:19.000Z</time>
      </trkpt>
      <trkpt lat="45.11202" lon="5.27423">
        <ele>203.5</ele>
        <time>2022-09-17T12:15:21.000Z</time>
      </trkpt>
      <trkpt lat="45.11199" lon="5.27425">
        <ele>203</ele>
        <time>2022-09-17T12:15:22.000Z</time>
      </trkpt>
      <trkpt lat="45.11196" lon="5.27427">
        <ele>202.5</ele>
        <time>2022-09-17T12:15:23.000Z</time>
      </trkpt>
      <trkpt lat="45.11193" lon="5.27428">
        <ele>202.8</ele>
        <time>2022-09-17T12:15:24.000Z</time>
      </trkpt>
      <trkpt lat="45.1119" lon="5.27428">
        <ele>203.5</ele>
        <time>2022-09-17T12:15:25.000Z</time>
      </trkpt>
      <trkpt lat="45.11188" lon="5.27427">
        <ele>204.3</ele>
        <time>2022-09-17T12:15:26.000Z</time>
      </trkpt>
      <trkpt lat="45.11186" lon="5.27425">
        <ele>205.6</ele>
        <time>2022-09-17T12:15:27.000Z</time>
      </trkpt>
      <trkpt lat="45.11184" lon="5.27422">
        <ele>207.3</ele>
        <time>2022-09-17T12:15:28.000Z</time>
      </trkpt>
      <trkpt lat="45.11177" lon="5.27417">
        <ele>211.1</ele>
        <time>2022-09-17T12:15:29.000Z</time>
      </trkpt>
      <trkpt lat="45.11175" lon="5.27414">
        <ele>213.4</ele>
        <time>2022-09-17T12:15:30.000Z</time>
      </trkpt>
      <trkpt lat="45.1117" lon="5.27416">
        <ele>213.7</ele>
        <time>2022-09-17T12:15:31.000Z</time>
      </trkpt>
      <trkpt lat="45.11166" lon="5.27419">
        <ele>213.1</ele>
        <time>2022-09-17T12:15:32.000Z</time>
      </trkpt>
      <trkpt lat="45.11161" lon="5.2743">
        <ele>210.4</ele>
        <time>2022-09-17T12:15:33.000Z</time>
      </trkpt>
      <trkpt lat="45.11159" lon="5.27439">
        <ele>206.8</ele>
        <time>2022-09-17T12:15:34.000Z</time>
      </trkpt>
      <trkpt lat="45.11158" lon="5.27444">
        <ele>205.1</ele>
        <time>2022-09-17T12:15:35.000Z</time>
      </trkpt>
      <trkpt lat="45.11157" lon="5.2745">
        <ele>203.4</ele>
        <time>2022-09-17T12:15:36.000Z</time>
      </trkpt>
      <trkpt lat="45.11158" lon="5.27447">
        <ele>204</ele>
        <time>2022-09-17T12:15:39.000Z</time>
      </trkpt>
      <trkpt lat="45.11156" lon="5.27447">
        <ele>204.5</ele>
        <time>2022-09-17T12:15:41.000Z</time>
      </trkpt>
      <trkpt lat="45.11152" lon="5.27447">
        <ele>205.9</ele>
        <time>2022-09-17T12:15:43.000Z</time>
      </trkpt>
      <trkpt lat="45.1115" lon="5.27449">
        <ele>205.9</ele>
        <time>2022-09-17T12:15:44.000Z</time>
      </trkpt>
      <trkpt lat="45.11148" lon="5.27452">
        <ele>205.4</ele>
        <time>2022-09-17T12:15:45.000Z</time>
      </trkpt>
      <trkpt lat="45.11147" lon="5.27454">
        <ele>205.3</ele>
        <time>2022-09-17T12:15:46.000Z</time>
      </trkpt>
      <trkpt lat="45.11145" lon="5.27455">
        <ele>205.3</ele>
        <time>2022-09-17T12:15:47.000Z</time>
      </trkpt>
      <trkpt lat="45.11142" lon="5.27457">
        <ele>205.4</ele>
        <time>2022-09-17T12:15:48.000Z</time>
      </trkpt>
      <trkpt lat="45.1114" lon="5.27459">
        <ele>205.4</ele>
        <time>2022-09-17T12:15:49.000Z</time>
      </trkpt>
      <trkpt lat="45.11138" lon="5.2746">
        <ele>205.7</ele>
        <time>2022-09-17T12:15:50.000Z</time>
      </trkpt>
      <trkpt lat="45.11136" lon="5.27462">
        <ele>205.6</ele>
        <time>2022-09-17T12:15:51.000Z</time>
      </trkpt>
      <trkpt lat="45.11134" lon="5.27464">
        <ele>205.6</ele>
        <time>2022-09-17T12:15:52.000Z</time>
      </trkpt>
      <trkpt lat="45.11132" lon="5.27465">
        <ele>205.7</ele>
        <time>2022-09-17T12:15:53.000Z</time>
      </trkpt>
      <trkpt lat="45.1113" lon="5.27467">
        <ele>205.8</ele>
        <time>2022-09-17T12:15:54.000Z</time>
      </trkpt>
      <trkpt lat="45.11128" lon="5.27468">
        <ele>206</ele>
        <time>2022-09-17T12:15:55.000Z</time>
      </trkpt>
      <trkpt lat="45.11126" lon="5.27469">
        <ele>206.1</ele>
        <time>2022-09-17T12:15:56.000Z</time>
      </trkpt>
      <trkpt lat="45.11124" lon="5.2747">
        <ele>206.1</ele>
        <time>2022-09-17T12:15:57.000Z</time>
      </trkpt>
      <trkpt lat="45.11122" lon="5.27472">
        <ele>206.2</ele>
        <time>2022-09-17T12:15:58.000Z</time>
      </trkpt>
      <trkpt lat="45.1112" lon="5.27472">
        <ele>206.4</ele>
        <time>2022-09-17T12:15:59.000Z</time>
      </trkpt>
      <trkpt lat="45.11117" lon="5.27474">
        <ele>206.7</ele>
        <time>2022-09-17T12:16:01.000Z</time>
      </trkpt>
      <trkpt lat="45.11115" lon="5.27475">
        <ele>206.8</ele>
        <time>2022-09-17T12:16:02.000Z</time>
      </trkpt>
      <trkpt lat="45.11113" lon="5.27477">
        <ele>206.9</ele>
        <time>2022-09-17T12:16:03.000Z</time>
      </trkpt>
      <trkpt lat="45.11111" lon="5.27478">
        <ele>206.9</ele>
        <time>2022-09-17T12:16:04.000Z</time>
      </trkpt>
      <trkpt lat="45.11108" lon="5.2748">
        <ele>206.9</ele>
        <time>2022-09-17T12:16:05.000Z</time>
      </trkpt>
      <trkpt lat="45.11107" lon="5.27481">
        <ele>206.9</ele>
        <time>2022-09-17T12:16:06.000Z</time>
      </trkpt>
      <trkpt lat="45.11104" lon="5.27483">
        <ele>206.8</ele>
        <time>2022-09-17T12:16:07.000Z</time>
      </trkpt>
      <trkpt lat="45.11101" lon="5.27484">
        <ele>207</ele>
        <time>2022-09-17T12:16:08.000Z</time>
      </trkpt>
      <trkpt lat="45.11099" lon="5.27485">
        <ele>207.1</ele>
        <time>2022-09-17T12:16:09.000Z</time>
      </trkpt>
      <trkpt lat="45.11097" lon="5.27486">
        <ele>207.2</ele>
        <time>2022-09-17T12:16:10.000Z</time>
      </trkpt>
      <trkpt lat="45.11096" lon="5.27488">
        <ele>207.2</ele>
        <time>2022-09-17T12:16:11.000Z</time>
      </trkpt>
      <trkpt lat="45.11093" lon="5.27489">
        <ele>207.4</ele>
        <time>2022-09-17T12:16:12.000Z</time>
      </trkpt>
      <trkpt lat="45.11091" lon="5.2749">
        <ele>207.6</ele>
        <time>2022-09-17T12:16:13.000Z</time>
      </trkpt>
      <trkpt lat="45.11089" lon="5.27489">
        <ele>208.2</ele>
        <time>2022-09-17T12:16:14.000Z</time>
      </trkpt>
      <trkpt lat="45.11088" lon="5.27488">
        <ele>208.9</ele>
        <time>2022-09-17T12:16:15.000Z</time>
      </trkpt>
      <trkpt lat="45.11086" lon="5.27488">
        <ele>209.5</ele>
        <time>2022-09-17T12:16:16.000Z</time>
      </trkpt>
      <trkpt lat="45.11083" lon="5.27487">
        <ele>210.1</ele>
        <time>2022-09-17T12:16:17.000Z</time>
      </trkpt>
      <trkpt lat="45.11081" lon="5.27486">
        <ele>209.7</ele>
        <time>2022-09-17T12:16:18.000Z</time>
      </trkpt>
      <trkpt lat="45.11079" lon="5.27484">
        <ele>209.5</ele>
        <time>2022-09-17T12:16:19.000Z</time>
      </trkpt>
      <trkpt lat="45.11077" lon="5.27482">
        <ele>209.4</ele>
        <time>2022-09-17T12:16:20.000Z</time>
      </trkpt>
      <trkpt lat="45.11076" lon="5.2748">
        <ele>209.3</ele>
        <time>2022-09-17T12:16:21.000Z</time>
      </trkpt>
      <trkpt lat="45.11074" lon="5.27478">
        <ele>209.1</ele>
        <time>2022-09-17T12:16:22.000Z</time>
      </trkpt>
      <trkpt lat="45.11073" lon="5.27477">
        <ele>209</ele>
        <time>2022-09-17T12:16:23.000Z</time>
      </trkpt>
      <trkpt lat="45.11072" lon="5.27474">
        <ele>209</ele>
        <time>2022-09-17T12:16:24.000Z</time>
      </trkpt>
      <trkpt lat="45.11071" lon="5.27472">
        <ele>209</ele>
        <time>2022-09-17T12:16:25.000Z</time>
      </trkpt>
      <trkpt lat="45.1107" lon="5.27468">
        <ele>208.7</ele>
        <time>2022-09-17T12:16:27.000Z</time>
      </trkpt>
      <trkpt lat="45.11069" lon="5.27462">
        <ele>208.4</ele>
        <time>2022-09-17T12:16:29.000Z</time>
      </trkpt>
      <trkpt lat="45.11069" lon="5.27459">
        <ele>208.5</ele>
        <time>2022-09-17T12:16:30.000Z</time>
      </trkpt>
      <trkpt lat="45.11069" lon="5.27456">
        <ele>208.6</ele>
        <time>2022-09-17T12:16:31.000Z</time>
      </trkpt>
      <trkpt lat="45.11069" lon="5.27453">
        <ele>208.7</ele>
        <time>2022-09-17T12:16:32.000Z</time>
      </trkpt>
      <trkpt lat="45.1107" lon="5.27451">
        <ele>209.3</ele>
        <time>2022-09-17T12:16:33.000Z</time>
      </trkpt>
      <trkpt lat="45.11073" lon="5.2745">
        <ele>211</ele>
        <time>2022-09-17T12:16:34.000Z</time>
      </trkpt>
      <trkpt lat="45.11074" lon="5.27447">
        <ele>211.7</ele>
        <time>2022-09-17T12:16:35.000Z</time>
      </trkpt>
      <trkpt lat="45.11075" lon="5.27444">
        <ele>212.4</ele>
        <time>2022-09-17T12:16:36.000Z</time>
      </trkpt>
      <trkpt lat="45.11076" lon="5.27442">
        <ele>212.6</ele>
        <time>2022-09-17T12:16:37.000Z</time>
      </trkpt>
      <trkpt lat="45.11077" lon="5.27437">
        <ele>212.8</ele>
        <time>2022-09-17T12:16:39.000Z</time>
      </trkpt>
      <trkpt lat="45.11077" lon="5.27434">
        <ele>212.9</ele>
        <time>2022-09-17T12:16:40.000Z</time>
      </trkpt>
      <trkpt lat="45.11078" lon="5.27431">
        <ele>213</ele>
        <time>2022-09-17T12:16:41.000Z</time>
      </trkpt>
      <trkpt lat="45.11079" lon="5.27428">
        <ele>213.3</ele>
        <time>2022-09-17T12:16:42.000Z</time>
      </trkpt>
      <trkpt lat="45.1108" lon="5.27425">
        <ele>213.2</ele>
        <time>2022-09-17T12:16:43.000Z</time>
      </trkpt>
      <trkpt lat="45.1108" lon="5.27422">
        <ele>213.1</ele>
        <time>2022-09-17T12:16:44.000Z</time>
      </trkpt>
      <trkpt lat="45.11081" lon="5.27418">
        <ele>213</ele>
        <time>2022-09-17T12:16:45.000Z</time>
      </trkpt>
      <trkpt lat="45.11081" lon="5.27414">
        <ele>212.9</ele>
        <time>2022-09-17T12:16:46.000Z</time>
      </trkpt>
      <trkpt lat="45.11082" lon="5.27411">
        <ele>213.2</ele>
        <time>2022-09-17T12:16:47.000Z</time>
      </trkpt>
      <trkpt lat="45.11083" lon="5.27408">
        <ele>213.4</ele>
        <time>2022-09-17T12:16:48.000Z</time>
      </trkpt>
      <trkpt lat="45.11083" lon="5.27405">
        <ele>213.6</ele>
        <time>2022-09-17T12:16:49.000Z</time>
      </trkpt>
      <trkpt lat="45.11084" lon="5.27402">
        <ele>213.7</ele>
        <time>2022-09-17T12:16:50.000Z</time>
      </trkpt>
      <trkpt lat="45.11084" lon="5.27399">
        <ele>213.8</ele>
        <time>2022-09-17T12:16:51.000Z</time>
      </trkpt>
      <trkpt lat="45.11085" lon="5.27396">
        <ele>213.8</ele>
        <time>2022-09-17T12:16:52.000Z</time>
      </trkpt>
      <trkpt lat="45.11085" lon="5.27393">
        <ele>213.7</ele>
        <time>2022-09-17T12:16:53.000Z</time>
      </trkpt>
      <trkpt lat="45.11085" lon="5.2739">
        <ele>213.7</ele>
        <time>2022-09-17T12:16:54.000Z</time>
      </trkpt>
      <trkpt lat="45.11085" lon="5.27387">
        <ele>214</ele>
        <time>2022-09-17T12:16:55.000Z</time>
      </trkpt>
      <trkpt lat="45.11086" lon="5.27384">
        <ele>214.3</ele>
        <time>2022-09-17T12:16:56.000Z</time>
      </trkpt>
      <trkpt lat="45.11086" lon="5.27381">
        <ele>214.5</ele>
        <time>2022-09-17T12:16:57.000Z</time>
      </trkpt>
      <trkpt lat="45.11086" lon="5.27378">
        <ele>214.9</ele>
        <time>2022-09-17T12:16:58.000Z</time>
      </trkpt>
      <trkpt lat="45.11087" lon="5.27375">
        <ele>215.1</ele>
        <time>2022-09-17T12:16:59.000Z</time>
      </trkpt>
      <trkpt lat="45.11087" lon="5.27371">
        <ele>215.3</ele>
        <time>2022-09-17T12:17:00.000Z</time>
      </trkpt>
      <trkpt lat="45.11087" lon="5.27369">
        <ele>215.4</ele>
        <time>2022-09-17T12:17:01.000Z</time>
      </trkpt>
      <trkpt lat="45.11086" lon="5.27366">
        <ele>215.3</ele>
        <time>2022-09-17T12:17:02.000Z</time>
      </trkpt>
      <trkpt lat="45.11086" lon="5.27363">
        <ele>215.2</ele>
        <time>2022-09-17T12:17:03.000Z</time>
      </trkpt>
      <trkpt lat="45.11086" lon="5.2736">
        <ele>215.3</ele>
        <time>2022-09-17T12:17:04.000Z</time>
      </trkpt>
      <trkpt lat="45.11086" lon="5.27357">
        <ele>215.5</ele>
        <time>2022-09-17T12:17:05.000Z</time>
      </trkpt>
      <trkpt lat="45.11086" lon="5.27354">
        <ele>215.8</ele>
        <time>2022-09-17T12:17:06.000Z</time>
      </trkpt>
      <trkpt lat="45.11086" lon="5.27351">
        <ele>215.8</ele>
        <time>2022-09-17T12:17:07.000Z</time>
      </trkpt>
      <trkpt lat="45.11085" lon="5.27348">
        <ele>215.9</ele>
        <time>2022-09-17T12:17:08.000Z</time>
      </trkpt>
      <trkpt lat="45.11085" lon="5.27345">
        <ele>216.1</ele>
        <time>2022-09-17T12:17:09.000Z</time>
      </trkpt>
      <trkpt lat="45.11085" lon="5.27342">
        <ele>216.1</ele>
        <time>2022-09-17T12:17:10.000Z</time>
      </trkpt>
      <trkpt lat="45.11085" lon="5.27339">
        <ele>216.2</ele>
        <time>2022-09-17T12:17:11.000Z</time>
      </trkpt>
      <trkpt lat="45.11084" lon="5.27337">
        <ele>216.1</ele>
        <time>2022-09-17T12:17:12.000Z</time>
      </trkpt>
      <trkpt lat="45.11084" lon="5.27333">
        <ele>216.2</ele>
        <time>2022-09-17T12:17:13.000Z</time>
      </trkpt>
      <trkpt lat="45.11084" lon="5.2733">
        <ele>216.5</ele>
        <time>2022-09-17T12:17:14.000Z</time>
      </trkpt>
      <trkpt lat="45.11084" lon="5.27327">
        <ele>216.5</ele>
        <time>2022-09-17T12:17:15.000Z</time>
      </trkpt>
      <trkpt lat="45.11083" lon="5.27325">
        <ele>216.6</ele>
        <time>2022-09-17T12:17:16.000Z</time>
      </trkpt>
      <trkpt lat="45.11083" lon="5.27322">
        <ele>216.8</ele>
        <time>2022-09-17T12:17:17.000Z</time>
      </trkpt>
      <trkpt lat="45.11083" lon="5.27319">
        <ele>217.1</ele>
        <time>2022-09-17T12:17:18.000Z</time>
      </trkpt>
      <trkpt lat="45.11082" lon="5.27316">
        <ele>217.3</ele>
        <time>2022-09-17T12:17:19.000Z</time>
      </trkpt>
      <trkpt lat="45.11081" lon="5.27314">
        <ele>217.4</ele>
        <time>2022-09-17T12:17:20.000Z</time>
      </trkpt>
      <trkpt lat="45.1108" lon="5.27312">
        <ele>217.6</ele>
        <time>2022-09-17T12:17:21.000Z</time>
      </trkpt>
      <trkpt lat="45.11078" lon="5.27307">
        <ele>217.9</ele>
        <time>2022-09-17T12:17:23.000Z</time>
      </trkpt>
      <trkpt lat="45.11077" lon="5.27304">
        <ele>218.2</ele>
        <time>2022-09-17T12:17:24.000Z</time>
      </trkpt>
      <trkpt lat="45.11075" lon="5.27303">
        <ele>218.3</ele>
        <time>2022-09-17T12:17:25.000Z</time>
      </trkpt>
      <trkpt lat="45.11073" lon="5.27302">
        <ele>218.4</ele>
        <time>2022-09-17T12:17:26.000Z</time>
      </trkpt>
      <trkpt lat="45.1107" lon="5.27302">
        <ele>218.4</ele>
        <time>2022-09-17T12:17:27.000Z</time>
      </trkpt>
      <trkpt lat="45.11067" lon="5.27303">
        <ele>218.3</ele>
        <time>2022-09-17T12:17:28.000Z</time>
      </trkpt>
      <trkpt lat="45.11064" lon="5.27304">
        <ele>218.1</ele>
        <time>2022-09-17T12:17:29.000Z</time>
      </trkpt>
      <trkpt lat="45.11061" lon="5.27307">
        <ele>217.9</ele>
        <time>2022-09-17T12:17:30.000Z</time>
      </trkpt>
      <trkpt lat="45.11059" lon="5.2731">
        <ele>217.8</ele>
        <time>2022-09-17T12:17:31.000Z</time>
      </trkpt>
      <trkpt lat="45.11057" lon="5.27313">
        <ele>217.7</ele>
        <time>2022-09-17T12:17:32.000Z</time>
      </trkpt>
      <trkpt lat="45.11055" lon="5.27317">
        <ele>218.2</ele>
        <time>2022-09-17T12:17:33.000Z</time>
      </trkpt>
      <trkpt lat="45.11053" lon="5.2732">
        <ele>219</ele>
        <time>2022-09-17T12:17:34.000Z</time>
      </trkpt>
      <trkpt lat="45.11052" lon="5.27324">
        <ele>219.8</ele>
        <time>2022-09-17T12:17:35.000Z</time>
      </trkpt>
      <trkpt lat="45.11051" lon="5.27327">
        <ele>220.4</ele>
        <time>2022-09-17T12:17:36.000Z</time>
      </trkpt>
      <trkpt lat="45.1105" lon="5.2733">
        <ele>220.6</ele>
        <time>2022-09-17T12:17:37.000Z</time>
      </trkpt>
      <trkpt lat="45.11049" lon="5.27333">
        <ele>220.9</ele>
        <time>2022-09-17T12:17:38.000Z</time>
      </trkpt>
      <trkpt lat="45.11048" lon="5.27336">
        <ele>220.5</ele>
        <time>2022-09-17T12:17:39.000Z</time>
      </trkpt>
      <trkpt lat="45.11048" lon="5.27339">
        <ele>220.1</ele>
        <time>2022-09-17T12:17:40.000Z</time>
      </trkpt>
      <trkpt lat="45.11046" lon="5.27343">
        <ele>219.7</ele>
        <time>2022-09-17T12:17:42.000Z</time>
      </trkpt>
      <trkpt lat="45.11045" lon="5.27345">
        <ele>219.8</ele>
        <time>2022-09-17T12:17:43.000Z</time>
      </trkpt>
      <trkpt lat="45.11044" lon="5.27347">
        <ele>219.6</ele>
        <time>2022-09-17T12:17:44.000Z</time>
      </trkpt>
      <trkpt lat="45.11043" lon="5.2735">
        <ele>219.5</ele>
        <time>2022-09-17T12:17:45.000Z</time>
      </trkpt>
      <trkpt lat="45.11042" lon="5.27352">
        <ele>218.9</ele>
        <time>2022-09-17T12:17:46.000Z</time>
      </trkpt>
      <trkpt lat="45.11043" lon="5.27358">
        <ele>217.1</ele>
        <time>2022-09-17T12:17:47.000Z</time>
      </trkpt>
      <trkpt lat="45.11046" lon="5.27362">
        <ele>214.5</ele>
        <time>2022-09-17T12:17:48.000Z</time>
      </trkpt>
      <trkpt lat="45.11045" lon="5.27364">
        <ele>214.6</ele>
        <time>2022-09-17T12:17:50.000Z</time>
      </trkpt>
      <trkpt lat="45.11042" lon="5.27364">
        <ele>215.9</ele>
        <time>2022-09-17T12:17:51.000Z</time>
      </trkpt>
      <trkpt lat="45.11036" lon="5.27364">
        <ele>218.1</ele>
        <time>2022-09-17T12:17:52.000Z</time>
      </trkpt>
      <trkpt lat="45.11029" lon="5.27365">
        <ele>220.7</ele>
        <time>2022-09-17T12:17:53.000Z</time>
      </trkpt>
      <trkpt lat="45.11025" lon="5.27366">
        <ele>220.5</ele>
        <time>2022-09-17T12:17:54.000Z</time>
      </trkpt>
      <trkpt lat="45.11022" lon="5.27369">
        <ele>219.5</ele>
        <time>2022-09-17T12:17:57.000Z</time>
      </trkpt>
      <trkpt lat="45.1102" lon="5.2737">
        <ele>219</ele>
        <time>2022-09-17T12:17:58.000Z</time>
      </trkpt>
      <trkpt lat="45.11017" lon="5.2737">
        <ele>218.6</ele>
        <time>2022-09-17T12:18:00.000Z</time>
      </trkpt>
      <trkpt lat="45.11015" lon="5.27369">
        <ele>218.8</ele>
        <time>2022-09-17T12:18:01.000Z</time>
      </trkpt>
      <trkpt lat="45.11012" lon="5.27366">
        <ele>219.4</ele>
        <time>2022-09-17T12:18:03.000Z</time>
      </trkpt>
      <trkpt lat="45.11009" lon="5.27364">
        <ele>219.6</ele>
        <time>2022-09-17T12:18:05.000Z</time>
      </trkpt>
      <trkpt lat="45.11007" lon="5.27363">
        <ele>220</ele>
        <time>2022-09-17T12:18:06.000Z</time>
      </trkpt>
      <trkpt lat="45.11005" lon="5.2736">
        <ele>220.6</ele>
        <time>2022-09-17T12:18:07.000Z</time>
      </trkpt>
      <trkpt lat="45.11004" lon="5.27358">
        <ele>221</ele>
        <time>2022-09-17T12:18:08.000Z</time>
      </trkpt>
      <trkpt lat="45.11002" lon="5.27356">
        <ele>221.4</ele>
        <time>2022-09-17T12:18:09.000Z</time>
      </trkpt>
      <trkpt lat="45.11001" lon="5.27353">
        <ele>221.7</ele>
        <time>2022-09-17T12:18:10.000Z</time>
      </trkpt>
      <trkpt lat="45.10999" lon="5.27352">
        <ele>221.6</ele>
        <time>2022-09-17T12:18:11.000Z</time>
      </trkpt>
      <trkpt lat="45.10996" lon="5.27348">
        <ele>221.6</ele>
        <time>2022-09-17T12:18:13.000Z</time>
      </trkpt>
      <trkpt lat="45.10995" lon="5.27346">
        <ele>221.8</ele>
        <time>2022-09-17T12:18:14.000Z</time>
      </trkpt>
      <trkpt lat="45.10994" lon="5.27344">
        <ele>221.9</ele>
        <time>2022-09-17T12:18:15.000Z</time>
      </trkpt>
      <trkpt lat="45.10992" lon="5.27342">
        <ele>222</ele>
        <time>2022-09-17T12:18:16.000Z</time>
      </trkpt>
      <trkpt lat="45.1099" lon="5.2734">
        <ele>221.9</ele>
        <time>2022-09-17T12:18:17.000Z</time>
      </trkpt>
      <trkpt lat="45.10988" lon="5.27338">
        <ele>221.8</ele>
        <time>2022-09-17T12:18:18.000Z</time>
      </trkpt>
      <trkpt lat="45.10986" lon="5.27336">
        <ele>221.8</ele>
        <time>2022-09-17T12:18:19.000Z</time>
      </trkpt>
      <trkpt lat="45.10985" lon="5.27334">
        <ele>222</ele>
        <time>2022-09-17T12:18:20.000Z</time>
      </trkpt>
      <trkpt lat="45.10983" lon="5.27332">
        <ele>222.2</ele>
        <time>2022-09-17T12:18:21.000Z</time>
      </trkpt>
      <trkpt lat="45.10981" lon="5.2733">
        <ele>222.2</ele>
        <time>2022-09-17T12:18:22.000Z</time>
      </trkpt>
      <trkpt lat="45.10979" lon="5.27327">
        <ele>222.3</ele>
        <time>2022-09-17T12:18:23.000Z</time>
      </trkpt>
      <trkpt lat="45.10977" lon="5.27325">
        <ele>222.6</ele>
        <time>2022-09-17T12:18:24.000Z</time>
      </trkpt>
      <trkpt lat="45.10975" lon="5.27323">
        <ele>222.6</ele>
        <time>2022-09-17T12:18:25.000Z</time>
      </trkpt>
      <trkpt lat="45.10974" lon="5.27321">
        <ele>222.9</ele>
        <time>2022-09-17T12:18:26.000Z</time>
      </trkpt>
      <trkpt lat="45.10971" lon="5.27318">
        <ele>223.3</ele>
        <time>2022-09-17T12:18:28.000Z</time>
      </trkpt>
      <trkpt lat="45.10971" lon="5.27315">
        <ele>223.8</ele>
        <time>2022-09-17T12:18:29.000Z</time>
      </trkpt>
      <trkpt lat="45.10969" lon="5.27312">
        <ele>224</ele>
        <time>2022-09-17T12:18:31.000Z</time>
      </trkpt>
      <trkpt lat="45.10968" lon="5.2731">
        <ele>224.4</ele>
        <time>2022-09-17T12:18:33.000Z</time>
      </trkpt>
      <trkpt lat="45.10965" lon="5.27307">
        <ele>224.5</ele>
        <time>2022-09-17T12:18:35.000Z</time>
      </trkpt>
      <trkpt lat="45.10964" lon="5.27305">
        <ele>224.5</ele>
        <time>2022-09-17T12:18:36.000Z</time>
      </trkpt>
      <trkpt lat="45.10962" lon="5.27303">
        <ele>224.5</ele>
        <time>2022-09-17T12:18:37.000Z</time>
      </trkpt>
      <trkpt lat="45.10961" lon="5.27301">
        <ele>224.5</ele>
        <time>2022-09-17T12:18:38.000Z</time>
      </trkpt>
      <trkpt lat="45.1096" lon="5.27298">
        <ele>224.7</ele>
        <time>2022-09-17T12:18:39.000Z</time>
      </trkpt>
      <trkpt lat="45.10959" lon="5.27296">
        <ele>225</ele>
        <time>2022-09-17T12:18:40.000Z</time>
      </trkpt>
      <trkpt lat="45.10957" lon="5.27294">
        <ele>225.1</ele>
        <time>2022-09-17T12:18:41.000Z</time>
      </trkpt>
      <trkpt lat="45.10956" lon="5.27292">
        <ele>225.2</ele>
        <time>2022-09-17T12:18:42.000Z</time>
      </trkpt>
      <trkpt lat="45.10954" lon="5.27289">
        <ele>225.4</ele>
        <time>2022-09-17T12:18:43.000Z</time>
      </trkpt>
      <trkpt lat="45.10953" lon="5.27287">
        <ele>225.6</ele>
        <time>2022-09-17T12:18:44.000Z</time>
      </trkpt>
      <trkpt lat="45.10951" lon="5.27285">
        <ele>225.7</ele>
        <time>2022-09-17T12:18:45.000Z</time>
      </trkpt>
      <trkpt lat="45.10949" lon="5.27283">
        <ele>225.8</ele>
        <time>2022-09-17T12:18:46.000Z</time>
      </trkpt>
      <trkpt lat="45.10948" lon="5.27281">
        <ele>225.9</ele>
        <time>2022-09-17T12:18:47.000Z</time>
      </trkpt>
      <trkpt lat="45.10946" lon="5.27279">
        <ele>226</ele>
        <time>2022-09-17T12:18:48.000Z</time>
      </trkpt>
      <trkpt lat="45.10944" lon="5.27277">
        <ele>226.1</ele>
        <time>2022-09-17T12:18:49.000Z</time>
      </trkpt>
      <trkpt lat="45.10942" lon="5.27276">
        <ele>225.8</ele>
        <time>2022-09-17T12:18:50.000Z</time>
      </trkpt>
      <trkpt lat="45.10941" lon="5.27275">
        <ele>225.6</ele>
        <time>2022-09-17T12:18:51.000Z</time>
      </trkpt>
      <trkpt lat="45.10939" lon="5.27272">
        <ele>225.8</ele>
        <time>2022-09-17T12:18:52.000Z</time>
      </trkpt>
      <trkpt lat="45.10938" lon="5.2727">
        <ele>225.9</ele>
        <time>2022-09-17T12:18:53.000Z</time>
      </trkpt>
      <trkpt lat="45.10936" lon="5.27269">
        <ele>225.9</ele>
        <time>2022-09-17T12:18:54.000Z</time>
      </trkpt>
      <trkpt lat="45.10935" lon="5.27267">
        <ele>226</ele>
        <time>2022-09-17T12:18:55.000Z</time>
      </trkpt>
      <trkpt lat="45.10933" lon="5.27265">
        <ele>226.1</ele>
        <time>2022-09-17T12:18:56.000Z</time>
      </trkpt>
      <trkpt lat="45.10931" lon="5.27263">
        <ele>226</ele>
        <time>2022-09-17T12:18:57.000Z</time>
      </trkpt>
      <trkpt lat="45.1093" lon="5.27262">
        <ele>226</ele>
        <time>2022-09-17T12:18:58.000Z</time>
      </trkpt>
      <trkpt lat="45.10928" lon="5.27259">
        <ele>226.5</ele>
        <time>2022-09-17T12:19:00.000Z</time>
      </trkpt>
      <trkpt lat="45.10928" lon="5.27256">
        <ele>227.2</ele>
        <time>2022-09-17T12:19:01.000Z</time>
      </trkpt>
      <trkpt lat="45.10927" lon="5.27252">
        <ele>228.1</ele>
        <time>2022-09-17T12:19:02.000Z</time>
      </trkpt>
      <trkpt lat="45.10926" lon="5.27249">
        <ele>228.9</ele>
        <time>2022-09-17T12:19:03.000Z</time>
      </trkpt>
      <trkpt lat="45.10925" lon="5.27246">
        <ele>229.1</ele>
        <time>2022-09-17T12:19:04.000Z</time>
      </trkpt>
      <trkpt lat="45.10924" lon="5.27243">
        <ele>229.2</ele>
        <time>2022-09-17T12:19:05.000Z</time>
      </trkpt>
      <trkpt lat="45.10922" lon="5.2724">
        <ele>229.3</ele>
        <time>2022-09-17T12:19:07.000Z</time>
      </trkpt>
      <trkpt lat="45.10921" lon="5.27238">
        <ele>229.5</ele>
        <time>2022-09-17T12:19:08.000Z</time>
      </trkpt>
      <trkpt lat="45.1092" lon="5.27234">
        <ele>229.7</ele>
        <time>2022-09-17T12:19:09.000Z</time>
      </trkpt>
      <trkpt lat="45.10918" lon="5.27232">
        <ele>229.4</ele>
        <time>2022-09-17T12:19:10.000Z</time>
      </trkpt>
      <trkpt lat="45.10916" lon="5.2723">
        <ele>229.3</ele>
        <time>2022-09-17T12:19:11.000Z</time>
      </trkpt>
      <trkpt lat="45.10915" lon="5.27228">
        <ele>229.2</ele>
        <time>2022-09-17T12:19:12.000Z</time>
      </trkpt>
      <trkpt lat="45.10913" lon="5.27224">
        <ele>229.4</ele>
        <time>2022-09-17T12:19:14.000Z</time>
      </trkpt>
      <trkpt lat="45.10911" lon="5.27222">
        <ele>229.4</ele>
        <time>2022-09-17T12:19:15.000Z</time>
      </trkpt>
      <trkpt lat="45.1091" lon="5.2722">
        <ele>229.5</ele>
        <time>2022-09-17T12:19:16.000Z</time>
      </trkpt>
      <trkpt lat="45.10908" lon="5.27217">
        <ele>229.6</ele>
        <time>2022-09-17T12:19:17.000Z</time>
      </trkpt>
      <trkpt lat="45.10906" lon="5.27214">
        <ele>229.7</ele>
        <time>2022-09-17T12:19:18.000Z</time>
      </trkpt>
      <trkpt lat="45.10904" lon="5.27211">
        <ele>229.7</ele>
        <time>2022-09-17T12:19:20.000Z</time>
      </trkpt>
      <trkpt lat="45.10902" lon="5.2721">
        <ele>229.5</ele>
        <time>2022-09-17T12:19:21.000Z</time>
      </trkpt>
      <trkpt lat="45.109" lon="5.27208">
        <ele>229.4</ele>
        <time>2022-09-17T12:19:22.000Z</time>
      </trkpt>
      <trkpt lat="45.10898" lon="5.27206">
        <ele>229.2</ele>
        <time>2022-09-17T12:19:23.000Z</time>
      </trkpt>
      <trkpt lat="45.10895" lon="5.27205">
        <ele>228.9</ele>
        <time>2022-09-17T12:19:24.000Z</time>
      </trkpt>
      <trkpt lat="45.10894" lon="5.27202">
        <ele>229.3</ele>
        <time>2022-09-17T12:19:25.000Z</time>
      </trkpt>
      <trkpt lat="45.10893" lon="5.27197">
        <ele>230.3</ele>
        <time>2022-09-17T12:19:27.000Z</time>
      </trkpt>
      <trkpt lat="45.1089" lon="5.27195">
        <ele>230.2</ele>
        <time>2022-09-17T12:19:28.000Z</time>
      </trkpt>
      <trkpt lat="45.10888" lon="5.27192">
        <ele>230.1</ele>
        <time>2022-09-17T12:19:29.000Z</time>
      </trkpt>
      <trkpt lat="45.10887" lon="5.2719">
        <ele>230</ele>
        <time>2022-09-17T12:19:30.000Z</time>
      </trkpt>
      <trkpt lat="45.10885" lon="5.27187">
        <ele>230.2</ele>
        <time>2022-09-17T12:19:31.000Z</time>
      </trkpt>
      <trkpt lat="45.10884" lon="5.27184">
        <ele>230.3</ele>
        <time>2022-09-17T12:19:32.000Z</time>
      </trkpt>
      <trkpt lat="45.10883" lon="5.27181">
        <ele>230.5</ele>
        <time>2022-09-17T12:19:33.000Z</time>
      </trkpt>
      <trkpt lat="45.10881" lon="5.27179">
        <ele>230.7</ele>
        <time>2022-09-17T12:19:34.000Z</time>
      </trkpt>
      <trkpt lat="45.10879" lon="5.27175">
        <ele>231</ele>
        <time>2022-09-17T12:19:35.000Z</time>
      </trkpt>
      <trkpt lat="45.10877" lon="5.27173">
        <ele>231.2</ele>
        <time>2022-09-17T12:19:36.000Z</time>
      </trkpt>
      <trkpt lat="45.10875" lon="5.2717">
        <ele>231.6</ele>
        <time>2022-09-17T12:19:37.000Z</time>
      </trkpt>
      <trkpt lat="45.10874" lon="5.27167">
        <ele>232.3</ele>
        <time>2022-09-17T12:19:38.000Z</time>
      </trkpt>
      <trkpt lat="45.10872" lon="5.27164">
        <ele>232.4</ele>
        <time>2022-09-17T12:19:39.000Z</time>
      </trkpt>
      <trkpt lat="45.10871" lon="5.27162">
        <ele>232.4</ele>
        <time>2022-09-17T12:19:40.000Z</time>
      </trkpt>
      <trkpt lat="45.10869" lon="5.27159">
        <ele>232.5</ele>
        <time>2022-09-17T12:19:41.000Z</time>
      </trkpt>
      <trkpt lat="45.10867" lon="5.27157">
        <ele>232.5</ele>
        <time>2022-09-17T12:19:42.000Z</time>
      </trkpt>
      <trkpt lat="45.10865" lon="5.27155">
        <ele>232.5</ele>
        <time>2022-09-17T12:19:43.000Z</time>
      </trkpt>
      <trkpt lat="45.10864" lon="5.27152">
        <ele>232.6</ele>
        <time>2022-09-17T12:19:44.000Z</time>
      </trkpt>
      <trkpt lat="45.10862" lon="5.2715">
        <ele>232.6</ele>
        <time>2022-09-17T12:19:45.000Z</time>
      </trkpt>
      <trkpt lat="45.1086" lon="5.27148">
        <ele>232.3</ele>
        <time>2022-09-17T12:19:46.000Z</time>
      </trkpt>
      <trkpt lat="45.10858" lon="5.27146">
        <ele>232.1</ele>
        <time>2022-09-17T12:19:47.000Z</time>
      </trkpt>
      <trkpt lat="45.10857" lon="5.27143">
        <ele>232.1</ele>
        <time>2022-09-17T12:19:48.000Z</time>
      </trkpt>
      <trkpt lat="45.10855" lon="5.27141">
        <ele>232</ele>
        <time>2022-09-17T12:19:49.000Z</time>
      </trkpt>
      <trkpt lat="45.10853" lon="5.27137">
        <ele>232.3</ele>
        <time>2022-09-17T12:19:50.000Z</time>
      </trkpt>
      <trkpt lat="45.10852" lon="5.27135">
        <ele>232.4</ele>
        <time>2022-09-17T12:19:51.000Z</time>
      </trkpt>
      <trkpt lat="45.1085" lon="5.27132">
        <ele>232.5</ele>
        <time>2022-09-17T12:19:52.000Z</time>
      </trkpt>
      <trkpt lat="45.10849" lon="5.27129">
        <ele>232.7</ele>
        <time>2022-09-17T12:19:53.000Z</time>
      </trkpt>
      <trkpt lat="45.10847" lon="5.27126">
        <ele>232.8</ele>
        <time>2022-09-17T12:19:54.000Z</time>
      </trkpt>
      <trkpt lat="45.10846" lon="5.27123">
        <ele>233</ele>
        <time>2022-09-17T12:19:55.000Z</time>
      </trkpt>
      <trkpt lat="45.10845" lon="5.27121">
        <ele>233.3</ele>
        <time>2022-09-17T12:19:56.000Z</time>
      </trkpt>
      <trkpt lat="45.10844" lon="5.27119">
        <ele>233.6</ele>
        <time>2022-09-17T12:19:57.000Z</time>
      </trkpt>
      <trkpt lat="45.10843" lon="5.27116">
        <ele>233.9</ele>
        <time>2022-09-17T12:19:58.000Z</time>
      </trkpt>
      <trkpt lat="45.10842" lon="5.27113">
        <ele>234.2</ele>
        <time>2022-09-17T12:19:59.000Z</time>
      </trkpt>
      <trkpt lat="45.10841" lon="5.27109">
        <ele>234.5</ele>
        <time>2022-09-17T12:20:01.000Z</time>
      </trkpt>
      <trkpt lat="45.1084" lon="5.27104">
        <ele>234.6</ele>
        <time>2022-09-17T12:20:03.000Z</time>
      </trkpt>
      <trkpt lat="45.10839" lon="5.27101">
        <ele>234.6</ele>
        <time>2022-09-17T12:20:04.000Z</time>
      </trkpt>
      <trkpt lat="45.10839" lon="5.27099">
        <ele>234.7</ele>
        <time>2022-09-17T12:20:05.000Z</time>
      </trkpt>
      <trkpt lat="45.10838" lon="5.27096">
        <ele>234.8</ele>
        <time>2022-09-17T12:20:06.000Z</time>
      </trkpt>
      <trkpt lat="45.10837" lon="5.27093">
        <ele>234.9</ele>
        <time>2022-09-17T12:20:07.000Z</time>
      </trkpt>
      <trkpt lat="45.10837" lon="5.2709">
        <ele>234.9</ele>
        <time>2022-09-17T12:20:08.000Z</time>
      </trkpt>
      <trkpt lat="45.10836" lon="5.27087">
        <ele>235</ele>
        <time>2022-09-17T12:20:10.000Z</time>
      </trkpt>
      <trkpt lat="45.10835" lon="5.27084">
        <ele>235.1</ele>
        <time>2022-09-17T12:20:11.000Z</time>
      </trkpt>
      <trkpt lat="45.10834" lon="5.27082">
        <ele>235.3</ele>
        <time>2022-09-17T12:20:12.000Z</time>
      </trkpt>
      <trkpt lat="45.10833" lon="5.27077">
        <ele>235.4</ele>
        <time>2022-09-17T12:20:14.000Z</time>
      </trkpt>
      <trkpt lat="45.10832" lon="5.27075">
        <ele>235.3</ele>
        <time>2022-09-17T12:20:15.000Z</time>
      </trkpt>
      <trkpt lat="45.10831" lon="5.27073">
        <ele>235.5</ele>
        <time>2022-09-17T12:20:16.000Z</time>
      </trkpt>
      <trkpt lat="45.10831" lon="5.2707">
        <ele>235.7</ele>
        <time>2022-09-17T12:20:17.000Z</time>
      </trkpt>
      <trkpt lat="45.1083" lon="5.27067">
        <ele>235.7</ele>
        <time>2022-09-17T12:20:18.000Z</time>
      </trkpt>
      <trkpt lat="45.10829" lon="5.27064">
        <ele>235.9</ele>
        <time>2022-09-17T12:20:19.000Z</time>
      </trkpt>
      <trkpt lat="45.10828" lon="5.27061">
        <ele>236</ele>
        <time>2022-09-17T12:20:20.000Z</time>
      </trkpt>
      <trkpt lat="45.10828" lon="5.27058">
        <ele>236.3</ele>
        <time>2022-09-17T12:20:21.000Z</time>
      </trkpt>
      <trkpt lat="45.10828" lon="5.27055">
        <ele>236.6</ele>
        <time>2022-09-17T12:20:22.000Z</time>
      </trkpt>
      <trkpt lat="45.10827" lon="5.27052">
        <ele>236.7</ele>
        <time>2022-09-17T12:20:23.000Z</time>
      </trkpt>
      <trkpt lat="45.10827" lon="5.27049">
        <ele>236.8</ele>
        <time>2022-09-17T12:20:24.000Z</time>
      </trkpt>
      <trkpt lat="45.10826" lon="5.27046">
        <ele>237</ele>
        <time>2022-09-17T12:20:25.000Z</time>
      </trkpt>
      <trkpt lat="45.10826" lon="5.27043">
        <ele>237.1</ele>
        <time>2022-09-17T12:20:26.000Z</time>
      </trkpt>
      <trkpt lat="45.10825" lon="5.2704">
        <ele>237.3</ele>
        <time>2022-09-17T12:20:27.000Z</time>
      </trkpt>
      <trkpt lat="45.10824" lon="5.27037">
        <ele>237.5</ele>
        <time>2022-09-17T12:20:28.000Z</time>
      </trkpt>
      <trkpt lat="45.10824" lon="5.27034">
        <ele>237.7</ele>
        <time>2022-09-17T12:20:29.000Z</time>
      </trkpt>
      <trkpt lat="45.10823" lon="5.2703">
        <ele>238</ele>
        <time>2022-09-17T12:20:30.000Z</time>
      </trkpt>
      <trkpt lat="45.10822" lon="5.27027">
        <ele>238.3</ele>
        <time>2022-09-17T12:20:31.000Z</time>
      </trkpt>
      <trkpt lat="45.10822" lon="5.27024">
        <ele>238.4</ele>
        <time>2022-09-17T12:20:32.000Z</time>
      </trkpt>
      <trkpt lat="45.10821" lon="5.27021">
        <ele>238.6</ele>
        <time>2022-09-17T12:20:33.000Z</time>
      </trkpt>
      <trkpt lat="45.1082" lon="5.27018">
        <ele>238.8</ele>
        <time>2022-09-17T12:20:34.000Z</time>
      </trkpt>
      <trkpt lat="45.10819" lon="5.27014">
        <ele>239</ele>
        <time>2022-09-17T12:20:35.000Z</time>
      </trkpt>
      <trkpt lat="45.10819" lon="5.27011">
        <ele>239.2</ele>
        <time>2022-09-17T12:20:36.000Z</time>
      </trkpt>
      <trkpt lat="45.10818" lon="5.27008">
        <ele>239.3</ele>
        <time>2022-09-17T12:20:37.000Z</time>
      </trkpt>
      <trkpt lat="45.10818" lon="5.27005">
        <ele>239.5</ele>
        <time>2022-09-17T12:20:38.000Z</time>
      </trkpt>
      <trkpt lat="45.10817" lon="5.27001">
        <ele>239.8</ele>
        <time>2022-09-17T12:20:39.000Z</time>
      </trkpt>
      <trkpt lat="45.10817" lon="5.26998">
        <ele>239.9</ele>
        <time>2022-09-17T12:20:40.000Z</time>
      </trkpt>
      <trkpt lat="45.10816" lon="5.26995">
        <ele>240.1</ele>
        <time>2022-09-17T12:20:41.000Z</time>
      </trkpt>
      <trkpt lat="45.10815" lon="5.26992">
        <ele>240.3</ele>
        <time>2022-09-17T12:20:42.000Z</time>
      </trkpt>
      <trkpt lat="45.10815" lon="5.26989">
        <ele>240.5</ele>
        <time>2022-09-17T12:20:43.000Z</time>
      </trkpt>
      <trkpt lat="45.10814" lon="5.26986">
        <ele>240.6</ele>
        <time>2022-09-17T12:20:44.000Z</time>
      </trkpt>
      <trkpt lat="45.10813" lon="5.26984">
        <ele>240.7</ele>
        <time>2022-09-17T12:20:45.000Z</time>
      </trkpt>
      <trkpt lat="45.10812" lon="5.26981">
        <ele>240.8</ele>
        <time>2022-09-17T12:20:46.000Z</time>
      </trkpt>
      <trkpt lat="45.1081" lon="5.26978">
        <ele>240.9</ele>
        <time>2022-09-17T12:20:47.000Z</time>
      </trkpt>
      <trkpt lat="45.10809" lon="5.26975">
        <ele>241</ele>
        <time>2022-09-17T12:20:48.000Z</time>
      </trkpt>
      <trkpt lat="45.10807" lon="5.26972">
        <ele>241.1</ele>
        <time>2022-09-17T12:20:49.000Z</time>
      </trkpt>
      <trkpt lat="45.10805" lon="5.26969">
        <ele>241.4</ele>
        <time>2022-09-17T12:20:50.000Z</time>
      </trkpt>
      <trkpt lat="45.10802" lon="5.26966">
        <ele>241.6</ele>
        <time>2022-09-17T12:20:51.000Z</time>
      </trkpt>
      <trkpt lat="45.108" lon="5.26962">
        <ele>241.8</ele>
        <time>2022-09-17T12:20:52.000Z</time>
      </trkpt>
      <trkpt lat="45.10798" lon="5.2696">
        <ele>241.9</ele>
        <time>2022-09-17T12:20:53.000Z</time>
      </trkpt>
      <trkpt lat="45.10795" lon="5.26958">
        <ele>242</ele>
        <time>2022-09-17T12:20:54.000Z</time>
      </trkpt>
      <trkpt lat="45.10793" lon="5.26956">
        <ele>242.1</ele>
        <time>2022-09-17T12:20:55.000Z</time>
      </trkpt>
      <trkpt lat="45.10791" lon="5.26953">
        <ele>242.2</ele>
        <time>2022-09-17T12:20:56.000Z</time>
      </trkpt>
      <trkpt lat="45.10789" lon="5.26951">
        <ele>242.3</ele>
        <time>2022-09-17T12:20:57.000Z</time>
      </trkpt>
      <trkpt lat="45.10787" lon="5.26949">
        <ele>242.3</ele>
        <time>2022-09-17T12:20:58.000Z</time>
      </trkpt>
      <trkpt lat="45.10785" lon="5.26947">
        <ele>242.3</ele>
        <time>2022-09-17T12:20:59.000Z</time>
      </trkpt>
      <trkpt lat="45.10783" lon="5.26945">
        <ele>242.3</ele>
        <time>2022-09-17T12:21:00.000Z</time>
      </trkpt>
      <trkpt lat="45.10781" lon="5.26944">
        <ele>242.3</ele>
        <time>2022-09-17T12:21:01.000Z</time>
      </trkpt>
      <trkpt lat="45.10779" lon="5.26941">
        <ele>242.3</ele>
        <time>2022-09-17T12:21:03.000Z</time>
      </trkpt>
      <trkpt lat="45.10777" lon="5.26939">
        <ele>242.3</ele>
        <time>2022-09-17T12:21:04.000Z</time>
      </trkpt>
      <trkpt lat="45.10775" lon="5.26937">
        <ele>242.4</ele>
        <time>2022-09-17T12:21:05.000Z</time>
      </trkpt>
      <trkpt lat="45.10774" lon="5.26936">
        <ele>242.4</ele>
        <time>2022-09-17T12:21:06.000Z</time>
      </trkpt>
      <trkpt lat="45.10772" lon="5.26934">
        <ele>242.5</ele>
        <time>2022-09-17T12:21:07.000Z</time>
      </trkpt>
      <trkpt lat="45.1077" lon="5.26929">
        <ele>242.9</ele>
        <time>2022-09-17T12:21:09.000Z</time>
      </trkpt>
      <trkpt lat="45.1077" lon="5.26927">
        <ele>243.1</ele>
        <time>2022-09-17T12:21:10.000Z</time>
      </trkpt>
      <trkpt lat="45.1077" lon="5.26923">
        <ele>243.5</ele>
        <time>2022-09-17T12:21:12.000Z</time>
      </trkpt>
      <trkpt lat="45.10768" lon="5.2692">
        <ele>243.7</ele>
        <time>2022-09-17T12:21:13.000Z</time>
      </trkpt>
      <trkpt lat="45.10767" lon="5.26919">
        <ele>243.8</ele>
        <time>2022-09-17T12:21:14.000Z</time>
      </trkpt>
      <trkpt lat="45.10765" lon="5.26917">
        <ele>243.9</ele>
        <time>2022-09-17T12:21:15.000Z</time>
      </trkpt>
      <trkpt lat="45.10763" lon="5.26916">
        <ele>244</ele>
        <time>2022-09-17T12:21:16.000Z</time>
      </trkpt>
      <trkpt lat="45.10761" lon="5.26914">
        <ele>244.1</ele>
        <time>2022-09-17T12:21:18.000Z</time>
      </trkpt>
      <trkpt lat="45.1076" lon="5.26912">
        <ele>244.2</ele>
        <time>2022-09-17T12:21:20.000Z</time>
      </trkpt>
      <trkpt lat="45.10764" lon="5.26913">
        <ele>244.1</ele>
        <time>2022-09-17T12:21:26.000Z</time>
      </trkpt>
      <trkpt lat="45.10766" lon="5.26914">
        <ele>244.1</ele>
        <time>2022-09-17T12:21:27.000Z</time>
      </trkpt>
      <trkpt lat="45.10768" lon="5.26915">
        <ele>244</ele>
        <time>2022-09-17T12:21:28.000Z</time>
      </trkpt>
      <trkpt lat="45.1077" lon="5.26917">
        <ele>244</ele>
        <time>2022-09-17T12:21:29.000Z</time>
      </trkpt>
      <trkpt lat="45.10772" lon="5.26917">
        <ele>244</ele>
        <time>2022-09-17T12:21:30.000Z</time>
      </trkpt>
      <trkpt lat="45.10775" lon="5.26917">
        <ele>243.9</ele>
        <time>2022-09-17T12:21:31.000Z</time>
      </trkpt>
      <trkpt lat="45.10777" lon="5.26917">
        <ele>244</ele>
        <time>2022-09-17T12:21:32.000Z</time>
      </trkpt>
      <trkpt lat="45.10779" lon="5.26917">
        <ele>244</ele>
        <time>2022-09-17T12:21:33.000Z</time>
      </trkpt>
      <trkpt lat="45.10781" lon="5.26916">
        <ele>244.1</ele>
        <time>2022-09-17T12:21:34.000Z</time>
      </trkpt>
      <trkpt lat="45.10784" lon="5.26914">
        <ele>244.3</ele>
        <time>2022-09-17T12:21:36.000Z</time>
      </trkpt>
      <trkpt lat="45.10788" lon="5.269">
        <ele>245</ele>
        <time>2022-09-17T12:21:53.000Z</time>
      </trkpt>
      <trkpt lat="45.10788" lon="5.26896">
        <ele>245.1</ele>
        <time>2022-09-17T12:21:55.000Z</time>
      </trkpt>
      <trkpt lat="45.10788" lon="5.26893">
        <ele>245.2</ele>
        <time>2022-09-17T12:21:58.000Z</time>
      </trkpt>
      <trkpt lat="45.10788" lon="5.26889">
        <ele>245.4</ele>
        <time>2022-09-17T12:22:01.000Z</time>
      </trkpt>
      <trkpt lat="45.10789" lon="5.26881">
        <ele>245.9</ele>
        <time>2022-09-17T12:22:11.000Z</time>
      </trkpt>
      <trkpt lat="45.10787" lon="5.26878">
        <ele>246</ele>
        <time>2022-09-17T12:22:13.000Z</time>
      </trkpt>
      <trkpt lat="45.10784" lon="5.26878">
        <ele>245.9</ele>
        <time>2022-09-17T12:22:15.000Z</time>
      </trkpt>
      <trkpt lat="45.10781" lon="5.26878">
        <ele>245.9</ele>
        <time>2022-09-17T12:22:17.000Z</time>
      </trkpt>
      <trkpt lat="45.10778" lon="5.26877">
        <ele>245.9</ele>
        <time>2022-09-17T12:22:19.000Z</time>
      </trkpt>
      <trkpt lat="45.10776" lon="5.26874">
        <ele>246</ele>
        <time>2022-09-17T12:22:21.000Z</time>
      </trkpt>
      <trkpt lat="45.10773" lon="5.26872">
        <ele>246.1</ele>
        <time>2022-09-17T12:22:23.000Z</time>
      </trkpt>
      <trkpt lat="45.1077" lon="5.26871">
        <ele>246.1</ele>
        <time>2022-09-17T12:22:25.000Z</time>
      </trkpt>
      <trkpt lat="45.10768" lon="5.26869">
        <ele>246.2</ele>
        <time>2022-09-17T12:22:27.000Z</time>
      </trkpt>
      <trkpt lat="45.10766" lon="5.26866">
        <ele>246.3</ele>
        <time>2022-09-17T12:22:29.000Z</time>
      </trkpt>
      <trkpt lat="45.10765" lon="5.26862">
        <ele>246.5</ele>
        <time>2022-09-17T12:22:39.000Z</time>
      </trkpt>
      <trkpt lat="45.10764" lon="5.26858">
        <ele>246.6</ele>
        <time>2022-09-17T12:22:41.000Z</time>
      </trkpt>
      <trkpt lat="45.10765" lon="5.26855">
        <ele>246.8</ele>
        <time>2022-09-17T12:22:42.000Z</time>
      </trkpt>
      <trkpt lat="45.10766" lon="5.26853">
        <ele>246.9</ele>
        <time>2022-09-17T12:22:43.000Z</time>
      </trkpt>
      <trkpt lat="45.10767" lon="5.2685">
        <ele>247</ele>
        <time>2022-09-17T12:22:44.000Z</time>
      </trkpt>
      <trkpt lat="45.10767" lon="5.26847">
        <ele>247.1</ele>
        <time>2022-09-17T12:22:45.000Z</time>
      </trkpt>
      <trkpt lat="45.10768" lon="5.26844">
        <ele>247.2</ele>
        <time>2022-09-17T12:22:46.000Z</time>
      </trkpt>
      <trkpt lat="45.10768" lon="5.26842">
        <ele>247.3</ele>
        <time>2022-09-17T12:22:47.000Z</time>
      </trkpt>
      <trkpt lat="45.10768" lon="5.26839">
        <ele>247.4</ele>
        <time>2022-09-17T12:22:48.000Z</time>
      </trkpt>
      <trkpt lat="45.10768" lon="5.26836">
        <ele>247.5</ele>
        <time>2022-09-17T12:22:49.000Z</time>
      </trkpt>
      <trkpt lat="45.10768" lon="5.26833">
        <ele>247.6</ele>
        <time>2022-09-17T12:22:50.000Z</time>
      </trkpt>
      <trkpt lat="45.10768" lon="5.2683">
        <ele>247.5</ele>
        <time>2022-09-17T12:22:51.000Z</time>
      </trkpt>
      <trkpt lat="45.10767" lon="5.26827">
        <ele>247.5</ele>
        <time>2022-09-17T12:22:52.000Z</time>
      </trkpt>
      <trkpt lat="45.10767" lon="5.26824">
        <ele>247.4</ele>
        <time>2022-09-17T12:22:53.000Z</time>
      </trkpt>
      <trkpt lat="45.10766" lon="5.26821">
        <ele>247.3</ele>
        <time>2022-09-17T12:22:54.000Z</time>
      </trkpt>
      <trkpt lat="45.10765" lon="5.26818">
        <ele>247.2</ele>
        <time>2022-09-17T12:22:55.000Z</time>
      </trkpt>
      <trkpt lat="45.10765" lon="5.26815">
        <ele>247.2</ele>
        <time>2022-09-17T12:22:56.000Z</time>
      </trkpt>
      <trkpt lat="45.10763" lon="5.26812">
        <ele>247.1</ele>
        <time>2022-09-17T12:22:57.000Z</time>
      </trkpt>
      <trkpt lat="45.10763" lon="5.26809">
        <ele>247.1</ele>
        <time>2022-09-17T12:22:58.000Z</time>
      </trkpt>
      <trkpt lat="45.10762" lon="5.26806">
        <ele>247</ele>
        <time>2022-09-17T12:22:59.000Z</time>
      </trkpt>
      <trkpt lat="45.10761" lon="5.26803">
        <ele>247.1</ele>
        <time>2022-09-17T12:23:00.000Z</time>
      </trkpt>
      <trkpt lat="45.1076" lon="5.268">
        <ele>247.1</ele>
        <time>2022-09-17T12:23:01.000Z</time>
      </trkpt>
      <trkpt lat="45.10759" lon="5.26798">
        <ele>247.2</ele>
        <time>2022-09-17T12:23:02.000Z</time>
      </trkpt>
      <trkpt lat="45.10757" lon="5.26795">
        <ele>247.3</ele>
        <time>2022-09-17T12:23:03.000Z</time>
      </trkpt>
      <trkpt lat="45.10756" lon="5.26791">
        <ele>247.4</ele>
        <time>2022-09-17T12:23:04.000Z</time>
      </trkpt>
      <trkpt lat="45.10755" lon="5.26788">
        <ele>247.5</ele>
        <time>2022-09-17T12:23:05.000Z</time>
      </trkpt>
      <trkpt lat="45.10754" lon="5.26784">
        <ele>247.7</ele>
        <time>2022-09-17T12:23:06.000Z</time>
      </trkpt>
      <trkpt lat="45.10753" lon="5.2678">
        <ele>247.8</ele>
        <time>2022-09-17T12:23:07.000Z</time>
      </trkpt>
      <trkpt lat="45.10752" lon="5.26777">
        <ele>247.9</ele>
        <time>2022-09-17T12:23:08.000Z</time>
      </trkpt>
      <trkpt lat="45.1075" lon="5.26773">
        <ele>247.8</ele>
        <time>2022-09-17T12:23:09.000Z</time>
      </trkpt>
      <trkpt lat="45.10749" lon="5.26769">
        <ele>247.6</ele>
        <time>2022-09-17T12:23:10.000Z</time>
      </trkpt>
      <trkpt lat="45.10747" lon="5.26765">
        <ele>247.5</ele>
        <time>2022-09-17T12:23:11.000Z</time>
      </trkpt>
      <trkpt lat="45.10746" lon="5.2676">
        <ele>247.3</ele>
        <time>2022-09-17T12:23:12.000Z</time>
      </trkpt>
      <trkpt lat="45.10744" lon="5.26756">
        <ele>247.2</ele>
        <time>2022-09-17T12:23:13.000Z</time>
      </trkpt>
      <trkpt lat="45.10742" lon="5.26752">
        <ele>247</ele>
        <time>2022-09-17T12:23:14.000Z</time>
      </trkpt>
      <trkpt lat="45.10741" lon="5.26748">
        <ele>247</ele>
        <time>2022-09-17T12:23:15.000Z</time>
      </trkpt>
      <trkpt lat="45.10739" lon="5.26744">
        <ele>247.1</ele>
        <time>2022-09-17T12:23:16.000Z</time>
      </trkpt>
      <trkpt lat="45.10737" lon="5.26739">
        <ele>247.2</ele>
        <time>2022-09-17T12:23:17.000Z</time>
      </trkpt>
      <trkpt lat="45.10735" lon="5.26735">
        <ele>247.3</ele>
        <time>2022-09-17T12:23:18.000Z</time>
      </trkpt>
      <trkpt lat="45.10734" lon="5.26731">
        <ele>247.4</ele>
        <time>2022-09-17T12:23:19.000Z</time>
      </trkpt>
      <trkpt lat="45.10732" lon="5.26725">
        <ele>247.6</ele>
        <time>2022-09-17T12:23:20.000Z</time>
      </trkpt>
      <trkpt lat="45.1073" lon="5.2672">
        <ele>247.7</ele>
        <time>2022-09-17T12:23:21.000Z</time>
      </trkpt>
      <trkpt lat="45.10728" lon="5.26714">
        <ele>247.8</ele>
        <time>2022-09-17T12:23:22.000Z</time>
      </trkpt>
      <trkpt lat="45.10726" lon="5.26709">
        <ele>247.9</ele>
        <time>2022-09-17T12:23:23.000Z</time>
      </trkpt>
      <trkpt lat="45.10725" lon="5.26704">
        <ele>247.9</ele>
        <time>2022-09-17T12:23:24.000Z</time>
      </trkpt>
      <trkpt lat="45.10723" lon="5.26698">
        <ele>248</ele>
        <time>2022-09-17T12:23:25.000Z</time>
      </trkpt>
      <trkpt lat="45.10722" lon="5.26693">
        <ele>248</ele>
        <time>2022-09-17T12:23:26.000Z</time>
      </trkpt>
      <trkpt lat="45.1072" lon="5.26687">
        <ele>248</ele>
        <time>2022-09-17T12:23:27.000Z</time>
      </trkpt>
      <trkpt lat="45.10718" lon="5.26681">
        <ele>248</ele>
        <time>2022-09-17T12:23:28.000Z</time>
      </trkpt>
      <trkpt lat="45.10717" lon="5.26676">
        <ele>248</ele>
        <time>2022-09-17T12:23:29.000Z</time>
      </trkpt>
      <trkpt lat="45.10715" lon="5.26671">
        <ele>248</ele>
        <time>2022-09-17T12:23:30.000Z</time>
      </trkpt>
      <trkpt lat="45.10714" lon="5.26665">
        <ele>248</ele>
        <time>2022-09-17T12:23:31.000Z</time>
      </trkpt>
      <trkpt lat="45.10712" lon="5.2666">
        <ele>247.8</ele>
        <time>2022-09-17T12:23:32.000Z</time>
      </trkpt>
      <trkpt lat="45.10711" lon="5.26654">
        <ele>247.7</ele>
        <time>2022-09-17T12:23:33.000Z</time>
      </trkpt>
      <trkpt lat="45.10709" lon="5.26649">
        <ele>247.7</ele>
        <time>2022-09-17T12:23:34.000Z</time>
      </trkpt>
      <trkpt lat="45.10708" lon="5.26642">
        <ele>247.6</ele>
        <time>2022-09-17T12:23:35.000Z</time>
      </trkpt>
      <trkpt lat="45.10706" lon="5.26636">
        <ele>247.6</ele>
        <time>2022-09-17T12:23:36.000Z</time>
      </trkpt>
      <trkpt lat="45.10705" lon="5.2663">
        <ele>247.6</ele>
        <time>2022-09-17T12:23:37.000Z</time>
      </trkpt>
      <trkpt lat="45.10704" lon="5.26623">
        <ele>247.7</ele>
        <time>2022-09-17T12:23:38.000Z</time>
      </trkpt>
      <trkpt lat="45.10702" lon="5.26617">
        <ele>247.7</ele>
        <time>2022-09-17T12:23:39.000Z</time>
      </trkpt>
      <trkpt lat="45.10701" lon="5.26611">
        <ele>247.8</ele>
        <time>2022-09-17T12:23:40.000Z</time>
      </trkpt>
      <trkpt lat="45.107" lon="5.26605">
        <ele>247.8</ele>
        <time>2022-09-17T12:23:41.000Z</time>
      </trkpt>
      <trkpt lat="45.10699" lon="5.26599">
        <ele>247.8</ele>
        <time>2022-09-17T12:23:42.000Z</time>
      </trkpt>
      <trkpt lat="45.10698" lon="5.26593">
        <ele>247.9</ele>
        <time>2022-09-17T12:23:43.000Z</time>
      </trkpt>
      <trkpt lat="45.10697" lon="5.26587">
        <ele>247.9</ele>
        <time>2022-09-17T12:23:44.000Z</time>
      </trkpt>
      <trkpt lat="45.10696" lon="5.26581">
        <ele>248</ele>
        <time>2022-09-17T12:23:45.000Z</time>
      </trkpt>
      <trkpt lat="45.10695" lon="5.26576">
        <ele>248</ele>
        <time>2022-09-17T12:23:46.000Z</time>
      </trkpt>
      <trkpt lat="45.10693" lon="5.2657">
        <ele>248</ele>
        <time>2022-09-17T12:23:47.000Z</time>
      </trkpt>
      <trkpt lat="45.10692" lon="5.26564">
        <ele>247.9</ele>
        <time>2022-09-17T12:23:48.000Z</time>
      </trkpt>
      <trkpt lat="45.10691" lon="5.26558">
        <ele>247.9</ele>
        <time>2022-09-17T12:23:49.000Z</time>
      </trkpt>
      <trkpt lat="45.1069" lon="5.26552">
        <ele>247.7</ele>
        <time>2022-09-17T12:23:50.000Z</time>
      </trkpt>
      <trkpt lat="45.10689" lon="5.26546">
        <ele>247.5</ele>
        <time>2022-09-17T12:23:51.000Z</time>
      </trkpt>
      <trkpt lat="45.10688" lon="5.26539">
        <ele>247.3</ele>
        <time>2022-09-17T12:23:52.000Z</time>
      </trkpt>
      <trkpt lat="45.10687" lon="5.26533">
        <ele>247.1</ele>
        <time>2022-09-17T12:23:53.000Z</time>
      </trkpt>
      <trkpt lat="45.10685" lon="5.26526">
        <ele>247</ele>
        <time>2022-09-17T12:23:54.000Z</time>
      </trkpt>
      <trkpt lat="45.10684" lon="5.2652">
        <ele>247</ele>
        <time>2022-09-17T12:23:55.000Z</time>
      </trkpt>
      <trkpt lat="45.10683" lon="5.26513">
        <ele>247</ele>
        <time>2022-09-17T12:23:56.000Z</time>
      </trkpt>
      <trkpt lat="45.10682" lon="5.26506">
        <ele>247</ele>
        <time>2022-09-17T12:23:57.000Z</time>
      </trkpt>
      <trkpt lat="45.10681" lon="5.26499">
        <ele>247</ele>
        <time>2022-09-17T12:23:58.000Z</time>
      </trkpt>
      <trkpt lat="45.10679" lon="5.26492">
        <ele>247</ele>
        <time>2022-09-17T12:23:59.000Z</time>
      </trkpt>
      <trkpt lat="45.10678" lon="5.26486">
        <ele>247</ele>
        <time>2022-09-17T12:24:00.000Z</time>
      </trkpt>
      <trkpt lat="45.10676" lon="5.26479">
        <ele>247</ele>
        <time>2022-09-17T12:24:01.000Z</time>
      </trkpt>
      <trkpt lat="45.10675" lon="5.26473">
        <ele>247</ele>
        <time>2022-09-17T12:24:02.000Z</time>
      </trkpt>
      <trkpt lat="45.10674" lon="5.26466">
        <ele>247.2</ele>
        <time>2022-09-17T12:24:03.000Z</time>
      </trkpt>
      <trkpt lat="45.10673" lon="5.26459">
        <ele>247.4</ele>
        <time>2022-09-17T12:24:04.000Z</time>
      </trkpt>
      <trkpt lat="45.10671" lon="5.26452">
        <ele>247.6</ele>
        <time>2022-09-17T12:24:05.000Z</time>
      </trkpt>
      <trkpt lat="45.1067" lon="5.26445">
        <ele>247.9</ele>
        <time>2022-09-17T12:24:06.000Z</time>
      </trkpt>
      <trkpt lat="45.10669" lon="5.26437">
        <ele>247.7</ele>
        <time>2022-09-17T12:24:07.000Z</time>
      </trkpt>
      <trkpt lat="45.10667" lon="5.26431">
        <ele>247.5</ele>
        <time>2022-09-17T12:24:08.000Z</time>
      </trkpt>
      <trkpt lat="45.10666" lon="5.26424">
        <ele>247.2</ele>
        <time>2022-09-17T12:24:09.000Z</time>
      </trkpt>
      <trkpt lat="45.10665" lon="5.26416">
        <ele>246.9</ele>
        <time>2022-09-17T12:24:10.000Z</time>
      </trkpt>
      <trkpt lat="45.10663" lon="5.26409">
        <ele>246.9</ele>
        <time>2022-09-17T12:24:11.000Z</time>
      </trkpt>
      <trkpt lat="45.10662" lon="5.26401">
        <ele>246.8</ele>
        <time>2022-09-17T12:24:12.000Z</time>
      </trkpt>
      <trkpt lat="45.10661" lon="5.26394">
        <ele>246.8</ele>
        <time>2022-09-17T12:24:13.000Z</time>
      </trkpt>
      <trkpt lat="45.10659" lon="5.26387">
        <ele>246.7</ele>
        <time>2022-09-17T12:24:14.000Z</time>
      </trkpt>
      <trkpt lat="45.10658" lon="5.26379">
        <ele>246.7</ele>
        <time>2022-09-17T12:24:15.000Z</time>
      </trkpt>
      <trkpt lat="45.10656" lon="5.26371">
        <ele>246.6</ele>
        <time>2022-09-17T12:24:16.000Z</time>
      </trkpt>
      <trkpt lat="45.10655" lon="5.26364">
        <ele>246.6</ele>
        <time>2022-09-17T12:24:17.000Z</time>
      </trkpt>
      <trkpt lat="45.10653" lon="5.26356">
        <ele>246.5</ele>
        <time>2022-09-17T12:24:18.000Z</time>
      </trkpt>
      <trkpt lat="45.10652" lon="5.26349">
        <ele>246.5</ele>
        <time>2022-09-17T12:24:19.000Z</time>
      </trkpt>
      <trkpt lat="45.1065" lon="5.26341">
        <ele>246.4</ele>
        <time>2022-09-17T12:24:20.000Z</time>
      </trkpt>
      <trkpt lat="45.10649" lon="5.26335">
        <ele>246.4</ele>
        <time>2022-09-17T12:24:21.000Z</time>
      </trkpt>
      <trkpt lat="45.10648" lon="5.26328">
        <ele>246.4</ele>
        <time>2022-09-17T12:24:22.000Z</time>
      </trkpt>
      <trkpt lat="45.10646" lon="5.26321">
        <ele>246.6</ele>
        <time>2022-09-17T12:24:23.000Z</time>
      </trkpt>
      <trkpt lat="45.10645" lon="5.26315">
        <ele>246.7</ele>
        <time>2022-09-17T12:24:24.000Z</time>
      </trkpt>
      <trkpt lat="45.10644" lon="5.26308">
        <ele>246.9</ele>
        <time>2022-09-17T12:24:25.000Z</time>
      </trkpt>
      <trkpt lat="45.10642" lon="5.26302">
        <ele>247</ele>
        <time>2022-09-17T12:24:26.000Z</time>
      </trkpt>
      <trkpt lat="45.10641" lon="5.26296">
        <ele>247</ele>
        <time>2022-09-17T12:24:27.000Z</time>
      </trkpt>
      <trkpt lat="45.1064" lon="5.2629">
        <ele>247</ele>
        <time>2022-09-17T12:24:28.000Z</time>
      </trkpt>
      <trkpt lat="45.10639" lon="5.26285">
        <ele>247</ele>
        <time>2022-09-17T12:24:29.000Z</time>
      </trkpt>
      <trkpt lat="45.10637" lon="5.26279">
        <ele>246.9</ele>
        <time>2022-09-17T12:24:30.000Z</time>
      </trkpt>
      <trkpt lat="45.10636" lon="5.26273">
        <ele>246.8</ele>
        <time>2022-09-17T12:24:31.000Z</time>
      </trkpt>
      <trkpt lat="45.10635" lon="5.26267">
        <ele>246.7</ele>
        <time>2022-09-17T12:24:32.000Z</time>
      </trkpt>
      <trkpt lat="45.10633" lon="5.26261">
        <ele>246.6</ele>
        <time>2022-09-17T12:24:33.000Z</time>
      </trkpt>
      <trkpt lat="45.10632" lon="5.26255">
        <ele>246.5</ele>
        <time>2022-09-17T12:24:34.000Z</time>
      </trkpt>
      <trkpt lat="45.10631" lon="5.26248">
        <ele>246.4</ele>
        <time>2022-09-17T12:24:35.000Z</time>
      </trkpt>
      <trkpt lat="45.10629" lon="5.26241">
        <ele>246.4</ele>
        <time>2022-09-17T12:24:36.000Z</time>
      </trkpt>
      <trkpt lat="45.10627" lon="5.26234">
        <ele>246.4</ele>
        <time>2022-09-17T12:24:37.000Z</time>
      </trkpt>
      <trkpt lat="45.10626" lon="5.26228">
        <ele>246.4</ele>
        <time>2022-09-17T12:24:38.000Z</time>
      </trkpt>
      <trkpt lat="45.10625" lon="5.26222">
        <ele>246.5</ele>
        <time>2022-09-17T12:24:39.000Z</time>
      </trkpt>
      <trkpt lat="45.10624" lon="5.26215">
        <ele>246.5</ele>
        <time>2022-09-17T12:24:40.000Z</time>
      </trkpt>
      <trkpt lat="45.10622" lon="5.26209">
        <ele>246.4</ele>
        <time>2022-09-17T12:24:41.000Z</time>
      </trkpt>
      <trkpt lat="45.10621" lon="5.26203">
        <ele>246.3</ele>
        <time>2022-09-17T12:24:42.000Z</time>
      </trkpt>
      <trkpt lat="45.10619" lon="5.26196">
        <ele>246.3</ele>
        <time>2022-09-17T12:24:43.000Z</time>
      </trkpt>
      <trkpt lat="45.10617" lon="5.26189">
        <ele>246.4</ele>
        <time>2022-09-17T12:24:44.000Z</time>
      </trkpt>
      <trkpt lat="45.10615" lon="5.26183">
        <ele>246.5</ele>
        <time>2022-09-17T12:24:45.000Z</time>
      </trkpt>
      <trkpt lat="45.10613" lon="5.26176">
        <ele>246.7</ele>
        <time>2022-09-17T12:24:46.000Z</time>
      </trkpt>
      <trkpt lat="45.10611" lon="5.2617">
        <ele>246.9</ele>
        <time>2022-09-17T12:24:47.000Z</time>
      </trkpt>
      <trkpt lat="45.10609" lon="5.26163">
        <ele>246.7</ele>
        <time>2022-09-17T12:24:48.000Z</time>
      </trkpt>
      <trkpt lat="45.10607" lon="5.26157">
        <ele>246.4</ele>
        <time>2022-09-17T12:24:49.000Z</time>
      </trkpt>
      <trkpt lat="45.10605" lon="5.2615">
        <ele>246.1</ele>
        <time>2022-09-17T12:24:50.000Z</time>
      </trkpt>
      <trkpt lat="45.10604" lon="5.26144">
        <ele>245.9</ele>
        <time>2022-09-17T12:24:51.000Z</time>
      </trkpt>
      <trkpt lat="45.10602" lon="5.26138">
        <ele>245.7</ele>
        <time>2022-09-17T12:24:52.000Z</time>
      </trkpt>
      <trkpt lat="45.106" lon="5.26131">
        <ele>245.6</ele>
        <time>2022-09-17T12:24:53.000Z</time>
      </trkpt>
      <trkpt lat="45.10598" lon="5.26125">
        <ele>245.5</ele>
        <time>2022-09-17T12:24:54.000Z</time>
      </trkpt>
      <trkpt lat="45.10596" lon="5.2612">
        <ele>245.5</ele>
        <time>2022-09-17T12:24:55.000Z</time>
      </trkpt>
      <trkpt lat="45.10594" lon="5.26114">
        <ele>245.4</ele>
        <time>2022-09-17T12:24:56.000Z</time>
      </trkpt>
      <trkpt lat="45.10592" lon="5.26108">
        <ele>245.4</ele>
        <time>2022-09-17T12:24:57.000Z</time>
      </trkpt>
      <trkpt lat="45.1059" lon="5.26102">
        <ele>245.5</ele>
        <time>2022-09-17T12:24:58.000Z</time>
      </trkpt>
      <trkpt lat="45.10588" lon="5.26097">
        <ele>245.6</ele>
        <time>2022-09-17T12:24:59.000Z</time>
      </trkpt>
      <trkpt lat="45.10587" lon="5.26091">
        <ele>245.8</ele>
        <time>2022-09-17T12:25:00.000Z</time>
      </trkpt>
      <trkpt lat="45.10585" lon="5.26085">
        <ele>246</ele>
        <time>2022-09-17T12:25:01.000Z</time>
      </trkpt>
      <trkpt lat="45.10583" lon="5.26079">
        <ele>246</ele>
        <time>2022-09-17T12:25:02.000Z</time>
      </trkpt>
      <trkpt lat="45.10581" lon="5.26073">
        <ele>245.9</ele>
        <time>2022-09-17T12:25:03.000Z</time>
      </trkpt>
      <trkpt lat="45.10578" lon="5.26067">
        <ele>245.7</ele>
        <time>2022-09-17T12:25:04.000Z</time>
      </trkpt>
      <trkpt lat="45.10576" lon="5.26061">
        <ele>245.5</ele>
        <time>2022-09-17T12:25:05.000Z</time>
      </trkpt>
      <trkpt lat="45.10574" lon="5.26054">
        <ele>245.3</ele>
        <time>2022-09-17T12:25:06.000Z</time>
      </trkpt>
      <trkpt lat="45.10572" lon="5.26047">
        <ele>245.3</ele>
        <time>2022-09-17T12:25:07.000Z</time>
      </trkpt>
      <trkpt lat="45.1057" lon="5.2604">
        <ele>245.3</ele>
        <time>2022-09-17T12:25:08.000Z</time>
      </trkpt>
      <trkpt lat="45.10567" lon="5.26034">
        <ele>245.3</ele>
        <time>2022-09-17T12:25:09.000Z</time>
      </trkpt>
      <trkpt lat="45.10565" lon="5.26027">
        <ele>245.3</ele>
        <time>2022-09-17T12:25:10.000Z</time>
      </trkpt>
      <trkpt lat="45.10563" lon="5.26021">
        <ele>245.3</ele>
        <time>2022-09-17T12:25:11.000Z</time>
      </trkpt>
      <trkpt lat="45.10561" lon="5.26015">
        <ele>245.2</ele>
        <time>2022-09-17T12:25:12.000Z</time>
      </trkpt>
      <trkpt lat="45.10558" lon="5.26009">
        <ele>245.1</ele>
        <time>2022-09-17T12:25:13.000Z</time>
      </trkpt>
      <trkpt lat="45.10556" lon="5.26003">
        <ele>245</ele>
        <time>2022-09-17T12:25:14.000Z</time>
      </trkpt>
      <trkpt lat="45.10554" lon="5.25997">
        <ele>245</ele>
        <time>2022-09-17T12:25:15.000Z</time>
      </trkpt>
      <trkpt lat="45.10552" lon="5.25991">
        <ele>245.2</ele>
        <time>2022-09-17T12:25:16.000Z</time>
      </trkpt>
      <trkpt lat="45.1055" lon="5.25985">
        <ele>245.2</ele>
        <time>2022-09-17T12:25:17.000Z</time>
      </trkpt>
      <trkpt lat="45.10548" lon="5.25978">
        <ele>245.3</ele>
        <time>2022-09-17T12:25:18.000Z</time>
      </trkpt>
      <trkpt lat="45.10546" lon="5.25972">
        <ele>245.3</ele>
        <time>2022-09-17T12:25:19.000Z</time>
      </trkpt>
      <trkpt lat="45.10544" lon="5.25965">
        <ele>245</ele>
        <time>2022-09-17T12:25:20.000Z</time>
      </trkpt>
      <trkpt lat="45.10542" lon="5.25959">
        <ele>244.8</ele>
        <time>2022-09-17T12:25:21.000Z</time>
      </trkpt>
      <trkpt lat="45.1054" lon="5.25952">
        <ele>244.6</ele>
        <time>2022-09-17T12:25:22.000Z</time>
      </trkpt>
      <trkpt lat="45.10538" lon="5.25946">
        <ele>244.4</ele>
        <time>2022-09-17T12:25:23.000Z</time>
      </trkpt>
      <trkpt lat="45.10536" lon="5.25939">
        <ele>244.3</ele>
        <time>2022-09-17T12:25:24.000Z</time>
      </trkpt>
      <trkpt lat="45.10534" lon="5.25933">
        <ele>244.2</ele>
        <time>2022-09-17T12:25:25.000Z</time>
      </trkpt>
      <trkpt lat="45.10532" lon="5.25927">
        <ele>244.2</ele>
        <time>2022-09-17T12:25:26.000Z</time>
      </trkpt>
      <trkpt lat="45.1053" lon="5.2592">
        <ele>244.1</ele>
        <time>2022-09-17T12:25:27.000Z</time>
      </trkpt>
      <trkpt lat="45.10528" lon="5.25914">
        <ele>244.1</ele>
        <time>2022-09-17T12:25:28.000Z</time>
      </trkpt>
      <trkpt lat="45.10526" lon="5.25907">
        <ele>244.3</ele>
        <time>2022-09-17T12:25:29.000Z</time>
      </trkpt>
      <trkpt lat="45.10524" lon="5.25901">
        <ele>244.5</ele>
        <time>2022-09-17T12:25:30.000Z</time>
      </trkpt>
      <trkpt lat="45.10522" lon="5.25894">
        <ele>244.7</ele>
        <time>2022-09-17T12:25:31.000Z</time>
      </trkpt>
      <trkpt lat="45.1052" lon="5.25888">
        <ele>244.7</ele>
        <time>2022-09-17T12:25:32.000Z</time>
      </trkpt>
      <trkpt lat="45.10519" lon="5.25882">
        <ele>244.7</ele>
        <time>2022-09-17T12:25:33.000Z</time>
      </trkpt>
      <trkpt lat="45.10517" lon="5.25876">
        <ele>244.6</ele>
        <time>2022-09-17T12:25:34.000Z</time>
      </trkpt>
      <trkpt lat="45.10516" lon="5.2587">
        <ele>244.6</ele>
        <time>2022-09-17T12:25:35.000Z</time>
      </trkpt>
      <trkpt lat="45.10514" lon="5.25865">
        <ele>244.5</ele>
        <time>2022-09-17T12:25:36.000Z</time>
      </trkpt>
      <trkpt lat="45.10513" lon="5.25859">
        <ele>244.5</ele>
        <time>2022-09-17T12:25:37.000Z</time>
      </trkpt>
      <trkpt lat="45.10512" lon="5.25854">
        <ele>244.4</ele>
        <time>2022-09-17T12:25:38.000Z</time>
      </trkpt>
      <trkpt lat="45.1051" lon="5.25848">
        <ele>244.4</ele>
        <time>2022-09-17T12:25:39.000Z</time>
      </trkpt>
      <trkpt lat="45.10509" lon="5.25842">
        <ele>244.3</ele>
        <time>2022-09-17T12:25:40.000Z</time>
      </trkpt>
      <trkpt lat="45.10508" lon="5.25836">
        <ele>244.3</ele>
        <time>2022-09-17T12:25:41.000Z</time>
      </trkpt>
      <trkpt lat="45.10507" lon="5.2583">
        <ele>244.3</ele>
        <time>2022-09-17T12:25:42.000Z</time>
      </trkpt>
      <trkpt lat="45.10506" lon="5.25824">
        <ele>244.5</ele>
        <time>2022-09-17T12:25:43.000Z</time>
      </trkpt>
      <trkpt lat="45.10505" lon="5.25818">
        <ele>244.6</ele>
        <time>2022-09-17T12:25:44.000Z</time>
      </trkpt>
      <trkpt lat="45.10503" lon="5.25811">
        <ele>244.8</ele>
        <time>2022-09-17T12:25:45.000Z</time>
      </trkpt>
      <trkpt lat="45.10502" lon="5.25805">
        <ele>245</ele>
        <time>2022-09-17T12:25:46.000Z</time>
      </trkpt>
      <trkpt lat="45.105" lon="5.25798">
        <ele>245</ele>
        <time>2022-09-17T12:25:47.000Z</time>
      </trkpt>
      <trkpt lat="45.10499" lon="5.25791">
        <ele>245</ele>
        <time>2022-09-17T12:25:48.000Z</time>
      </trkpt>
      <trkpt lat="45.10497" lon="5.25785">
        <ele>244.9</ele>
        <time>2022-09-17T12:25:49.000Z</time>
      </trkpt>
      <trkpt lat="45.10496" lon="5.25778">
        <ele>244.8</ele>
        <time>2022-09-17T12:25:50.000Z</time>
      </trkpt>
      <trkpt lat="45.10495" lon="5.25771">
        <ele>244.6</ele>
        <time>2022-09-17T12:25:51.000Z</time>
      </trkpt>
      <trkpt lat="45.10493" lon="5.25763">
        <ele>244.4</ele>
        <time>2022-09-17T12:25:52.000Z</time>
      </trkpt>
      <trkpt lat="45.10492" lon="5.25756">
        <ele>244.2</ele>
        <time>2022-09-17T12:25:53.000Z</time>
      </trkpt>
      <trkpt lat="45.10491" lon="5.25748">
        <ele>244</ele>
        <time>2022-09-17T12:25:54.000Z</time>
      </trkpt>
      <trkpt lat="45.1049" lon="5.25741">
        <ele>244</ele>
        <time>2022-09-17T12:25:55.000Z</time>
      </trkpt>
      <trkpt lat="45.10488" lon="5.25733">
        <ele>244</ele>
        <time>2022-09-17T12:25:56.000Z</time>
      </trkpt>
      <trkpt lat="45.10487" lon="5.25726">
        <ele>244</ele>
        <time>2022-09-17T12:25:57.000Z</time>
      </trkpt>
      <trkpt lat="45.10486" lon="5.25718">
        <ele>244</ele>
        <time>2022-09-17T12:25:58.000Z</time>
      </trkpt>
      <trkpt lat="45.10485" lon="5.2571">
        <ele>244</ele>
        <time>2022-09-17T12:25:59.000Z</time>
      </trkpt>
      <trkpt lat="45.10485" lon="5.25702">
        <ele>244</ele>
        <time>2022-09-17T12:26:00.000Z</time>
      </trkpt>
      <trkpt lat="45.10484" lon="5.25694">
        <ele>244</ele>
        <time>2022-09-17T12:26:01.000Z</time>
      </trkpt>
      <trkpt lat="45.10483" lon="5.25687">
        <ele>244</ele>
        <time>2022-09-17T12:26:02.000Z</time>
      </trkpt>
      <trkpt lat="45.10483" lon="5.25679">
        <ele>244</ele>
        <time>2022-09-17T12:26:03.000Z</time>
      </trkpt>
      <trkpt lat="45.10482" lon="5.25672">
        <ele>244</ele>
        <time>2022-09-17T12:26:04.000Z</time>
      </trkpt>
      <trkpt lat="45.10482" lon="5.25664">
        <ele>244</ele>
        <time>2022-09-17T12:26:05.000Z</time>
      </trkpt>
      <trkpt lat="45.10482" lon="5.25657">
        <ele>244</ele>
        <time>2022-09-17T12:26:06.000Z</time>
      </trkpt>
      <trkpt lat="45.10481" lon="5.2565">
        <ele>244</ele>
        <time>2022-09-17T12:26:07.000Z</time>
      </trkpt>
      <trkpt lat="45.1048" lon="5.25643">
        <ele>244</ele>
        <time>2022-09-17T12:26:08.000Z</time>
      </trkpt>
      <trkpt lat="45.1048" lon="5.25635">
        <ele>244</ele>
        <time>2022-09-17T12:26:09.000Z</time>
      </trkpt>
      <trkpt lat="45.10479" lon="5.25628">
        <ele>244</ele>
        <time>2022-09-17T12:26:10.000Z</time>
      </trkpt>
      <trkpt lat="45.10478" lon="5.25621">
        <ele>244</ele>
        <time>2022-09-17T12:26:11.000Z</time>
      </trkpt>
      <trkpt lat="45.10478" lon="5.25615">
        <ele>244</ele>
        <time>2022-09-17T12:26:12.000Z</time>
      </trkpt>
      <trkpt lat="45.10477" lon="5.25608">
        <ele>244</ele>
        <time>2022-09-17T12:26:13.000Z</time>
      </trkpt>
      <trkpt lat="45.10476" lon="5.25602">
        <ele>244</ele>
        <time>2022-09-17T12:26:14.000Z</time>
      </trkpt>
      <trkpt lat="45.10476" lon="5.25595">
        <ele>244</ele>
        <time>2022-09-17T12:26:15.000Z</time>
      </trkpt>
      <trkpt lat="45.10475" lon="5.25589">
        <ele>244</ele>
        <time>2022-09-17T12:26:16.000Z</time>
      </trkpt>
      <trkpt lat="45.10474" lon="5.25582">
        <ele>244</ele>
        <time>2022-09-17T12:26:17.000Z</time>
      </trkpt>
      <trkpt lat="45.10473" lon="5.25575">
        <ele>244</ele>
        <time>2022-09-17T12:26:18.000Z</time>
      </trkpt>
      <trkpt lat="45.10473" lon="5.25568">
        <ele>244</ele>
        <time>2022-09-17T12:26:19.000Z</time>
      </trkpt>
      <trkpt lat="45.10472" lon="5.25561">
        <ele>244</ele>
        <time>2022-09-17T12:26:20.000Z</time>
      </trkpt>
      <trkpt lat="45.10471" lon="5.25553">
        <ele>244</ele>
        <time>2022-09-17T12:26:21.000Z</time>
      </trkpt>
      <trkpt lat="45.10469" lon="5.25546">
        <ele>243.9</ele>
        <time>2022-09-17T12:26:22.000Z</time>
      </trkpt>
      <trkpt lat="45.10467" lon="5.25539">
        <ele>243.8</ele>
        <time>2022-09-17T12:26:23.000Z</time>
      </trkpt>
      <trkpt lat="45.10466" lon="5.25531">
        <ele>243.8</ele>
        <time>2022-09-17T12:26:24.000Z</time>
      </trkpt>
      <trkpt lat="45.10464" lon="5.25524">
        <ele>243.7</ele>
        <time>2022-09-17T12:26:25.000Z</time>
      </trkpt>
      <trkpt lat="45.10463" lon="5.25517">
        <ele>243.6</ele>
        <time>2022-09-17T12:26:26.000Z</time>
      </trkpt>
      <trkpt lat="45.10461" lon="5.2551">
        <ele>243.6</ele>
        <time>2022-09-17T12:26:27.000Z</time>
      </trkpt>
      <trkpt lat="45.1046" lon="5.25503">
        <ele>243.6</ele>
        <time>2022-09-17T12:26:28.000Z</time>
      </trkpt>
      <trkpt lat="45.10459" lon="5.25496">
        <ele>243.5</ele>
        <time>2022-09-17T12:26:29.000Z</time>
      </trkpt>
      <trkpt lat="45.10458" lon="5.25489">
        <ele>243.5</ele>
        <time>2022-09-17T12:26:30.000Z</time>
      </trkpt>
      <trkpt lat="45.10457" lon="5.25482">
        <ele>243.5</ele>
        <time>2022-09-17T12:26:31.000Z</time>
      </trkpt>
      <trkpt lat="45.10456" lon="5.25476">
        <ele>243.4</ele>
        <time>2022-09-17T12:26:32.000Z</time>
      </trkpt>
      <trkpt lat="45.10455" lon="5.2547">
        <ele>243.3</ele>
        <time>2022-09-17T12:26:33.000Z</time>
      </trkpt>
      <trkpt lat="45.10453" lon="5.25464">
        <ele>243.2</ele>
        <time>2022-09-17T12:26:34.000Z</time>
      </trkpt>
      <trkpt lat="45.10452" lon="5.25457">
        <ele>243.1</ele>
        <time>2022-09-17T12:26:35.000Z</time>
      </trkpt>
      <trkpt lat="45.1045" lon="5.25451">
        <ele>243</ele>
        <time>2022-09-17T12:26:36.000Z</time>
      </trkpt>
      <trkpt lat="45.10448" lon="5.25444">
        <ele>243</ele>
        <time>2022-09-17T12:26:37.000Z</time>
      </trkpt>
      <trkpt lat="45.10447" lon="5.25437">
        <ele>243</ele>
        <time>2022-09-17T12:26:38.000Z</time>
      </trkpt>
      <trkpt lat="45.10446" lon="5.25431">
        <ele>243</ele>
        <time>2022-09-17T12:26:39.000Z</time>
      </trkpt>
      <trkpt lat="45.10445" lon="5.25424">
        <ele>243</ele>
        <time>2022-09-17T12:26:40.000Z</time>
      </trkpt>
      <trkpt lat="45.10444" lon="5.25417">
        <ele>243</ele>
        <time>2022-09-17T12:26:41.000Z</time>
      </trkpt>
      <trkpt lat="45.10443" lon="5.25409">
        <ele>243</ele>
        <time>2022-09-17T12:26:42.000Z</time>
      </trkpt>
      <trkpt lat="45.10441" lon="5.25402">
        <ele>243</ele>
        <time>2022-09-17T12:26:43.000Z</time>
      </trkpt>
      <trkpt lat="45.10439" lon="5.25396">
        <ele>243</ele>
        <time>2022-09-17T12:26:44.000Z</time>
      </trkpt>
      <trkpt lat="45.10437" lon="5.25389">
        <ele>243</ele>
        <time>2022-09-17T12:26:45.000Z</time>
      </trkpt>
      <trkpt lat="45.10436" lon="5.25382">
        <ele>243</ele>
        <time>2022-09-17T12:26:46.000Z</time>
      </trkpt>
      <trkpt lat="45.10434" lon="5.25376">
        <ele>243</ele>
        <time>2022-09-17T12:26:47.000Z</time>
      </trkpt>
      <trkpt lat="45.10432" lon="5.25369">
        <ele>243</ele>
        <time>2022-09-17T12:26:48.000Z</time>
      </trkpt>
      <trkpt lat="45.1043" lon="5.25362">
        <ele>243</ele>
        <time>2022-09-17T12:26:49.000Z</time>
      </trkpt>
      <trkpt lat="45.10428" lon="5.25356">
        <ele>243</ele>
        <time>2022-09-17T12:26:50.000Z</time>
      </trkpt>
      <trkpt lat="45.10426" lon="5.25349">
        <ele>243</ele>
        <time>2022-09-17T12:26:51.000Z</time>
      </trkpt>
      <trkpt lat="45.10424" lon="5.25343">
        <ele>243</ele>
        <time>2022-09-17T12:26:52.000Z</time>
      </trkpt>
      <trkpt lat="45.10422" lon="5.25337">
        <ele>243</ele>
        <time>2022-09-17T12:26:53.000Z</time>
      </trkpt>
      <trkpt lat="45.1042" lon="5.25331">
        <ele>243</ele>
        <time>2022-09-17T12:26:54.000Z</time>
      </trkpt>
      <trkpt lat="45.10418" lon="5.25325">
        <ele>243</ele>
        <time>2022-09-17T12:26:55.000Z</time>
      </trkpt>
      <trkpt lat="45.10416" lon="5.25319">
        <ele>243</ele>
        <time>2022-09-17T12:26:56.000Z</time>
      </trkpt>
      <trkpt lat="45.10414" lon="5.25314">
        <ele>242.9</ele>
        <time>2022-09-17T12:26:57.000Z</time>
      </trkpt>
      <trkpt lat="45.10411" lon="5.25308">
        <ele>242.8</ele>
        <time>2022-09-17T12:26:58.000Z</time>
      </trkpt>
      <trkpt lat="45.10409" lon="5.25302">
        <ele>242.7</ele>
        <time>2022-09-17T12:26:59.000Z</time>
      </trkpt>
      <trkpt lat="45.10406" lon="5.25296">
        <ele>242.7</ele>
        <time>2022-09-17T12:27:00.000Z</time>
      </trkpt>
      <trkpt lat="45.10403" lon="5.25291">
        <ele>242.8</ele>
        <time>2022-09-17T12:27:01.000Z</time>
      </trkpt>
      <trkpt lat="45.104" lon="5.25285">
        <ele>242.8</ele>
        <time>2022-09-17T12:27:02.000Z</time>
      </trkpt>
      <trkpt lat="45.10396" lon="5.2528">
        <ele>242.9</ele>
        <time>2022-09-17T12:27:03.000Z</time>
      </trkpt>
      <trkpt lat="45.10393" lon="5.25274">
        <ele>243</ele>
        <time>2022-09-17T12:27:04.000Z</time>
      </trkpt>
      <trkpt lat="45.1039" lon="5.25269">
        <ele>243</ele>
        <time>2022-09-17T12:27:05.000Z</time>
      </trkpt>
      <trkpt lat="45.10387" lon="5.25263">
        <ele>242.9</ele>
        <time>2022-09-17T12:27:06.000Z</time>
      </trkpt>
      <trkpt lat="45.10384" lon="5.25258">
        <ele>242.8</ele>
        <time>2022-09-17T12:27:07.000Z</time>
      </trkpt>
      <trkpt lat="45.10381" lon="5.25252">
        <ele>242.7</ele>
        <time>2022-09-17T12:27:08.000Z</time>
      </trkpt>
      <trkpt lat="45.10377" lon="5.25247">
        <ele>242.6</ele>
        <time>2022-09-17T12:27:09.000Z</time>
      </trkpt>
      <trkpt lat="45.10374" lon="5.25242">
        <ele>242.5</ele>
        <time>2022-09-17T12:27:10.000Z</time>
      </trkpt>
      <trkpt lat="45.10371" lon="5.25237">
        <ele>242.4</ele>
        <time>2022-09-17T12:27:11.000Z</time>
      </trkpt>
      <trkpt lat="45.10368" lon="5.25232">
        <ele>242.2</ele>
        <time>2022-09-17T12:27:12.000Z</time>
      </trkpt>
      <trkpt lat="45.10366" lon="5.25227">
        <ele>242.2</ele>
        <time>2022-09-17T12:27:13.000Z</time>
      </trkpt>
      <trkpt lat="45.10363" lon="5.25222">
        <ele>242.1</ele>
        <time>2022-09-17T12:27:14.000Z</time>
      </trkpt>
      <trkpt lat="45.1036" lon="5.25216">
        <ele>242</ele>
        <time>2022-09-17T12:27:15.000Z</time>
      </trkpt>
      <trkpt lat="45.10357" lon="5.25211">
        <ele>242</ele>
        <time>2022-09-17T12:27:16.000Z</time>
      </trkpt>
      <trkpt lat="45.10354" lon="5.25206">
        <ele>242</ele>
        <time>2022-09-17T12:27:17.000Z</time>
      </trkpt>
      <trkpt lat="45.10351" lon="5.25201">
        <ele>242</ele>
        <time>2022-09-17T12:27:18.000Z</time>
      </trkpt>
      <trkpt lat="45.10348" lon="5.25195">
        <ele>242</ele>
        <time>2022-09-17T12:27:19.000Z</time>
      </trkpt>
      <trkpt lat="45.10345" lon="5.2519">
        <ele>242.1</ele>
        <time>2022-09-17T12:27:20.000Z</time>
      </trkpt>
      <trkpt lat="45.10342" lon="5.25185">
        <ele>242.1</ele>
        <time>2022-09-17T12:27:21.000Z</time>
      </trkpt>
      <trkpt lat="45.10338" lon="5.25179">
        <ele>242.1</ele>
        <time>2022-09-17T12:27:22.000Z</time>
      </trkpt>
      <trkpt lat="45.10335" lon="5.25174">
        <ele>242</ele>
        <time>2022-09-17T12:27:23.000Z</time>
      </trkpt>
      <trkpt lat="45.10331" lon="5.25168">
        <ele>242</ele>
        <time>2022-09-17T12:27:24.000Z</time>
      </trkpt>
      <trkpt lat="45.10329" lon="5.25163">
        <ele>242.1</ele>
        <time>2022-09-17T12:27:25.000Z</time>
      </trkpt>
      <trkpt lat="45.10326" lon="5.25157">
        <ele>242.2</ele>
        <time>2022-09-17T12:27:26.000Z</time>
      </trkpt>
      <trkpt lat="45.10323" lon="5.25152">
        <ele>242.3</ele>
        <time>2022-09-17T12:27:27.000Z</time>
      </trkpt>
      <trkpt lat="45.1032" lon="5.25147">
        <ele>242.4</ele>
        <time>2022-09-17T12:27:28.000Z</time>
      </trkpt>
      <trkpt lat="45.10318" lon="5.25142">
        <ele>242.4</ele>
        <time>2022-09-17T12:27:29.000Z</time>
      </trkpt>
      <trkpt lat="45.10315" lon="5.25137">
        <ele>242.4</ele>
        <time>2022-09-17T12:27:30.000Z</time>
      </trkpt>
      <trkpt lat="45.10313" lon="5.25131">
        <ele>242.5</ele>
        <time>2022-09-17T12:27:31.000Z</time>
      </trkpt>
      <trkpt lat="45.10312" lon="5.25126">
        <ele>242.6</ele>
        <time>2022-09-17T12:27:32.000Z</time>
      </trkpt>
      <trkpt lat="45.1031" lon="5.25121">
        <ele>242.7</ele>
        <time>2022-09-17T12:27:33.000Z</time>
      </trkpt>
      <trkpt lat="45.10308" lon="5.25116">
        <ele>242.8</ele>
        <time>2022-09-17T12:27:34.000Z</time>
      </trkpt>
      <trkpt lat="45.10307" lon="5.25112">
        <ele>243</ele>
        <time>2022-09-17T12:27:35.000Z</time>
      </trkpt>
      <trkpt lat="45.10307" lon="5.25108">
        <ele>243</ele>
        <time>2022-09-17T12:27:36.000Z</time>
      </trkpt>
      <trkpt lat="45.10306" lon="5.25105">
        <ele>243</ele>
        <time>2022-09-17T12:27:37.000Z</time>
      </trkpt>
      <trkpt lat="45.10304" lon="5.25101">
        <ele>242.9</ele>
        <time>2022-09-17T12:27:39.000Z</time>
      </trkpt>
      <trkpt lat="45.10302" lon="5.25097">
        <ele>242.9</ele>
        <time>2022-09-17T12:27:41.000Z</time>
      </trkpt>
      <trkpt lat="45.103" lon="5.25094">
        <ele>242.8</ele>
        <time>2022-09-17T12:27:42.000Z</time>
      </trkpt>
      <trkpt lat="45.10299" lon="5.25091">
        <ele>242.8</ele>
        <time>2022-09-17T12:27:43.000Z</time>
      </trkpt>
      <trkpt lat="45.10298" lon="5.25088">
        <ele>242.7</ele>
        <time>2022-09-17T12:27:44.000Z</time>
      </trkpt>
      <trkpt lat="45.10296" lon="5.25085">
        <ele>242.7</ele>
        <time>2022-09-17T12:27:45.000Z</time>
      </trkpt>
      <trkpt lat="45.10294" lon="5.25082">
        <ele>242.6</ele>
        <time>2022-09-17T12:27:46.000Z</time>
      </trkpt>
      <trkpt lat="45.10292" lon="5.25078">
        <ele>242.6</ele>
        <time>2022-09-17T12:27:47.000Z</time>
      </trkpt>
      <trkpt lat="45.1029" lon="5.25075">
        <ele>242.6</ele>
        <time>2022-09-17T12:27:48.000Z</time>
      </trkpt>
      <trkpt lat="45.10287" lon="5.25071">
        <ele>242.6</ele>
        <time>2022-09-17T12:27:49.000Z</time>
      </trkpt>
      <trkpt lat="45.10284" lon="5.25068">
        <ele>242.7</ele>
        <time>2022-09-17T12:27:50.000Z</time>
      </trkpt>
      <trkpt lat="45.10282" lon="5.25066">
        <ele>242.7</ele>
        <time>2022-09-17T12:27:51.000Z</time>
      </trkpt>
      <trkpt lat="45.10279" lon="5.25062">
        <ele>242.8</ele>
        <time>2022-09-17T12:27:52.000Z</time>
      </trkpt>
      <trkpt lat="45.10276" lon="5.25059">
        <ele>242.8</ele>
        <time>2022-09-17T12:27:53.000Z</time>
      </trkpt>
      <trkpt lat="45.10273" lon="5.25055">
        <ele>242.6</ele>
        <time>2022-09-17T12:27:54.000Z</time>
      </trkpt>
      <trkpt lat="45.1027" lon="5.25051">
        <ele>242.5</ele>
        <time>2022-09-17T12:27:55.000Z</time>
      </trkpt>
      <trkpt lat="45.10267" lon="5.25047">
        <ele>242.3</ele>
        <time>2022-09-17T12:27:56.000Z</time>
      </trkpt>
      <trkpt lat="45.10264" lon="5.25043">
        <ele>242.2</ele>
        <time>2022-09-17T12:27:57.000Z</time>
      </trkpt>
      <trkpt lat="45.10263" lon="5.2504">
        <ele>242.2</ele>
        <time>2022-09-17T12:27:58.000Z</time>
      </trkpt>
      <trkpt lat="45.10262" lon="5.25037">
        <ele>242.2</ele>
        <time>2022-09-17T12:28:00.000Z</time>
      </trkpt>
      <trkpt lat="45.1026" lon="5.25033">
        <ele>242.2</ele>
        <time>2022-09-17T12:28:29.000Z</time>
      </trkpt>
      <trkpt lat="45.10259" lon="5.2503">
        <ele>242.3</ele>
        <time>2022-09-17T12:28:31.000Z</time>
      </trkpt>
      <trkpt lat="45.10257" lon="5.25027">
        <ele>242.3</ele>
        <time>2022-09-17T12:28:33.000Z</time>
      </trkpt>
      <trkpt lat="45.10256" lon="5.25024">
        <ele>242.3</ele>
        <time>2022-09-17T12:28:34.000Z</time>
      </trkpt>
      <trkpt lat="45.10256" lon="5.2502">
        <ele>242.4</ele>
        <time>2022-09-17T12:28:35.000Z</time>
      </trkpt>
      <trkpt lat="45.10255" lon="5.25015">
        <ele>242.6</ele>
        <time>2022-09-17T12:28:36.000Z</time>
      </trkpt>
      <trkpt lat="45.10253" lon="5.2501">
        <ele>242.7</ele>
        <time>2022-09-17T12:28:37.000Z</time>
      </trkpt>
      <trkpt lat="45.1025" lon="5.25004">
        <ele>242.8</ele>
        <time>2022-09-17T12:28:38.000Z</time>
      </trkpt>
      <trkpt lat="45.10246" lon="5.24999">
        <ele>242.7</ele>
        <time>2022-09-17T12:28:39.000Z</time>
      </trkpt>
      <trkpt lat="45.10243" lon="5.24994">
        <ele>242.4</ele>
        <time>2022-09-17T12:28:40.000Z</time>
      </trkpt>
      <trkpt lat="45.10239" lon="5.24988">
        <ele>242.3</ele>
        <time>2022-09-17T12:28:41.000Z</time>
      </trkpt>
      <trkpt lat="45.10236" lon="5.24983">
        <ele>242.3</ele>
        <time>2022-09-17T12:28:42.000Z</time>
      </trkpt>
      <trkpt lat="45.10232" lon="5.24977">
        <ele>242.5</ele>
        <time>2022-09-17T12:28:43.000Z</time>
      </trkpt>
      <trkpt lat="45.10229" lon="5.24972">
        <ele>242.8</ele>
        <time>2022-09-17T12:28:44.000Z</time>
      </trkpt>
      <trkpt lat="45.10225" lon="5.24967">
        <ele>242.7</ele>
        <time>2022-09-17T12:28:45.000Z</time>
      </trkpt>
      <trkpt lat="45.10222" lon="5.24961">
        <ele>242.6</ele>
        <time>2022-09-17T12:28:46.000Z</time>
      </trkpt>
      <trkpt lat="45.10218" lon="5.24955">
        <ele>242.3</ele>
        <time>2022-09-17T12:28:47.000Z</time>
      </trkpt>
      <trkpt lat="45.10214" lon="5.2495">
        <ele>242.1</ele>
        <time>2022-09-17T12:28:48.000Z</time>
      </trkpt>
      <trkpt lat="45.1021" lon="5.24944">
        <ele>242</ele>
        <time>2022-09-17T12:28:49.000Z</time>
      </trkpt>
      <trkpt lat="45.10207" lon="5.24938">
        <ele>242.1</ele>
        <time>2022-09-17T12:28:50.000Z</time>
      </trkpt>
      <trkpt lat="45.10203" lon="5.24932">
        <ele>242.1</ele>
        <time>2022-09-17T12:28:51.000Z</time>
      </trkpt>
      <trkpt lat="45.10199" lon="5.24926">
        <ele>242.1</ele>
        <time>2022-09-17T12:28:52.000Z</time>
      </trkpt>
      <trkpt lat="45.10195" lon="5.24921">
        <ele>242</ele>
        <time>2022-09-17T12:28:53.000Z</time>
      </trkpt>
      <trkpt lat="45.10192" lon="5.24915">
        <ele>241.9</ele>
        <time>2022-09-17T12:28:54.000Z</time>
      </trkpt>
      <trkpt lat="45.10188" lon="5.24909">
        <ele>241.8</ele>
        <time>2022-09-17T12:28:55.000Z</time>
      </trkpt>
      <trkpt lat="45.10185" lon="5.24903">
        <ele>241.8</ele>
        <time>2022-09-17T12:28:56.000Z</time>
      </trkpt>
      <trkpt lat="45.10181" lon="5.24897">
        <ele>241.9</ele>
        <time>2022-09-17T12:28:57.000Z</time>
      </trkpt>
      <trkpt lat="45.10177" lon="5.24891">
        <ele>242</ele>
        <time>2022-09-17T12:28:58.000Z</time>
      </trkpt>
      <trkpt lat="45.10174" lon="5.24885">
        <ele>242</ele>
        <time>2022-09-17T12:28:59.000Z</time>
      </trkpt>
      <trkpt lat="45.1017" lon="5.24879">
        <ele>242</ele>
        <time>2022-09-17T12:29:00.000Z</time>
      </trkpt>
      <trkpt lat="45.10166" lon="5.24873">
        <ele>242</ele>
        <time>2022-09-17T12:29:01.000Z</time>
      </trkpt>
      <trkpt lat="45.10163" lon="5.24867">
        <ele>241.8</ele>
        <time>2022-09-17T12:29:02.000Z</time>
      </trkpt>
      <trkpt lat="45.10159" lon="5.24861">
        <ele>241.7</ele>
        <time>2022-09-17T12:29:03.000Z</time>
      </trkpt>
      <trkpt lat="45.10155" lon="5.24855">
        <ele>241.7</ele>
        <time>2022-09-17T12:29:04.000Z</time>
      </trkpt>
      <trkpt lat="45.10151" lon="5.24849">
        <ele>241.7</ele>
        <time>2022-09-17T12:29:05.000Z</time>
      </trkpt>
      <trkpt lat="45.10147" lon="5.24844">
        <ele>241.7</ele>
        <time>2022-09-17T12:29:06.000Z</time>
      </trkpt>
      <trkpt lat="45.10144" lon="5.24838">
        <ele>241.9</ele>
        <time>2022-09-17T12:29:07.000Z</time>
      </trkpt>
      <trkpt lat="45.1014" lon="5.24832">
        <ele>242</ele>
        <time>2022-09-17T12:29:08.000Z</time>
      </trkpt>
      <trkpt lat="45.10136" lon="5.24826">
        <ele>241.8</ele>
        <time>2022-09-17T12:29:09.000Z</time>
      </trkpt>
      <trkpt lat="45.10133" lon="5.24821">
        <ele>241.7</ele>
        <time>2022-09-17T12:29:10.000Z</time>
      </trkpt>
      <trkpt lat="45.10129" lon="5.24815">
        <ele>241.5</ele>
        <time>2022-09-17T12:29:11.000Z</time>
      </trkpt>
      <trkpt lat="45.10125" lon="5.24809">
        <ele>241.4</ele>
        <time>2022-09-17T12:29:12.000Z</time>
      </trkpt>
      <trkpt lat="45.10122" lon="5.24803">
        <ele>241.3</ele>
        <time>2022-09-17T12:29:13.000Z</time>
      </trkpt>
      <trkpt lat="45.10118" lon="5.24796">
        <ele>241.2</ele>
        <time>2022-09-17T12:29:14.000Z</time>
      </trkpt>
      <trkpt lat="45.10115" lon="5.24789">
        <ele>241.1</ele>
        <time>2022-09-17T12:29:15.000Z</time>
      </trkpt>
      <trkpt lat="45.10112" lon="5.24783">
        <ele>241</ele>
        <time>2022-09-17T12:29:16.000Z</time>
      </trkpt>
      <trkpt lat="45.10109" lon="5.24777">
        <ele>240.9</ele>
        <time>2022-09-17T12:29:17.000Z</time>
      </trkpt>
      <trkpt lat="45.10105" lon="5.24772">
        <ele>240.8</ele>
        <time>2022-09-17T12:29:18.000Z</time>
      </trkpt>
      <trkpt lat="45.10103" lon="5.24768">
        <ele>240.8</ele>
        <time>2022-09-17T12:29:19.000Z</time>
      </trkpt>
      <trkpt lat="45.101" lon="5.24764">
        <ele>240.8</ele>
        <time>2022-09-17T12:29:20.000Z</time>
      </trkpt>
      <trkpt lat="45.10098" lon="5.24759">
        <ele>240.8</ele>
        <time>2022-09-17T12:29:21.000Z</time>
      </trkpt>
      <trkpt lat="45.10096" lon="5.24755">
        <ele>240.9</ele>
        <time>2022-09-17T12:29:22.000Z</time>
      </trkpt>
      <trkpt lat="45.10094" lon="5.2475">
        <ele>241</ele>
        <time>2022-09-17T12:29:23.000Z</time>
      </trkpt>
      <trkpt lat="45.10092" lon="5.24746">
        <ele>240.9</ele>
        <time>2022-09-17T12:29:24.000Z</time>
      </trkpt>
      <trkpt lat="45.10089" lon="5.24741">
        <ele>240.8</ele>
        <time>2022-09-17T12:29:25.000Z</time>
      </trkpt>
      <trkpt lat="45.10087" lon="5.24737">
        <ele>240.6</ele>
        <time>2022-09-17T12:29:26.000Z</time>
      </trkpt>
      <trkpt lat="45.10084" lon="5.24731">
        <ele>240.3</ele>
        <time>2022-09-17T12:29:27.000Z</time>
      </trkpt>
      <trkpt lat="45.10082" lon="5.24725">
        <ele>240.1</ele>
        <time>2022-09-17T12:29:28.000Z</time>
      </trkpt>
      <trkpt lat="45.10079" lon="5.24719">
        <ele>240</ele>
        <time>2022-09-17T12:29:29.000Z</time>
      </trkpt>
      <trkpt lat="45.10077" lon="5.24713">
        <ele>240</ele>
        <time>2022-09-17T12:29:30.000Z</time>
      </trkpt>
      <trkpt lat="45.10074" lon="5.24706">
        <ele>240</ele>
        <time>2022-09-17T12:29:31.000Z</time>
      </trkpt>
      <trkpt lat="45.10072" lon="5.247">
        <ele>240</ele>
        <time>2022-09-17T12:29:32.000Z</time>
      </trkpt>
      <trkpt lat="45.1007" lon="5.24693">
        <ele>240</ele>
        <time>2022-09-17T12:29:33.000Z</time>
      </trkpt>
      <trkpt lat="45.10068" lon="5.24686">
        <ele>240</ele>
        <time>2022-09-17T12:29:34.000Z</time>
      </trkpt>
      <trkpt lat="45.10065" lon="5.24679">
        <ele>240</ele>
        <time>2022-09-17T12:29:35.000Z</time>
      </trkpt>
      <trkpt lat="45.10063" lon="5.24672">
        <ele>240</ele>
        <time>2022-09-17T12:29:36.000Z</time>
      </trkpt>
      <trkpt lat="45.10061" lon="5.24665">
        <ele>240</ele>
        <time>2022-09-17T12:29:37.000Z</time>
      </trkpt>
      <trkpt lat="45.10058" lon="5.24658">
        <ele>240</ele>
        <time>2022-09-17T12:29:38.000Z</time>
      </trkpt>
      <trkpt lat="45.10054" lon="5.24652">
        <ele>240</ele>
        <time>2022-09-17T12:29:39.000Z</time>
      </trkpt>
      <trkpt lat="45.10052" lon="5.24645">
        <ele>239.9</ele>
        <time>2022-09-17T12:29:40.000Z</time>
      </trkpt>
      <trkpt lat="45.1005" lon="5.24637">
        <ele>239.8</ele>
        <time>2022-09-17T12:29:41.000Z</time>
      </trkpt>
      <trkpt lat="45.10047" lon="5.2463">
        <ele>239.7</ele>
        <time>2022-09-17T12:29:42.000Z</time>
      </trkpt>
      <trkpt lat="45.10045" lon="5.24623">
        <ele>239.6</ele>
        <time>2022-09-17T12:29:43.000Z</time>
      </trkpt>
      <trkpt lat="45.10043" lon="5.24617">
        <ele>239.5</ele>
        <time>2022-09-17T12:29:44.000Z</time>
      </trkpt>
      <trkpt lat="45.1004" lon="5.2461">
        <ele>239.4</ele>
        <time>2022-09-17T12:29:45.000Z</time>
      </trkpt>
      <trkpt lat="45.10038" lon="5.24603">
        <ele>239.3</ele>
        <time>2022-09-17T12:29:46.000Z</time>
      </trkpt>
      <trkpt lat="45.10035" lon="5.24596">
        <ele>239.1</ele>
        <time>2022-09-17T12:29:47.000Z</time>
      </trkpt>
      <trkpt lat="45.10033" lon="5.2459">
        <ele>239</ele>
        <time>2022-09-17T12:29:48.000Z</time>
      </trkpt>
      <trkpt lat="45.10031" lon="5.24584">
        <ele>239</ele>
        <time>2022-09-17T12:29:49.000Z</time>
      </trkpt>
      <trkpt lat="45.10028" lon="5.24578">
        <ele>239</ele>
        <time>2022-09-17T12:29:50.000Z</time>
      </trkpt>
      <trkpt lat="45.10026" lon="5.24571">
        <ele>239</ele>
        <time>2022-09-17T12:29:51.000Z</time>
      </trkpt>
      <trkpt lat="45.10024" lon="5.24565">
        <ele>239</ele>
        <time>2022-09-17T12:29:52.000Z</time>
      </trkpt>
      <trkpt lat="45.10022" lon="5.24559">
        <ele>239</ele>
        <time>2022-09-17T12:29:53.000Z</time>
      </trkpt>
      <trkpt lat="45.1002" lon="5.24553">
        <ele>239</ele>
        <time>2022-09-17T12:29:54.000Z</time>
      </trkpt>
      <trkpt lat="45.10017" lon="5.24547">
        <ele>239</ele>
        <time>2022-09-17T12:29:55.000Z</time>
      </trkpt>
      <trkpt lat="45.10014" lon="5.2454">
        <ele>239</ele>
        <time>2022-09-17T12:29:56.000Z</time>
      </trkpt>
      <trkpt lat="45.10012" lon="5.24534">
        <ele>239</ele>
        <time>2022-09-17T12:29:57.000Z</time>
      </trkpt>
      <trkpt lat="45.10008" lon="5.24528">
        <ele>239</ele>
        <time>2022-09-17T12:29:58.000Z</time>
      </trkpt>
      <trkpt lat="45.10006" lon="5.24521">
        <ele>239</ele>
        <time>2022-09-17T12:29:59.000Z</time>
      </trkpt>
      <trkpt lat="45.10003" lon="5.24515">
        <ele>239</ele>
        <time>2022-09-17T12:30:00.000Z</time>
      </trkpt>
      <trkpt lat="45.10001" lon="5.24508">
        <ele>239</ele>
        <time>2022-09-17T12:30:01.000Z</time>
      </trkpt>
      <trkpt lat="45.09998" lon="5.24501">
        <ele>238.9</ele>
        <time>2022-09-17T12:30:02.000Z</time>
      </trkpt>
      <trkpt lat="45.09996" lon="5.24494">
        <ele>238.8</ele>
        <time>2022-09-17T12:30:03.000Z</time>
      </trkpt>
      <trkpt lat="45.09993" lon="5.24488">
        <ele>238.8</ele>
        <time>2022-09-17T12:30:04.000Z</time>
      </trkpt>
      <trkpt lat="45.09991" lon="5.24481">
        <ele>238.7</ele>
        <time>2022-09-17T12:30:05.000Z</time>
      </trkpt>
      <trkpt lat="45.09988" lon="5.24475">
        <ele>238.6</ele>
        <time>2022-09-17T12:30:06.000Z</time>
      </trkpt>
      <trkpt lat="45.09986" lon="5.24469">
        <ele>238.5</ele>
        <time>2022-09-17T12:30:07.000Z</time>
      </trkpt>
      <trkpt lat="45.09983" lon="5.24462">
        <ele>238.6</ele>
        <time>2022-09-17T12:30:08.000Z</time>
      </trkpt>
      <trkpt lat="45.0998" lon="5.24455">
        <ele>238.7</ele>
        <time>2022-09-17T12:30:09.000Z</time>
      </trkpt>
      <trkpt lat="45.09977" lon="5.24448">
        <ele>238.9</ele>
        <time>2022-09-17T12:30:10.000Z</time>
      </trkpt>
      <trkpt lat="45.09974" lon="5.24441">
        <ele>239</ele>
        <time>2022-09-17T12:30:11.000Z</time>
      </trkpt>
      <trkpt lat="45.09971" lon="5.24434">
        <ele>238.9</ele>
        <time>2022-09-17T12:30:12.000Z</time>
      </trkpt>
      <trkpt lat="45.09968" lon="5.24426">
        <ele>238.8</ele>
        <time>2022-09-17T12:30:13.000Z</time>
      </trkpt>
      <trkpt lat="45.09966" lon="5.24419">
        <ele>238.6</ele>
        <time>2022-09-17T12:30:14.000Z</time>
      </trkpt>
      <trkpt lat="45.09963" lon="5.24412">
        <ele>238.3</ele>
        <time>2022-09-17T12:30:15.000Z</time>
      </trkpt>
      <trkpt lat="45.0996" lon="5.24406">
        <ele>238.1</ele>
        <time>2022-09-17T12:30:16.000Z</time>
      </trkpt>
      <trkpt lat="45.09958" lon="5.24399">
        <ele>238</ele>
        <time>2022-09-17T12:30:17.000Z</time>
      </trkpt>
      <trkpt lat="45.09955" lon="5.24393">
        <ele>238</ele>
        <time>2022-09-17T12:30:18.000Z</time>
      </trkpt>
      <trkpt lat="45.09953" lon="5.24386">
        <ele>238.1</ele>
        <time>2022-09-17T12:30:19.000Z</time>
      </trkpt>
      <trkpt lat="45.09951" lon="5.2438">
        <ele>238.3</ele>
        <time>2022-09-17T12:30:20.000Z</time>
      </trkpt>
      <trkpt lat="45.09949" lon="5.24374">
        <ele>238.5</ele>
        <time>2022-09-17T12:30:21.000Z</time>
      </trkpt>
      <trkpt lat="45.09946" lon="5.24369">
        <ele>238.7</ele>
        <time>2022-09-17T12:30:22.000Z</time>
      </trkpt>
      <trkpt lat="45.09944" lon="5.24363">
        <ele>238.9</ele>
        <time>2022-09-17T12:30:23.000Z</time>
      </trkpt>
      <trkpt lat="45.09941" lon="5.24357">
        <ele>238.7</ele>
        <time>2022-09-17T12:30:24.000Z</time>
      </trkpt>
      <trkpt lat="45.09939" lon="5.24351">
        <ele>238.5</ele>
        <time>2022-09-17T12:30:25.000Z</time>
      </trkpt>
      <trkpt lat="45.09936" lon="5.24344">
        <ele>238.3</ele>
        <time>2022-09-17T12:30:26.000Z</time>
      </trkpt>
      <trkpt lat="45.09934" lon="5.24337">
        <ele>238.1</ele>
        <time>2022-09-17T12:30:27.000Z</time>
      </trkpt>
      <trkpt lat="45.09932" lon="5.24331">
        <ele>238</ele>
        <time>2022-09-17T12:30:28.000Z</time>
      </trkpt>
      <trkpt lat="45.09929" lon="5.24324">
        <ele>238.2</ele>
        <time>2022-09-17T12:30:29.000Z</time>
      </trkpt>
      <trkpt lat="45.09926" lon="5.24318">
        <ele>238.4</ele>
        <time>2022-09-17T12:30:30.000Z</time>
      </trkpt>
      <trkpt lat="45.09924" lon="5.24311">
        <ele>238.6</ele>
        <time>2022-09-17T12:30:31.000Z</time>
      </trkpt>
      <trkpt lat="45.09921" lon="5.24304">
        <ele>238.8</ele>
        <time>2022-09-17T12:30:32.000Z</time>
      </trkpt>
      <trkpt lat="45.09918" lon="5.24297">
        <ele>238.6</ele>
        <time>2022-09-17T12:30:33.000Z</time>
      </trkpt>
      <trkpt lat="45.09916" lon="5.2429">
        <ele>238.4</ele>
        <time>2022-09-17T12:30:34.000Z</time>
      </trkpt>
      <trkpt lat="45.09913" lon="5.24283">
        <ele>238.1</ele>
        <time>2022-09-17T12:30:35.000Z</time>
      </trkpt>
      <trkpt lat="45.09911" lon="5.24275">
        <ele>238</ele>
        <time>2022-09-17T12:30:36.000Z</time>
      </trkpt>
      <trkpt lat="45.09908" lon="5.24268">
        <ele>238</ele>
        <time>2022-09-17T12:30:37.000Z</time>
      </trkpt>
      <trkpt lat="45.09905" lon="5.24261">
        <ele>238</ele>
        <time>2022-09-17T12:30:38.000Z</time>
      </trkpt>
      <trkpt lat="45.09902" lon="5.24253">
        <ele>238</ele>
        <time>2022-09-17T12:30:39.000Z</time>
      </trkpt>
      <trkpt lat="45.09899" lon="5.24246">
        <ele>237.9</ele>
        <time>2022-09-17T12:30:40.000Z</time>
      </trkpt>
      <trkpt lat="45.09896" lon="5.24238">
        <ele>237.9</ele>
        <time>2022-09-17T12:30:41.000Z</time>
      </trkpt>
      <trkpt lat="45.09893" lon="5.24231">
        <ele>237.9</ele>
        <time>2022-09-17T12:30:42.000Z</time>
      </trkpt>
      <trkpt lat="45.0989" lon="5.24223">
        <ele>238</ele>
        <time>2022-09-17T12:30:43.000Z</time>
      </trkpt>
      <trkpt lat="45.09887" lon="5.24215">
        <ele>238</ele>
        <time>2022-09-17T12:30:44.000Z</time>
      </trkpt>
      <trkpt lat="45.09884" lon="5.24207">
        <ele>237.9</ele>
        <time>2022-09-17T12:30:45.000Z</time>
      </trkpt>
      <trkpt lat="45.09881" lon="5.24199">
        <ele>237.8</ele>
        <time>2022-09-17T12:30:46.000Z</time>
      </trkpt>
      <trkpt lat="45.09878" lon="5.24191">
        <ele>237.5</ele>
        <time>2022-09-17T12:30:47.000Z</time>
      </trkpt>
      <trkpt lat="45.09875" lon="5.24184">
        <ele>237.3</ele>
        <time>2022-09-17T12:30:48.000Z</time>
      </trkpt>
      <trkpt lat="45.09872" lon="5.24176">
        <ele>237.1</ele>
        <time>2022-09-17T12:30:49.000Z</time>
      </trkpt>
      <trkpt lat="45.0987" lon="5.24168">
        <ele>237</ele>
        <time>2022-09-17T12:30:50.000Z</time>
      </trkpt>
      <trkpt lat="45.09867" lon="5.24161">
        <ele>237</ele>
        <time>2022-09-17T12:30:51.000Z</time>
      </trkpt>
      <trkpt lat="45.09865" lon="5.24154">
        <ele>237</ele>
        <time>2022-09-17T12:30:52.000Z</time>
      </trkpt>
      <trkpt lat="45.09862" lon="5.24146">
        <ele>237</ele>
        <time>2022-09-17T12:30:53.000Z</time>
      </trkpt>
      <trkpt lat="45.09859" lon="5.2414">
        <ele>236.9</ele>
        <time>2022-09-17T12:30:54.000Z</time>
      </trkpt>
      <trkpt lat="45.09857" lon="5.24133">
        <ele>236.7</ele>
        <time>2022-09-17T12:30:55.000Z</time>
      </trkpt>
      <trkpt lat="45.09854" lon="5.24127">
        <ele>236.4</ele>
        <time>2022-09-17T12:30:56.000Z</time>
      </trkpt>
      <trkpt lat="45.09851" lon="5.2412">
        <ele>236.2</ele>
        <time>2022-09-17T12:30:57.000Z</time>
      </trkpt>
      <trkpt lat="45.09849" lon="5.24113">
        <ele>236</ele>
        <time>2022-09-17T12:30:58.000Z</time>
      </trkpt>
      <trkpt lat="45.09846" lon="5.24107">
        <ele>236.1</ele>
        <time>2022-09-17T12:30:59.000Z</time>
      </trkpt>
      <trkpt lat="45.09844" lon="5.241">
        <ele>236.2</ele>
        <time>2022-09-17T12:31:00.000Z</time>
      </trkpt>
      <trkpt lat="45.09841" lon="5.24093">
        <ele>236.5</ele>
        <time>2022-09-17T12:31:01.000Z</time>
      </trkpt>
      <trkpt lat="45.09839" lon="5.24086">
        <ele>236.7</ele>
        <time>2022-09-17T12:31:02.000Z</time>
      </trkpt>
      <trkpt lat="45.09836" lon="5.24079">
        <ele>236.8</ele>
        <time>2022-09-17T12:31:03.000Z</time>
      </trkpt>
      <trkpt lat="45.09833" lon="5.24072">
        <ele>236.6</ele>
        <time>2022-09-17T12:31:04.000Z</time>
      </trkpt>
      <trkpt lat="45.09831" lon="5.24065">
        <ele>236.3</ele>
        <time>2022-09-17T12:31:05.000Z</time>
      </trkpt>
      <trkpt lat="45.09828" lon="5.24057">
        <ele>236.1</ele>
        <time>2022-09-17T12:31:06.000Z</time>
      </trkpt>
      <trkpt lat="45.09825" lon="5.2405">
        <ele>236.1</ele>
        <time>2022-09-17T12:31:07.000Z</time>
      </trkpt>
      <trkpt lat="45.09822" lon="5.24043">
        <ele>236.2</ele>
        <time>2022-09-17T12:31:08.000Z</time>
      </trkpt>
      <trkpt lat="45.09819" lon="5.24036">
        <ele>236.4</ele>
        <time>2022-09-17T12:31:09.000Z</time>
      </trkpt>
      <trkpt lat="45.09816" lon="5.24028">
        <ele>236.6</ele>
        <time>2022-09-17T12:31:10.000Z</time>
      </trkpt>
      <trkpt lat="45.09814" lon="5.24021">
        <ele>236.5</ele>
        <time>2022-09-17T12:31:11.000Z</time>
      </trkpt>
      <trkpt lat="45.09811" lon="5.24013">
        <ele>236.4</ele>
        <time>2022-09-17T12:31:12.000Z</time>
      </trkpt>
      <trkpt lat="45.09808" lon="5.24005">
        <ele>236.2</ele>
        <time>2022-09-17T12:31:13.000Z</time>
      </trkpt>
      <trkpt lat="45.09805" lon="5.23997">
        <ele>236</ele>
        <time>2022-09-17T12:31:14.000Z</time>
      </trkpt>
      <trkpt lat="45.09802" lon="5.2399">
        <ele>236</ele>
        <time>2022-09-17T12:31:15.000Z</time>
      </trkpt>
      <trkpt lat="45.09799" lon="5.23982">
        <ele>236</ele>
        <time>2022-09-17T12:31:16.000Z</time>
      </trkpt>
      <trkpt lat="45.09796" lon="5.23974">
        <ele>236</ele>
        <time>2022-09-17T12:31:17.000Z</time>
      </trkpt>
      <trkpt lat="45.09794" lon="5.23966">
        <ele>236</ele>
        <time>2022-09-17T12:31:18.000Z</time>
      </trkpt>
      <trkpt lat="45.09791" lon="5.23959">
        <ele>236</ele>
        <time>2022-09-17T12:31:19.000Z</time>
      </trkpt>
      <trkpt lat="45.09788" lon="5.23951">
        <ele>236</ele>
        <time>2022-09-17T12:31:20.000Z</time>
      </trkpt>
      <trkpt lat="45.09785" lon="5.23943">
        <ele>236</ele>
        <time>2022-09-17T12:31:21.000Z</time>
      </trkpt>
      <trkpt lat="45.09782" lon="5.23935">
        <ele>235.9</ele>
        <time>2022-09-17T12:31:22.000Z</time>
      </trkpt>
      <trkpt lat="45.09779" lon="5.23927">
        <ele>236</ele>
        <time>2022-09-17T12:31:23.000Z</time>
      </trkpt>
      <trkpt lat="45.09776" lon="5.2392">
        <ele>236</ele>
        <time>2022-09-17T12:31:24.000Z</time>
      </trkpt>
      <trkpt lat="45.09773" lon="5.23912">
        <ele>235.9</ele>
        <time>2022-09-17T12:31:25.000Z</time>
      </trkpt>
      <trkpt lat="45.0977" lon="5.23904">
        <ele>235.7</ele>
        <time>2022-09-17T12:31:26.000Z</time>
      </trkpt>
      <trkpt lat="45.09767" lon="5.23896">
        <ele>235.6</ele>
        <time>2022-09-17T12:31:27.000Z</time>
      </trkpt>
      <trkpt lat="45.09764" lon="5.23889">
        <ele>235.5</ele>
        <time>2022-09-17T12:31:28.000Z</time>
      </trkpt>
      <trkpt lat="45.09761" lon="5.23881">
        <ele>235.6</ele>
        <time>2022-09-17T12:31:29.000Z</time>
      </trkpt>
      <trkpt lat="45.09758" lon="5.23873">
        <ele>235.7</ele>
        <time>2022-09-17T12:31:30.000Z</time>
      </trkpt>
      <trkpt lat="45.09754" lon="5.23864">
        <ele>235.8</ele>
        <time>2022-09-17T12:31:31.000Z</time>
      </trkpt>
      <trkpt lat="45.09751" lon="5.23856">
        <ele>235.8</ele>
        <time>2022-09-17T12:31:32.000Z</time>
      </trkpt>
      <trkpt lat="45.09748" lon="5.23848">
        <ele>235.6</ele>
        <time>2022-09-17T12:31:33.000Z</time>
      </trkpt>
      <trkpt lat="45.09745" lon="5.2384">
        <ele>235.4</ele>
        <time>2022-09-17T12:31:34.000Z</time>
      </trkpt>
      <trkpt lat="45.09742" lon="5.23832">
        <ele>235.3</ele>
        <time>2022-09-17T12:31:35.000Z</time>
      </trkpt>
      <trkpt lat="45.09739" lon="5.23825">
        <ele>235.3</ele>
        <time>2022-09-17T12:31:36.000Z</time>
      </trkpt>
      <trkpt lat="45.09736" lon="5.23817">
        <ele>235.2</ele>
        <time>2022-09-17T12:31:37.000Z</time>
      </trkpt>
      <trkpt lat="45.09733" lon="5.23809">
        <ele>235.1</ele>
        <time>2022-09-17T12:31:38.000Z</time>
      </trkpt>
      <trkpt lat="45.09731" lon="5.23801">
        <ele>235.1</ele>
        <time>2022-09-17T12:31:39.000Z</time>
      </trkpt>
      <trkpt lat="45.09728" lon="5.23793">
        <ele>235.4</ele>
        <time>2022-09-17T12:31:40.000Z</time>
      </trkpt>
      <trkpt lat="45.09725" lon="5.23785">
        <ele>235.7</ele>
        <time>2022-09-17T12:31:41.000Z</time>
      </trkpt>
      <trkpt lat="45.09722" lon="5.23777">
        <ele>235.9</ele>
        <time>2022-09-17T12:31:42.000Z</time>
      </trkpt>
      <trkpt lat="45.09718" lon="5.23768">
        <ele>235.5</ele>
        <time>2022-09-17T12:31:43.000Z</time>
      </trkpt>
      <trkpt lat="45.09715" lon="5.2376">
        <ele>235.1</ele>
        <time>2022-09-17T12:31:44.000Z</time>
      </trkpt>
      <trkpt lat="45.09712" lon="5.23752">
        <ele>234.7</ele>
        <time>2022-09-17T12:31:45.000Z</time>
      </trkpt>
      <trkpt lat="45.09709" lon="5.23744">
        <ele>234.6</ele>
        <time>2022-09-17T12:31:46.000Z</time>
      </trkpt>
      <trkpt lat="45.09706" lon="5.23735">
        <ele>234.7</ele>
        <time>2022-09-17T12:31:47.000Z</time>
      </trkpt>
      <trkpt lat="45.09703" lon="5.23727">
        <ele>234.9</ele>
        <time>2022-09-17T12:31:48.000Z</time>
      </trkpt>
      <trkpt lat="45.097" lon="5.23718">
        <ele>235</ele>
        <time>2022-09-17T12:31:49.000Z</time>
      </trkpt>
      <trkpt lat="45.09697" lon="5.2371">
        <ele>235</ele>
        <time>2022-09-17T12:31:50.000Z</time>
      </trkpt>
      <trkpt lat="45.09694" lon="5.23702">
        <ele>235</ele>
        <time>2022-09-17T12:31:51.000Z</time>
      </trkpt>
      <trkpt lat="45.0969" lon="5.23694">
        <ele>234.9</ele>
        <time>2022-09-17T12:31:52.000Z</time>
      </trkpt>
      <trkpt lat="45.09687" lon="5.23685">
        <ele>234.8</ele>
        <time>2022-09-17T12:31:53.000Z</time>
      </trkpt>
      <trkpt lat="45.09684" lon="5.23677">
        <ele>234.9</ele>
        <time>2022-09-17T12:31:54.000Z</time>
      </trkpt>
      <trkpt lat="45.09681" lon="5.2367">
        <ele>235</ele>
        <time>2022-09-17T12:31:55.000Z</time>
      </trkpt>
      <trkpt lat="45.09678" lon="5.23662">
        <ele>235</ele>
        <time>2022-09-17T12:31:56.000Z</time>
      </trkpt>
      <trkpt lat="45.09675" lon="5.23654">
        <ele>235</ele>
        <time>2022-09-17T12:31:57.000Z</time>
      </trkpt>
      <trkpt lat="45.09672" lon="5.23646">
        <ele>235</ele>
        <time>2022-09-17T12:31:58.000Z</time>
      </trkpt>
      <trkpt lat="45.09669" lon="5.23638">
        <ele>235</ele>
        <time>2022-09-17T12:31:59.000Z</time>
      </trkpt>
      <trkpt lat="45.09666" lon="5.23631">
        <ele>235</ele>
        <time>2022-09-17T12:32:00.000Z</time>
      </trkpt>
      <trkpt lat="45.09663" lon="5.23623">
        <ele>234.9</ele>
        <time>2022-09-17T12:32:01.000Z</time>
      </trkpt>
      <trkpt lat="45.0966" lon="5.23615">
        <ele>235</ele>
        <time>2022-09-17T12:32:02.000Z</time>
      </trkpt>
      <trkpt lat="45.09658" lon="5.23607">
        <ele>235</ele>
        <time>2022-09-17T12:32:03.000Z</time>
      </trkpt>
      <trkpt lat="45.09655" lon="5.23599">
        <ele>235</ele>
        <time>2022-09-17T12:32:04.000Z</time>
      </trkpt>
      <trkpt lat="45.09652" lon="5.23592">
        <ele>235</ele>
        <time>2022-09-17T12:32:05.000Z</time>
      </trkpt>
      <trkpt lat="45.09649" lon="5.23584">
        <ele>235</ele>
        <time>2022-09-17T12:32:06.000Z</time>
      </trkpt>
      <trkpt lat="45.09646" lon="5.23576">
        <ele>235</ele>
        <time>2022-09-17T12:32:07.000Z</time>
      </trkpt>
      <trkpt lat="45.09643" lon="5.23569">
        <ele>235</ele>
        <time>2022-09-17T12:32:08.000Z</time>
      </trkpt>
      <trkpt lat="45.0964" lon="5.23561">
        <ele>235</ele>
        <time>2022-09-17T12:32:09.000Z</time>
      </trkpt>
      <trkpt lat="45.09637" lon="5.23553">
        <ele>235</ele>
        <time>2022-09-17T12:32:10.000Z</time>
      </trkpt>
      <trkpt lat="45.09634" lon="5.23545">
        <ele>235</ele>
        <time>2022-09-17T12:32:11.000Z</time>
      </trkpt>
      <trkpt lat="45.09631" lon="5.23537">
        <ele>235</ele>
        <time>2022-09-17T12:32:12.000Z</time>
      </trkpt>
      <trkpt lat="45.09628" lon="5.23529">
        <ele>235</ele>
        <time>2022-09-17T12:32:13.000Z</time>
      </trkpt>
      <trkpt lat="45.09625" lon="5.23521">
        <ele>235</ele>
        <time>2022-09-17T12:32:14.000Z</time>
      </trkpt>
      <trkpt lat="45.09622" lon="5.23513">
        <ele>235</ele>
        <time>2022-09-17T12:32:15.000Z</time>
      </trkpt>
      <trkpt lat="45.09619" lon="5.23506">
        <ele>235</ele>
        <time>2022-09-17T12:32:16.000Z</time>
      </trkpt>
      <trkpt lat="45.09616" lon="5.23498">
        <ele>234.9</ele>
        <time>2022-09-17T12:32:17.000Z</time>
      </trkpt>
      <trkpt lat="45.09612" lon="5.2349">
        <ele>234.6</ele>
        <time>2022-09-17T12:32:18.000Z</time>
      </trkpt>
      <trkpt lat="45.09609" lon="5.23481">
        <ele>234.3</ele>
        <time>2022-09-17T12:32:19.000Z</time>
      </trkpt>
      <trkpt lat="45.09606" lon="5.23473">
        <ele>234</ele>
        <time>2022-09-17T12:32:20.000Z</time>
      </trkpt>
      <trkpt lat="45.09603" lon="5.23465">
        <ele>234</ele>
        <time>2022-09-17T12:32:21.000Z</time>
      </trkpt>
      <trkpt lat="45.096" lon="5.23456">
        <ele>234</ele>
        <time>2022-09-17T12:32:22.000Z</time>
      </trkpt>
      <trkpt lat="45.09597" lon="5.23448">
        <ele>234</ele>
        <time>2022-09-17T12:32:23.000Z</time>
      </trkpt>
      <trkpt lat="45.09593" lon="5.23439">
        <ele>234</ele>
        <time>2022-09-17T12:32:24.000Z</time>
      </trkpt>
      <trkpt lat="45.0959" lon="5.23431">
        <ele>234</ele>
        <time>2022-09-17T12:32:25.000Z</time>
      </trkpt>
      <trkpt lat="45.09587" lon="5.23422">
        <ele>234</ele>
        <time>2022-09-17T12:32:26.000Z</time>
      </trkpt>
      <trkpt lat="45.09584" lon="5.23414">
        <ele>234</ele>
        <time>2022-09-17T12:32:27.000Z</time>
      </trkpt>
      <trkpt lat="45.0958" lon="5.23405">
        <ele>234</ele>
        <time>2022-09-17T12:32:28.000Z</time>
      </trkpt>
      <trkpt lat="45.09577" lon="5.23397">
        <ele>234</ele>
        <time>2022-09-17T12:32:29.000Z</time>
      </trkpt>
      <trkpt lat="45.09574" lon="5.23388">
        <ele>234</ele>
        <time>2022-09-17T12:32:30.000Z</time>
      </trkpt>
      <trkpt lat="45.09571" lon="5.2338">
        <ele>234</ele>
        <time>2022-09-17T12:32:31.000Z</time>
      </trkpt>
      <trkpt lat="45.09568" lon="5.23371">
        <ele>234</ele>
        <time>2022-09-17T12:32:32.000Z</time>
      </trkpt>
      <trkpt lat="45.09564" lon="5.23363">
        <ele>234</ele>
        <time>2022-09-17T12:32:33.000Z</time>
      </trkpt>
      <trkpt lat="45.09561" lon="5.23354">
        <ele>234</ele>
        <time>2022-09-17T12:32:34.000Z</time>
      </trkpt>
      <trkpt lat="45.09558" lon="5.23346">
        <ele>234</ele>
        <time>2022-09-17T12:32:35.000Z</time>
      </trkpt>
      <trkpt lat="45.09555" lon="5.23338">
        <ele>234</ele>
        <time>2022-09-17T12:32:36.000Z</time>
      </trkpt>
      <trkpt lat="45.09552" lon="5.2333">
        <ele>234</ele>
        <time>2022-09-17T12:32:37.000Z</time>
      </trkpt>
      <trkpt lat="45.09549" lon="5.23321">
        <ele>234</ele>
        <time>2022-09-17T12:32:38.000Z</time>
      </trkpt>
      <trkpt lat="45.09546" lon="5.23313">
        <ele>234</ele>
        <time>2022-09-17T12:32:39.000Z</time>
      </trkpt>
      <trkpt lat="45.09543" lon="5.23305">
        <ele>234</ele>
        <time>2022-09-17T12:32:40.000Z</time>
      </trkpt>
      <trkpt lat="45.0954" lon="5.23297">
        <ele>234.2</ele>
        <time>2022-09-17T12:32:41.000Z</time>
      </trkpt>
      <trkpt lat="45.09537" lon="5.23289">
        <ele>234.4</ele>
        <time>2022-09-17T12:32:42.000Z</time>
      </trkpt>
      <trkpt lat="45.09534" lon="5.2328">
        <ele>234.7</ele>
        <time>2022-09-17T12:32:43.000Z</time>
      </trkpt>
      <trkpt lat="45.0953" lon="5.23272">
        <ele>234.7</ele>
        <time>2022-09-17T12:32:44.000Z</time>
      </trkpt>
      <trkpt lat="45.09527" lon="5.23264">
        <ele>234.5</ele>
        <time>2022-09-17T12:32:45.000Z</time>
      </trkpt>
      <trkpt lat="45.09524" lon="5.23255">
        <ele>234.1</ele>
        <time>2022-09-17T12:32:46.000Z</time>
      </trkpt>
      <trkpt lat="45.09521" lon="5.23247">
        <ele>234</ele>
        <time>2022-09-17T12:32:47.000Z</time>
      </trkpt>
      <trkpt lat="45.09518" lon="5.23238">
        <ele>234</ele>
        <time>2022-09-17T12:32:48.000Z</time>
      </trkpt>
      <trkpt lat="45.09514" lon="5.2323">
        <ele>234</ele>
        <time>2022-09-17T12:32:49.000Z</time>
      </trkpt>
      <trkpt lat="45.09511" lon="5.23221">
        <ele>234</ele>
        <time>2022-09-17T12:32:50.000Z</time>
      </trkpt>
      <trkpt lat="45.09508" lon="5.23212">
        <ele>234.3</ele>
        <time>2022-09-17T12:32:51.000Z</time>
      </trkpt>
      <trkpt lat="45.09505" lon="5.23204">
        <ele>234.6</ele>
        <time>2022-09-17T12:32:52.000Z</time>
      </trkpt>
      <trkpt lat="45.09502" lon="5.23195">
        <ele>234.9</ele>
        <time>2022-09-17T12:32:53.000Z</time>
      </trkpt>
      <trkpt lat="45.09499" lon="5.23186">
        <ele>234.6</ele>
        <time>2022-09-17T12:32:54.000Z</time>
      </trkpt>
      <trkpt lat="45.09496" lon="5.23178">
        <ele>234.3</ele>
        <time>2022-09-17T12:32:55.000Z</time>
      </trkpt>
      <trkpt lat="45.09493" lon="5.2317">
        <ele>234.1</ele>
        <time>2022-09-17T12:32:56.000Z</time>
      </trkpt>
      <trkpt lat="45.09489" lon="5.23162">
        <ele>234</ele>
        <time>2022-09-17T12:32:57.000Z</time>
      </trkpt>
      <trkpt lat="45.09486" lon="5.23154">
        <ele>234</ele>
        <time>2022-09-17T12:32:58.000Z</time>
      </trkpt>
      <trkpt lat="45.09483" lon="5.23146">
        <ele>234</ele>
        <time>2022-09-17T12:32:59.000Z</time>
      </trkpt>
      <trkpt lat="45.0948" lon="5.23139">
        <ele>234</ele>
        <time>2022-09-17T12:33:00.000Z</time>
      </trkpt>
      <trkpt lat="45.09478" lon="5.23132">
        <ele>234.1</ele>
        <time>2022-09-17T12:33:01.000Z</time>
      </trkpt>
      <trkpt lat="45.09475" lon="5.23124">
        <ele>234.1</ele>
        <time>2022-09-17T12:33:02.000Z</time>
      </trkpt>
      <trkpt lat="45.09472" lon="5.23117">
        <ele>234</ele>
        <time>2022-09-17T12:33:03.000Z</time>
      </trkpt>
      <trkpt lat="45.09469" lon="5.2311">
        <ele>233.9</ele>
        <time>2022-09-17T12:33:04.000Z</time>
      </trkpt>
      <trkpt lat="45.09466" lon="5.23102">
        <ele>233.9</ele>
        <time>2022-09-17T12:33:05.000Z</time>
      </trkpt>
      <trkpt lat="45.09463" lon="5.23094">
        <ele>233.9</ele>
        <time>2022-09-17T12:33:06.000Z</time>
      </trkpt>
      <trkpt lat="45.0946" lon="5.23086">
        <ele>234</ele>
        <time>2022-09-17T12:33:07.000Z</time>
      </trkpt>
      <trkpt lat="45.09457" lon="5.23077">
        <ele>233.9</ele>
        <time>2022-09-17T12:33:08.000Z</time>
      </trkpt>
      <trkpt lat="45.09454" lon="5.23069">
        <ele>233.6</ele>
        <time>2022-09-17T12:33:09.000Z</time>
      </trkpt>
      <trkpt lat="45.0945" lon="5.2306">
        <ele>233.3</ele>
        <time>2022-09-17T12:33:10.000Z</time>
      </trkpt>
      <trkpt lat="45.09447" lon="5.23051">
        <ele>232.9</ele>
        <time>2022-09-17T12:33:11.000Z</time>
      </trkpt>
      <trkpt lat="45.09444" lon="5.23042">
        <ele>232.4</ele>
        <time>2022-09-17T12:33:12.000Z</time>
      </trkpt>
      <trkpt lat="45.0944" lon="5.23032">
        <ele>231.9</ele>
        <time>2022-09-17T12:33:13.000Z</time>
      </trkpt>
      <trkpt lat="45.09437" lon="5.23023">
        <ele>231.7</ele>
        <time>2022-09-17T12:33:14.000Z</time>
      </trkpt>
      <trkpt lat="45.09433" lon="5.23014">
        <ele>231.6</ele>
        <time>2022-09-17T12:33:15.000Z</time>
      </trkpt>
      <trkpt lat="45.09429" lon="5.23004">
        <ele>231.5</ele>
        <time>2022-09-17T12:33:16.000Z</time>
      </trkpt>
      <trkpt lat="45.09426" lon="5.22994">
        <ele>231.2</ele>
        <time>2022-09-17T12:33:17.000Z</time>
      </trkpt>
      <trkpt lat="45.09422" lon="5.22983">
        <ele>230.7</ele>
        <time>2022-09-17T12:33:18.000Z</time>
      </trkpt>
      <trkpt lat="45.09418" lon="5.22973">
        <ele>230.1</ele>
        <time>2022-09-17T12:33:19.000Z</time>
      </trkpt>
      <trkpt lat="45.09413" lon="5.22962">
        <ele>229.3</ele>
        <time>2022-09-17T12:33:20.000Z</time>
      </trkpt>
      <trkpt lat="45.09409" lon="5.22952">
        <ele>228.6</ele>
        <time>2022-09-17T12:33:21.000Z</time>
      </trkpt>
      <trkpt lat="45.09405" lon="5.22941">
        <ele>228</ele>
        <time>2022-09-17T12:33:22.000Z</time>
      </trkpt>
      <trkpt lat="45.09401" lon="5.2293">
        <ele>227.8</ele>
        <time>2022-09-17T12:33:23.000Z</time>
      </trkpt>
      <trkpt lat="45.09397" lon="5.2292">
        <ele>227.7</ele>
        <time>2022-09-17T12:33:24.000Z</time>
      </trkpt>
      <trkpt lat="45.09393" lon="5.22909">
        <ele>227.7</ele>
        <time>2022-09-17T12:33:25.000Z</time>
      </trkpt>
      <trkpt lat="45.09388" lon="5.22897">
        <ele>227.4</ele>
        <time>2022-09-17T12:33:26.000Z</time>
      </trkpt>
      <trkpt lat="45.09383" lon="5.22886">
        <ele>226.2</ele>
        <time>2022-09-17T12:33:27.000Z</time>
      </trkpt>
      <trkpt lat="45.09379" lon="5.22875">
        <ele>225.3</ele>
        <time>2022-09-17T12:33:28.000Z</time>
      </trkpt>
      <trkpt lat="45.09375" lon="5.22863">
        <ele>224.8</ele>
        <time>2022-09-17T12:33:29.000Z</time>
      </trkpt>
      <trkpt lat="45.0937" lon="5.22852">
        <ele>224.4</ele>
        <time>2022-09-17T12:33:30.000Z</time>
      </trkpt>
      <trkpt lat="45.09366" lon="5.22841">
        <ele>224.2</ele>
        <time>2022-09-17T12:33:31.000Z</time>
      </trkpt>
      <trkpt lat="45.09361" lon="5.2283">
        <ele>224.2</ele>
        <time>2022-09-17T12:33:32.000Z</time>
      </trkpt>
      <trkpt lat="45.09357" lon="5.22818">
        <ele>223.7</ele>
        <time>2022-09-17T12:33:33.000Z</time>
      </trkpt>
      <trkpt lat="45.09353" lon="5.22806">
        <ele>223.5</ele>
        <time>2022-09-17T12:33:34.000Z</time>
      </trkpt>
      <trkpt lat="45.09348" lon="5.22795">
        <ele>223.3</ele>
        <time>2022-09-17T12:33:35.000Z</time>
      </trkpt>
      <trkpt lat="45.09344" lon="5.22783">
        <ele>223.2</ele>
        <time>2022-09-17T12:33:36.000Z</time>
      </trkpt>
      <trkpt lat="45.0934" lon="5.22772">
        <ele>223.1</ele>
        <time>2022-09-17T12:33:37.000Z</time>
      </trkpt>
      <trkpt lat="45.09335" lon="5.2276">
        <ele>222.9</ele>
        <time>2022-09-17T12:33:38.000Z</time>
      </trkpt>
      <trkpt lat="45.09331" lon="5.22748">
        <ele>222.8</ele>
        <time>2022-09-17T12:33:39.000Z</time>
      </trkpt>
      <trkpt lat="45.09327" lon="5.22736">
        <ele>222.5</ele>
        <time>2022-09-17T12:33:40.000Z</time>
      </trkpt>
      <trkpt lat="45.09322" lon="5.22725">
        <ele>222.2</ele>
        <time>2022-09-17T12:33:41.000Z</time>
      </trkpt>
      <trkpt lat="45.09318" lon="5.22714">
        <ele>222.1</ele>
        <time>2022-09-17T12:33:42.000Z</time>
      </trkpt>
      <trkpt lat="45.09314" lon="5.22702">
        <ele>222.1</ele>
        <time>2022-09-17T12:33:43.000Z</time>
      </trkpt>
      <trkpt lat="45.09309" lon="5.22691">
        <ele>222.1</ele>
        <time>2022-09-17T12:33:44.000Z</time>
      </trkpt>
      <trkpt lat="45.09305" lon="5.22679">
        <ele>222</ele>
        <time>2022-09-17T12:33:45.000Z</time>
      </trkpt>
      <trkpt lat="45.09301" lon="5.22668">
        <ele>221.8</ele>
        <time>2022-09-17T12:33:46.000Z</time>
      </trkpt>
      <trkpt lat="45.09296" lon="5.22656">
        <ele>221.5</ele>
        <time>2022-09-17T12:33:47.000Z</time>
      </trkpt>
      <trkpt lat="45.09292" lon="5.22645">
        <ele>221.1</ele>
        <time>2022-09-17T12:33:48.000Z</time>
      </trkpt>
      <trkpt lat="45.09288" lon="5.22634">
        <ele>220.5</ele>
        <time>2022-09-17T12:33:49.000Z</time>
      </trkpt>
      <trkpt lat="45.09284" lon="5.22624">
        <ele>219.8</ele>
        <time>2022-09-17T12:33:50.000Z</time>
      </trkpt>
      <trkpt lat="45.09279" lon="5.22613">
        <ele>219.1</ele>
        <time>2022-09-17T12:33:51.000Z</time>
      </trkpt>
      <trkpt lat="45.09274" lon="5.22602">
        <ele>218.3</ele>
        <time>2022-09-17T12:33:52.000Z</time>
      </trkpt>
      <trkpt lat="45.09268" lon="5.22591">
        <ele>217.5</ele>
        <time>2022-09-17T12:33:53.000Z</time>
      </trkpt>
      <trkpt lat="45.09263" lon="5.22581">
        <ele>216.9</ele>
        <time>2022-09-17T12:33:54.000Z</time>
      </trkpt>
      <trkpt lat="45.09257" lon="5.2257">
        <ele>216.5</ele>
        <time>2022-09-17T12:33:55.000Z</time>
      </trkpt>
      <trkpt lat="45.09251" lon="5.22559">
        <ele>216.2</ele>
        <time>2022-09-17T12:33:56.000Z</time>
      </trkpt>
      <trkpt lat="45.09244" lon="5.22548">
        <ele>215.2</ele>
        <time>2022-09-17T12:33:57.000Z</time>
      </trkpt>
      <trkpt lat="45.09237" lon="5.22537">
        <ele>214.1</ele>
        <time>2022-09-17T12:33:58.000Z</time>
      </trkpt>
      <trkpt lat="45.09229" lon="5.22525">
        <ele>213.2</ele>
        <time>2022-09-17T12:33:59.000Z</time>
      </trkpt>
      <trkpt lat="45.09222" lon="5.22513">
        <ele>212.4</ele>
        <time>2022-09-17T12:34:00.000Z</time>
      </trkpt>
      <trkpt lat="45.09215" lon="5.225">
        <ele>212.1</ele>
        <time>2022-09-17T12:34:01.000Z</time>
      </trkpt>
      <trkpt lat="45.09207" lon="5.22488">
        <ele>211.4</ele>
        <time>2022-09-17T12:34:02.000Z</time>
      </trkpt>
      <trkpt lat="45.092" lon="5.22475">
        <ele>210.1</ele>
        <time>2022-09-17T12:34:03.000Z</time>
      </trkpt>
      <trkpt lat="45.09192" lon="5.22463">
        <ele>210.1</ele>
        <time>2022-09-17T12:34:04.000Z</time>
      </trkpt>
      <trkpt lat="45.09184" lon="5.22451">
        <ele>210.3</ele>
        <time>2022-09-17T12:34:05.000Z</time>
      </trkpt>
      <trkpt lat="45.09176" lon="5.22438">
        <ele>209.4</ele>
        <time>2022-09-17T12:34:06.000Z</time>
      </trkpt>
      <trkpt lat="45.09168" lon="5.22425">
        <ele>208.1</ele>
        <time>2022-09-17T12:34:07.000Z</time>
      </trkpt>
      <trkpt lat="45.0916" lon="5.22412">
        <ele>207.8</ele>
        <time>2022-09-17T12:34:08.000Z</time>
      </trkpt>
      <trkpt lat="45.09152" lon="5.224">
        <ele>207.1</ele>
        <time>2022-09-17T12:34:09.000Z</time>
      </trkpt>
      <trkpt lat="45.09144" lon="5.22387">
        <ele>205</ele>
        <time>2022-09-17T12:34:10.000Z</time>
      </trkpt>
      <trkpt lat="45.09136" lon="5.22374">
        <ele>203.3</ele>
        <time>2022-09-17T12:34:11.000Z</time>
      </trkpt>
      <trkpt lat="45.09128" lon="5.22361">
        <ele>201.6</ele>
        <time>2022-09-17T12:34:12.000Z</time>
      </trkpt>
      <trkpt lat="45.0912" lon="5.22348">
        <ele>200.9</ele>
        <time>2022-09-17T12:34:13.000Z</time>
      </trkpt>
      <trkpt lat="45.09112" lon="5.22336">
        <ele>201</ele>
        <time>2022-09-17T12:34:14.000Z</time>
      </trkpt>
      <trkpt lat="45.09104" lon="5.22323">
        <ele>199</ele>
        <time>2022-09-17T12:34:15.000Z</time>
      </trkpt>
      <trkpt lat="45.09096" lon="5.2231">
        <ele>198.2</ele>
        <time>2022-09-17T12:34:16.000Z</time>
      </trkpt>
      <trkpt lat="45.09087" lon="5.22297">
        <ele>198.1</ele>
        <time>2022-09-17T12:34:17.000Z</time>
      </trkpt>
      <trkpt lat="45.09079" lon="5.22284">
        <ele>197.2</ele>
        <time>2022-09-17T12:34:18.000Z</time>
      </trkpt>
      <trkpt lat="45.09071" lon="5.22271">
        <ele>196.1</ele>
        <time>2022-09-17T12:34:19.000Z</time>
      </trkpt>
      <trkpt lat="45.09062" lon="5.22258">
        <ele>195.7</ele>
        <time>2022-09-17T12:34:20.000Z</time>
      </trkpt>
      <trkpt lat="45.09054" lon="5.22245">
        <ele>195.6</ele>
        <time>2022-09-17T12:34:21.000Z</time>
      </trkpt>
      <trkpt lat="45.09046" lon="5.22232">
        <ele>194.8</ele>
        <time>2022-09-17T12:34:22.000Z</time>
      </trkpt>
      <trkpt lat="45.09038" lon="5.2222">
        <ele>194.6</ele>
        <time>2022-09-17T12:34:23.000Z</time>
      </trkpt>
      <trkpt lat="45.0903" lon="5.22207">
        <ele>194.9</ele>
        <time>2022-09-17T12:34:24.000Z</time>
      </trkpt>
      <trkpt lat="45.09023" lon="5.22195">
        <ele>194.4</ele>
        <time>2022-09-17T12:34:25.000Z</time>
      </trkpt>
      <trkpt lat="45.09015" lon="5.22184">
        <ele>193.3</ele>
        <time>2022-09-17T12:34:26.000Z</time>
      </trkpt>
      <trkpt lat="45.09008" lon="5.22173">
        <ele>193.6</ele>
        <time>2022-09-17T12:34:27.000Z</time>
      </trkpt>
      <trkpt lat="45.09001" lon="5.22162">
        <ele>194</ele>
        <time>2022-09-17T12:34:28.000Z</time>
      </trkpt>
      <trkpt lat="45.08995" lon="5.22152">
        <ele>192.3</ele>
        <time>2022-09-17T12:34:29.000Z</time>
      </trkpt>
      <trkpt lat="45.08989" lon="5.22141">
        <ele>191.7</ele>
        <time>2022-09-17T12:34:30.000Z</time>
      </trkpt>
      <trkpt lat="45.08982" lon="5.22132">
        <ele>192.8</ele>
        <time>2022-09-17T12:34:31.000Z</time>
      </trkpt>
      <trkpt lat="45.08976" lon="5.22122">
        <ele>194.1</ele>
        <time>2022-09-17T12:34:32.000Z</time>
      </trkpt>
      <trkpt lat="45.0897" lon="5.22113">
        <ele>195</ele>
        <time>2022-09-17T12:34:33.000Z</time>
      </trkpt>
      <trkpt lat="45.08963" lon="5.22104">
        <ele>194.9</ele>
        <time>2022-09-17T12:34:34.000Z</time>
      </trkpt>
      <trkpt lat="45.08957" lon="5.22095">
        <ele>195</ele>
        <time>2022-09-17T12:34:35.000Z</time>
      </trkpt>
      <trkpt lat="45.08951" lon="5.22087">
        <ele>195.5</ele>
        <time>2022-09-17T12:34:36.000Z</time>
      </trkpt>
      <trkpt lat="45.08945" lon="5.22078">
        <ele>195.8</ele>
        <time>2022-09-17T12:34:37.000Z</time>
      </trkpt>
      <trkpt lat="45.08939" lon="5.2207">
        <ele>195.5</ele>
        <time>2022-09-17T12:34:38.000Z</time>
      </trkpt>
      <trkpt lat="45.08933" lon="5.22063">
        <ele>195.5</ele>
        <time>2022-09-17T12:34:39.000Z</time>
      </trkpt>
      <trkpt lat="45.08927" lon="5.22055">
        <ele>195.6</ele>
        <time>2022-09-17T12:34:40.000Z</time>
      </trkpt>
      <trkpt lat="45.08921" lon="5.22048">
        <ele>195.8</ele>
        <time>2022-09-17T12:34:41.000Z</time>
      </trkpt>
      <trkpt lat="45.08914" lon="5.22041">
        <ele>195.9</ele>
        <time>2022-09-17T12:34:42.000Z</time>
      </trkpt>
      <trkpt lat="45.08908" lon="5.22034">
        <ele>195.7</ele>
        <time>2022-09-17T12:34:43.000Z</time>
      </trkpt>
      <trkpt lat="45.08902" lon="5.22027">
        <ele>195.5</ele>
        <time>2022-09-17T12:34:44.000Z</time>
      </trkpt>
      <trkpt lat="45.08895" lon="5.2202">
        <ele>195.2</ele>
        <time>2022-09-17T12:34:45.000Z</time>
      </trkpt>
      <trkpt lat="45.08889" lon="5.22013">
        <ele>195</ele>
        <time>2022-09-17T12:34:46.000Z</time>
      </trkpt>
      <trkpt lat="45.08883" lon="5.22007">
        <ele>195.2</ele>
        <time>2022-09-17T12:34:47.000Z</time>
      </trkpt>
      <trkpt lat="45.08878" lon="5.22">
        <ele>195.4</ele>
        <time>2022-09-17T12:34:48.000Z</time>
      </trkpt>
      <trkpt lat="45.08872" lon="5.21993">
        <ele>195</ele>
        <time>2022-09-17T12:34:49.000Z</time>
      </trkpt>
      <trkpt lat="45.08866" lon="5.21987">
        <ele>195.3</ele>
        <time>2022-09-17T12:34:50.000Z</time>
      </trkpt>
      <trkpt lat="45.0886" lon="5.21981">
        <ele>196</ele>
        <time>2022-09-17T12:34:51.000Z</time>
      </trkpt>
      <trkpt lat="45.08854" lon="5.21975">
        <ele>196</ele>
        <time>2022-09-17T12:34:52.000Z</time>
      </trkpt>
      <trkpt lat="45.08848" lon="5.21969">
        <ele>195.7</ele>
        <time>2022-09-17T12:34:53.000Z</time>
      </trkpt>
      <trkpt lat="45.08843" lon="5.21962">
        <ele>195.5</ele>
        <time>2022-09-17T12:34:54.000Z</time>
      </trkpt>
      <trkpt lat="45.08837" lon="5.21956">
        <ele>195.7</ele>
        <time>2022-09-17T12:34:55.000Z</time>
      </trkpt>
      <trkpt lat="45.08832" lon="5.2195">
        <ele>196</ele>
        <time>2022-09-17T12:34:56.000Z</time>
      </trkpt>
      <trkpt lat="45.08826" lon="5.21944">
        <ele>195.8</ele>
        <time>2022-09-17T12:34:57.000Z</time>
      </trkpt>
      <trkpt lat="45.08821" lon="5.21938">
        <ele>195.2</ele>
        <time>2022-09-17T12:34:58.000Z</time>
      </trkpt>
      <trkpt lat="45.08816" lon="5.21932">
        <ele>195</ele>
        <time>2022-09-17T12:34:59.000Z</time>
      </trkpt>
      <trkpt lat="45.08811" lon="5.21926">
        <ele>195.3</ele>
        <time>2022-09-17T12:35:00.000Z</time>
      </trkpt>
      <trkpt lat="45.08805" lon="5.21921">
        <ele>196</ele>
        <time>2022-09-17T12:35:01.000Z</time>
      </trkpt>
      <trkpt lat="45.088" lon="5.21916">
        <ele>195.9</ele>
        <time>2022-09-17T12:35:02.000Z</time>
      </trkpt>
      <trkpt lat="45.08795" lon="5.21911">
        <ele>195.2</ele>
        <time>2022-09-17T12:35:03.000Z</time>
      </trkpt>
      <trkpt lat="45.0879" lon="5.21905">
        <ele>195.1</ele>
        <time>2022-09-17T12:35:04.000Z</time>
      </trkpt>
      <trkpt lat="45.08785" lon="5.219">
        <ele>195.5</ele>
        <time>2022-09-17T12:35:05.000Z</time>
      </trkpt>
      <trkpt lat="45.0878" lon="5.21895">
        <ele>196.3</ele>
        <time>2022-09-17T12:35:06.000Z</time>
      </trkpt>
      <trkpt lat="45.08776" lon="5.21889">
        <ele>197</ele>
        <time>2022-09-17T12:35:07.000Z</time>
      </trkpt>
      <trkpt lat="45.08771" lon="5.21883">
        <ele>196</ele>
        <time>2022-09-17T12:35:08.000Z</time>
      </trkpt>
      <trkpt lat="45.08766" lon="5.21877">
        <ele>195.5</ele>
        <time>2022-09-17T12:35:09.000Z</time>
      </trkpt>
      <trkpt lat="45.08761" lon="5.21871">
        <ele>195.4</ele>
        <time>2022-09-17T12:35:10.000Z</time>
      </trkpt>
      <trkpt lat="45.08757" lon="5.21865">
        <ele>195.7</ele>
        <time>2022-09-17T12:35:11.000Z</time>
      </trkpt>
      <trkpt lat="45.08752" lon="5.21859">
        <ele>196.2</ele>
        <time>2022-09-17T12:35:12.000Z</time>
      </trkpt>
      <trkpt lat="45.08748" lon="5.21853">
        <ele>196</ele>
        <time>2022-09-17T12:35:13.000Z</time>
      </trkpt>
      <trkpt lat="45.08743" lon="5.21847">
        <ele>195.5</ele>
        <time>2022-09-17T12:35:14.000Z</time>
      </trkpt>
      <trkpt lat="45.08739" lon="5.21841">
        <ele>195.3</ele>
        <time>2022-09-17T12:35:15.000Z</time>
      </trkpt>
      <trkpt lat="45.08735" lon="5.21835">
        <ele>195.3</ele>
        <time>2022-09-17T12:35:16.000Z</time>
      </trkpt>
      <trkpt lat="45.0873" lon="5.21829">
        <ele>195.3</ele>
        <time>2022-09-17T12:35:17.000Z</time>
      </trkpt>
      <trkpt lat="45.08726" lon="5.21823">
        <ele>195.4</ele>
        <time>2022-09-17T12:35:18.000Z</time>
      </trkpt>
      <trkpt lat="45.08722" lon="5.21816">
        <ele>195.8</ele>
        <time>2022-09-17T12:35:19.000Z</time>
      </trkpt>
      <trkpt lat="45.08717" lon="5.2181">
        <ele>195.6</ele>
        <time>2022-09-17T12:35:20.000Z</time>
      </trkpt>
      <trkpt lat="45.08713" lon="5.21804">
        <ele>195.3</ele>
        <time>2022-09-17T12:35:21.000Z</time>
      </trkpt>
      <trkpt lat="45.08708" lon="5.21797">
        <ele>194.8</ele>
        <time>2022-09-17T12:35:22.000Z</time>
      </trkpt>
      <trkpt lat="45.08704" lon="5.21791">
        <ele>194.7</ele>
        <time>2022-09-17T12:35:23.000Z</time>
      </trkpt>
      <trkpt lat="45.087" lon="5.21783">
        <ele>194.9</ele>
        <time>2022-09-17T12:35:24.000Z</time>
      </trkpt>
      <trkpt lat="45.08695" lon="5.21776">
        <ele>195.5</ele>
        <time>2022-09-17T12:35:25.000Z</time>
      </trkpt>
      <trkpt lat="45.08691" lon="5.21769">
        <ele>194.7</ele>
        <time>2022-09-17T12:35:26.000Z</time>
      </trkpt>
      <trkpt lat="45.08686" lon="5.21761">
        <ele>193.9</ele>
        <time>2022-09-17T12:35:27.000Z</time>
      </trkpt>
      <trkpt lat="45.08682" lon="5.21753">
        <ele>193.6</ele>
        <time>2022-09-17T12:35:28.000Z</time>
      </trkpt>
      <trkpt lat="45.08677" lon="5.21746">
        <ele>193.5</ele>
        <time>2022-09-17T12:35:29.000Z</time>
      </trkpt>
      <trkpt lat="45.08672" lon="5.21737">
        <ele>193.6</ele>
        <time>2022-09-17T12:35:30.000Z</time>
      </trkpt>
      <trkpt lat="45.08667" lon="5.21729">
        <ele>194.1</ele>
        <time>2022-09-17T12:35:31.000Z</time>
      </trkpt>
      <trkpt lat="45.08663" lon="5.2172">
        <ele>193</ele>
        <time>2022-09-17T12:35:32.000Z</time>
      </trkpt>
      <trkpt lat="45.08658" lon="5.21711">
        <ele>190.4</ele>
        <time>2022-09-17T12:35:33.000Z</time>
      </trkpt>
      <trkpt lat="45.08653" lon="5.21702">
        <ele>188.1</ele>
        <time>2022-09-17T12:35:34.000Z</time>
      </trkpt>
      <trkpt lat="45.08649" lon="5.21693">
        <ele>186.7</ele>
        <time>2022-09-17T12:35:35.000Z</time>
      </trkpt>
      <trkpt lat="45.08644" lon="5.21683">
        <ele>186.8</ele>
        <time>2022-09-17T12:35:36.000Z</time>
      </trkpt>
      <trkpt lat="45.08639" lon="5.21674">
        <ele>187</ele>
        <time>2022-09-17T12:35:37.000Z</time>
      </trkpt>
      <trkpt lat="45.08634" lon="5.21664">
        <ele>187.2</ele>
        <time>2022-09-17T12:35:38.000Z</time>
      </trkpt>
      <trkpt lat="45.0863" lon="5.21655">
        <ele>187.9</ele>
        <time>2022-09-17T12:35:39.000Z</time>
      </trkpt>
      <trkpt lat="45.08625" lon="5.21645">
        <ele>188.2</ele>
        <time>2022-09-17T12:35:40.000Z</time>
      </trkpt>
      <trkpt lat="45.0862" lon="5.21635">
        <ele>188.5</ele>
        <time>2022-09-17T12:35:41.000Z</time>
      </trkpt>
      <trkpt lat="45.08616" lon="5.21624">
        <ele>189.8</ele>
        <time>2022-09-17T12:35:42.000Z</time>
      </trkpt>
      <trkpt lat="45.08611" lon="5.21614">
        <ele>191.5</ele>
        <time>2022-09-17T12:35:43.000Z</time>
      </trkpt>
      <trkpt lat="45.08607" lon="5.21603">
        <ele>190.9</ele>
        <time>2022-09-17T12:35:44.000Z</time>
      </trkpt>
      <trkpt lat="45.08603" lon="5.21592">
        <ele>190</ele>
        <time>2022-09-17T12:35:45.000Z</time>
      </trkpt>
      <trkpt lat="45.08599" lon="5.2158">
        <ele>189.4</ele>
        <time>2022-09-17T12:35:46.000Z</time>
      </trkpt>
      <trkpt lat="45.08594" lon="5.21569">
        <ele>189</ele>
        <time>2022-09-17T12:35:47.000Z</time>
      </trkpt>
      <trkpt lat="45.0859" lon="5.21557">
        <ele>188.8</ele>
        <time>2022-09-17T12:35:48.000Z</time>
      </trkpt>
      <trkpt lat="45.08586" lon="5.21545">
        <ele>188.4</ele>
        <time>2022-09-17T12:35:49.000Z</time>
      </trkpt>
      <trkpt lat="45.08582" lon="5.21532">
        <ele>187.3</ele>
        <time>2022-09-17T12:35:50.000Z</time>
      </trkpt>
      <trkpt lat="45.08577" lon="5.21519">
        <ele>187.1</ele>
        <time>2022-09-17T12:35:51.000Z</time>
      </trkpt>
      <trkpt lat="45.08573" lon="5.21507">
        <ele>186.9</ele>
        <time>2022-09-17T12:35:52.000Z</time>
      </trkpt>
      <trkpt lat="45.08569" lon="5.21494">
        <ele>186.8</ele>
        <time>2022-09-17T12:35:53.000Z</time>
      </trkpt>
      <trkpt lat="45.08564" lon="5.21481">
        <ele>186.5</ele>
        <time>2022-09-17T12:35:54.000Z</time>
      </trkpt>
      <trkpt lat="45.0856" lon="5.21469">
        <ele>185.5</ele>
        <time>2022-09-17T12:35:55.000Z</time>
      </trkpt>
      <trkpt lat="45.08555" lon="5.21456">
        <ele>184.6</ele>
        <time>2022-09-17T12:35:56.000Z</time>
      </trkpt>
      <trkpt lat="45.08551" lon="5.21443">
        <ele>185</ele>
        <time>2022-09-17T12:35:57.000Z</time>
      </trkpt>
      <trkpt lat="45.08547" lon="5.21429">
        <ele>185.5</ele>
        <time>2022-09-17T12:35:58.000Z</time>
      </trkpt>
      <trkpt lat="45.08543" lon="5.21416">
        <ele>185.2</ele>
        <time>2022-09-17T12:35:59.000Z</time>
      </trkpt>
      <trkpt lat="45.08539" lon="5.21403">
        <ele>183.4</ele>
        <time>2022-09-17T12:36:00.000Z</time>
      </trkpt>
      <trkpt lat="45.08535" lon="5.21389">
        <ele>181.6</ele>
        <time>2022-09-17T12:36:01.000Z</time>
      </trkpt>
      <trkpt lat="45.08532" lon="5.21377">
        <ele>180.3</ele>
        <time>2022-09-17T12:36:02.000Z</time>
      </trkpt>
      <trkpt lat="45.08528" lon="5.21364">
        <ele>179.1</ele>
        <time>2022-09-17T12:36:03.000Z</time>
      </trkpt>
      <trkpt lat="45.08523" lon="5.21351">
        <ele>179</ele>
        <time>2022-09-17T12:36:04.000Z</time>
      </trkpt>
      <trkpt lat="45.0852" lon="5.21338">
        <ele>179</ele>
        <time>2022-09-17T12:36:05.000Z</time>
      </trkpt>
      <trkpt lat="45.08516" lon="5.21325">
        <ele>178.9</ele>
        <time>2022-09-17T12:36:06.000Z</time>
      </trkpt>
      <trkpt lat="45.08512" lon="5.21312">
        <ele>178.4</ele>
        <time>2022-09-17T12:36:07.000Z</time>
      </trkpt>
      <trkpt lat="45.08508" lon="5.21299">
        <ele>177.4</ele>
        <time>2022-09-17T12:36:08.000Z</time>
      </trkpt>
      <trkpt lat="45.08505" lon="5.21286">
        <ele>176</ele>
        <time>2022-09-17T12:36:09.000Z</time>
      </trkpt>
      <trkpt lat="45.08501" lon="5.21274">
        <ele>174.9</ele>
        <time>2022-09-17T12:36:10.000Z</time>
      </trkpt>
      <trkpt lat="45.08498" lon="5.21261">
        <ele>174.6</ele>
        <time>2022-09-17T12:36:11.000Z</time>
      </trkpt>
      <trkpt lat="45.08494" lon="5.21248">
        <ele>174.8</ele>
        <time>2022-09-17T12:36:12.000Z</time>
      </trkpt>
      <trkpt lat="45.0849" lon="5.21235">
        <ele>174.7</ele>
        <time>2022-09-17T12:36:13.000Z</time>
      </trkpt>
      <trkpt lat="45.08486" lon="5.21221">
        <ele>174</ele>
        <time>2022-09-17T12:36:14.000Z</time>
      </trkpt>
      <trkpt lat="45.08482" lon="5.21208">
        <ele>174.1</ele>
        <time>2022-09-17T12:36:15.000Z</time>
      </trkpt>
      <trkpt lat="45.0848" lon="5.21194">
        <ele>173.5</ele>
        <time>2022-09-17T12:36:16.000Z</time>
      </trkpt>
      <trkpt lat="45.08479" lon="5.2118">
        <ele>172.3</ele>
        <time>2022-09-17T12:36:17.000Z</time>
      </trkpt>
      <trkpt lat="45.08479" lon="5.21165">
        <ele>171.3</ele>
        <time>2022-09-17T12:36:18.000Z</time>
      </trkpt>
      <trkpt lat="45.08481" lon="5.21151">
        <ele>170.4</ele>
        <time>2022-09-17T12:36:19.000Z</time>
      </trkpt>
      <trkpt lat="45.08485" lon="5.21137">
        <ele>169.4</ele>
        <time>2022-09-17T12:36:20.000Z</time>
      </trkpt>
      <trkpt lat="45.08489" lon="5.21123">
        <ele>168</ele>
        <time>2022-09-17T12:36:21.000Z</time>
      </trkpt>
      <trkpt lat="45.08493" lon="5.2111">
        <ele>167.2</ele>
        <time>2022-09-17T12:36:22.000Z</time>
      </trkpt>
      <trkpt lat="45.08498" lon="5.21097">
        <ele>167.8</ele>
        <time>2022-09-17T12:36:23.000Z</time>
      </trkpt>
      <trkpt lat="45.08502" lon="5.21083">
        <ele>168.7</ele>
        <time>2022-09-17T12:36:24.000Z</time>
      </trkpt>
      <trkpt lat="45.08507" lon="5.2107">
        <ele>168.8</ele>
        <time>2022-09-17T12:36:25.000Z</time>
      </trkpt>
      <trkpt lat="45.08511" lon="5.21057">
        <ele>168.7</ele>
        <time>2022-09-17T12:36:26.000Z</time>
      </trkpt>
      <trkpt lat="45.08515" lon="5.21044">
        <ele>168.2</ele>
        <time>2022-09-17T12:36:27.000Z</time>
      </trkpt>
      <trkpt lat="45.08518" lon="5.21031">
        <ele>167.3</ele>
        <time>2022-09-17T12:36:28.000Z</time>
      </trkpt>
      <trkpt lat="45.08521" lon="5.21017">
        <ele>166.2</ele>
        <time>2022-09-17T12:36:29.000Z</time>
      </trkpt>
      <trkpt lat="45.08523" lon="5.21003">
        <ele>164.8</ele>
        <time>2022-09-17T12:36:30.000Z</time>
      </trkpt>
      <trkpt lat="45.08523" lon="5.20989">
        <ele>163.7</ele>
        <time>2022-09-17T12:36:31.000Z</time>
      </trkpt>
      <trkpt lat="45.08523" lon="5.20975">
        <ele>162.7</ele>
        <time>2022-09-17T12:36:32.000Z</time>
      </trkpt>
      <trkpt lat="45.08523" lon="5.20961">
        <ele>161.2</ele>
        <time>2022-09-17T12:36:33.000Z</time>
      </trkpt>
      <trkpt lat="45.08524" lon="5.20947">
        <ele>159.6</ele>
        <time>2022-09-17T12:36:34.000Z</time>
      </trkpt>
      <trkpt lat="45.08524" lon="5.20934">
        <ele>156.3</ele>
        <time>2022-09-17T12:36:35.000Z</time>
      </trkpt>
      <trkpt lat="45.08524" lon="5.2092">
        <ele>152.7</ele>
        <time>2022-09-17T12:36:36.000Z</time>
      </trkpt>
      <trkpt lat="45.08523" lon="5.20907">
        <ele>153.1</ele>
        <time>2022-09-17T12:36:37.000Z</time>
      </trkpt>
      <trkpt lat="45.08523" lon="5.20894">
        <ele>154.9</ele>
        <time>2022-09-17T12:36:38.000Z</time>
      </trkpt>
      <trkpt lat="45.08523" lon="5.20882">
        <ele>156.9</ele>
        <time>2022-09-17T12:36:39.000Z</time>
      </trkpt>
      <trkpt lat="45.08523" lon="5.2087">
        <ele>159.3</ele>
        <time>2022-09-17T12:36:40.000Z</time>
      </trkpt>
      <trkpt lat="45.08524" lon="5.20858">
        <ele>160.9</ele>
        <time>2022-09-17T12:36:41.000Z</time>
      </trkpt>
      <trkpt lat="45.08524" lon="5.20846">
        <ele>161</ele>
        <time>2022-09-17T12:36:42.000Z</time>
      </trkpt>
      <trkpt lat="45.08523" lon="5.20835">
        <ele>160.9</ele>
        <time>2022-09-17T12:36:43.000Z</time>
      </trkpt>
      <trkpt lat="45.08523" lon="5.20823">
        <ele>161.2</ele>
        <time>2022-09-17T12:36:44.000Z</time>
      </trkpt>
      <trkpt lat="45.08523" lon="5.20811">
        <ele>161.4</ele>
        <time>2022-09-17T12:36:45.000Z</time>
      </trkpt>
      <trkpt lat="45.08523" lon="5.20799">
        <ele>162.1</ele>
        <time>2022-09-17T12:36:46.000Z</time>
      </trkpt>
      <trkpt lat="45.08522" lon="5.20788">
        <ele>163.1</ele>
        <time>2022-09-17T12:36:47.000Z</time>
      </trkpt>
      <trkpt lat="45.08522" lon="5.20776">
        <ele>164</ele>
        <time>2022-09-17T12:36:48.000Z</time>
      </trkpt>
      <trkpt lat="45.08521" lon="5.20764">
        <ele>164.9</ele>
        <time>2022-09-17T12:36:49.000Z</time>
      </trkpt>
      <trkpt lat="45.08521" lon="5.20753">
        <ele>165.7</ele>
        <time>2022-09-17T12:36:50.000Z</time>
      </trkpt>
      <trkpt lat="45.08521" lon="5.20742">
        <ele>165.5</ele>
        <time>2022-09-17T12:36:51.000Z</time>
      </trkpt>
      <trkpt lat="45.08521" lon="5.2073">
        <ele>165</ele>
        <time>2022-09-17T12:36:52.000Z</time>
      </trkpt>
      <trkpt lat="45.08521" lon="5.20719">
        <ele>164.6</ele>
        <time>2022-09-17T12:36:53.000Z</time>
      </trkpt>
      <trkpt lat="45.08521" lon="5.20709">
        <ele>164</ele>
        <time>2022-09-17T12:36:54.000Z</time>
      </trkpt>
      <trkpt lat="45.08521" lon="5.20698">
        <ele>163.6</ele>
        <time>2022-09-17T12:36:55.000Z</time>
      </trkpt>
      <trkpt lat="45.08521" lon="5.20687">
        <ele>163.7</ele>
        <time>2022-09-17T12:36:56.000Z</time>
      </trkpt>
      <trkpt lat="45.0852" lon="5.20677">
        <ele>164</ele>
        <time>2022-09-17T12:36:57.000Z</time>
      </trkpt>
      <trkpt lat="45.0852" lon="5.20666">
        <ele>164.2</ele>
        <time>2022-09-17T12:36:58.000Z</time>
      </trkpt>
      <trkpt lat="45.08519" lon="5.20656">
        <ele>164.4</ele>
        <time>2022-09-17T12:36:59.000Z</time>
      </trkpt>
      <trkpt lat="45.08519" lon="5.20646">
        <ele>164.7</ele>
        <time>2022-09-17T12:37:00.000Z</time>
      </trkpt>
      <trkpt lat="45.0852" lon="5.20637">
        <ele>165</ele>
        <time>2022-09-17T12:37:01.000Z</time>
      </trkpt>
      <trkpt lat="45.0852" lon="5.20627">
        <ele>164.9</ele>
        <time>2022-09-17T12:37:02.000Z</time>
      </trkpt>
      <trkpt lat="45.08519" lon="5.20618">
        <ele>164.9</ele>
        <time>2022-09-17T12:37:03.000Z</time>
      </trkpt>
      <trkpt lat="45.08519" lon="5.20608">
        <ele>164.8</ele>
        <time>2022-09-17T12:37:04.000Z</time>
      </trkpt>
      <trkpt lat="45.08519" lon="5.20599">
        <ele>164.8</ele>
        <time>2022-09-17T12:37:05.000Z</time>
      </trkpt>
      <trkpt lat="45.08519" lon="5.20591">
        <ele>164.7</ele>
        <time>2022-09-17T12:37:06.000Z</time>
      </trkpt>
      <trkpt lat="45.08519" lon="5.20582">
        <ele>164.7</ele>
        <time>2022-09-17T12:37:07.000Z</time>
      </trkpt>
      <trkpt lat="45.08519" lon="5.20573">
        <ele>164.4</ele>
        <time>2022-09-17T12:37:08.000Z</time>
      </trkpt>
      <trkpt lat="45.08518" lon="5.20565">
        <ele>164.2</ele>
        <time>2022-09-17T12:37:09.000Z</time>
      </trkpt>
      <trkpt lat="45.08518" lon="5.20556">
        <ele>164</ele>
        <time>2022-09-17T12:37:10.000Z</time>
      </trkpt>
      <trkpt lat="45.08518" lon="5.20547">
        <ele>163.9</ele>
        <time>2022-09-17T12:37:11.000Z</time>
      </trkpt>
      <trkpt lat="45.08518" lon="5.20539">
        <ele>163.9</ele>
        <time>2022-09-17T12:37:12.000Z</time>
      </trkpt>
      <trkpt lat="45.08518" lon="5.20531">
        <ele>163.8</ele>
        <time>2022-09-17T12:37:13.000Z</time>
      </trkpt>
      <trkpt lat="45.08517" lon="5.20522">
        <ele>163.6</ele>
        <time>2022-09-17T12:37:14.000Z</time>
      </trkpt>
      <trkpt lat="45.08517" lon="5.20514">
        <ele>163.3</ele>
        <time>2022-09-17T12:37:15.000Z</time>
      </trkpt>
      <trkpt lat="45.08517" lon="5.20506">
        <ele>163.1</ele>
        <time>2022-09-17T12:37:16.000Z</time>
      </trkpt>
      <trkpt lat="45.08517" lon="5.20497">
        <ele>162.7</ele>
        <time>2022-09-17T12:37:17.000Z</time>
      </trkpt>
      <trkpt lat="45.08517" lon="5.20489">
        <ele>162.2</ele>
        <time>2022-09-17T12:37:18.000Z</time>
      </trkpt>
      <trkpt lat="45.08516" lon="5.20481">
        <ele>161.7</ele>
        <time>2022-09-17T12:37:19.000Z</time>
      </trkpt>
      <trkpt lat="45.08516" lon="5.20473">
        <ele>161.2</ele>
        <time>2022-09-17T12:37:20.000Z</time>
      </trkpt>
      <trkpt lat="45.08516" lon="5.20464">
        <ele>161.6</ele>
        <time>2022-09-17T12:37:21.000Z</time>
      </trkpt>
      <trkpt lat="45.08516" lon="5.20456">
        <ele>161.9</ele>
        <time>2022-09-17T12:37:22.000Z</time>
      </trkpt>
      <trkpt lat="45.08515" lon="5.20448">
        <ele>162.1</ele>
        <time>2022-09-17T12:37:23.000Z</time>
      </trkpt>
      <trkpt lat="45.08515" lon="5.2044">
        <ele>162.6</ele>
        <time>2022-09-17T12:37:24.000Z</time>
      </trkpt>
      <trkpt lat="45.08515" lon="5.20431">
        <ele>163.1</ele>
        <time>2022-09-17T12:37:25.000Z</time>
      </trkpt>
      <trkpt lat="45.08514" lon="5.20422">
        <ele>163.6</ele>
        <time>2022-09-17T12:37:26.000Z</time>
      </trkpt>
      <trkpt lat="45.08514" lon="5.20414">
        <ele>163.9</ele>
        <time>2022-09-17T12:37:27.000Z</time>
      </trkpt>
      <trkpt lat="45.08514" lon="5.20406">
        <ele>163.6</ele>
        <time>2022-09-17T12:37:28.000Z</time>
      </trkpt>
      <trkpt lat="45.08514" lon="5.20397">
        <ele>163.3</ele>
        <time>2022-09-17T12:37:29.000Z</time>
      </trkpt>
      <trkpt lat="45.08514" lon="5.20388">
        <ele>163</ele>
        <time>2022-09-17T12:37:30.000Z</time>
      </trkpt>
      <trkpt lat="45.08514" lon="5.20379">
        <ele>163</ele>
        <time>2022-09-17T12:37:31.000Z</time>
      </trkpt>
      <trkpt lat="45.08514" lon="5.2037">
        <ele>163</ele>
        <time>2022-09-17T12:37:32.000Z</time>
      </trkpt>
      <trkpt lat="45.08514" lon="5.20361">
        <ele>163</ele>
        <time>2022-09-17T12:37:33.000Z</time>
      </trkpt>
      <trkpt lat="45.08514" lon="5.20352">
        <ele>163</ele>
        <time>2022-09-17T12:37:34.000Z</time>
      </trkpt>
      <trkpt lat="45.08514" lon="5.20343">
        <ele>163</ele>
        <time>2022-09-17T12:37:35.000Z</time>
      </trkpt>
      <trkpt lat="45.08514" lon="5.20334">
        <ele>163</ele>
        <time>2022-09-17T12:37:36.000Z</time>
      </trkpt>
      <trkpt lat="45.08514" lon="5.20325">
        <ele>162.7</ele>
        <time>2022-09-17T12:37:37.000Z</time>
      </trkpt>
      <trkpt lat="45.08514" lon="5.20316">
        <ele>162.4</ele>
        <time>2022-09-17T12:37:38.000Z</time>
      </trkpt>
      <trkpt lat="45.08514" lon="5.20307">
        <ele>162</ele>
        <time>2022-09-17T12:37:39.000Z</time>
      </trkpt>
      <trkpt lat="45.08514" lon="5.20298">
        <ele>162.1</ele>
        <time>2022-09-17T12:37:40.000Z</time>
      </trkpt>
      <trkpt lat="45.08514" lon="5.20289">
        <ele>162.3</ele>
        <time>2022-09-17T12:37:41.000Z</time>
      </trkpt>
      <trkpt lat="45.08514" lon="5.2028">
        <ele>162.5</ele>
        <time>2022-09-17T12:37:42.000Z</time>
      </trkpt>
      <trkpt lat="45.08514" lon="5.20271">
        <ele>162.4</ele>
        <time>2022-09-17T12:37:43.000Z</time>
      </trkpt>
      <trkpt lat="45.08514" lon="5.20262">
        <ele>162.2</ele>
        <time>2022-09-17T12:37:44.000Z</time>
      </trkpt>
      <trkpt lat="45.08514" lon="5.20254">
        <ele>162</ele>
        <time>2022-09-17T12:37:45.000Z</time>
      </trkpt>
      <trkpt lat="45.08513" lon="5.20245">
        <ele>162.1</ele>
        <time>2022-09-17T12:37:46.000Z</time>
      </trkpt>
      <trkpt lat="45.08513" lon="5.20236">
        <ele>162.2</ele>
        <time>2022-09-17T12:37:47.000Z</time>
      </trkpt>
      <trkpt lat="45.08513" lon="5.20227">
        <ele>162.4</ele>
        <time>2022-09-17T12:37:48.000Z</time>
      </trkpt>
      <trkpt lat="45.08513" lon="5.20217">
        <ele>162.5</ele>
        <time>2022-09-17T12:37:49.000Z</time>
      </trkpt>
      <trkpt lat="45.08512" lon="5.20207">
        <ele>162.4</ele>
        <time>2022-09-17T12:37:50.000Z</time>
      </trkpt>
      <trkpt lat="45.08512" lon="5.20197">
        <ele>162.4</ele>
        <time>2022-09-17T12:37:51.000Z</time>
      </trkpt>
      <trkpt lat="45.08512" lon="5.20187">
        <ele>162.4</ele>
        <time>2022-09-17T12:37:52.000Z</time>
      </trkpt>
      <trkpt lat="45.08512" lon="5.20177">
        <ele>162.4</ele>
        <time>2022-09-17T12:37:53.000Z</time>
      </trkpt>
      <trkpt lat="45.08512" lon="5.20167">
        <ele>162.4</ele>
        <time>2022-09-17T12:37:54.000Z</time>
      </trkpt>
      <trkpt lat="45.08511" lon="5.20157">
        <ele>162.6</ele>
        <time>2022-09-17T12:37:55.000Z</time>
      </trkpt>
      <trkpt lat="45.08511" lon="5.20147">
        <ele>162.7</ele>
        <time>2022-09-17T12:37:56.000Z</time>
      </trkpt>
      <trkpt lat="45.08511" lon="5.20137">
        <ele>162.8</ele>
        <time>2022-09-17T12:37:57.000Z</time>
      </trkpt>
      <trkpt lat="45.08511" lon="5.20127">
        <ele>162.8</ele>
        <time>2022-09-17T12:37:58.000Z</time>
      </trkpt>
      <trkpt lat="45.08511" lon="5.20117">
        <ele>162.8</ele>
        <time>2022-09-17T12:37:59.000Z</time>
      </trkpt>
      <trkpt lat="45.08511" lon="5.20108">
        <ele>162.8</ele>
        <time>2022-09-17T12:38:00.000Z</time>
      </trkpt>
      <trkpt lat="45.08511" lon="5.20099">
        <ele>163</ele>
        <time>2022-09-17T12:38:01.000Z</time>
      </trkpt>
      <trkpt lat="45.08511" lon="5.2009">
        <ele>163.1</ele>
        <time>2022-09-17T12:38:02.000Z</time>
      </trkpt>
      <trkpt lat="45.08511" lon="5.20082">
        <ele>163.1</ele>
        <time>2022-09-17T12:38:03.000Z</time>
      </trkpt>
      <trkpt lat="45.08511" lon="5.20073">
        <ele>162.9</ele>
        <time>2022-09-17T12:38:04.000Z</time>
      </trkpt>
      <trkpt lat="45.0851" lon="5.20065">
        <ele>162.7</ele>
        <time>2022-09-17T12:38:05.000Z</time>
      </trkpt>
      <trkpt lat="45.0851" lon="5.20057">
        <ele>162.5</ele>
        <time>2022-09-17T12:38:06.000Z</time>
      </trkpt>
      <trkpt lat="45.0851" lon="5.20048">
        <ele>162.5</ele>
        <time>2022-09-17T12:38:07.000Z</time>
      </trkpt>
      <trkpt lat="45.0851" lon="5.20039">
        <ele>162.5</ele>
        <time>2022-09-17T12:38:08.000Z</time>
      </trkpt>
      <trkpt lat="45.0851" lon="5.20031">
        <ele>162.5</ele>
        <time>2022-09-17T12:38:09.000Z</time>
      </trkpt>
      <trkpt lat="45.0851" lon="5.20022">
        <ele>162.4</ele>
        <time>2022-09-17T12:38:10.000Z</time>
      </trkpt>
      <trkpt lat="45.0851" lon="5.20012">
        <ele>162.3</ele>
        <time>2022-09-17T12:38:11.000Z</time>
      </trkpt>
      <trkpt lat="45.0851" lon="5.20003">
        <ele>162.2</ele>
        <time>2022-09-17T12:38:12.000Z</time>
      </trkpt>
      <trkpt lat="45.0851" lon="5.19994">
        <ele>162</ele>
        <time>2022-09-17T12:38:13.000Z</time>
      </trkpt>
      <trkpt lat="45.0851" lon="5.19985">
        <ele>161.7</ele>
        <time>2022-09-17T12:38:14.000Z</time>
      </trkpt>
      <trkpt lat="45.0851" lon="5.19975">
        <ele>161.5</ele>
        <time>2022-09-17T12:38:15.000Z</time>
      </trkpt>
      <trkpt lat="45.0851" lon="5.19966">
        <ele>161.8</ele>
        <time>2022-09-17T12:38:16.000Z</time>
      </trkpt>
      <trkpt lat="45.0851" lon="5.19956">
        <ele>162.3</ele>
        <time>2022-09-17T12:38:17.000Z</time>
      </trkpt>
      <trkpt lat="45.0851" lon="5.19947">
        <ele>162.9</ele>
        <time>2022-09-17T12:38:18.000Z</time>
      </trkpt>
      <trkpt lat="45.0851" lon="5.19937">
        <ele>163</ele>
        <time>2022-09-17T12:38:19.000Z</time>
      </trkpt>
      <trkpt lat="45.08509" lon="5.19928">
        <ele>163</ele>
        <time>2022-09-17T12:38:20.000Z</time>
      </trkpt>
      <trkpt lat="45.08509" lon="5.19918">
        <ele>163</ele>
        <time>2022-09-17T12:38:21.000Z</time>
      </trkpt>
      <trkpt lat="45.08509" lon="5.19908">
        <ele>162.9</ele>
        <time>2022-09-17T12:38:22.000Z</time>
      </trkpt>
      <trkpt lat="45.0851" lon="5.19899">
        <ele>162.8</ele>
        <time>2022-09-17T12:38:23.000Z</time>
      </trkpt>
      <trkpt lat="45.0851" lon="5.19889">
        <ele>162.8</ele>
        <time>2022-09-17T12:38:24.000Z</time>
      </trkpt>
      <trkpt lat="45.0851" lon="5.19879">
        <ele>162.7</ele>
        <time>2022-09-17T12:38:25.000Z</time>
      </trkpt>
      <trkpt lat="45.08511" lon="5.19869">
        <ele>162.6</ele>
        <time>2022-09-17T12:38:26.000Z</time>
      </trkpt>
      <trkpt lat="45.08511" lon="5.19859">
        <ele>162.6</ele>
        <time>2022-09-17T12:38:27.000Z</time>
      </trkpt>
      <trkpt lat="45.08511" lon="5.19849">
        <ele>162.6</ele>
        <time>2022-09-17T12:38:28.000Z</time>
      </trkpt>
      <trkpt lat="45.08511" lon="5.19839">
        <ele>162.6</ele>
        <time>2022-09-17T12:38:29.000Z</time>
      </trkpt>
      <trkpt lat="45.08511" lon="5.19829">
        <ele>162.5</ele>
        <time>2022-09-17T12:38:30.000Z</time>
      </trkpt>
      <trkpt lat="45.08511" lon="5.1982">
        <ele>162.4</ele>
        <time>2022-09-17T12:38:31.000Z</time>
      </trkpt>
      <trkpt lat="45.08511" lon="5.1981">
        <ele>162.3</ele>
        <time>2022-09-17T12:38:32.000Z</time>
      </trkpt>
      <trkpt lat="45.08511" lon="5.19801">
        <ele>162.1</ele>
        <time>2022-09-17T12:38:33.000Z</time>
      </trkpt>
      <trkpt lat="45.08512" lon="5.19791">
        <ele>162</ele>
        <time>2022-09-17T12:38:34.000Z</time>
      </trkpt>
      <trkpt lat="45.08512" lon="5.19782">
        <ele>161.8</ele>
        <time>2022-09-17T12:38:35.000Z</time>
      </trkpt>
      <trkpt lat="45.08512" lon="5.19773">
        <ele>161.6</ele>
        <time>2022-09-17T12:38:36.000Z</time>
      </trkpt>
      <trkpt lat="45.08513" lon="5.19763">
        <ele>161.3</ele>
        <time>2022-09-17T12:38:37.000Z</time>
      </trkpt>
      <trkpt lat="45.08513" lon="5.19754">
        <ele>161</ele>
        <time>2022-09-17T12:38:38.000Z</time>
      </trkpt>
      <trkpt lat="45.08513" lon="5.19745">
        <ele>160.7</ele>
        <time>2022-09-17T12:38:39.000Z</time>
      </trkpt>
      <trkpt lat="45.08513" lon="5.19736">
        <ele>160.6</ele>
        <time>2022-09-17T12:38:40.000Z</time>
      </trkpt>
      <trkpt lat="45.08513" lon="5.19727">
        <ele>160.5</ele>
        <time>2022-09-17T12:38:41.000Z</time>
      </trkpt>
      <trkpt lat="45.08514" lon="5.19718">
        <ele>160.4</ele>
        <time>2022-09-17T12:38:42.000Z</time>
      </trkpt>
      <trkpt lat="45.08513" lon="5.19708">
        <ele>160.2</ele>
        <time>2022-09-17T12:38:43.000Z</time>
      </trkpt>
      <trkpt lat="45.08513" lon="5.19699">
        <ele>160</ele>
        <time>2022-09-17T12:38:44.000Z</time>
      </trkpt>
      <trkpt lat="45.08513" lon="5.19689">
        <ele>160</ele>
        <time>2022-09-17T12:38:45.000Z</time>
      </trkpt>
      <trkpt lat="45.08513" lon="5.1968">
        <ele>160.2</ele>
        <time>2022-09-17T12:38:46.000Z</time>
      </trkpt>
      <trkpt lat="45.08514" lon="5.1967">
        <ele>160.4</ele>
        <time>2022-09-17T12:38:47.000Z</time>
      </trkpt>
      <trkpt lat="45.08514" lon="5.1966">
        <ele>160.4</ele>
        <time>2022-09-17T12:38:48.000Z</time>
      </trkpt>
      <trkpt lat="45.08514" lon="5.19651">
        <ele>160.2</ele>
        <time>2022-09-17T12:38:49.000Z</time>
      </trkpt>
      <trkpt lat="45.08514" lon="5.19641">
        <ele>160</ele>
        <time>2022-09-17T12:38:50.000Z</time>
      </trkpt>
      <trkpt lat="45.08514" lon="5.19632">
        <ele>160</ele>
        <time>2022-09-17T12:38:51.000Z</time>
      </trkpt>
      <trkpt lat="45.08514" lon="5.19623">
        <ele>160</ele>
        <time>2022-09-17T12:38:52.000Z</time>
      </trkpt>
      <trkpt lat="45.08515" lon="5.19614">
        <ele>160</ele>
        <time>2022-09-17T12:38:53.000Z</time>
      </trkpt>
      <trkpt lat="45.08515" lon="5.19605">
        <ele>160.1</ele>
        <time>2022-09-17T12:38:54.000Z</time>
      </trkpt>
      <trkpt lat="45.08515" lon="5.19595">
        <ele>160.1</ele>
        <time>2022-09-17T12:38:55.000Z</time>
      </trkpt>
      <trkpt lat="45.08515" lon="5.19586">
        <ele>160.1</ele>
        <time>2022-09-17T12:38:56.000Z</time>
      </trkpt>
      <trkpt lat="45.08515" lon="5.19576">
        <ele>159.9</ele>
        <time>2022-09-17T12:38:57.000Z</time>
      </trkpt>
      <trkpt lat="45.08515" lon="5.19566">
        <ele>159.8</ele>
        <time>2022-09-17T12:38:58.000Z</time>
      </trkpt>
      <trkpt lat="45.08515" lon="5.19556">
        <ele>159.7</ele>
        <time>2022-09-17T12:38:59.000Z</time>
      </trkpt>
      <trkpt lat="45.08516" lon="5.19546">
        <ele>159.3</ele>
        <time>2022-09-17T12:39:00.000Z</time>
      </trkpt>
      <trkpt lat="45.08516" lon="5.19536">
        <ele>159</ele>
        <time>2022-09-17T12:39:01.000Z</time>
      </trkpt>
      <trkpt lat="45.08516" lon="5.19526">
        <ele>158.7</ele>
        <time>2022-09-17T12:39:02.000Z</time>
      </trkpt>
      <trkpt lat="45.08517" lon="5.19515">
        <ele>158.3</ele>
        <time>2022-09-17T12:39:03.000Z</time>
      </trkpt>
      <trkpt lat="45.08518" lon="5.19504">
        <ele>158</ele>
        <time>2022-09-17T12:39:04.000Z</time>
      </trkpt>
      <trkpt lat="45.08518" lon="5.19492">
        <ele>157.5</ele>
        <time>2022-09-17T12:39:05.000Z</time>
      </trkpt>
      <trkpt lat="45.08519" lon="5.19481">
        <ele>156.9</ele>
        <time>2022-09-17T12:39:06.000Z</time>
      </trkpt>
      <trkpt lat="45.0852" lon="5.1947">
        <ele>156.4</ele>
        <time>2022-09-17T12:39:07.000Z</time>
      </trkpt>
      <trkpt lat="45.08521" lon="5.19459">
        <ele>156.4</ele>
        <time>2022-09-17T12:39:08.000Z</time>
      </trkpt>
      <trkpt lat="45.08522" lon="5.19448">
        <ele>156.4</ele>
        <time>2022-09-17T12:39:09.000Z</time>
      </trkpt>
      <trkpt lat="45.08523" lon="5.19438">
        <ele>156.5</ele>
        <time>2022-09-17T12:39:10.000Z</time>
      </trkpt>
      <trkpt lat="45.08524" lon="5.19427">
        <ele>156.6</ele>
        <time>2022-09-17T12:39:11.000Z</time>
      </trkpt>
      <trkpt lat="45.08525" lon="5.19416">
        <ele>156.6</ele>
        <time>2022-09-17T12:39:12.000Z</time>
      </trkpt>
      <trkpt lat="45.08525" lon="5.19406">
        <ele>156.3</ele>
        <time>2022-09-17T12:39:13.000Z</time>
      </trkpt>
      <trkpt lat="45.08526" lon="5.19395">
        <ele>156.1</ele>
        <time>2022-09-17T12:39:14.000Z</time>
      </trkpt>
      <trkpt lat="45.08527" lon="5.19385">
        <ele>155.7</ele>
        <time>2022-09-17T12:39:15.000Z</time>
      </trkpt>
      <trkpt lat="45.08527" lon="5.19374">
        <ele>155.4</ele>
        <time>2022-09-17T12:39:16.000Z</time>
      </trkpt>
      <trkpt lat="45.08528" lon="5.19364">
        <ele>155.1</ele>
        <time>2022-09-17T12:39:17.000Z</time>
      </trkpt>
      <trkpt lat="45.08529" lon="5.19353">
        <ele>155.1</ele>
        <time>2022-09-17T12:39:18.000Z</time>
      </trkpt>
      <trkpt lat="45.0853" lon="5.19342">
        <ele>155.2</ele>
        <time>2022-09-17T12:39:19.000Z</time>
      </trkpt>
      <trkpt lat="45.08531" lon="5.19331">
        <ele>155.2</ele>
        <time>2022-09-17T12:39:20.000Z</time>
      </trkpt>
      <trkpt lat="45.08532" lon="5.1932">
        <ele>154.9</ele>
        <time>2022-09-17T12:39:21.000Z</time>
      </trkpt>
      <trkpt lat="45.08532" lon="5.19309">
        <ele>154.6</ele>
        <time>2022-09-17T12:39:22.000Z</time>
      </trkpt>
      <trkpt lat="45.08533" lon="5.19298">
        <ele>154.5</ele>
        <time>2022-09-17T12:39:23.000Z</time>
      </trkpt>
      <trkpt lat="45.08534" lon="5.19287">
        <ele>154.5</ele>
        <time>2022-09-17T12:39:24.000Z</time>
      </trkpt>
      <trkpt lat="45.08535" lon="5.19276">
        <ele>154.5</ele>
        <time>2022-09-17T12:39:25.000Z</time>
      </trkpt>
      <trkpt lat="45.08535" lon="5.19266">
        <ele>154.5</ele>
        <time>2022-09-17T12:39:26.000Z</time>
      </trkpt>
      <trkpt lat="45.08536" lon="5.19255">
        <ele>154.6</ele>
        <time>2022-09-17T12:39:27.000Z</time>
      </trkpt>
      <trkpt lat="45.08537" lon="5.19244">
        <ele>154.5</ele>
        <time>2022-09-17T12:39:28.000Z</time>
      </trkpt>
      <trkpt lat="45.08538" lon="5.19233">
        <ele>154.4</ele>
        <time>2022-09-17T12:39:29.000Z</time>
      </trkpt>
      <trkpt lat="45.08539" lon="5.19223">
        <ele>154.3</ele>
        <time>2022-09-17T12:39:30.000Z</time>
      </trkpt>
      <trkpt lat="45.0854" lon="5.19212">
        <ele>154.3</ele>
        <time>2022-09-17T12:39:31.000Z</time>
      </trkpt>
      <trkpt lat="45.08541" lon="5.19201">
        <ele>154.4</ele>
        <time>2022-09-17T12:39:32.000Z</time>
      </trkpt>
      <trkpt lat="45.08542" lon="5.19191">
        <ele>154.4</ele>
        <time>2022-09-17T12:39:33.000Z</time>
      </trkpt>
      <trkpt lat="45.08542" lon="5.19181">
        <ele>154</ele>
        <time>2022-09-17T12:39:34.000Z</time>
      </trkpt>
      <trkpt lat="45.08543" lon="5.19171">
        <ele>153.7</ele>
        <time>2022-09-17T12:39:35.000Z</time>
      </trkpt>
      <trkpt lat="45.08544" lon="5.19162">
        <ele>153.6</ele>
        <time>2022-09-17T12:39:36.000Z</time>
      </trkpt>
      <trkpt lat="45.08544" lon="5.19152">
        <ele>153.6</ele>
        <time>2022-09-17T12:39:37.000Z</time>
      </trkpt>
      <trkpt lat="45.08545" lon="5.19142">
        <ele>153.6</ele>
        <time>2022-09-17T12:39:38.000Z</time>
      </trkpt>
      <trkpt lat="45.08546" lon="5.19133">
        <ele>153.7</ele>
        <time>2022-09-17T12:39:39.000Z</time>
      </trkpt>
      <trkpt lat="45.08546" lon="5.19123">
        <ele>153.9</ele>
        <time>2022-09-17T12:39:40.000Z</time>
      </trkpt>
      <trkpt lat="45.08547" lon="5.19114">
        <ele>154.1</ele>
        <time>2022-09-17T12:39:41.000Z</time>
      </trkpt>
      <trkpt lat="45.08548" lon="5.19105">
        <ele>154.2</ele>
        <time>2022-09-17T12:39:42.000Z</time>
      </trkpt>
      <trkpt lat="45.08549" lon="5.19095">
        <ele>154.3</ele>
        <time>2022-09-17T12:39:43.000Z</time>
      </trkpt>
      <trkpt lat="45.0855" lon="5.19086">
        <ele>154.4</ele>
        <time>2022-09-17T12:39:44.000Z</time>
      </trkpt>
      <trkpt lat="45.0855" lon="5.19076">
        <ele>154.2</ele>
        <time>2022-09-17T12:39:45.000Z</time>
      </trkpt>
      <trkpt lat="45.08551" lon="5.19067">
        <ele>154</ele>
        <time>2022-09-17T12:39:46.000Z</time>
      </trkpt>
      <trkpt lat="45.08551" lon="5.19057">
        <ele>153.7</ele>
        <time>2022-09-17T12:39:47.000Z</time>
      </trkpt>
      <trkpt lat="45.08552" lon="5.19047">
        <ele>153.5</ele>
        <time>2022-09-17T12:39:48.000Z</time>
      </trkpt>
      <trkpt lat="45.08553" lon="5.19037">
        <ele>153.2</ele>
        <time>2022-09-17T12:39:49.000Z</time>
      </trkpt>
      <trkpt lat="45.08553" lon="5.19027">
        <ele>152.9</ele>
        <time>2022-09-17T12:39:50.000Z</time>
      </trkpt>
      <trkpt lat="45.08554" lon="5.19016">
        <ele>152.9</ele>
        <time>2022-09-17T12:39:51.000Z</time>
      </trkpt>
      <trkpt lat="45.08555" lon="5.19006">
        <ele>153</ele>
        <time>2022-09-17T12:39:52.000Z</time>
      </trkpt>
      <trkpt lat="45.08556" lon="5.18996">
        <ele>153</ele>
        <time>2022-09-17T12:39:53.000Z</time>
      </trkpt>
      <trkpt lat="45.08557" lon="5.18986">
        <ele>153</ele>
        <time>2022-09-17T12:39:54.000Z</time>
      </trkpt>
      <trkpt lat="45.08558" lon="5.18976">
        <ele>153.1</ele>
        <time>2022-09-17T12:39:55.000Z</time>
      </trkpt>
      <trkpt lat="45.08558" lon="5.18967">
        <ele>153.1</ele>
        <time>2022-09-17T12:39:56.000Z</time>
      </trkpt>
      <trkpt lat="45.08559" lon="5.18958">
        <ele>153.1</ele>
        <time>2022-09-17T12:39:57.000Z</time>
      </trkpt>
      <trkpt lat="45.0856" lon="5.18949">
        <ele>153.1</ele>
        <time>2022-09-17T12:39:58.000Z</time>
      </trkpt>
      <trkpt lat="45.0856" lon="5.18941">
        <ele>153.1</ele>
        <time>2022-09-17T12:39:59.000Z</time>
      </trkpt>
      <trkpt lat="45.08561" lon="5.18933">
        <ele>153.1</ele>
        <time>2022-09-17T12:40:00.000Z</time>
      </trkpt>
      <trkpt lat="45.08561" lon="5.18925">
        <ele>153.1</ele>
        <time>2022-09-17T12:40:01.000Z</time>
      </trkpt>
      <trkpt lat="45.08562" lon="5.18917">
        <ele>153</ele>
        <time>2022-09-17T12:40:02.000Z</time>
      </trkpt>
      <trkpt lat="45.08562" lon="5.18909">
        <ele>153</ele>
        <time>2022-09-17T12:40:03.000Z</time>
      </trkpt>
      <trkpt lat="45.08563" lon="5.18902">
        <ele>153</ele>
        <time>2022-09-17T12:40:04.000Z</time>
      </trkpt>
      <trkpt lat="45.08564" lon="5.18894">
        <ele>153</ele>
        <time>2022-09-17T12:40:05.000Z</time>
      </trkpt>
      <trkpt lat="45.08564" lon="5.18886">
        <ele>153</ele>
        <time>2022-09-17T12:40:06.000Z</time>
      </trkpt>
      <trkpt lat="45.08564" lon="5.18879">
        <ele>153.1</ele>
        <time>2022-09-17T12:40:07.000Z</time>
      </trkpt>
      <trkpt lat="45.08565" lon="5.18871">
        <ele>153.2</ele>
        <time>2022-09-17T12:40:08.000Z</time>
      </trkpt>
      <trkpt lat="45.08565" lon="5.18863">
        <ele>153.3</ele>
        <time>2022-09-17T12:40:09.000Z</time>
      </trkpt>
      <trkpt lat="45.08565" lon="5.18856">
        <ele>153.4</ele>
        <time>2022-09-17T12:40:10.000Z</time>
      </trkpt>
      <trkpt lat="45.08566" lon="5.18848">
        <ele>153.4</ele>
        <time>2022-09-17T12:40:11.000Z</time>
      </trkpt>
      <trkpt lat="45.08565" lon="5.18841">
        <ele>153.3</ele>
        <time>2022-09-17T12:40:12.000Z</time>
      </trkpt>
      <trkpt lat="45.08564" lon="5.18833">
        <ele>153.3</ele>
        <time>2022-09-17T12:40:13.000Z</time>
      </trkpt>
      <trkpt lat="45.08565" lon="5.18825">
        <ele>153.2</ele>
        <time>2022-09-17T12:40:14.000Z</time>
      </trkpt>
      <trkpt lat="45.08566" lon="5.18817">
        <ele>153.2</ele>
        <time>2022-09-17T12:40:15.000Z</time>
      </trkpt>
      <trkpt lat="45.08568" lon="5.1881">
        <ele>153.1</ele>
        <time>2022-09-17T12:40:16.000Z</time>
      </trkpt>
      <trkpt lat="45.08569" lon="5.18802">
        <ele>153</ele>
        <time>2022-09-17T12:40:17.000Z</time>
      </trkpt>
      <trkpt lat="45.0857" lon="5.18795">
        <ele>153</ele>
        <time>2022-09-17T12:40:18.000Z</time>
      </trkpt>
      <trkpt lat="45.0857" lon="5.18787">
        <ele>153</ele>
        <time>2022-09-17T12:40:19.000Z</time>
      </trkpt>
      <trkpt lat="45.08569" lon="5.18779">
        <ele>153</ele>
        <time>2022-09-17T12:40:20.000Z</time>
      </trkpt>
      <trkpt lat="45.0857" lon="5.18772">
        <ele>152.9</ele>
        <time>2022-09-17T12:40:21.000Z</time>
      </trkpt>
      <trkpt lat="45.08571" lon="5.18764">
        <ele>152.8</ele>
        <time>2022-09-17T12:40:22.000Z</time>
      </trkpt>
      <trkpt lat="45.08572" lon="5.18756">
        <ele>152.7</ele>
        <time>2022-09-17T12:40:23.000Z</time>
      </trkpt>
      <trkpt lat="45.08572" lon="5.18747">
        <ele>152.5</ele>
        <time>2022-09-17T12:40:24.000Z</time>
      </trkpt>
      <trkpt lat="45.08573" lon="5.18739">
        <ele>152.4</ele>
        <time>2022-09-17T12:40:25.000Z</time>
      </trkpt>
      <trkpt lat="45.08573" lon="5.1873">
        <ele>152.2</ele>
        <time>2022-09-17T12:40:26.000Z</time>
      </trkpt>
      <trkpt lat="45.08574" lon="5.18722">
        <ele>152</ele>
        <time>2022-09-17T12:40:27.000Z</time>
      </trkpt>
      <trkpt lat="45.08574" lon="5.18714">
        <ele>152</ele>
        <time>2022-09-17T12:40:28.000Z</time>
      </trkpt>
      <trkpt lat="45.08575" lon="5.18706">
        <ele>152</ele>
        <time>2022-09-17T12:40:29.000Z</time>
      </trkpt>
      <trkpt lat="45.08575" lon="5.18698">
        <ele>152</ele>
        <time>2022-09-17T12:40:30.000Z</time>
      </trkpt>
      <trkpt lat="45.08575" lon="5.1869">
        <ele>151.9</ele>
        <time>2022-09-17T12:40:31.000Z</time>
      </trkpt>
      <trkpt lat="45.08575" lon="5.18682">
        <ele>151.9</ele>
        <time>2022-09-17T12:40:32.000Z</time>
      </trkpt>
      <trkpt lat="45.08574" lon="5.18675">
        <ele>151.8</ele>
        <time>2022-09-17T12:40:33.000Z</time>
      </trkpt>
      <trkpt lat="45.08574" lon="5.18668">
        <ele>151.7</ele>
        <time>2022-09-17T12:40:34.000Z</time>
      </trkpt>
      <trkpt lat="45.08574" lon="5.18661">
        <ele>151.7</ele>
        <time>2022-09-17T12:40:35.000Z</time>
      </trkpt>
      <trkpt lat="45.08574" lon="5.18653">
        <ele>151.8</ele>
        <time>2022-09-17T12:40:36.000Z</time>
      </trkpt>
      <trkpt lat="45.08574" lon="5.18646">
        <ele>151.9</ele>
        <time>2022-09-17T12:40:37.000Z</time>
      </trkpt>
      <trkpt lat="45.08574" lon="5.18639">
        <ele>152</ele>
        <time>2022-09-17T12:40:38.000Z</time>
      </trkpt>
      <trkpt lat="45.08574" lon="5.18631">
        <ele>151.9</ele>
        <time>2022-09-17T12:40:39.000Z</time>
      </trkpt>
      <trkpt lat="45.08574" lon="5.18624">
        <ele>151.8</ele>
        <time>2022-09-17T12:40:40.000Z</time>
      </trkpt>
      <trkpt lat="45.08574" lon="5.18617">
        <ele>151.7</ele>
        <time>2022-09-17T12:40:41.000Z</time>
      </trkpt>
      <trkpt lat="45.08573" lon="5.18611">
        <ele>151.6</ele>
        <time>2022-09-17T12:40:42.000Z</time>
      </trkpt>
      <trkpt lat="45.08573" lon="5.18604">
        <ele>151.7</ele>
        <time>2022-09-17T12:40:43.000Z</time>
      </trkpt>
      <trkpt lat="45.08572" lon="5.18597">
        <ele>151.8</ele>
        <time>2022-09-17T12:40:44.000Z</time>
      </trkpt>
      <trkpt lat="45.08572" lon="5.18589">
        <ele>151.9</ele>
        <time>2022-09-17T12:40:45.000Z</time>
      </trkpt>
      <trkpt lat="45.08572" lon="5.18582">
        <ele>152</ele>
        <time>2022-09-17T12:40:46.000Z</time>
      </trkpt>
      <trkpt lat="45.08571" lon="5.18574">
        <ele>151.8</ele>
        <time>2022-09-17T12:40:47.000Z</time>
      </trkpt>
      <trkpt lat="45.08571" lon="5.18565">
        <ele>151.7</ele>
        <time>2022-09-17T12:40:48.000Z</time>
      </trkpt>
      <trkpt lat="45.08571" lon="5.18557">
        <ele>151.6</ele>
        <time>2022-09-17T12:40:49.000Z</time>
      </trkpt>
      <trkpt lat="45.08571" lon="5.18549">
        <ele>151.5</ele>
        <time>2022-09-17T12:40:50.000Z</time>
      </trkpt>
      <trkpt lat="45.08571" lon="5.1854">
        <ele>151.5</ele>
        <time>2022-09-17T12:40:51.000Z</time>
      </trkpt>
      <trkpt lat="45.0857" lon="5.18532">
        <ele>151.5</ele>
        <time>2022-09-17T12:40:52.000Z</time>
      </trkpt>
      <trkpt lat="45.0857" lon="5.18524">
        <ele>151.6</ele>
        <time>2022-09-17T12:40:53.000Z</time>
      </trkpt>
      <trkpt lat="45.08569" lon="5.18516">
        <ele>151.7</ele>
        <time>2022-09-17T12:40:54.000Z</time>
      </trkpt>
      <trkpt lat="45.08569" lon="5.18507">
        <ele>151.9</ele>
        <time>2022-09-17T12:40:55.000Z</time>
      </trkpt>
      <trkpt lat="45.08569" lon="5.18499">
        <ele>152</ele>
        <time>2022-09-17T12:40:56.000Z</time>
      </trkpt>
      <trkpt lat="45.08569" lon="5.18491">
        <ele>152.5</ele>
        <time>2022-09-17T12:40:57.000Z</time>
      </trkpt>
      <trkpt lat="45.08569" lon="5.18484">
        <ele>152.9</ele>
        <time>2022-09-17T12:40:58.000Z</time>
      </trkpt>
      <trkpt lat="45.08569" lon="5.18476">
        <ele>153.3</ele>
        <time>2022-09-17T12:40:59.000Z</time>
      </trkpt>
      <trkpt lat="45.0857" lon="5.18469">
        <ele>153.7</ele>
        <time>2022-09-17T12:41:00.000Z</time>
      </trkpt>
      <trkpt lat="45.08571" lon="5.18461">
        <ele>153.9</ele>
        <time>2022-09-17T12:41:01.000Z</time>
      </trkpt>
      <trkpt lat="45.08572" lon="5.18454">
        <ele>154.1</ele>
        <time>2022-09-17T12:41:02.000Z</time>
      </trkpt>
      <trkpt lat="45.08572" lon="5.18447">
        <ele>154.3</ele>
        <time>2022-09-17T12:41:03.000Z</time>
      </trkpt>
      <trkpt lat="45.08572" lon="5.18441">
        <ele>154.6</ele>
        <time>2022-09-17T12:41:04.000Z</time>
      </trkpt>
      <trkpt lat="45.08572" lon="5.18435">
        <ele>154.9</ele>
        <time>2022-09-17T12:41:05.000Z</time>
      </trkpt>
      <trkpt lat="45.08573" lon="5.18429">
        <ele>155.3</ele>
        <time>2022-09-17T12:41:06.000Z</time>
      </trkpt>
      <trkpt lat="45.08572" lon="5.18424">
        <ele>155.6</ele>
        <time>2022-09-17T12:41:07.000Z</time>
      </trkpt>
      <trkpt lat="45.08573" lon="5.18419">
        <ele>155.9</ele>
        <time>2022-09-17T12:41:08.000Z</time>
      </trkpt>
      <trkpt lat="45.08572" lon="5.18413">
        <ele>156.1</ele>
        <time>2022-09-17T12:41:09.000Z</time>
      </trkpt>
      <trkpt lat="45.08572" lon="5.18408">
        <ele>156.1</ele>
        <time>2022-09-17T12:41:10.000Z</time>
      </trkpt>
      <trkpt lat="45.08572" lon="5.18404">
        <ele>156.2</ele>
        <time>2022-09-17T12:41:11.000Z</time>
      </trkpt>
      <trkpt lat="45.08571" lon="5.18399">
        <ele>156.1</ele>
        <time>2022-09-17T12:41:12.000Z</time>
      </trkpt>
      <trkpt lat="45.08571" lon="5.18395">
        <ele>156.1</ele>
        <time>2022-09-17T12:41:13.000Z</time>
      </trkpt>
      <trkpt lat="45.0857" lon="5.18391">
        <ele>156.1</ele>
        <time>2022-09-17T12:41:14.000Z</time>
      </trkpt>
      <trkpt lat="45.0857" lon="5.18386">
        <ele>156.2</ele>
        <time>2022-09-17T12:41:15.000Z</time>
      </trkpt>
      <trkpt lat="45.0857" lon="5.18382">
        <ele>156.4</ele>
        <time>2022-09-17T12:41:16.000Z</time>
      </trkpt>
      <trkpt lat="45.0857" lon="5.18378">
        <ele>156.5</ele>
        <time>2022-09-17T12:41:17.000Z</time>
      </trkpt>
      <trkpt lat="45.08571" lon="5.18375">
        <ele>156.7</ele>
        <time>2022-09-17T12:41:18.000Z</time>
      </trkpt>
      <trkpt lat="45.08571" lon="5.18372">
        <ele>156.8</ele>
        <time>2022-09-17T12:41:19.000Z</time>
      </trkpt>
      <trkpt lat="45.08571" lon="5.18369">
        <ele>156.9</ele>
        <time>2022-09-17T12:41:21.000Z</time>
      </trkpt>
      <trkpt lat="45.08557" lon="5.18338">
        <ele>156.1</ele>
        <time>2022-09-17T12:41:46.000Z</time>
      </trkpt>
      <trkpt lat="45.08557" lon="5.18345">
        <ele>155.8</ele>
        <time>2022-09-17T12:41:47.000Z</time>
      </trkpt>
      <trkpt lat="45.08559" lon="5.18352">
        <ele>155.8</ele>
        <time>2022-09-17T12:41:48.000Z</time>
      </trkpt>
      <trkpt lat="45.08561" lon="5.1835">
        <ele>156.2</ele>
        <time>2022-09-17T12:41:51.000Z</time>
      </trkpt>
      <trkpt lat="45.08561" lon="5.18353">
        <ele>156</ele>
        <time>2022-09-17T12:41:52.000Z</time>
      </trkpt>
      <trkpt lat="45.08561" lon="5.18357">
        <ele>155.9</ele>
        <time>2022-09-17T12:41:53.000Z</time>
      </trkpt>
      <trkpt lat="45.08564" lon="5.18357">
        <ele>156.3</ele>
        <time>2022-09-17T12:41:55.000Z</time>
      </trkpt>
      <trkpt lat="45.08566" lon="5.18367">
        <ele>156.2</ele>
        <time>2022-09-17T12:41:57.000Z</time>
      </trkpt>
      <trkpt lat="45.08565" lon="5.1837">
        <ele>156</ele>
        <time>2022-09-17T12:41:58.000Z</time>
      </trkpt>
      <trkpt lat="45.08564" lon="5.18373">
        <ele>155.8</ele>
        <time>2022-09-17T12:41:59.000Z</time>
      </trkpt>
      <trkpt lat="45.08563" lon="5.1837">
        <ele>155.8</ele>
        <time>2022-09-17T12:42:02.000Z</time>
      </trkpt>
      <trkpt lat="45.08565" lon="5.18366">
        <ele>156.2</ele>
        <time>2022-09-17T12:42:03.000Z</time>
      </trkpt>
      <trkpt lat="45.08566" lon="5.18363">
        <ele>156.4</ele>
        <time>2022-09-17T12:42:04.000Z</time>
      </trkpt>
      <trkpt lat="45.08565" lon="5.1836">
        <ele>156.4</ele>
        <time>2022-09-17T12:42:05.000Z</time>
      </trkpt>
      <trkpt lat="45.08565" lon="5.18357">
        <ele>156.5</ele>
        <time>2022-09-17T12:42:06.000Z</time>
      </trkpt>
      <trkpt lat="45.08565" lon="5.18352">
        <ele>156.7</ele>
        <time>2022-09-17T12:42:07.000Z</time>
      </trkpt>
      <trkpt lat="45.08566" lon="5.18348">
        <ele>156.9</ele>
        <time>2022-09-17T12:42:08.000Z</time>
      </trkpt>
      <trkpt lat="45.08565" lon="5.18343">
        <ele>157</ele>
        <time>2022-09-17T12:42:09.000Z</time>
      </trkpt>
      <trkpt lat="45.08565" lon="5.18338">
        <ele>157.2</ele>
        <time>2022-09-17T12:42:10.000Z</time>
      </trkpt>
      <trkpt lat="45.08565" lon="5.18333">
        <ele>157.4</ele>
        <time>2022-09-17T12:42:11.000Z</time>
      </trkpt>
      <trkpt lat="45.08565" lon="5.18328">
        <ele>157.5</ele>
        <time>2022-09-17T12:42:12.000Z</time>
      </trkpt>
      <trkpt lat="45.08565" lon="5.18322">
        <ele>157.6</ele>
        <time>2022-09-17T12:42:13.000Z</time>
      </trkpt>
      <trkpt lat="45.08565" lon="5.18316">
        <ele>157.7</ele>
        <time>2022-09-17T12:42:14.000Z</time>
      </trkpt>
      <trkpt lat="45.08564" lon="5.1831">
        <ele>157.8</ele>
        <time>2022-09-17T12:42:15.000Z</time>
      </trkpt>
      <trkpt lat="45.08564" lon="5.18305">
        <ele>157.8</ele>
        <time>2022-09-17T12:42:16.000Z</time>
      </trkpt>
      <trkpt lat="45.08563" lon="5.18299">
        <ele>158</ele>
        <time>2022-09-17T12:42:17.000Z</time>
      </trkpt>
      <trkpt lat="45.08562" lon="5.18293">
        <ele>158.2</ele>
        <time>2022-09-17T12:42:18.000Z</time>
      </trkpt>
      <trkpt lat="45.0856" lon="5.18288">
        <ele>158.3</ele>
        <time>2022-09-17T12:42:19.000Z</time>
      </trkpt>
      <trkpt lat="45.08559" lon="5.18283">
        <ele>158.3</ele>
        <time>2022-09-17T12:42:20.000Z</time>
      </trkpt>
      <trkpt lat="45.08557" lon="5.18277">
        <ele>158.4</ele>
        <time>2022-09-17T12:42:21.000Z</time>
      </trkpt>
      <trkpt lat="45.08555" lon="5.18271">
        <ele>158.3</ele>
        <time>2022-09-17T12:42:22.000Z</time>
      </trkpt>
      <trkpt lat="45.08553" lon="5.18265">
        <ele>158.2</ele>
        <time>2022-09-17T12:42:23.000Z</time>
      </trkpt>
      <trkpt lat="45.08552" lon="5.18259">
        <ele>158.3</ele>
        <time>2022-09-17T12:42:24.000Z</time>
      </trkpt>
      <trkpt lat="45.0855" lon="5.18253">
        <ele>158.2</ele>
        <time>2022-09-17T12:42:25.000Z</time>
      </trkpt>
      <trkpt lat="45.08549" lon="5.18247">
        <ele>158.4</ele>
        <time>2022-09-17T12:42:26.000Z</time>
      </trkpt>
      <trkpt lat="45.08547" lon="5.1824">
        <ele>158.8</ele>
        <time>2022-09-17T12:42:27.000Z</time>
      </trkpt>
      <trkpt lat="45.08546" lon="5.18234">
        <ele>159.2</ele>
        <time>2022-09-17T12:42:28.000Z</time>
      </trkpt>
      <trkpt lat="45.08544" lon="5.18228">
        <ele>159.5</ele>
        <time>2022-09-17T12:42:29.000Z</time>
      </trkpt>
      <trkpt lat="45.08542" lon="5.18222">
        <ele>159.7</ele>
        <time>2022-09-17T12:42:30.000Z</time>
      </trkpt>
      <trkpt lat="45.08541" lon="5.18216">
        <ele>160.1</ele>
        <time>2022-09-17T12:42:31.000Z</time>
      </trkpt>
      <trkpt lat="45.08539" lon="5.1821">
        <ele>160.3</ele>
        <time>2022-09-17T12:42:32.000Z</time>
      </trkpt>
      <trkpt lat="45.08538" lon="5.18205">
        <ele>160.6</ele>
        <time>2022-09-17T12:42:33.000Z</time>
      </trkpt>
      <trkpt lat="45.08536" lon="5.18199">
        <ele>160.9</ele>
        <time>2022-09-17T12:42:34.000Z</time>
      </trkpt>
      <trkpt lat="45.08535" lon="5.18194">
        <ele>161.1</ele>
        <time>2022-09-17T12:42:35.000Z</time>
      </trkpt>
      <trkpt lat="45.08533" lon="5.18189">
        <ele>160.8</ele>
        <time>2022-09-17T12:42:36.000Z</time>
      </trkpt>
      <trkpt lat="45.08531" lon="5.18183">
        <ele>160.5</ele>
        <time>2022-09-17T12:42:37.000Z</time>
      </trkpt>
      <trkpt lat="45.08529" lon="5.18178">
        <ele>160.1</ele>
        <time>2022-09-17T12:42:38.000Z</time>
      </trkpt>
      <trkpt lat="45.08528" lon="5.18173">
        <ele>159.8</ele>
        <time>2022-09-17T12:42:39.000Z</time>
      </trkpt>
      <trkpt lat="45.08526" lon="5.18168">
        <ele>159.5</ele>
        <time>2022-09-17T12:42:40.000Z</time>
      </trkpt>
      <trkpt lat="45.08525" lon="5.18162">
        <ele>159.7</ele>
        <time>2022-09-17T12:42:41.000Z</time>
      </trkpt>
      <trkpt lat="45.08523" lon="5.18157">
        <ele>159.9</ele>
        <time>2022-09-17T12:42:42.000Z</time>
      </trkpt>
      <trkpt lat="45.08521" lon="5.18152">
        <ele>160.1</ele>
        <time>2022-09-17T12:42:43.000Z</time>
      </trkpt>
      <trkpt lat="45.08519" lon="5.18148">
        <ele>160.3</ele>
        <time>2022-09-17T12:42:44.000Z</time>
      </trkpt>
      <trkpt lat="45.08517" lon="5.18142">
        <ele>160.8</ele>
        <time>2022-09-17T12:42:45.000Z</time>
      </trkpt>
      <trkpt lat="45.08515" lon="5.18137">
        <ele>161</ele>
        <time>2022-09-17T12:42:46.000Z</time>
      </trkpt>
      <trkpt lat="45.08514" lon="5.18132">
        <ele>161.1</ele>
        <time>2022-09-17T12:42:47.000Z</time>
      </trkpt>
      <trkpt lat="45.08513" lon="5.18127">
        <ele>161</ele>
        <time>2022-09-17T12:42:48.000Z</time>
      </trkpt>
      <trkpt lat="45.08511" lon="5.18122">
        <ele>161.1</ele>
        <time>2022-09-17T12:42:49.000Z</time>
      </trkpt>
      <trkpt lat="45.0851" lon="5.18117">
        <ele>161.2</ele>
        <time>2022-09-17T12:42:50.000Z</time>
      </trkpt>
      <trkpt lat="45.08508" lon="5.18112">
        <ele>161.4</ele>
        <time>2022-09-17T12:42:51.000Z</time>
      </trkpt>
      <trkpt lat="45.08507" lon="5.18106">
        <ele>161.3</ele>
        <time>2022-09-17T12:42:52.000Z</time>
      </trkpt>
      <trkpt lat="45.08505" lon="5.18101">
        <ele>161.2</ele>
        <time>2022-09-17T12:42:53.000Z</time>
      </trkpt>
      <trkpt lat="45.08504" lon="5.18095">
        <ele>161.1</ele>
        <time>2022-09-17T12:42:54.000Z</time>
      </trkpt>
      <trkpt lat="45.08502" lon="5.1809">
        <ele>161</ele>
        <time>2022-09-17T12:42:55.000Z</time>
      </trkpt>
      <trkpt lat="45.085" lon="5.18084">
        <ele>160.9</ele>
        <time>2022-09-17T12:42:56.000Z</time>
      </trkpt>
      <trkpt lat="45.08498" lon="5.18078">
        <ele>161.2</ele>
        <time>2022-09-17T12:42:57.000Z</time>
      </trkpt>
      <trkpt lat="45.08496" lon="5.18073">
        <ele>161.6</ele>
        <time>2022-09-17T12:42:58.000Z</time>
      </trkpt>
      <trkpt lat="45.08495" lon="5.18067">
        <ele>161.9</ele>
        <time>2022-09-17T12:42:59.000Z</time>
      </trkpt>
      <trkpt lat="45.08493" lon="5.18062">
        <ele>162.3</ele>
        <time>2022-09-17T12:43:00.000Z</time>
      </trkpt>
      <trkpt lat="45.08491" lon="5.18056">
        <ele>162.3</ele>
        <time>2022-09-17T12:43:01.000Z</time>
      </trkpt>
      <trkpt lat="45.0849" lon="5.18051">
        <ele>163</ele>
        <time>2022-09-17T12:43:02.000Z</time>
      </trkpt>
      <trkpt lat="45.08488" lon="5.18046">
        <ele>163.6</ele>
        <time>2022-09-17T12:43:03.000Z</time>
      </trkpt>
      <trkpt lat="45.08486" lon="5.18041">
        <ele>164.2</ele>
        <time>2022-09-17T12:43:04.000Z</time>
      </trkpt>
      <trkpt lat="45.08485" lon="5.18036">
        <ele>164.7</ele>
        <time>2022-09-17T12:43:05.000Z</time>
      </trkpt>
      <trkpt lat="45.08483" lon="5.18031">
        <ele>165.1</ele>
        <time>2022-09-17T12:43:06.000Z</time>
      </trkpt>
      <trkpt lat="45.08481" lon="5.18026">
        <ele>165.3</ele>
        <time>2022-09-17T12:43:07.000Z</time>
      </trkpt>
      <trkpt lat="45.08479" lon="5.18021">
        <ele>165.3</ele>
        <time>2022-09-17T12:43:08.000Z</time>
      </trkpt>
      <trkpt lat="45.08476" lon="5.18015">
        <ele>164.9</ele>
        <time>2022-09-17T12:43:09.000Z</time>
      </trkpt>
      <trkpt lat="45.08474" lon="5.1801">
        <ele>164.2</ele>
        <time>2022-09-17T12:43:10.000Z</time>
      </trkpt>
      <trkpt lat="45.08471" lon="5.18005">
        <ele>163.8</ele>
        <time>2022-09-17T12:43:11.000Z</time>
      </trkpt>
      <trkpt lat="45.08468" lon="5.18001">
        <ele>163.5</ele>
        <time>2022-09-17T12:43:12.000Z</time>
      </trkpt>
      <trkpt lat="45.08466" lon="5.17996">
        <ele>163.6</ele>
        <time>2022-09-17T12:43:13.000Z</time>
      </trkpt>
      <trkpt lat="45.08464" lon="5.17992">
        <ele>163.7</ele>
        <time>2022-09-17T12:43:14.000Z</time>
      </trkpt>
      <trkpt lat="45.08462" lon="5.17988">
        <ele>163.7</ele>
        <time>2022-09-17T12:43:15.000Z</time>
      </trkpt>
      <trkpt lat="45.08459" lon="5.17984">
        <ele>163.9</ele>
        <time>2022-09-17T12:43:16.000Z</time>
      </trkpt>
      <trkpt lat="45.08457" lon="5.17979">
        <ele>164.1</ele>
        <time>2022-09-17T12:43:17.000Z</time>
      </trkpt>
      <trkpt lat="45.08455" lon="5.17974">
        <ele>164.3</ele>
        <time>2022-09-17T12:43:18.000Z</time>
      </trkpt>
      <trkpt lat="45.08453" lon="5.1797">
        <ele>164.6</ele>
        <time>2022-09-17T12:43:19.000Z</time>
      </trkpt>
      <trkpt lat="45.08451" lon="5.17965">
        <ele>164.9</ele>
        <time>2022-09-17T12:43:20.000Z</time>
      </trkpt>
      <trkpt lat="45.08448" lon="5.17961">
        <ele>164.9</ele>
        <time>2022-09-17T12:43:21.000Z</time>
      </trkpt>
      <trkpt lat="45.08446" lon="5.17957">
        <ele>164.9</ele>
        <time>2022-09-17T12:43:22.000Z</time>
      </trkpt>
      <trkpt lat="45.08444" lon="5.17952">
        <ele>165</ele>
        <time>2022-09-17T12:43:23.000Z</time>
      </trkpt>
      <trkpt lat="45.08441" lon="5.17948">
        <ele>165</ele>
        <time>2022-09-17T12:43:24.000Z</time>
      </trkpt>
      <trkpt lat="45.08439" lon="5.17943">
        <ele>165.2</ele>
        <time>2022-09-17T12:43:25.000Z</time>
      </trkpt>
      <trkpt lat="45.08437" lon="5.17939">
        <ele>165.5</ele>
        <time>2022-09-17T12:43:26.000Z</time>
      </trkpt>
      <trkpt lat="45.08435" lon="5.17935">
        <ele>165.7</ele>
        <time>2022-09-17T12:43:27.000Z</time>
      </trkpt>
      <trkpt lat="45.08432" lon="5.1793">
        <ele>166</ele>
        <time>2022-09-17T12:43:28.000Z</time>
      </trkpt>
      <trkpt lat="45.0843" lon="5.17926">
        <ele>166.1</ele>
        <time>2022-09-17T12:43:29.000Z</time>
      </trkpt>
      <trkpt lat="45.08428" lon="5.17923">
        <ele>166.1</ele>
        <time>2022-09-17T12:43:30.000Z</time>
      </trkpt>
      <trkpt lat="45.08425" lon="5.17919">
        <ele>166.1</ele>
        <time>2022-09-17T12:43:31.000Z</time>
      </trkpt>
      <trkpt lat="45.08423" lon="5.17915">
        <ele>165.9</ele>
        <time>2022-09-17T12:43:32.000Z</time>
      </trkpt>
      <trkpt lat="45.08421" lon="5.17911">
        <ele>165.7</ele>
        <time>2022-09-17T12:43:33.000Z</time>
      </trkpt>
      <trkpt lat="45.08419" lon="5.17907">
        <ele>165.7</ele>
        <time>2022-09-17T12:43:34.000Z</time>
      </trkpt>
      <trkpt lat="45.08417" lon="5.17902">
        <ele>165.6</ele>
        <time>2022-09-17T12:43:35.000Z</time>
      </trkpt>
      <trkpt lat="45.08414" lon="5.17898">
        <ele>165.7</ele>
        <time>2022-09-17T12:43:36.000Z</time>
      </trkpt>
      <trkpt lat="45.08412" lon="5.17894">
        <ele>166</ele>
        <time>2022-09-17T12:43:37.000Z</time>
      </trkpt>
      <trkpt lat="45.0841" lon="5.1789">
        <ele>166.5</ele>
        <time>2022-09-17T12:43:38.000Z</time>
      </trkpt>
      <trkpt lat="45.08408" lon="5.17885">
        <ele>167</ele>
        <time>2022-09-17T12:43:39.000Z</time>
      </trkpt>
      <trkpt lat="45.08406" lon="5.17881">
        <ele>167.5</ele>
        <time>2022-09-17T12:43:40.000Z</time>
      </trkpt>
      <trkpt lat="45.08403" lon="5.17876">
        <ele>167.9</ele>
        <time>2022-09-17T12:43:41.000Z</time>
      </trkpt>
      <trkpt lat="45.08401" lon="5.17872">
        <ele>168.1</ele>
        <time>2022-09-17T12:43:42.000Z</time>
      </trkpt>
      <trkpt lat="45.08398" lon="5.17867">
        <ele>168.2</ele>
        <time>2022-09-17T12:43:43.000Z</time>
      </trkpt>
      <trkpt lat="45.08395" lon="5.17863">
        <ele>168</ele>
        <time>2022-09-17T12:43:44.000Z</time>
      </trkpt>
      <trkpt lat="45.08393" lon="5.17859">
        <ele>168</ele>
        <time>2022-09-17T12:43:45.000Z</time>
      </trkpt>
      <trkpt lat="45.08391" lon="5.17855">
        <ele>168.1</ele>
        <time>2022-09-17T12:43:46.000Z</time>
      </trkpt>
      <trkpt lat="45.08389" lon="5.17851">
        <ele>167.9</ele>
        <time>2022-09-17T12:43:47.000Z</time>
      </trkpt>
      <trkpt lat="45.08387" lon="5.17847">
        <ele>167.8</ele>
        <time>2022-09-17T12:43:48.000Z</time>
      </trkpt>
      <trkpt lat="45.08384" lon="5.17843">
        <ele>167.9</ele>
        <time>2022-09-17T12:43:49.000Z</time>
      </trkpt>
      <trkpt lat="45.08382" lon="5.17839">
        <ele>167.9</ele>
        <time>2022-09-17T12:43:50.000Z</time>
      </trkpt>
      <trkpt lat="45.08379" lon="5.17835">
        <ele>168.1</ele>
        <time>2022-09-17T12:43:51.000Z</time>
      </trkpt>
      <trkpt lat="45.08376" lon="5.17831">
        <ele>168.4</ele>
        <time>2022-09-17T12:43:52.000Z</time>
      </trkpt>
      <trkpt lat="45.08374" lon="5.17827">
        <ele>168.7</ele>
        <time>2022-09-17T12:43:53.000Z</time>
      </trkpt>
      <trkpt lat="45.08371" lon="5.17823">
        <ele>168.6</ele>
        <time>2022-09-17T12:43:54.000Z</time>
      </trkpt>
      <trkpt lat="45.08368" lon="5.1782">
        <ele>168.3</ele>
        <time>2022-09-17T12:43:55.000Z</time>
      </trkpt>
      <trkpt lat="45.08365" lon="5.17816">
        <ele>167.8</ele>
        <time>2022-09-17T12:43:56.000Z</time>
      </trkpt>
      <trkpt lat="45.08362" lon="5.17812">
        <ele>167.2</ele>
        <time>2022-09-17T12:43:57.000Z</time>
      </trkpt>
      <trkpt lat="45.08359" lon="5.17808">
        <ele>167.1</ele>
        <time>2022-09-17T12:43:58.000Z</time>
      </trkpt>
      <trkpt lat="45.08356" lon="5.17805">
        <ele>167.2</ele>
        <time>2022-09-17T12:43:59.000Z</time>
      </trkpt>
      <trkpt lat="45.08353" lon="5.17801">
        <ele>167.5</ele>
        <time>2022-09-17T12:44:00.000Z</time>
      </trkpt>
      <trkpt lat="45.0835" lon="5.17798">
        <ele>167.9</ele>
        <time>2022-09-17T12:44:01.000Z</time>
      </trkpt>
      <trkpt lat="45.08347" lon="5.17794">
        <ele>168.1</ele>
        <time>2022-09-17T12:44:02.000Z</time>
      </trkpt>
      <trkpt lat="45.08344" lon="5.17791">
        <ele>168.1</ele>
        <time>2022-09-17T12:44:03.000Z</time>
      </trkpt>
      <trkpt lat="45.08341" lon="5.17788">
        <ele>168.2</ele>
        <time>2022-09-17T12:44:04.000Z</time>
      </trkpt>
      <trkpt lat="45.08338" lon="5.17785">
        <ele>168</ele>
        <time>2022-09-17T12:44:05.000Z</time>
      </trkpt>
      <trkpt lat="45.08335" lon="5.17779">
        <ele>168.1</ele>
        <time>2022-09-17T12:44:06.000Z</time>
      </trkpt>
      <trkpt lat="45.08332" lon="5.17774">
        <ele>168.7</ele>
        <time>2022-09-17T12:44:07.000Z</time>
      </trkpt>
      <trkpt lat="45.08328" lon="5.1777">
        <ele>169</ele>
        <time>2022-09-17T12:44:08.000Z</time>
      </trkpt>
      <trkpt lat="45.08325" lon="5.17766">
        <ele>169.3</ele>
        <time>2022-09-17T12:44:09.000Z</time>
      </trkpt>
      <trkpt lat="45.08322" lon="5.17762">
        <ele>169.8</ele>
        <time>2022-09-17T12:44:10.000Z</time>
      </trkpt>
      <trkpt lat="45.08318" lon="5.17758">
        <ele>169.9</ele>
        <time>2022-09-17T12:44:11.000Z</time>
      </trkpt>
      <trkpt lat="45.08315" lon="5.17754">
        <ele>169.9</ele>
        <time>2022-09-17T12:44:12.000Z</time>
      </trkpt>
      <trkpt lat="45.08312" lon="5.1775">
        <ele>170</ele>
        <time>2022-09-17T12:44:13.000Z</time>
      </trkpt>
      <trkpt lat="45.08308" lon="5.17745">
        <ele>169.7</ele>
        <time>2022-09-17T12:44:14.000Z</time>
      </trkpt>
      <trkpt lat="45.08305" lon="5.17741">
        <ele>169.4</ele>
        <time>2022-09-17T12:44:15.000Z</time>
      </trkpt>
      <trkpt lat="45.08301" lon="5.17737">
        <ele>169.3</ele>
        <time>2022-09-17T12:44:16.000Z</time>
      </trkpt>
      <trkpt lat="45.08297" lon="5.17733">
        <ele>169.1</ele>
        <time>2022-09-17T12:44:17.000Z</time>
      </trkpt>
      <trkpt lat="45.08294" lon="5.17728">
        <ele>169.2</ele>
        <time>2022-09-17T12:44:18.000Z</time>
      </trkpt>
      <trkpt lat="45.0829" lon="5.17724">
        <ele>169.4</ele>
        <time>2022-09-17T12:44:19.000Z</time>
      </trkpt>
      <trkpt lat="45.08287" lon="5.17719">
        <ele>169.6</ele>
        <time>2022-09-17T12:44:20.000Z</time>
      </trkpt>
      <trkpt lat="45.08283" lon="5.17716">
        <ele>169.5</ele>
        <time>2022-09-17T12:44:21.000Z</time>
      </trkpt>
      <trkpt lat="45.0828" lon="5.17711">
        <ele>169.3</ele>
        <time>2022-09-17T12:44:22.000Z</time>
      </trkpt>
      <trkpt lat="45.08277" lon="5.17707">
        <ele>168.9</ele>
        <time>2022-09-17T12:44:23.000Z</time>
      </trkpt>
      <trkpt lat="45.08274" lon="5.17703">
        <ele>168.6</ele>
        <time>2022-09-17T12:44:24.000Z</time>
      </trkpt>
      <trkpt lat="45.0827" lon="5.177">
        <ele>168.2</ele>
        <time>2022-09-17T12:44:25.000Z</time>
      </trkpt>
      <trkpt lat="45.08267" lon="5.17697">
        <ele>168</ele>
        <time>2022-09-17T12:44:26.000Z</time>
      </trkpt>
      <trkpt lat="45.08264" lon="5.17693">
        <ele>167.9</ele>
        <time>2022-09-17T12:44:27.000Z</time>
      </trkpt>
      <trkpt lat="45.08261" lon="5.1769">
        <ele>168.1</ele>
        <time>2022-09-17T12:44:28.000Z</time>
      </trkpt>
      <trkpt lat="45.08258" lon="5.17685">
        <ele>168</ele>
        <time>2022-09-17T12:44:29.000Z</time>
      </trkpt>
      <trkpt lat="45.08255" lon="5.17683">
        <ele>167.6</ele>
        <time>2022-09-17T12:44:30.000Z</time>
      </trkpt>
      <trkpt lat="45.08252" lon="5.1768">
        <ele>167.2</ele>
        <time>2022-09-17T12:44:31.000Z</time>
      </trkpt>
      <trkpt lat="45.08249" lon="5.17676">
        <ele>166.9</ele>
        <time>2022-09-17T12:44:32.000Z</time>
      </trkpt>
      <trkpt lat="45.08247" lon="5.17673">
        <ele>167</ele>
        <time>2022-09-17T12:44:33.000Z</time>
      </trkpt>
      <trkpt lat="45.08245" lon="5.17668">
        <ele>167.2</ele>
        <time>2022-09-17T12:44:34.000Z</time>
      </trkpt>
      <trkpt lat="45.08242" lon="5.17664">
        <ele>167.7</ele>
        <time>2022-09-17T12:44:35.000Z</time>
      </trkpt>
      <trkpt lat="45.08239" lon="5.17661">
        <ele>168.1</ele>
        <time>2022-09-17T12:44:36.000Z</time>
      </trkpt>
      <trkpt lat="45.08236" lon="5.17657">
        <ele>168.5</ele>
        <time>2022-09-17T12:44:37.000Z</time>
      </trkpt>
      <trkpt lat="45.08234" lon="5.17653">
        <ele>168.9</ele>
        <time>2022-09-17T12:44:38.000Z</time>
      </trkpt>
      <trkpt lat="45.08232" lon="5.17649">
        <ele>169.4</ele>
        <time>2022-09-17T12:44:39.000Z</time>
      </trkpt>
      <trkpt lat="45.08229" lon="5.17645">
        <ele>169.9</ele>
        <time>2022-09-17T12:44:40.000Z</time>
      </trkpt>
      <trkpt lat="45.08227" lon="5.1764">
        <ele>170.4</ele>
        <time>2022-09-17T12:44:41.000Z</time>
      </trkpt>
      <trkpt lat="45.08224" lon="5.17635">
        <ele>170.3</ele>
        <time>2022-09-17T12:44:42.000Z</time>
      </trkpt>
      <trkpt lat="45.08221" lon="5.17631">
        <ele>170.1</ele>
        <time>2022-09-17T12:44:43.000Z</time>
      </trkpt>
      <trkpt lat="45.08218" lon="5.17626">
        <ele>170.1</ele>
        <time>2022-09-17T12:44:44.000Z</time>
      </trkpt>
      <trkpt lat="45.08214" lon="5.17622">
        <ele>170.1</ele>
        <time>2022-09-17T12:44:45.000Z</time>
      </trkpt>
      <trkpt lat="45.08211" lon="5.17618">
        <ele>170.1</ele>
        <time>2022-09-17T12:44:46.000Z</time>
      </trkpt>
      <trkpt lat="45.08208" lon="5.17613">
        <ele>170.5</ele>
        <time>2022-09-17T12:44:47.000Z</time>
      </trkpt>
      <trkpt lat="45.08205" lon="5.17608">
        <ele>170.7</ele>
        <time>2022-09-17T12:44:48.000Z</time>
      </trkpt>
      <trkpt lat="45.08202" lon="5.17603">
        <ele>170.5</ele>
        <time>2022-09-17T12:44:49.000Z</time>
      </trkpt>
      <trkpt lat="45.08199" lon="5.17599">
        <ele>170</ele>
        <time>2022-09-17T12:44:50.000Z</time>
      </trkpt>
      <trkpt lat="45.08196" lon="5.17594">
        <ele>169.4</ele>
        <time>2022-09-17T12:44:51.000Z</time>
      </trkpt>
      <trkpt lat="45.08193" lon="5.17589">
        <ele>168.9</ele>
        <time>2022-09-17T12:44:52.000Z</time>
      </trkpt>
      <trkpt lat="45.0819" lon="5.17585">
        <ele>168.6</ele>
        <time>2022-09-17T12:44:53.000Z</time>
      </trkpt>
      <trkpt lat="45.08187" lon="5.1758">
        <ele>169.6</ele>
        <time>2022-09-17T12:44:54.000Z</time>
      </trkpt>
      <trkpt lat="45.08184" lon="5.17576">
        <ele>170.5</ele>
        <time>2022-09-17T12:44:55.000Z</time>
      </trkpt>
      <trkpt lat="45.08181" lon="5.17571">
        <ele>171.3</ele>
        <time>2022-09-17T12:44:56.000Z</time>
      </trkpt>
      <trkpt lat="45.08178" lon="5.17567">
        <ele>171.9</ele>
        <time>2022-09-17T12:44:57.000Z</time>
      </trkpt>
      <trkpt lat="45.08174" lon="5.17563">
        <ele>172.2</ele>
        <time>2022-09-17T12:44:58.000Z</time>
      </trkpt>
      <trkpt lat="45.08171" lon="5.17558">
        <ele>172.2</ele>
        <time>2022-09-17T12:44:59.000Z</time>
      </trkpt>
      <trkpt lat="45.08168" lon="5.17553">
        <ele>172.3</ele>
        <time>2022-09-17T12:45:00.000Z</time>
      </trkpt>
      <trkpt lat="45.08165" lon="5.17549">
        <ele>172.3</ele>
        <time>2022-09-17T12:45:01.000Z</time>
      </trkpt>
      <trkpt lat="45.08162" lon="5.17544">
        <ele>172.7</ele>
        <time>2022-09-17T12:45:02.000Z</time>
      </trkpt>
      <trkpt lat="45.08159" lon="5.17539">
        <ele>173.2</ele>
        <time>2022-09-17T12:45:03.000Z</time>
      </trkpt>
      <trkpt lat="45.08156" lon="5.17535">
        <ele>173.7</ele>
        <time>2022-09-17T12:45:04.000Z</time>
      </trkpt>
      <trkpt lat="45.08153" lon="5.1753">
        <ele>174.5</ele>
        <time>2022-09-17T12:45:05.000Z</time>
      </trkpt>
      <trkpt lat="45.0815" lon="5.17525">
        <ele>175.4</ele>
        <time>2022-09-17T12:45:06.000Z</time>
      </trkpt>
      <trkpt lat="45.08147" lon="5.17521">
        <ele>175.5</ele>
        <time>2022-09-17T12:45:07.000Z</time>
      </trkpt>
      <trkpt lat="45.08144" lon="5.17517">
        <ele>175.4</ele>
        <time>2022-09-17T12:45:08.000Z</time>
      </trkpt>
      <trkpt lat="45.08141" lon="5.17512">
        <ele>174.3</ele>
        <time>2022-09-17T12:45:09.000Z</time>
      </trkpt>
      <trkpt lat="45.08138" lon="5.17508">
        <ele>173.1</ele>
        <time>2022-09-17T12:45:10.000Z</time>
      </trkpt>
      <trkpt lat="45.08135" lon="5.17503">
        <ele>172.7</ele>
        <time>2022-09-17T12:45:11.000Z</time>
      </trkpt>
      <trkpt lat="45.08132" lon="5.17498">
        <ele>173.3</ele>
        <time>2022-09-17T12:45:12.000Z</time>
      </trkpt>
      <trkpt lat="45.08129" lon="5.17494">
        <ele>174.6</ele>
        <time>2022-09-17T12:45:13.000Z</time>
      </trkpt>
      <trkpt lat="45.08127" lon="5.17489">
        <ele>175.4</ele>
        <time>2022-09-17T12:45:14.000Z</time>
      </trkpt>
      <trkpt lat="45.08124" lon="5.17485">
        <ele>176.1</ele>
        <time>2022-09-17T12:45:15.000Z</time>
      </trkpt>
      <trkpt lat="45.08121" lon="5.17481">
        <ele>176.2</ele>
        <time>2022-09-17T12:45:16.000Z</time>
      </trkpt>
      <trkpt lat="45.08119" lon="5.17477">
        <ele>176.1</ele>
        <time>2022-09-17T12:45:17.000Z</time>
      </trkpt>
      <trkpt lat="45.08116" lon="5.17472">
        <ele>175.8</ele>
        <time>2022-09-17T12:45:18.000Z</time>
      </trkpt>
      <trkpt lat="45.08113" lon="5.17468">
        <ele>175.1</ele>
        <time>2022-09-17T12:45:19.000Z</time>
      </trkpt>
      <trkpt lat="45.0811" lon="5.17463">
        <ele>174.7</ele>
        <time>2022-09-17T12:45:20.000Z</time>
      </trkpt>
      <trkpt lat="45.08107" lon="5.17459">
        <ele>174.6</ele>
        <time>2022-09-17T12:45:21.000Z</time>
      </trkpt>
      <trkpt lat="45.08105" lon="5.17454">
        <ele>174.7</ele>
        <time>2022-09-17T12:45:22.000Z</time>
      </trkpt>
      <trkpt lat="45.08102" lon="5.1745">
        <ele>175</ele>
        <time>2022-09-17T12:45:23.000Z</time>
      </trkpt>
      <trkpt lat="45.081" lon="5.17445">
        <ele>175.6</ele>
        <time>2022-09-17T12:45:24.000Z</time>
      </trkpt>
      <trkpt lat="45.08097" lon="5.1744">
        <ele>176.7</ele>
        <time>2022-09-17T12:45:25.000Z</time>
      </trkpt>
      <trkpt lat="45.08094" lon="5.17435">
        <ele>177.3</ele>
        <time>2022-09-17T12:45:26.000Z</time>
      </trkpt>
      <trkpt lat="45.08091" lon="5.1743">
        <ele>177.2</ele>
        <time>2022-09-17T12:45:27.000Z</time>
      </trkpt>
      <trkpt lat="45.08089" lon="5.17426">
        <ele>177</ele>
        <time>2022-09-17T12:45:28.000Z</time>
      </trkpt>
      <trkpt lat="45.08086" lon="5.17421">
        <ele>176.1</ele>
        <time>2022-09-17T12:45:29.000Z</time>
      </trkpt>
      <trkpt lat="45.08083" lon="5.17416">
        <ele>175</ele>
        <time>2022-09-17T12:45:30.000Z</time>
      </trkpt>
      <trkpt lat="45.0808" lon="5.17411">
        <ele>175.2</ele>
        <time>2022-09-17T12:45:31.000Z</time>
      </trkpt>
      <trkpt lat="45.08078" lon="5.17407">
        <ele>175.4</ele>
        <time>2022-09-17T12:45:32.000Z</time>
      </trkpt>
      <trkpt lat="45.08075" lon="5.17402">
        <ele>175.6</ele>
        <time>2022-09-17T12:45:33.000Z</time>
      </trkpt>
      <trkpt lat="45.08072" lon="5.17397">
        <ele>175.5</ele>
        <time>2022-09-17T12:45:34.000Z</time>
      </trkpt>
      <trkpt lat="45.08069" lon="5.17392">
        <ele>175.7</ele>
        <time>2022-09-17T12:45:35.000Z</time>
      </trkpt>
      <trkpt lat="45.08067" lon="5.17388">
        <ele>175.7</ele>
        <time>2022-09-17T12:45:36.000Z</time>
      </trkpt>
      <trkpt lat="45.08064" lon="5.17383">
        <ele>175.5</ele>
        <time>2022-09-17T12:45:37.000Z</time>
      </trkpt>
      <trkpt lat="45.08061" lon="5.17378">
        <ele>174.9</ele>
        <time>2022-09-17T12:45:38.000Z</time>
      </trkpt>
      <trkpt lat="45.08058" lon="5.17374">
        <ele>174</ele>
        <time>2022-09-17T12:45:39.000Z</time>
      </trkpt>
      <trkpt lat="45.08055" lon="5.17369">
        <ele>173.1</ele>
        <time>2022-09-17T12:45:40.000Z</time>
      </trkpt>
      <trkpt lat="45.08052" lon="5.17364">
        <ele>173</ele>
        <time>2022-09-17T12:45:41.000Z</time>
      </trkpt>
      <trkpt lat="45.0805" lon="5.17359">
        <ele>173.2</ele>
        <time>2022-09-17T12:45:42.000Z</time>
      </trkpt>
      <trkpt lat="45.08047" lon="5.17355">
        <ele>173.9</ele>
        <time>2022-09-17T12:45:43.000Z</time>
      </trkpt>
      <trkpt lat="45.08044" lon="5.17351">
        <ele>174.4</ele>
        <time>2022-09-17T12:45:44.000Z</time>
      </trkpt>
      <trkpt lat="45.08041" lon="5.17346">
        <ele>174.9</ele>
        <time>2022-09-17T12:45:45.000Z</time>
      </trkpt>
      <trkpt lat="45.08038" lon="5.17342">
        <ele>175.5</ele>
        <time>2022-09-17T12:45:46.000Z</time>
      </trkpt>
      <trkpt lat="45.08035" lon="5.17337">
        <ele>176.2</ele>
        <time>2022-09-17T12:45:47.000Z</time>
      </trkpt>
      <trkpt lat="45.08032" lon="5.17333">
        <ele>176.8</ele>
        <time>2022-09-17T12:45:48.000Z</time>
      </trkpt>
      <trkpt lat="45.08029" lon="5.17329">
        <ele>176.8</ele>
        <time>2022-09-17T12:45:49.000Z</time>
      </trkpt>
      <trkpt lat="45.08026" lon="5.17325">
        <ele>176.9</ele>
        <time>2022-09-17T12:45:50.000Z</time>
      </trkpt>
      <trkpt lat="45.08023" lon="5.17321">
        <ele>177</ele>
        <time>2022-09-17T12:45:51.000Z</time>
      </trkpt>
      <trkpt lat="45.08021" lon="5.17318">
        <ele>177.2</ele>
        <time>2022-09-17T12:45:52.000Z</time>
      </trkpt>
      <trkpt lat="45.08018" lon="5.17314">
        <ele>177.5</ele>
        <time>2022-09-17T12:45:53.000Z</time>
      </trkpt>
      <trkpt lat="45.08015" lon="5.17311">
        <ele>177.9</ele>
        <time>2022-09-17T12:45:54.000Z</time>
      </trkpt>
      <trkpt lat="45.08012" lon="5.17308">
        <ele>178.4</ele>
        <time>2022-09-17T12:45:55.000Z</time>
      </trkpt>
      <trkpt lat="45.0801" lon="5.17304">
        <ele>178.7</ele>
        <time>2022-09-17T12:45:56.000Z</time>
      </trkpt>
      <trkpt lat="45.08007" lon="5.17301">
        <ele>178.8</ele>
        <time>2022-09-17T12:45:57.000Z</time>
      </trkpt>
      <trkpt lat="45.08005" lon="5.17298">
        <ele>178.8</ele>
        <time>2022-09-17T12:45:58.000Z</time>
      </trkpt>
      <trkpt lat="45.08003" lon="5.17295">
        <ele>178.9</ele>
        <time>2022-09-17T12:45:59.000Z</time>
      </trkpt>
      <trkpt lat="45.08" lon="5.17292">
        <ele>179</ele>
        <time>2022-09-17T12:46:00.000Z</time>
      </trkpt>
      <trkpt lat="45.07998" lon="5.17289">
        <ele>179</ele>
        <time>2022-09-17T12:46:01.000Z</time>
      </trkpt>
      <trkpt lat="45.07995" lon="5.17286">
        <ele>179.1</ele>
        <time>2022-09-17T12:46:02.000Z</time>
      </trkpt>
      <trkpt lat="45.07993" lon="5.17282">
        <ele>179.3</ele>
        <time>2022-09-17T12:46:03.000Z</time>
      </trkpt>
      <trkpt lat="45.0799" lon="5.17279">
        <ele>179.6</ele>
        <time>2022-09-17T12:46:04.000Z</time>
      </trkpt>
      <trkpt lat="45.07988" lon="5.17275">
        <ele>179.7</ele>
        <time>2022-09-17T12:46:05.000Z</time>
      </trkpt>
      <trkpt lat="45.07986" lon="5.17272">
        <ele>179.7</ele>
        <time>2022-09-17T12:46:06.000Z</time>
      </trkpt>
      <trkpt lat="45.07984" lon="5.17269">
        <ele>179.8</ele>
        <time>2022-09-17T12:46:07.000Z</time>
      </trkpt>
      <trkpt lat="45.07982" lon="5.17265">
        <ele>180</ele>
        <time>2022-09-17T12:46:08.000Z</time>
      </trkpt>
      <trkpt lat="45.0798" lon="5.17261">
        <ele>180.2</ele>
        <time>2022-09-17T12:46:09.000Z</time>
      </trkpt>
      <trkpt lat="45.07978" lon="5.17258">
        <ele>180.5</ele>
        <time>2022-09-17T12:46:10.000Z</time>
      </trkpt>
      <trkpt lat="45.07976" lon="5.17254">
        <ele>180.9</ele>
        <time>2022-09-17T12:46:11.000Z</time>
      </trkpt>
      <trkpt lat="45.07974" lon="5.1725">
        <ele>181.3</ele>
        <time>2022-09-17T12:46:12.000Z</time>
      </trkpt>
      <trkpt lat="45.07972" lon="5.17247">
        <ele>181.3</ele>
        <time>2022-09-17T12:46:13.000Z</time>
      </trkpt>
      <trkpt lat="45.0797" lon="5.17244">
        <ele>181.5</ele>
        <time>2022-09-17T12:46:14.000Z</time>
      </trkpt>
      <trkpt lat="45.07968" lon="5.17241">
        <ele>181.7</ele>
        <time>2022-09-17T12:46:15.000Z</time>
      </trkpt>
      <trkpt lat="45.07966" lon="5.17238">
        <ele>181.9</ele>
        <time>2022-09-17T12:46:16.000Z</time>
      </trkpt>
      <trkpt lat="45.07964" lon="5.17235">
        <ele>182.2</ele>
        <time>2022-09-17T12:46:17.000Z</time>
      </trkpt>
      <trkpt lat="45.07962" lon="5.17232">
        <ele>182.5</ele>
        <time>2022-09-17T12:46:18.000Z</time>
      </trkpt>
      <trkpt lat="45.07961" lon="5.17228">
        <ele>182.8</ele>
        <time>2022-09-17T12:46:19.000Z</time>
      </trkpt>
      <trkpt lat="45.07959" lon="5.17225">
        <ele>183.2</ele>
        <time>2022-09-17T12:46:20.000Z</time>
      </trkpt>
      <trkpt lat="45.07957" lon="5.17221">
        <ele>183.5</ele>
        <time>2022-09-17T12:46:21.000Z</time>
      </trkpt>
      <trkpt lat="45.07955" lon="5.17218">
        <ele>183.5</ele>
        <time>2022-09-17T12:46:22.000Z</time>
      </trkpt>
      <trkpt lat="45.07953" lon="5.17214">
        <ele>183.5</ele>
        <time>2022-09-17T12:46:23.000Z</time>
      </trkpt>
      <trkpt lat="45.07951" lon="5.17211">
        <ele>183.4</ele>
        <time>2022-09-17T12:46:24.000Z</time>
      </trkpt>
      <trkpt lat="45.07949" lon="5.17207">
        <ele>183.3</ele>
        <time>2022-09-17T12:46:25.000Z</time>
      </trkpt>
      <trkpt lat="45.07947" lon="5.17203">
        <ele>183.2</ele>
        <time>2022-09-17T12:46:26.000Z</time>
      </trkpt>
      <trkpt lat="45.07945" lon="5.172">
        <ele>183</ele>
        <time>2022-09-17T12:46:27.000Z</time>
      </trkpt>
      <trkpt lat="45.07943" lon="5.17197">
        <ele>183</ele>
        <time>2022-09-17T12:46:28.000Z</time>
      </trkpt>
      <trkpt lat="45.07941" lon="5.17194">
        <ele>183.1</ele>
        <time>2022-09-17T12:46:29.000Z</time>
      </trkpt>
      <trkpt lat="45.0794" lon="5.17191">
        <ele>183.4</ele>
        <time>2022-09-17T12:46:30.000Z</time>
      </trkpt>
      <trkpt lat="45.07938" lon="5.17188">
        <ele>183.6</ele>
        <time>2022-09-17T12:46:31.000Z</time>
      </trkpt>
      <trkpt lat="45.07936" lon="5.17185">
        <ele>183.8</ele>
        <time>2022-09-17T12:46:32.000Z</time>
      </trkpt>
      <trkpt lat="45.07934" lon="5.17182">
        <ele>184</ele>
        <time>2022-09-17T12:46:33.000Z</time>
      </trkpt>
      <trkpt lat="45.07933" lon="5.17179">
        <ele>184.2</ele>
        <time>2022-09-17T12:46:34.000Z</time>
      </trkpt>
      <trkpt lat="45.07931" lon="5.17176">
        <ele>184.4</ele>
        <time>2022-09-17T12:46:35.000Z</time>
      </trkpt>
      <trkpt lat="45.07929" lon="5.17172">
        <ele>184.5</ele>
        <time>2022-09-17T12:46:36.000Z</time>
      </trkpt>
      <trkpt lat="45.07927" lon="5.17169">
        <ele>184.6</ele>
        <time>2022-09-17T12:46:37.000Z</time>
      </trkpt>
      <trkpt lat="45.07925" lon="5.17166">
        <ele>184.6</ele>
        <time>2022-09-17T12:46:38.000Z</time>
      </trkpt>
      <trkpt lat="45.07923" lon="5.17162">
        <ele>184.6</ele>
        <time>2022-09-17T12:46:39.000Z</time>
      </trkpt>
      <trkpt lat="45.07921" lon="5.17158">
        <ele>184.6</ele>
        <time>2022-09-17T12:46:40.000Z</time>
      </trkpt>
      <trkpt lat="45.07919" lon="5.17155">
        <ele>184.6</ele>
        <time>2022-09-17T12:46:41.000Z</time>
      </trkpt>
      <trkpt lat="45.07917" lon="5.17152">
        <ele>184.6</ele>
        <time>2022-09-17T12:46:42.000Z</time>
      </trkpt>
      <trkpt lat="45.07915" lon="5.17148">
        <ele>184.6</ele>
        <time>2022-09-17T12:46:43.000Z</time>
      </trkpt>
      <trkpt lat="45.07913" lon="5.17145">
        <ele>184.7</ele>
        <time>2022-09-17T12:46:44.000Z</time>
      </trkpt>
      <trkpt lat="45.07912" lon="5.17142">
        <ele>184.7</ele>
        <time>2022-09-17T12:46:45.000Z</time>
      </trkpt>
      <trkpt lat="45.0791" lon="5.17138">
        <ele>184.8</ele>
        <time>2022-09-17T12:46:46.000Z</time>
      </trkpt>
      <trkpt lat="45.07908" lon="5.17135">
        <ele>184.7</ele>
        <time>2022-09-17T12:46:47.000Z</time>
      </trkpt>
      <trkpt lat="45.07906" lon="5.17131">
        <ele>184.7</ele>
        <time>2022-09-17T12:46:48.000Z</time>
      </trkpt>
      <trkpt lat="45.07904" lon="5.17127">
        <ele>184.7</ele>
        <time>2022-09-17T12:46:49.000Z</time>
      </trkpt>
      <trkpt lat="45.07902" lon="5.17123">
        <ele>184.8</ele>
        <time>2022-09-17T12:46:50.000Z</time>
      </trkpt>
      <trkpt lat="45.079" lon="5.17118">
        <ele>184.8</ele>
        <time>2022-09-17T12:46:51.000Z</time>
      </trkpt>
      <trkpt lat="45.07898" lon="5.17114">
        <ele>184.9</ele>
        <time>2022-09-17T12:46:52.000Z</time>
      </trkpt>
      <trkpt lat="45.07895" lon="5.1711">
        <ele>185</ele>
        <time>2022-09-17T12:46:53.000Z</time>
      </trkpt>
      <trkpt lat="45.07893" lon="5.17105">
        <ele>185.1</ele>
        <time>2022-09-17T12:46:54.000Z</time>
      </trkpt>
      <trkpt lat="45.07891" lon="5.171">
        <ele>185.1</ele>
        <time>2022-09-17T12:46:55.000Z</time>
      </trkpt>
      <trkpt lat="45.07888" lon="5.17096">
        <ele>185</ele>
        <time>2022-09-17T12:46:56.000Z</time>
      </trkpt>
      <trkpt lat="45.07887" lon="5.17092">
        <ele>184.9</ele>
        <time>2022-09-17T12:46:57.000Z</time>
      </trkpt>
      <trkpt lat="45.07885" lon="5.17088">
        <ele>184.8</ele>
        <time>2022-09-17T12:46:58.000Z</time>
      </trkpt>
      <trkpt lat="45.07883" lon="5.17084">
        <ele>184.8</ele>
        <time>2022-09-17T12:46:59.000Z</time>
      </trkpt>
      <trkpt lat="45.0788" lon="5.17079">
        <ele>184.8</ele>
        <time>2022-09-17T12:47:00.000Z</time>
      </trkpt>
      <trkpt lat="45.07878" lon="5.17075">
        <ele>184.9</ele>
        <time>2022-09-17T12:47:01.000Z</time>
      </trkpt>
      <trkpt lat="45.07875" lon="5.1707">
        <ele>185</ele>
        <time>2022-09-17T12:47:02.000Z</time>
      </trkpt>
      <trkpt lat="45.07873" lon="5.17066">
        <ele>185.1</ele>
        <time>2022-09-17T12:47:03.000Z</time>
      </trkpt>
      <trkpt lat="45.07871" lon="5.17061">
        <ele>185.1</ele>
        <time>2022-09-17T12:47:04.000Z</time>
      </trkpt>
      <trkpt lat="45.07869" lon="5.17057">
        <ele>185.2</ele>
        <time>2022-09-17T12:47:05.000Z</time>
      </trkpt>
      <trkpt lat="45.07867" lon="5.17053">
        <ele>185.2</ele>
        <time>2022-09-17T12:47:06.000Z</time>
      </trkpt>
      <trkpt lat="45.07865" lon="5.17048">
        <ele>185.1</ele>
        <time>2022-09-17T12:47:07.000Z</time>
      </trkpt>
      <trkpt lat="45.07863" lon="5.17044">
        <ele>185.1</ele>
        <time>2022-09-17T12:47:08.000Z</time>
      </trkpt>
      <trkpt lat="45.07862" lon="5.1704">
        <ele>185</ele>
        <time>2022-09-17T12:47:09.000Z</time>
      </trkpt>
      <trkpt lat="45.0786" lon="5.17036">
        <ele>184.9</ele>
        <time>2022-09-17T12:47:10.000Z</time>
      </trkpt>
      <trkpt lat="45.07858" lon="5.17032">
        <ele>184.9</ele>
        <time>2022-09-17T12:47:11.000Z</time>
      </trkpt>
      <trkpt lat="45.07856" lon="5.17027">
        <ele>184.8</ele>
        <time>2022-09-17T12:47:12.000Z</time>
      </trkpt>
      <trkpt lat="45.07854" lon="5.17023">
        <ele>184.9</ele>
        <time>2022-09-17T12:47:13.000Z</time>
      </trkpt>
      <trkpt lat="45.07852" lon="5.17018">
        <ele>185</ele>
        <time>2022-09-17T12:47:14.000Z</time>
      </trkpt>
      <trkpt lat="45.0785" lon="5.17014">
        <ele>185.1</ele>
        <time>2022-09-17T12:47:15.000Z</time>
      </trkpt>
      <trkpt lat="45.07848" lon="5.17009">
        <ele>185.2</ele>
        <time>2022-09-17T12:47:16.000Z</time>
      </trkpt>
      <trkpt lat="45.07846" lon="5.17004">
        <ele>185.3</ele>
        <time>2022-09-17T12:47:17.000Z</time>
      </trkpt>
      <trkpt lat="45.07845" lon="5.16999">
        <ele>185.4</ele>
        <time>2022-09-17T12:47:18.000Z</time>
      </trkpt>
      <trkpt lat="45.07843" lon="5.16993">
        <ele>185.3</ele>
        <time>2022-09-17T12:47:19.000Z</time>
      </trkpt>
      <trkpt lat="45.07841" lon="5.16987">
        <ele>185.3</ele>
        <time>2022-09-17T12:47:20.000Z</time>
      </trkpt>
      <trkpt lat="45.07839" lon="5.16982">
        <ele>185.2</ele>
        <time>2022-09-17T12:47:21.000Z</time>
      </trkpt>
      <trkpt lat="45.07836" lon="5.16976">
        <ele>185.1</ele>
        <time>2022-09-17T12:47:22.000Z</time>
      </trkpt>
      <trkpt lat="45.07834" lon="5.1697">
        <ele>185.1</ele>
        <time>2022-09-17T12:47:23.000Z</time>
      </trkpt>
      <trkpt lat="45.07832" lon="5.16964">
        <ele>185.3</ele>
        <time>2022-09-17T12:47:24.000Z</time>
      </trkpt>
      <trkpt lat="45.07831" lon="5.16958">
        <ele>185.4</ele>
        <time>2022-09-17T12:47:25.000Z</time>
      </trkpt>
      <trkpt lat="45.07829" lon="5.16953">
        <ele>185.5</ele>
        <time>2022-09-17T12:47:26.000Z</time>
      </trkpt>
      <trkpt lat="45.07826" lon="5.16947">
        <ele>185.6</ele>
        <time>2022-09-17T12:47:27.000Z</time>
      </trkpt>
      <trkpt lat="45.07825" lon="5.16941">
        <ele>185.7</ele>
        <time>2022-09-17T12:47:28.000Z</time>
      </trkpt>
      <trkpt lat="45.07823" lon="5.16935">
        <ele>185.6</ele>
        <time>2022-09-17T12:47:29.000Z</time>
      </trkpt>
      <trkpt lat="45.07821" lon="5.16929">
        <ele>185.6</ele>
        <time>2022-09-17T12:47:30.000Z</time>
      </trkpt>
      <trkpt lat="45.07819" lon="5.16923">
        <ele>185.5</ele>
        <time>2022-09-17T12:47:31.000Z</time>
      </trkpt>
      <trkpt lat="45.07817" lon="5.16917">
        <ele>185.4</ele>
        <time>2022-09-17T12:47:32.000Z</time>
      </trkpt>
      <trkpt lat="45.07815" lon="5.16912">
        <ele>185.5</ele>
        <time>2022-09-17T12:47:33.000Z</time>
      </trkpt>
      <trkpt lat="45.07814" lon="5.16906">
        <ele>185.6</ele>
        <time>2022-09-17T12:47:34.000Z</time>
      </trkpt>
      <trkpt lat="45.07812" lon="5.16901">
        <ele>185.7</ele>
        <time>2022-09-17T12:47:35.000Z</time>
      </trkpt>
      <trkpt lat="45.07811" lon="5.16896">
        <ele>185.8</ele>
        <time>2022-09-17T12:47:36.000Z</time>
      </trkpt>
      <trkpt lat="45.0781" lon="5.16892">
        <ele>185.9</ele>
        <time>2022-09-17T12:47:37.000Z</time>
      </trkpt>
      <trkpt lat="45.07809" lon="5.16887">
        <ele>186</ele>
        <time>2022-09-17T12:47:38.000Z</time>
      </trkpt>
      <trkpt lat="45.07808" lon="5.16883">
        <ele>186</ele>
        <time>2022-09-17T12:47:39.000Z</time>
      </trkpt>
      <trkpt lat="45.07808" lon="5.16878">
        <ele>186</ele>
        <time>2022-09-17T12:47:40.000Z</time>
      </trkpt>
      <trkpt lat="45.07808" lon="5.16874">
        <ele>186</ele>
        <time>2022-09-17T12:47:41.000Z</time>
      </trkpt>
      <trkpt lat="45.07807" lon="5.16869">
        <ele>186</ele>
        <time>2022-09-17T12:47:42.000Z</time>
      </trkpt>
      <trkpt lat="45.07807" lon="5.16865">
        <ele>186</ele>
        <time>2022-09-17T12:47:43.000Z</time>
      </trkpt>
      <trkpt lat="45.07806" lon="5.1686">
        <ele>186</ele>
        <time>2022-09-17T12:47:44.000Z</time>
      </trkpt>
      <trkpt lat="45.07806" lon="5.16855">
        <ele>186</ele>
        <time>2022-09-17T12:47:45.000Z</time>
      </trkpt>
      <trkpt lat="45.07807" lon="5.16851">
        <ele>186</ele>
        <time>2022-09-17T12:47:46.000Z</time>
      </trkpt>
      <trkpt lat="45.07807" lon="5.16846">
        <ele>186.1</ele>
        <time>2022-09-17T12:47:47.000Z</time>
      </trkpt>
      <trkpt lat="45.07807" lon="5.16841">
        <ele>186.1</ele>
        <time>2022-09-17T12:47:48.000Z</time>
      </trkpt>
      <trkpt lat="45.07807" lon="5.16836">
        <ele>186</ele>
        <time>2022-09-17T12:47:49.000Z</time>
      </trkpt>
      <trkpt lat="45.07806" lon="5.16831">
        <ele>186</ele>
        <time>2022-09-17T12:47:50.000Z</time>
      </trkpt>
      <trkpt lat="45.07806" lon="5.16827">
        <ele>186</ele>
        <time>2022-09-17T12:47:51.000Z</time>
      </trkpt>
      <trkpt lat="45.07806" lon="5.16823">
        <ele>186</ele>
        <time>2022-09-17T12:47:52.000Z</time>
      </trkpt>
      <trkpt lat="45.07805" lon="5.16818">
        <ele>186</ele>
        <time>2022-09-17T12:47:53.000Z</time>
      </trkpt>
      <trkpt lat="45.07805" lon="5.16814">
        <ele>186</ele>
        <time>2022-09-17T12:47:54.000Z</time>
      </trkpt>
      <trkpt lat="45.07805" lon="5.1681">
        <ele>186</ele>
        <time>2022-09-17T12:47:55.000Z</time>
      </trkpt>
      <trkpt lat="45.07804" lon="5.16805">
        <ele>186</ele>
        <time>2022-09-17T12:47:56.000Z</time>
      </trkpt>
      <trkpt lat="45.07803" lon="5.168">
        <ele>185.8</ele>
        <time>2022-09-17T12:47:57.000Z</time>
      </trkpt>
      <trkpt lat="45.07803" lon="5.16795">
        <ele>185.7</ele>
        <time>2022-09-17T12:47:58.000Z</time>
      </trkpt>
      <trkpt lat="45.07803" lon="5.1679">
        <ele>185.6</ele>
        <time>2022-09-17T12:47:59.000Z</time>
      </trkpt>
      <trkpt lat="45.07802" lon="5.16784">
        <ele>185.4</ele>
        <time>2022-09-17T12:48:00.000Z</time>
      </trkpt>
      <trkpt lat="45.07802" lon="5.16778">
        <ele>185.2</ele>
        <time>2022-09-17T12:48:01.000Z</time>
      </trkpt>
      <trkpt lat="45.07802" lon="5.16771">
        <ele>185.2</ele>
        <time>2022-09-17T12:48:02.000Z</time>
      </trkpt>
      <trkpt lat="45.07802" lon="5.16764">
        <ele>185.1</ele>
        <time>2022-09-17T12:48:03.000Z</time>
      </trkpt>
      <trkpt lat="45.07801" lon="5.16758">
        <ele>185.1</ele>
        <time>2022-09-17T12:48:04.000Z</time>
      </trkpt>
      <trkpt lat="45.07801" lon="5.16751">
        <ele>185</ele>
        <time>2022-09-17T12:48:05.000Z</time>
      </trkpt>
      <trkpt lat="45.078" lon="5.16745">
        <ele>185.3</ele>
        <time>2022-09-17T12:48:06.000Z</time>
      </trkpt>
      <trkpt lat="45.07799" lon="5.16739">
        <ele>185.7</ele>
        <time>2022-09-17T12:48:07.000Z</time>
      </trkpt>
      <trkpt lat="45.07799" lon="5.16732">
        <ele>186.1</ele>
        <time>2022-09-17T12:48:08.000Z</time>
      </trkpt>
      <trkpt lat="45.07798" lon="5.16725">
        <ele>186.6</ele>
        <time>2022-09-17T12:48:09.000Z</time>
      </trkpt>
      <trkpt lat="45.07798" lon="5.16718">
        <ele>186.7</ele>
        <time>2022-09-17T12:48:10.000Z</time>
      </trkpt>
      <trkpt lat="45.07797" lon="5.16712">
        <ele>186.7</ele>
        <time>2022-09-17T12:48:11.000Z</time>
      </trkpt>
      <trkpt lat="45.07796" lon="5.16706">
        <ele>186.6</ele>
        <time>2022-09-17T12:48:12.000Z</time>
      </trkpt>
      <trkpt lat="45.07795" lon="5.16699">
        <ele>186.6</ele>
        <time>2022-09-17T12:48:13.000Z</time>
      </trkpt>
      <trkpt lat="45.07794" lon="5.16693">
        <ele>186.6</ele>
        <time>2022-09-17T12:48:14.000Z</time>
      </trkpt>
      <trkpt lat="45.07793" lon="5.16687">
        <ele>186.6</ele>
        <time>2022-09-17T12:48:15.000Z</time>
      </trkpt>
      <trkpt lat="45.07792" lon="5.16682">
        <ele>186.5</ele>
        <time>2022-09-17T12:48:16.000Z</time>
      </trkpt>
      <trkpt lat="45.07791" lon="5.16677">
        <ele>186.5</ele>
        <time>2022-09-17T12:48:17.000Z</time>
      </trkpt>
      <trkpt lat="45.0779" lon="5.16672">
        <ele>186.4</ele>
        <time>2022-09-17T12:48:18.000Z</time>
      </trkpt>
      <trkpt lat="45.0779" lon="5.16668">
        <ele>186.4</ele>
        <time>2022-09-17T12:48:19.000Z</time>
      </trkpt>
      <trkpt lat="45.07791" lon="5.16664">
        <ele>186.5</ele>
        <time>2022-09-17T12:48:20.000Z</time>
      </trkpt>
      <trkpt lat="45.07792" lon="5.16661">
        <ele>186.5</ele>
        <time>2022-09-17T12:48:21.000Z</time>
      </trkpt>
      <trkpt lat="45.07794" lon="5.16658">
        <ele>186.5</ele>
        <time>2022-09-17T12:48:22.000Z</time>
      </trkpt>
      <trkpt lat="45.07797" lon="5.16655">
        <ele>186.5</ele>
        <time>2022-09-17T12:48:23.000Z</time>
      </trkpt>
      <trkpt lat="45.07799" lon="5.16654">
        <ele>186.5</ele>
        <time>2022-09-17T12:48:24.000Z</time>
      </trkpt>
      <trkpt lat="45.07801" lon="5.16654">
        <ele>186.5</ele>
        <time>2022-09-17T12:48:25.000Z</time>
      </trkpt>
      <trkpt lat="45.07804" lon="5.16653">
        <ele>186.5</ele>
        <time>2022-09-17T12:48:26.000Z</time>
      </trkpt>
      <trkpt lat="45.07806" lon="5.16651">
        <ele>186.4</ele>
        <time>2022-09-17T12:48:27.000Z</time>
      </trkpt>
      <trkpt lat="45.07807" lon="5.16648">
        <ele>186.4</ele>
        <time>2022-09-17T12:48:28.000Z</time>
      </trkpt>
      <trkpt lat="45.07806" lon="5.16644">
        <ele>186.2</ele>
        <time>2022-09-17T12:48:29.000Z</time>
      </trkpt>
      <trkpt lat="45.07806" lon="5.1664">
        <ele>186</ele>
        <time>2022-09-17T12:48:30.000Z</time>
      </trkpt>
      <trkpt lat="45.07806" lon="5.16635">
        <ele>186.1</ele>
        <time>2022-09-17T12:48:31.000Z</time>
      </trkpt>
      <trkpt lat="45.07806" lon="5.1663">
        <ele>186.3</ele>
        <time>2022-09-17T12:48:32.000Z</time>
      </trkpt>
      <trkpt lat="45.07805" lon="5.16626">
        <ele>186.5</ele>
        <time>2022-09-17T12:48:33.000Z</time>
      </trkpt>
      <trkpt lat="45.07804" lon="5.16622">
        <ele>186.6</ele>
        <time>2022-09-17T12:48:34.000Z</time>
      </trkpt>
      <trkpt lat="45.07804" lon="5.16618">
        <ele>186.8</ele>
        <time>2022-09-17T12:48:35.000Z</time>
      </trkpt>
      <trkpt lat="45.07803" lon="5.16613">
        <ele>186.9</ele>
        <time>2022-09-17T12:48:36.000Z</time>
      </trkpt>
      <trkpt lat="45.07802" lon="5.16609">
        <ele>187</ele>
        <time>2022-09-17T12:48:37.000Z</time>
      </trkpt>
      <trkpt lat="45.07801" lon="5.16604">
        <ele>187</ele>
        <time>2022-09-17T12:48:38.000Z</time>
      </trkpt>
      <trkpt lat="45.07801" lon="5.166">
        <ele>187.1</ele>
        <time>2022-09-17T12:48:39.000Z</time>
      </trkpt>
      <trkpt lat="45.078" lon="5.16596">
        <ele>187.1</ele>
        <time>2022-09-17T12:48:40.000Z</time>
      </trkpt>
      <trkpt lat="45.07799" lon="5.16592">
        <ele>187.2</ele>
        <time>2022-09-17T12:48:41.000Z</time>
      </trkpt>
      <trkpt lat="45.07798" lon="5.16588">
        <ele>187.2</ele>
        <time>2022-09-17T12:48:42.000Z</time>
      </trkpt>
      <trkpt lat="45.07798" lon="5.16584">
        <ele>187.3</ele>
        <time>2022-09-17T12:48:43.000Z</time>
      </trkpt>
      <trkpt lat="45.07797" lon="5.16579">
        <ele>187.5</ele>
        <time>2022-09-17T12:48:44.000Z</time>
      </trkpt>
      <trkpt lat="45.07796" lon="5.16575">
        <ele>187.7</ele>
        <time>2022-09-17T12:48:45.000Z</time>
      </trkpt>
      <trkpt lat="45.07795" lon="5.16571">
        <ele>187.9</ele>
        <time>2022-09-17T12:48:46.000Z</time>
      </trkpt>
      <trkpt lat="45.07795" lon="5.16567">
        <ele>188.1</ele>
        <time>2022-09-17T12:48:47.000Z</time>
      </trkpt>
      <trkpt lat="45.07794" lon="5.16564">
        <ele>188.2</ele>
        <time>2022-09-17T12:48:48.000Z</time>
      </trkpt>
      <trkpt lat="45.07793" lon="5.1656">
        <ele>188.4</ele>
        <time>2022-09-17T12:48:49.000Z</time>
      </trkpt>
      <trkpt lat="45.07793" lon="5.16557">
        <ele>188.5</ele>
        <time>2022-09-17T12:48:50.000Z</time>
      </trkpt>
      <trkpt lat="45.07793" lon="5.16552">
        <ele>188.6</ele>
        <time>2022-09-17T12:48:51.000Z</time>
      </trkpt>
      <trkpt lat="45.07793" lon="5.16547">
        <ele>188.6</ele>
        <time>2022-09-17T12:48:52.000Z</time>
      </trkpt>
      <trkpt lat="45.07793" lon="5.16543">
        <ele>188.5</ele>
        <time>2022-09-17T12:48:53.000Z</time>
      </trkpt>
      <trkpt lat="45.07793" lon="5.16537">
        <ele>188.5</ele>
        <time>2022-09-17T12:48:54.000Z</time>
      </trkpt>
      <trkpt lat="45.07792" lon="5.16533">
        <ele>188.5</ele>
        <time>2022-09-17T12:48:55.000Z</time>
      </trkpt>
      <trkpt lat="45.07791" lon="5.16528">
        <ele>188.5</ele>
        <time>2022-09-17T12:48:56.000Z</time>
      </trkpt>
      <trkpt lat="45.0779" lon="5.16522">
        <ele>188.5</ele>
        <time>2022-09-17T12:48:57.000Z</time>
      </trkpt>
      <trkpt lat="45.0779" lon="5.16517">
        <ele>188.5</ele>
        <time>2022-09-17T12:48:58.000Z</time>
      </trkpt>
      <trkpt lat="45.0779" lon="5.16512">
        <ele>188.4</ele>
        <time>2022-09-17T12:48:59.000Z</time>
      </trkpt>
      <trkpt lat="45.07791" lon="5.16507">
        <ele>188.5</ele>
        <time>2022-09-17T12:49:00.000Z</time>
      </trkpt>
      <trkpt lat="45.07791" lon="5.16502">
        <ele>188.5</ele>
        <time>2022-09-17T12:49:01.000Z</time>
      </trkpt>
      <trkpt lat="45.0779" lon="5.16498">
        <ele>188.5</ele>
        <time>2022-09-17T12:49:02.000Z</time>
      </trkpt>
      <trkpt lat="45.0779" lon="5.16493">
        <ele>188.7</ele>
        <time>2022-09-17T12:49:03.000Z</time>
      </trkpt>
      <trkpt lat="45.0779" lon="5.16488">
        <ele>188.9</ele>
        <time>2022-09-17T12:49:04.000Z</time>
      </trkpt>
      <trkpt lat="45.0779" lon="5.16484">
        <ele>189</ele>
        <time>2022-09-17T12:49:05.000Z</time>
      </trkpt>
      <trkpt lat="45.07791" lon="5.16479">
        <ele>189.2</ele>
        <time>2022-09-17T12:49:06.000Z</time>
      </trkpt>
      <trkpt lat="45.07791" lon="5.16474">
        <ele>189.4</ele>
        <time>2022-09-17T12:49:07.000Z</time>
      </trkpt>
      <trkpt lat="45.07791" lon="5.16469">
        <ele>189.5</ele>
        <time>2022-09-17T12:49:08.000Z</time>
      </trkpt>
      <trkpt lat="45.07791" lon="5.16464">
        <ele>189.5</ele>
        <time>2022-09-17T12:49:09.000Z</time>
      </trkpt>
      <trkpt lat="45.07791" lon="5.16459">
        <ele>189.5</ele>
        <time>2022-09-17T12:49:10.000Z</time>
      </trkpt>
      <trkpt lat="45.07791" lon="5.16455">
        <ele>189.5</ele>
        <time>2022-09-17T12:49:11.000Z</time>
      </trkpt>
      <trkpt lat="45.07791" lon="5.16451">
        <ele>189.5</ele>
        <time>2022-09-17T12:49:12.000Z</time>
      </trkpt>
      <trkpt lat="45.07791" lon="5.16446">
        <ele>189.5</ele>
        <time>2022-09-17T12:49:13.000Z</time>
      </trkpt>
      <trkpt lat="45.07791" lon="5.16442">
        <ele>189.6</ele>
        <time>2022-09-17T12:49:14.000Z</time>
      </trkpt>
      <trkpt lat="45.07792" lon="5.16438">
        <ele>189.7</ele>
        <time>2022-09-17T12:49:15.000Z</time>
      </trkpt>
      <trkpt lat="45.07792" lon="5.16434">
        <ele>189.9</ele>
        <time>2022-09-17T12:49:16.000Z</time>
      </trkpt>
      <trkpt lat="45.07792" lon="5.16429">
        <ele>190.1</ele>
        <time>2022-09-17T12:49:17.000Z</time>
      </trkpt>
      <trkpt lat="45.07792" lon="5.16424">
        <ele>190.2</ele>
        <time>2022-09-17T12:49:18.000Z</time>
      </trkpt>
      <trkpt lat="45.07793" lon="5.16419">
        <ele>190.4</ele>
        <time>2022-09-17T12:49:19.000Z</time>
      </trkpt>
      <trkpt lat="45.07793" lon="5.16414">
        <ele>190.5</ele>
        <time>2022-09-17T12:49:20.000Z</time>
      </trkpt>
      <trkpt lat="45.07793" lon="5.16409">
        <ele>190.5</ele>
        <time>2022-09-17T12:49:21.000Z</time>
      </trkpt>
      <trkpt lat="45.07793" lon="5.16404">
        <ele>190.6</ele>
        <time>2022-09-17T12:49:22.000Z</time>
      </trkpt>
      <trkpt lat="45.07793" lon="5.16399">
        <ele>190.5</ele>
        <time>2022-09-17T12:49:23.000Z</time>
      </trkpt>
      <trkpt lat="45.07793" lon="5.16393">
        <ele>190.5</ele>
        <time>2022-09-17T12:49:24.000Z</time>
      </trkpt>
      <trkpt lat="45.07793" lon="5.16388">
        <ele>190.6</ele>
        <time>2022-09-17T12:49:25.000Z</time>
      </trkpt>
      <trkpt lat="45.07793" lon="5.16383">
        <ele>190.6</ele>
        <time>2022-09-17T12:49:26.000Z</time>
      </trkpt>
      <trkpt lat="45.07793" lon="5.16379">
        <ele>190.7</ele>
        <time>2022-09-17T12:49:27.000Z</time>
      </trkpt>
      <trkpt lat="45.07793" lon="5.16374">
        <ele>190.8</ele>
        <time>2022-09-17T12:49:28.000Z</time>
      </trkpt>
      <trkpt lat="45.07793" lon="5.1637">
        <ele>190.9</ele>
        <time>2022-09-17T12:49:29.000Z</time>
      </trkpt>
      <trkpt lat="45.07793" lon="5.16365">
        <ele>191</ele>
        <time>2022-09-17T12:49:30.000Z</time>
      </trkpt>
      <trkpt lat="45.07793" lon="5.1636">
        <ele>191.1</ele>
        <time>2022-09-17T12:49:31.000Z</time>
      </trkpt>
      <trkpt lat="45.07793" lon="5.16355">
        <ele>191.1</ele>
        <time>2022-09-17T12:49:32.000Z</time>
      </trkpt>
      <trkpt lat="45.07793" lon="5.16349">
        <ele>191.1</ele>
        <time>2022-09-17T12:49:33.000Z</time>
      </trkpt>
      <trkpt lat="45.07793" lon="5.16343">
        <ele>191.1</ele>
        <time>2022-09-17T12:49:34.000Z</time>
      </trkpt>
      <trkpt lat="45.07793" lon="5.16337">
        <ele>191.1</ele>
        <time>2022-09-17T12:49:35.000Z</time>
      </trkpt>
      <trkpt lat="45.07793" lon="5.16331">
        <ele>191.1</ele>
        <time>2022-09-17T12:49:36.000Z</time>
      </trkpt>
      <trkpt lat="45.07793" lon="5.16325">
        <ele>191.1</ele>
        <time>2022-09-17T12:49:37.000Z</time>
      </trkpt>
      <trkpt lat="45.07793" lon="5.1632">
        <ele>191.1</ele>
        <time>2022-09-17T12:49:38.000Z</time>
      </trkpt>
      <trkpt lat="45.07792" lon="5.16314">
        <ele>191</ele>
        <time>2022-09-17T12:49:39.000Z</time>
      </trkpt>
      <trkpt lat="45.07792" lon="5.16308">
        <ele>191</ele>
        <time>2022-09-17T12:49:40.000Z</time>
      </trkpt>
      <trkpt lat="45.07792" lon="5.16303">
        <ele>191.1</ele>
        <time>2022-09-17T12:49:41.000Z</time>
      </trkpt>
      <trkpt lat="45.07792" lon="5.16298">
        <ele>191.2</ele>
        <time>2022-09-17T12:49:42.000Z</time>
      </trkpt>
      <trkpt lat="45.07792" lon="5.16293">
        <ele>191.3</ele>
        <time>2022-09-17T12:49:43.000Z</time>
      </trkpt>
      <trkpt lat="45.07792" lon="5.16288">
        <ele>191.4</ele>
        <time>2022-09-17T12:49:44.000Z</time>
      </trkpt>
      <trkpt lat="45.07792" lon="5.16283">
        <ele>191.5</ele>
        <time>2022-09-17T12:49:45.000Z</time>
      </trkpt>
      <trkpt lat="45.07792" lon="5.16277">
        <ele>191.6</ele>
        <time>2022-09-17T12:49:46.000Z</time>
      </trkpt>
      <trkpt lat="45.07792" lon="5.16272">
        <ele>191.8</ele>
        <time>2022-09-17T12:49:47.000Z</time>
      </trkpt>
      <trkpt lat="45.07792" lon="5.16266">
        <ele>191.9</ele>
        <time>2022-09-17T12:49:48.000Z</time>
      </trkpt>
      <trkpt lat="45.07791" lon="5.1626">
        <ele>192</ele>
        <time>2022-09-17T12:49:49.000Z</time>
      </trkpt>
      <trkpt lat="45.0779" lon="5.16254">
        <ele>192.1</ele>
        <time>2022-09-17T12:49:50.000Z</time>
      </trkpt>
      <trkpt lat="45.0779" lon="5.16247">
        <ele>192.1</ele>
        <time>2022-09-17T12:49:51.000Z</time>
      </trkpt>
      <trkpt lat="45.07789" lon="5.16241">
        <ele>192</ele>
        <time>2022-09-17T12:49:52.000Z</time>
      </trkpt>
      <trkpt lat="45.07788" lon="5.16235">
        <ele>191.9</ele>
        <time>2022-09-17T12:49:53.000Z</time>
      </trkpt>
      <trkpt lat="45.07787" lon="5.1623">
        <ele>191.8</ele>
        <time>2022-09-17T12:49:54.000Z</time>
      </trkpt>
      <trkpt lat="45.07786" lon="5.16224">
        <ele>191.8</ele>
        <time>2022-09-17T12:49:55.000Z</time>
      </trkpt>
      <trkpt lat="45.07785" lon="5.16218">
        <ele>191.8</ele>
        <time>2022-09-17T12:49:56.000Z</time>
      </trkpt>
      <trkpt lat="45.07784" lon="5.16212">
        <ele>191.8</ele>
        <time>2022-09-17T12:49:57.000Z</time>
      </trkpt>
      <trkpt lat="45.07784" lon="5.16207">
        <ele>191.8</ele>
        <time>2022-09-17T12:49:58.000Z</time>
      </trkpt>
      <trkpt lat="45.07783" lon="5.16201">
        <ele>191.7</ele>
        <time>2022-09-17T12:49:59.000Z</time>
      </trkpt>
      <trkpt lat="45.07782" lon="5.16195">
        <ele>191.6</ele>
        <time>2022-09-17T12:50:00.000Z</time>
      </trkpt>
      <trkpt lat="45.07781" lon="5.16189">
        <ele>191.7</ele>
        <time>2022-09-17T12:50:01.000Z</time>
      </trkpt>
      <trkpt lat="45.07781" lon="5.16184">
        <ele>191.8</ele>
        <time>2022-09-17T12:50:02.000Z</time>
      </trkpt>
      <trkpt lat="45.0778" lon="5.16179">
        <ele>191.9</ele>
        <time>2022-09-17T12:50:03.000Z</time>
      </trkpt>
      <trkpt lat="45.0778" lon="5.16174">
        <ele>192</ele>
        <time>2022-09-17T12:50:04.000Z</time>
      </trkpt>
      <trkpt lat="45.07779" lon="5.16169">
        <ele>192</ele>
        <time>2022-09-17T12:50:05.000Z</time>
      </trkpt>
      <trkpt lat="45.07778" lon="5.16164">
        <ele>192.1</ele>
        <time>2022-09-17T12:50:06.000Z</time>
      </trkpt>
      <trkpt lat="45.07777" lon="5.16158">
        <ele>192.2</ele>
        <time>2022-09-17T12:50:07.000Z</time>
      </trkpt>
      <trkpt lat="45.07776" lon="5.16154">
        <ele>192.3</ele>
        <time>2022-09-17T12:50:08.000Z</time>
      </trkpt>
      <trkpt lat="45.07775" lon="5.1615">
        <ele>192.3</ele>
        <time>2022-09-17T12:50:09.000Z</time>
      </trkpt>
      <trkpt lat="45.07774" lon="5.16146">
        <ele>192.4</ele>
        <time>2022-09-17T12:50:10.000Z</time>
      </trkpt>
      <trkpt lat="45.07773" lon="5.16142">
        <ele>192.4</ele>
        <time>2022-09-17T12:50:11.000Z</time>
      </trkpt>
      <trkpt lat="45.07772" lon="5.16138">
        <ele>192.4</ele>
        <time>2022-09-17T12:50:12.000Z</time>
      </trkpt>
      <trkpt lat="45.07771" lon="5.16134">
        <ele>192.3</ele>
        <time>2022-09-17T12:50:13.000Z</time>
      </trkpt>
      <trkpt lat="45.07771" lon="5.1613">
        <ele>192.3</ele>
        <time>2022-09-17T12:50:14.000Z</time>
      </trkpt>
      <trkpt lat="45.0777" lon="5.16126">
        <ele>192.3</ele>
        <time>2022-09-17T12:50:15.000Z</time>
      </trkpt>
      <trkpt lat="45.07768" lon="5.16122">
        <ele>192.2</ele>
        <time>2022-09-17T12:50:16.000Z</time>
      </trkpt>
      <trkpt lat="45.07767" lon="5.16118">
        <ele>192.1</ele>
        <time>2022-09-17T12:50:17.000Z</time>
      </trkpt>
      <trkpt lat="45.07766" lon="5.16115">
        <ele>192.1</ele>
        <time>2022-09-17T12:50:18.000Z</time>
      </trkpt>
      <trkpt lat="45.07766" lon="5.16111">
        <ele>192.1</ele>
        <time>2022-09-17T12:50:19.000Z</time>
      </trkpt>
      <trkpt lat="45.07766" lon="5.16106">
        <ele>192.1</ele>
        <time>2022-09-17T12:50:20.000Z</time>
      </trkpt>
      <trkpt lat="45.07766" lon="5.16102">
        <ele>192</ele>
        <time>2022-09-17T12:50:21.000Z</time>
      </trkpt>
      <trkpt lat="45.07767" lon="5.16098">
        <ele>192</ele>
        <time>2022-09-17T12:50:22.000Z</time>
      </trkpt>
      <trkpt lat="45.07768" lon="5.16095">
        <ele>192.1</ele>
        <time>2022-09-17T12:50:23.000Z</time>
      </trkpt>
      <trkpt lat="45.07769" lon="5.16091">
        <ele>192.2</ele>
        <time>2022-09-17T12:50:24.000Z</time>
      </trkpt>
      <trkpt lat="45.07771" lon="5.16088">
        <ele>192.3</ele>
        <time>2022-09-17T12:50:25.000Z</time>
      </trkpt>
      <trkpt lat="45.07773" lon="5.16084">
        <ele>192.5</ele>
        <time>2022-09-17T12:50:26.000Z</time>
      </trkpt>
      <trkpt lat="45.07775" lon="5.1608">
        <ele>192.8</ele>
        <time>2022-09-17T12:50:27.000Z</time>
      </trkpt>
      <trkpt lat="45.07777" lon="5.16075">
        <ele>193.2</ele>
        <time>2022-09-17T12:50:28.000Z</time>
      </trkpt>
      <trkpt lat="45.07779" lon="5.16071">
        <ele>193.7</ele>
        <time>2022-09-17T12:50:29.000Z</time>
      </trkpt>
      <trkpt lat="45.07782" lon="5.16067">
        <ele>194.2</ele>
        <time>2022-09-17T12:50:30.000Z</time>
      </trkpt>
      <trkpt lat="45.07783" lon="5.16063">
        <ele>194.6</ele>
        <time>2022-09-17T12:50:31.000Z</time>
      </trkpt>
      <trkpt lat="45.07785" lon="5.16059">
        <ele>194.9</ele>
        <time>2022-09-17T12:50:32.000Z</time>
      </trkpt>
      <trkpt lat="45.07786" lon="5.16055">
        <ele>195.1</ele>
        <time>2022-09-17T12:50:33.000Z</time>
      </trkpt>
      <trkpt lat="45.07786" lon="5.16051">
        <ele>195.2</ele>
        <time>2022-09-17T12:50:34.000Z</time>
      </trkpt>
      <trkpt lat="45.07787" lon="5.16047">
        <ele>195.3</ele>
        <time>2022-09-17T12:50:35.000Z</time>
      </trkpt>
      <trkpt lat="45.07788" lon="5.16044">
        <ele>195.4</ele>
        <time>2022-09-17T12:50:36.000Z</time>
      </trkpt>
      <trkpt lat="45.07789" lon="5.16041">
        <ele>195.6</ele>
        <time>2022-09-17T12:50:37.000Z</time>
      </trkpt>
      <trkpt lat="45.0779" lon="5.16037">
        <ele>195.8</ele>
        <time>2022-09-17T12:50:38.000Z</time>
      </trkpt>
      <trkpt lat="45.07791" lon="5.16033">
        <ele>195.9</ele>
        <time>2022-09-17T12:50:39.000Z</time>
      </trkpt>
      <trkpt lat="45.07791" lon="5.16029">
        <ele>195.9</ele>
        <time>2022-09-17T12:50:40.000Z</time>
      </trkpt>
      <trkpt lat="45.07793" lon="5.16025">
        <ele>196.1</ele>
        <time>2022-09-17T12:50:41.000Z</time>
      </trkpt>
      <trkpt lat="45.07794" lon="5.16021">
        <ele>196.3</ele>
        <time>2022-09-17T12:50:42.000Z</time>
      </trkpt>
      <trkpt lat="45.07795" lon="5.16017">
        <ele>196.4</ele>
        <time>2022-09-17T12:50:43.000Z</time>
      </trkpt>
      <trkpt lat="45.07796" lon="5.16013">
        <ele>196.6</ele>
        <time>2022-09-17T12:50:44.000Z</time>
      </trkpt>
      <trkpt lat="45.07797" lon="5.16008">
        <ele>196.7</ele>
        <time>2022-09-17T12:50:45.000Z</time>
      </trkpt>
      <trkpt lat="45.07798" lon="5.16004">
        <ele>196.9</ele>
        <time>2022-09-17T12:50:46.000Z</time>
      </trkpt>
      <trkpt lat="45.07799" lon="5.16">
        <ele>197</ele>
        <time>2022-09-17T12:50:47.000Z</time>
      </trkpt>
      <trkpt lat="45.078" lon="5.15996">
        <ele>197</ele>
        <time>2022-09-17T12:50:48.000Z</time>
      </trkpt>
      <trkpt lat="45.07801" lon="5.15993">
        <ele>197</ele>
        <time>2022-09-17T12:50:49.000Z</time>
      </trkpt>
      <trkpt lat="45.07802" lon="5.15989">
        <ele>197</ele>
        <time>2022-09-17T12:50:50.000Z</time>
      </trkpt>
      <trkpt lat="45.07803" lon="5.15985">
        <ele>197</ele>
        <time>2022-09-17T12:50:51.000Z</time>
      </trkpt>
      <trkpt lat="45.07803" lon="5.15981">
        <ele>197</ele>
        <time>2022-09-17T12:50:52.000Z</time>
      </trkpt>
      <trkpt lat="45.07804" lon="5.15976">
        <ele>197</ele>
        <time>2022-09-17T12:50:53.000Z</time>
      </trkpt>
      <trkpt lat="45.07806" lon="5.15972">
        <ele>197</ele>
        <time>2022-09-17T12:50:54.000Z</time>
      </trkpt>
      <trkpt lat="45.07807" lon="5.15967">
        <ele>196.8</ele>
        <time>2022-09-17T12:50:55.000Z</time>
      </trkpt>
      <trkpt lat="45.07808" lon="5.15963">
        <ele>196.6</ele>
        <time>2022-09-17T12:50:56.000Z</time>
      </trkpt>
      <trkpt lat="45.07809" lon="5.15959">
        <ele>196.4</ele>
        <time>2022-09-17T12:50:57.000Z</time>
      </trkpt>
      <trkpt lat="45.0781" lon="5.15955">
        <ele>196.3</ele>
        <time>2022-09-17T12:50:58.000Z</time>
      </trkpt>
      <trkpt lat="45.07812" lon="5.1595">
        <ele>196.2</ele>
        <time>2022-09-17T12:50:59.000Z</time>
      </trkpt>
      <trkpt lat="45.07813" lon="5.15946">
        <ele>196.1</ele>
        <time>2022-09-17T12:51:00.000Z</time>
      </trkpt>
      <trkpt lat="45.07814" lon="5.15941">
        <ele>196.2</ele>
        <time>2022-09-17T12:51:01.000Z</time>
      </trkpt>
      <trkpt lat="45.07815" lon="5.15937">
        <ele>196.4</ele>
        <time>2022-09-17T12:51:02.000Z</time>
      </trkpt>
      <trkpt lat="45.07817" lon="5.15933">
        <ele>196.6</ele>
        <time>2022-09-17T12:51:03.000Z</time>
      </trkpt>
      <trkpt lat="45.07818" lon="5.15928">
        <ele>196.7</ele>
        <time>2022-09-17T12:51:04.000Z</time>
      </trkpt>
      <trkpt lat="45.07819" lon="5.15924">
        <ele>196.9</ele>
        <time>2022-09-17T12:51:05.000Z</time>
      </trkpt>
      <trkpt lat="45.0782" lon="5.15919">
        <ele>197.1</ele>
        <time>2022-09-17T12:51:06.000Z</time>
      </trkpt>
      <trkpt lat="45.07822" lon="5.15915">
        <ele>197.3</ele>
        <time>2022-09-17T12:51:07.000Z</time>
      </trkpt>
      <trkpt lat="45.07823" lon="5.15911">
        <ele>197.3</ele>
        <time>2022-09-17T12:51:08.000Z</time>
      </trkpt>
      <trkpt lat="45.07824" lon="5.15906">
        <ele>197.4</ele>
        <time>2022-09-17T12:51:09.000Z</time>
      </trkpt>
      <trkpt lat="45.07825" lon="5.15901">
        <ele>197.4</ele>
        <time>2022-09-17T12:51:10.000Z</time>
      </trkpt>
      <trkpt lat="45.07826" lon="5.15896">
        <ele>197.4</ele>
        <time>2022-09-17T12:51:11.000Z</time>
      </trkpt>
      <trkpt lat="45.07828" lon="5.15892">
        <ele>197.5</ele>
        <time>2022-09-17T12:51:12.000Z</time>
      </trkpt>
      <trkpt lat="45.07829" lon="5.15887">
        <ele>197.5</ele>
        <time>2022-09-17T12:51:13.000Z</time>
      </trkpt>
      <trkpt lat="45.07831" lon="5.15882">
        <ele>197.7</ele>
        <time>2022-09-17T12:51:14.000Z</time>
      </trkpt>
      <trkpt lat="45.07832" lon="5.15876">
        <ele>197.8</ele>
        <time>2022-09-17T12:51:15.000Z</time>
      </trkpt>
      <trkpt lat="45.07833" lon="5.15871">
        <ele>198</ele>
        <time>2022-09-17T12:51:16.000Z</time>
      </trkpt>
      <trkpt lat="45.07835" lon="5.15865">
        <ele>198.2</ele>
        <time>2022-09-17T12:51:17.000Z</time>
      </trkpt>
      <trkpt lat="45.07836" lon="5.15859">
        <ele>198.1</ele>
        <time>2022-09-17T12:51:18.000Z</time>
      </trkpt>
      <trkpt lat="45.07838" lon="5.15854">
        <ele>197.7</ele>
        <time>2022-09-17T12:51:19.000Z</time>
      </trkpt>
      <trkpt lat="45.07839" lon="5.15848">
        <ele>197.3</ele>
        <time>2022-09-17T12:51:20.000Z</time>
      </trkpt>
      <trkpt lat="45.0784" lon="5.15842">
        <ele>196.9</ele>
        <time>2022-09-17T12:51:21.000Z</time>
      </trkpt>
      <trkpt lat="45.07842" lon="5.15837">
        <ele>196.6</ele>
        <time>2022-09-17T12:51:22.000Z</time>
      </trkpt>
      <trkpt lat="45.07844" lon="5.15831">
        <ele>196.5</ele>
        <time>2022-09-17T12:51:23.000Z</time>
      </trkpt>
      <trkpt lat="45.07845" lon="5.15825">
        <ele>196.7</ele>
        <time>2022-09-17T12:51:24.000Z</time>
      </trkpt>
      <trkpt lat="45.07847" lon="5.15819">
        <ele>197</ele>
        <time>2022-09-17T12:51:25.000Z</time>
      </trkpt>
      <trkpt lat="45.07848" lon="5.15812">
        <ele>197.2</ele>
        <time>2022-09-17T12:51:26.000Z</time>
      </trkpt>
      <trkpt lat="45.0785" lon="5.15806">
        <ele>197.4</ele>
        <time>2022-09-17T12:51:27.000Z</time>
      </trkpt>
      <trkpt lat="45.07851" lon="5.15801">
        <ele>197.7</ele>
        <time>2022-09-17T12:51:28.000Z</time>
      </trkpt>
      <trkpt lat="45.07853" lon="5.15795">
        <ele>197.9</ele>
        <time>2022-09-17T12:51:29.000Z</time>
      </trkpt>
      <trkpt lat="45.07854" lon="5.15789">
        <ele>198.2</ele>
        <time>2022-09-17T12:51:30.000Z</time>
      </trkpt>
      <trkpt lat="45.07856" lon="5.15784">
        <ele>198.4</ele>
        <time>2022-09-17T12:51:31.000Z</time>
      </trkpt>
      <trkpt lat="45.07857" lon="5.15778">
        <ele>198.6</ele>
        <time>2022-09-17T12:51:32.000Z</time>
      </trkpt>
      <trkpt lat="45.07858" lon="5.15772">
        <ele>198.5</ele>
        <time>2022-09-17T12:51:33.000Z</time>
      </trkpt>
      <trkpt lat="45.0786" lon="5.15767">
        <ele>198.5</ele>
        <time>2022-09-17T12:51:34.000Z</time>
      </trkpt>
      <trkpt lat="45.07861" lon="5.15761">
        <ele>198.4</ele>
        <time>2022-09-17T12:51:35.000Z</time>
      </trkpt>
      <trkpt lat="45.07862" lon="5.15755">
        <ele>198.3</ele>
        <time>2022-09-17T12:51:36.000Z</time>
      </trkpt>
      <trkpt lat="45.07864" lon="5.15749">
        <ele>198.4</ele>
        <time>2022-09-17T12:51:37.000Z</time>
      </trkpt>
      <trkpt lat="45.07865" lon="5.15743">
        <ele>198.5</ele>
        <time>2022-09-17T12:51:38.000Z</time>
      </trkpt>
      <trkpt lat="45.07867" lon="5.15737">
        <ele>198.6</ele>
        <time>2022-09-17T12:51:39.000Z</time>
      </trkpt>
      <trkpt lat="45.07868" lon="5.15732">
        <ele>198.6</ele>
        <time>2022-09-17T12:51:40.000Z</time>
      </trkpt>
      <trkpt lat="45.07869" lon="5.15726">
        <ele>198.6</ele>
        <time>2022-09-17T12:51:41.000Z</time>
      </trkpt>
      <trkpt lat="45.0787" lon="5.1572">
        <ele>198.6</ele>
        <time>2022-09-17T12:51:42.000Z</time>
      </trkpt>
      <trkpt lat="45.07871" lon="5.15714">
        <ele>198.5</ele>
        <time>2022-09-17T12:51:43.000Z</time>
      </trkpt>
      <trkpt lat="45.07872" lon="5.15708">
        <ele>198.5</ele>
        <time>2022-09-17T12:51:44.000Z</time>
      </trkpt>
      <trkpt lat="45.07873" lon="5.15702">
        <ele>198.4</ele>
        <time>2022-09-17T12:51:45.000Z</time>
      </trkpt>
      <trkpt lat="45.07874" lon="5.15696">
        <ele>198.4</ele>
        <time>2022-09-17T12:51:46.000Z</time>
      </trkpt>
      <trkpt lat="45.07875" lon="5.1569">
        <ele>198.5</ele>
        <time>2022-09-17T12:51:47.000Z</time>
      </trkpt>
      <trkpt lat="45.07876" lon="5.15684">
        <ele>198.6</ele>
        <time>2022-09-17T12:51:48.000Z</time>
      </trkpt>
      <trkpt lat="45.07877" lon="5.15678">
        <ele>198.7</ele>
        <time>2022-09-17T12:51:49.000Z</time>
      </trkpt>
      <trkpt lat="45.07878" lon="5.15672">
        <ele>198.8</ele>
        <time>2022-09-17T12:51:50.000Z</time>
      </trkpt>
      <trkpt lat="45.07879" lon="5.15667">
        <ele>198.9</ele>
        <time>2022-09-17T12:51:51.000Z</time>
      </trkpt>
      <trkpt lat="45.0788" lon="5.15661">
        <ele>199.1</ele>
        <time>2022-09-17T12:51:52.000Z</time>
      </trkpt>
      <trkpt lat="45.07881" lon="5.15655">
        <ele>199.3</ele>
        <time>2022-09-17T12:51:53.000Z</time>
      </trkpt>
      <trkpt lat="45.07882" lon="5.15649">
        <ele>199.4</ele>
        <time>2022-09-17T12:51:54.000Z</time>
      </trkpt>
      <trkpt lat="45.07883" lon="5.15643">
        <ele>199.6</ele>
        <time>2022-09-17T12:51:55.000Z</time>
      </trkpt>
      <trkpt lat="45.07884" lon="5.15637">
        <ele>199.7</ele>
        <time>2022-09-17T12:51:56.000Z</time>
      </trkpt>
      <trkpt lat="45.07885" lon="5.1563">
        <ele>200</ele>
        <time>2022-09-17T12:51:57.000Z</time>
      </trkpt>
      <trkpt lat="45.07886" lon="5.15624">
        <ele>200.3</ele>
        <time>2022-09-17T12:51:58.000Z</time>
      </trkpt>
      <trkpt lat="45.07887" lon="5.15617">
        <ele>200.6</ele>
        <time>2022-09-17T12:51:59.000Z</time>
      </trkpt>
      <trkpt lat="45.07888" lon="5.15611">
        <ele>200.9</ele>
        <time>2022-09-17T12:52:00.000Z</time>
      </trkpt>
      <trkpt lat="45.0789" lon="5.15605">
        <ele>201</ele>
        <time>2022-09-17T12:52:01.000Z</time>
      </trkpt>
      <trkpt lat="45.07891" lon="5.156">
        <ele>201.1</ele>
        <time>2022-09-17T12:52:02.000Z</time>
      </trkpt>
      <trkpt lat="45.07892" lon="5.15594">
        <ele>201.2</ele>
        <time>2022-09-17T12:52:03.000Z</time>
      </trkpt>
      <trkpt lat="45.07893" lon="5.15589">
        <ele>201.2</ele>
        <time>2022-09-17T12:52:04.000Z</time>
      </trkpt>
      <trkpt lat="45.07894" lon="5.15584">
        <ele>201.2</ele>
        <time>2022-09-17T12:52:05.000Z</time>
      </trkpt>
      <trkpt lat="45.07895" lon="5.15578">
        <ele>201.1</ele>
        <time>2022-09-17T12:52:06.000Z</time>
      </trkpt>
      <trkpt lat="45.07896" lon="5.15573">
        <ele>201.1</ele>
        <time>2022-09-17T12:52:07.000Z</time>
      </trkpt>
      <trkpt lat="45.07898" lon="5.15568">
        <ele>201.1</ele>
        <time>2022-09-17T12:52:08.000Z</time>
      </trkpt>
      <trkpt lat="45.07898" lon="5.15563">
        <ele>201.1</ele>
        <time>2022-09-17T12:52:09.000Z</time>
      </trkpt>
      <trkpt lat="45.07899" lon="5.15559">
        <ele>201.1</ele>
        <time>2022-09-17T12:52:10.000Z</time>
      </trkpt>
      <trkpt lat="45.079" lon="5.15555">
        <ele>201.2</ele>
        <time>2022-09-17T12:52:11.000Z</time>
      </trkpt>
      <trkpt lat="45.07901" lon="5.15551">
        <ele>201.3</ele>
        <time>2022-09-17T12:52:12.000Z</time>
      </trkpt>
      <trkpt lat="45.07902" lon="5.15547">
        <ele>201.4</ele>
        <time>2022-09-17T12:52:13.000Z</time>
      </trkpt>
      <trkpt lat="45.07903" lon="5.15543">
        <ele>201.5</ele>
        <time>2022-09-17T12:52:14.000Z</time>
      </trkpt>
      <trkpt lat="45.07903" lon="5.15539">
        <ele>201.6</ele>
        <time>2022-09-17T12:52:15.000Z</time>
      </trkpt>
      <trkpt lat="45.07904" lon="5.15534">
        <ele>201.7</ele>
        <time>2022-09-17T12:52:16.000Z</time>
      </trkpt>
      <trkpt lat="45.07905" lon="5.1553">
        <ele>201.8</ele>
        <time>2022-09-17T12:52:17.000Z</time>
      </trkpt>
      <trkpt lat="45.07906" lon="5.15525">
        <ele>201.8</ele>
        <time>2022-09-17T12:52:18.000Z</time>
      </trkpt>
      <trkpt lat="45.07907" lon="5.1552">
        <ele>201.9</ele>
        <time>2022-09-17T12:52:19.000Z</time>
      </trkpt>
      <trkpt lat="45.07908" lon="5.15515">
        <ele>202.1</ele>
        <time>2022-09-17T12:52:20.000Z</time>
      </trkpt>
      <trkpt lat="45.07909" lon="5.1551">
        <ele>202.2</ele>
        <time>2022-09-17T12:52:21.000Z</time>
      </trkpt>
      <trkpt lat="45.0791" lon="5.15505">
        <ele>202.3</ele>
        <time>2022-09-17T12:52:22.000Z</time>
      </trkpt>
      <trkpt lat="45.07912" lon="5.155">
        <ele>202.4</ele>
        <time>2022-09-17T12:52:23.000Z</time>
      </trkpt>
      <trkpt lat="45.07913" lon="5.15495">
        <ele>202.6</ele>
        <time>2022-09-17T12:52:24.000Z</time>
      </trkpt>
      <trkpt lat="45.07914" lon="5.15489">
        <ele>202.7</ele>
        <time>2022-09-17T12:52:25.000Z</time>
      </trkpt>
      <trkpt lat="45.07916" lon="5.15483">
        <ele>202.9</ele>
        <time>2022-09-17T12:52:26.000Z</time>
      </trkpt>
      <trkpt lat="45.07917" lon="5.15477">
        <ele>203</ele>
        <time>2022-09-17T12:52:27.000Z</time>
      </trkpt>
      <trkpt lat="45.07919" lon="5.15471">
        <ele>203</ele>
        <time>2022-09-17T12:52:28.000Z</time>
      </trkpt>
      <trkpt lat="45.0792" lon="5.15465">
        <ele>202.9</ele>
        <time>2022-09-17T12:52:29.000Z</time>
      </trkpt>
      <trkpt lat="45.07922" lon="5.15458">
        <ele>202.8</ele>
        <time>2022-09-17T12:52:30.000Z</time>
      </trkpt>
      <trkpt lat="45.07923" lon="5.15452">
        <ele>202.7</ele>
        <time>2022-09-17T12:52:31.000Z</time>
      </trkpt>
      <trkpt lat="45.07925" lon="5.15445">
        <ele>202.6</ele>
        <time>2022-09-17T12:52:32.000Z</time>
      </trkpt>
      <trkpt lat="45.07927" lon="5.15439">
        <ele>202.7</ele>
        <time>2022-09-17T12:52:33.000Z</time>
      </trkpt>
      <trkpt lat="45.07929" lon="5.15433">
        <ele>202.9</ele>
        <time>2022-09-17T12:52:34.000Z</time>
      </trkpt>
      <trkpt lat="45.0793" lon="5.15426">
        <ele>203</ele>
        <time>2022-09-17T12:52:35.000Z</time>
      </trkpt>
      <trkpt lat="45.07932" lon="5.1542">
        <ele>203.1</ele>
        <time>2022-09-17T12:52:36.000Z</time>
      </trkpt>
      <trkpt lat="45.07933" lon="5.15414">
        <ele>203.2</ele>
        <time>2022-09-17T12:52:37.000Z</time>
      </trkpt>
      <trkpt lat="45.07934" lon="5.15409">
        <ele>203.2</ele>
        <time>2022-09-17T12:52:38.000Z</time>
      </trkpt>
      <trkpt lat="45.07936" lon="5.15403">
        <ele>203.2</ele>
        <time>2022-09-17T12:52:39.000Z</time>
      </trkpt>
      <trkpt lat="45.07937" lon="5.15397">
        <ele>203.1</ele>
        <time>2022-09-17T12:52:40.000Z</time>
      </trkpt>
      <trkpt lat="45.07939" lon="5.15391">
        <ele>203</ele>
        <time>2022-09-17T12:52:41.000Z</time>
      </trkpt>
      <trkpt lat="45.0794" lon="5.15385">
        <ele>202.8</ele>
        <time>2022-09-17T12:52:42.000Z</time>
      </trkpt>
      <trkpt lat="45.07942" lon="5.15379">
        <ele>202.6</ele>
        <time>2022-09-17T12:52:43.000Z</time>
      </trkpt>
      <trkpt lat="45.07944" lon="5.15373">
        <ele>202.4</ele>
        <time>2022-09-17T12:52:44.000Z</time>
      </trkpt>
      <trkpt lat="45.07946" lon="5.15366">
        <ele>202.2</ele>
        <time>2022-09-17T12:52:45.000Z</time>
      </trkpt>
      <trkpt lat="45.07948" lon="5.1536">
        <ele>202.1</ele>
        <time>2022-09-17T12:52:46.000Z</time>
      </trkpt>
      <trkpt lat="45.07949" lon="5.15354">
        <ele>201.9</ele>
        <time>2022-09-17T12:52:47.000Z</time>
      </trkpt>
      <trkpt lat="45.07951" lon="5.15348">
        <ele>201.9</ele>
        <time>2022-09-17T12:52:48.000Z</time>
      </trkpt>
      <trkpt lat="45.07952" lon="5.15342">
        <ele>201.8</ele>
        <time>2022-09-17T12:52:49.000Z</time>
      </trkpt>
      <trkpt lat="45.07954" lon="5.15336">
        <ele>201.7</ele>
        <time>2022-09-17T12:52:50.000Z</time>
      </trkpt>
      <trkpt lat="45.07956" lon="5.1533">
        <ele>201.8</ele>
        <time>2022-09-17T12:52:51.000Z</time>
      </trkpt>
      <trkpt lat="45.07957" lon="5.15324">
        <ele>201.9</ele>
        <time>2022-09-17T12:52:52.000Z</time>
      </trkpt>
      <trkpt lat="45.07959" lon="5.15318">
        <ele>202</ele>
        <time>2022-09-17T12:52:53.000Z</time>
      </trkpt>
      <trkpt lat="45.07961" lon="5.15311">
        <ele>202.2</ele>
        <time>2022-09-17T12:52:54.000Z</time>
      </trkpt>
      <trkpt lat="45.07963" lon="5.15304">
        <ele>202.3</ele>
        <time>2022-09-17T12:52:55.000Z</time>
      </trkpt>
      <trkpt lat="45.07965" lon="5.15297">
        <ele>202.1</ele>
        <time>2022-09-17T12:52:56.000Z</time>
      </trkpt>
      <trkpt lat="45.07966" lon="5.15291">
        <ele>202</ele>
        <time>2022-09-17T12:52:57.000Z</time>
      </trkpt>
      <trkpt lat="45.07968" lon="5.15284">
        <ele>201.9</ele>
        <time>2022-09-17T12:52:58.000Z</time>
      </trkpt>
      <trkpt lat="45.0797" lon="5.15277">
        <ele>201.8</ele>
        <time>2022-09-17T12:52:59.000Z</time>
      </trkpt>
      <trkpt lat="45.07972" lon="5.15271">
        <ele>201.9</ele>
        <time>2022-09-17T12:53:00.000Z</time>
      </trkpt>
      <trkpt lat="45.07973" lon="5.15264">
        <ele>202.1</ele>
        <time>2022-09-17T12:53:01.000Z</time>
      </trkpt>
      <trkpt lat="45.07974" lon="5.15257">
        <ele>202.2</ele>
        <time>2022-09-17T12:53:02.000Z</time>
      </trkpt>
      <trkpt lat="45.07976" lon="5.1525">
        <ele>202.4</ele>
        <time>2022-09-17T12:53:03.000Z</time>
      </trkpt>
      <trkpt lat="45.07977" lon="5.15243">
        <ele>202.2</ele>
        <time>2022-09-17T12:53:04.000Z</time>
      </trkpt>
      <trkpt lat="45.07978" lon="5.15236">
        <ele>202.2</ele>
        <time>2022-09-17T12:53:05.000Z</time>
      </trkpt>
      <trkpt lat="45.07978" lon="5.15229">
        <ele>202</ele>
        <time>2022-09-17T12:53:06.000Z</time>
      </trkpt>
      <trkpt lat="45.07979" lon="5.15222">
        <ele>201.9</ele>
        <time>2022-09-17T12:53:07.000Z</time>
      </trkpt>
      <trkpt lat="45.07979" lon="5.15215">
        <ele>201.7</ele>
        <time>2022-09-17T12:53:08.000Z</time>
      </trkpt>
      <trkpt lat="45.0798" lon="5.15207">
        <ele>201.6</ele>
        <time>2022-09-17T12:53:09.000Z</time>
      </trkpt>
      <trkpt lat="45.07981" lon="5.152">
        <ele>201.4</ele>
        <time>2022-09-17T12:53:10.000Z</time>
      </trkpt>
      <trkpt lat="45.07982" lon="5.15193">
        <ele>201.4</ele>
        <time>2022-09-17T12:53:11.000Z</time>
      </trkpt>
      <trkpt lat="45.07983" lon="5.15186">
        <ele>201.5</ele>
        <time>2022-09-17T12:53:12.000Z</time>
      </trkpt>
      <trkpt lat="45.07983" lon="5.15179">
        <ele>201.6</ele>
        <time>2022-09-17T12:53:13.000Z</time>
      </trkpt>
      <trkpt lat="45.07984" lon="5.15171">
        <ele>201.7</ele>
        <time>2022-09-17T12:53:14.000Z</time>
      </trkpt>
      <trkpt lat="45.07984" lon="5.15165">
        <ele>201.7</ele>
        <time>2022-09-17T12:53:15.000Z</time>
      </trkpt>
      <trkpt lat="45.07985" lon="5.15159">
        <ele>201.8</ele>
        <time>2022-09-17T12:53:16.000Z</time>
      </trkpt>
      <trkpt lat="45.07985" lon="5.15153">
        <ele>201.9</ele>
        <time>2022-09-17T12:53:17.000Z</time>
      </trkpt>
      <trkpt lat="45.07986" lon="5.15147">
        <ele>201.9</ele>
        <time>2022-09-17T12:53:18.000Z</time>
      </trkpt>
      <trkpt lat="45.07986" lon="5.15141">
        <ele>202</ele>
        <time>2022-09-17T12:53:19.000Z</time>
      </trkpt>
      <trkpt lat="45.07987" lon="5.15135">
        <ele>202.1</ele>
        <time>2022-09-17T12:53:20.000Z</time>
      </trkpt>
      <trkpt lat="45.07988" lon="5.1513">
        <ele>202.2</ele>
        <time>2022-09-17T12:53:21.000Z</time>
      </trkpt>
      <trkpt lat="45.07989" lon="5.15124">
        <ele>202.4</ele>
        <time>2022-09-17T12:53:22.000Z</time>
      </trkpt>
      <trkpt lat="45.0799" lon="5.15119">
        <ele>202.5</ele>
        <time>2022-09-17T12:53:23.000Z</time>
      </trkpt>
      <trkpt lat="45.0799" lon="5.15114">
        <ele>202.6</ele>
        <time>2022-09-17T12:53:24.000Z</time>
      </trkpt>
      <trkpt lat="45.07991" lon="5.15109">
        <ele>202.8</ele>
        <time>2022-09-17T12:53:25.000Z</time>
      </trkpt>
      <trkpt lat="45.07992" lon="5.15104">
        <ele>202.9</ele>
        <time>2022-09-17T12:53:26.000Z</time>
      </trkpt>
      <trkpt lat="45.07993" lon="5.15099">
        <ele>203.1</ele>
        <time>2022-09-17T12:53:27.000Z</time>
      </trkpt>
      <trkpt lat="45.07994" lon="5.15095">
        <ele>203.3</ele>
        <time>2022-09-17T12:53:28.000Z</time>
      </trkpt>
      <trkpt lat="45.07995" lon="5.15091">
        <ele>203.4</ele>
        <time>2022-09-17T12:53:29.000Z</time>
      </trkpt>
      <trkpt lat="45.07996" lon="5.15086">
        <ele>203.5</ele>
        <time>2022-09-17T12:53:30.000Z</time>
      </trkpt>
      <trkpt lat="45.07997" lon="5.15081">
        <ele>203.5</ele>
        <time>2022-09-17T12:53:31.000Z</time>
      </trkpt>
      <trkpt lat="45.07997" lon="5.15076">
        <ele>203.5</ele>
        <time>2022-09-17T12:53:32.000Z</time>
      </trkpt>
      <trkpt lat="45.07998" lon="5.15071">
        <ele>203.4</ele>
        <time>2022-09-17T12:53:33.000Z</time>
      </trkpt>
      <trkpt lat="45.07999" lon="5.15065">
        <ele>203.3</ele>
        <time>2022-09-17T12:53:34.000Z</time>
      </trkpt>
      <trkpt lat="45.08001" lon="5.15059">
        <ele>203.2</ele>
        <time>2022-09-17T12:53:35.000Z</time>
      </trkpt>
      <trkpt lat="45.08002" lon="5.15053">
        <ele>203</ele>
        <time>2022-09-17T12:53:36.000Z</time>
      </trkpt>
      <trkpt lat="45.08004" lon="5.15047">
        <ele>202.9</ele>
        <time>2022-09-17T12:53:37.000Z</time>
      </trkpt>
      <trkpt lat="45.08006" lon="5.1504">
        <ele>202.8</ele>
        <time>2022-09-17T12:53:38.000Z</time>
      </trkpt>
      <trkpt lat="45.08008" lon="5.15032">
        <ele>202.7</ele>
        <time>2022-09-17T12:53:39.000Z</time>
      </trkpt>
      <trkpt lat="45.0801" lon="5.15025">
        <ele>202.5</ele>
        <time>2022-09-17T12:53:40.000Z</time>
      </trkpt>
      <trkpt lat="45.08012" lon="5.15017">
        <ele>202.2</ele>
        <time>2022-09-17T12:53:41.000Z</time>
      </trkpt>
      <trkpt lat="45.08014" lon="5.15009">
        <ele>202</ele>
        <time>2022-09-17T12:53:42.000Z</time>
      </trkpt>
      <trkpt lat="45.08016" lon="5.15001">
        <ele>201.8</ele>
        <time>2022-09-17T12:53:43.000Z</time>
      </trkpt>
      <trkpt lat="45.08018" lon="5.14993">
        <ele>201.7</ele>
        <time>2022-09-17T12:53:44.000Z</time>
      </trkpt>
      <trkpt lat="45.0802" lon="5.14985">
        <ele>201.6</ele>
        <time>2022-09-17T12:53:45.000Z</time>
      </trkpt>
      <trkpt lat="45.08022" lon="5.14977">
        <ele>201.5</ele>
        <time>2022-09-17T12:53:46.000Z</time>
      </trkpt>
      <trkpt lat="45.08024" lon="5.14968">
        <ele>201.3</ele>
        <time>2022-09-17T12:53:47.000Z</time>
      </trkpt>
      <trkpt lat="45.08026" lon="5.1496">
        <ele>200.9</ele>
        <time>2022-09-17T12:53:48.000Z</time>
      </trkpt>
      <trkpt lat="45.08028" lon="5.14952">
        <ele>200.5</ele>
        <time>2022-09-17T12:53:49.000Z</time>
      </trkpt>
      <trkpt lat="45.0803" lon="5.14944">
        <ele>200.3</ele>
        <time>2022-09-17T12:53:50.000Z</time>
      </trkpt>
      <trkpt lat="45.08032" lon="5.14936">
        <ele>200.2</ele>
        <time>2022-09-17T12:53:51.000Z</time>
      </trkpt>
      <trkpt lat="45.08034" lon="5.14928">
        <ele>200.1</ele>
        <time>2022-09-17T12:53:52.000Z</time>
      </trkpt>
      <trkpt lat="45.08035" lon="5.1492">
        <ele>200</ele>
        <time>2022-09-17T12:53:53.000Z</time>
      </trkpt>
      <trkpt lat="45.08037" lon="5.14912">
        <ele>199.7</ele>
        <time>2022-09-17T12:53:54.000Z</time>
      </trkpt>
      <trkpt lat="45.08039" lon="5.14904">
        <ele>199.5</ele>
        <time>2022-09-17T12:53:55.000Z</time>
      </trkpt>
      <trkpt lat="45.08041" lon="5.14897">
        <ele>199.3</ele>
        <time>2022-09-17T12:53:56.000Z</time>
      </trkpt>
      <trkpt lat="45.08043" lon="5.1489">
        <ele>199.2</ele>
        <time>2022-09-17T12:53:57.000Z</time>
      </trkpt>
      <trkpt lat="45.08045" lon="5.14882">
        <ele>199.2</ele>
        <time>2022-09-17T12:53:58.000Z</time>
      </trkpt>
      <trkpt lat="45.08047" lon="5.14876">
        <ele>199.2</ele>
        <time>2022-09-17T12:53:59.000Z</time>
      </trkpt>
      <trkpt lat="45.08049" lon="5.14869">
        <ele>199.3</ele>
        <time>2022-09-17T12:54:00.000Z</time>
      </trkpt>
      <trkpt lat="45.0805" lon="5.14862">
        <ele>199.3</ele>
        <time>2022-09-17T12:54:01.000Z</time>
      </trkpt>
      <trkpt lat="45.08052" lon="5.14856">
        <ele>199.1</ele>
        <time>2022-09-17T12:54:02.000Z</time>
      </trkpt>
      <trkpt lat="45.08053" lon="5.1485">
        <ele>198.9</ele>
        <time>2022-09-17T12:54:03.000Z</time>
      </trkpt>
      <trkpt lat="45.08055" lon="5.14844">
        <ele>198.6</ele>
        <time>2022-09-17T12:54:04.000Z</time>
      </trkpt>
      <trkpt lat="45.08056" lon="5.14838">
        <ele>198.4</ele>
        <time>2022-09-17T12:54:05.000Z</time>
      </trkpt>
      <trkpt lat="45.08058" lon="5.14832">
        <ele>198.3</ele>
        <time>2022-09-17T12:54:06.000Z</time>
      </trkpt>
      <trkpt lat="45.0806" lon="5.14826">
        <ele>198.4</ele>
        <time>2022-09-17T12:54:07.000Z</time>
      </trkpt>
      <trkpt lat="45.08062" lon="5.14821">
        <ele>198.4</ele>
        <time>2022-09-17T12:54:08.000Z</time>
      </trkpt>
      <trkpt lat="45.08064" lon="5.14815">
        <ele>198.6</ele>
        <time>2022-09-17T12:54:09.000Z</time>
      </trkpt>
      <trkpt lat="45.08066" lon="5.14809">
        <ele>198.7</ele>
        <time>2022-09-17T12:54:10.000Z</time>
      </trkpt>
      <trkpt lat="45.08068" lon="5.14804">
        <ele>198.7</ele>
        <time>2022-09-17T12:54:11.000Z</time>
      </trkpt>
      <trkpt lat="45.0807" lon="5.14798">
        <ele>198.8</ele>
        <time>2022-09-17T12:54:12.000Z</time>
      </trkpt>
      <trkpt lat="45.08073" lon="5.14792">
        <ele>199</ele>
        <time>2022-09-17T12:54:13.000Z</time>
      </trkpt>
      <trkpt lat="45.08075" lon="5.14786">
        <ele>199</ele>
        <time>2022-09-17T12:54:14.000Z</time>
      </trkpt>
      <trkpt lat="45.08077" lon="5.1478">
        <ele>199.1</ele>
        <time>2022-09-17T12:54:15.000Z</time>
      </trkpt>
      <trkpt lat="45.08079" lon="5.14774">
        <ele>199.2</ele>
        <time>2022-09-17T12:54:16.000Z</time>
      </trkpt>
      <trkpt lat="45.08081" lon="5.14768">
        <ele>199.3</ele>
        <time>2022-09-17T12:54:17.000Z</time>
      </trkpt>
      <trkpt lat="45.08083" lon="5.14763">
        <ele>199.4</ele>
        <time>2022-09-17T12:54:18.000Z</time>
      </trkpt>
      <trkpt lat="45.08085" lon="5.14758">
        <ele>199.5</ele>
        <time>2022-09-17T12:54:19.000Z</time>
      </trkpt>
      <trkpt lat="45.08087" lon="5.14752">
        <ele>199.5</ele>
        <time>2022-09-17T12:54:20.000Z</time>
      </trkpt>
      <trkpt lat="45.08089" lon="5.14747">
        <ele>199.5</ele>
        <time>2022-09-17T12:54:21.000Z</time>
      </trkpt>
      <trkpt lat="45.08092" lon="5.14742">
        <ele>199.6</ele>
        <time>2022-09-17T12:54:22.000Z</time>
      </trkpt>
      <trkpt lat="45.08094" lon="5.14737">
        <ele>199.6</ele>
        <time>2022-09-17T12:54:23.000Z</time>
      </trkpt>
      <trkpt lat="45.08096" lon="5.14732">
        <ele>199.7</ele>
        <time>2022-09-17T12:54:24.000Z</time>
      </trkpt>
      <trkpt lat="45.08098" lon="5.14727">
        <ele>199.7</ele>
        <time>2022-09-17T12:54:25.000Z</time>
      </trkpt>
      <trkpt lat="45.081" lon="5.14722">
        <ele>199.8</ele>
        <time>2022-09-17T12:54:26.000Z</time>
      </trkpt>
      <trkpt lat="45.08102" lon="5.14717">
        <ele>199.8</ele>
        <time>2022-09-17T12:54:27.000Z</time>
      </trkpt>
      <trkpt lat="45.08103" lon="5.14712">
        <ele>199.9</ele>
        <time>2022-09-17T12:54:28.000Z</time>
      </trkpt>
      <trkpt lat="45.08105" lon="5.14706">
        <ele>199.8</ele>
        <time>2022-09-17T12:54:29.000Z</time>
      </trkpt>
      <trkpt lat="45.08106" lon="5.14701">
        <ele>199.8</ele>
        <time>2022-09-17T12:54:30.000Z</time>
      </trkpt>
      <trkpt lat="45.08108" lon="5.14695">
        <ele>199.8</ele>
        <time>2022-09-17T12:54:31.000Z</time>
      </trkpt>
      <trkpt lat="45.0811" lon="5.1469">
        <ele>199.8</ele>
        <time>2022-09-17T12:54:32.000Z</time>
      </trkpt>
      <trkpt lat="45.08112" lon="5.14685">
        <ele>199.7</ele>
        <time>2022-09-17T12:54:33.000Z</time>
      </trkpt>
      <trkpt lat="45.08113" lon="5.1468">
        <ele>199.8</ele>
        <time>2022-09-17T12:54:34.000Z</time>
      </trkpt>
      <trkpt lat="45.08115" lon="5.14676">
        <ele>199.8</ele>
        <time>2022-09-17T12:54:35.000Z</time>
      </trkpt>
      <trkpt lat="45.08116" lon="5.14671">
        <ele>199.9</ele>
        <time>2022-09-17T12:54:36.000Z</time>
      </trkpt>
      <trkpt lat="45.08119" lon="5.14667">
        <ele>200.1</ele>
        <time>2022-09-17T12:54:37.000Z</time>
      </trkpt>
      <trkpt lat="45.08121" lon="5.14662">
        <ele>200.3</ele>
        <time>2022-09-17T12:54:38.000Z</time>
      </trkpt>
      <trkpt lat="45.08123" lon="5.14658">
        <ele>200.5</ele>
        <time>2022-09-17T12:54:39.000Z</time>
      </trkpt>
      <trkpt lat="45.08125" lon="5.14653">
        <ele>200.7</ele>
        <time>2022-09-17T12:54:40.000Z</time>
      </trkpt>
      <trkpt lat="45.08127" lon="5.14648">
        <ele>200.8</ele>
        <time>2022-09-17T12:54:41.000Z</time>
      </trkpt>
      <trkpt lat="45.08128" lon="5.14643">
        <ele>201</ele>
        <time>2022-09-17T12:54:42.000Z</time>
      </trkpt>
      <trkpt lat="45.0813" lon="5.14639">
        <ele>201</ele>
        <time>2022-09-17T12:54:43.000Z</time>
      </trkpt>
      <trkpt lat="45.08132" lon="5.14634">
        <ele>201.1</ele>
        <time>2022-09-17T12:54:44.000Z</time>
      </trkpt>
      <trkpt lat="45.08133" lon="5.14629">
        <ele>201.1</ele>
        <time>2022-09-17T12:54:45.000Z</time>
      </trkpt>
      <trkpt lat="45.08134" lon="5.14624">
        <ele>201</ele>
        <time>2022-09-17T12:54:46.000Z</time>
      </trkpt>
      <trkpt lat="45.08136" lon="5.14619">
        <ele>201</ele>
        <time>2022-09-17T12:54:47.000Z</time>
      </trkpt>
      <trkpt lat="45.08137" lon="5.14615">
        <ele>201</ele>
        <time>2022-09-17T12:54:48.000Z</time>
      </trkpt>
      <trkpt lat="45.08139" lon="5.1461">
        <ele>200.9</ele>
        <time>2022-09-17T12:54:49.000Z</time>
      </trkpt>
      <trkpt lat="45.08141" lon="5.14605">
        <ele>201</ele>
        <time>2022-09-17T12:54:50.000Z</time>
      </trkpt>
      <trkpt lat="45.08142" lon="5.146">
        <ele>201.1</ele>
        <time>2022-09-17T12:54:51.000Z</time>
      </trkpt>
      <trkpt lat="45.08144" lon="5.14596">
        <ele>201.1</ele>
        <time>2022-09-17T12:54:52.000Z</time>
      </trkpt>
      <trkpt lat="45.08145" lon="5.14591">
        <ele>201.1</ele>
        <time>2022-09-17T12:54:53.000Z</time>
      </trkpt>
      <trkpt lat="45.08146" lon="5.14587">
        <ele>201.2</ele>
        <time>2022-09-17T12:54:54.000Z</time>
      </trkpt>
      <trkpt lat="45.08148" lon="5.14583">
        <ele>201.2</ele>
        <time>2022-09-17T12:54:55.000Z</time>
      </trkpt>
      <trkpt lat="45.08149" lon="5.14579">
        <ele>201.4</ele>
        <time>2022-09-17T12:54:56.000Z</time>
      </trkpt>
      <trkpt lat="45.0815" lon="5.14574">
        <ele>201.5</ele>
        <time>2022-09-17T12:54:57.000Z</time>
      </trkpt>
      <trkpt lat="45.08151" lon="5.1457">
        <ele>201.6</ele>
        <time>2022-09-17T12:54:58.000Z</time>
      </trkpt>
      <trkpt lat="45.08152" lon="5.14565">
        <ele>201.6</ele>
        <time>2022-09-17T12:54:59.000Z</time>
      </trkpt>
      <trkpt lat="45.08154" lon="5.14561">
        <ele>201.7</ele>
        <time>2022-09-17T12:55:00.000Z</time>
      </trkpt>
      <trkpt lat="45.08155" lon="5.14556">
        <ele>201.7</ele>
        <time>2022-09-17T12:55:01.000Z</time>
      </trkpt>
      <trkpt lat="45.08156" lon="5.14551">
        <ele>201.9</ele>
        <time>2022-09-17T12:55:02.000Z</time>
      </trkpt>
      <trkpt lat="45.08158" lon="5.14547">
        <ele>202.1</ele>
        <time>2022-09-17T12:55:03.000Z</time>
      </trkpt>
      <trkpt lat="45.08159" lon="5.14542">
        <ele>202.3</ele>
        <time>2022-09-17T12:55:04.000Z</time>
      </trkpt>
      <trkpt lat="45.08161" lon="5.14537">
        <ele>202.5</ele>
        <time>2022-09-17T12:55:05.000Z</time>
      </trkpt>
      <trkpt lat="45.08162" lon="5.14532">
        <ele>202.6</ele>
        <time>2022-09-17T12:55:06.000Z</time>
      </trkpt>
      <trkpt lat="45.08163" lon="5.14528">
        <ele>202.7</ele>
        <time>2022-09-17T12:55:07.000Z</time>
      </trkpt>
      <trkpt lat="45.08164" lon="5.14523">
        <ele>203</ele>
        <time>2022-09-17T12:55:08.000Z</time>
      </trkpt>
      <trkpt lat="45.08166" lon="5.14519">
        <ele>203.2</ele>
        <time>2022-09-17T12:55:09.000Z</time>
      </trkpt>
      <trkpt lat="45.08167" lon="5.14515">
        <ele>203.5</ele>
        <time>2022-09-17T12:55:10.000Z</time>
      </trkpt>
      <trkpt lat="45.08168" lon="5.14512">
        <ele>203.6</ele>
        <time>2022-09-17T12:55:11.000Z</time>
      </trkpt>
      <trkpt lat="45.08169" lon="5.14509">
        <ele>203.7</ele>
        <time>2022-09-17T12:55:12.000Z</time>
      </trkpt>
      <trkpt lat="45.0817" lon="5.14507">
        <ele>203.8</ele>
        <time>2022-09-17T12:55:13.000Z</time>
      </trkpt>
      <trkpt lat="45.08171" lon="5.14504">
        <ele>203.9</ele>
        <time>2022-09-17T12:55:14.000Z</time>
      </trkpt>
      <trkpt lat="45.08172" lon="5.14502">
        <ele>204</ele>
        <time>2022-09-17T12:55:15.000Z</time>
      </trkpt>
      <trkpt lat="45.08173" lon="5.14499">
        <ele>203.9</ele>
        <time>2022-09-17T12:55:16.000Z</time>
      </trkpt>
      <trkpt lat="45.08173" lon="5.14495">
        <ele>203.7</ele>
        <time>2022-09-17T12:55:17.000Z</time>
      </trkpt>
      <trkpt lat="45.08174" lon="5.14491">
        <ele>203.5</ele>
        <time>2022-09-17T12:55:18.000Z</time>
      </trkpt>
      <trkpt lat="45.08175" lon="5.14487">
        <ele>203.2</ele>
        <time>2022-09-17T12:55:19.000Z</time>
      </trkpt>
      <trkpt lat="45.08175" lon="5.14483">
        <ele>203</ele>
        <time>2022-09-17T12:55:20.000Z</time>
      </trkpt>
      <trkpt lat="45.08176" lon="5.14478">
        <ele>202.7</ele>
        <time>2022-09-17T12:55:21.000Z</time>
      </trkpt>
      <trkpt lat="45.08177" lon="5.14473">
        <ele>202.4</ele>
        <time>2022-09-17T12:55:22.000Z</time>
      </trkpt>
      <trkpt lat="45.08179" lon="5.14467">
        <ele>202.3</ele>
        <time>2022-09-17T12:55:23.000Z</time>
      </trkpt>
      <trkpt lat="45.0818" lon="5.14462">
        <ele>202.3</ele>
        <time>2022-09-17T12:55:24.000Z</time>
      </trkpt>
      <trkpt lat="45.08182" lon="5.14457">
        <ele>202.3</ele>
        <time>2022-09-17T12:55:25.000Z</time>
      </trkpt>
      <trkpt lat="45.08184" lon="5.14451">
        <ele>202.3</ele>
        <time>2022-09-17T12:55:26.000Z</time>
      </trkpt>
      <trkpt lat="45.08186" lon="5.14446">
        <ele>202.4</ele>
        <time>2022-09-17T12:55:27.000Z</time>
      </trkpt>
      <trkpt lat="45.08187" lon="5.14441">
        <ele>202.4</ele>
        <time>2022-09-17T12:55:28.000Z</time>
      </trkpt>
      <trkpt lat="45.08189" lon="5.14436">
        <ele>202.5</ele>
        <time>2022-09-17T12:55:29.000Z</time>
      </trkpt>
      <trkpt lat="45.08191" lon="5.14431">
        <ele>202.7</ele>
        <time>2022-09-17T12:55:30.000Z</time>
      </trkpt>
      <trkpt lat="45.08193" lon="5.14426">
        <ele>202.9</ele>
        <time>2022-09-17T12:55:31.000Z</time>
      </trkpt>
      <trkpt lat="45.08195" lon="5.14421">
        <ele>203</ele>
        <time>2022-09-17T12:55:32.000Z</time>
      </trkpt>
      <trkpt lat="45.08196" lon="5.14417">
        <ele>203</ele>
        <time>2022-09-17T12:55:33.000Z</time>
      </trkpt>
      <trkpt lat="45.08197" lon="5.14412">
        <ele>202.6</ele>
        <time>2022-09-17T12:55:34.000Z</time>
      </trkpt>
      <trkpt lat="45.08199" lon="5.14407">
        <ele>202.3</ele>
        <time>2022-09-17T12:55:35.000Z</time>
      </trkpt>
      <trkpt lat="45.08201" lon="5.14403">
        <ele>202.1</ele>
        <time>2022-09-17T12:55:36.000Z</time>
      </trkpt>
      <trkpt lat="45.08202" lon="5.14398">
        <ele>201.9</ele>
        <time>2022-09-17T12:55:37.000Z</time>
      </trkpt>
      <trkpt lat="45.08205" lon="5.1439">
        <ele>201.5</ele>
        <time>2022-09-17T12:55:38.000Z</time>
      </trkpt>
      <trkpt lat="45.08207" lon="5.14384">
        <ele>201.7</ele>
        <time>2022-09-17T12:55:39.000Z</time>
      </trkpt>
      <trkpt lat="45.08209" lon="5.1438">
        <ele>202</ele>
        <time>2022-09-17T12:55:40.000Z</time>
      </trkpt>
      <trkpt lat="45.08211" lon="5.14376">
        <ele>202.1</ele>
        <time>2022-09-17T12:55:41.000Z</time>
      </trkpt>
      <trkpt lat="45.08212" lon="5.14371">
        <ele>202.1</ele>
        <time>2022-09-17T12:55:42.000Z</time>
      </trkpt>
      <trkpt lat="45.08215" lon="5.14368">
        <ele>202.4</ele>
        <time>2022-09-17T12:55:45.000Z</time>
      </trkpt>
      <trkpt lat="45.08216" lon="5.14362">
        <ele>202.3</ele>
        <time>2022-09-17T12:55:46.000Z</time>
      </trkpt>
      <trkpt lat="45.08216" lon="5.14357">
        <ele>202.3</ele>
        <time>2022-09-17T12:55:47.000Z</time>
      </trkpt>
      <trkpt lat="45.08217" lon="5.14352">
        <ele>202.4</ele>
        <time>2022-09-17T12:55:48.000Z</time>
      </trkpt>
      <trkpt lat="45.08219" lon="5.14347">
        <ele>202.6</ele>
        <time>2022-09-17T12:55:49.000Z</time>
      </trkpt>
      <trkpt lat="45.08221" lon="5.14342">
        <ele>202.8</ele>
        <time>2022-09-17T12:55:50.000Z</time>
      </trkpt>
      <trkpt lat="45.08223" lon="5.14337">
        <ele>203</ele>
        <time>2022-09-17T12:55:51.000Z</time>
      </trkpt>
      <trkpt lat="45.08225" lon="5.14331">
        <ele>203</ele>
        <time>2022-09-17T12:55:52.000Z</time>
      </trkpt>
      <trkpt lat="45.08226" lon="5.14326">
        <ele>202.7</ele>
        <time>2022-09-17T12:55:53.000Z</time>
      </trkpt>
      <trkpt lat="45.08228" lon="5.1432">
        <ele>202.5</ele>
        <time>2022-09-17T12:55:54.000Z</time>
      </trkpt>
      <trkpt lat="45.0823" lon="5.14316">
        <ele>202.4</ele>
        <time>2022-09-17T12:55:55.000Z</time>
      </trkpt>
      <trkpt lat="45.08232" lon="5.14311">
        <ele>202.3</ele>
        <time>2022-09-17T12:55:56.000Z</time>
      </trkpt>
      <trkpt lat="45.08234" lon="5.14306">
        <ele>202.3</ele>
        <time>2022-09-17T12:55:57.000Z</time>
      </trkpt>
      <trkpt lat="45.08235" lon="5.14301">
        <ele>202.1</ele>
        <time>2022-09-17T12:55:58.000Z</time>
      </trkpt>
      <trkpt lat="45.08236" lon="5.14297">
        <ele>201.9</ele>
        <time>2022-09-17T12:55:59.000Z</time>
      </trkpt>
      <trkpt lat="45.08238" lon="5.14292">
        <ele>201.7</ele>
        <time>2022-09-17T12:56:00.000Z</time>
      </trkpt>
      <trkpt lat="45.0824" lon="5.14287">
        <ele>201.6</ele>
        <time>2022-09-17T12:56:01.000Z</time>
      </trkpt>
      <trkpt lat="45.08242" lon="5.14283">
        <ele>201.4</ele>
        <time>2022-09-17T12:56:02.000Z</time>
      </trkpt>
      <trkpt lat="45.08243" lon="5.14278">
        <ele>201.3</ele>
        <time>2022-09-17T12:56:03.000Z</time>
      </trkpt>
      <trkpt lat="45.08245" lon="5.14273">
        <ele>201.4</ele>
        <time>2022-09-17T12:56:04.000Z</time>
      </trkpt>
      <trkpt lat="45.08247" lon="5.14268">
        <ele>201.6</ele>
        <time>2022-09-17T12:56:05.000Z</time>
      </trkpt>
      <trkpt lat="45.08248" lon="5.14263">
        <ele>201.7</ele>
        <time>2022-09-17T12:56:06.000Z</time>
      </trkpt>
      <trkpt lat="45.0825" lon="5.14258">
        <ele>201.9</ele>
        <time>2022-09-17T12:56:07.000Z</time>
      </trkpt>
      <trkpt lat="45.08251" lon="5.14253">
        <ele>201.9</ele>
        <time>2022-09-17T12:56:08.000Z</time>
      </trkpt>
      <trkpt lat="45.08253" lon="5.14248">
        <ele>201.6</ele>
        <time>2022-09-17T12:56:09.000Z</time>
      </trkpt>
      <trkpt lat="45.08255" lon="5.14243">
        <ele>201.2</ele>
        <time>2022-09-17T12:56:10.000Z</time>
      </trkpt>
      <trkpt lat="45.08257" lon="5.14238">
        <ele>200.9</ele>
        <time>2022-09-17T12:56:11.000Z</time>
      </trkpt>
      <trkpt lat="45.08258" lon="5.14233">
        <ele>200.5</ele>
        <time>2022-09-17T12:56:12.000Z</time>
      </trkpt>
      <trkpt lat="45.0826" lon="5.14227">
        <ele>200.2</ele>
        <time>2022-09-17T12:56:13.000Z</time>
      </trkpt>
      <trkpt lat="45.08262" lon="5.1422">
        <ele>199.9</ele>
        <time>2022-09-17T12:56:14.000Z</time>
      </trkpt>
      <trkpt lat="45.08264" lon="5.14214">
        <ele>199.5</ele>
        <time>2022-09-17T12:56:15.000Z</time>
      </trkpt>
      <trkpt lat="45.08266" lon="5.14207">
        <ele>199.3</ele>
        <time>2022-09-17T12:56:16.000Z</time>
      </trkpt>
      <trkpt lat="45.08268" lon="5.142">
        <ele>199.1</ele>
        <time>2022-09-17T12:56:17.000Z</time>
      </trkpt>
      <trkpt lat="45.0827" lon="5.14193">
        <ele>199.1</ele>
        <time>2022-09-17T12:56:18.000Z</time>
      </trkpt>
      <trkpt lat="45.08272" lon="5.14187">
        <ele>199.3</ele>
        <time>2022-09-17T12:56:19.000Z</time>
      </trkpt>
      <trkpt lat="45.08274" lon="5.14181">
        <ele>199.5</ele>
        <time>2022-09-17T12:56:20.000Z</time>
      </trkpt>
      <trkpt lat="45.08276" lon="5.14174">
        <ele>199.7</ele>
        <time>2022-09-17T12:56:21.000Z</time>
      </trkpt>
      <trkpt lat="45.08278" lon="5.14167">
        <ele>200</ele>
        <time>2022-09-17T12:56:22.000Z</time>
      </trkpt>
      <trkpt lat="45.0828" lon="5.14161">
        <ele>199.7</ele>
        <time>2022-09-17T12:56:23.000Z</time>
      </trkpt>
      <trkpt lat="45.08281" lon="5.14154">
        <ele>199.5</ele>
        <time>2022-09-17T12:56:24.000Z</time>
      </trkpt>
      <trkpt lat="45.08283" lon="5.14147">
        <ele>199.2</ele>
        <time>2022-09-17T12:56:25.000Z</time>
      </trkpt>
      <trkpt lat="45.08285" lon="5.14141">
        <ele>199.1</ele>
        <time>2022-09-17T12:56:26.000Z</time>
      </trkpt>
      <trkpt lat="45.08287" lon="5.14135">
        <ele>198.8</ele>
        <time>2022-09-17T12:56:27.000Z</time>
      </trkpt>
      <trkpt lat="45.08289" lon="5.14128">
        <ele>198.5</ele>
        <time>2022-09-17T12:56:28.000Z</time>
      </trkpt>
      <trkpt lat="45.08291" lon="5.14122">
        <ele>198.4</ele>
        <time>2022-09-17T12:56:29.000Z</time>
      </trkpt>
      <trkpt lat="45.08293" lon="5.14116">
        <ele>198.3</ele>
        <time>2022-09-17T12:56:30.000Z</time>
      </trkpt>
      <trkpt lat="45.08295" lon="5.1411">
        <ele>198.2</ele>
        <time>2022-09-17T12:56:31.000Z</time>
      </trkpt>
      <trkpt lat="45.08297" lon="5.14104">
        <ele>198.3</ele>
        <time>2022-09-17T12:56:32.000Z</time>
      </trkpt>
      <trkpt lat="45.08299" lon="5.14098">
        <ele>198.4</ele>
        <time>2022-09-17T12:56:33.000Z</time>
      </trkpt>
      <trkpt lat="45.08302" lon="5.14092">
        <ele>198.6</ele>
        <time>2022-09-17T12:56:34.000Z</time>
      </trkpt>
      <trkpt lat="45.08303" lon="5.14086">
        <ele>198.8</ele>
        <time>2022-09-17T12:56:35.000Z</time>
      </trkpt>
      <trkpt lat="45.08305" lon="5.14081">
        <ele>199</ele>
        <time>2022-09-17T12:56:36.000Z</time>
      </trkpt>
      <trkpt lat="45.08307" lon="5.14074">
        <ele>199</ele>
        <time>2022-09-17T12:56:37.000Z</time>
      </trkpt>
      <trkpt lat="45.08309" lon="5.14068">
        <ele>198.9</ele>
        <time>2022-09-17T12:56:38.000Z</time>
      </trkpt>
      <trkpt lat="45.0831" lon="5.14063">
        <ele>198.9</ele>
        <time>2022-09-17T12:56:39.000Z</time>
      </trkpt>
      <trkpt lat="45.08312" lon="5.14057">
        <ele>198.8</ele>
        <time>2022-09-17T12:56:40.000Z</time>
      </trkpt>
      <trkpt lat="45.08314" lon="5.14052">
        <ele>198.5</ele>
        <time>2022-09-17T12:56:41.000Z</time>
      </trkpt>
      <trkpt lat="45.08315" lon="5.14046">
        <ele>198.2</ele>
        <time>2022-09-17T12:56:42.000Z</time>
      </trkpt>
      <trkpt lat="45.08317" lon="5.1404">
        <ele>197.9</ele>
        <time>2022-09-17T12:56:43.000Z</time>
      </trkpt>
      <trkpt lat="45.08319" lon="5.14034">
        <ele>197.7</ele>
        <time>2022-09-17T12:56:44.000Z</time>
      </trkpt>
      <trkpt lat="45.08321" lon="5.14028">
        <ele>197.6</ele>
        <time>2022-09-17T12:56:45.000Z</time>
      </trkpt>
      <trkpt lat="45.08322" lon="5.14022">
        <ele>197.5</ele>
        <time>2022-09-17T12:56:46.000Z</time>
      </trkpt>
      <trkpt lat="45.08324" lon="5.14017">
        <ele>197.5</ele>
        <time>2022-09-17T12:56:47.000Z</time>
      </trkpt>
      <trkpt lat="45.08326" lon="5.14012">
        <ele>197.6</ele>
        <time>2022-09-17T12:56:48.000Z</time>
      </trkpt>
      <trkpt lat="45.08327" lon="5.14007">
        <ele>197.6</ele>
        <time>2022-09-17T12:56:49.000Z</time>
      </trkpt>
      <trkpt lat="45.08328" lon="5.14002">
        <ele>197.6</ele>
        <time>2022-09-17T12:56:50.000Z</time>
      </trkpt>
      <trkpt lat="45.0833" lon="5.13997">
        <ele>197.9</ele>
        <time>2022-09-17T12:56:51.000Z</time>
      </trkpt>
      <trkpt lat="45.08331" lon="5.13991">
        <ele>198.2</ele>
        <time>2022-09-17T12:56:52.000Z</time>
      </trkpt>
      <trkpt lat="45.08332" lon="5.13985">
        <ele>198.5</ele>
        <time>2022-09-17T12:56:53.000Z</time>
      </trkpt>
      <trkpt lat="45.08334" lon="5.13979">
        <ele>198.7</ele>
        <time>2022-09-17T12:56:54.000Z</time>
      </trkpt>
      <trkpt lat="45.08335" lon="5.13973">
        <ele>199</ele>
        <time>2022-09-17T12:56:55.000Z</time>
      </trkpt>
      <trkpt lat="45.08337" lon="5.13967">
        <ele>199</ele>
        <time>2022-09-17T12:56:56.000Z</time>
      </trkpt>
      <trkpt lat="45.08339" lon="5.13962">
        <ele>199</ele>
        <time>2022-09-17T12:56:57.000Z</time>
      </trkpt>
      <trkpt lat="45.08341" lon="5.13956">
        <ele>199</ele>
        <time>2022-09-17T12:56:58.000Z</time>
      </trkpt>
      <trkpt lat="45.08342" lon="5.13951">
        <ele>199</ele>
        <time>2022-09-17T12:56:59.000Z</time>
      </trkpt>
      <trkpt lat="45.08344" lon="5.13945">
        <ele>199</ele>
        <time>2022-09-17T12:57:00.000Z</time>
      </trkpt>
      <trkpt lat="45.08346" lon="5.1394">
        <ele>198.8</ele>
        <time>2022-09-17T12:57:01.000Z</time>
      </trkpt>
      <trkpt lat="45.08348" lon="5.13935">
        <ele>198.7</ele>
        <time>2022-09-17T12:57:02.000Z</time>
      </trkpt>
      <trkpt lat="45.08349" lon="5.1393">
        <ele>198.6</ele>
        <time>2022-09-17T12:57:03.000Z</time>
      </trkpt>
      <trkpt lat="45.0835" lon="5.13926">
        <ele>198.5</ele>
        <time>2022-09-17T12:57:04.000Z</time>
      </trkpt>
      <trkpt lat="45.08352" lon="5.13921">
        <ele>198.4</ele>
        <time>2022-09-17T12:57:05.000Z</time>
      </trkpt>
      <trkpt lat="45.08353" lon="5.13917">
        <ele>198.4</ele>
        <time>2022-09-17T12:57:06.000Z</time>
      </trkpt>
      <trkpt lat="45.08355" lon="5.13912">
        <ele>198.7</ele>
        <time>2022-09-17T12:57:07.000Z</time>
      </trkpt>
      <trkpt lat="45.08357" lon="5.13907">
        <ele>199</ele>
        <time>2022-09-17T12:57:08.000Z</time>
      </trkpt>
      <trkpt lat="45.08359" lon="5.13903">
        <ele>199.3</ele>
        <time>2022-09-17T12:57:09.000Z</time>
      </trkpt>
      <trkpt lat="45.08361" lon="5.13897">
        <ele>199.6</ele>
        <time>2022-09-17T12:57:10.000Z</time>
      </trkpt>
      <trkpt lat="45.08363" lon="5.13893">
        <ele>199.9</ele>
        <time>2022-09-17T12:57:11.000Z</time>
      </trkpt>
      <trkpt lat="45.08365" lon="5.13888">
        <ele>199.9</ele>
        <time>2022-09-17T12:57:12.000Z</time>
      </trkpt>
      <trkpt lat="45.08367" lon="5.13883">
        <ele>199.6</ele>
        <time>2022-09-17T12:57:13.000Z</time>
      </trkpt>
      <trkpt lat="45.0837" lon="5.13877">
        <ele>199.4</ele>
        <time>2022-09-17T12:57:14.000Z</time>
      </trkpt>
      <trkpt lat="45.08372" lon="5.13872">
        <ele>199.3</ele>
        <time>2022-09-17T12:57:15.000Z</time>
      </trkpt>
      <trkpt lat="45.08375" lon="5.13867">
        <ele>199.2</ele>
        <time>2022-09-17T12:57:16.000Z</time>
      </trkpt>
      <trkpt lat="45.08377" lon="5.13862">
        <ele>199.2</ele>
        <time>2022-09-17T12:57:17.000Z</time>
      </trkpt>
      <trkpt lat="45.0838" lon="5.13858">
        <ele>199.3</ele>
        <time>2022-09-17T12:57:18.000Z</time>
      </trkpt>
      <trkpt lat="45.08383" lon="5.13853">
        <ele>199.6</ele>
        <time>2022-09-17T12:57:19.000Z</time>
      </trkpt>
      <trkpt lat="45.08386" lon="5.1385">
        <ele>199.8</ele>
        <time>2022-09-17T12:57:20.000Z</time>
      </trkpt>
      <trkpt lat="45.08389" lon="5.13846">
        <ele>200</ele>
        <time>2022-09-17T12:57:21.000Z</time>
      </trkpt>
      <trkpt lat="45.08392" lon="5.13841">
        <ele>200.1</ele>
        <time>2022-09-17T12:57:22.000Z</time>
      </trkpt>
      <trkpt lat="45.08395" lon="5.13837">
        <ele>200.2</ele>
        <time>2022-09-17T12:57:23.000Z</time>
      </trkpt>
      <trkpt lat="45.08398" lon="5.13832">
        <ele>200.3</ele>
        <time>2022-09-17T12:57:24.000Z</time>
      </trkpt>
      <trkpt lat="45.08402" lon="5.13828">
        <ele>200.3</ele>
        <time>2022-09-17T12:57:25.000Z</time>
      </trkpt>
      <trkpt lat="45.08406" lon="5.13825">
        <ele>200.3</ele>
        <time>2022-09-17T12:57:26.000Z</time>
      </trkpt>
      <trkpt lat="45.08409" lon="5.1382">
        <ele>200.2</ele>
        <time>2022-09-17T12:57:27.000Z</time>
      </trkpt>
      <trkpt lat="45.08412" lon="5.13816">
        <ele>200.2</ele>
        <time>2022-09-17T12:57:28.000Z</time>
      </trkpt>
      <trkpt lat="45.08415" lon="5.13812">
        <ele>200.2</ele>
        <time>2022-09-17T12:57:29.000Z</time>
      </trkpt>
      <trkpt lat="45.08418" lon="5.13807">
        <ele>200.1</ele>
        <time>2022-09-17T12:57:30.000Z</time>
      </trkpt>
      <trkpt lat="45.08422" lon="5.13803">
        <ele>200.1</ele>
        <time>2022-09-17T12:57:31.000Z</time>
      </trkpt>
      <trkpt lat="45.08425" lon="5.138">
        <ele>200.1</ele>
        <time>2022-09-17T12:57:32.000Z</time>
      </trkpt>
      <trkpt lat="45.08428" lon="5.13796">
        <ele>200.1</ele>
        <time>2022-09-17T12:57:33.000Z</time>
      </trkpt>
      <trkpt lat="45.08432" lon="5.13791">
        <ele>200</ele>
        <time>2022-09-17T12:57:34.000Z</time>
      </trkpt>
      <trkpt lat="45.08435" lon="5.13787">
        <ele>200</ele>
        <time>2022-09-17T12:57:35.000Z</time>
      </trkpt>
      <trkpt lat="45.08438" lon="5.13783">
        <ele>200</ele>
        <time>2022-09-17T12:57:36.000Z</time>
      </trkpt>
      <trkpt lat="45.08441" lon="5.13779">
        <ele>199.9</ele>
        <time>2022-09-17T12:57:37.000Z</time>
      </trkpt>
      <trkpt lat="45.08444" lon="5.13774">
        <ele>199.9</ele>
        <time>2022-09-17T12:57:38.000Z</time>
      </trkpt>
      <trkpt lat="45.08447" lon="5.1377">
        <ele>199.8</ele>
        <time>2022-09-17T12:57:39.000Z</time>
      </trkpt>
      <trkpt lat="45.08451" lon="5.13766">
        <ele>199.9</ele>
        <time>2022-09-17T12:57:40.000Z</time>
      </trkpt>
      <trkpt lat="45.08454" lon="5.13761">
        <ele>199.9</ele>
        <time>2022-09-17T12:57:41.000Z</time>
      </trkpt>
      <trkpt lat="45.08457" lon="5.13757">
        <ele>200</ele>
        <time>2022-09-17T12:57:42.000Z</time>
      </trkpt>
      <trkpt lat="45.08461" lon="5.13752">
        <ele>200.2</ele>
        <time>2022-09-17T12:57:43.000Z</time>
      </trkpt>
      <trkpt lat="45.08464" lon="5.13748">
        <ele>200.3</ele>
        <time>2022-09-17T12:57:44.000Z</time>
      </trkpt>
      <trkpt lat="45.08467" lon="5.13744">
        <ele>200.2</ele>
        <time>2022-09-17T12:57:45.000Z</time>
      </trkpt>
      <trkpt lat="45.0847" lon="5.13739">
        <ele>200.1</ele>
        <time>2022-09-17T12:57:46.000Z</time>
      </trkpt>
      <trkpt lat="45.08473" lon="5.13735">
        <ele>200</ele>
        <time>2022-09-17T12:57:47.000Z</time>
      </trkpt>
      <trkpt lat="45.08477" lon="5.1373">
        <ele>199.9</ele>
        <time>2022-09-17T12:57:48.000Z</time>
      </trkpt>
      <trkpt lat="45.0848" lon="5.13726">
        <ele>199.8</ele>
        <time>2022-09-17T12:57:49.000Z</time>
      </trkpt>
      <trkpt lat="45.08484" lon="5.13722">
        <ele>199.8</ele>
        <time>2022-09-17T12:57:50.000Z</time>
      </trkpt>
      <trkpt lat="45.08487" lon="5.13717">
        <ele>199.9</ele>
        <time>2022-09-17T12:57:51.000Z</time>
      </trkpt>
      <trkpt lat="45.08491" lon="5.13712">
        <ele>200</ele>
        <time>2022-09-17T12:57:52.000Z</time>
      </trkpt>
      <trkpt lat="45.08494" lon="5.13708">
        <ele>200</ele>
        <time>2022-09-17T12:57:53.000Z</time>
      </trkpt>
      <trkpt lat="45.08498" lon="5.13703">
        <ele>200.1</ele>
        <time>2022-09-17T12:57:54.000Z</time>
      </trkpt>
      <trkpt lat="45.08501" lon="5.13698">
        <ele>200.2</ele>
        <time>2022-09-17T12:57:55.000Z</time>
      </trkpt>
      <trkpt lat="45.08505" lon="5.13694">
        <ele>200.3</ele>
        <time>2022-09-17T12:57:56.000Z</time>
      </trkpt>
      <trkpt lat="45.08508" lon="5.1369">
        <ele>200.2</ele>
        <time>2022-09-17T12:57:57.000Z</time>
      </trkpt>
      <trkpt lat="45.08511" lon="5.13685">
        <ele>200.1</ele>
        <time>2022-09-17T12:57:58.000Z</time>
      </trkpt>
      <trkpt lat="45.08515" lon="5.13681">
        <ele>200.1</ele>
        <time>2022-09-17T12:57:59.000Z</time>
      </trkpt>
      <trkpt lat="45.08519" lon="5.13676">
        <ele>200</ele>
        <time>2022-09-17T12:58:00.000Z</time>
      </trkpt>
      <trkpt lat="45.08522" lon="5.13671">
        <ele>199.9</ele>
        <time>2022-09-17T12:58:01.000Z</time>
      </trkpt>
      <trkpt lat="45.08526" lon="5.13666">
        <ele>199.8</ele>
        <time>2022-09-17T12:58:02.000Z</time>
      </trkpt>
      <trkpt lat="45.08529" lon="5.13662">
        <ele>199.7</ele>
        <time>2022-09-17T12:58:03.000Z</time>
      </trkpt>
      <trkpt lat="45.08532" lon="5.13657">
        <ele>199.6</ele>
        <time>2022-09-17T12:58:04.000Z</time>
      </trkpt>
      <trkpt lat="45.08535" lon="5.13653">
        <ele>199.5</ele>
        <time>2022-09-17T12:58:05.000Z</time>
      </trkpt>
      <trkpt lat="45.08539" lon="5.13648">
        <ele>199.5</ele>
        <time>2022-09-17T12:58:06.000Z</time>
      </trkpt>
      <trkpt lat="45.08542" lon="5.13643">
        <ele>199.3</ele>
        <time>2022-09-17T12:58:07.000Z</time>
      </trkpt>
      <trkpt lat="45.08545" lon="5.13639">
        <ele>199.2</ele>
        <time>2022-09-17T12:58:08.000Z</time>
      </trkpt>
      <trkpt lat="45.08549" lon="5.13634">
        <ele>199.4</ele>
        <time>2022-09-17T12:58:09.000Z</time>
      </trkpt>
      <trkpt lat="45.08552" lon="5.13629">
        <ele>199.5</ele>
        <time>2022-09-17T12:58:10.000Z</time>
      </trkpt>
      <trkpt lat="45.08556" lon="5.13624">
        <ele>199.5</ele>
        <time>2022-09-17T12:58:11.000Z</time>
      </trkpt>
      <trkpt lat="45.0856" lon="5.1362">
        <ele>199.5</ele>
        <time>2022-09-17T12:58:12.000Z</time>
      </trkpt>
      <trkpt lat="45.08563" lon="5.13615">
        <ele>199.4</ele>
        <time>2022-09-17T12:58:13.000Z</time>
      </trkpt>
      <trkpt lat="45.08567" lon="5.13611">
        <ele>199.4</ele>
        <time>2022-09-17T12:58:14.000Z</time>
      </trkpt>
      <trkpt lat="45.0857" lon="5.13606">
        <ele>199.4</ele>
        <time>2022-09-17T12:58:15.000Z</time>
      </trkpt>
      <trkpt lat="45.08573" lon="5.13601">
        <ele>199.5</ele>
        <time>2022-09-17T12:58:16.000Z</time>
      </trkpt>
      <trkpt lat="45.08576" lon="5.13597">
        <ele>199.6</ele>
        <time>2022-09-17T12:58:17.000Z</time>
      </trkpt>
      <trkpt lat="45.08579" lon="5.13592">
        <ele>199.7</ele>
        <time>2022-09-17T12:58:18.000Z</time>
      </trkpt>
      <trkpt lat="45.08582" lon="5.13588">
        <ele>199.9</ele>
        <time>2022-09-17T12:58:19.000Z</time>
      </trkpt>
      <trkpt lat="45.08584" lon="5.13583">
        <ele>199.9</ele>
        <time>2022-09-17T12:58:20.000Z</time>
      </trkpt>
      <trkpt lat="45.08586" lon="5.13578">
        <ele>199.7</ele>
        <time>2022-09-17T12:58:21.000Z</time>
      </trkpt>
      <trkpt lat="45.08588" lon="5.13573">
        <ele>199.5</ele>
        <time>2022-09-17T12:58:22.000Z</time>
      </trkpt>
      <trkpt lat="45.0859" lon="5.13569">
        <ele>199.4</ele>
        <time>2022-09-17T12:58:23.000Z</time>
      </trkpt>
      <trkpt lat="45.08592" lon="5.13564">
        <ele>199.2</ele>
        <time>2022-09-17T12:58:24.000Z</time>
      </trkpt>
      <trkpt lat="45.08592" lon="5.1356">
        <ele>199.1</ele>
        <time>2022-09-17T12:58:25.000Z</time>
      </trkpt>
      <trkpt lat="45.08592" lon="5.13556">
        <ele>199</ele>
        <time>2022-09-17T12:58:26.000Z</time>
      </trkpt>
      <trkpt lat="45.08592" lon="5.13551">
        <ele>198.9</ele>
        <time>2022-09-17T12:58:27.000Z</time>
      </trkpt>
      <trkpt lat="45.08592" lon="5.13548">
        <ele>198.8</ele>
        <time>2022-09-17T12:58:28.000Z</time>
      </trkpt>
      <trkpt lat="45.08593" lon="5.13542">
        <ele>198.7</ele>
        <time>2022-09-17T12:58:30.000Z</time>
      </trkpt>
      <trkpt lat="45.08592" lon="5.1354">
        <ele>198.6</ele>
        <time>2022-09-17T12:58:33.000Z</time>
      </trkpt>
      <trkpt lat="45.08588" lon="5.13541">
        <ele>198.6</ele>
        <time>2022-09-17T12:58:57.000Z</time>
      </trkpt>
      <trkpt lat="45.08587" lon="5.13544">
        <ele>198.6</ele>
        <time>2022-09-17T12:58:59.000Z</time>
      </trkpt>
      <trkpt lat="45.08583" lon="5.13547">
        <ele>198.7</ele>
        <time>2022-09-17T12:59:14.000Z</time>
      </trkpt>
      <trkpt lat="45.08583" lon="5.1355">
        <ele>198.8</ele>
        <time>2022-09-17T12:59:16.000Z</time>
      </trkpt>
      <trkpt lat="45.08585" lon="5.13549">
        <ele>198.8</ele>
        <time>2022-09-17T12:59:18.000Z</time>
      </trkpt>
      <trkpt lat="45.08585" lon="5.13549">
        <ele>198.8</ele>
        <time>2022-09-17T12:59:18.000Z</time>
      </trkpt>
      <trkpt lat="45.08594" lon="5.13541">
        <ele>198.7</ele>
        <time>2022-09-17T13:03:59.000Z</time>
      </trkpt>
      <trkpt lat="45.08594" lon="5.13541">
        <ele>198.7</ele>
        <time>2022-09-17T13:03:59.000Z</time>
      </trkpt>
      <trkpt lat="45.08596" lon="5.13527">
        <ele>198.5</ele>
        <time>2022-09-17T13:04:02.000Z</time>
      </trkpt>
      <trkpt lat="45.086" lon="5.1353">
        <ele>198.6</ele>
        <time>2022-09-17T13:04:05.000Z</time>
      </trkpt>
      <trkpt lat="45.08601" lon="5.13535">
        <ele>198.7</ele>
        <time>2022-09-17T13:04:06.000Z</time>
      </trkpt>
      <trkpt lat="45.08599" lon="5.13539">
        <ele>198.7</ele>
        <time>2022-09-17T13:04:07.000Z</time>
      </trkpt>
      <trkpt lat="45.08599" lon="5.13542">
        <ele>198.8</ele>
        <time>2022-09-17T13:04:08.000Z</time>
      </trkpt>
      <trkpt lat="45.08599" lon="5.13545">
        <ele>198.8</ele>
        <time>2022-09-17T13:04:09.000Z</time>
      </trkpt>
      <trkpt lat="45.08602" lon="5.13539">
        <ele>198.8</ele>
        <time>2022-09-17T13:04:11.000Z</time>
      </trkpt>
      <trkpt lat="45.08603" lon="5.13536">
        <ele>198.8</ele>
        <time>2022-09-17T13:04:12.000Z</time>
      </trkpt>
      <trkpt lat="45.08603" lon="5.13533">
        <ele>198.8</ele>
        <time>2022-09-17T13:04:13.000Z</time>
      </trkpt>
      <trkpt lat="45.08604" lon="5.1353">
        <ele>198.8</ele>
        <time>2022-09-17T13:04:14.000Z</time>
      </trkpt>
      <trkpt lat="45.08606" lon="5.13526">
        <ele>198.8</ele>
        <time>2022-09-17T13:04:15.000Z</time>
      </trkpt>
      <trkpt lat="45.08608" lon="5.13524">
        <ele>198.9</ele>
        <time>2022-09-17T13:04:16.000Z</time>
      </trkpt>
      <trkpt lat="45.0861" lon="5.13524">
        <ele>198.9</ele>
        <time>2022-09-17T13:04:17.000Z</time>
      </trkpt>
      <trkpt lat="45.08611" lon="5.13523">
        <ele>199</ele>
        <time>2022-09-17T13:04:18.000Z</time>
      </trkpt>
      <trkpt lat="45.08613" lon="5.13521">
        <ele>199</ele>
        <time>2022-09-17T13:04:19.000Z</time>
      </trkpt>
      <trkpt lat="45.08614" lon="5.13518">
        <ele>199</ele>
        <time>2022-09-17T13:04:20.000Z</time>
      </trkpt>
      <trkpt lat="45.08615" lon="5.13513">
        <ele>199</ele>
        <time>2022-09-17T13:04:21.000Z</time>
      </trkpt>
      <trkpt lat="45.08617" lon="5.13508">
        <ele>199</ele>
        <time>2022-09-17T13:04:22.000Z</time>
      </trkpt>
      <trkpt lat="45.08619" lon="5.13503">
        <ele>199</ele>
        <time>2022-09-17T13:04:23.000Z</time>
      </trkpt>
      <trkpt lat="45.08621" lon="5.13499">
        <ele>199</ele>
        <time>2022-09-17T13:04:24.000Z</time>
      </trkpt>
      <trkpt lat="45.08624" lon="5.13495">
        <ele>199.2</ele>
        <time>2022-09-17T13:04:25.000Z</time>
      </trkpt>
      <trkpt lat="45.08627" lon="5.13491">
        <ele>199.3</ele>
        <time>2022-09-17T13:04:26.000Z</time>
      </trkpt>
      <trkpt lat="45.0863" lon="5.13487">
        <ele>199.5</ele>
        <time>2022-09-17T13:04:27.000Z</time>
      </trkpt>
      <trkpt lat="45.08632" lon="5.13482">
        <ele>199.6</ele>
        <time>2022-09-17T13:04:28.000Z</time>
      </trkpt>
      <trkpt lat="45.08634" lon="5.13477">
        <ele>199.8</ele>
        <time>2022-09-17T13:04:29.000Z</time>
      </trkpt>
      <trkpt lat="45.08636" lon="5.13472">
        <ele>200</ele>
        <time>2022-09-17T13:04:30.000Z</time>
      </trkpt>
      <trkpt lat="45.08637" lon="5.13467">
        <ele>200</ele>
        <time>2022-09-17T13:04:31.000Z</time>
      </trkpt>
      <trkpt lat="45.08639" lon="5.13462">
        <ele>200</ele>
        <time>2022-09-17T13:04:32.000Z</time>
      </trkpt>
      <trkpt lat="45.08641" lon="5.13457">
        <ele>200</ele>
        <time>2022-09-17T13:04:33.000Z</time>
      </trkpt>
      <trkpt lat="45.08642" lon="5.13453">
        <ele>200</ele>
        <time>2022-09-17T13:04:34.000Z</time>
      </trkpt>
      <trkpt lat="45.08644" lon="5.13448">
        <ele>200</ele>
        <time>2022-09-17T13:04:35.000Z</time>
      </trkpt>
      <trkpt lat="45.08646" lon="5.13444">
        <ele>200</ele>
        <time>2022-09-17T13:04:36.000Z</time>
      </trkpt>
      <trkpt lat="45.08648" lon="5.1344">
        <ele>199.9</ele>
        <time>2022-09-17T13:04:37.000Z</time>
      </trkpt>
      <trkpt lat="45.0865" lon="5.13435">
        <ele>199.8</ele>
        <time>2022-09-17T13:04:38.000Z</time>
      </trkpt>
      <trkpt lat="45.08651" lon="5.13431">
        <ele>199.7</ele>
        <time>2022-09-17T13:04:39.000Z</time>
      </trkpt>
      <trkpt lat="45.08653" lon="5.13427">
        <ele>199.7</ele>
        <time>2022-09-17T13:04:40.000Z</time>
      </trkpt>
      <trkpt lat="45.08654" lon="5.13423">
        <ele>199.7</ele>
        <time>2022-09-17T13:04:41.000Z</time>
      </trkpt>
      <trkpt lat="45.08656" lon="5.13419">
        <ele>199.6</ele>
        <time>2022-09-17T13:04:42.000Z</time>
      </trkpt>
      <trkpt lat="45.08658" lon="5.13414">
        <ele>199.7</ele>
        <time>2022-09-17T13:04:43.000Z</time>
      </trkpt>
      <trkpt lat="45.08659" lon="5.13411">
        <ele>199.7</ele>
        <time>2022-09-17T13:04:44.000Z</time>
      </trkpt>
      <trkpt lat="45.0866" lon="5.13407">
        <ele>199.8</ele>
        <time>2022-09-17T13:04:45.000Z</time>
      </trkpt>
      <trkpt lat="45.08662" lon="5.13403">
        <ele>199.8</ele>
        <time>2022-09-17T13:04:46.000Z</time>
      </trkpt>
      <trkpt lat="45.08664" lon="5.13397">
        <ele>199.9</ele>
        <time>2022-09-17T13:04:48.000Z</time>
      </trkpt>
      <trkpt lat="45.08667" lon="5.13391">
        <ele>200</ele>
        <time>2022-09-17T13:04:49.000Z</time>
      </trkpt>
      <trkpt lat="45.08669" lon="5.13387">
        <ele>200</ele>
        <time>2022-09-17T13:04:50.000Z</time>
      </trkpt>
      <trkpt lat="45.0867" lon="5.13382">
        <ele>200</ele>
        <time>2022-09-17T13:04:51.000Z</time>
      </trkpt>
      <trkpt lat="45.08672" lon="5.13378">
        <ele>200</ele>
        <time>2022-09-17T13:04:52.000Z</time>
      </trkpt>
      <trkpt lat="45.08674" lon="5.13372">
        <ele>200</ele>
        <time>2022-09-17T13:04:53.000Z</time>
      </trkpt>
      <trkpt lat="45.08676" lon="5.13367">
        <ele>200</ele>
        <time>2022-09-17T13:04:54.000Z</time>
      </trkpt>
      <trkpt lat="45.08678" lon="5.13362">
        <ele>200</ele>
        <time>2022-09-17T13:04:55.000Z</time>
      </trkpt>
      <trkpt lat="45.08681" lon="5.13357">
        <ele>199.9</ele>
        <time>2022-09-17T13:04:56.000Z</time>
      </trkpt>
      <trkpt lat="45.08683" lon="5.13353">
        <ele>199.9</ele>
        <time>2022-09-17T13:04:57.000Z</time>
      </trkpt>
      <trkpt lat="45.08685" lon="5.13349">
        <ele>199.8</ele>
        <time>2022-09-17T13:04:58.000Z</time>
      </trkpt>
      <trkpt lat="45.08687" lon="5.13344">
        <ele>199.8</ele>
        <time>2022-09-17T13:04:59.000Z</time>
      </trkpt>
      <trkpt lat="45.08689" lon="5.13339">
        <ele>199.8</ele>
        <time>2022-09-17T13:05:00.000Z</time>
      </trkpt>
      <trkpt lat="45.08691" lon="5.13335">
        <ele>199.9</ele>
        <time>2022-09-17T13:05:01.000Z</time>
      </trkpt>
      <trkpt lat="45.08693" lon="5.1333">
        <ele>199.8</ele>
        <time>2022-09-17T13:05:02.000Z</time>
      </trkpt>
      <trkpt lat="45.08695" lon="5.13326">
        <ele>199.7</ele>
        <time>2022-09-17T13:05:03.000Z</time>
      </trkpt>
      <trkpt lat="45.08697" lon="5.13321">
        <ele>199.6</ele>
        <time>2022-09-17T13:05:04.000Z</time>
      </trkpt>
      <trkpt lat="45.08699" lon="5.13317">
        <ele>199.5</ele>
        <time>2022-09-17T13:05:05.000Z</time>
      </trkpt>
      <trkpt lat="45.08701" lon="5.13312">
        <ele>199.4</ele>
        <time>2022-09-17T13:05:06.000Z</time>
      </trkpt>
      <trkpt lat="45.08703" lon="5.13307">
        <ele>199.4</ele>
        <time>2022-09-17T13:05:07.000Z</time>
      </trkpt>
      <trkpt lat="45.08705" lon="5.13303">
        <ele>199.4</ele>
        <time>2022-09-17T13:05:08.000Z</time>
      </trkpt>
      <trkpt lat="45.08707" lon="5.13299">
        <ele>199.4</ele>
        <time>2022-09-17T13:05:09.000Z</time>
      </trkpt>
      <trkpt lat="45.08709" lon="5.13295">
        <ele>199.3</ele>
        <time>2022-09-17T13:05:10.000Z</time>
      </trkpt>
      <trkpt lat="45.08711" lon="5.13291">
        <ele>199.3</ele>
        <time>2022-09-17T13:05:11.000Z</time>
      </trkpt>
      <trkpt lat="45.08712" lon="5.13288">
        <ele>199.2</ele>
        <time>2022-09-17T13:05:12.000Z</time>
      </trkpt>
      <trkpt lat="45.08714" lon="5.13285">
        <ele>199.2</ele>
        <time>2022-09-17T13:05:13.000Z</time>
      </trkpt>
      <trkpt lat="45.08715" lon="5.13283">
        <ele>199.1</ele>
        <time>2022-09-17T13:05:14.000Z</time>
      </trkpt>
      <trkpt lat="45.08717" lon="5.13282">
        <ele>199.1</ele>
        <time>2022-09-17T13:05:15.000Z</time>
      </trkpt>
      <trkpt lat="45.08719" lon="5.13284">
        <ele>199.2</ele>
        <time>2022-09-17T13:05:17.000Z</time>
      </trkpt>
      <trkpt lat="45.08729" lon="5.13289">
        <ele>199.3</ele>
        <time>2022-09-17T13:07:37.000Z</time>
      </trkpt>
      <trkpt lat="45.08729" lon="5.13289">
        <ele>199.3</ele>
        <time>2022-09-17T13:07:37.000Z</time>
      </trkpt>
      <trkpt lat="45.08735" lon="5.13284">
        <ele>199.1</ele>
        <time>2022-09-17T13:12:00.000Z</time>
      </trkpt>
      <trkpt lat="45.08735" lon="5.13284">
        <ele>199.1</ele>
        <time>2022-09-17T13:12:00.000Z</time>
      </trkpt>
      <trkpt lat="45.0873" lon="5.13283">
        <ele>199.1</ele>
        <time>2022-09-17T13:12:01.000Z</time>
      </trkpt>
      <trkpt lat="45.08727" lon="5.13281">
        <ele>199.1</ele>
        <time>2022-09-17T13:12:02.000Z</time>
      </trkpt>
      <trkpt lat="45.08728" lon="5.13289">
        <ele>199.3</ele>
        <time>2022-09-17T13:12:04.000Z</time>
      </trkpt>
      <trkpt lat="45.08725" lon="5.133">
        <ele>199.7</ele>
        <time>2022-09-17T13:12:05.000Z</time>
      </trkpt>
      <trkpt lat="45.08729" lon="5.13302">
        <ele>199.7</ele>
        <time>2022-09-17T13:12:06.000Z</time>
      </trkpt>
      <trkpt lat="45.08726" lon="5.13305">
        <ele>199.9</ele>
        <time>2022-09-17T13:12:07.000Z</time>
      </trkpt>
      <trkpt lat="45.08726" lon="5.13308">
        <ele>199.9</ele>
        <time>2022-09-17T13:12:09.000Z</time>
      </trkpt>
      <trkpt lat="45.08724" lon="5.13306">
        <ele>200</ele>
        <time>2022-09-17T13:12:11.000Z</time>
      </trkpt>
      <trkpt lat="45.08722" lon="5.13302">
        <ele>199.9</ele>
        <time>2022-09-17T13:12:12.000Z</time>
      </trkpt>
      <trkpt lat="45.08723" lon="5.13299">
        <ele>199.7</ele>
        <time>2022-09-17T13:12:15.000Z</time>
      </trkpt>
      <trkpt lat="45.08723" lon="5.13295">
        <ele>199.6</ele>
        <time>2022-09-17T13:12:17.000Z</time>
      </trkpt>
      <trkpt lat="45.08723" lon="5.13287">
        <ele>199.3</ele>
        <time>2022-09-17T13:12:20.000Z</time>
      </trkpt>
      <trkpt lat="45.08723" lon="5.13285">
        <ele>199.2</ele>
        <time>2022-09-17T13:12:21.000Z</time>
      </trkpt>
      <trkpt lat="45.08724" lon="5.13277">
        <ele>199</ele>
        <time>2022-09-17T13:12:28.000Z</time>
      </trkpt>
      <trkpt lat="45.08724" lon="5.13274">
        <ele>199</ele>
        <time>2022-09-17T13:12:29.000Z</time>
      </trkpt>
      <trkpt lat="45.08724" lon="5.1327">
        <ele>199</ele>
        <time>2022-09-17T13:12:30.000Z</time>
      </trkpt>
      <trkpt lat="45.08724" lon="5.13267">
        <ele>199</ele>
        <time>2022-09-17T13:12:31.000Z</time>
      </trkpt>
      <trkpt lat="45.08725" lon="5.13263">
        <ele>199.1</ele>
        <time>2022-09-17T13:12:32.000Z</time>
      </trkpt>
      <trkpt lat="45.08727" lon="5.1326">
        <ele>199.1</ele>
        <time>2022-09-17T13:12:33.000Z</time>
      </trkpt>
      <trkpt lat="45.08728" lon="5.13256">
        <ele>199.2</ele>
        <time>2022-09-17T13:12:34.000Z</time>
      </trkpt>
      <trkpt lat="45.08729" lon="5.13253">
        <ele>199.2</ele>
        <time>2022-09-17T13:12:35.000Z</time>
      </trkpt>
      <trkpt lat="45.08731" lon="5.13249">
        <ele>199.3</ele>
        <time>2022-09-17T13:12:36.000Z</time>
      </trkpt>
      <trkpt lat="45.08732" lon="5.13245">
        <ele>199.3</ele>
        <time>2022-09-17T13:12:37.000Z</time>
      </trkpt>
      <trkpt lat="45.08734" lon="5.13241">
        <ele>199.3</ele>
        <time>2022-09-17T13:12:38.000Z</time>
      </trkpt>
      <trkpt lat="45.08736" lon="5.13236">
        <ele>199.2</ele>
        <time>2022-09-17T13:12:39.000Z</time>
      </trkpt>
      <trkpt lat="45.08738" lon="5.13231">
        <ele>199.2</ele>
        <time>2022-09-17T13:12:40.000Z</time>
      </trkpt>
      <trkpt lat="45.08741" lon="5.13226">
        <ele>199.1</ele>
        <time>2022-09-17T13:12:41.000Z</time>
      </trkpt>
      <trkpt lat="45.08743" lon="5.13221">
        <ele>199</ele>
        <time>2022-09-17T13:12:42.000Z</time>
      </trkpt>
      <trkpt lat="45.08746" lon="5.13216">
        <ele>199</ele>
        <time>2022-09-17T13:12:43.000Z</time>
      </trkpt>
      <trkpt lat="45.08748" lon="5.13211">
        <ele>199</ele>
        <time>2022-09-17T13:12:44.000Z</time>
      </trkpt>
      <trkpt lat="45.0875" lon="5.13206">
        <ele>199</ele>
        <time>2022-09-17T13:12:45.000Z</time>
      </trkpt>
      <trkpt lat="45.08752" lon="5.13201">
        <ele>199.1</ele>
        <time>2022-09-17T13:12:46.000Z</time>
      </trkpt>
      <trkpt lat="45.08754" lon="5.13196">
        <ele>199.2</ele>
        <time>2022-09-17T13:12:47.000Z</time>
      </trkpt>
      <trkpt lat="45.08756" lon="5.13189">
        <ele>199.2</ele>
        <time>2022-09-17T13:12:48.000Z</time>
      </trkpt>
      <trkpt lat="45.08758" lon="5.13184">
        <ele>199.3</ele>
        <time>2022-09-17T13:12:49.000Z</time>
      </trkpt>
      <trkpt lat="45.0876" lon="5.1318">
        <ele>199.4</ele>
        <time>2022-09-17T13:12:50.000Z</time>
      </trkpt>
      <trkpt lat="45.08763" lon="5.13176">
        <ele>199.5</ele>
        <time>2022-09-17T13:12:51.000Z</time>
      </trkpt>
      <trkpt lat="45.08765" lon="5.13173">
        <ele>199.6</ele>
        <time>2022-09-17T13:12:52.000Z</time>
      </trkpt>
      <trkpt lat="45.08768" lon="5.13169">
        <ele>199.6</ele>
        <time>2022-09-17T13:12:53.000Z</time>
      </trkpt>
      <trkpt lat="45.0877" lon="5.13166">
        <ele>199.7</ele>
        <time>2022-09-17T13:12:54.000Z</time>
      </trkpt>
      <trkpt lat="45.08773" lon="5.13162">
        <ele>199.7</ele>
        <time>2022-09-17T13:12:55.000Z</time>
      </trkpt>
      <trkpt lat="45.08775" lon="5.13157">
        <ele>199.6</ele>
        <time>2022-09-17T13:12:56.000Z</time>
      </trkpt>
      <trkpt lat="45.08777" lon="5.13153">
        <ele>199.5</ele>
        <time>2022-09-17T13:12:57.000Z</time>
      </trkpt>
      <trkpt lat="45.08779" lon="5.13149">
        <ele>199.4</ele>
        <time>2022-09-17T13:12:58.000Z</time>
      </trkpt>
      <trkpt lat="45.0878" lon="5.13144">
        <ele>199.2</ele>
        <time>2022-09-17T13:12:59.000Z</time>
      </trkpt>
      <trkpt lat="45.08781" lon="5.13138">
        <ele>199.1</ele>
        <time>2022-09-17T13:13:00.000Z</time>
      </trkpt>
      <trkpt lat="45.08783" lon="5.13132">
        <ele>199.2</ele>
        <time>2022-09-17T13:13:01.000Z</time>
      </trkpt>
      <trkpt lat="45.08784" lon="5.13128">
        <ele>199.2</ele>
        <time>2022-09-17T13:13:02.000Z</time>
      </trkpt>
      <trkpt lat="45.08785" lon="5.13121">
        <ele>199.3</ele>
        <time>2022-09-17T13:13:03.000Z</time>
      </trkpt>
      <trkpt lat="45.08786" lon="5.13115">
        <ele>199.3</ele>
        <time>2022-09-17T13:13:04.000Z</time>
      </trkpt>
      <trkpt lat="45.08787" lon="5.13109">
        <ele>199.3</ele>
        <time>2022-09-17T13:13:05.000Z</time>
      </trkpt>
      <trkpt lat="45.08787" lon="5.13106">
        <ele>199.3</ele>
        <time>2022-09-17T13:13:06.000Z</time>
      </trkpt>
      <trkpt lat="45.0879" lon="5.131">
        <ele>199.3</ele>
        <time>2022-09-17T13:13:07.000Z</time>
      </trkpt>
      <trkpt lat="45.08792" lon="5.13094">
        <ele>199.2</ele>
        <time>2022-09-17T13:13:08.000Z</time>
      </trkpt>
      <trkpt lat="45.08793" lon="5.13089">
        <ele>199.1</ele>
        <time>2022-09-17T13:13:09.000Z</time>
      </trkpt>
      <trkpt lat="45.08795" lon="5.13084">
        <ele>199</ele>
        <time>2022-09-17T13:13:10.000Z</time>
      </trkpt>
      <trkpt lat="45.08796" lon="5.1308">
        <ele>199</ele>
        <time>2022-09-17T13:13:11.000Z</time>
      </trkpt>
      <trkpt lat="45.08797" lon="5.13075">
        <ele>198.9</ele>
        <time>2022-09-17T13:13:12.000Z</time>
      </trkpt>
      <trkpt lat="45.08798" lon="5.1307">
        <ele>198.9</ele>
        <time>2022-09-17T13:13:14.000Z</time>
      </trkpt>
      <trkpt lat="45.08798" lon="5.13067">
        <ele>198.8</ele>
        <time>2022-09-17T13:13:15.000Z</time>
      </trkpt>
      <trkpt lat="45.08798" lon="5.13064">
        <ele>198.8</ele>
        <time>2022-09-17T13:13:16.000Z</time>
      </trkpt>
      <trkpt lat="45.08799" lon="5.1306">
        <ele>198.8</ele>
        <time>2022-09-17T13:13:17.000Z</time>
      </trkpt>
      <trkpt lat="45.08799" lon="5.13055">
        <ele>198.7</ele>
        <time>2022-09-17T13:13:18.000Z</time>
      </trkpt>
      <trkpt lat="45.08799" lon="5.1305">
        <ele>198.8</ele>
        <time>2022-09-17T13:13:19.000Z</time>
      </trkpt>
      <trkpt lat="45.08799" lon="5.13045">
        <ele>198.9</ele>
        <time>2022-09-17T13:13:20.000Z</time>
      </trkpt>
      <trkpt lat="45.08799" lon="5.13042">
        <ele>198.9</ele>
        <time>2022-09-17T13:13:21.000Z</time>
      </trkpt>
      <trkpt lat="45.08798" lon="5.13037">
        <ele>198.9</ele>
        <time>2022-09-17T13:13:22.000Z</time>
      </trkpt>
      <trkpt lat="45.08799" lon="5.13032">
        <ele>199</ele>
        <time>2022-09-17T13:13:23.000Z</time>
      </trkpt>
      <trkpt lat="45.088" lon="5.13027">
        <ele>199</ele>
        <time>2022-09-17T13:13:24.000Z</time>
      </trkpt>
      <trkpt lat="45.08801" lon="5.13021">
        <ele>199.2</ele>
        <time>2022-09-17T13:13:25.000Z</time>
      </trkpt>
      <trkpt lat="45.08803" lon="5.13015">
        <ele>199.4</ele>
        <time>2022-09-17T13:13:26.000Z</time>
      </trkpt>
      <trkpt lat="45.08804" lon="5.13008">
        <ele>199.7</ele>
        <time>2022-09-17T13:13:27.000Z</time>
      </trkpt>
      <trkpt lat="45.08805" lon="5.13002">
        <ele>199.9</ele>
        <time>2022-09-17T13:13:28.000Z</time>
      </trkpt>
      <trkpt lat="45.08805" lon="5.12996">
        <ele>200.1</ele>
        <time>2022-09-17T13:13:29.000Z</time>
      </trkpt>
      <trkpt lat="45.08805" lon="5.12991">
        <ele>200.3</ele>
        <time>2022-09-17T13:13:30.000Z</time>
      </trkpt>
      <trkpt lat="45.08805" lon="5.12985">
        <ele>200.5</ele>
        <time>2022-09-17T13:13:31.000Z</time>
      </trkpt>
      <trkpt lat="45.08805" lon="5.1298">
        <ele>200.7</ele>
        <time>2022-09-17T13:13:32.000Z</time>
      </trkpt>
      <trkpt lat="45.08805" lon="5.12976">
        <ele>200.8</ele>
        <time>2022-09-17T13:13:33.000Z</time>
      </trkpt>
      <trkpt lat="45.08804" lon="5.12971">
        <ele>200.9</ele>
        <time>2022-09-17T13:13:34.000Z</time>
      </trkpt>
      <trkpt lat="45.08804" lon="5.12967">
        <ele>200.7</ele>
        <time>2022-09-17T13:13:35.000Z</time>
      </trkpt>
      <trkpt lat="45.08804" lon="5.12963">
        <ele>200.5</ele>
        <time>2022-09-17T13:13:36.000Z</time>
      </trkpt>
      <trkpt lat="45.08804" lon="5.1296">
        <ele>200.4</ele>
        <time>2022-09-17T13:13:37.000Z</time>
      </trkpt>
      <trkpt lat="45.08805" lon="5.12957">
        <ele>200.4</ele>
        <time>2022-09-17T13:13:38.000Z</time>
      </trkpt>
      <trkpt lat="45.08805" lon="5.12955">
        <ele>200.3</ele>
        <time>2022-09-17T13:13:39.000Z</time>
      </trkpt>
      <trkpt lat="45.08804" lon="5.12951">
        <ele>200.2</ele>
        <time>2022-09-17T13:13:40.000Z</time>
      </trkpt>
      <trkpt lat="45.08805" lon="5.12947">
        <ele>200</ele>
        <time>2022-09-17T13:13:42.000Z</time>
      </trkpt>
      <trkpt lat="45.08806" lon="5.12943">
        <ele>200.1</ele>
        <time>2022-09-17T13:13:44.000Z</time>
      </trkpt>
      <trkpt lat="45.0881" lon="5.12931">
        <ele>201.1</ele>
        <time>2022-09-17T13:13:54.000Z</time>
      </trkpt>
      <trkpt lat="45.08811" lon="5.12928">
        <ele>201.2</ele>
        <time>2022-09-17T13:13:56.000Z</time>
      </trkpt>
      <trkpt lat="45.08811" lon="5.12923">
        <ele>201.4</ele>
        <time>2022-09-17T13:13:58.000Z</time>
      </trkpt>
      <trkpt lat="45.08811" lon="5.1292">
        <ele>201.4</ele>
        <time>2022-09-17T13:13:59.000Z</time>
      </trkpt>
      <trkpt lat="45.08811" lon="5.12917">
        <ele>201.5</ele>
        <time>2022-09-17T13:14:00.000Z</time>
      </trkpt>
      <trkpt lat="45.0881" lon="5.12913">
        <ele>201.5</ele>
        <time>2022-09-17T13:14:01.000Z</time>
      </trkpt>
      <trkpt lat="45.08811" lon="5.12909">
        <ele>201.6</ele>
        <time>2022-09-17T13:14:02.000Z</time>
      </trkpt>
      <trkpt lat="45.08811" lon="5.12905">
        <ele>201.7</ele>
        <time>2022-09-17T13:14:03.000Z</time>
      </trkpt>
      <trkpt lat="45.08812" lon="5.12901">
        <ele>201.8</ele>
        <time>2022-09-17T13:14:04.000Z</time>
      </trkpt>
      <trkpt lat="45.08813" lon="5.12897">
        <ele>202</ele>
        <time>2022-09-17T13:14:05.000Z</time>
      </trkpt>
      <trkpt lat="45.08814" lon="5.12892">
        <ele>202.1</ele>
        <time>2022-09-17T13:14:06.000Z</time>
      </trkpt>
      <trkpt lat="45.08814" lon="5.12887">
        <ele>202.2</ele>
        <time>2022-09-17T13:14:07.000Z</time>
      </trkpt>
      <trkpt lat="45.08815" lon="5.12883">
        <ele>202.4</ele>
        <time>2022-09-17T13:14:08.000Z</time>
      </trkpt>
      <trkpt lat="45.08816" lon="5.12879">
        <ele>202.5</ele>
        <time>2022-09-17T13:14:09.000Z</time>
      </trkpt>
      <trkpt lat="45.08817" lon="5.12874">
        <ele>202.6</ele>
        <time>2022-09-17T13:14:10.000Z</time>
      </trkpt>
      <trkpt lat="45.08818" lon="5.12869">
        <ele>202.7</ele>
        <time>2022-09-17T13:14:11.000Z</time>
      </trkpt>
      <trkpt lat="45.08818" lon="5.12864">
        <ele>202.8</ele>
        <time>2022-09-17T13:14:12.000Z</time>
      </trkpt>
      <trkpt lat="45.08819" lon="5.12859">
        <ele>202.9</ele>
        <time>2022-09-17T13:14:13.000Z</time>
      </trkpt>
      <trkpt lat="45.08819" lon="5.12854">
        <ele>202.8</ele>
        <time>2022-09-17T13:14:14.000Z</time>
      </trkpt>
      <trkpt lat="45.0882" lon="5.12849">
        <ele>202.8</ele>
        <time>2022-09-17T13:14:15.000Z</time>
      </trkpt>
      <trkpt lat="45.08821" lon="5.12844">
        <ele>202.8</ele>
        <time>2022-09-17T13:14:16.000Z</time>
      </trkpt>
      <trkpt lat="45.08821" lon="5.12839">
        <ele>202.8</ele>
        <time>2022-09-17T13:14:17.000Z</time>
      </trkpt>
      <trkpt lat="45.08822" lon="5.12833">
        <ele>202.8</ele>
        <time>2022-09-17T13:14:18.000Z</time>
      </trkpt>
      <trkpt lat="45.08823" lon="5.12828">
        <ele>203</ele>
        <time>2022-09-17T13:14:19.000Z</time>
      </trkpt>
      <trkpt lat="45.08824" lon="5.12823">
        <ele>203.3</ele>
        <time>2022-09-17T13:14:20.000Z</time>
      </trkpt>
      <trkpt lat="45.08825" lon="5.12818">
        <ele>203.5</ele>
        <time>2022-09-17T13:14:21.000Z</time>
      </trkpt>
      <trkpt lat="45.08826" lon="5.12813">
        <ele>203.8</ele>
        <time>2022-09-17T13:14:22.000Z</time>
      </trkpt>
      <trkpt lat="45.08828" lon="5.12808">
        <ele>204.1</ele>
        <time>2022-09-17T13:14:23.000Z</time>
      </trkpt>
      <trkpt lat="45.08829" lon="5.12804">
        <ele>204.3</ele>
        <time>2022-09-17T13:14:24.000Z</time>
      </trkpt>
      <trkpt lat="45.0883" lon="5.12799">
        <ele>204.3</ele>
        <time>2022-09-17T13:14:25.000Z</time>
      </trkpt>
      <trkpt lat="45.08831" lon="5.12795">
        <ele>204.3</ele>
        <time>2022-09-17T13:14:26.000Z</time>
      </trkpt>
      <trkpt lat="45.08832" lon="5.12791">
        <ele>204.3</ele>
        <time>2022-09-17T13:14:27.000Z</time>
      </trkpt>
      <trkpt lat="45.08833" lon="5.12786">
        <ele>204.2</ele>
        <time>2022-09-17T13:14:28.000Z</time>
      </trkpt>
      <trkpt lat="45.08833" lon="5.12781">
        <ele>204.1</ele>
        <time>2022-09-17T13:14:29.000Z</time>
      </trkpt>
      <trkpt lat="45.08834" lon="5.12776">
        <ele>204</ele>
        <time>2022-09-17T13:14:30.000Z</time>
      </trkpt>
      <trkpt lat="45.08835" lon="5.1277">
        <ele>203.9</ele>
        <time>2022-09-17T13:14:31.000Z</time>
      </trkpt>
      <trkpt lat="45.08836" lon="5.12765">
        <ele>203.7</ele>
        <time>2022-09-17T13:14:32.000Z</time>
      </trkpt>
      <trkpt lat="45.08838" lon="5.1276">
        <ele>203.8</ele>
        <time>2022-09-17T13:14:33.000Z</time>
      </trkpt>
      <trkpt lat="45.08839" lon="5.12755">
        <ele>203.8</ele>
        <time>2022-09-17T13:14:34.000Z</time>
      </trkpt>
      <trkpt lat="45.08841" lon="5.1275">
        <ele>203.8</ele>
        <time>2022-09-17T13:14:35.000Z</time>
      </trkpt>
      <trkpt lat="45.08843" lon="5.12745">
        <ele>204</ele>
        <time>2022-09-17T13:14:36.000Z</time>
      </trkpt>
      <trkpt lat="45.08844" lon="5.12739">
        <ele>204.1</ele>
        <time>2022-09-17T13:14:37.000Z</time>
      </trkpt>
      <trkpt lat="45.08845" lon="5.12733">
        <ele>204.2</ele>
        <time>2022-09-17T13:14:38.000Z</time>
      </trkpt>
      <trkpt lat="45.08847" lon="5.12728">
        <ele>204.4</ele>
        <time>2022-09-17T13:14:39.000Z</time>
      </trkpt>
      <trkpt lat="45.08848" lon="5.12723">
        <ele>204.6</ele>
        <time>2022-09-17T13:14:40.000Z</time>
      </trkpt>
      <trkpt lat="45.0885" lon="5.12719">
        <ele>204.6</ele>
        <time>2022-09-17T13:14:41.000Z</time>
      </trkpt>
      <trkpt lat="45.08851" lon="5.12714">
        <ele>204.6</ele>
        <time>2022-09-17T13:14:42.000Z</time>
      </trkpt>
      <trkpt lat="45.08853" lon="5.12709">
        <ele>204.7</ele>
        <time>2022-09-17T13:14:43.000Z</time>
      </trkpt>
      <trkpt lat="45.08855" lon="5.12704">
        <ele>204.6</ele>
        <time>2022-09-17T13:14:44.000Z</time>
      </trkpt>
      <trkpt lat="45.08856" lon="5.12698">
        <ele>204.6</ele>
        <time>2022-09-17T13:14:45.000Z</time>
      </trkpt>
      <trkpt lat="45.08858" lon="5.12693">
        <ele>204.6</ele>
        <time>2022-09-17T13:14:46.000Z</time>
      </trkpt>
      <trkpt lat="45.08859" lon="5.12688">
        <ele>204.6</ele>
        <time>2022-09-17T13:14:47.000Z</time>
      </trkpt>
      <trkpt lat="45.08861" lon="5.12683">
        <ele>204.5</ele>
        <time>2022-09-17T13:14:48.000Z</time>
      </trkpt>
      <trkpt lat="45.08862" lon="5.12678">
        <ele>204.5</ele>
        <time>2022-09-17T13:14:49.000Z</time>
      </trkpt>
      <trkpt lat="45.08864" lon="5.12673">
        <ele>204.4</ele>
        <time>2022-09-17T13:14:50.000Z</time>
      </trkpt>
      <trkpt lat="45.08866" lon="5.12667">
        <ele>204.3</ele>
        <time>2022-09-17T13:14:51.000Z</time>
      </trkpt>
      <trkpt lat="45.08867" lon="5.12662">
        <ele>204.3</ele>
        <time>2022-09-17T13:14:52.000Z</time>
      </trkpt>
      <trkpt lat="45.08869" lon="5.12657">
        <ele>204.3</ele>
        <time>2022-09-17T13:14:53.000Z</time>
      </trkpt>
      <trkpt lat="45.0887" lon="5.12653">
        <ele>204.3</ele>
        <time>2022-09-17T13:14:54.000Z</time>
      </trkpt>
      <trkpt lat="45.08872" lon="5.12648">
        <ele>204.4</ele>
        <time>2022-09-17T13:14:55.000Z</time>
      </trkpt>
      <trkpt lat="45.08873" lon="5.12643">
        <ele>204.4</ele>
        <time>2022-09-17T13:14:56.000Z</time>
      </trkpt>
      <trkpt lat="45.08875" lon="5.12639">
        <ele>204.5</ele>
        <time>2022-09-17T13:14:57.000Z</time>
      </trkpt>
      <trkpt lat="45.08876" lon="5.12635">
        <ele>204.5</ele>
        <time>2022-09-17T13:14:58.000Z</time>
      </trkpt>
      <trkpt lat="45.08878" lon="5.1263">
        <ele>204.5</ele>
        <time>2022-09-17T13:14:59.000Z</time>
      </trkpt>
      <trkpt lat="45.0888" lon="5.12625">
        <ele>204.5</ele>
        <time>2022-09-17T13:15:00.000Z</time>
      </trkpt>
      <trkpt lat="45.08882" lon="5.1262">
        <ele>204.5</ele>
        <time>2022-09-17T13:15:01.000Z</time>
      </trkpt>
      <trkpt lat="45.08883" lon="5.12615">
        <ele>204.5</ele>
        <time>2022-09-17T13:15:02.000Z</time>
      </trkpt>
      <trkpt lat="45.08885" lon="5.1261">
        <ele>204.6</ele>
        <time>2022-09-17T13:15:03.000Z</time>
      </trkpt>
      <trkpt lat="45.08887" lon="5.12606">
        <ele>204.8</ele>
        <time>2022-09-17T13:15:04.000Z</time>
      </trkpt>
      <trkpt lat="45.0889" lon="5.12601">
        <ele>205</ele>
        <time>2022-09-17T13:15:05.000Z</time>
      </trkpt>
      <trkpt lat="45.08892" lon="5.12597">
        <ele>205</ele>
        <time>2022-09-17T13:15:06.000Z</time>
      </trkpt>
      <trkpt lat="45.08894" lon="5.12593">
        <ele>205</ele>
        <time>2022-09-17T13:15:07.000Z</time>
      </trkpt>
      <trkpt lat="45.08895" lon="5.12588">
        <ele>205</ele>
        <time>2022-09-17T13:15:08.000Z</time>
      </trkpt>
      <trkpt lat="45.08897" lon="5.12584">
        <ele>205</ele>
        <time>2022-09-17T13:15:09.000Z</time>
      </trkpt>
      <trkpt lat="45.08898" lon="5.12579">
        <ele>204.8</ele>
        <time>2022-09-17T13:15:10.000Z</time>
      </trkpt>
      <trkpt lat="45.089" lon="5.12574">
        <ele>204.6</ele>
        <time>2022-09-17T13:15:11.000Z</time>
      </trkpt>
      <trkpt lat="45.08901" lon="5.12569">
        <ele>204.4</ele>
        <time>2022-09-17T13:15:12.000Z</time>
      </trkpt>
      <trkpt lat="45.08903" lon="5.12564">
        <ele>204.3</ele>
        <time>2022-09-17T13:15:13.000Z</time>
      </trkpt>
      <trkpt lat="45.08904" lon="5.12559">
        <ele>204.2</ele>
        <time>2022-09-17T13:15:14.000Z</time>
      </trkpt>
      <trkpt lat="45.08906" lon="5.12554">
        <ele>204.2</ele>
        <time>2022-09-17T13:15:15.000Z</time>
      </trkpt>
      <trkpt lat="45.08907" lon="5.12549">
        <ele>204.3</ele>
        <time>2022-09-17T13:15:16.000Z</time>
      </trkpt>
      <trkpt lat="45.08909" lon="5.12544">
        <ele>204.4</ele>
        <time>2022-09-17T13:15:17.000Z</time>
      </trkpt>
      <trkpt lat="45.0891" lon="5.12539">
        <ele>204.5</ele>
        <time>2022-09-17T13:15:18.000Z</time>
      </trkpt>
      <trkpt lat="45.08911" lon="5.12534">
        <ele>204.6</ele>
        <time>2022-09-17T13:15:19.000Z</time>
      </trkpt>
      <trkpt lat="45.08912" lon="5.12528">
        <ele>204.6</ele>
        <time>2022-09-17T13:15:20.000Z</time>
      </trkpt>
      <trkpt lat="45.08913" lon="5.12523">
        <ele>204.5</ele>
        <time>2022-09-17T13:15:21.000Z</time>
      </trkpt>
      <trkpt lat="45.08914" lon="5.12517">
        <ele>204.4</ele>
        <time>2022-09-17T13:15:22.000Z</time>
      </trkpt>
      <trkpt lat="45.08916" lon="5.12511">
        <ele>204.3</ele>
        <time>2022-09-17T13:15:23.000Z</time>
      </trkpt>
      <trkpt lat="45.08917" lon="5.12505">
        <ele>204.2</ele>
        <time>2022-09-17T13:15:24.000Z</time>
      </trkpt>
      <trkpt lat="45.08918" lon="5.12499">
        <ele>204</ele>
        <time>2022-09-17T13:15:25.000Z</time>
      </trkpt>
      <trkpt lat="45.08919" lon="5.12493">
        <ele>204</ele>
        <time>2022-09-17T13:15:26.000Z</time>
      </trkpt>
      <trkpt lat="45.08919" lon="5.12487">
        <ele>204</ele>
        <time>2022-09-17T13:15:27.000Z</time>
      </trkpt>
      <trkpt lat="45.0892" lon="5.12481">
        <ele>204</ele>
        <time>2022-09-17T13:15:28.000Z</time>
      </trkpt>
      <trkpt lat="45.08921" lon="5.12475">
        <ele>204</ele>
        <time>2022-09-17T13:15:29.000Z</time>
      </trkpt>
      <trkpt lat="45.08921" lon="5.12469">
        <ele>204</ele>
        <time>2022-09-17T13:15:30.000Z</time>
      </trkpt>
      <trkpt lat="45.08921" lon="5.12462">
        <ele>203.9</ele>
        <time>2022-09-17T13:15:31.000Z</time>
      </trkpt>
      <trkpt lat="45.08922" lon="5.12456">
        <ele>203.9</ele>
        <time>2022-09-17T13:15:32.000Z</time>
      </trkpt>
      <trkpt lat="45.08921" lon="5.12449">
        <ele>203.9</ele>
        <time>2022-09-17T13:15:33.000Z</time>
      </trkpt>
      <trkpt lat="45.08921" lon="5.12443">
        <ele>203.8</ele>
        <time>2022-09-17T13:15:34.000Z</time>
      </trkpt>
      <trkpt lat="45.0892" lon="5.12435">
        <ele>203.5</ele>
        <time>2022-09-17T13:15:35.000Z</time>
      </trkpt>
      <trkpt lat="45.0892" lon="5.12428">
        <ele>203.3</ele>
        <time>2022-09-17T13:15:36.000Z</time>
      </trkpt>
      <trkpt lat="45.0892" lon="5.1242">
        <ele>203</ele>
        <time>2022-09-17T13:15:37.000Z</time>
      </trkpt>
      <trkpt lat="45.0892" lon="5.12413">
        <ele>202.7</ele>
        <time>2022-09-17T13:15:38.000Z</time>
      </trkpt>
      <trkpt lat="45.08919" lon="5.12405">
        <ele>202.5</ele>
        <time>2022-09-17T13:15:39.000Z</time>
      </trkpt>
      <trkpt lat="45.08919" lon="5.12398">
        <ele>202.2</ele>
        <time>2022-09-17T13:15:40.000Z</time>
      </trkpt>
      <trkpt lat="45.08919" lon="5.1239">
        <ele>202</ele>
        <time>2022-09-17T13:15:41.000Z</time>
      </trkpt>
      <trkpt lat="45.08918" lon="5.12382">
        <ele>201.7</ele>
        <time>2022-09-17T13:15:42.000Z</time>
      </trkpt>
      <trkpt lat="45.08918" lon="5.12375">
        <ele>201.5</ele>
        <time>2022-09-17T13:15:43.000Z</time>
      </trkpt>
      <trkpt lat="45.08917" lon="5.12367">
        <ele>201.2</ele>
        <time>2022-09-17T13:15:44.000Z</time>
      </trkpt>
      <trkpt lat="45.08917" lon="5.12359">
        <ele>200.9</ele>
        <time>2022-09-17T13:15:45.000Z</time>
      </trkpt>
      <trkpt lat="45.08917" lon="5.12351">
        <ele>200.6</ele>
        <time>2022-09-17T13:15:46.000Z</time>
      </trkpt>
      <trkpt lat="45.08917" lon="5.12344">
        <ele>200.4</ele>
        <time>2022-09-17T13:15:47.000Z</time>
      </trkpt>
      <trkpt lat="45.08916" lon="5.12337">
        <ele>200.1</ele>
        <time>2022-09-17T13:15:48.000Z</time>
      </trkpt>
      <trkpt lat="45.08916" lon="5.12329">
        <ele>200</ele>
        <time>2022-09-17T13:15:49.000Z</time>
      </trkpt>
      <trkpt lat="45.08916" lon="5.12321">
        <ele>200</ele>
        <time>2022-09-17T13:15:50.000Z</time>
      </trkpt>
      <trkpt lat="45.08916" lon="5.12313">
        <ele>200</ele>
        <time>2022-09-17T13:15:51.000Z</time>
      </trkpt>
      <trkpt lat="45.08916" lon="5.12305">
        <ele>200</ele>
        <time>2022-09-17T13:15:52.000Z</time>
      </trkpt>
      <trkpt lat="45.08916" lon="5.12298">
        <ele>200</ele>
        <time>2022-09-17T13:15:53.000Z</time>
      </trkpt>
      <trkpt lat="45.08916" lon="5.1229">
        <ele>200</ele>
        <time>2022-09-17T13:15:54.000Z</time>
      </trkpt>
      <trkpt lat="45.08917" lon="5.12282">
        <ele>200</ele>
        <time>2022-09-17T13:15:55.000Z</time>
      </trkpt>
      <trkpt lat="45.08917" lon="5.12274">
        <ele>200</ele>
        <time>2022-09-17T13:15:56.000Z</time>
      </trkpt>
      <trkpt lat="45.08917" lon="5.12266">
        <ele>200</ele>
        <time>2022-09-17T13:15:57.000Z</time>
      </trkpt>
      <trkpt lat="45.08917" lon="5.12258">
        <ele>200</ele>
        <time>2022-09-17T13:15:58.000Z</time>
      </trkpt>
      <trkpt lat="45.08916" lon="5.12251">
        <ele>200</ele>
        <time>2022-09-17T13:15:59.000Z</time>
      </trkpt>
      <trkpt lat="45.08916" lon="5.12242">
        <ele>199.7</ele>
        <time>2022-09-17T13:16:00.000Z</time>
      </trkpt>
      <trkpt lat="45.08915" lon="5.12234">
        <ele>199.3</ele>
        <time>2022-09-17T13:16:01.000Z</time>
      </trkpt>
      <trkpt lat="45.08914" lon="5.12225">
        <ele>198.9</ele>
        <time>2022-09-17T13:16:02.000Z</time>
      </trkpt>
      <trkpt lat="45.08914" lon="5.12217">
        <ele>198.8</ele>
        <time>2022-09-17T13:16:03.000Z</time>
      </trkpt>
      <trkpt lat="45.08913" lon="5.1221">
        <ele>198.7</ele>
        <time>2022-09-17T13:16:04.000Z</time>
      </trkpt>
      <trkpt lat="45.08913" lon="5.12202">
        <ele>198.7</ele>
        <time>2022-09-17T13:16:05.000Z</time>
      </trkpt>
      <trkpt lat="45.08912" lon="5.12195">
        <ele>198.7</ele>
        <time>2022-09-17T13:16:06.000Z</time>
      </trkpt>
      <trkpt lat="45.08912" lon="5.12187">
        <ele>198.5</ele>
        <time>2022-09-17T13:16:07.000Z</time>
      </trkpt>
      <trkpt lat="45.08912" lon="5.1218">
        <ele>198.2</ele>
        <time>2022-09-17T13:16:08.000Z</time>
      </trkpt>
      <trkpt lat="45.08912" lon="5.12173">
        <ele>198</ele>
        <time>2022-09-17T13:16:09.000Z</time>
      </trkpt>
      <trkpt lat="45.08911" lon="5.12165">
        <ele>197.8</ele>
        <time>2022-09-17T13:16:10.000Z</time>
      </trkpt>
      <trkpt lat="45.0891" lon="5.12158">
        <ele>197.5</ele>
        <time>2022-09-17T13:16:11.000Z</time>
      </trkpt>
      <trkpt lat="45.0891" lon="5.12151">
        <ele>197.3</ele>
        <time>2022-09-17T13:16:12.000Z</time>
      </trkpt>
      <trkpt lat="45.08909" lon="5.12143">
        <ele>197.1</ele>
        <time>2022-09-17T13:16:13.000Z</time>
      </trkpt>
      <trkpt lat="45.08908" lon="5.12136">
        <ele>197</ele>
        <time>2022-09-17T13:16:14.000Z</time>
      </trkpt>
      <trkpt lat="45.08907" lon="5.12129">
        <ele>197</ele>
        <time>2022-09-17T13:16:15.000Z</time>
      </trkpt>
      <trkpt lat="45.08906" lon="5.12121">
        <ele>197</ele>
        <time>2022-09-17T13:16:16.000Z</time>
      </trkpt>
      <trkpt lat="45.08905" lon="5.12113">
        <ele>197</ele>
        <time>2022-09-17T13:16:17.000Z</time>
      </trkpt>
      <trkpt lat="45.08905" lon="5.12106">
        <ele>197</ele>
        <time>2022-09-17T13:16:18.000Z</time>
      </trkpt>
      <trkpt lat="45.08904" lon="5.12098">
        <ele>197</ele>
        <time>2022-09-17T13:16:19.000Z</time>
      </trkpt>
      <trkpt lat="45.08903" lon="5.1209">
        <ele>197</ele>
        <time>2022-09-17T13:16:20.000Z</time>
      </trkpt>
      <trkpt lat="45.08902" lon="5.12083">
        <ele>197</ele>
        <time>2022-09-17T13:16:21.000Z</time>
      </trkpt>
      <trkpt lat="45.08901" lon="5.12075">
        <ele>197</ele>
        <time>2022-09-17T13:16:22.000Z</time>
      </trkpt>
      <trkpt lat="45.08901" lon="5.12068">
        <ele>197</ele>
        <time>2022-09-17T13:16:23.000Z</time>
      </trkpt>
      <trkpt lat="45.089" lon="5.1206">
        <ele>197</ele>
        <time>2022-09-17T13:16:24.000Z</time>
      </trkpt>
      <trkpt lat="45.08899" lon="5.12053">
        <ele>197</ele>
        <time>2022-09-17T13:16:25.000Z</time>
      </trkpt>
      <trkpt lat="45.08899" lon="5.12045">
        <ele>196.9</ele>
        <time>2022-09-17T13:16:26.000Z</time>
      </trkpt>
      <trkpt lat="45.08898" lon="5.12037">
        <ele>196.8</ele>
        <time>2022-09-17T13:16:27.000Z</time>
      </trkpt>
      <trkpt lat="45.08898" lon="5.1203">
        <ele>196.7</ele>
        <time>2022-09-17T13:16:28.000Z</time>
      </trkpt>
      <trkpt lat="45.08897" lon="5.12022">
        <ele>196.7</ele>
        <time>2022-09-17T13:16:29.000Z</time>
      </trkpt>
      <trkpt lat="45.08897" lon="5.12015">
        <ele>196.7</ele>
        <time>2022-09-17T13:16:30.000Z</time>
      </trkpt>
      <trkpt lat="45.08896" lon="5.12007">
        <ele>196.7</ele>
        <time>2022-09-17T13:16:31.000Z</time>
      </trkpt>
      <trkpt lat="45.08896" lon="5.11999">
        <ele>196.8</ele>
        <time>2022-09-17T13:16:32.000Z</time>
      </trkpt>
      <trkpt lat="45.08895" lon="5.11992">
        <ele>197</ele>
        <time>2022-09-17T13:16:33.000Z</time>
      </trkpt>
      <trkpt lat="45.08894" lon="5.11984">
        <ele>197.3</ele>
        <time>2022-09-17T13:16:34.000Z</time>
      </trkpt>
      <trkpt lat="45.08894" lon="5.11976">
        <ele>197.5</ele>
        <time>2022-09-17T13:16:35.000Z</time>
      </trkpt>
      <trkpt lat="45.08893" lon="5.11968">
        <ele>197.5</ele>
        <time>2022-09-17T13:16:36.000Z</time>
      </trkpt>
      <trkpt lat="45.08893" lon="5.11961">
        <ele>197.3</ele>
        <time>2022-09-17T13:16:37.000Z</time>
      </trkpt>
      <trkpt lat="45.08893" lon="5.11953">
        <ele>197.1</ele>
        <time>2022-09-17T13:16:38.000Z</time>
      </trkpt>
      <trkpt lat="45.08892" lon="5.11946">
        <ele>196.9</ele>
        <time>2022-09-17T13:16:39.000Z</time>
      </trkpt>
      <trkpt lat="45.08891" lon="5.11939">
        <ele>196.9</ele>
        <time>2022-09-17T13:16:40.000Z</time>
      </trkpt>
      <trkpt lat="45.08891" lon="5.11931">
        <ele>196.9</ele>
        <time>2022-09-17T13:16:41.000Z</time>
      </trkpt>
      <trkpt lat="45.08891" lon="5.11924">
        <ele>196.9</ele>
        <time>2022-09-17T13:16:42.000Z</time>
      </trkpt>
      <trkpt lat="45.0889" lon="5.11917">
        <ele>196.9</ele>
        <time>2022-09-17T13:16:43.000Z</time>
      </trkpt>
      <trkpt lat="45.0889" lon="5.11909">
        <ele>196.7</ele>
        <time>2022-09-17T13:16:44.000Z</time>
      </trkpt>
      <trkpt lat="45.0889" lon="5.11902">
        <ele>196.5</ele>
        <time>2022-09-17T13:16:45.000Z</time>
      </trkpt>
      <trkpt lat="45.08889" lon="5.11894">
        <ele>196.2</ele>
        <time>2022-09-17T13:16:46.000Z</time>
      </trkpt>
      <trkpt lat="45.08889" lon="5.11887">
        <ele>196</ele>
        <time>2022-09-17T13:16:47.000Z</time>
      </trkpt>
      <trkpt lat="45.08889" lon="5.11879">
        <ele>196</ele>
        <time>2022-09-17T13:16:48.000Z</time>
      </trkpt>
      <trkpt lat="45.08888" lon="5.11871">
        <ele>196</ele>
        <time>2022-09-17T13:16:49.000Z</time>
      </trkpt>
      <trkpt lat="45.08888" lon="5.11863">
        <ele>196</ele>
        <time>2022-09-17T13:16:50.000Z</time>
      </trkpt>
      <trkpt lat="45.08888" lon="5.11856">
        <ele>196</ele>
        <time>2022-09-17T13:16:51.000Z</time>
      </trkpt>
      <trkpt lat="45.08887" lon="5.11849">
        <ele>195.9</ele>
        <time>2022-09-17T13:16:52.000Z</time>
      </trkpt>
      <trkpt lat="45.08887" lon="5.11841">
        <ele>195.9</ele>
        <time>2022-09-17T13:16:53.000Z</time>
      </trkpt>
      <trkpt lat="45.08886" lon="5.11833">
        <ele>195.9</ele>
        <time>2022-09-17T13:16:54.000Z</time>
      </trkpt>
      <trkpt lat="45.08885" lon="5.11826">
        <ele>195.6</ele>
        <time>2022-09-17T13:16:55.000Z</time>
      </trkpt>
      <trkpt lat="45.08885" lon="5.11819">
        <ele>195.4</ele>
        <time>2022-09-17T13:16:56.000Z</time>
      </trkpt>
      <trkpt lat="45.08884" lon="5.11811">
        <ele>195.2</ele>
        <time>2022-09-17T13:16:57.000Z</time>
      </trkpt>
      <trkpt lat="45.08884" lon="5.11804">
        <ele>195</ele>
        <time>2022-09-17T13:16:58.000Z</time>
      </trkpt>
      <trkpt lat="45.08883" lon="5.11796">
        <ele>195</ele>
        <time>2022-09-17T13:16:59.000Z</time>
      </trkpt>
      <trkpt lat="45.08883" lon="5.11789">
        <ele>195</ele>
        <time>2022-09-17T13:17:00.000Z</time>
      </trkpt>
      <trkpt lat="45.08882" lon="5.11782">
        <ele>195</ele>
        <time>2022-09-17T13:17:01.000Z</time>
      </trkpt>
      <trkpt lat="45.08882" lon="5.11774">
        <ele>195</ele>
        <time>2022-09-17T13:17:02.000Z</time>
      </trkpt>
      <trkpt lat="45.08881" lon="5.11767">
        <ele>195</ele>
        <time>2022-09-17T13:17:03.000Z</time>
      </trkpt>
      <trkpt lat="45.08881" lon="5.1176">
        <ele>195</ele>
        <time>2022-09-17T13:17:04.000Z</time>
      </trkpt>
      <trkpt lat="45.0888" lon="5.11753">
        <ele>195</ele>
        <time>2022-09-17T13:17:05.000Z</time>
      </trkpt>
      <trkpt lat="45.0888" lon="5.11746">
        <ele>195</ele>
        <time>2022-09-17T13:17:06.000Z</time>
      </trkpt>
      <trkpt lat="45.0888" lon="5.11739">
        <ele>195</ele>
        <time>2022-09-17T13:17:07.000Z</time>
      </trkpt>
      <trkpt lat="45.08879" lon="5.11732">
        <ele>195</ele>
        <time>2022-09-17T13:17:08.000Z</time>
      </trkpt>
      <trkpt lat="45.08879" lon="5.11725">
        <ele>195</ele>
        <time>2022-09-17T13:17:09.000Z</time>
      </trkpt>
      <trkpt lat="45.08878" lon="5.11719">
        <ele>195.1</ele>
        <time>2022-09-17T13:17:10.000Z</time>
      </trkpt>
      <trkpt lat="45.08877" lon="5.11712">
        <ele>195.2</ele>
        <time>2022-09-17T13:17:11.000Z</time>
      </trkpt>
      <trkpt lat="45.08877" lon="5.11706">
        <ele>195.3</ele>
        <time>2022-09-17T13:17:12.000Z</time>
      </trkpt>
      <trkpt lat="45.08877" lon="5.117">
        <ele>195.4</ele>
        <time>2022-09-17T13:17:13.000Z</time>
      </trkpt>
      <trkpt lat="45.08876" lon="5.11694">
        <ele>195.5</ele>
        <time>2022-09-17T13:17:14.000Z</time>
      </trkpt>
      <trkpt lat="45.08876" lon="5.11688">
        <ele>195.4</ele>
        <time>2022-09-17T13:17:15.000Z</time>
      </trkpt>
      <trkpt lat="45.08875" lon="5.11682">
        <ele>195.3</ele>
        <time>2022-09-17T13:17:16.000Z</time>
      </trkpt>
      <trkpt lat="45.08874" lon="5.11676">
        <ele>195.2</ele>
        <time>2022-09-17T13:17:17.000Z</time>
      </trkpt>
      <trkpt lat="45.08874" lon="5.1167">
        <ele>195</ele>
        <time>2022-09-17T13:17:18.000Z</time>
      </trkpt>
      <trkpt lat="45.08874" lon="5.11664">
        <ele>195</ele>
        <time>2022-09-17T13:17:19.000Z</time>
      </trkpt>
      <trkpt lat="45.08873" lon="5.11658">
        <ele>195</ele>
        <time>2022-09-17T13:17:20.000Z</time>
      </trkpt>
      <trkpt lat="45.08872" lon="5.11651">
        <ele>195.1</ele>
        <time>2022-09-17T13:17:21.000Z</time>
      </trkpt>
      <trkpt lat="45.08872" lon="5.11645">
        <ele>195.2</ele>
        <time>2022-09-17T13:17:22.000Z</time>
      </trkpt>
      <trkpt lat="45.08871" lon="5.11638">
        <ele>195.3</ele>
        <time>2022-09-17T13:17:23.000Z</time>
      </trkpt>
      <trkpt lat="45.08871" lon="5.11632">
        <ele>195.3</ele>
        <time>2022-09-17T13:17:24.000Z</time>
      </trkpt>
      <trkpt lat="45.0887" lon="5.11626">
        <ele>195.4</ele>
        <time>2022-09-17T13:17:25.000Z</time>
      </trkpt>
      <trkpt lat="45.08869" lon="5.1162">
        <ele>195.4</ele>
        <time>2022-09-17T13:17:26.000Z</time>
      </trkpt>
      <trkpt lat="45.08869" lon="5.11614">
        <ele>195.5</ele>
        <time>2022-09-17T13:17:27.000Z</time>
      </trkpt>
      <trkpt lat="45.08868" lon="5.11608">
        <ele>195.6</ele>
        <time>2022-09-17T13:17:28.000Z</time>
      </trkpt>
      <trkpt lat="45.08868" lon="5.11602">
        <ele>195.9</ele>
        <time>2022-09-17T13:17:29.000Z</time>
      </trkpt>
      <trkpt lat="45.08868" lon="5.11597">
        <ele>196.2</ele>
        <time>2022-09-17T13:17:30.000Z</time>
      </trkpt>
      <trkpt lat="45.08867" lon="5.11591">
        <ele>196.4</ele>
        <time>2022-09-17T13:17:31.000Z</time>
      </trkpt>
      <trkpt lat="45.08867" lon="5.11586">
        <ele>196.7</ele>
        <time>2022-09-17T13:17:32.000Z</time>
      </trkpt>
      <trkpt lat="45.08866" lon="5.1158">
        <ele>196.7</ele>
        <time>2022-09-17T13:17:33.000Z</time>
      </trkpt>
      <trkpt lat="45.08866" lon="5.11574">
        <ele>196.5</ele>
        <time>2022-09-17T13:17:34.000Z</time>
      </trkpt>
      <trkpt lat="45.08865" lon="5.11568">
        <ele>196.3</ele>
        <time>2022-09-17T13:17:35.000Z</time>
      </trkpt>
      <trkpt lat="45.08864" lon="5.11561">
        <ele>196.1</ele>
        <time>2022-09-17T13:17:36.000Z</time>
      </trkpt>
      <trkpt lat="45.08864" lon="5.11555">
        <ele>195.9</ele>
        <time>2022-09-17T13:17:37.000Z</time>
      </trkpt>
      <trkpt lat="45.08863" lon="5.11548">
        <ele>195.9</ele>
        <time>2022-09-17T13:17:38.000Z</time>
      </trkpt>
      <trkpt lat="45.08863" lon="5.11541">
        <ele>195.9</ele>
        <time>2022-09-17T13:17:39.000Z</time>
      </trkpt>
      <trkpt lat="45.08863" lon="5.11534">
        <ele>195.9</ele>
        <time>2022-09-17T13:17:40.000Z</time>
      </trkpt>
      <trkpt lat="45.08862" lon="5.11527">
        <ele>195.9</ele>
        <time>2022-09-17T13:17:41.000Z</time>
      </trkpt>
      <trkpt lat="45.08862" lon="5.1152">
        <ele>195.7</ele>
        <time>2022-09-17T13:17:42.000Z</time>
      </trkpt>
      <trkpt lat="45.08861" lon="5.11512">
        <ele>195.4</ele>
        <time>2022-09-17T13:17:43.000Z</time>
      </trkpt>
      <trkpt lat="45.08861" lon="5.11505">
        <ele>195.2</ele>
        <time>2022-09-17T13:17:44.000Z</time>
      </trkpt>
      <trkpt lat="45.0886" lon="5.11498">
        <ele>195</ele>
        <time>2022-09-17T13:17:45.000Z</time>
      </trkpt>
      <trkpt lat="45.08859" lon="5.11491">
        <ele>194.9</ele>
        <time>2022-09-17T13:17:46.000Z</time>
      </trkpt>
      <trkpt lat="45.08858" lon="5.11484">
        <ele>194.9</ele>
        <time>2022-09-17T13:17:47.000Z</time>
      </trkpt>
      <trkpt lat="45.08858" lon="5.11477">
        <ele>194.9</ele>
        <time>2022-09-17T13:17:48.000Z</time>
      </trkpt>
      <trkpt lat="45.08857" lon="5.1147">
        <ele>194.9</ele>
        <time>2022-09-17T13:17:49.000Z</time>
      </trkpt>
      <trkpt lat="45.08856" lon="5.11463">
        <ele>194.8</ele>
        <time>2022-09-17T13:17:50.000Z</time>
      </trkpt>
      <trkpt lat="45.08856" lon="5.11456">
        <ele>194.8</ele>
        <time>2022-09-17T13:17:51.000Z</time>
      </trkpt>
      <trkpt lat="45.08855" lon="5.11449">
        <ele>194.8</ele>
        <time>2022-09-17T13:17:52.000Z</time>
      </trkpt>
      <trkpt lat="45.08855" lon="5.11442">
        <ele>194.7</ele>
        <time>2022-09-17T13:17:53.000Z</time>
      </trkpt>
      <trkpt lat="45.08854" lon="5.11435">
        <ele>194.6</ele>
        <time>2022-09-17T13:17:54.000Z</time>
      </trkpt>
      <trkpt lat="45.08854" lon="5.11428">
        <ele>194.4</ele>
        <time>2022-09-17T13:17:55.000Z</time>
      </trkpt>
      <trkpt lat="45.08853" lon="5.1142">
        <ele>194.3</ele>
        <time>2022-09-17T13:17:56.000Z</time>
      </trkpt>
      <trkpt lat="45.08853" lon="5.11412">
        <ele>194.3</ele>
        <time>2022-09-17T13:17:57.000Z</time>
      </trkpt>
      <trkpt lat="45.08852" lon="5.11404">
        <ele>194.2</ele>
        <time>2022-09-17T13:17:58.000Z</time>
      </trkpt>
      <trkpt lat="45.08851" lon="5.11397">
        <ele>194.1</ele>
        <time>2022-09-17T13:17:59.000Z</time>
      </trkpt>
      <trkpt lat="45.08851" lon="5.1139">
        <ele>194</ele>
        <time>2022-09-17T13:18:00.000Z</time>
      </trkpt>
      <trkpt lat="45.0885" lon="5.11383">
        <ele>194</ele>
        <time>2022-09-17T13:18:01.000Z</time>
      </trkpt>
      <trkpt lat="45.08849" lon="5.11376">
        <ele>194</ele>
        <time>2022-09-17T13:18:02.000Z</time>
      </trkpt>
      <trkpt lat="45.08849" lon="5.11368">
        <ele>194</ele>
        <time>2022-09-17T13:18:03.000Z</time>
      </trkpt>
      <trkpt lat="45.08848" lon="5.11361">
        <ele>194</ele>
        <time>2022-09-17T13:18:04.000Z</time>
      </trkpt>
      <trkpt lat="45.08848" lon="5.11354">
        <ele>193.9</ele>
        <time>2022-09-17T13:18:05.000Z</time>
      </trkpt>
      <trkpt lat="45.08847" lon="5.11346">
        <ele>193.7</ele>
        <time>2022-09-17T13:18:06.000Z</time>
      </trkpt>
      <trkpt lat="45.08846" lon="5.11338">
        <ele>193.6</ele>
        <time>2022-09-17T13:18:07.000Z</time>
      </trkpt>
      <trkpt lat="45.08845" lon="5.1133">
        <ele>193.6</ele>
        <time>2022-09-17T13:18:08.000Z</time>
      </trkpt>
      <trkpt lat="45.08844" lon="5.11323">
        <ele>193.6</ele>
        <time>2022-09-17T13:18:09.000Z</time>
      </trkpt>
      <trkpt lat="45.08844" lon="5.11315">
        <ele>193.6</ele>
        <time>2022-09-17T13:18:10.000Z</time>
      </trkpt>
      <trkpt lat="45.08843" lon="5.11307">
        <ele>193.6</ele>
        <time>2022-09-17T13:18:11.000Z</time>
      </trkpt>
      <trkpt lat="45.08843" lon="5.11299">
        <ele>193.7</ele>
        <time>2022-09-17T13:18:12.000Z</time>
      </trkpt>
      <trkpt lat="45.08843" lon="5.11291">
        <ele>193.7</ele>
        <time>2022-09-17T13:18:13.000Z</time>
      </trkpt>
      <trkpt lat="45.08843" lon="5.11284">
        <ele>193.7</ele>
        <time>2022-09-17T13:18:14.000Z</time>
      </trkpt>
      <trkpt lat="45.08842" lon="5.11277">
        <ele>193.7</ele>
        <time>2022-09-17T13:18:15.000Z</time>
      </trkpt>
      <trkpt lat="45.08842" lon="5.11269">
        <ele>193.7</ele>
        <time>2022-09-17T13:18:16.000Z</time>
      </trkpt>
      <trkpt lat="45.08841" lon="5.11262">
        <ele>193.7</ele>
        <time>2022-09-17T13:18:17.000Z</time>
      </trkpt>
      <trkpt lat="45.08841" lon="5.11254">
        <ele>193.7</ele>
        <time>2022-09-17T13:18:18.000Z</time>
      </trkpt>
      <trkpt lat="45.0884" lon="5.11245">
        <ele>193.8</ele>
        <time>2022-09-17T13:18:19.000Z</time>
      </trkpt>
      <trkpt lat="45.0884" lon="5.11237">
        <ele>193.8</ele>
        <time>2022-09-17T13:18:20.000Z</time>
      </trkpt>
      <trkpt lat="45.08839" lon="5.1123">
        <ele>193.8</ele>
        <time>2022-09-17T13:18:21.000Z</time>
      </trkpt>
      <trkpt lat="45.08839" lon="5.11223">
        <ele>193.8</ele>
        <time>2022-09-17T13:18:22.000Z</time>
      </trkpt>
      <trkpt lat="45.08838" lon="5.11214">
        <ele>193.6</ele>
        <time>2022-09-17T13:18:23.000Z</time>
      </trkpt>
      <trkpt lat="45.08837" lon="5.11205">
        <ele>193.3</ele>
        <time>2022-09-17T13:18:24.000Z</time>
      </trkpt>
      <trkpt lat="45.08836" lon="5.11197">
        <ele>193.1</ele>
        <time>2022-09-17T13:18:25.000Z</time>
      </trkpt>
      <trkpt lat="45.08835" lon="5.11188">
        <ele>193</ele>
        <time>2022-09-17T13:18:26.000Z</time>
      </trkpt>
      <trkpt lat="45.08834" lon="5.11179">
        <ele>193</ele>
        <time>2022-09-17T13:18:27.000Z</time>
      </trkpt>
      <trkpt lat="45.08833" lon="5.11171">
        <ele>193</ele>
        <time>2022-09-17T13:18:28.000Z</time>
      </trkpt>
      <trkpt lat="45.08831" lon="5.11164">
        <ele>192.9</ele>
        <time>2022-09-17T13:18:29.000Z</time>
      </trkpt>
      <trkpt lat="45.0883" lon="5.11156">
        <ele>192.9</ele>
        <time>2022-09-17T13:18:30.000Z</time>
      </trkpt>
      <trkpt lat="45.08828" lon="5.11147">
        <ele>192.9</ele>
        <time>2022-09-17T13:18:31.000Z</time>
      </trkpt>
      <trkpt lat="45.08826" lon="5.11138">
        <ele>193</ele>
        <time>2022-09-17T13:18:32.000Z</time>
      </trkpt>
      <trkpt lat="45.08824" lon="5.1113">
        <ele>192.7</ele>
        <time>2022-09-17T13:18:33.000Z</time>
      </trkpt>
      <trkpt lat="45.08823" lon="5.11121">
        <ele>192.4</ele>
        <time>2022-09-17T13:18:34.000Z</time>
      </trkpt>
      <trkpt lat="45.08821" lon="5.11113">
        <ele>192.1</ele>
        <time>2022-09-17T13:18:35.000Z</time>
      </trkpt>
      <trkpt lat="45.08819" lon="5.11105">
        <ele>192</ele>
        <time>2022-09-17T13:18:36.000Z</time>
      </trkpt>
      <trkpt lat="45.08817" lon="5.11096">
        <ele>192</ele>
        <time>2022-09-17T13:18:37.000Z</time>
      </trkpt>
      <trkpt lat="45.08816" lon="5.11087">
        <ele>192</ele>
        <time>2022-09-17T13:18:38.000Z</time>
      </trkpt>
      <trkpt lat="45.08814" lon="5.11077">
        <ele>192</ele>
        <time>2022-09-17T13:18:39.000Z</time>
      </trkpt>
      <trkpt lat="45.08812" lon="5.11067">
        <ele>192</ele>
        <time>2022-09-17T13:18:40.000Z</time>
      </trkpt>
      <trkpt lat="45.0881" lon="5.11058">
        <ele>192</ele>
        <time>2022-09-17T13:18:41.000Z</time>
      </trkpt>
      <trkpt lat="45.08808" lon="5.11048">
        <ele>192</ele>
        <time>2022-09-17T13:18:42.000Z</time>
      </trkpt>
      <trkpt lat="45.08806" lon="5.11039">
        <ele>192</ele>
        <time>2022-09-17T13:18:43.000Z</time>
      </trkpt>
      <trkpt lat="45.08804" lon="5.1103">
        <ele>191.9</ele>
        <time>2022-09-17T13:18:44.000Z</time>
      </trkpt>
      <trkpt lat="45.08803" lon="5.11021">
        <ele>191.9</ele>
        <time>2022-09-17T13:18:45.000Z</time>
      </trkpt>
      <trkpt lat="45.08801" lon="5.11013">
        <ele>191.8</ele>
        <time>2022-09-17T13:18:46.000Z</time>
      </trkpt>
      <trkpt lat="45.08799" lon="5.11004">
        <ele>191.8</ele>
        <time>2022-09-17T13:18:47.000Z</time>
      </trkpt>
      <trkpt lat="45.08798" lon="5.10995">
        <ele>191.6</ele>
        <time>2022-09-17T13:18:48.000Z</time>
      </trkpt>
      <trkpt lat="45.08796" lon="5.10986">
        <ele>191.3</ele>
        <time>2022-09-17T13:18:49.000Z</time>
      </trkpt>
      <trkpt lat="45.08795" lon="5.10977">
        <ele>191.1</ele>
        <time>2022-09-17T13:18:50.000Z</time>
      </trkpt>
      <trkpt lat="45.08793" lon="5.10968">
        <ele>191</ele>
        <time>2022-09-17T13:18:51.000Z</time>
      </trkpt>
      <trkpt lat="45.08792" lon="5.10959">
        <ele>191</ele>
        <time>2022-09-17T13:18:52.000Z</time>
      </trkpt>
      <trkpt lat="45.08792" lon="5.1095">
        <ele>191</ele>
        <time>2022-09-17T13:18:53.000Z</time>
      </trkpt>
      <trkpt lat="45.08791" lon="5.10941">
        <ele>191</ele>
        <time>2022-09-17T13:18:54.000Z</time>
      </trkpt>
      <trkpt lat="45.0879" lon="5.10932">
        <ele>191</ele>
        <time>2022-09-17T13:18:55.000Z</time>
      </trkpt>
      <trkpt lat="45.08789" lon="5.10923">
        <ele>191</ele>
        <time>2022-09-17T13:18:56.000Z</time>
      </trkpt>
      <trkpt lat="45.08788" lon="5.10915">
        <ele>191</ele>
        <time>2022-09-17T13:18:57.000Z</time>
      </trkpt>
      <trkpt lat="45.08788" lon="5.10907">
        <ele>191</ele>
        <time>2022-09-17T13:18:58.000Z</time>
      </trkpt>
      <trkpt lat="45.08787" lon="5.10898">
        <ele>191</ele>
        <time>2022-09-17T13:18:59.000Z</time>
      </trkpt>
      <trkpt lat="45.08787" lon="5.1089">
        <ele>191</ele>
        <time>2022-09-17T13:19:00.000Z</time>
      </trkpt>
      <trkpt lat="45.08786" lon="5.10881">
        <ele>191.1</ele>
        <time>2022-09-17T13:19:01.000Z</time>
      </trkpt>
      <trkpt lat="45.08786" lon="5.10873">
        <ele>191.2</ele>
        <time>2022-09-17T13:19:02.000Z</time>
      </trkpt>
      <trkpt lat="45.08787" lon="5.10865">
        <ele>191.3</ele>
        <time>2022-09-17T13:19:03.000Z</time>
      </trkpt>
      <trkpt lat="45.08786" lon="5.10857">
        <ele>191.3</ele>
        <time>2022-09-17T13:19:04.000Z</time>
      </trkpt>
      <trkpt lat="45.08786" lon="5.10849">
        <ele>191.3</ele>
        <time>2022-09-17T13:19:05.000Z</time>
      </trkpt>
      <trkpt lat="45.08786" lon="5.10841">
        <ele>191.3</ele>
        <time>2022-09-17T13:19:06.000Z</time>
      </trkpt>
      <trkpt lat="45.08786" lon="5.10832">
        <ele>191.3</ele>
        <time>2022-09-17T13:19:07.000Z</time>
      </trkpt>
      <trkpt lat="45.08786" lon="5.10823">
        <ele>191.6</ele>
        <time>2022-09-17T13:19:08.000Z</time>
      </trkpt>
      <trkpt lat="45.08786" lon="5.10814">
        <ele>191.8</ele>
        <time>2022-09-17T13:19:09.000Z</time>
      </trkpt>
      <trkpt lat="45.08786" lon="5.10806">
        <ele>192</ele>
        <time>2022-09-17T13:19:10.000Z</time>
      </trkpt>
      <trkpt lat="45.08786" lon="5.10797">
        <ele>192</ele>
        <time>2022-09-17T13:19:11.000Z</time>
      </trkpt>
      <trkpt lat="45.08786" lon="5.1079">
        <ele>192</ele>
        <time>2022-09-17T13:19:12.000Z</time>
      </trkpt>
      <trkpt lat="45.08786" lon="5.10782">
        <ele>192</ele>
        <time>2022-09-17T13:19:13.000Z</time>
      </trkpt>
      <trkpt lat="45.08786" lon="5.10775">
        <ele>192</ele>
        <time>2022-09-17T13:19:14.000Z</time>
      </trkpt>
      <trkpt lat="45.08787" lon="5.10769">
        <ele>192</ele>
        <time>2022-09-17T13:19:15.000Z</time>
      </trkpt>
      <trkpt lat="45.08787" lon="5.10763">
        <ele>192</ele>
        <time>2022-09-17T13:19:16.000Z</time>
      </trkpt>
      <trkpt lat="45.08787" lon="5.10757">
        <ele>192</ele>
        <time>2022-09-17T13:19:17.000Z</time>
      </trkpt>
      <trkpt lat="45.08787" lon="5.10751">
        <ele>192</ele>
        <time>2022-09-17T13:19:18.000Z</time>
      </trkpt>
      <trkpt lat="45.08787" lon="5.10745">
        <ele>192</ele>
        <time>2022-09-17T13:19:19.000Z</time>
      </trkpt>
      <trkpt lat="45.08786" lon="5.10737">
        <ele>192</ele>
        <time>2022-09-17T13:19:20.000Z</time>
      </trkpt>
      <trkpt lat="45.08785" lon="5.10729">
        <ele>192</ele>
        <time>2022-09-17T13:19:21.000Z</time>
      </trkpt>
      <trkpt lat="45.08784" lon="5.1072">
        <ele>192</ele>
        <time>2022-09-17T13:19:22.000Z</time>
      </trkpt>
      <trkpt lat="45.08783" lon="5.10712">
        <ele>192.1</ele>
        <time>2022-09-17T13:19:23.000Z</time>
      </trkpt>
      <trkpt lat="45.08782" lon="5.10704">
        <ele>192.1</ele>
        <time>2022-09-17T13:19:24.000Z</time>
      </trkpt>
      <trkpt lat="45.0878" lon="5.10695">
        <ele>192.1</ele>
        <time>2022-09-17T13:19:25.000Z</time>
      </trkpt>
      <trkpt lat="45.08778" lon="5.10686">
        <ele>192</ele>
        <time>2022-09-17T13:19:26.000Z</time>
      </trkpt>
      <trkpt lat="45.08776" lon="5.10677">
        <ele>191.9</ele>
        <time>2022-09-17T13:19:27.000Z</time>
      </trkpt>
      <trkpt lat="45.08774" lon="5.10669">
        <ele>191.9</ele>
        <time>2022-09-17T13:19:28.000Z</time>
      </trkpt>
      <trkpt lat="45.08772" lon="5.1066">
        <ele>191.8</ele>
        <time>2022-09-17T13:19:29.000Z</time>
      </trkpt>
      <trkpt lat="45.0877" lon="5.10652">
        <ele>191.7</ele>
        <time>2022-09-17T13:19:30.000Z</time>
      </trkpt>
      <trkpt lat="45.08768" lon="5.10643">
        <ele>191.6</ele>
        <time>2022-09-17T13:19:31.000Z</time>
      </trkpt>
      <trkpt lat="45.08766" lon="5.10634">
        <ele>191.5</ele>
        <time>2022-09-17T13:19:32.000Z</time>
      </trkpt>
      <trkpt lat="45.08764" lon="5.10626">
        <ele>191.3</ele>
        <time>2022-09-17T13:19:33.000Z</time>
      </trkpt>
      <trkpt lat="45.08762" lon="5.10616">
        <ele>191.1</ele>
        <time>2022-09-17T13:19:34.000Z</time>
      </trkpt>
      <trkpt lat="45.0876" lon="5.10608">
        <ele>191.1</ele>
        <time>2022-09-17T13:19:35.000Z</time>
      </trkpt>
      <trkpt lat="45.08758" lon="5.10599">
        <ele>191.3</ele>
        <time>2022-09-17T13:19:36.000Z</time>
      </trkpt>
      <trkpt lat="45.08756" lon="5.10591">
        <ele>191.6</ele>
        <time>2022-09-17T13:19:37.000Z</time>
      </trkpt>
      <trkpt lat="45.08754" lon="5.10582">
        <ele>191.8</ele>
        <time>2022-09-17T13:19:38.000Z</time>
      </trkpt>
      <trkpt lat="45.08752" lon="5.10573">
        <ele>191.6</ele>
        <time>2022-09-17T13:19:39.000Z</time>
      </trkpt>
      <trkpt lat="45.0875" lon="5.10564">
        <ele>191.3</ele>
        <time>2022-09-17T13:19:40.000Z</time>
      </trkpt>
      <trkpt lat="45.08747" lon="5.10555">
        <ele>190.9</ele>
        <time>2022-09-17T13:19:41.000Z</time>
      </trkpt>
      <trkpt lat="45.08745" lon="5.10547">
        <ele>190.9</ele>
        <time>2022-09-17T13:19:42.000Z</time>
      </trkpt>
      <trkpt lat="45.08742" lon="5.10538">
        <ele>190.9</ele>
        <time>2022-09-17T13:19:43.000Z</time>
      </trkpt>
      <trkpt lat="45.0874" lon="5.1053">
        <ele>191</ele>
        <time>2022-09-17T13:19:44.000Z</time>
      </trkpt>
      <trkpt lat="45.08738" lon="5.10522">
        <ele>191.1</ele>
        <time>2022-09-17T13:19:45.000Z</time>
      </trkpt>
      <trkpt lat="45.08735" lon="5.10514">
        <ele>191.3</ele>
        <time>2022-09-17T13:19:46.000Z</time>
      </trkpt>
      <trkpt lat="45.08733" lon="5.10506">
        <ele>191.5</ele>
        <time>2022-09-17T13:19:47.000Z</time>
      </trkpt>
      <trkpt lat="45.08731" lon="5.10499">
        <ele>191.7</ele>
        <time>2022-09-17T13:19:48.000Z</time>
      </trkpt>
      <trkpt lat="45.0873" lon="5.10492">
        <ele>191.9</ele>
        <time>2022-09-17T13:19:49.000Z</time>
      </trkpt>
      <trkpt lat="45.08728" lon="5.10485">
        <ele>192.2</ele>
        <time>2022-09-17T13:19:50.000Z</time>
      </trkpt>
      <trkpt lat="45.08727" lon="5.10479">
        <ele>192.5</ele>
        <time>2022-09-17T13:19:51.000Z</time>
      </trkpt>
      <trkpt lat="45.08725" lon="5.10472">
        <ele>192.8</ele>
        <time>2022-09-17T13:19:52.000Z</time>
      </trkpt>
      <trkpt lat="45.08724" lon="5.10466">
        <ele>192.6</ele>
        <time>2022-09-17T13:19:53.000Z</time>
      </trkpt>
      <trkpt lat="45.08723" lon="5.10459">
        <ele>192.5</ele>
        <time>2022-09-17T13:19:54.000Z</time>
      </trkpt>
      <trkpt lat="45.08721" lon="5.10453">
        <ele>192.2</ele>
        <time>2022-09-17T13:19:55.000Z</time>
      </trkpt>
      <trkpt lat="45.08719" lon="5.10446">
        <ele>191.8</ele>
        <time>2022-09-17T13:19:56.000Z</time>
      </trkpt>
      <trkpt lat="45.08718" lon="5.10438">
        <ele>191.9</ele>
        <time>2022-09-17T13:19:57.000Z</time>
      </trkpt>
      <trkpt lat="45.08722" lon="5.10423">
        <ele>192.8</ele>
        <time>2022-09-17T13:19:58.000Z</time>
      </trkpt>
      <trkpt lat="45.08714" lon="5.10402">
        <ele>192.1</ele>
        <time>2022-09-17T13:19:59.000Z</time>
      </trkpt>
      <trkpt lat="45.08707" lon="5.10395">
        <ele>192.2</ele>
        <time>2022-09-17T13:20:00.000Z</time>
      </trkpt>
      <trkpt lat="45.08704" lon="5.104">
        <ele>192.3</ele>
        <time>2022-09-17T13:20:01.000Z</time>
      </trkpt>
      <trkpt lat="45.08703" lon="5.10404">
        <ele>192.3</ele>
        <time>2022-09-17T13:20:02.000Z</time>
      </trkpt>
      <trkpt lat="45.08703" lon="5.104">
        <ele>192.4</ele>
        <time>2022-09-17T13:20:04.000Z</time>
      </trkpt>
      <trkpt lat="45.08702" lon="5.10393">
        <ele>192.4</ele>
        <time>2022-09-17T13:20:05.000Z</time>
      </trkpt>
      <trkpt lat="45.08701" lon="5.10386">
        <ele>192.5</ele>
        <time>2022-09-17T13:20:06.000Z</time>
      </trkpt>
      <trkpt lat="45.087" lon="5.1038">
        <ele>192.3</ele>
        <time>2022-09-17T13:20:07.000Z</time>
      </trkpt>
      <trkpt lat="45.08699" lon="5.10374">
        <ele>192.2</ele>
        <time>2022-09-17T13:20:08.000Z</time>
      </trkpt>
      <trkpt lat="45.08697" lon="5.10367">
        <ele>192.1</ele>
        <time>2022-09-17T13:20:09.000Z</time>
      </trkpt>
      <trkpt lat="45.08695" lon="5.10362">
        <ele>192</ele>
        <time>2022-09-17T13:20:10.000Z</time>
      </trkpt>
      <trkpt lat="45.08693" lon="5.10356">
        <ele>191.7</ele>
        <time>2022-09-17T13:20:11.000Z</time>
      </trkpt>
      <trkpt lat="45.08692" lon="5.10349">
        <ele>191.5</ele>
        <time>2022-09-17T13:20:12.000Z</time>
      </trkpt>
      <trkpt lat="45.0869" lon="5.10343">
        <ele>191.2</ele>
        <time>2022-09-17T13:20:13.000Z</time>
      </trkpt>
      <trkpt lat="45.08688" lon="5.10336">
        <ele>191.1</ele>
        <time>2022-09-17T13:20:14.000Z</time>
      </trkpt>
      <trkpt lat="45.08686" lon="5.10329">
        <ele>191.2</ele>
        <time>2022-09-17T13:20:15.000Z</time>
      </trkpt>
      <trkpt lat="45.08684" lon="5.10323">
        <ele>191.5</ele>
        <time>2022-09-17T13:20:16.000Z</time>
      </trkpt>
      <trkpt lat="45.08682" lon="5.10316">
        <ele>191.9</ele>
        <time>2022-09-17T13:20:17.000Z</time>
      </trkpt>
      <trkpt lat="45.0868" lon="5.1031">
        <ele>192.3</ele>
        <time>2022-09-17T13:20:18.000Z</time>
      </trkpt>
      <trkpt lat="45.08678" lon="5.10304">
        <ele>192.6</ele>
        <time>2022-09-17T13:20:19.000Z</time>
      </trkpt>
      <trkpt lat="45.08676" lon="5.10298">
        <ele>192.9</ele>
        <time>2022-09-17T13:20:20.000Z</time>
      </trkpt>
      <trkpt lat="45.08674" lon="5.10291">
        <ele>193.1</ele>
        <time>2022-09-17T13:20:21.000Z</time>
      </trkpt>
      <trkpt lat="45.08672" lon="5.10285">
        <ele>193.4</ele>
        <time>2022-09-17T13:20:22.000Z</time>
      </trkpt>
      <trkpt lat="45.08671" lon="5.10279">
        <ele>193.7</ele>
        <time>2022-09-17T13:20:23.000Z</time>
      </trkpt>
      <trkpt lat="45.08669" lon="5.10273">
        <ele>193.9</ele>
        <time>2022-09-17T13:20:24.000Z</time>
      </trkpt>
      <trkpt lat="45.08667" lon="5.10267">
        <ele>194</ele>
        <time>2022-09-17T13:20:25.000Z</time>
      </trkpt>
      <trkpt lat="45.08665" lon="5.1026">
        <ele>193.8</ele>
        <time>2022-09-17T13:20:26.000Z</time>
      </trkpt>
      <trkpt lat="45.08663" lon="5.10254">
        <ele>193.6</ele>
        <time>2022-09-17T13:20:27.000Z</time>
      </trkpt>
      <trkpt lat="45.08661" lon="5.10248">
        <ele>193.5</ele>
        <time>2022-09-17T13:20:28.000Z</time>
      </trkpt>
      <trkpt lat="45.0866" lon="5.10242">
        <ele>193.4</ele>
        <time>2022-09-17T13:20:29.000Z</time>
      </trkpt>
      <trkpt lat="45.08658" lon="5.10235">
        <ele>193.4</ele>
        <time>2022-09-17T13:20:30.000Z</time>
      </trkpt>
      <trkpt lat="45.08657" lon="5.10229">
        <ele>193.5</ele>
        <time>2022-09-17T13:20:31.000Z</time>
      </trkpt>
      <trkpt lat="45.08656" lon="5.10223">
        <ele>193.6</ele>
        <time>2022-09-17T13:20:32.000Z</time>
      </trkpt>
      <trkpt lat="45.08654" lon="5.10217">
        <ele>193.9</ele>
        <time>2022-09-17T13:20:33.000Z</time>
      </trkpt>
      <trkpt lat="45.08653" lon="5.1021">
        <ele>194.2</ele>
        <time>2022-09-17T13:20:34.000Z</time>
      </trkpt>
      <trkpt lat="45.08651" lon="5.10204">
        <ele>194.4</ele>
        <time>2022-09-17T13:20:35.000Z</time>
      </trkpt>
      <trkpt lat="45.0865" lon="5.10198">
        <ele>194.6</ele>
        <time>2022-09-17T13:20:36.000Z</time>
      </trkpt>
      <trkpt lat="45.08648" lon="5.10191">
        <ele>194.7</ele>
        <time>2022-09-17T13:20:37.000Z</time>
      </trkpt>
      <trkpt lat="45.08647" lon="5.10184">
        <ele>194.7</ele>
        <time>2022-09-17T13:20:38.000Z</time>
      </trkpt>
      <trkpt lat="45.08646" lon="5.10177">
        <ele>194.8</ele>
        <time>2022-09-17T13:20:39.000Z</time>
      </trkpt>
      <trkpt lat="45.08644" lon="5.1017">
        <ele>194.9</ele>
        <time>2022-09-17T13:20:40.000Z</time>
      </trkpt>
      <trkpt lat="45.08643" lon="5.10163">
        <ele>195</ele>
        <time>2022-09-17T13:20:41.000Z</time>
      </trkpt>
      <trkpt lat="45.08641" lon="5.10156">
        <ele>195</ele>
        <time>2022-09-17T13:20:42.000Z</time>
      </trkpt>
      <trkpt lat="45.0864" lon="5.1015">
        <ele>195</ele>
        <time>2022-09-17T13:20:43.000Z</time>
      </trkpt>
      <trkpt lat="45.08639" lon="5.10143">
        <ele>195</ele>
        <time>2022-09-17T13:20:44.000Z</time>
      </trkpt>
      <trkpt lat="45.08637" lon="5.10136">
        <ele>194.7</ele>
        <time>2022-09-17T13:20:45.000Z</time>
      </trkpt>
      <trkpt lat="45.08636" lon="5.1013">
        <ele>194.3</ele>
        <time>2022-09-17T13:20:46.000Z</time>
      </trkpt>
      <trkpt lat="45.08634" lon="5.10123">
        <ele>193.9</ele>
        <time>2022-09-17T13:20:47.000Z</time>
      </trkpt>
      <trkpt lat="45.08633" lon="5.10117">
        <ele>193.6</ele>
        <time>2022-09-17T13:20:48.000Z</time>
      </trkpt>
      <trkpt lat="45.08632" lon="5.1011">
        <ele>193.2</ele>
        <time>2022-09-17T13:20:49.000Z</time>
      </trkpt>
      <trkpt lat="45.08631" lon="5.10104">
        <ele>193.2</ele>
        <time>2022-09-17T13:20:50.000Z</time>
      </trkpt>
      <trkpt lat="45.08629" lon="5.10097">
        <ele>193.1</ele>
        <time>2022-09-17T13:20:51.000Z</time>
      </trkpt>
      <trkpt lat="45.08628" lon="5.10092">
        <ele>193.1</ele>
        <time>2022-09-17T13:20:52.000Z</time>
      </trkpt>
      <trkpt lat="45.08626" lon="5.10085">
        <ele>193</ele>
        <time>2022-09-17T13:20:53.000Z</time>
      </trkpt>
      <trkpt lat="45.08624" lon="5.10079">
        <ele>193</ele>
        <time>2022-09-17T13:20:54.000Z</time>
      </trkpt>
      <trkpt lat="45.08623" lon="5.10073">
        <ele>193.1</ele>
        <time>2022-09-17T13:20:55.000Z</time>
      </trkpt>
      <trkpt lat="45.08621" lon="5.10064">
        <ele>193.2</ele>
        <time>2022-09-17T13:20:56.000Z</time>
      </trkpt>
      <trkpt lat="45.08619" lon="5.10057">
        <ele>193.3</ele>
        <time>2022-09-17T13:20:57.000Z</time>
      </trkpt>
      <trkpt lat="45.08617" lon="5.1005">
        <ele>193.2</ele>
        <time>2022-09-17T13:20:58.000Z</time>
      </trkpt>
      <trkpt lat="45.08616" lon="5.10044">
        <ele>193.1</ele>
        <time>2022-09-17T13:20:59.000Z</time>
      </trkpt>
      <trkpt lat="45.08614" lon="5.10034">
        <ele>193</ele>
        <time>2022-09-17T13:21:00.000Z</time>
      </trkpt>
      <trkpt lat="45.08614" lon="5.10021">
        <ele>192.8</ele>
        <time>2022-09-17T13:21:01.000Z</time>
      </trkpt>
      <trkpt lat="45.08612" lon="5.10008">
        <ele>192.3</ele>
        <time>2022-09-17T13:21:02.000Z</time>
      </trkpt>
      <trkpt lat="45.08611" lon="5.10004">
        <ele>192.1</ele>
        <time>2022-09-17T13:21:03.000Z</time>
      </trkpt>
      <trkpt lat="45.08609" lon="5.10002">
        <ele>191.9</ele>
        <time>2022-09-17T13:21:04.000Z</time>
      </trkpt>
      <trkpt lat="45.08606" lon="5.10002">
        <ele>191.7</ele>
        <time>2022-09-17T13:21:05.000Z</time>
      </trkpt>
      <trkpt lat="45.08604" lon="5.09999">
        <ele>191.5</ele>
        <time>2022-09-17T13:21:06.000Z</time>
      </trkpt>
      <trkpt lat="45.08602" lon="5.09991">
        <ele>191.4</ele>
        <time>2022-09-17T13:21:07.000Z</time>
      </trkpt>
      <trkpt lat="45.086" lon="5.09985">
        <ele>191.4</ele>
        <time>2022-09-17T13:21:08.000Z</time>
      </trkpt>
      <trkpt lat="45.08599" lon="5.0998">
        <ele>191.4</ele>
        <time>2022-09-17T13:21:09.000Z</time>
      </trkpt>
      <trkpt lat="45.08598" lon="5.09975">
        <ele>191.5</ele>
        <time>2022-09-17T13:21:10.000Z</time>
      </trkpt>
      <trkpt lat="45.08596" lon="5.09969">
        <ele>191.5</ele>
        <time>2022-09-17T13:21:11.000Z</time>
      </trkpt>
      <trkpt lat="45.08594" lon="5.09963">
        <ele>191.6</ele>
        <time>2022-09-17T13:21:12.000Z</time>
      </trkpt>
      <trkpt lat="45.08593" lon="5.09956">
        <ele>191.7</ele>
        <time>2022-09-17T13:21:13.000Z</time>
      </trkpt>
      <trkpt lat="45.08591" lon="5.0995">
        <ele>191.9</ele>
        <time>2022-09-17T13:21:14.000Z</time>
      </trkpt>
      <trkpt lat="45.08589" lon="5.09943">
        <ele>192</ele>
        <time>2022-09-17T13:21:15.000Z</time>
      </trkpt>
      <trkpt lat="45.08588" lon="5.09937">
        <ele>192</ele>
        <time>2022-09-17T13:21:16.000Z</time>
      </trkpt>
      <trkpt lat="45.08586" lon="5.09929">
        <ele>192</ele>
        <time>2022-09-17T13:21:17.000Z</time>
      </trkpt>
      <trkpt lat="45.08584" lon="5.09922">
        <ele>192</ele>
        <time>2022-09-17T13:21:18.000Z</time>
      </trkpt>
      <trkpt lat="45.08581" lon="5.09914">
        <ele>191.8</ele>
        <time>2022-09-17T13:21:19.000Z</time>
      </trkpt>
      <trkpt lat="45.08579" lon="5.09906">
        <ele>191.6</ele>
        <time>2022-09-17T13:21:20.000Z</time>
      </trkpt>
      <trkpt lat="45.08577" lon="5.09898">
        <ele>191.4</ele>
        <time>2022-09-17T13:21:21.000Z</time>
      </trkpt>
      <trkpt lat="45.08575" lon="5.0989">
        <ele>191.4</ele>
        <time>2022-09-17T13:21:22.000Z</time>
      </trkpt>
      <trkpt lat="45.08573" lon="5.09882">
        <ele>191.5</ele>
        <time>2022-09-17T13:21:23.000Z</time>
      </trkpt>
      <trkpt lat="45.0857" lon="5.09875">
        <ele>191.6</ele>
        <time>2022-09-17T13:21:24.000Z</time>
      </trkpt>
      <trkpt lat="45.08569" lon="5.09867">
        <ele>191.7</ele>
        <time>2022-09-17T13:21:25.000Z</time>
      </trkpt>
      <trkpt lat="45.08567" lon="5.0986">
        <ele>191.8</ele>
        <time>2022-09-17T13:21:26.000Z</time>
      </trkpt>
      <trkpt lat="45.08565" lon="5.09853">
        <ele>192</ele>
        <time>2022-09-17T13:21:27.000Z</time>
      </trkpt>
      <trkpt lat="45.08563" lon="5.09846">
        <ele>192.1</ele>
        <time>2022-09-17T13:21:28.000Z</time>
      </trkpt>
      <trkpt lat="45.08561" lon="5.09839">
        <ele>192.2</ele>
        <time>2022-09-17T13:21:29.000Z</time>
      </trkpt>
      <trkpt lat="45.08559" lon="5.09832">
        <ele>192.3</ele>
        <time>2022-09-17T13:21:30.000Z</time>
      </trkpt>
      <trkpt lat="45.08557" lon="5.09825">
        <ele>192.4</ele>
        <time>2022-09-17T13:21:31.000Z</time>
      </trkpt>
      <trkpt lat="45.08555" lon="5.09818">
        <ele>192.5</ele>
        <time>2022-09-17T13:21:32.000Z</time>
      </trkpt>
      <trkpt lat="45.08553" lon="5.09811">
        <ele>192.6</ele>
        <time>2022-09-17T13:21:33.000Z</time>
      </trkpt>
      <trkpt lat="45.08551" lon="5.09804">
        <ele>192.7</ele>
        <time>2022-09-17T13:21:34.000Z</time>
      </trkpt>
      <trkpt lat="45.0855" lon="5.09797">
        <ele>192.8</ele>
        <time>2022-09-17T13:21:35.000Z</time>
      </trkpt>
      <trkpt lat="45.08547" lon="5.09789">
        <ele>192.8</ele>
        <time>2022-09-17T13:21:36.000Z</time>
      </trkpt>
      <trkpt lat="45.08545" lon="5.09782">
        <ele>192.7</ele>
        <time>2022-09-17T13:21:37.000Z</time>
      </trkpt>
      <trkpt lat="45.08542" lon="5.09775">
        <ele>192.6</ele>
        <time>2022-09-17T13:21:38.000Z</time>
      </trkpt>
      <trkpt lat="45.0854" lon="5.09768">
        <ele>192.5</ele>
        <time>2022-09-17T13:21:39.000Z</time>
      </trkpt>
      <trkpt lat="45.08537" lon="5.0976">
        <ele>192.4</ele>
        <time>2022-09-17T13:21:40.000Z</time>
      </trkpt>
      <trkpt lat="45.08535" lon="5.09753">
        <ele>192.4</ele>
        <time>2022-09-17T13:21:41.000Z</time>
      </trkpt>
      <trkpt lat="45.08532" lon="5.09746">
        <ele>192.3</ele>
        <time>2022-09-17T13:21:42.000Z</time>
      </trkpt>
      <trkpt lat="45.0853" lon="5.09739">
        <ele>192.1</ele>
        <time>2022-09-17T13:21:43.000Z</time>
      </trkpt>
      <trkpt lat="45.08527" lon="5.09733">
        <ele>191.9</ele>
        <time>2022-09-17T13:21:44.000Z</time>
      </trkpt>
      <trkpt lat="45.08524" lon="5.09726">
        <ele>191.6</ele>
        <time>2022-09-17T13:21:45.000Z</time>
      </trkpt>
      <trkpt lat="45.08521" lon="5.09719">
        <ele>191.3</ele>
        <time>2022-09-17T13:21:46.000Z</time>
      </trkpt>
      <trkpt lat="45.08518" lon="5.09712">
        <ele>191.2</ele>
        <time>2022-09-17T13:21:47.000Z</time>
      </trkpt>
      <trkpt lat="45.08515" lon="5.09704">
        <ele>191</ele>
        <time>2022-09-17T13:21:48.000Z</time>
      </trkpt>
      <trkpt lat="45.08513" lon="5.09697">
        <ele>190.8</ele>
        <time>2022-09-17T13:21:49.000Z</time>
      </trkpt>
      <trkpt lat="45.0851" lon="5.09689">
        <ele>190.6</ele>
        <time>2022-09-17T13:21:50.000Z</time>
      </trkpt>
      <trkpt lat="45.08507" lon="5.09682">
        <ele>190.7</ele>
        <time>2022-09-17T13:21:51.000Z</time>
      </trkpt>
      <trkpt lat="45.08504" lon="5.09675">
        <ele>190.8</ele>
        <time>2022-09-17T13:21:52.000Z</time>
      </trkpt>
      <trkpt lat="45.08501" lon="5.09667">
        <ele>191</ele>
        <time>2022-09-17T13:21:53.000Z</time>
      </trkpt>
      <trkpt lat="45.08498" lon="5.0966">
        <ele>191</ele>
        <time>2022-09-17T13:21:54.000Z</time>
      </trkpt>
      <trkpt lat="45.08495" lon="5.09653">
        <ele>190.9</ele>
        <time>2022-09-17T13:21:55.000Z</time>
      </trkpt>
      <trkpt lat="45.08492" lon="5.09647">
        <ele>190.7</ele>
        <time>2022-09-17T13:21:56.000Z</time>
      </trkpt>
      <trkpt lat="45.0849" lon="5.0964">
        <ele>190.5</ele>
        <time>2022-09-17T13:21:57.000Z</time>
      </trkpt>
      <trkpt lat="45.08487" lon="5.09634">
        <ele>190.3</ele>
        <time>2022-09-17T13:21:58.000Z</time>
      </trkpt>
      <trkpt lat="45.08484" lon="5.09627">
        <ele>190.2</ele>
        <time>2022-09-17T13:21:59.000Z</time>
      </trkpt>
      <trkpt lat="45.08482" lon="5.09621">
        <ele>190.2</ele>
        <time>2022-09-17T13:22:00.000Z</time>
      </trkpt>
      <trkpt lat="45.08479" lon="5.09615">
        <ele>190.3</ele>
        <time>2022-09-17T13:22:01.000Z</time>
      </trkpt>
      <trkpt lat="45.08475" lon="5.09608">
        <ele>190.3</ele>
        <time>2022-09-17T13:22:02.000Z</time>
      </trkpt>
      <trkpt lat="45.08472" lon="5.09602">
        <ele>190.3</ele>
        <time>2022-09-17T13:22:03.000Z</time>
      </trkpt>
      <trkpt lat="45.08469" lon="5.09595">
        <ele>190.4</ele>
        <time>2022-09-17T13:22:04.000Z</time>
      </trkpt>
      <trkpt lat="45.08466" lon="5.09588">
        <ele>190.5</ele>
        <time>2022-09-17T13:22:05.000Z</time>
      </trkpt>
      <trkpt lat="45.08464" lon="5.09581">
        <ele>190.4</ele>
        <time>2022-09-17T13:22:06.000Z</time>
      </trkpt>
      <trkpt lat="45.08462" lon="5.09574">
        <ele>190.2</ele>
        <time>2022-09-17T13:22:07.000Z</time>
      </trkpt>
      <trkpt lat="45.0846" lon="5.09567">
        <ele>190.1</ele>
        <time>2022-09-17T13:22:08.000Z</time>
      </trkpt>
      <trkpt lat="45.08459" lon="5.09561">
        <ele>190</ele>
        <time>2022-09-17T13:22:09.000Z</time>
      </trkpt>
      <trkpt lat="45.08458" lon="5.09555">
        <ele>190</ele>
        <time>2022-09-17T13:22:10.000Z</time>
      </trkpt>
      <trkpt lat="45.08457" lon="5.09549">
        <ele>190</ele>
        <time>2022-09-17T13:22:11.000Z</time>
      </trkpt>
      <trkpt lat="45.08455" lon="5.09543">
        <ele>190</ele>
        <time>2022-09-17T13:22:12.000Z</time>
      </trkpt>
      <trkpt lat="45.08453" lon="5.09538">
        <ele>190</ele>
        <time>2022-09-17T13:22:13.000Z</time>
      </trkpt>
      <trkpt lat="45.08449" lon="5.09534">
        <ele>190</ele>
        <time>2022-09-17T13:22:14.000Z</time>
      </trkpt>
      <trkpt lat="45.08446" lon="5.0953">
        <ele>190</ele>
        <time>2022-09-17T13:22:15.000Z</time>
      </trkpt>
      <trkpt lat="45.08441" lon="5.09527">
        <ele>189.6</ele>
        <time>2022-09-17T13:22:16.000Z</time>
      </trkpt>
      <trkpt lat="45.08435" lon="5.09524">
        <ele>188.9</ele>
        <time>2022-09-17T13:22:17.000Z</time>
      </trkpt>
      <trkpt lat="45.08429" lon="5.09521">
        <ele>188.3</ele>
        <time>2022-09-17T13:22:18.000Z</time>
      </trkpt>
      <trkpt lat="45.08423" lon="5.09517">
        <ele>187.8</ele>
        <time>2022-09-17T13:22:19.000Z</time>
      </trkpt>
      <trkpt lat="45.08417" lon="5.09512">
        <ele>187.6</ele>
        <time>2022-09-17T13:22:20.000Z</time>
      </trkpt>
      <trkpt lat="45.08412" lon="5.09506">
        <ele>187.4</ele>
        <time>2022-09-17T13:22:21.000Z</time>
      </trkpt>
      <trkpt lat="45.08406" lon="5.095">
        <ele>187.2</ele>
        <time>2022-09-17T13:22:22.000Z</time>
      </trkpt>
      <trkpt lat="45.08401" lon="5.09494">
        <ele>186.9</ele>
        <time>2022-09-17T13:22:23.000Z</time>
      </trkpt>
      <trkpt lat="45.08396" lon="5.09487">
        <ele>186.7</ele>
        <time>2022-09-17T13:22:24.000Z</time>
      </trkpt>
      <trkpt lat="45.08391" lon="5.0948">
        <ele>186.8</ele>
        <time>2022-09-17T13:22:25.000Z</time>
      </trkpt>
      <trkpt lat="45.08386" lon="5.09473">
        <ele>186.8</ele>
        <time>2022-09-17T13:22:26.000Z</time>
      </trkpt>
      <trkpt lat="45.08381" lon="5.09466">
        <ele>186.3</ele>
        <time>2022-09-17T13:22:27.000Z</time>
      </trkpt>
      <trkpt lat="45.08375" lon="5.0946">
        <ele>186</ele>
        <time>2022-09-17T13:22:28.000Z</time>
      </trkpt>
      <trkpt lat="45.0837" lon="5.09454">
        <ele>185.9</ele>
        <time>2022-09-17T13:22:29.000Z</time>
      </trkpt>
      <trkpt lat="45.08365" lon="5.09447">
        <ele>185.9</ele>
        <time>2022-09-17T13:22:30.000Z</time>
      </trkpt>
      <trkpt lat="45.08361" lon="5.09441">
        <ele>186</ele>
        <time>2022-09-17T13:22:31.000Z</time>
      </trkpt>
      <trkpt lat="45.08356" lon="5.09435">
        <ele>185.9</ele>
        <time>2022-09-17T13:22:32.000Z</time>
      </trkpt>
      <trkpt lat="45.08351" lon="5.09428">
        <ele>185.8</ele>
        <time>2022-09-17T13:22:33.000Z</time>
      </trkpt>
      <trkpt lat="45.08346" lon="5.09422">
        <ele>185.9</ele>
        <time>2022-09-17T13:22:34.000Z</time>
      </trkpt>
      <trkpt lat="45.08341" lon="5.09416">
        <ele>186</ele>
        <time>2022-09-17T13:22:35.000Z</time>
      </trkpt>
      <trkpt lat="45.08336" lon="5.09409">
        <ele>186</ele>
        <time>2022-09-17T13:22:36.000Z</time>
      </trkpt>
      <trkpt lat="45.08331" lon="5.09403">
        <ele>185.9</ele>
        <time>2022-09-17T13:22:37.000Z</time>
      </trkpt>
      <trkpt lat="45.08326" lon="5.09396">
        <ele>185.7</ele>
        <time>2022-09-17T13:22:38.000Z</time>
      </trkpt>
      <trkpt lat="45.08321" lon="5.0939">
        <ele>185.5</ele>
        <time>2022-09-17T13:22:39.000Z</time>
      </trkpt>
      <trkpt lat="45.08316" lon="5.09384">
        <ele>185.3</ele>
        <time>2022-09-17T13:22:40.000Z</time>
      </trkpt>
      <trkpt lat="45.08312" lon="5.09377">
        <ele>185.1</ele>
        <time>2022-09-17T13:22:41.000Z</time>
      </trkpt>
      <trkpt lat="45.08307" lon="5.0937">
        <ele>185</ele>
        <time>2022-09-17T13:22:42.000Z</time>
      </trkpt>
      <trkpt lat="45.08303" lon="5.09362">
        <ele>185</ele>
        <time>2022-09-17T13:22:43.000Z</time>
      </trkpt>
      <trkpt lat="45.08299" lon="5.09355">
        <ele>185</ele>
        <time>2022-09-17T13:22:44.000Z</time>
      </trkpt>
      <trkpt lat="45.08296" lon="5.09348">
        <ele>185</ele>
        <time>2022-09-17T13:22:45.000Z</time>
      </trkpt>
      <trkpt lat="45.08292" lon="5.09341">
        <ele>185</ele>
        <time>2022-09-17T13:22:46.000Z</time>
      </trkpt>
      <trkpt lat="45.08289" lon="5.09333">
        <ele>185</ele>
        <time>2022-09-17T13:22:47.000Z</time>
      </trkpt>
      <trkpt lat="45.08285" lon="5.09326">
        <ele>185.2</ele>
        <time>2022-09-17T13:22:48.000Z</time>
      </trkpt>
      <trkpt lat="45.08282" lon="5.09319">
        <ele>185.5</ele>
        <time>2022-09-17T13:22:49.000Z</time>
      </trkpt>
      <trkpt lat="45.08279" lon="5.09312">
        <ele>185.8</ele>
        <time>2022-09-17T13:22:50.000Z</time>
      </trkpt>
      <trkpt lat="45.08276" lon="5.09304">
        <ele>185.9</ele>
        <time>2022-09-17T13:22:51.000Z</time>
      </trkpt>
      <trkpt lat="45.08273" lon="5.09296">
        <ele>185.6</ele>
        <time>2022-09-17T13:22:52.000Z</time>
      </trkpt>
      <trkpt lat="45.08271" lon="5.09289">
        <ele>185.3</ele>
        <time>2022-09-17T13:22:53.000Z</time>
      </trkpt>
      <trkpt lat="45.08268" lon="5.09282">
        <ele>185.1</ele>
        <time>2022-09-17T13:22:54.000Z</time>
      </trkpt>
      <trkpt lat="45.08266" lon="5.09275">
        <ele>185</ele>
        <time>2022-09-17T13:22:55.000Z</time>
      </trkpt>
      <trkpt lat="45.08264" lon="5.09268">
        <ele>185.2</ele>
        <time>2022-09-17T13:22:56.000Z</time>
      </trkpt>
      <trkpt lat="45.08262" lon="5.09261">
        <ele>185.3</ele>
        <time>2022-09-17T13:22:57.000Z</time>
      </trkpt>
      <trkpt lat="45.0826" lon="5.09255">
        <ele>185.5</ele>
        <time>2022-09-17T13:22:58.000Z</time>
      </trkpt>
      <trkpt lat="45.08258" lon="5.09248">
        <ele>185.7</ele>
        <time>2022-09-17T13:22:59.000Z</time>
      </trkpt>
      <trkpt lat="45.08256" lon="5.09242">
        <ele>185.8</ele>
        <time>2022-09-17T13:23:00.000Z</time>
      </trkpt>
      <trkpt lat="45.08254" lon="5.09235">
        <ele>185.8</ele>
        <time>2022-09-17T13:23:01.000Z</time>
      </trkpt>
      <trkpt lat="45.08253" lon="5.09228">
        <ele>185.9</ele>
        <time>2022-09-17T13:23:02.000Z</time>
      </trkpt>
      <trkpt lat="45.08251" lon="5.09221">
        <ele>185.9</ele>
        <time>2022-09-17T13:23:03.000Z</time>
      </trkpt>
      <trkpt lat="45.0825" lon="5.09214">
        <ele>185.7</ele>
        <time>2022-09-17T13:23:04.000Z</time>
      </trkpt>
      <trkpt lat="45.08248" lon="5.09206">
        <ele>185.4</ele>
        <time>2022-09-17T13:23:05.000Z</time>
      </trkpt>
      <trkpt lat="45.08247" lon="5.09199">
        <ele>185.1</ele>
        <time>2022-09-17T13:23:06.000Z</time>
      </trkpt>
      <trkpt lat="45.08245" lon="5.09192">
        <ele>185</ele>
        <time>2022-09-17T13:23:07.000Z</time>
      </trkpt>
      <trkpt lat="45.08244" lon="5.09185">
        <ele>185</ele>
        <time>2022-09-17T13:23:08.000Z</time>
      </trkpt>
      <trkpt lat="45.08243" lon="5.09178">
        <ele>185</ele>
        <time>2022-09-17T13:23:09.000Z</time>
      </trkpt>
      <trkpt lat="45.08242" lon="5.0917">
        <ele>185</ele>
        <time>2022-09-17T13:23:10.000Z</time>
      </trkpt>
      <trkpt lat="45.08241" lon="5.09162">
        <ele>185</ele>
        <time>2022-09-17T13:23:11.000Z</time>
      </trkpt>
      <trkpt lat="45.0824" lon="5.09154">
        <ele>185</ele>
        <time>2022-09-17T13:23:12.000Z</time>
      </trkpt>
      <trkpt lat="45.08239" lon="5.09146">
        <ele>185</ele>
        <time>2022-09-17T13:23:13.000Z</time>
      </trkpt>
      <trkpt lat="45.08238" lon="5.09138">
        <ele>185</ele>
        <time>2022-09-17T13:23:14.000Z</time>
      </trkpt>
      <trkpt lat="45.08237" lon="5.0913">
        <ele>185</ele>
        <time>2022-09-17T13:23:15.000Z</time>
      </trkpt>
      <trkpt lat="45.08236" lon="5.09122">
        <ele>185</ele>
        <time>2022-09-17T13:23:16.000Z</time>
      </trkpt>
      <trkpt lat="45.08235" lon="5.09114">
        <ele>185</ele>
        <time>2022-09-17T13:23:17.000Z</time>
      </trkpt>
      <trkpt lat="45.08234" lon="5.09105">
        <ele>185</ele>
        <time>2022-09-17T13:23:18.000Z</time>
      </trkpt>
      <trkpt lat="45.08233" lon="5.09097">
        <ele>185</ele>
        <time>2022-09-17T13:23:19.000Z</time>
      </trkpt>
      <trkpt lat="45.08233" lon="5.09089">
        <ele>185</ele>
        <time>2022-09-17T13:23:20.000Z</time>
      </trkpt>
      <trkpt lat="45.08232" lon="5.09081">
        <ele>185</ele>
        <time>2022-09-17T13:23:21.000Z</time>
      </trkpt>
      <trkpt lat="45.08232" lon="5.09073">
        <ele>185</ele>
        <time>2022-09-17T13:23:22.000Z</time>
      </trkpt>
      <trkpt lat="45.08231" lon="5.09066">
        <ele>185</ele>
        <time>2022-09-17T13:23:23.000Z</time>
      </trkpt>
      <trkpt lat="45.08231" lon="5.09059">
        <ele>185</ele>
        <time>2022-09-17T13:23:24.000Z</time>
      </trkpt>
      <trkpt lat="45.0823" lon="5.09051">
        <ele>185</ele>
        <time>2022-09-17T13:23:25.000Z</time>
      </trkpt>
      <trkpt lat="45.08229" lon="5.09043">
        <ele>185</ele>
        <time>2022-09-17T13:23:26.000Z</time>
      </trkpt>
      <trkpt lat="45.08228" lon="5.09035">
        <ele>185</ele>
        <time>2022-09-17T13:23:27.000Z</time>
      </trkpt>
      <trkpt lat="45.08228" lon="5.09027">
        <ele>185</ele>
        <time>2022-09-17T13:23:28.000Z</time>
      </trkpt>
      <trkpt lat="45.08228" lon="5.09019">
        <ele>185</ele>
        <time>2022-09-17T13:23:29.000Z</time>
      </trkpt>
      <trkpt lat="45.08228" lon="5.09011">
        <ele>185</ele>
        <time>2022-09-17T13:23:30.000Z</time>
      </trkpt>
      <trkpt lat="45.08227" lon="5.09004">
        <ele>185</ele>
        <time>2022-09-17T13:23:31.000Z</time>
      </trkpt>
      <trkpt lat="45.08227" lon="5.08996">
        <ele>185</ele>
        <time>2022-09-17T13:23:32.000Z</time>
      </trkpt>
      <trkpt lat="45.08226" lon="5.08988">
        <ele>185</ele>
        <time>2022-09-17T13:23:33.000Z</time>
      </trkpt>
      <trkpt lat="45.08226" lon="5.08981">
        <ele>185</ele>
        <time>2022-09-17T13:23:34.000Z</time>
      </trkpt>
      <trkpt lat="45.08226" lon="5.08974">
        <ele>185</ele>
        <time>2022-09-17T13:23:35.000Z</time>
      </trkpt>
      <trkpt lat="45.08226" lon="5.08966">
        <ele>185</ele>
        <time>2022-09-17T13:23:36.000Z</time>
      </trkpt>
      <trkpt lat="45.08225" lon="5.08959">
        <ele>185</ele>
        <time>2022-09-17T13:23:37.000Z</time>
      </trkpt>
      <trkpt lat="45.08225" lon="5.08952">
        <ele>185</ele>
        <time>2022-09-17T13:23:38.000Z</time>
      </trkpt>
      <trkpt lat="45.08224" lon="5.08944">
        <ele>185</ele>
        <time>2022-09-17T13:23:39.000Z</time>
      </trkpt>
      <trkpt lat="45.08224" lon="5.08937">
        <ele>185</ele>
        <time>2022-09-17T13:23:40.000Z</time>
      </trkpt>
      <trkpt lat="45.08223" lon="5.0893">
        <ele>185</ele>
        <time>2022-09-17T13:23:41.000Z</time>
      </trkpt>
      <trkpt lat="45.08223" lon="5.08923">
        <ele>185</ele>
        <time>2022-09-17T13:23:42.000Z</time>
      </trkpt>
      <trkpt lat="45.08223" lon="5.08916">
        <ele>185</ele>
        <time>2022-09-17T13:23:43.000Z</time>
      </trkpt>
      <trkpt lat="45.08223" lon="5.08908">
        <ele>185</ele>
        <time>2022-09-17T13:23:44.000Z</time>
      </trkpt>
      <trkpt lat="45.08223" lon="5.089">
        <ele>185</ele>
        <time>2022-09-17T13:23:45.000Z</time>
      </trkpt>
      <trkpt lat="45.08223" lon="5.08892">
        <ele>185</ele>
        <time>2022-09-17T13:23:46.000Z</time>
      </trkpt>
      <trkpt lat="45.08222" lon="5.08884">
        <ele>185</ele>
        <time>2022-09-17T13:23:47.000Z</time>
      </trkpt>
      <trkpt lat="45.08221" lon="5.08876">
        <ele>185</ele>
        <time>2022-09-17T13:23:48.000Z</time>
      </trkpt>
      <trkpt lat="45.08221" lon="5.08868">
        <ele>185</ele>
        <time>2022-09-17T13:23:49.000Z</time>
      </trkpt>
      <trkpt lat="45.0822" lon="5.0886">
        <ele>185</ele>
        <time>2022-09-17T13:23:50.000Z</time>
      </trkpt>
      <trkpt lat="45.0822" lon="5.08853">
        <ele>185.3</ele>
        <time>2022-09-17T13:23:51.000Z</time>
      </trkpt>
      <trkpt lat="45.0822" lon="5.08845">
        <ele>185.5</ele>
        <time>2022-09-17T13:23:52.000Z</time>
      </trkpt>
      <trkpt lat="45.08219" lon="5.08838">
        <ele>185.7</ele>
        <time>2022-09-17T13:23:53.000Z</time>
      </trkpt>
      <trkpt lat="45.08219" lon="5.08831">
        <ele>185.9</ele>
        <time>2022-09-17T13:23:54.000Z</time>
      </trkpt>
      <trkpt lat="45.08218" lon="5.08823">
        <ele>185.8</ele>
        <time>2022-09-17T13:23:55.000Z</time>
      </trkpt>
      <trkpt lat="45.08218" lon="5.08815">
        <ele>185.7</ele>
        <time>2022-09-17T13:23:56.000Z</time>
      </trkpt>
      <trkpt lat="45.08217" lon="5.08808">
        <ele>185.6</ele>
        <time>2022-09-17T13:23:57.000Z</time>
      </trkpt>
      <trkpt lat="45.08216" lon="5.088">
        <ele>185.6</ele>
        <time>2022-09-17T13:23:58.000Z</time>
      </trkpt>
      <trkpt lat="45.08216" lon="5.08793">
        <ele>185.6</ele>
        <time>2022-09-17T13:23:59.000Z</time>
      </trkpt>
      <trkpt lat="45.08215" lon="5.08786">
        <ele>185.7</ele>
        <time>2022-09-17T13:24:00.000Z</time>
      </trkpt>
      <trkpt lat="45.08215" lon="5.08779">
        <ele>185.7</ele>
        <time>2022-09-17T13:24:01.000Z</time>
      </trkpt>
      <trkpt lat="45.08214" lon="5.08772">
        <ele>185.8</ele>
        <time>2022-09-17T13:24:02.000Z</time>
      </trkpt>
      <trkpt lat="45.08213" lon="5.08766">
        <ele>185.8</ele>
        <time>2022-09-17T13:24:03.000Z</time>
      </trkpt>
      <trkpt lat="45.08212" lon="5.0876">
        <ele>185.9</ele>
        <time>2022-09-17T13:24:04.000Z</time>
      </trkpt>
      <trkpt lat="45.0821" lon="5.08755">
        <ele>185.9</ele>
        <time>2022-09-17T13:24:05.000Z</time>
      </trkpt>
      <trkpt lat="45.08209" lon="5.08749">
        <ele>186</ele>
        <time>2022-09-17T13:24:06.000Z</time>
      </trkpt>
      <trkpt lat="45.08208" lon="5.08742">
        <ele>186.1</ele>
        <time>2022-09-17T13:24:07.000Z</time>
      </trkpt>
      <trkpt lat="45.08208" lon="5.08736">
        <ele>186.2</ele>
        <time>2022-09-17T13:24:08.000Z</time>
      </trkpt>
      <trkpt lat="45.08206" lon="5.0873">
        <ele>186.3</ele>
        <time>2022-09-17T13:24:09.000Z</time>
      </trkpt>
      <trkpt lat="45.08205" lon="5.08723">
        <ele>186.4</ele>
        <time>2022-09-17T13:24:10.000Z</time>
      </trkpt>
      <trkpt lat="45.08203" lon="5.08718">
        <ele>186.1</ele>
        <time>2022-09-17T13:24:11.000Z</time>
      </trkpt>
      <trkpt lat="45.08201" lon="5.08712">
        <ele>185.8</ele>
        <time>2022-09-17T13:24:12.000Z</time>
      </trkpt>
      <trkpt lat="45.08198" lon="5.08707">
        <ele>185.5</ele>
        <time>2022-09-17T13:24:13.000Z</time>
      </trkpt>
      <trkpt lat="45.08195" lon="5.08701">
        <ele>185.2</ele>
        <time>2022-09-17T13:24:14.000Z</time>
      </trkpt>
      <trkpt lat="45.08193" lon="5.08694">
        <ele>184.9</ele>
        <time>2022-09-17T13:24:15.000Z</time>
      </trkpt>
      <trkpt lat="45.08191" lon="5.08687">
        <ele>184.6</ele>
        <time>2022-09-17T13:24:16.000Z</time>
      </trkpt>
      <trkpt lat="45.0819" lon="5.08678">
        <ele>184.3</ele>
        <time>2022-09-17T13:24:17.000Z</time>
      </trkpt>
      <trkpt lat="45.08189" lon="5.0867">
        <ele>184.1</ele>
        <time>2022-09-17T13:24:18.000Z</time>
      </trkpt>
      <trkpt lat="45.08187" lon="5.0866">
        <ele>183.9</ele>
        <time>2022-09-17T13:24:19.000Z</time>
      </trkpt>
      <trkpt lat="45.08186" lon="5.08652">
        <ele>183.8</ele>
        <time>2022-09-17T13:24:20.000Z</time>
      </trkpt>
      <trkpt lat="45.08184" lon="5.08643">
        <ele>183.7</ele>
        <time>2022-09-17T13:24:21.000Z</time>
      </trkpt>
      <trkpt lat="45.08183" lon="5.08634">
        <ele>183.6</ele>
        <time>2022-09-17T13:24:22.000Z</time>
      </trkpt>
      <trkpt lat="45.08182" lon="5.08626">
        <ele>183.5</ele>
        <time>2022-09-17T13:24:23.000Z</time>
      </trkpt>
      <trkpt lat="45.0818" lon="5.08618">
        <ele>183.5</ele>
        <time>2022-09-17T13:24:24.000Z</time>
      </trkpt>
      <trkpt lat="45.08179" lon="5.0861">
        <ele>183.4</ele>
        <time>2022-09-17T13:24:25.000Z</time>
      </trkpt>
      <trkpt lat="45.08178" lon="5.08603">
        <ele>183.4</ele>
        <time>2022-09-17T13:24:26.000Z</time>
      </trkpt>
      <trkpt lat="45.08177" lon="5.08596">
        <ele>183.4</ele>
        <time>2022-09-17T13:24:27.000Z</time>
      </trkpt>
      <trkpt lat="45.08176" lon="5.08589">
        <ele>183.3</ele>
        <time>2022-09-17T13:24:28.000Z</time>
      </trkpt>
      <trkpt lat="45.08176" lon="5.08582">
        <ele>183.3</ele>
        <time>2022-09-17T13:24:29.000Z</time>
      </trkpt>
      <trkpt lat="45.08175" lon="5.08575">
        <ele>183.3</ele>
        <time>2022-09-17T13:24:30.000Z</time>
      </trkpt>
      <trkpt lat="45.08174" lon="5.08567">
        <ele>183.2</ele>
        <time>2022-09-17T13:24:31.000Z</time>
      </trkpt>
      <trkpt lat="45.08172" lon="5.0856">
        <ele>183.2</ele>
        <time>2022-09-17T13:24:32.000Z</time>
      </trkpt>
      <trkpt lat="45.08171" lon="5.08553">
        <ele>183.3</ele>
        <time>2022-09-17T13:24:33.000Z</time>
      </trkpt>
      <trkpt lat="45.0817" lon="5.08546">
        <ele>183.5</ele>
        <time>2022-09-17T13:24:34.000Z</time>
      </trkpt>
      <trkpt lat="45.08168" lon="5.08538">
        <ele>183.7</ele>
        <time>2022-09-17T13:24:35.000Z</time>
      </trkpt>
      <trkpt lat="45.08167" lon="5.08531">
        <ele>183.9</ele>
        <time>2022-09-17T13:24:36.000Z</time>
      </trkpt>
      <trkpt lat="45.08166" lon="5.08523">
        <ele>184</ele>
        <time>2022-09-17T13:24:37.000Z</time>
      </trkpt>
      <trkpt lat="45.08165" lon="5.08516">
        <ele>184</ele>
        <time>2022-09-17T13:24:38.000Z</time>
      </trkpt>
      <trkpt lat="45.08164" lon="5.08509">
        <ele>183.9</ele>
        <time>2022-09-17T13:24:39.000Z</time>
      </trkpt>
      <trkpt lat="45.08163" lon="5.08501">
        <ele>183.9</ele>
        <time>2022-09-17T13:24:40.000Z</time>
      </trkpt>
      <trkpt lat="45.08162" lon="5.08493">
        <ele>184</ele>
        <time>2022-09-17T13:24:41.000Z</time>
      </trkpt>
      <trkpt lat="45.08161" lon="5.08486">
        <ele>184.2</ele>
        <time>2022-09-17T13:24:42.000Z</time>
      </trkpt>
      <trkpt lat="45.0816" lon="5.08479">
        <ele>184.3</ele>
        <time>2022-09-17T13:24:43.000Z</time>
      </trkpt>
      <trkpt lat="45.08159" lon="5.08473">
        <ele>184.4</ele>
        <time>2022-09-17T13:24:44.000Z</time>
      </trkpt>
      <trkpt lat="45.08158" lon="5.08467">
        <ele>184.4</ele>
        <time>2022-09-17T13:24:45.000Z</time>
      </trkpt>
      <trkpt lat="45.08158" lon="5.08462">
        <ele>184.5</ele>
        <time>2022-09-17T13:24:46.000Z</time>
      </trkpt>
      <trkpt lat="45.08156" lon="5.08456">
        <ele>184.5</ele>
        <time>2022-09-17T13:24:47.000Z</time>
      </trkpt>
      <trkpt lat="45.08155" lon="5.08451">
        <ele>184.5</ele>
        <time>2022-09-17T13:24:48.000Z</time>
      </trkpt>
      <trkpt lat="45.08155" lon="5.08445">
        <ele>184.6</ele>
        <time>2022-09-17T13:24:49.000Z</time>
      </trkpt>
      <trkpt lat="45.08154" lon="5.0844">
        <ele>184.5</ele>
        <time>2022-09-17T13:24:50.000Z</time>
      </trkpt>
      <trkpt lat="45.08154" lon="5.08433">
        <ele>184.5</ele>
        <time>2022-09-17T13:24:51.000Z</time>
      </trkpt>
      <trkpt lat="45.08153" lon="5.08427">
        <ele>184.5</ele>
        <time>2022-09-17T13:24:52.000Z</time>
      </trkpt>
      <trkpt lat="45.08153" lon="5.08421">
        <ele>184.5</ele>
        <time>2022-09-17T13:24:53.000Z</time>
      </trkpt>
      <trkpt lat="45.08152" lon="5.08414">
        <ele>184.5</ele>
        <time>2022-09-17T13:24:54.000Z</time>
      </trkpt>
      <trkpt lat="45.08152" lon="5.08408">
        <ele>184.5</ele>
        <time>2022-09-17T13:24:55.000Z</time>
      </trkpt>
      <trkpt lat="45.08151" lon="5.08401">
        <ele>184.4</ele>
        <time>2022-09-17T13:24:56.000Z</time>
      </trkpt>
      <trkpt lat="45.08151" lon="5.08394">
        <ele>184.4</ele>
        <time>2022-09-17T13:24:57.000Z</time>
      </trkpt>
      <trkpt lat="45.0815" lon="5.08387">
        <ele>184.4</ele>
        <time>2022-09-17T13:24:58.000Z</time>
      </trkpt>
      <trkpt lat="45.0815" lon="5.08381">
        <ele>184.4</ele>
        <time>2022-09-17T13:24:59.000Z</time>
      </trkpt>
      <trkpt lat="45.08149" lon="5.08374">
        <ele>184.4</ele>
        <time>2022-09-17T13:25:00.000Z</time>
      </trkpt>
      <trkpt lat="45.08148" lon="5.08368">
        <ele>184.3</ele>
        <time>2022-09-17T13:25:01.000Z</time>
      </trkpt>
      <trkpt lat="45.08148" lon="5.08361">
        <ele>184.3</ele>
        <time>2022-09-17T13:25:02.000Z</time>
      </trkpt>
      <trkpt lat="45.08147" lon="5.08354">
        <ele>184.5</ele>
        <time>2022-09-17T13:25:03.000Z</time>
      </trkpt>
      <trkpt lat="45.08146" lon="5.08347">
        <ele>184.6</ele>
        <time>2022-09-17T13:25:04.000Z</time>
      </trkpt>
      <trkpt lat="45.08145" lon="5.0834">
        <ele>184.8</ele>
        <time>2022-09-17T13:25:05.000Z</time>
      </trkpt>
      <trkpt lat="45.08143" lon="5.08334">
        <ele>185</ele>
        <time>2022-09-17T13:25:06.000Z</time>
      </trkpt>
      <trkpt lat="45.08142" lon="5.08327">
        <ele>185</ele>
        <time>2022-09-17T13:25:07.000Z</time>
      </trkpt>
      <trkpt lat="45.0814" lon="5.08319">
        <ele>185</ele>
        <time>2022-09-17T13:25:08.000Z</time>
      </trkpt>
      <trkpt lat="45.08138" lon="5.08313">
        <ele>185</ele>
        <time>2022-09-17T13:25:09.000Z</time>
      </trkpt>
      <trkpt lat="45.08136" lon="5.08306">
        <ele>184.9</ele>
        <time>2022-09-17T13:25:10.000Z</time>
      </trkpt>
      <trkpt lat="45.08134" lon="5.08299">
        <ele>184.8</ele>
        <time>2022-09-17T13:25:11.000Z</time>
      </trkpt>
      <trkpt lat="45.08132" lon="5.08292">
        <ele>184.8</ele>
        <time>2022-09-17T13:25:12.000Z</time>
      </trkpt>
      <trkpt lat="45.0813" lon="5.08285">
        <ele>184.7</ele>
        <time>2022-09-17T13:25:13.000Z</time>
      </trkpt>
      <trkpt lat="45.08129" lon="5.08278">
        <ele>184.6</ele>
        <time>2022-09-17T13:25:14.000Z</time>
      </trkpt>
      <trkpt lat="45.08127" lon="5.08272">
        <ele>184.8</ele>
        <time>2022-09-17T13:25:15.000Z</time>
      </trkpt>
      <trkpt lat="45.08125" lon="5.08266">
        <ele>184.9</ele>
        <time>2022-09-17T13:25:16.000Z</time>
      </trkpt>
      <trkpt lat="45.08123" lon="5.08261">
        <ele>185.1</ele>
        <time>2022-09-17T13:25:17.000Z</time>
      </trkpt>
      <trkpt lat="45.08122" lon="5.08255">
        <ele>185.2</ele>
        <time>2022-09-17T13:25:18.000Z</time>
      </trkpt>
      <trkpt lat="45.0812" lon="5.08249">
        <ele>185.3</ele>
        <time>2022-09-17T13:25:19.000Z</time>
      </trkpt>
      <trkpt lat="45.08119" lon="5.08243">
        <ele>185.4</ele>
        <time>2022-09-17T13:25:20.000Z</time>
      </trkpt>
      <trkpt lat="45.08116" lon="5.08238">
        <ele>185.6</ele>
        <time>2022-09-17T13:25:21.000Z</time>
      </trkpt>
      <trkpt lat="45.08114" lon="5.08232">
        <ele>185.7</ele>
        <time>2022-09-17T13:25:22.000Z</time>
      </trkpt>
      <trkpt lat="45.08112" lon="5.08227">
        <ele>185.8</ele>
        <time>2022-09-17T13:25:23.000Z</time>
      </trkpt>
      <trkpt lat="45.08108" lon="5.08221">
        <ele>185.8</ele>
        <time>2022-09-17T13:25:24.000Z</time>
      </trkpt>
      <trkpt lat="45.08105" lon="5.08216">
        <ele>185.6</ele>
        <time>2022-09-17T13:25:25.000Z</time>
      </trkpt>
      <trkpt lat="45.08102" lon="5.08211">
        <ele>185.5</ele>
        <time>2022-09-17T13:25:26.000Z</time>
      </trkpt>
      <trkpt lat="45.08098" lon="5.08206">
        <ele>185.3</ele>
        <time>2022-09-17T13:25:27.000Z</time>
      </trkpt>
      <trkpt lat="45.08096" lon="5.08201">
        <ele>185.3</ele>
        <time>2022-09-17T13:25:28.000Z</time>
      </trkpt>
      <trkpt lat="45.08093" lon="5.08196">
        <ele>185.3</ele>
        <time>2022-09-17T13:25:29.000Z</time>
      </trkpt>
      <trkpt lat="45.0809" lon="5.08191">
        <ele>185.4</ele>
        <time>2022-09-17T13:25:30.000Z</time>
      </trkpt>
      <trkpt lat="45.08087" lon="5.08185">
        <ele>185.7</ele>
        <time>2022-09-17T13:25:31.000Z</time>
      </trkpt>
      <trkpt lat="45.08084" lon="5.0818">
        <ele>186</ele>
        <time>2022-09-17T13:25:32.000Z</time>
      </trkpt>
      <trkpt lat="45.0808" lon="5.08175">
        <ele>186.1</ele>
        <time>2022-09-17T13:25:33.000Z</time>
      </trkpt>
      <trkpt lat="45.08077" lon="5.0817">
        <ele>186.1</ele>
        <time>2022-09-17T13:25:34.000Z</time>
      </trkpt>
      <trkpt lat="45.08074" lon="5.08165">
        <ele>186</ele>
        <time>2022-09-17T13:25:35.000Z</time>
      </trkpt>
      <trkpt lat="45.08071" lon="5.08161">
        <ele>185.8</ele>
        <time>2022-09-17T13:25:36.000Z</time>
      </trkpt>
      <trkpt lat="45.08067" lon="5.08157">
        <ele>185.6</ele>
        <time>2022-09-17T13:25:37.000Z</time>
      </trkpt>
      <trkpt lat="45.08063" lon="5.08153">
        <ele>185.6</ele>
        <time>2022-09-17T13:25:38.000Z</time>
      </trkpt>
      <trkpt lat="45.08059" lon="5.08148">
        <ele>185.5</ele>
        <time>2022-09-17T13:25:39.000Z</time>
      </trkpt>
      <trkpt lat="45.08055" lon="5.08143">
        <ele>185.6</ele>
        <time>2022-09-17T13:25:40.000Z</time>
      </trkpt>
      <trkpt lat="45.0805" lon="5.08138">
        <ele>185.6</ele>
        <time>2022-09-17T13:25:41.000Z</time>
      </trkpt>
      <trkpt lat="45.08046" lon="5.08133">
        <ele>185.4</ele>
        <time>2022-09-17T13:25:42.000Z</time>
      </trkpt>
      <trkpt lat="45.08041" lon="5.08127">
        <ele>185.2</ele>
        <time>2022-09-17T13:25:43.000Z</time>
      </trkpt>
      <trkpt lat="45.08036" lon="5.08122">
        <ele>185</ele>
        <time>2022-09-17T13:25:44.000Z</time>
      </trkpt>
      <trkpt lat="45.08031" lon="5.08118">
        <ele>184.9</ele>
        <time>2022-09-17T13:25:45.000Z</time>
      </trkpt>
      <trkpt lat="45.08026" lon="5.08113">
        <ele>184.8</ele>
        <time>2022-09-17T13:25:46.000Z</time>
      </trkpt>
      <trkpt lat="45.0802" lon="5.08108">
        <ele>184.5</ele>
        <time>2022-09-17T13:25:47.000Z</time>
      </trkpt>
      <trkpt lat="45.08016" lon="5.08103">
        <ele>184.4</ele>
        <time>2022-09-17T13:25:48.000Z</time>
      </trkpt>
      <trkpt lat="45.08011" lon="5.08098">
        <ele>184.4</ele>
        <time>2022-09-17T13:25:49.000Z</time>
      </trkpt>
      <trkpt lat="45.08006" lon="5.08092">
        <ele>184.5</ele>
        <time>2022-09-17T13:25:50.000Z</time>
      </trkpt>
      <trkpt lat="45.08002" lon="5.08086">
        <ele>184.8</ele>
        <time>2022-09-17T13:25:51.000Z</time>
      </trkpt>
      <trkpt lat="45.07998" lon="5.08081">
        <ele>184.7</ele>
        <time>2022-09-17T13:25:52.000Z</time>
      </trkpt>
      <trkpt lat="45.07993" lon="5.08075">
        <ele>184.4</ele>
        <time>2022-09-17T13:25:53.000Z</time>
      </trkpt>
      <trkpt lat="45.07988" lon="5.08069">
        <ele>184.1</ele>
        <time>2022-09-17T13:25:54.000Z</time>
      </trkpt>
      <trkpt lat="45.07983" lon="5.08063">
        <ele>184.1</ele>
        <time>2022-09-17T13:25:55.000Z</time>
      </trkpt>
      <trkpt lat="45.07979" lon="5.08058">
        <ele>184.1</ele>
        <time>2022-09-17T13:25:56.000Z</time>
      </trkpt>
      <trkpt lat="45.07974" lon="5.08052">
        <ele>184.1</ele>
        <time>2022-09-17T13:25:57.000Z</time>
      </trkpt>
      <trkpt lat="45.0797" lon="5.08046">
        <ele>183.8</ele>
        <time>2022-09-17T13:25:58.000Z</time>
      </trkpt>
      <trkpt lat="45.07965" lon="5.0804">
        <ele>183.6</ele>
        <time>2022-09-17T13:25:59.000Z</time>
      </trkpt>
      <trkpt lat="45.0796" lon="5.08034">
        <ele>183.5</ele>
        <time>2022-09-17T13:26:00.000Z</time>
      </trkpt>
      <trkpt lat="45.07955" lon="5.08028">
        <ele>183.4</ele>
        <time>2022-09-17T13:26:01.000Z</time>
      </trkpt>
      <trkpt lat="45.07951" lon="5.08021">
        <ele>183.2</ele>
        <time>2022-09-17T13:26:02.000Z</time>
      </trkpt>
      <trkpt lat="45.07946" lon="5.08015">
        <ele>183.1</ele>
        <time>2022-09-17T13:26:03.000Z</time>
      </trkpt>
      <trkpt lat="45.07942" lon="5.08009">
        <ele>182.8</ele>
        <time>2022-09-17T13:26:04.000Z</time>
      </trkpt>
      <trkpt lat="45.07937" lon="5.08004">
        <ele>182.4</ele>
        <time>2022-09-17T13:26:05.000Z</time>
      </trkpt>
      <trkpt lat="45.07932" lon="5.07998">
        <ele>182.2</ele>
        <time>2022-09-17T13:26:06.000Z</time>
      </trkpt>
      <trkpt lat="45.07928" lon="5.07992">
        <ele>182.2</ele>
        <time>2022-09-17T13:26:07.000Z</time>
      </trkpt>
      <trkpt lat="45.07924" lon="5.07985">
        <ele>182.3</ele>
        <time>2022-09-17T13:26:08.000Z</time>
      </trkpt>
      <trkpt lat="45.07919" lon="5.07979">
        <ele>182.6</ele>
        <time>2022-09-17T13:26:09.000Z</time>
      </trkpt>
      <trkpt lat="45.07915" lon="5.07973">
        <ele>182.8</ele>
        <time>2022-09-17T13:26:10.000Z</time>
      </trkpt>
      <trkpt lat="45.0791" lon="5.07966">
        <ele>182.6</ele>
        <time>2022-09-17T13:26:11.000Z</time>
      </trkpt>
      <trkpt lat="45.07906" lon="5.0796">
        <ele>182.4</ele>
        <time>2022-09-17T13:26:12.000Z</time>
      </trkpt>
      <trkpt lat="45.07901" lon="5.07954">
        <ele>182.3</ele>
        <time>2022-09-17T13:26:13.000Z</time>
      </trkpt>
      <trkpt lat="45.07897" lon="5.07947">
        <ele>182.2</ele>
        <time>2022-09-17T13:26:14.000Z</time>
      </trkpt>
      <trkpt lat="45.07893" lon="5.07941">
        <ele>182.3</ele>
        <time>2022-09-17T13:26:15.000Z</time>
      </trkpt>
      <trkpt lat="45.07888" lon="5.07935">
        <ele>182.3</ele>
        <time>2022-09-17T13:26:16.000Z</time>
      </trkpt>
      <trkpt lat="45.07884" lon="5.07928">
        <ele>182.3</ele>
        <time>2022-09-17T13:26:17.000Z</time>
      </trkpt>
      <trkpt lat="45.0788" lon="5.07922">
        <ele>182.2</ele>
        <time>2022-09-17T13:26:18.000Z</time>
      </trkpt>
      <trkpt lat="45.07876" lon="5.07916">
        <ele>182.1</ele>
        <time>2022-09-17T13:26:19.000Z</time>
      </trkpt>
      <trkpt lat="45.07872" lon="5.0791">
        <ele>181.9</ele>
        <time>2022-09-17T13:26:20.000Z</time>
      </trkpt>
      <trkpt lat="45.07868" lon="5.07904">
        <ele>181.8</ele>
        <time>2022-09-17T13:26:21.000Z</time>
      </trkpt>
      <trkpt lat="45.07864" lon="5.07898">
        <ele>181.8</ele>
        <time>2022-09-17T13:26:22.000Z</time>
      </trkpt>
      <trkpt lat="45.0786" lon="5.07891">
        <ele>181.8</ele>
        <time>2022-09-17T13:26:23.000Z</time>
      </trkpt>
      <trkpt lat="45.07856" lon="5.07885">
        <ele>181.6</ele>
        <time>2022-09-17T13:26:24.000Z</time>
      </trkpt>
      <trkpt lat="45.07852" lon="5.07879">
        <ele>181.4</ele>
        <time>2022-09-17T13:26:25.000Z</time>
      </trkpt>
      <trkpt lat="45.07847" lon="5.07873">
        <ele>181.3</ele>
        <time>2022-09-17T13:26:26.000Z</time>
      </trkpt>
      <trkpt lat="45.07843" lon="5.07867">
        <ele>181.2</ele>
        <time>2022-09-17T13:26:27.000Z</time>
      </trkpt>
      <trkpt lat="45.07839" lon="5.07861">
        <ele>181.2</ele>
        <time>2022-09-17T13:26:28.000Z</time>
      </trkpt>
      <trkpt lat="45.07836" lon="5.07855">
        <ele>181.1</ele>
        <time>2022-09-17T13:26:29.000Z</time>
      </trkpt>
      <trkpt lat="45.07832" lon="5.07849">
        <ele>180.9</ele>
        <time>2022-09-17T13:26:30.000Z</time>
      </trkpt>
      <trkpt lat="45.07828" lon="5.07843">
        <ele>180.7</ele>
        <time>2022-09-17T13:26:31.000Z</time>
      </trkpt>
      <trkpt lat="45.07825" lon="5.07838">
        <ele>180.6</ele>
        <time>2022-09-17T13:26:32.000Z</time>
      </trkpt>
      <trkpt lat="45.07821" lon="5.07832">
        <ele>180.6</ele>
        <time>2022-09-17T13:26:33.000Z</time>
      </trkpt>
      <trkpt lat="45.07817" lon="5.07827">
        <ele>180.5</ele>
        <time>2022-09-17T13:26:34.000Z</time>
      </trkpt>
      <trkpt lat="45.07813" lon="5.07822">
        <ele>180.6</ele>
        <time>2022-09-17T13:26:35.000Z</time>
      </trkpt>
      <trkpt lat="45.0781" lon="5.07816">
        <ele>180.7</ele>
        <time>2022-09-17T13:26:36.000Z</time>
      </trkpt>
      <trkpt lat="45.07806" lon="5.0781">
        <ele>180.8</ele>
        <time>2022-09-17T13:26:37.000Z</time>
      </trkpt>
      <trkpt lat="45.07802" lon="5.07804">
        <ele>180.9</ele>
        <time>2022-09-17T13:26:38.000Z</time>
      </trkpt>
      <trkpt lat="45.07798" lon="5.07798">
        <ele>180.8</ele>
        <time>2022-09-17T13:26:39.000Z</time>
      </trkpt>
      <trkpt lat="45.07795" lon="5.07793">
        <ele>180.8</ele>
        <time>2022-09-17T13:26:40.000Z</time>
      </trkpt>
      <trkpt lat="45.07791" lon="5.07786">
        <ele>180.8</ele>
        <time>2022-09-17T13:26:41.000Z</time>
      </trkpt>
      <trkpt lat="45.07787" lon="5.0778">
        <ele>180.9</ele>
        <time>2022-09-17T13:26:42.000Z</time>
      </trkpt>
      <trkpt lat="45.07783" lon="5.07774">
        <ele>181.1</ele>
        <time>2022-09-17T13:26:43.000Z</time>
      </trkpt>
      <trkpt lat="45.07779" lon="5.07768">
        <ele>181.3</ele>
        <time>2022-09-17T13:26:44.000Z</time>
      </trkpt>
      <trkpt lat="45.07776" lon="5.07762">
        <ele>181.5</ele>
        <time>2022-09-17T13:26:45.000Z</time>
      </trkpt>
      <trkpt lat="45.07772" lon="5.07756">
        <ele>181.6</ele>
        <time>2022-09-17T13:26:46.000Z</time>
      </trkpt>
      <trkpt lat="45.07768" lon="5.07749">
        <ele>181.7</ele>
        <time>2022-09-17T13:26:47.000Z</time>
      </trkpt>
      <trkpt lat="45.07765" lon="5.07743">
        <ele>181.9</ele>
        <time>2022-09-17T13:26:48.000Z</time>
      </trkpt>
      <trkpt lat="45.07761" lon="5.07737">
        <ele>182.2</ele>
        <time>2022-09-17T13:26:49.000Z</time>
      </trkpt>
      <trkpt lat="45.07758" lon="5.0773">
        <ele>182.5</ele>
        <time>2022-09-17T13:26:50.000Z</time>
      </trkpt>
      <trkpt lat="45.07755" lon="5.07724">
        <ele>182.9</ele>
        <time>2022-09-17T13:26:51.000Z</time>
      </trkpt>
      <trkpt lat="45.07752" lon="5.07717">
        <ele>182.8</ele>
        <time>2022-09-17T13:26:52.000Z</time>
      </trkpt>
      <trkpt lat="45.0775" lon="5.0771">
        <ele>182.6</ele>
        <time>2022-09-17T13:26:53.000Z</time>
      </trkpt>
      <trkpt lat="45.07748" lon="5.07703">
        <ele>182.2</ele>
        <time>2022-09-17T13:26:54.000Z</time>
      </trkpt>
      <trkpt lat="45.07746" lon="5.07695">
        <ele>181.9</ele>
        <time>2022-09-17T13:26:55.000Z</time>
      </trkpt>
      <trkpt lat="45.07744" lon="5.07688">
        <ele>181.8</ele>
        <time>2022-09-17T13:26:56.000Z</time>
      </trkpt>
      <trkpt lat="45.07741" lon="5.07681">
        <ele>181.7</ele>
        <time>2022-09-17T13:26:57.000Z</time>
      </trkpt>
      <trkpt lat="45.07739" lon="5.07673">
        <ele>181.6</ele>
        <time>2022-09-17T13:26:58.000Z</time>
      </trkpt>
      <trkpt lat="45.07737" lon="5.07666">
        <ele>181.5</ele>
        <time>2022-09-17T13:26:59.000Z</time>
      </trkpt>
      <trkpt lat="45.07735" lon="5.07658">
        <ele>181.5</ele>
        <time>2022-09-17T13:27:00.000Z</time>
      </trkpt>
      <trkpt lat="45.07733" lon="5.0765">
        <ele>181.4</ele>
        <time>2022-09-17T13:27:01.000Z</time>
      </trkpt>
      <trkpt lat="45.07731" lon="5.07642">
        <ele>181.3</ele>
        <time>2022-09-17T13:27:02.000Z</time>
      </trkpt>
      <trkpt lat="45.07729" lon="5.07635">
        <ele>181.2</ele>
        <time>2022-09-17T13:27:03.000Z</time>
      </trkpt>
      <trkpt lat="45.07727" lon="5.07627">
        <ele>181.2</ele>
        <time>2022-09-17T13:27:04.000Z</time>
      </trkpt>
      <trkpt lat="45.07724" lon="5.0762">
        <ele>181.1</ele>
        <time>2022-09-17T13:27:05.000Z</time>
      </trkpt>
      <trkpt lat="45.07722" lon="5.07613">
        <ele>181</ele>
        <time>2022-09-17T13:27:06.000Z</time>
      </trkpt>
      <trkpt lat="45.0772" lon="5.07605">
        <ele>180.9</ele>
        <time>2022-09-17T13:27:07.000Z</time>
      </trkpt>
      <trkpt lat="45.07719" lon="5.07598">
        <ele>180.7</ele>
        <time>2022-09-17T13:27:08.000Z</time>
      </trkpt>
      <trkpt lat="45.07717" lon="5.07591">
        <ele>180.6</ele>
        <time>2022-09-17T13:27:09.000Z</time>
      </trkpt>
      <trkpt lat="45.07715" lon="5.07584">
        <ele>180.5</ele>
        <time>2022-09-17T13:27:10.000Z</time>
      </trkpt>
      <trkpt lat="45.07713" lon="5.07577">
        <ele>180.4</ele>
        <time>2022-09-17T13:27:11.000Z</time>
      </trkpt>
      <trkpt lat="45.07711" lon="5.0757">
        <ele>180.4</ele>
        <time>2022-09-17T13:27:12.000Z</time>
      </trkpt>
      <trkpt lat="45.07709" lon="5.07563">
        <ele>180.4</ele>
        <time>2022-09-17T13:27:13.000Z</time>
      </trkpt>
      <trkpt lat="45.07707" lon="5.07556">
        <ele>180.5</ele>
        <time>2022-09-17T13:27:14.000Z</time>
      </trkpt>
      <trkpt lat="45.07705" lon="5.07549">
        <ele>180.6</ele>
        <time>2022-09-17T13:27:15.000Z</time>
      </trkpt>
      <trkpt lat="45.07703" lon="5.07542">
        <ele>180.8</ele>
        <time>2022-09-17T13:27:16.000Z</time>
      </trkpt>
      <trkpt lat="45.077" lon="5.07535">
        <ele>180.9</ele>
        <time>2022-09-17T13:27:17.000Z</time>
      </trkpt>
      <trkpt lat="45.07697" lon="5.07528">
        <ele>181.1</ele>
        <time>2022-09-17T13:27:18.000Z</time>
      </trkpt>
      <trkpt lat="45.07694" lon="5.07521">
        <ele>181</ele>
        <time>2022-09-17T13:27:19.000Z</time>
      </trkpt>
      <trkpt lat="45.07691" lon="5.07514">
        <ele>180.8</ele>
        <time>2022-09-17T13:27:20.000Z</time>
      </trkpt>
      <trkpt lat="45.07688" lon="5.07508">
        <ele>180.6</ele>
        <time>2022-09-17T13:27:21.000Z</time>
      </trkpt>
      <trkpt lat="45.07685" lon="5.07502">
        <ele>180.3</ele>
        <time>2022-09-17T13:27:22.000Z</time>
      </trkpt>
      <trkpt lat="45.07681" lon="5.07496">
        <ele>180.1</ele>
        <time>2022-09-17T13:27:23.000Z</time>
      </trkpt>
      <trkpt lat="45.07678" lon="5.0749">
        <ele>180</ele>
        <time>2022-09-17T13:27:24.000Z</time>
      </trkpt>
      <trkpt lat="45.07675" lon="5.07483">
        <ele>180</ele>
        <time>2022-09-17T13:27:25.000Z</time>
      </trkpt>
      <trkpt lat="45.07672" lon="5.07477">
        <ele>180</ele>
        <time>2022-09-17T13:27:26.000Z</time>
      </trkpt>
      <trkpt lat="45.07668" lon="5.07471">
        <ele>180</ele>
        <time>2022-09-17T13:27:27.000Z</time>
      </trkpt>
      <trkpt lat="45.07665" lon="5.07465">
        <ele>179.9</ele>
        <time>2022-09-17T13:27:28.000Z</time>
      </trkpt>
      <trkpt lat="45.07662" lon="5.07458">
        <ele>179.8</ele>
        <time>2022-09-17T13:27:29.000Z</time>
      </trkpt>
      <trkpt lat="45.07659" lon="5.07452">
        <ele>179.7</ele>
        <time>2022-09-17T13:27:30.000Z</time>
      </trkpt>
      <trkpt lat="45.07656" lon="5.07446">
        <ele>179.6</ele>
        <time>2022-09-17T13:27:31.000Z</time>
      </trkpt>
      <trkpt lat="45.07653" lon="5.0744">
        <ele>179.7</ele>
        <time>2022-09-17T13:27:32.000Z</time>
      </trkpt>
      <trkpt lat="45.0765" lon="5.07435">
        <ele>179.9</ele>
        <time>2022-09-17T13:27:33.000Z</time>
      </trkpt>
      <trkpt lat="45.07647" lon="5.0743">
        <ele>180.2</ele>
        <time>2022-09-17T13:27:34.000Z</time>
      </trkpt>
      <trkpt lat="45.07644" lon="5.07425">
        <ele>180.5</ele>
        <time>2022-09-17T13:27:35.000Z</time>
      </trkpt>
      <trkpt lat="45.07641" lon="5.0742">
        <ele>180.8</ele>
        <time>2022-09-17T13:27:36.000Z</time>
      </trkpt>
      <trkpt lat="45.07639" lon="5.07415">
        <ele>181</ele>
        <time>2022-09-17T13:27:37.000Z</time>
      </trkpt>
      <trkpt lat="45.07636" lon="5.0741">
        <ele>181.1</ele>
        <time>2022-09-17T13:27:38.000Z</time>
      </trkpt>
      <trkpt lat="45.07633" lon="5.07405">
        <ele>181.1</ele>
        <time>2022-09-17T13:27:39.000Z</time>
      </trkpt>
      <trkpt lat="45.07631" lon="5.074">
        <ele>181.1</ele>
        <time>2022-09-17T13:27:40.000Z</time>
      </trkpt>
      <trkpt lat="45.07629" lon="5.07396">
        <ele>181.1</ele>
        <time>2022-09-17T13:27:41.000Z</time>
      </trkpt>
      <trkpt lat="45.07627" lon="5.07391">
        <ele>181.1</ele>
        <time>2022-09-17T13:27:42.000Z</time>
      </trkpt>
      <trkpt lat="45.07624" lon="5.07386">
        <ele>181</ele>
        <time>2022-09-17T13:27:43.000Z</time>
      </trkpt>
      <trkpt lat="45.07622" lon="5.07381">
        <ele>180.9</ele>
        <time>2022-09-17T13:27:44.000Z</time>
      </trkpt>
      <trkpt lat="45.07619" lon="5.07375">
        <ele>180.9</ele>
        <time>2022-09-17T13:27:45.000Z</time>
      </trkpt>
      <trkpt lat="45.07616" lon="5.07369">
        <ele>181</ele>
        <time>2022-09-17T13:27:46.000Z</time>
      </trkpt>
      <trkpt lat="45.07613" lon="5.07362">
        <ele>181</ele>
        <time>2022-09-17T13:27:47.000Z</time>
      </trkpt>
      <trkpt lat="45.0761" lon="5.07356">
        <ele>180.7</ele>
        <time>2022-09-17T13:27:48.000Z</time>
      </trkpt>
      <trkpt lat="45.07607" lon="5.07349">
        <ele>180.2</ele>
        <time>2022-09-17T13:27:49.000Z</time>
      </trkpt>
      <trkpt lat="45.07604" lon="5.07343">
        <ele>179.7</ele>
        <time>2022-09-17T13:27:50.000Z</time>
      </trkpt>
      <trkpt lat="45.07601" lon="5.07336">
        <ele>179.3</ele>
        <time>2022-09-17T13:27:51.000Z</time>
      </trkpt>
      <trkpt lat="45.07598" lon="5.07329">
        <ele>179.1</ele>
        <time>2022-09-17T13:27:52.000Z</time>
      </trkpt>
      <trkpt lat="45.07595" lon="5.07323">
        <ele>179.1</ele>
        <time>2022-09-17T13:27:53.000Z</time>
      </trkpt>
      <trkpt lat="45.07592" lon="5.07316">
        <ele>179.1</ele>
        <time>2022-09-17T13:27:54.000Z</time>
      </trkpt>
      <trkpt lat="45.07589" lon="5.0731">
        <ele>179.1</ele>
        <time>2022-09-17T13:27:55.000Z</time>
      </trkpt>
      <trkpt lat="45.07586" lon="5.07304">
        <ele>179.2</ele>
        <time>2022-09-17T13:27:56.000Z</time>
      </trkpt>
      <trkpt lat="45.07583" lon="5.07298">
        <ele>179.3</ele>
        <time>2022-09-17T13:27:57.000Z</time>
      </trkpt>
      <trkpt lat="45.0758" lon="5.07292">
        <ele>179.3</ele>
        <time>2022-09-17T13:27:58.000Z</time>
      </trkpt>
      <trkpt lat="45.07578" lon="5.07286">
        <ele>179.3</ele>
        <time>2022-09-17T13:27:59.000Z</time>
      </trkpt>
      <trkpt lat="45.07576" lon="5.07281">
        <ele>179.4</ele>
        <time>2022-09-17T13:28:00.000Z</time>
      </trkpt>
      <trkpt lat="45.07573" lon="5.07275">
        <ele>179.3</ele>
        <time>2022-09-17T13:28:01.000Z</time>
      </trkpt>
      <trkpt lat="45.07571" lon="5.0727">
        <ele>179.4</ele>
        <time>2022-09-17T13:28:02.000Z</time>
      </trkpt>
      <trkpt lat="45.07568" lon="5.07264">
        <ele>179.5</ele>
        <time>2022-09-17T13:28:03.000Z</time>
      </trkpt>
      <trkpt lat="45.07566" lon="5.07258">
        <ele>179.6</ele>
        <time>2022-09-17T13:28:04.000Z</time>
      </trkpt>
      <trkpt lat="45.07564" lon="5.07252">
        <ele>179.9</ele>
        <time>2022-09-17T13:28:05.000Z</time>
      </trkpt>
      <trkpt lat="45.07562" lon="5.07246">
        <ele>180.2</ele>
        <time>2022-09-17T13:28:06.000Z</time>
      </trkpt>
      <trkpt lat="45.0756" lon="5.0724">
        <ele>180.4</ele>
        <time>2022-09-17T13:28:07.000Z</time>
      </trkpt>
      <trkpt lat="45.07557" lon="5.07235">
        <ele>180.6</ele>
        <time>2022-09-17T13:28:08.000Z</time>
      </trkpt>
      <trkpt lat="45.07555" lon="5.07229">
        <ele>180.7</ele>
        <time>2022-09-17T13:28:09.000Z</time>
      </trkpt>
      <trkpt lat="45.07553" lon="5.07223">
        <ele>180.7</ele>
        <time>2022-09-17T13:28:10.000Z</time>
      </trkpt>
      <trkpt lat="45.07552" lon="5.07217">
        <ele>180.6</ele>
        <time>2022-09-17T13:28:11.000Z</time>
      </trkpt>
      <trkpt lat="45.0755" lon="5.07211">
        <ele>180.4</ele>
        <time>2022-09-17T13:28:12.000Z</time>
      </trkpt>
      <trkpt lat="45.07548" lon="5.07205">
        <ele>180.2</ele>
        <time>2022-09-17T13:28:13.000Z</time>
      </trkpt>
      <trkpt lat="45.07547" lon="5.07199">
        <ele>180</ele>
        <time>2022-09-17T13:28:14.000Z</time>
      </trkpt>
      <trkpt lat="45.07545" lon="5.07193">
        <ele>179.9</ele>
        <time>2022-09-17T13:28:15.000Z</time>
      </trkpt>
      <trkpt lat="45.07544" lon="5.07187">
        <ele>179.8</ele>
        <time>2022-09-17T13:28:16.000Z</time>
      </trkpt>
      <trkpt lat="45.07543" lon="5.07181">
        <ele>179.6</ele>
        <time>2022-09-17T13:28:17.000Z</time>
      </trkpt>
      <trkpt lat="45.07541" lon="5.07176">
        <ele>179.4</ele>
        <time>2022-09-17T13:28:18.000Z</time>
      </trkpt>
      <trkpt lat="45.0754" lon="5.0717">
        <ele>179.3</ele>
        <time>2022-09-17T13:28:19.000Z</time>
      </trkpt>
      <trkpt lat="45.07538" lon="5.07164">
        <ele>179.2</ele>
        <time>2022-09-17T13:28:20.000Z</time>
      </trkpt>
      <trkpt lat="45.07537" lon="5.07158">
        <ele>179.4</ele>
        <time>2022-09-17T13:28:21.000Z</time>
      </trkpt>
      <trkpt lat="45.07535" lon="5.07152">
        <ele>179.6</ele>
        <time>2022-09-17T13:28:22.000Z</time>
      </trkpt>
      <trkpt lat="45.07534" lon="5.07146">
        <ele>179.8</ele>
        <time>2022-09-17T13:28:23.000Z</time>
      </trkpt>
      <trkpt lat="45.07532" lon="5.0714">
        <ele>180.1</ele>
        <time>2022-09-17T13:28:24.000Z</time>
      </trkpt>
      <trkpt lat="45.0753" lon="5.07134">
        <ele>180.1</ele>
        <time>2022-09-17T13:28:25.000Z</time>
      </trkpt>
      <trkpt lat="45.07529" lon="5.07127">
        <ele>180</ele>
        <time>2022-09-17T13:28:26.000Z</time>
      </trkpt>
      <trkpt lat="45.07527" lon="5.07121">
        <ele>179.9</ele>
        <time>2022-09-17T13:28:27.000Z</time>
      </trkpt>
      <trkpt lat="45.07525" lon="5.07114">
        <ele>179.8</ele>
        <time>2022-09-17T13:28:28.000Z</time>
      </trkpt>
      <trkpt lat="45.07524" lon="5.07108">
        <ele>179.8</ele>
        <time>2022-09-17T13:28:29.000Z</time>
      </trkpt>
      <trkpt lat="45.07522" lon="5.07101">
        <ele>179.9</ele>
        <time>2022-09-17T13:28:30.000Z</time>
      </trkpt>
      <trkpt lat="45.0752" lon="5.07095">
        <ele>179.9</ele>
        <time>2022-09-17T13:28:31.000Z</time>
      </trkpt>
      <trkpt lat="45.07519" lon="5.07088">
        <ele>179.9</ele>
        <time>2022-09-17T13:28:32.000Z</time>
      </trkpt>
      <trkpt lat="45.07517" lon="5.07082">
        <ele>179.9</ele>
        <time>2022-09-17T13:28:33.000Z</time>
      </trkpt>
      <trkpt lat="45.07515" lon="5.07076">
        <ele>179.9</ele>
        <time>2022-09-17T13:28:34.000Z</time>
      </trkpt>
      <trkpt lat="45.07514" lon="5.0707">
        <ele>179.9</ele>
        <time>2022-09-17T13:28:35.000Z</time>
      </trkpt>
      <trkpt lat="45.07512" lon="5.07064">
        <ele>179.9</ele>
        <time>2022-09-17T13:28:36.000Z</time>
      </trkpt>
      <trkpt lat="45.0751" lon="5.07058">
        <ele>180</ele>
        <time>2022-09-17T13:28:37.000Z</time>
      </trkpt>
      <trkpt lat="45.07509" lon="5.07052">
        <ele>180.1</ele>
        <time>2022-09-17T13:28:38.000Z</time>
      </trkpt>
      <trkpt lat="45.07507" lon="5.07046">
        <ele>180.3</ele>
        <time>2022-09-17T13:28:39.000Z</time>
      </trkpt>
      <trkpt lat="45.07506" lon="5.0704">
        <ele>180.5</ele>
        <time>2022-09-17T13:28:40.000Z</time>
      </trkpt>
      <trkpt lat="45.07504" lon="5.07034">
        <ele>180.8</ele>
        <time>2022-09-17T13:28:41.000Z</time>
      </trkpt>
      <trkpt lat="45.07502" lon="5.07028">
        <ele>181.1</ele>
        <time>2022-09-17T13:28:42.000Z</time>
      </trkpt>
      <trkpt lat="45.075" lon="5.07022">
        <ele>181</ele>
        <time>2022-09-17T13:28:43.000Z</time>
      </trkpt>
      <trkpt lat="45.07498" lon="5.07016">
        <ele>180.9</ele>
        <time>2022-09-17T13:28:44.000Z</time>
      </trkpt>
      <trkpt lat="45.07497" lon="5.0701">
        <ele>180.8</ele>
        <time>2022-09-17T13:28:45.000Z</time>
      </trkpt>
      <trkpt lat="45.07495" lon="5.07004">
        <ele>180.8</ele>
        <time>2022-09-17T13:28:46.000Z</time>
      </trkpt>
      <trkpt lat="45.07493" lon="5.06998">
        <ele>180.8</ele>
        <time>2022-09-17T13:28:47.000Z</time>
      </trkpt>
      <trkpt lat="45.07492" lon="5.06992">
        <ele>180.9</ele>
        <time>2022-09-17T13:28:48.000Z</time>
      </trkpt>
      <trkpt lat="45.0749" lon="5.06986">
        <ele>180.9</ele>
        <time>2022-09-17T13:28:49.000Z</time>
      </trkpt>
      <trkpt lat="45.07488" lon="5.0698">
        <ele>181</ele>
        <time>2022-09-17T13:28:50.000Z</time>
      </trkpt>
      <trkpt lat="45.07486" lon="5.06974">
        <ele>181</ele>
        <time>2022-09-17T13:28:51.000Z</time>
      </trkpt>
      <trkpt lat="45.07484" lon="5.06967">
        <ele>181</ele>
        <time>2022-09-17T13:28:52.000Z</time>
      </trkpt>
      <trkpt lat="45.07483" lon="5.0696">
        <ele>181</ele>
        <time>2022-09-17T13:28:53.000Z</time>
      </trkpt>
      <trkpt lat="45.07481" lon="5.06953">
        <ele>181.1</ele>
        <time>2022-09-17T13:28:54.000Z</time>
      </trkpt>
      <trkpt lat="45.0748" lon="5.06946">
        <ele>181.2</ele>
        <time>2022-09-17T13:28:55.000Z</time>
      </trkpt>
      <trkpt lat="45.07478" lon="5.0694">
        <ele>181.4</ele>
        <time>2022-09-17T13:28:56.000Z</time>
      </trkpt>
      <trkpt lat="45.07476" lon="5.06934">
        <ele>181.5</ele>
        <time>2022-09-17T13:28:57.000Z</time>
      </trkpt>
      <trkpt lat="45.07475" lon="5.06928">
        <ele>181.7</ele>
        <time>2022-09-17T13:28:58.000Z</time>
      </trkpt>
      <trkpt lat="45.07474" lon="5.06922">
        <ele>181.9</ele>
        <time>2022-09-17T13:28:59.000Z</time>
      </trkpt>
      <trkpt lat="45.07473" lon="5.06915">
        <ele>182.1</ele>
        <time>2022-09-17T13:29:00.000Z</time>
      </trkpt>
      <trkpt lat="45.07472" lon="5.06909">
        <ele>182.3</ele>
        <time>2022-09-17T13:29:01.000Z</time>
      </trkpt>
      <trkpt lat="45.0747" lon="5.06903">
        <ele>182.5</ele>
        <time>2022-09-17T13:29:02.000Z</time>
      </trkpt>
      <trkpt lat="45.07469" lon="5.06897">
        <ele>182.6</ele>
        <time>2022-09-17T13:29:03.000Z</time>
      </trkpt>
      <trkpt lat="45.07468" lon="5.06891">
        <ele>182.8</ele>
        <time>2022-09-17T13:29:04.000Z</time>
      </trkpt>
      <trkpt lat="45.07467" lon="5.06885">
        <ele>182.8</ele>
        <time>2022-09-17T13:29:05.000Z</time>
      </trkpt>
      <trkpt lat="45.07466" lon="5.06878">
        <ele>182.8</ele>
        <time>2022-09-17T13:29:06.000Z</time>
      </trkpt>
      <trkpt lat="45.07465" lon="5.06872">
        <ele>182.7</ele>
        <time>2022-09-17T13:29:07.000Z</time>
      </trkpt>
      <trkpt lat="45.07464" lon="5.06866">
        <ele>182.7</ele>
        <time>2022-09-17T13:29:08.000Z</time>
      </trkpt>
      <trkpt lat="45.07462" lon="5.0686">
        <ele>182.6</ele>
        <time>2022-09-17T13:29:09.000Z</time>
      </trkpt>
      <trkpt lat="45.07461" lon="5.06854">
        <ele>182.6</ele>
        <time>2022-09-17T13:29:10.000Z</time>
      </trkpt>
      <trkpt lat="45.07459" lon="5.06847">
        <ele>182.5</ele>
        <time>2022-09-17T13:29:11.000Z</time>
      </trkpt>
      <trkpt lat="45.07458" lon="5.0684">
        <ele>182.5</ele>
        <time>2022-09-17T13:29:12.000Z</time>
      </trkpt>
      <trkpt lat="45.07457" lon="5.06833">
        <ele>182.5</ele>
        <time>2022-09-17T13:29:13.000Z</time>
      </trkpt>
      <trkpt lat="45.07456" lon="5.06827">
        <ele>182.5</ele>
        <time>2022-09-17T13:29:14.000Z</time>
      </trkpt>
      <trkpt lat="45.07454" lon="5.06821">
        <ele>182.6</ele>
        <time>2022-09-17T13:29:15.000Z</time>
      </trkpt>
      <trkpt lat="45.07453" lon="5.06814">
        <ele>182.8</ele>
        <time>2022-09-17T13:29:16.000Z</time>
      </trkpt>
      <trkpt lat="45.07452" lon="5.06808">
        <ele>182.9</ele>
        <time>2022-09-17T13:29:17.000Z</time>
      </trkpt>
      <trkpt lat="45.07451" lon="5.06801">
        <ele>183</ele>
        <time>2022-09-17T13:29:18.000Z</time>
      </trkpt>
      <trkpt lat="45.0745" lon="5.06796">
        <ele>183.1</ele>
        <time>2022-09-17T13:29:19.000Z</time>
      </trkpt>
      <trkpt lat="45.07449" lon="5.06791">
        <ele>183.1</ele>
        <time>2022-09-17T13:29:20.000Z</time>
      </trkpt>
      <trkpt lat="45.07448" lon="5.06786">
        <ele>183.1</ele>
        <time>2022-09-17T13:29:21.000Z</time>
      </trkpt>
      <trkpt lat="45.07447" lon="5.0678">
        <ele>183.1</ele>
        <time>2022-09-17T13:29:22.000Z</time>
      </trkpt>
      <trkpt lat="45.07447" lon="5.06775">
        <ele>183.1</ele>
        <time>2022-09-17T13:29:23.000Z</time>
      </trkpt>
      <trkpt lat="45.07446" lon="5.06769">
        <ele>183</ele>
        <time>2022-09-17T13:29:24.000Z</time>
      </trkpt>
      <trkpt lat="45.07445" lon="5.06764">
        <ele>183</ele>
        <time>2022-09-17T13:29:25.000Z</time>
      </trkpt>
      <trkpt lat="45.07444" lon="5.0676">
        <ele>183</ele>
        <time>2022-09-17T13:29:26.000Z</time>
      </trkpt>
      <trkpt lat="45.07442" lon="5.06757">
        <ele>183</ele>
        <time>2022-09-17T13:29:27.000Z</time>
      </trkpt>
      <trkpt lat="45.07441" lon="5.06753">
        <ele>183</ele>
        <time>2022-09-17T13:29:28.000Z</time>
      </trkpt>
      <trkpt lat="45.0744" lon="5.06748">
        <ele>182.9</ele>
        <time>2022-09-17T13:29:29.000Z</time>
      </trkpt>
      <trkpt lat="45.07439" lon="5.06744">
        <ele>182.8</ele>
        <time>2022-09-17T13:29:30.000Z</time>
      </trkpt>
      <trkpt lat="45.07439" lon="5.06741">
        <ele>182.7</ele>
        <time>2022-09-17T13:29:31.000Z</time>
      </trkpt>
      <trkpt lat="45.07438" lon="5.06735">
        <ele>182.5</ele>
        <time>2022-09-17T13:29:32.000Z</time>
      </trkpt>
      <trkpt lat="45.07436" lon="5.06728">
        <ele>182.2</ele>
        <time>2022-09-17T13:29:33.000Z</time>
      </trkpt>
      <trkpt lat="45.07434" lon="5.06721">
        <ele>181.9</ele>
        <time>2022-09-17T13:29:34.000Z</time>
      </trkpt>
      <trkpt lat="45.07433" lon="5.06714">
        <ele>181.7</ele>
        <time>2022-09-17T13:29:35.000Z</time>
      </trkpt>
      <trkpt lat="45.07431" lon="5.06707">
        <ele>181.5</ele>
        <time>2022-09-17T13:29:36.000Z</time>
      </trkpt>
      <trkpt lat="45.07429" lon="5.067">
        <ele>181.2</ele>
        <time>2022-09-17T13:29:37.000Z</time>
      </trkpt>
      <trkpt lat="45.07427" lon="5.06692">
        <ele>180.9</ele>
        <time>2022-09-17T13:29:38.000Z</time>
      </trkpt>
      <trkpt lat="45.07425" lon="5.06685">
        <ele>180.7</ele>
        <time>2022-09-17T13:29:39.000Z</time>
      </trkpt>
      <trkpt lat="45.07422" lon="5.06677">
        <ele>180.4</ele>
        <time>2022-09-17T13:29:40.000Z</time>
      </trkpt>
      <trkpt lat="45.07421" lon="5.06669">
        <ele>180.1</ele>
        <time>2022-09-17T13:29:41.000Z</time>
      </trkpt>
      <trkpt lat="45.07419" lon="5.06661">
        <ele>180</ele>
        <time>2022-09-17T13:29:42.000Z</time>
      </trkpt>
      <trkpt lat="45.07417" lon="5.06652">
        <ele>180</ele>
        <time>2022-09-17T13:29:43.000Z</time>
      </trkpt>
      <trkpt lat="45.07416" lon="5.06644">
        <ele>179.9</ele>
        <time>2022-09-17T13:29:44.000Z</time>
      </trkpt>
      <trkpt lat="45.07414" lon="5.06636">
        <ele>179.8</ele>
        <time>2022-09-17T13:29:45.000Z</time>
      </trkpt>
      <trkpt lat="45.07413" lon="5.06628">
        <ele>179.7</ele>
        <time>2022-09-17T13:29:46.000Z</time>
      </trkpt>
      <trkpt lat="45.07411" lon="5.0662">
        <ele>179.6</ele>
        <time>2022-09-17T13:29:47.000Z</time>
      </trkpt>
      <trkpt lat="45.0741" lon="5.06613">
        <ele>179.5</ele>
        <time>2022-09-17T13:29:48.000Z</time>
      </trkpt>
      <trkpt lat="45.07408" lon="5.06606">
        <ele>179.3</ele>
        <time>2022-09-17T13:29:49.000Z</time>
      </trkpt>
      <trkpt lat="45.07407" lon="5.06599">
        <ele>179</ele>
        <time>2022-09-17T13:29:50.000Z</time>
      </trkpt>
      <trkpt lat="45.07405" lon="5.06592">
        <ele>178.8</ele>
        <time>2022-09-17T13:29:51.000Z</time>
      </trkpt>
      <trkpt lat="45.07404" lon="5.06585">
        <ele>178.6</ele>
        <time>2022-09-17T13:29:52.000Z</time>
      </trkpt>
      <trkpt lat="45.07403" lon="5.06578">
        <ele>178.6</ele>
        <time>2022-09-17T13:29:53.000Z</time>
      </trkpt>
      <trkpt lat="45.07401" lon="5.06571">
        <ele>178.7</ele>
        <time>2022-09-17T13:29:54.000Z</time>
      </trkpt>
      <trkpt lat="45.074" lon="5.06564">
        <ele>178.8</ele>
        <time>2022-09-17T13:29:55.000Z</time>
      </trkpt>
      <trkpt lat="45.07398" lon="5.06557">
        <ele>179</ele>
        <time>2022-09-17T13:29:56.000Z</time>
      </trkpt>
      <trkpt lat="45.07397" lon="5.06551">
        <ele>178.9</ele>
        <time>2022-09-17T13:29:57.000Z</time>
      </trkpt>
      <trkpt lat="45.07395" lon="5.06544">
        <ele>178.9</ele>
        <time>2022-09-17T13:29:58.000Z</time>
      </trkpt>
      <trkpt lat="45.07394" lon="5.06538">
        <ele>178.9</ele>
        <time>2022-09-17T13:29:59.000Z</time>
      </trkpt>
      <trkpt lat="45.07392" lon="5.06532">
        <ele>178.9</ele>
        <time>2022-09-17T13:30:00.000Z</time>
      </trkpt>
      <trkpt lat="45.07391" lon="5.06525">
        <ele>178.9</ele>
        <time>2022-09-17T13:30:01.000Z</time>
      </trkpt>
      <trkpt lat="45.0739" lon="5.06519">
        <ele>179</ele>
        <time>2022-09-17T13:30:02.000Z</time>
      </trkpt>
      <trkpt lat="45.07389" lon="5.06514">
        <ele>179</ele>
        <time>2022-09-17T13:30:03.000Z</time>
      </trkpt>
      <trkpt lat="45.07388" lon="5.06508">
        <ele>178.9</ele>
        <time>2022-09-17T13:30:04.000Z</time>
      </trkpt>
      <trkpt lat="45.07387" lon="5.06502">
        <ele>178.8</ele>
        <time>2022-09-17T13:30:05.000Z</time>
      </trkpt>
      <trkpt lat="45.07386" lon="5.06496">
        <ele>178.8</ele>
        <time>2022-09-17T13:30:06.000Z</time>
      </trkpt>
      <trkpt lat="45.07384" lon="5.0649">
        <ele>178.7</ele>
        <time>2022-09-17T13:30:07.000Z</time>
      </trkpt>
      <trkpt lat="45.07383" lon="5.06485">
        <ele>178.7</ele>
        <time>2022-09-17T13:30:08.000Z</time>
      </trkpt>
      <trkpt lat="45.07382" lon="5.06479">
        <ele>178.7</ele>
        <time>2022-09-17T13:30:09.000Z</time>
      </trkpt>
      <trkpt lat="45.07381" lon="5.06474">
        <ele>178.7</ele>
        <time>2022-09-17T13:30:10.000Z</time>
      </trkpt>
      <trkpt lat="45.07379" lon="5.0647">
        <ele>178.7</ele>
        <time>2022-09-17T13:30:11.000Z</time>
      </trkpt>
      <trkpt lat="45.07379" lon="5.06465">
        <ele>178.8</ele>
        <time>2022-09-17T13:30:12.000Z</time>
      </trkpt>
      <trkpt lat="45.07378" lon="5.0646">
        <ele>178.9</ele>
        <time>2022-09-17T13:30:13.000Z</time>
      </trkpt>
      <trkpt lat="45.07377" lon="5.06455">
        <ele>178.9</ele>
        <time>2022-09-17T13:30:14.000Z</time>
      </trkpt>
      <trkpt lat="45.07375" lon="5.06449">
        <ele>178.9</ele>
        <time>2022-09-17T13:30:15.000Z</time>
      </trkpt>
      <trkpt lat="45.07373" lon="5.06443">
        <ele>178.9</ele>
        <time>2022-09-17T13:30:16.000Z</time>
      </trkpt>
      <trkpt lat="45.07371" lon="5.06436">
        <ele>179.1</ele>
        <time>2022-09-17T13:30:17.000Z</time>
      </trkpt>
      <trkpt lat="45.07369" lon="5.06429">
        <ele>179.4</ele>
        <time>2022-09-17T13:30:18.000Z</time>
      </trkpt>
      <trkpt lat="45.07367" lon="5.06422">
        <ele>179.7</ele>
        <time>2022-09-17T13:30:19.000Z</time>
      </trkpt>
      <trkpt lat="45.07365" lon="5.06416">
        <ele>180</ele>
        <time>2022-09-17T13:30:20.000Z</time>
      </trkpt>
      <trkpt lat="45.07363" lon="5.0641">
        <ele>180</ele>
        <time>2022-09-17T13:30:21.000Z</time>
      </trkpt>
      <trkpt lat="45.07361" lon="5.06403">
        <ele>180</ele>
        <time>2022-09-17T13:30:22.000Z</time>
      </trkpt>
      <trkpt lat="45.0736" lon="5.06396">
        <ele>179.8</ele>
        <time>2022-09-17T13:30:23.000Z</time>
      </trkpt>
      <trkpt lat="45.07358" lon="5.0639">
        <ele>179.7</ele>
        <time>2022-09-17T13:30:24.000Z</time>
      </trkpt>
      <trkpt lat="45.07356" lon="5.06383">
        <ele>179.3</ele>
        <time>2022-09-17T13:30:25.000Z</time>
      </trkpt>
      <trkpt lat="45.07354" lon="5.06377">
        <ele>179</ele>
        <time>2022-09-17T13:30:26.000Z</time>
      </trkpt>
      <trkpt lat="45.07352" lon="5.06371">
        <ele>178.8</ele>
        <time>2022-09-17T13:30:27.000Z</time>
      </trkpt>
      <trkpt lat="45.0735" lon="5.06364">
        <ele>178.6</ele>
        <time>2022-09-17T13:30:28.000Z</time>
      </trkpt>
      <trkpt lat="45.07349" lon="5.06358">
        <ele>178.8</ele>
        <time>2022-09-17T13:30:29.000Z</time>
      </trkpt>
      <trkpt lat="45.07348" lon="5.06351">
        <ele>179.4</ele>
        <time>2022-09-17T13:30:30.000Z</time>
      </trkpt>
      <trkpt lat="45.07346" lon="5.06345">
        <ele>180</ele>
        <time>2022-09-17T13:30:31.000Z</time>
      </trkpt>
      <trkpt lat="45.07345" lon="5.06339">
        <ele>180.6</ele>
        <time>2022-09-17T13:30:32.000Z</time>
      </trkpt>
      <trkpt lat="45.07344" lon="5.06334">
        <ele>181.2</ele>
        <time>2022-09-17T13:30:33.000Z</time>
      </trkpt>
      <trkpt lat="45.07343" lon="5.06328">
        <ele>181.3</ele>
        <time>2022-09-17T13:30:34.000Z</time>
      </trkpt>
      <trkpt lat="45.07341" lon="5.06323">
        <ele>181.3</ele>
        <time>2022-09-17T13:30:35.000Z</time>
      </trkpt>
      <trkpt lat="45.0734" lon="5.06317">
        <ele>181.2</ele>
        <time>2022-09-17T13:30:36.000Z</time>
      </trkpt>
      <trkpt lat="45.07338" lon="5.06312">
        <ele>181.1</ele>
        <time>2022-09-17T13:30:37.000Z</time>
      </trkpt>
      <trkpt lat="45.07337" lon="5.06305">
        <ele>181</ele>
        <time>2022-09-17T13:30:38.000Z</time>
      </trkpt>
      <trkpt lat="45.07335" lon="5.06299">
        <ele>181</ele>
        <time>2022-09-17T13:30:39.000Z</time>
      </trkpt>
      <trkpt lat="45.07334" lon="5.06292">
        <ele>181</ele>
        <time>2022-09-17T13:30:40.000Z</time>
      </trkpt>
      <trkpt lat="45.07332" lon="5.06286">
        <ele>180.9</ele>
        <time>2022-09-17T13:30:41.000Z</time>
      </trkpt>
      <trkpt lat="45.07331" lon="5.06279">
        <ele>180.8</ele>
        <time>2022-09-17T13:30:42.000Z</time>
      </trkpt>
      <trkpt lat="45.07329" lon="5.06273">
        <ele>180.4</ele>
        <time>2022-09-17T13:30:43.000Z</time>
      </trkpt>
      <trkpt lat="45.07327" lon="5.06267">
        <ele>180</ele>
        <time>2022-09-17T13:30:44.000Z</time>
      </trkpt>
      <trkpt lat="45.07325" lon="5.06262">
        <ele>179.8</ele>
        <time>2022-09-17T13:30:45.000Z</time>
      </trkpt>
      <trkpt lat="45.07324" lon="5.06256">
        <ele>179.5</ele>
        <time>2022-09-17T13:30:46.000Z</time>
      </trkpt>
      <trkpt lat="45.07322" lon="5.0625">
        <ele>179.4</ele>
        <time>2022-09-17T13:30:47.000Z</time>
      </trkpt>
      <trkpt lat="45.0732" lon="5.06245">
        <ele>179.5</ele>
        <time>2022-09-17T13:30:48.000Z</time>
      </trkpt>
      <trkpt lat="45.07319" lon="5.06239">
        <ele>179.5</ele>
        <time>2022-09-17T13:30:49.000Z</time>
      </trkpt>
      <trkpt lat="45.07317" lon="5.06233">
        <ele>179.6</ele>
        <time>2022-09-17T13:30:50.000Z</time>
      </trkpt>
      <trkpt lat="45.07315" lon="5.06228">
        <ele>179.7</ele>
        <time>2022-09-17T13:30:51.000Z</time>
      </trkpt>
      <trkpt lat="45.07314" lon="5.06222">
        <ele>179.7</ele>
        <time>2022-09-17T13:30:52.000Z</time>
      </trkpt>
      <trkpt lat="45.07312" lon="5.06216">
        <ele>179.8</ele>
        <time>2022-09-17T13:30:53.000Z</time>
      </trkpt>
      <trkpt lat="45.07311" lon="5.0621">
        <ele>179.9</ele>
        <time>2022-09-17T13:30:54.000Z</time>
      </trkpt>
      <trkpt lat="45.07309" lon="5.06205">
        <ele>180</ele>
        <time>2022-09-17T13:30:55.000Z</time>
      </trkpt>
      <trkpt lat="45.07307" lon="5.062">
        <ele>180</ele>
        <time>2022-09-17T13:30:56.000Z</time>
      </trkpt>
      <trkpt lat="45.07306" lon="5.06194">
        <ele>180</ele>
        <time>2022-09-17T13:30:57.000Z</time>
      </trkpt>
      <trkpt lat="45.07304" lon="5.06188">
        <ele>180</ele>
        <time>2022-09-17T13:30:58.000Z</time>
      </trkpt>
      <trkpt lat="45.07303" lon="5.06182">
        <ele>179.9</ele>
        <time>2022-09-17T13:30:59.000Z</time>
      </trkpt>
      <trkpt lat="45.07301" lon="5.06176">
        <ele>179.8</ele>
        <time>2022-09-17T13:31:00.000Z</time>
      </trkpt>
      <trkpt lat="45.073" lon="5.0617">
        <ele>179.8</ele>
        <time>2022-09-17T13:31:01.000Z</time>
      </trkpt>
      <trkpt lat="45.07298" lon="5.06164">
        <ele>179.7</ele>
        <time>2022-09-17T13:31:02.000Z</time>
      </trkpt>
      <trkpt lat="45.07296" lon="5.06158">
        <ele>179.6</ele>
        <time>2022-09-17T13:31:03.000Z</time>
      </trkpt>
      <trkpt lat="45.07294" lon="5.06153">
        <ele>179.6</ele>
        <time>2022-09-17T13:31:04.000Z</time>
      </trkpt>
      <trkpt lat="45.07292" lon="5.06147">
        <ele>179.5</ele>
        <time>2022-09-17T13:31:05.000Z</time>
      </trkpt>
      <trkpt lat="45.07291" lon="5.06141">
        <ele>179.5</ele>
        <time>2022-09-17T13:31:06.000Z</time>
      </trkpt>
      <trkpt lat="45.07289" lon="5.06135">
        <ele>179.5</ele>
        <time>2022-09-17T13:31:07.000Z</time>
      </trkpt>
      <trkpt lat="45.07287" lon="5.06129">
        <ele>179.6</ele>
        <time>2022-09-17T13:31:08.000Z</time>
      </trkpt>
      <trkpt lat="45.07286" lon="5.06123">
        <ele>179.7</ele>
        <time>2022-09-17T13:31:09.000Z</time>
      </trkpt>
      <trkpt lat="45.07284" lon="5.06118">
        <ele>179.8</ele>
        <time>2022-09-17T13:31:10.000Z</time>
      </trkpt>
      <trkpt lat="45.07282" lon="5.06112">
        <ele>180</ele>
        <time>2022-09-17T13:31:11.000Z</time>
      </trkpt>
      <trkpt lat="45.0728" lon="5.06106">
        <ele>180.2</ele>
        <time>2022-09-17T13:31:12.000Z</time>
      </trkpt>
      <trkpt lat="45.07278" lon="5.061">
        <ele>180.4</ele>
        <time>2022-09-17T13:31:13.000Z</time>
      </trkpt>
      <trkpt lat="45.07277" lon="5.06095">
        <ele>180.5</ele>
        <time>2022-09-17T13:31:14.000Z</time>
      </trkpt>
      <trkpt lat="45.07275" lon="5.06089">
        <ele>180.6</ele>
        <time>2022-09-17T13:31:15.000Z</time>
      </trkpt>
      <trkpt lat="45.07274" lon="5.06083">
        <ele>180.7</ele>
        <time>2022-09-17T13:31:16.000Z</time>
      </trkpt>
      <trkpt lat="45.07272" lon="5.06077">
        <ele>180.6</ele>
        <time>2022-09-17T13:31:17.000Z</time>
      </trkpt>
      <trkpt lat="45.0727" lon="5.06071">
        <ele>180.6</ele>
        <time>2022-09-17T13:31:18.000Z</time>
      </trkpt>
      <trkpt lat="45.07268" lon="5.06066">
        <ele>180.5</ele>
        <time>2022-09-17T13:31:19.000Z</time>
      </trkpt>
      <trkpt lat="45.07266" lon="5.0606">
        <ele>180.5</ele>
        <time>2022-09-17T13:31:20.000Z</time>
      </trkpt>
      <trkpt lat="45.07265" lon="5.06055">
        <ele>180.5</ele>
        <time>2022-09-17T13:31:21.000Z</time>
      </trkpt>
      <trkpt lat="45.07263" lon="5.06049">
        <ele>180.4</ele>
        <time>2022-09-17T13:31:22.000Z</time>
      </trkpt>
      <trkpt lat="45.07262" lon="5.06044">
        <ele>180.3</ele>
        <time>2022-09-17T13:31:23.000Z</time>
      </trkpt>
      <trkpt lat="45.0726" lon="5.06038">
        <ele>180.3</ele>
        <time>2022-09-17T13:31:24.000Z</time>
      </trkpt>
      <trkpt lat="45.07258" lon="5.06033">
        <ele>180.4</ele>
        <time>2022-09-17T13:31:25.000Z</time>
      </trkpt>
      <trkpt lat="45.07257" lon="5.06027">
        <ele>180.6</ele>
        <time>2022-09-17T13:31:26.000Z</time>
      </trkpt>
      <trkpt lat="45.07255" lon="5.06021">
        <ele>180.9</ele>
        <time>2022-09-17T13:31:27.000Z</time>
      </trkpt>
      <trkpt lat="45.07254" lon="5.06016">
        <ele>181.2</ele>
        <time>2022-09-17T13:31:28.000Z</time>
      </trkpt>
      <trkpt lat="45.07252" lon="5.0601">
        <ele>181.5</ele>
        <time>2022-09-17T13:31:29.000Z</time>
      </trkpt>
      <trkpt lat="45.07251" lon="5.06005">
        <ele>181.8</ele>
        <time>2022-09-17T13:31:30.000Z</time>
      </trkpt>
      <trkpt lat="45.07249" lon="5.06">
        <ele>182</ele>
        <time>2022-09-17T13:31:31.000Z</time>
      </trkpt>
      <trkpt lat="45.07248" lon="5.05994">
        <ele>182</ele>
        <time>2022-09-17T13:31:32.000Z</time>
      </trkpt>
      <trkpt lat="45.07246" lon="5.05989">
        <ele>182.1</ele>
        <time>2022-09-17T13:31:33.000Z</time>
      </trkpt>
      <trkpt lat="45.07245" lon="5.05984">
        <ele>182.2</ele>
        <time>2022-09-17T13:31:34.000Z</time>
      </trkpt>
      <trkpt lat="45.07243" lon="5.05978">
        <ele>182.3</ele>
        <time>2022-09-17T13:31:35.000Z</time>
      </trkpt>
      <trkpt lat="45.07241" lon="5.05972">
        <ele>182.4</ele>
        <time>2022-09-17T13:31:36.000Z</time>
      </trkpt>
      <trkpt lat="45.0724" lon="5.05966">
        <ele>182.3</ele>
        <time>2022-09-17T13:31:37.000Z</time>
      </trkpt>
      <trkpt lat="45.07238" lon="5.0596">
        <ele>182.3</ele>
        <time>2022-09-17T13:31:38.000Z</time>
      </trkpt>
      <trkpt lat="45.07236" lon="5.05953">
        <ele>182.3</ele>
        <time>2022-09-17T13:31:39.000Z</time>
      </trkpt>
      <trkpt lat="45.07235" lon="5.05947">
        <ele>182.4</ele>
        <time>2022-09-17T13:31:40.000Z</time>
      </trkpt>
      <trkpt lat="45.07233" lon="5.05941">
        <ele>182.4</ele>
        <time>2022-09-17T13:31:41.000Z</time>
      </trkpt>
      <trkpt lat="45.07231" lon="5.05935">
        <ele>182.3</ele>
        <time>2022-09-17T13:31:42.000Z</time>
      </trkpt>
      <trkpt lat="45.07229" lon="5.05928">
        <ele>182.2</ele>
        <time>2022-09-17T13:31:43.000Z</time>
      </trkpt>
      <trkpt lat="45.07226" lon="5.05921">
        <ele>182.1</ele>
        <time>2022-09-17T13:31:44.000Z</time>
      </trkpt>
      <trkpt lat="45.07224" lon="5.05913">
        <ele>182.2</ele>
        <time>2022-09-17T13:31:45.000Z</time>
      </trkpt>
      <trkpt lat="45.07222" lon="5.05905">
        <ele>182.4</ele>
        <time>2022-09-17T13:31:46.000Z</time>
      </trkpt>
      <trkpt lat="45.0722" lon="5.05897">
        <ele>182.6</ele>
        <time>2022-09-17T13:31:47.000Z</time>
      </trkpt>
      <trkpt lat="45.07219" lon="5.05889">
        <ele>182.9</ele>
        <time>2022-09-17T13:31:48.000Z</time>
      </trkpt>
      <trkpt lat="45.07218" lon="5.0588">
        <ele>182.5</ele>
        <time>2022-09-17T13:31:49.000Z</time>
      </trkpt>
      <trkpt lat="45.07218" lon="5.05871">
        <ele>182.2</ele>
        <time>2022-09-17T13:31:50.000Z</time>
      </trkpt>
      <trkpt lat="45.07217" lon="5.05862">
        <ele>181.9</ele>
        <time>2022-09-17T13:31:51.000Z</time>
      </trkpt>
      <trkpt lat="45.07217" lon="5.05853">
        <ele>181.8</ele>
        <time>2022-09-17T13:31:52.000Z</time>
      </trkpt>
      <trkpt lat="45.07215" lon="5.05844">
        <ele>181.8</ele>
        <time>2022-09-17T13:31:53.000Z</time>
      </trkpt>
      <trkpt lat="45.07214" lon="5.05835">
        <ele>181.7</ele>
        <time>2022-09-17T13:31:54.000Z</time>
      </trkpt>
      <trkpt lat="45.07213" lon="5.05826">
        <ele>181.6</ele>
        <time>2022-09-17T13:31:55.000Z</time>
      </trkpt>
      <trkpt lat="45.07212" lon="5.05818">
        <ele>181.4</ele>
        <time>2022-09-17T13:31:56.000Z</time>
      </trkpt>
      <trkpt lat="45.07211" lon="5.05809">
        <ele>181.2</ele>
        <time>2022-09-17T13:31:57.000Z</time>
      </trkpt>
      <trkpt lat="45.0721" lon="5.05801">
        <ele>181.2</ele>
        <time>2022-09-17T13:31:58.000Z</time>
      </trkpt>
      <trkpt lat="45.07209" lon="5.05792">
        <ele>181.3</ele>
        <time>2022-09-17T13:31:59.000Z</time>
      </trkpt>
      <trkpt lat="45.07208" lon="5.05784">
        <ele>181.4</ele>
        <time>2022-09-17T13:32:00.000Z</time>
      </trkpt>
      <trkpt lat="45.07208" lon="5.05776">
        <ele>181.4</ele>
        <time>2022-09-17T13:32:01.000Z</time>
      </trkpt>
      <trkpt lat="45.07207" lon="5.05767">
        <ele>181.1</ele>
        <time>2022-09-17T13:32:02.000Z</time>
      </trkpt>
      <trkpt lat="45.07206" lon="5.05759">
        <ele>180.9</ele>
        <time>2022-09-17T13:32:03.000Z</time>
      </trkpt>
      <trkpt lat="45.07206" lon="5.05751">
        <ele>180.6</ele>
        <time>2022-09-17T13:32:04.000Z</time>
      </trkpt>
      <trkpt lat="45.07205" lon="5.05743">
        <ele>180.6</ele>
        <time>2022-09-17T13:32:05.000Z</time>
      </trkpt>
      <trkpt lat="45.07205" lon="5.05735">
        <ele>180.7</ele>
        <time>2022-09-17T13:32:06.000Z</time>
      </trkpt>
      <trkpt lat="45.07204" lon="5.05727">
        <ele>180.7</ele>
        <time>2022-09-17T13:32:07.000Z</time>
      </trkpt>
      <trkpt lat="45.07204" lon="5.05718">
        <ele>180.7</ele>
        <time>2022-09-17T13:32:08.000Z</time>
      </trkpt>
      <trkpt lat="45.07203" lon="5.05709">
        <ele>180.8</ele>
        <time>2022-09-17T13:32:09.000Z</time>
      </trkpt>
      <trkpt lat="45.07202" lon="5.057">
        <ele>180.9</ele>
        <time>2022-09-17T13:32:10.000Z</time>
      </trkpt>
      <trkpt lat="45.07201" lon="5.05691">
        <ele>181</ele>
        <time>2022-09-17T13:32:11.000Z</time>
      </trkpt>
      <trkpt lat="45.07199" lon="5.05682">
        <ele>181</ele>
        <time>2022-09-17T13:32:12.000Z</time>
      </trkpt>
      <trkpt lat="45.07197" lon="5.05674">
        <ele>181</ele>
        <time>2022-09-17T13:32:13.000Z</time>
      </trkpt>
      <trkpt lat="45.07195" lon="5.05665">
        <ele>181.1</ele>
        <time>2022-09-17T13:32:14.000Z</time>
      </trkpt>
      <trkpt lat="45.07192" lon="5.05657">
        <ele>181.2</ele>
        <time>2022-09-17T13:32:15.000Z</time>
      </trkpt>
      <trkpt lat="45.07189" lon="5.0565">
        <ele>181.2</ele>
        <time>2022-09-17T13:32:16.000Z</time>
      </trkpt>
      <trkpt lat="45.07186" lon="5.05642">
        <ele>181.3</ele>
        <time>2022-09-17T13:32:17.000Z</time>
      </trkpt>
      <trkpt lat="45.07183" lon="5.05634">
        <ele>181.2</ele>
        <time>2022-09-17T13:32:18.000Z</time>
      </trkpt>
      <trkpt lat="45.07181" lon="5.05625">
        <ele>181</ele>
        <time>2022-09-17T13:32:19.000Z</time>
      </trkpt>
      <trkpt lat="45.07179" lon="5.05617">
        <ele>180.9</ele>
        <time>2022-09-17T13:32:20.000Z</time>
      </trkpt>
      <trkpt lat="45.07177" lon="5.05608">
        <ele>181</ele>
        <time>2022-09-17T13:32:21.000Z</time>
      </trkpt>
      <trkpt lat="45.07175" lon="5.05599">
        <ele>181.3</ele>
        <time>2022-09-17T13:32:22.000Z</time>
      </trkpt>
      <trkpt lat="45.07172" lon="5.05589">
        <ele>181.6</ele>
        <time>2022-09-17T13:32:23.000Z</time>
      </trkpt>
      <trkpt lat="45.0717" lon="5.0558">
        <ele>181.9</ele>
        <time>2022-09-17T13:32:24.000Z</time>
      </trkpt>
      <trkpt lat="45.07166" lon="5.05571">
        <ele>182.3</ele>
        <time>2022-09-17T13:32:25.000Z</time>
      </trkpt>
      <trkpt lat="45.07161" lon="5.05563">
        <ele>182.3</ele>
        <time>2022-09-17T13:32:26.000Z</time>
      </trkpt>
      <trkpt lat="45.07156" lon="5.05556">
        <ele>182</ele>
        <time>2022-09-17T13:32:27.000Z</time>
      </trkpt>
      <trkpt lat="45.07151" lon="5.05549">
        <ele>181.6</ele>
        <time>2022-09-17T13:32:28.000Z</time>
      </trkpt>
      <trkpt lat="45.07146" lon="5.05541">
        <ele>181.2</ele>
        <time>2022-09-17T13:32:29.000Z</time>
      </trkpt>
      <trkpt lat="45.07141" lon="5.05534">
        <ele>180.9</ele>
        <time>2022-09-17T13:32:30.000Z</time>
      </trkpt>
      <trkpt lat="45.07135" lon="5.05526">
        <ele>180.4</ele>
        <time>2022-09-17T13:32:31.000Z</time>
      </trkpt>
      <trkpt lat="45.0713" lon="5.05518">
        <ele>180.3</ele>
        <time>2022-09-17T13:32:32.000Z</time>
      </trkpt>
      <trkpt lat="45.07126" lon="5.0551">
        <ele>180.2</ele>
        <time>2022-09-17T13:32:33.000Z</time>
      </trkpt>
      <trkpt lat="45.07121" lon="5.05501">
        <ele>180.1</ele>
        <time>2022-09-17T13:32:34.000Z</time>
      </trkpt>
      <trkpt lat="45.07116" lon="5.05492">
        <ele>179.2</ele>
        <time>2022-09-17T13:32:35.000Z</time>
      </trkpt>
      <trkpt lat="45.07112" lon="5.05482">
        <ele>178.1</ele>
        <time>2022-09-17T13:32:36.000Z</time>
      </trkpt>
      <trkpt lat="45.07107" lon="5.05474">
        <ele>177.5</ele>
        <time>2022-09-17T13:32:37.000Z</time>
      </trkpt>
      <trkpt lat="45.07103" lon="5.05464">
        <ele>177.1</ele>
        <time>2022-09-17T13:32:38.000Z</time>
      </trkpt>
      <trkpt lat="45.07099" lon="5.05455">
        <ele>176.6</ele>
        <time>2022-09-17T13:32:39.000Z</time>
      </trkpt>
      <trkpt lat="45.07095" lon="5.05447">
        <ele>176.2</ele>
        <time>2022-09-17T13:32:40.000Z</time>
      </trkpt>
      <trkpt lat="45.07092" lon="5.05439">
        <ele>175.9</ele>
        <time>2022-09-17T13:32:41.000Z</time>
      </trkpt>
      <trkpt lat="45.07089" lon="5.05431">
        <ele>175.6</ele>
        <time>2022-09-17T13:32:42.000Z</time>
      </trkpt>
      <trkpt lat="45.07088" lon="5.05423">
        <ele>175.5</ele>
        <time>2022-09-17T13:32:43.000Z</time>
      </trkpt>
      <trkpt lat="45.07088" lon="5.05414">
        <ele>175.6</ele>
        <time>2022-09-17T13:32:44.000Z</time>
      </trkpt>
      <trkpt lat="45.07089" lon="5.05407">
        <ele>175.8</ele>
        <time>2022-09-17T13:32:45.000Z</time>
      </trkpt>
      <trkpt lat="45.0709" lon="5.05399">
        <ele>176</ele>
        <time>2022-09-17T13:32:46.000Z</time>
      </trkpt>
      <trkpt lat="45.0709" lon="5.05392">
        <ele>176.2</ele>
        <time>2022-09-17T13:32:47.000Z</time>
      </trkpt>
      <trkpt lat="45.07092" lon="5.05386">
        <ele>176.3</ele>
        <time>2022-09-17T13:32:48.000Z</time>
      </trkpt>
      <trkpt lat="45.07093" lon="5.05379">
        <ele>176.5</ele>
        <time>2022-09-17T13:32:49.000Z</time>
      </trkpt>
      <trkpt lat="45.07094" lon="5.05372">
        <ele>176.6</ele>
        <time>2022-09-17T13:32:50.000Z</time>
      </trkpt>
      <trkpt lat="45.07094" lon="5.05365">
        <ele>176.7</ele>
        <time>2022-09-17T13:32:51.000Z</time>
      </trkpt>
      <trkpt lat="45.07094" lon="5.05359">
        <ele>176.8</ele>
        <time>2022-09-17T13:32:52.000Z</time>
      </trkpt>
      <trkpt lat="45.07095" lon="5.05353">
        <ele>176.8</ele>
        <time>2022-09-17T13:32:53.000Z</time>
      </trkpt>
      <trkpt lat="45.07095" lon="5.05346">
        <ele>176.8</ele>
        <time>2022-09-17T13:32:54.000Z</time>
      </trkpt>
      <trkpt lat="45.07096" lon="5.05339">
        <ele>176.9</ele>
        <time>2022-09-17T13:32:55.000Z</time>
      </trkpt>
      <trkpt lat="45.07096" lon="5.05332">
        <ele>176.9</ele>
        <time>2022-09-17T13:32:56.000Z</time>
      </trkpt>
      <trkpt lat="45.07096" lon="5.05326">
        <ele>177.3</ele>
        <time>2022-09-17T13:32:57.000Z</time>
      </trkpt>
      <trkpt lat="45.07097" lon="5.0532">
        <ele>177.7</ele>
        <time>2022-09-17T13:32:58.000Z</time>
      </trkpt>
      <trkpt lat="45.07097" lon="5.05313">
        <ele>178.1</ele>
        <time>2022-09-17T13:32:59.000Z</time>
      </trkpt>
      <trkpt lat="45.07097" lon="5.05308">
        <ele>178.4</ele>
        <time>2022-09-17T13:33:00.000Z</time>
      </trkpt>
      <trkpt lat="45.07097" lon="5.05302">
        <ele>178.4</ele>
        <time>2022-09-17T13:33:01.000Z</time>
      </trkpt>
      <trkpt lat="45.07097" lon="5.05297">
        <ele>178.1</ele>
        <time>2022-09-17T13:33:02.000Z</time>
      </trkpt>
      <trkpt lat="45.07096" lon="5.05291">
        <ele>177.8</ele>
        <time>2022-09-17T13:33:03.000Z</time>
      </trkpt>
      <trkpt lat="45.07094" lon="5.05285">
        <ele>177.6</ele>
        <time>2022-09-17T13:33:04.000Z</time>
      </trkpt>
      <trkpt lat="45.07092" lon="5.0528">
        <ele>177.4</ele>
        <time>2022-09-17T13:33:05.000Z</time>
      </trkpt>
      <trkpt lat="45.07089" lon="5.05275">
        <ele>177.2</ele>
        <time>2022-09-17T13:33:06.000Z</time>
      </trkpt>
      <trkpt lat="45.07087" lon="5.0527">
        <ele>177.2</ele>
        <time>2022-09-17T13:33:07.000Z</time>
      </trkpt>
      <trkpt lat="45.07085" lon="5.05264">
        <ele>177.1</ele>
        <time>2022-09-17T13:33:08.000Z</time>
      </trkpt>
      <trkpt lat="45.07083" lon="5.05258">
        <ele>177</ele>
        <time>2022-09-17T13:33:09.000Z</time>
      </trkpt>
      <trkpt lat="45.0708" lon="5.05251">
        <ele>177</ele>
        <time>2022-09-17T13:33:10.000Z</time>
      </trkpt>
      <trkpt lat="45.07078" lon="5.05245">
        <ele>177.2</ele>
        <time>2022-09-17T13:33:11.000Z</time>
      </trkpt>
      <trkpt lat="45.07075" lon="5.05239">
        <ele>177.3</ele>
        <time>2022-09-17T13:33:12.000Z</time>
      </trkpt>
      <trkpt lat="45.07072" lon="5.05232">
        <ele>177.4</ele>
        <time>2022-09-17T13:33:13.000Z</time>
      </trkpt>
      <trkpt lat="45.0707" lon="5.05225">
        <ele>177.5</ele>
        <time>2022-09-17T13:33:14.000Z</time>
      </trkpt>
      <trkpt lat="45.07068" lon="5.05219">
        <ele>177.4</ele>
        <time>2022-09-17T13:33:15.000Z</time>
      </trkpt>
      <trkpt lat="45.07066" lon="5.05211">
        <ele>177.4</ele>
        <time>2022-09-17T13:33:16.000Z</time>
      </trkpt>
      <trkpt lat="45.07064" lon="5.05204">
        <ele>177.3</ele>
        <time>2022-09-17T13:33:17.000Z</time>
      </trkpt>
      <trkpt lat="45.07062" lon="5.05197">
        <ele>177.2</ele>
        <time>2022-09-17T13:33:18.000Z</time>
      </trkpt>
      <trkpt lat="45.07059" lon="5.05189">
        <ele>177.2</ele>
        <time>2022-09-17T13:33:19.000Z</time>
      </trkpt>
      <trkpt lat="45.07057" lon="5.05183">
        <ele>177</ele>
        <time>2022-09-17T13:33:20.000Z</time>
      </trkpt>
      <trkpt lat="45.07054" lon="5.05176">
        <ele>176.9</ele>
        <time>2022-09-17T13:33:21.000Z</time>
      </trkpt>
      <trkpt lat="45.0705" lon="5.05171">
        <ele>176.7</ele>
        <time>2022-09-17T13:33:22.000Z</time>
      </trkpt>
      <trkpt lat="45.07046" lon="5.05165">
        <ele>176.3</ele>
        <time>2022-09-17T13:33:23.000Z</time>
      </trkpt>
      <trkpt lat="45.07042" lon="5.05158">
        <ele>176</ele>
        <time>2022-09-17T13:33:24.000Z</time>
      </trkpt>
      <trkpt lat="45.07039" lon="5.0515">
        <ele>175.8</ele>
        <time>2022-09-17T13:33:25.000Z</time>
      </trkpt>
      <trkpt lat="45.07035" lon="5.05143">
        <ele>175.5</ele>
        <time>2022-09-17T13:33:26.000Z</time>
      </trkpt>
      <trkpt lat="45.07033" lon="5.05136">
        <ele>175.4</ele>
        <time>2022-09-17T13:33:27.000Z</time>
      </trkpt>
      <trkpt lat="45.07032" lon="5.0513">
        <ele>175.3</ele>
        <time>2022-09-17T13:33:28.000Z</time>
      </trkpt>
      <trkpt lat="45.07032" lon="5.05124">
        <ele>175.3</ele>
        <time>2022-09-17T13:33:29.000Z</time>
      </trkpt>
      <trkpt lat="45.07032" lon="5.0512">
        <ele>175.3</ele>
        <time>2022-09-17T13:33:30.000Z</time>
      </trkpt>
      <trkpt lat="45.07034" lon="5.05115">
        <ele>175.4</ele>
        <time>2022-09-17T13:33:31.000Z</time>
      </trkpt>
      <trkpt lat="45.07036" lon="5.0511">
        <ele>175.6</ele>
        <time>2022-09-17T13:33:32.000Z</time>
      </trkpt>
      <trkpt lat="45.07038" lon="5.05104">
        <ele>175.6</ele>
        <time>2022-09-17T13:33:33.000Z</time>
      </trkpt>
      <trkpt lat="45.07038" lon="5.05098">
        <ele>175.6</ele>
        <time>2022-09-17T13:33:34.000Z</time>
      </trkpt>
      <trkpt lat="45.07036" lon="5.05093">
        <ele>175.4</ele>
        <time>2022-09-17T13:33:35.000Z</time>
      </trkpt>
      <trkpt lat="45.07033" lon="5.0509">
        <ele>175.2</ele>
        <time>2022-09-17T13:33:36.000Z</time>
      </trkpt>
      <trkpt lat="45.0703" lon="5.05086">
        <ele>175.1</ele>
        <time>2022-09-17T13:33:37.000Z</time>
      </trkpt>
      <trkpt lat="45.07028" lon="5.0508">
        <ele>175</ele>
        <time>2022-09-17T13:33:38.000Z</time>
      </trkpt>
      <trkpt lat="45.07025" lon="5.05073">
        <ele>174.9</ele>
        <time>2022-09-17T13:33:39.000Z</time>
      </trkpt>
      <trkpt lat="45.07024" lon="5.05065">
        <ele>174.9</ele>
        <time>2022-09-17T13:33:40.000Z</time>
      </trkpt>
      <trkpt lat="45.07023" lon="5.05058">
        <ele>174.8</ele>
        <time>2022-09-17T13:33:41.000Z</time>
      </trkpt>
      <trkpt lat="45.07021" lon="5.0505">
        <ele>174.7</ele>
        <time>2022-09-17T13:33:42.000Z</time>
      </trkpt>
      <trkpt lat="45.07019" lon="5.05042">
        <ele>174.7</ele>
        <time>2022-09-17T13:33:43.000Z</time>
      </trkpt>
      <trkpt lat="45.07017" lon="5.05034">
        <ele>174.6</ele>
        <time>2022-09-17T13:33:44.000Z</time>
      </trkpt>
      <trkpt lat="45.07015" lon="5.05026">
        <ele>174.5</ele>
        <time>2022-09-17T13:33:45.000Z</time>
      </trkpt>
      <trkpt lat="45.07013" lon="5.05018">
        <ele>174.3</ele>
        <time>2022-09-17T13:33:46.000Z</time>
      </trkpt>
      <trkpt lat="45.07011" lon="5.0501">
        <ele>174</ele>
        <time>2022-09-17T13:33:47.000Z</time>
      </trkpt>
      <trkpt lat="45.07008" lon="5.05002">
        <ele>173.6</ele>
        <time>2022-09-17T13:33:48.000Z</time>
      </trkpt>
      <trkpt lat="45.07006" lon="5.04994">
        <ele>173.4</ele>
        <time>2022-09-17T13:33:49.000Z</time>
      </trkpt>
      <trkpt lat="45.07004" lon="5.04986">
        <ele>173.2</ele>
        <time>2022-09-17T13:33:50.000Z</time>
      </trkpt>
      <trkpt lat="45.07002" lon="5.04978">
        <ele>173.1</ele>
        <time>2022-09-17T13:33:51.000Z</time>
      </trkpt>
      <trkpt lat="45.07" lon="5.0497">
        <ele>173</ele>
        <time>2022-09-17T13:33:52.000Z</time>
      </trkpt>
      <trkpt lat="45.06998" lon="5.04963">
        <ele>172.9</ele>
        <time>2022-09-17T13:33:53.000Z</time>
      </trkpt>
      <trkpt lat="45.06996" lon="5.04955">
        <ele>172.8</ele>
        <time>2022-09-17T13:33:54.000Z</time>
      </trkpt>
      <trkpt lat="45.06994" lon="5.04948">
        <ele>172.8</ele>
        <time>2022-09-17T13:33:55.000Z</time>
      </trkpt>
      <trkpt lat="45.06992" lon="5.0494">
        <ele>172.8</ele>
        <time>2022-09-17T13:33:56.000Z</time>
      </trkpt>
      <trkpt lat="45.06991" lon="5.04933">
        <ele>172.8</ele>
        <time>2022-09-17T13:33:57.000Z</time>
      </trkpt>
      <trkpt lat="45.06989" lon="5.04926">
        <ele>172.9</ele>
        <time>2022-09-17T13:33:58.000Z</time>
      </trkpt>
      <trkpt lat="45.06987" lon="5.04918">
        <ele>173</ele>
        <time>2022-09-17T13:33:59.000Z</time>
      </trkpt>
      <trkpt lat="45.06986" lon="5.04911">
        <ele>172.9</ele>
        <time>2022-09-17T13:34:00.000Z</time>
      </trkpt>
      <trkpt lat="45.06984" lon="5.04904">
        <ele>172.7</ele>
        <time>2022-09-17T13:34:01.000Z</time>
      </trkpt>
      <trkpt lat="45.06983" lon="5.04896">
        <ele>172.6</ele>
        <time>2022-09-17T13:34:02.000Z</time>
      </trkpt>
      <trkpt lat="45.06982" lon="5.04889">
        <ele>172.4</ele>
        <time>2022-09-17T13:34:03.000Z</time>
      </trkpt>
      <trkpt lat="45.06981" lon="5.04881">
        <ele>172.3</ele>
        <time>2022-09-17T13:34:04.000Z</time>
      </trkpt>
      <trkpt lat="45.0698" lon="5.04874">
        <ele>172.3</ele>
        <time>2022-09-17T13:34:05.000Z</time>
      </trkpt>
      <trkpt lat="45.06979" lon="5.04866">
        <ele>172.2</ele>
        <time>2022-09-17T13:34:06.000Z</time>
      </trkpt>
      <trkpt lat="45.06977" lon="5.04858">
        <ele>172.2</ele>
        <time>2022-09-17T13:34:07.000Z</time>
      </trkpt>
      <trkpt lat="45.06976" lon="5.0485">
        <ele>172.1</ele>
        <time>2022-09-17T13:34:08.000Z</time>
      </trkpt>
      <trkpt lat="45.06974" lon="5.04842">
        <ele>172.1</ele>
        <time>2022-09-17T13:34:09.000Z</time>
      </trkpt>
      <trkpt lat="45.06972" lon="5.04834">
        <ele>172</ele>
        <time>2022-09-17T13:34:10.000Z</time>
      </trkpt>
      <trkpt lat="45.06971" lon="5.04826">
        <ele>172.2</ele>
        <time>2022-09-17T13:34:11.000Z</time>
      </trkpt>
      <trkpt lat="45.06969" lon="5.04817">
        <ele>172.5</ele>
        <time>2022-09-17T13:34:12.000Z</time>
      </trkpt>
      <trkpt lat="45.06968" lon="5.04809">
        <ele>172.7</ele>
        <time>2022-09-17T13:34:13.000Z</time>
      </trkpt>
      <trkpt lat="45.06966" lon="5.04801">
        <ele>172.7</ele>
        <time>2022-09-17T13:34:14.000Z</time>
      </trkpt>
      <trkpt lat="45.06965" lon="5.04792">
        <ele>172.6</ele>
        <time>2022-09-17T13:34:15.000Z</time>
      </trkpt>
      <trkpt lat="45.06963" lon="5.04785">
        <ele>172.4</ele>
        <time>2022-09-17T13:34:16.000Z</time>
      </trkpt>
      <trkpt lat="45.06962" lon="5.04777">
        <ele>172.3</ele>
        <time>2022-09-17T13:34:17.000Z</time>
      </trkpt>
      <trkpt lat="45.06961" lon="5.04769">
        <ele>172.2</ele>
        <time>2022-09-17T13:34:18.000Z</time>
      </trkpt>
      <trkpt lat="45.06959" lon="5.04761">
        <ele>172.1</ele>
        <time>2022-09-17T13:34:19.000Z</time>
      </trkpt>
      <trkpt lat="45.06958" lon="5.04753">
        <ele>172</ele>
        <time>2022-09-17T13:34:20.000Z</time>
      </trkpt>
      <trkpt lat="45.06957" lon="5.04744">
        <ele>172</ele>
        <time>2022-09-17T13:34:21.000Z</time>
      </trkpt>
      <trkpt lat="45.06956" lon="5.04736">
        <ele>172.1</ele>
        <time>2022-09-17T13:34:22.000Z</time>
      </trkpt>
      <trkpt lat="45.06955" lon="5.04728">
        <ele>172</ele>
        <time>2022-09-17T13:34:23.000Z</time>
      </trkpt>
      <trkpt lat="45.06954" lon="5.0472">
        <ele>172</ele>
        <time>2022-09-17T13:34:24.000Z</time>
      </trkpt>
      <trkpt lat="45.06953" lon="5.04712">
        <ele>172</ele>
        <time>2022-09-17T13:34:25.000Z</time>
      </trkpt>
      <trkpt lat="45.06953" lon="5.04705">
        <ele>171.9</ele>
        <time>2022-09-17T13:34:26.000Z</time>
      </trkpt>
      <trkpt lat="45.06952" lon="5.04697">
        <ele>171.8</ele>
        <time>2022-09-17T13:34:27.000Z</time>
      </trkpt>
      <trkpt lat="45.06952" lon="5.04686">
        <ele>172.2</ele>
        <time>2022-09-17T13:34:28.000Z</time>
      </trkpt>
      <trkpt lat="45.0695" lon="5.04676">
        <ele>172.7</ele>
        <time>2022-09-17T13:34:29.000Z</time>
      </trkpt>
      <trkpt lat="45.0695" lon="5.04667">
        <ele>173.2</ele>
        <time>2022-09-17T13:34:30.000Z</time>
      </trkpt>
      <trkpt lat="45.0695" lon="5.04656">
        <ele>173.3</ele>
        <time>2022-09-17T13:34:31.000Z</time>
      </trkpt>
      <trkpt lat="45.0695" lon="5.04649">
        <ele>173.3</ele>
        <time>2022-09-17T13:34:32.000Z</time>
      </trkpt>
      <trkpt lat="45.06951" lon="5.04648">
        <ele>173.4</ele>
        <time>2022-09-17T13:34:34.000Z</time>
      </trkpt>
      <trkpt lat="45.06952" lon="5.04644">
        <ele>173.5</ele>
        <time>2022-09-17T13:34:35.000Z</time>
      </trkpt>
      <trkpt lat="45.06953" lon="5.04641">
        <ele>173.6</ele>
        <time>2022-09-17T13:34:37.000Z</time>
      </trkpt>
      <trkpt lat="45.06955" lon="5.0464">
        <ele>173.7</ele>
        <time>2022-09-17T13:34:38.000Z</time>
      </trkpt>
      <trkpt lat="45.06957" lon="5.04638">
        <ele>173.9</ele>
        <time>2022-09-17T13:34:39.000Z</time>
      </trkpt>
      <trkpt lat="45.06957" lon="5.04633">
        <ele>174.1</ele>
        <time>2022-09-17T13:34:40.000Z</time>
      </trkpt>
      <trkpt lat="45.06955" lon="5.04629">
        <ele>174.1</ele>
        <time>2022-09-17T13:34:41.000Z</time>
      </trkpt>
      <trkpt lat="45.06952" lon="5.04622">
        <ele>174.2</ele>
        <time>2022-09-17T13:34:42.000Z</time>
      </trkpt>
      <trkpt lat="45.06949" lon="5.04612">
        <ele>174.3</ele>
        <time>2022-09-17T13:34:43.000Z</time>
      </trkpt>
      <trkpt lat="45.06945" lon="5.04601">
        <ele>175.4</ele>
        <time>2022-09-17T13:34:44.000Z</time>
      </trkpt>
      <trkpt lat="45.06941" lon="5.04595">
        <ele>175.8</ele>
        <time>2022-09-17T13:34:45.000Z</time>
      </trkpt>
      <trkpt lat="45.06937" lon="5.04587">
        <ele>176</ele>
        <time>2022-09-17T13:34:46.000Z</time>
      </trkpt>
      <trkpt lat="45.06934" lon="5.04581">
        <ele>175.8</ele>
        <time>2022-09-17T13:34:47.000Z</time>
      </trkpt>
      <trkpt lat="45.06931" lon="5.04575">
        <ele>175.4</ele>
        <time>2022-09-17T13:34:48.000Z</time>
      </trkpt>
      <trkpt lat="45.06928" lon="5.04569">
        <ele>175</ele>
        <time>2022-09-17T13:34:49.000Z</time>
      </trkpt>
      <trkpt lat="45.06926" lon="5.04564">
        <ele>174.7</ele>
        <time>2022-09-17T13:34:50.000Z</time>
      </trkpt>
      <trkpt lat="45.06924" lon="5.04559">
        <ele>174.5</ele>
        <time>2022-09-17T13:34:51.000Z</time>
      </trkpt>
      <trkpt lat="45.06922" lon="5.04554">
        <ele>174.4</ele>
        <time>2022-09-17T13:34:52.000Z</time>
      </trkpt>
      <trkpt lat="45.06921" lon="5.04549">
        <ele>174.5</ele>
        <time>2022-09-17T13:34:53.000Z</time>
      </trkpt>
      <trkpt lat="45.0692" lon="5.04544">
        <ele>174.8</ele>
        <time>2022-09-17T13:34:54.000Z</time>
      </trkpt>
      <trkpt lat="45.06918" lon="5.0454">
        <ele>175.1</ele>
        <time>2022-09-17T13:34:55.000Z</time>
      </trkpt>
      <trkpt lat="45.06917" lon="5.04535">
        <ele>175.2</ele>
        <time>2022-09-17T13:34:56.000Z</time>
      </trkpt>
      <trkpt lat="45.06915" lon="5.04531">
        <ele>175.4</ele>
        <time>2022-09-17T13:34:57.000Z</time>
      </trkpt>
      <trkpt lat="45.06913" lon="5.04526">
        <ele>175.6</ele>
        <time>2022-09-17T13:34:58.000Z</time>
      </trkpt>
      <trkpt lat="45.06911" lon="5.04521">
        <ele>175.7</ele>
        <time>2022-09-17T13:34:59.000Z</time>
      </trkpt>
      <trkpt lat="45.06909" lon="5.04515">
        <ele>175.8</ele>
        <time>2022-09-17T13:35:00.000Z</time>
      </trkpt>
      <trkpt lat="45.06908" lon="5.0451">
        <ele>176</ele>
        <time>2022-09-17T13:35:01.000Z</time>
      </trkpt>
      <trkpt lat="45.06907" lon="5.04504">
        <ele>176.2</ele>
        <time>2022-09-17T13:35:02.000Z</time>
      </trkpt>
      <trkpt lat="45.06905" lon="5.04498">
        <ele>176.3</ele>
        <time>2022-09-17T13:35:03.000Z</time>
      </trkpt>
      <trkpt lat="45.06904" lon="5.04493">
        <ele>176.3</ele>
        <time>2022-09-17T13:35:04.000Z</time>
      </trkpt>
      <trkpt lat="45.06903" lon="5.04487">
        <ele>176.4</ele>
        <time>2022-09-17T13:35:05.000Z</time>
      </trkpt>
      <trkpt lat="45.06903" lon="5.04481">
        <ele>176.5</ele>
        <time>2022-09-17T13:35:06.000Z</time>
      </trkpt>
      <trkpt lat="45.06902" lon="5.04474">
        <ele>176.6</ele>
        <time>2022-09-17T13:35:07.000Z</time>
      </trkpt>
      <trkpt lat="45.06901" lon="5.04467">
        <ele>176.5</ele>
        <time>2022-09-17T13:35:08.000Z</time>
      </trkpt>
      <trkpt lat="45.069" lon="5.0446">
        <ele>176.4</ele>
        <time>2022-09-17T13:35:09.000Z</time>
      </trkpt>
      <trkpt lat="45.06899" lon="5.04453">
        <ele>176.3</ele>
        <time>2022-09-17T13:35:10.000Z</time>
      </trkpt>
      <trkpt lat="45.06897" lon="5.04445">
        <ele>176.1</ele>
        <time>2022-09-17T13:35:11.000Z</time>
      </trkpt>
      <trkpt lat="45.06896" lon="5.04437">
        <ele>176</ele>
        <time>2022-09-17T13:35:12.000Z</time>
      </trkpt>
      <trkpt lat="45.06894" lon="5.04429">
        <ele>175.9</ele>
        <time>2022-09-17T13:35:13.000Z</time>
      </trkpt>
      <trkpt lat="45.06892" lon="5.0442">
        <ele>175.8</ele>
        <time>2022-09-17T13:35:14.000Z</time>
      </trkpt>
      <trkpt lat="45.06891" lon="5.0441">
        <ele>175.4</ele>
        <time>2022-09-17T13:35:15.000Z</time>
      </trkpt>
      <trkpt lat="45.06889" lon="5.04401">
        <ele>175</ele>
        <time>2022-09-17T13:35:16.000Z</time>
      </trkpt>
      <trkpt lat="45.06888" lon="5.04392">
        <ele>174.9</ele>
        <time>2022-09-17T13:35:17.000Z</time>
      </trkpt>
      <trkpt lat="45.06888" lon="5.04383">
        <ele>174.6</ele>
        <time>2022-09-17T13:35:18.000Z</time>
      </trkpt>
      <trkpt lat="45.06889" lon="5.04373">
        <ele>174.4</ele>
        <time>2022-09-17T13:35:19.000Z</time>
      </trkpt>
      <trkpt lat="45.0689" lon="5.04364">
        <ele>174.2</ele>
        <time>2022-09-17T13:35:20.000Z</time>
      </trkpt>
      <trkpt lat="45.0689" lon="5.04355">
        <ele>174.2</ele>
        <time>2022-09-17T13:35:21.000Z</time>
      </trkpt>
      <trkpt lat="45.0689" lon="5.04346">
        <ele>174.2</ele>
        <time>2022-09-17T13:35:22.000Z</time>
      </trkpt>
      <trkpt lat="45.0689" lon="5.04336">
        <ele>174.2</ele>
        <time>2022-09-17T13:35:23.000Z</time>
      </trkpt>
      <trkpt lat="45.06891" lon="5.04327">
        <ele>174</ele>
        <time>2022-09-17T13:35:24.000Z</time>
      </trkpt>
      <trkpt lat="45.06892" lon="5.04318">
        <ele>173.9</ele>
        <time>2022-09-17T13:35:25.000Z</time>
      </trkpt>
      <trkpt lat="45.06893" lon="5.04309">
        <ele>173.6</ele>
        <time>2022-09-17T13:35:26.000Z</time>
      </trkpt>
      <trkpt lat="45.06894" lon="5.04299">
        <ele>173.5</ele>
        <time>2022-09-17T13:35:27.000Z</time>
      </trkpt>
      <trkpt lat="45.06895" lon="5.04289">
        <ele>173.5</ele>
        <time>2022-09-17T13:35:28.000Z</time>
      </trkpt>
      <trkpt lat="45.06895" lon="5.04279">
        <ele>173.4</ele>
        <time>2022-09-17T13:35:29.000Z</time>
      </trkpt>
      <trkpt lat="45.06895" lon="5.04269">
        <ele>173.4</ele>
        <time>2022-09-17T13:35:30.000Z</time>
      </trkpt>
      <trkpt lat="45.06895" lon="5.0426">
        <ele>173.3</ele>
        <time>2022-09-17T13:35:31.000Z</time>
      </trkpt>
      <trkpt lat="45.06895" lon="5.04251">
        <ele>173.2</ele>
        <time>2022-09-17T13:35:32.000Z</time>
      </trkpt>
      <trkpt lat="45.06894" lon="5.04243">
        <ele>173.2</ele>
        <time>2022-09-17T13:35:33.000Z</time>
      </trkpt>
      <trkpt lat="45.06894" lon="5.04235">
        <ele>173.3</ele>
        <time>2022-09-17T13:35:34.000Z</time>
      </trkpt>
      <trkpt lat="45.06893" lon="5.04227">
        <ele>173.3</ele>
        <time>2022-09-17T13:35:35.000Z</time>
      </trkpt>
      <trkpt lat="45.06893" lon="5.04219">
        <ele>173.4</ele>
        <time>2022-09-17T13:35:36.000Z</time>
      </trkpt>
      <trkpt lat="45.06892" lon="5.04208">
        <ele>173.7</ele>
        <time>2022-09-17T13:35:37.000Z</time>
      </trkpt>
      <trkpt lat="45.06891" lon="5.04201">
        <ele>173.9</ele>
        <time>2022-09-17T13:35:38.000Z</time>
      </trkpt>
      <trkpt lat="45.0689" lon="5.04197">
        <ele>174</ele>
        <time>2022-09-17T13:35:39.000Z</time>
      </trkpt>
      <trkpt lat="45.06888" lon="5.0419">
        <ele>174.1</ele>
        <time>2022-09-17T13:35:40.000Z</time>
      </trkpt>
      <trkpt lat="45.06887" lon="5.04182">
        <ele>174.3</ele>
        <time>2022-09-17T13:35:41.000Z</time>
      </trkpt>
      <trkpt lat="45.06886" lon="5.04175">
        <ele>174.4</ele>
        <time>2022-09-17T13:35:42.000Z</time>
      </trkpt>
      <trkpt lat="45.06887" lon="5.04167">
        <ele>174.7</ele>
        <time>2022-09-17T13:35:43.000Z</time>
      </trkpt>
      <trkpt lat="45.06886" lon="5.0416">
        <ele>175.1</ele>
        <time>2022-09-17T13:35:44.000Z</time>
      </trkpt>
      <trkpt lat="45.06885" lon="5.04156">
        <ele>175.3</ele>
        <time>2022-09-17T13:35:45.000Z</time>
      </trkpt>
      <trkpt lat="45.06884" lon="5.0415">
        <ele>175.6</ele>
        <time>2022-09-17T13:35:46.000Z</time>
      </trkpt>
      <trkpt lat="45.06884" lon="5.04146">
        <ele>175.8</ele>
        <time>2022-09-17T13:35:47.000Z</time>
      </trkpt>
      <trkpt lat="45.06883" lon="5.04142">
        <ele>175.9</ele>
        <time>2022-09-17T13:35:48.000Z</time>
      </trkpt>
      <trkpt lat="45.06881" lon="5.04132">
        <ele>175.9</ele>
        <time>2022-09-17T13:35:49.000Z</time>
      </trkpt>
      <trkpt lat="45.06879" lon="5.04124">
        <ele>175.8</ele>
        <time>2022-09-17T13:35:50.000Z</time>
      </trkpt>
      <trkpt lat="45.06879" lon="5.04116">
        <ele>175.8</ele>
        <time>2022-09-17T13:35:51.000Z</time>
      </trkpt>
      <trkpt lat="45.06878" lon="5.04109">
        <ele>175.8</ele>
        <time>2022-09-17T13:35:52.000Z</time>
      </trkpt>
      <trkpt lat="45.06878" lon="5.04103">
        <ele>175.8</ele>
        <time>2022-09-17T13:35:53.000Z</time>
      </trkpt>
      <trkpt lat="45.06877" lon="5.04097">
        <ele>175.7</ele>
        <time>2022-09-17T13:35:54.000Z</time>
      </trkpt>
      <trkpt lat="45.06876" lon="5.04091">
        <ele>175.6</ele>
        <time>2022-09-17T13:35:55.000Z</time>
      </trkpt>
      <trkpt lat="45.06876" lon="5.04084">
        <ele>175.6</ele>
        <time>2022-09-17T13:35:56.000Z</time>
      </trkpt>
      <trkpt lat="45.06875" lon="5.04078">
        <ele>175.4</ele>
        <time>2022-09-17T13:35:57.000Z</time>
      </trkpt>
      <trkpt lat="45.06875" lon="5.04071">
        <ele>175.2</ele>
        <time>2022-09-17T13:35:58.000Z</time>
      </trkpt>
      <trkpt lat="45.06874" lon="5.04065">
        <ele>175.1</ele>
        <time>2022-09-17T13:35:59.000Z</time>
      </trkpt>
      <trkpt lat="45.06874" lon="5.04058">
        <ele>174.9</ele>
        <time>2022-09-17T13:36:00.000Z</time>
      </trkpt>
      <trkpt lat="45.06873" lon="5.04051">
        <ele>174.9</ele>
        <time>2022-09-17T13:36:01.000Z</time>
      </trkpt>
      <trkpt lat="45.06872" lon="5.04044">
        <ele>174.8</ele>
        <time>2022-09-17T13:36:02.000Z</time>
      </trkpt>
      <trkpt lat="45.06872" lon="5.04038">
        <ele>174.7</ele>
        <time>2022-09-17T13:36:03.000Z</time>
      </trkpt>
      <trkpt lat="45.0687" lon="5.04031">
        <ele>174.7</ele>
        <time>2022-09-17T13:36:04.000Z</time>
      </trkpt>
      <trkpt lat="45.06869" lon="5.04024">
        <ele>174.7</ele>
        <time>2022-09-17T13:36:05.000Z</time>
      </trkpt>
      <trkpt lat="45.06867" lon="5.04017">
        <ele>174.9</ele>
        <time>2022-09-17T13:36:06.000Z</time>
      </trkpt>
      <trkpt lat="45.06865" lon="5.04011">
        <ele>175.3</ele>
        <time>2022-09-17T13:36:07.000Z</time>
      </trkpt>
      <trkpt lat="45.06863" lon="5.04004">
        <ele>175.7</ele>
        <time>2022-09-17T13:36:08.000Z</time>
      </trkpt>
      <trkpt lat="45.0686" lon="5.03998">
        <ele>175.8</ele>
        <time>2022-09-17T13:36:09.000Z</time>
      </trkpt>
      <trkpt lat="45.06858" lon="5.03992">
        <ele>175.2</ele>
        <time>2022-09-17T13:36:10.000Z</time>
      </trkpt>
      <trkpt lat="45.06856" lon="5.03986">
        <ele>174.9</ele>
        <time>2022-09-17T13:36:11.000Z</time>
      </trkpt>
      <trkpt lat="45.06854" lon="5.0398">
        <ele>174.7</ele>
        <time>2022-09-17T13:36:12.000Z</time>
      </trkpt>
      <trkpt lat="45.06852" lon="5.03975">
        <ele>174.7</ele>
        <time>2022-09-17T13:36:13.000Z</time>
      </trkpt>
      <trkpt lat="45.06851" lon="5.0397">
        <ele>174.9</ele>
        <time>2022-09-17T13:36:14.000Z</time>
      </trkpt>
      <trkpt lat="45.0685" lon="5.03966">
        <ele>175.1</ele>
        <time>2022-09-17T13:36:15.000Z</time>
      </trkpt>
      <trkpt lat="45.06849" lon="5.03962">
        <ele>175.3</ele>
        <time>2022-09-17T13:36:16.000Z</time>
      </trkpt>
      <trkpt lat="45.0685" lon="5.03958">
        <ele>175.5</ele>
        <time>2022-09-17T13:36:17.000Z</time>
      </trkpt>
      <trkpt lat="45.0685" lon="5.03954">
        <ele>175.7</ele>
        <time>2022-09-17T13:36:18.000Z</time>
      </trkpt>
      <trkpt lat="45.06851" lon="5.03951">
        <ele>175.9</ele>
        <time>2022-09-17T13:36:19.000Z</time>
      </trkpt>
      <trkpt lat="45.06853" lon="5.03946">
        <ele>176.3</ele>
        <time>2022-09-17T13:36:20.000Z</time>
      </trkpt>
      <trkpt lat="45.06854" lon="5.03942">
        <ele>176.4</ele>
        <time>2022-09-17T13:36:21.000Z</time>
      </trkpt>
      <trkpt lat="45.06854" lon="5.03936">
        <ele>176.4</ele>
        <time>2022-09-17T13:36:22.000Z</time>
      </trkpt>
      <trkpt lat="45.06854" lon="5.03931">
        <ele>176.4</ele>
        <time>2022-09-17T13:36:23.000Z</time>
      </trkpt>
      <trkpt lat="45.06854" lon="5.03926">
        <ele>176.3</ele>
        <time>2022-09-17T13:36:24.000Z</time>
      </trkpt>
      <trkpt lat="45.06855" lon="5.03922">
        <ele>176.4</ele>
        <time>2022-09-17T13:36:25.000Z</time>
      </trkpt>
      <trkpt lat="45.06856" lon="5.03917">
        <ele>176.4</ele>
        <time>2022-09-17T13:36:26.000Z</time>
      </trkpt>
      <trkpt lat="45.06856" lon="5.03913">
        <ele>176.4</ele>
        <time>2022-09-17T13:36:27.000Z</time>
      </trkpt>
      <trkpt lat="45.06856" lon="5.03909">
        <ele>176.4</ele>
        <time>2022-09-17T13:36:28.000Z</time>
      </trkpt>
      <trkpt lat="45.06856" lon="5.03905">
        <ele>176.4</ele>
        <time>2022-09-17T13:36:29.000Z</time>
      </trkpt>
      <trkpt lat="45.06855" lon="5.039">
        <ele>176.3</ele>
        <time>2022-09-17T13:36:30.000Z</time>
      </trkpt>
      <trkpt lat="45.06852" lon="5.03896">
        <ele>176</ele>
        <time>2022-09-17T13:36:31.000Z</time>
      </trkpt>
      <trkpt lat="45.06849" lon="5.03891">
        <ele>175.7</ele>
        <time>2022-09-17T13:36:32.000Z</time>
      </trkpt>
      <trkpt lat="45.06846" lon="5.03886">
        <ele>175.3</ele>
        <time>2022-09-17T13:36:33.000Z</time>
      </trkpt>
      <trkpt lat="45.06842" lon="5.0388">
        <ele>175.1</ele>
        <time>2022-09-17T13:36:34.000Z</time>
      </trkpt>
      <trkpt lat="45.06838" lon="5.03872">
        <ele>174.9</ele>
        <time>2022-09-17T13:36:35.000Z</time>
      </trkpt>
      <trkpt lat="45.06833" lon="5.03864">
        <ele>174.9</ele>
        <time>2022-09-17T13:36:36.000Z</time>
      </trkpt>
      <trkpt lat="45.06829" lon="5.03856">
        <ele>174.4</ele>
        <time>2022-09-17T13:36:37.000Z</time>
      </trkpt>
      <trkpt lat="45.06825" lon="5.03847">
        <ele>173.7</ele>
        <time>2022-09-17T13:36:38.000Z</time>
      </trkpt>
      <trkpt lat="45.06821" lon="5.03838">
        <ele>173.2</ele>
        <time>2022-09-17T13:36:39.000Z</time>
      </trkpt>
      <trkpt lat="45.06817" lon="5.03829">
        <ele>173</ele>
        <time>2022-09-17T13:36:40.000Z</time>
      </trkpt>
      <trkpt lat="45.06813" lon="5.0382">
        <ele>173</ele>
        <time>2022-09-17T13:36:41.000Z</time>
      </trkpt>
      <trkpt lat="45.06809" lon="5.03811">
        <ele>173</ele>
        <time>2022-09-17T13:36:42.000Z</time>
      </trkpt>
      <trkpt lat="45.06805" lon="5.03801">
        <ele>173</ele>
        <time>2022-09-17T13:36:43.000Z</time>
      </trkpt>
      <trkpt lat="45.06801" lon="5.03791">
        <ele>172.8</ele>
        <time>2022-09-17T13:36:44.000Z</time>
      </trkpt>
      <trkpt lat="45.06798" lon="5.03782">
        <ele>172.7</ele>
        <time>2022-09-17T13:36:45.000Z</time>
      </trkpt>
      <trkpt lat="45.06795" lon="5.03774">
        <ele>172.6</ele>
        <time>2022-09-17T13:36:46.000Z</time>
      </trkpt>
      <trkpt lat="45.06792" lon="5.03765">
        <ele>172.5</ele>
        <time>2022-09-17T13:36:47.000Z</time>
      </trkpt>
      <trkpt lat="45.06789" lon="5.03756">
        <ele>172.5</ele>
        <time>2022-09-17T13:36:48.000Z</time>
      </trkpt>
      <trkpt lat="45.06787" lon="5.03748">
        <ele>172.7</ele>
        <time>2022-09-17T13:36:49.000Z</time>
      </trkpt>
      <trkpt lat="45.06784" lon="5.0374">
        <ele>172.9</ele>
        <time>2022-09-17T13:36:50.000Z</time>
      </trkpt>
      <trkpt lat="45.06782" lon="5.03732">
        <ele>173</ele>
        <time>2022-09-17T13:36:51.000Z</time>
      </trkpt>
      <trkpt lat="45.0678" lon="5.03724">
        <ele>173</ele>
        <time>2022-09-17T13:36:52.000Z</time>
      </trkpt>
      <trkpt lat="45.06778" lon="5.03716">
        <ele>172.8</ele>
        <time>2022-09-17T13:36:53.000Z</time>
      </trkpt>
      <trkpt lat="45.06776" lon="5.03709">
        <ele>172.5</ele>
        <time>2022-09-17T13:36:54.000Z</time>
      </trkpt>
      <trkpt lat="45.06773" lon="5.03701">
        <ele>172.2</ele>
        <time>2022-09-17T13:36:55.000Z</time>
      </trkpt>
      <trkpt lat="45.06771" lon="5.03694">
        <ele>172</ele>
        <time>2022-09-17T13:36:56.000Z</time>
      </trkpt>
      <trkpt lat="45.06769" lon="5.03686">
        <ele>172</ele>
        <time>2022-09-17T13:36:57.000Z</time>
      </trkpt>
      <trkpt lat="45.06767" lon="5.03679">
        <ele>172</ele>
        <time>2022-09-17T13:36:58.000Z</time>
      </trkpt>
      <trkpt lat="45.06764" lon="5.03672">
        <ele>172</ele>
        <time>2022-09-17T13:36:59.000Z</time>
      </trkpt>
      <trkpt lat="45.06762" lon="5.03664">
        <ele>172</ele>
        <time>2022-09-17T13:37:00.000Z</time>
      </trkpt>
      <trkpt lat="45.0676" lon="5.03657">
        <ele>172</ele>
        <time>2022-09-17T13:37:01.000Z</time>
      </trkpt>
      <trkpt lat="45.06757" lon="5.0365">
        <ele>172</ele>
        <time>2022-09-17T13:37:02.000Z</time>
      </trkpt>
      <trkpt lat="45.06755" lon="5.03643">
        <ele>172</ele>
        <time>2022-09-17T13:37:03.000Z</time>
      </trkpt>
      <trkpt lat="45.06752" lon="5.03636">
        <ele>172</ele>
        <time>2022-09-17T13:37:04.000Z</time>
      </trkpt>
      <trkpt lat="45.0675" lon="5.03629">
        <ele>172</ele>
        <time>2022-09-17T13:37:05.000Z</time>
      </trkpt>
      <trkpt lat="45.06747" lon="5.03622">
        <ele>172</ele>
        <time>2022-09-17T13:37:06.000Z</time>
      </trkpt>
      <trkpt lat="45.06744" lon="5.03615">
        <ele>172</ele>
        <time>2022-09-17T13:37:07.000Z</time>
      </trkpt>
      <trkpt lat="45.06741" lon="5.03607">
        <ele>172</ele>
        <time>2022-09-17T13:37:08.000Z</time>
      </trkpt>
      <trkpt lat="45.06739" lon="5.036">
        <ele>172</ele>
        <time>2022-09-17T13:37:09.000Z</time>
      </trkpt>
      <trkpt lat="45.06736" lon="5.03593">
        <ele>172</ele>
        <time>2022-09-17T13:37:10.000Z</time>
      </trkpt>
      <trkpt lat="45.06734" lon="5.03586">
        <ele>172</ele>
        <time>2022-09-17T13:37:11.000Z</time>
      </trkpt>
      <trkpt lat="45.06731" lon="5.03579">
        <ele>172</ele>
        <time>2022-09-17T13:37:12.000Z</time>
      </trkpt>
      <trkpt lat="45.06728" lon="5.03572">
        <ele>172</ele>
        <time>2022-09-17T13:37:13.000Z</time>
      </trkpt>
      <trkpt lat="45.06725" lon="5.03565">
        <ele>172</ele>
        <time>2022-09-17T13:37:14.000Z</time>
      </trkpt>
      <trkpt lat="45.06722" lon="5.03558">
        <ele>172</ele>
        <time>2022-09-17T13:37:15.000Z</time>
      </trkpt>
      <trkpt lat="45.06719" lon="5.03551">
        <ele>171.9</ele>
        <time>2022-09-17T13:37:16.000Z</time>
      </trkpt>
      <trkpt lat="45.06716" lon="5.03544">
        <ele>171.8</ele>
        <time>2022-09-17T13:37:17.000Z</time>
      </trkpt>
      <trkpt lat="45.06713" lon="5.03537">
        <ele>171.7</ele>
        <time>2022-09-17T13:37:18.000Z</time>
      </trkpt>
      <trkpt lat="45.0671" lon="5.03529">
        <ele>171.6</ele>
        <time>2022-09-17T13:37:19.000Z</time>
      </trkpt>
      <trkpt lat="45.06707" lon="5.03522">
        <ele>171.6</ele>
        <time>2022-09-17T13:37:20.000Z</time>
      </trkpt>
      <trkpt lat="45.06705" lon="5.03514">
        <ele>171.7</ele>
        <time>2022-09-17T13:37:21.000Z</time>
      </trkpt>
      <trkpt lat="45.06702" lon="5.03507">
        <ele>171.8</ele>
        <time>2022-09-17T13:37:22.000Z</time>
      </trkpt>
      <trkpt lat="45.06699" lon="5.03499">
        <ele>172</ele>
        <time>2022-09-17T13:37:23.000Z</time>
      </trkpt>
      <trkpt lat="45.06696" lon="5.03491">
        <ele>172</ele>
        <time>2022-09-17T13:37:24.000Z</time>
      </trkpt>
      <trkpt lat="45.06693" lon="5.03484">
        <ele>171.9</ele>
        <time>2022-09-17T13:37:25.000Z</time>
      </trkpt>
      <trkpt lat="45.0669" lon="5.03476">
        <ele>171.8</ele>
        <time>2022-09-17T13:37:26.000Z</time>
      </trkpt>
      <trkpt lat="45.06687" lon="5.03469">
        <ele>171.8</ele>
        <time>2022-09-17T13:37:27.000Z</time>
      </trkpt>
      <trkpt lat="45.06684" lon="5.03461">
        <ele>171.8</ele>
        <time>2022-09-17T13:37:28.000Z</time>
      </trkpt>
      <trkpt lat="45.06681" lon="5.03454">
        <ele>171.8</ele>
        <time>2022-09-17T13:37:29.000Z</time>
      </trkpt>
      <trkpt lat="45.06678" lon="5.03446">
        <ele>172</ele>
        <time>2022-09-17T13:37:30.000Z</time>
      </trkpt>
      <trkpt lat="45.06675" lon="5.03439">
        <ele>172.1</ele>
        <time>2022-09-17T13:37:31.000Z</time>
      </trkpt>
      <trkpt lat="45.06672" lon="5.03432">
        <ele>172.4</ele>
        <time>2022-09-17T13:37:32.000Z</time>
      </trkpt>
      <trkpt lat="45.0667" lon="5.03426">
        <ele>172.6</ele>
        <time>2022-09-17T13:37:33.000Z</time>
      </trkpt>
      <trkpt lat="45.06668" lon="5.0342">
        <ele>172.9</ele>
        <time>2022-09-17T13:37:34.000Z</time>
      </trkpt>
      <trkpt lat="45.06666" lon="5.03414">
        <ele>172.9</ele>
        <time>2022-09-17T13:37:35.000Z</time>
      </trkpt>
      <trkpt lat="45.06664" lon="5.03407">
        <ele>172.6</ele>
        <time>2022-09-17T13:37:36.000Z</time>
      </trkpt>
      <trkpt lat="45.06663" lon="5.03401">
        <ele>172.4</ele>
        <time>2022-09-17T13:37:37.000Z</time>
      </trkpt>
      <trkpt lat="45.06661" lon="5.03393">
        <ele>172.1</ele>
        <time>2022-09-17T13:37:38.000Z</time>
      </trkpt>
      <trkpt lat="45.0666" lon="5.03386">
        <ele>172</ele>
        <time>2022-09-17T13:37:39.000Z</time>
      </trkpt>
      <trkpt lat="45.06658" lon="5.03378">
        <ele>172</ele>
        <time>2022-09-17T13:37:40.000Z</time>
      </trkpt>
      <trkpt lat="45.06657" lon="5.0337">
        <ele>172</ele>
        <time>2022-09-17T13:37:41.000Z</time>
      </trkpt>
      <trkpt lat="45.06655" lon="5.03361">
        <ele>172</ele>
        <time>2022-09-17T13:37:42.000Z</time>
      </trkpt>
      <trkpt lat="45.06652" lon="5.03353">
        <ele>172</ele>
        <time>2022-09-17T13:37:43.000Z</time>
      </trkpt>
      <trkpt lat="45.0665" lon="5.03344">
        <ele>172</ele>
        <time>2022-09-17T13:37:44.000Z</time>
      </trkpt>
      <trkpt lat="45.06648" lon="5.03336">
        <ele>172</ele>
        <time>2022-09-17T13:37:45.000Z</time>
      </trkpt>
      <trkpt lat="45.06646" lon="5.03328">
        <ele>172</ele>
        <time>2022-09-17T13:37:46.000Z</time>
      </trkpt>
      <trkpt lat="45.06643" lon="5.0332">
        <ele>172</ele>
        <time>2022-09-17T13:37:47.000Z</time>
      </trkpt>
      <trkpt lat="45.06642" lon="5.03313">
        <ele>172</ele>
        <time>2022-09-17T13:37:48.000Z</time>
      </trkpt>
      <trkpt lat="45.0664" lon="5.03305">
        <ele>172</ele>
        <time>2022-09-17T13:37:49.000Z</time>
      </trkpt>
      <trkpt lat="45.06638" lon="5.03298">
        <ele>172</ele>
        <time>2022-09-17T13:37:50.000Z</time>
      </trkpt>
      <trkpt lat="45.06636" lon="5.03291">
        <ele>171.9</ele>
        <time>2022-09-17T13:37:51.000Z</time>
      </trkpt>
      <trkpt lat="45.06634" lon="5.03285">
        <ele>171.8</ele>
        <time>2022-09-17T13:37:52.000Z</time>
      </trkpt>
      <trkpt lat="45.06632" lon="5.03278">
        <ele>171.8</ele>
        <time>2022-09-17T13:37:53.000Z</time>
      </trkpt>
      <trkpt lat="45.0663" lon="5.03271">
        <ele>171.7</ele>
        <time>2022-09-17T13:37:54.000Z</time>
      </trkpt>
      <trkpt lat="45.06629" lon="5.03265">
        <ele>171.6</ele>
        <time>2022-09-17T13:37:55.000Z</time>
      </trkpt>
      <trkpt lat="45.06627" lon="5.03258">
        <ele>171.6</ele>
        <time>2022-09-17T13:37:56.000Z</time>
      </trkpt>
      <trkpt lat="45.06625" lon="5.03252">
        <ele>171.5</ele>
        <time>2022-09-17T13:37:57.000Z</time>
      </trkpt>
      <trkpt lat="45.06623" lon="5.03245">
        <ele>171.5</ele>
        <time>2022-09-17T13:37:58.000Z</time>
      </trkpt>
      <trkpt lat="45.06621" lon="5.03238">
        <ele>171.6</ele>
        <time>2022-09-17T13:37:59.000Z</time>
      </trkpt>
      <trkpt lat="45.06619" lon="5.03231">
        <ele>171.8</ele>
        <time>2022-09-17T13:38:00.000Z</time>
      </trkpt>
      <trkpt lat="45.06617" lon="5.03225">
        <ele>171.9</ele>
        <time>2022-09-17T13:38:01.000Z</time>
      </trkpt>
      <trkpt lat="45.06615" lon="5.03218">
        <ele>172</ele>
        <time>2022-09-17T13:38:02.000Z</time>
      </trkpt>
      <trkpt lat="45.06614" lon="5.03211">
        <ele>172</ele>
        <time>2022-09-17T13:38:03.000Z</time>
      </trkpt>
      <trkpt lat="45.06612" lon="5.03204">
        <ele>172</ele>
        <time>2022-09-17T13:38:04.000Z</time>
      </trkpt>
      <trkpt lat="45.0661" lon="5.03198">
        <ele>172</ele>
        <time>2022-09-17T13:38:05.000Z</time>
      </trkpt>
      <trkpt lat="45.06608" lon="5.0319">
        <ele>171.7</ele>
        <time>2022-09-17T13:38:06.000Z</time>
      </trkpt>
      <trkpt lat="45.06606" lon="5.03183">
        <ele>171.5</ele>
        <time>2022-09-17T13:38:07.000Z</time>
      </trkpt>
      <trkpt lat="45.06604" lon="5.03176">
        <ele>171.2</ele>
        <time>2022-09-17T13:38:08.000Z</time>
      </trkpt>
      <trkpt lat="45.06602" lon="5.03168">
        <ele>171</ele>
        <time>2022-09-17T13:38:09.000Z</time>
      </trkpt>
      <trkpt lat="45.066" lon="5.03161">
        <ele>171</ele>
        <time>2022-09-17T13:38:10.000Z</time>
      </trkpt>
      <trkpt lat="45.06598" lon="5.03153">
        <ele>171</ele>
        <time>2022-09-17T13:38:11.000Z</time>
      </trkpt>
      <trkpt lat="45.06597" lon="5.03145">
        <ele>171</ele>
        <time>2022-09-17T13:38:12.000Z</time>
      </trkpt>
      <trkpt lat="45.06595" lon="5.03138">
        <ele>171</ele>
        <time>2022-09-17T13:38:13.000Z</time>
      </trkpt>
      <trkpt lat="45.06593" lon="5.0313">
        <ele>171</ele>
        <time>2022-09-17T13:38:14.000Z</time>
      </trkpt>
      <trkpt lat="45.06592" lon="5.03122">
        <ele>171</ele>
        <time>2022-09-17T13:38:15.000Z</time>
      </trkpt>
      <trkpt lat="45.0659" lon="5.03114">
        <ele>171</ele>
        <time>2022-09-17T13:38:16.000Z</time>
      </trkpt>
      <trkpt lat="45.06589" lon="5.03106">
        <ele>171</ele>
        <time>2022-09-17T13:38:17.000Z</time>
      </trkpt>
      <trkpt lat="45.06588" lon="5.03099">
        <ele>171</ele>
        <time>2022-09-17T13:38:18.000Z</time>
      </trkpt>
      <trkpt lat="45.06588" lon="5.03091">
        <ele>171</ele>
        <time>2022-09-17T13:38:19.000Z</time>
      </trkpt>
      <trkpt lat="45.06587" lon="5.03082">
        <ele>171</ele>
        <time>2022-09-17T13:38:20.000Z</time>
      </trkpt>
      <trkpt lat="45.06585" lon="5.03068">
        <ele>171</ele>
        <time>2022-09-17T13:38:21.000Z</time>
      </trkpt>
      <trkpt lat="45.06585" lon="5.03057">
        <ele>171</ele>
        <time>2022-09-17T13:38:22.000Z</time>
      </trkpt>
      <trkpt lat="45.06578" lon="5.03041">
        <ele>170.8</ele>
        <time>2022-09-17T13:38:23.000Z</time>
      </trkpt>
      <trkpt lat="45.06577" lon="5.03035">
        <ele>170.8</ele>
        <time>2022-09-17T13:38:24.000Z</time>
      </trkpt>
      <trkpt lat="45.06576" lon="5.03032">
        <ele>170.7</ele>
        <time>2022-09-17T13:38:26.000Z</time>
      </trkpt>
      <trkpt lat="45.06576" lon="5.03029">
        <ele>170.7</ele>
        <time>2022-09-17T13:38:27.000Z</time>
      </trkpt>
      <trkpt lat="45.06577" lon="5.03026">
        <ele>170.7</ele>
        <time>2022-09-17T13:38:28.000Z</time>
      </trkpt>
      <trkpt lat="45.06579" lon="5.0302">
        <ele>170.6</ele>
        <time>2022-09-17T13:38:29.000Z</time>
      </trkpt>
      <trkpt lat="45.06578" lon="5.03015">
        <ele>170.4</ele>
        <time>2022-09-17T13:38:30.000Z</time>
      </trkpt>
      <trkpt lat="45.06578" lon="5.03009">
        <ele>170.2</ele>
        <time>2022-09-17T13:38:31.000Z</time>
      </trkpt>
      <trkpt lat="45.06576" lon="5.02998">
        <ele>169.9</ele>
        <time>2022-09-17T13:38:32.000Z</time>
      </trkpt>
      <trkpt lat="45.06576" lon="5.02988">
        <ele>169.5</ele>
        <time>2022-09-17T13:38:33.000Z</time>
      </trkpt>
      <trkpt lat="45.06577" lon="5.02979">
        <ele>169.2</ele>
        <time>2022-09-17T13:38:34.000Z</time>
      </trkpt>
      <trkpt lat="45.06578" lon="5.02969">
        <ele>169.2</ele>
        <time>2022-09-17T13:38:35.000Z</time>
      </trkpt>
      <trkpt lat="45.06578" lon="5.02961">
        <ele>169.7</ele>
        <time>2022-09-17T13:38:36.000Z</time>
      </trkpt>
      <trkpt lat="45.06577" lon="5.02954">
        <ele>170.2</ele>
        <time>2022-09-17T13:38:37.000Z</time>
      </trkpt>
      <trkpt lat="45.06575" lon="5.02948">
        <ele>170.5</ele>
        <time>2022-09-17T13:38:38.000Z</time>
      </trkpt>
      <trkpt lat="45.06574" lon="5.02942">
        <ele>170.7</ele>
        <time>2022-09-17T13:38:39.000Z</time>
      </trkpt>
      <trkpt lat="45.06573" lon="5.02936">
        <ele>170.6</ele>
        <time>2022-09-17T13:38:40.000Z</time>
      </trkpt>
      <trkpt lat="45.06572" lon="5.02931">
        <ele>170.6</ele>
        <time>2022-09-17T13:38:41.000Z</time>
      </trkpt>
      <trkpt lat="45.06572" lon="5.02926">
        <ele>170.6</ele>
        <time>2022-09-17T13:38:42.000Z</time>
      </trkpt>
      <trkpt lat="45.06573" lon="5.0292">
        <ele>170.6</ele>
        <time>2022-09-17T13:38:43.000Z</time>
      </trkpt>
      <trkpt lat="45.06573" lon="5.02914">
        <ele>170.7</ele>
        <time>2022-09-17T13:38:44.000Z</time>
      </trkpt>
      <trkpt lat="45.06572" lon="5.02907">
        <ele>170.7</ele>
        <time>2022-09-17T13:38:45.000Z</time>
      </trkpt>
      <trkpt lat="45.06571" lon="5.02901">
        <ele>170.8</ele>
        <time>2022-09-17T13:38:46.000Z</time>
      </trkpt>
      <trkpt lat="45.06571" lon="5.02894">
        <ele>170.9</ele>
        <time>2022-09-17T13:38:47.000Z</time>
      </trkpt>
      <trkpt lat="45.06571" lon="5.02887">
        <ele>171</ele>
        <time>2022-09-17T13:38:48.000Z</time>
      </trkpt>
      <trkpt lat="45.0657" lon="5.0288">
        <ele>170.8</ele>
        <time>2022-09-17T13:38:49.000Z</time>
      </trkpt>
      <trkpt lat="45.06568" lon="5.02872">
        <ele>170.7</ele>
        <time>2022-09-17T13:38:50.000Z</time>
      </trkpt>
      <trkpt lat="45.06567" lon="5.02865">
        <ele>170.6</ele>
        <time>2022-09-17T13:38:51.000Z</time>
      </trkpt>
      <trkpt lat="45.06566" lon="5.02857">
        <ele>170.6</ele>
        <time>2022-09-17T13:38:52.000Z</time>
      </trkpt>
      <trkpt lat="45.06565" lon="5.0285">
        <ele>170.7</ele>
        <time>2022-09-17T13:38:53.000Z</time>
      </trkpt>
      <trkpt lat="45.06564" lon="5.02843">
        <ele>170.7</ele>
        <time>2022-09-17T13:38:54.000Z</time>
      </trkpt>
      <trkpt lat="45.06564" lon="5.02835">
        <ele>170.7</ele>
        <time>2022-09-17T13:38:55.000Z</time>
      </trkpt>
      <trkpt lat="45.06563" lon="5.02827">
        <ele>170.8</ele>
        <time>2022-09-17T13:38:56.000Z</time>
      </trkpt>
      <trkpt lat="45.06562" lon="5.02816">
        <ele>170.8</ele>
        <time>2022-09-17T13:38:57.000Z</time>
      </trkpt>
      <trkpt lat="45.06561" lon="5.02808">
        <ele>170.8</ele>
        <time>2022-09-17T13:38:58.000Z</time>
      </trkpt>
      <trkpt lat="45.0656" lon="5.02802">
        <ele>170.8</ele>
        <time>2022-09-17T13:38:59.000Z</time>
      </trkpt>
      <trkpt lat="45.0656" lon="5.02795">
        <ele>170.9</ele>
        <time>2022-09-17T13:39:00.000Z</time>
      </trkpt>
      <trkpt lat="45.06558" lon="5.02788">
        <ele>170.9</ele>
        <time>2022-09-17T13:39:01.000Z</time>
      </trkpt>
      <trkpt lat="45.06557" lon="5.02781">
        <ele>171</ele>
        <time>2022-09-17T13:39:02.000Z</time>
      </trkpt>
      <trkpt lat="45.06555" lon="5.02774">
        <ele>170.8</ele>
        <time>2022-09-17T13:39:03.000Z</time>
      </trkpt>
      <trkpt lat="45.06553" lon="5.02766">
        <ele>170.6</ele>
        <time>2022-09-17T13:39:04.000Z</time>
      </trkpt>
      <trkpt lat="45.06551" lon="5.02758">
        <ele>170.3</ele>
        <time>2022-09-17T13:39:05.000Z</time>
      </trkpt>
      <trkpt lat="45.06548" lon="5.0275">
        <ele>170</ele>
        <time>2022-09-17T13:39:06.000Z</time>
      </trkpt>
      <trkpt lat="45.06546" lon="5.02742">
        <ele>170.1</ele>
        <time>2022-09-17T13:39:07.000Z</time>
      </trkpt>
      <trkpt lat="45.06544" lon="5.02733">
        <ele>170.2</ele>
        <time>2022-09-17T13:39:08.000Z</time>
      </trkpt>
      <trkpt lat="45.06543" lon="5.02724">
        <ele>170.4</ele>
        <time>2022-09-17T13:39:09.000Z</time>
      </trkpt>
      <trkpt lat="45.06542" lon="5.02715">
        <ele>170.5</ele>
        <time>2022-09-17T13:39:10.000Z</time>
      </trkpt>
      <trkpt lat="45.06541" lon="5.02705">
        <ele>170.5</ele>
        <time>2022-09-17T13:39:11.000Z</time>
      </trkpt>
      <trkpt lat="45.0654" lon="5.02696">
        <ele>170.5</ele>
        <time>2022-09-17T13:39:12.000Z</time>
      </trkpt>
      <trkpt lat="45.06539" lon="5.02687">
        <ele>170.6</ele>
        <time>2022-09-17T13:39:13.000Z</time>
      </trkpt>
      <trkpt lat="45.06537" lon="5.02678">
        <ele>170.7</ele>
        <time>2022-09-17T13:39:14.000Z</time>
      </trkpt>
      <trkpt lat="45.06536" lon="5.02669">
        <ele>170.7</ele>
        <time>2022-09-17T13:39:15.000Z</time>
      </trkpt>
      <trkpt lat="45.06535" lon="5.0266">
        <ele>170.8</ele>
        <time>2022-09-17T13:39:16.000Z</time>
      </trkpt>
      <trkpt lat="45.06533" lon="5.02652">
        <ele>170.9</ele>
        <time>2022-09-17T13:39:17.000Z</time>
      </trkpt>
      <trkpt lat="45.06532" lon="5.02643">
        <ele>171</ele>
        <time>2022-09-17T13:39:18.000Z</time>
      </trkpt>
      <trkpt lat="45.06531" lon="5.02635">
        <ele>171.1</ele>
        <time>2022-09-17T13:39:19.000Z</time>
      </trkpt>
      <trkpt lat="45.06529" lon="5.02628">
        <ele>171.4</ele>
        <time>2022-09-17T13:39:20.000Z</time>
      </trkpt>
      <trkpt lat="45.06528" lon="5.0262">
        <ele>171.7</ele>
        <time>2022-09-17T13:39:21.000Z</time>
      </trkpt>
      <trkpt lat="45.06527" lon="5.02613">
        <ele>171.9</ele>
        <time>2022-09-17T13:39:22.000Z</time>
      </trkpt>
      <trkpt lat="45.06526" lon="5.02606">
        <ele>171.9</ele>
        <time>2022-09-17T13:39:23.000Z</time>
      </trkpt>
      <trkpt lat="45.06525" lon="5.02599">
        <ele>171.9</ele>
        <time>2022-09-17T13:39:24.000Z</time>
      </trkpt>
      <trkpt lat="45.06524" lon="5.02592">
        <ele>172</ele>
        <time>2022-09-17T13:39:25.000Z</time>
      </trkpt>
      <trkpt lat="45.06522" lon="5.02585">
        <ele>172</ele>
        <time>2022-09-17T13:39:26.000Z</time>
      </trkpt>
      <trkpt lat="45.06521" lon="5.02577">
        <ele>172.2</ele>
        <time>2022-09-17T13:39:27.000Z</time>
      </trkpt>
      <trkpt lat="45.0652" lon="5.0257">
        <ele>172.3</ele>
        <time>2022-09-17T13:39:28.000Z</time>
      </trkpt>
      <trkpt lat="45.06519" lon="5.02563">
        <ele>172.5</ele>
        <time>2022-09-17T13:39:29.000Z</time>
      </trkpt>
      <trkpt lat="45.06518" lon="5.02555">
        <ele>172.7</ele>
        <time>2022-09-17T13:39:30.000Z</time>
      </trkpt>
      <trkpt lat="45.06516" lon="5.02548">
        <ele>172.9</ele>
        <time>2022-09-17T13:39:31.000Z</time>
      </trkpt>
      <trkpt lat="45.06515" lon="5.02541">
        <ele>173.1</ele>
        <time>2022-09-17T13:39:32.000Z</time>
      </trkpt>
      <trkpt lat="45.06514" lon="5.02534">
        <ele>173.3</ele>
        <time>2022-09-17T13:39:33.000Z</time>
      </trkpt>
      <trkpt lat="45.06513" lon="5.02527">
        <ele>173.5</ele>
        <time>2022-09-17T13:39:34.000Z</time>
      </trkpt>
      <trkpt lat="45.06512" lon="5.02521">
        <ele>174</ele>
        <time>2022-09-17T13:39:35.000Z</time>
      </trkpt>
      <trkpt lat="45.0651" lon="5.02514">
        <ele>174.5</ele>
        <time>2022-09-17T13:39:36.000Z</time>
      </trkpt>
      <trkpt lat="45.06509" lon="5.02508">
        <ele>174.9</ele>
        <time>2022-09-17T13:39:37.000Z</time>
      </trkpt>
      <trkpt lat="45.06507" lon="5.02502">
        <ele>175.3</ele>
        <time>2022-09-17T13:39:38.000Z</time>
      </trkpt>
      <trkpt lat="45.06505" lon="5.02497">
        <ele>175.7</ele>
        <time>2022-09-17T13:39:39.000Z</time>
      </trkpt>
      <trkpt lat="45.06503" lon="5.02491">
        <ele>175.9</ele>
        <time>2022-09-17T13:39:40.000Z</time>
      </trkpt>
      <trkpt lat="45.065" lon="5.02486">
        <ele>176</ele>
        <time>2022-09-17T13:39:41.000Z</time>
      </trkpt>
      <trkpt lat="45.06498" lon="5.02481">
        <ele>176.1</ele>
        <time>2022-09-17T13:39:42.000Z</time>
      </trkpt>
      <trkpt lat="45.06495" lon="5.02476">
        <ele>176.2</ele>
        <time>2022-09-17T13:39:43.000Z</time>
      </trkpt>
      <trkpt lat="45.06491" lon="5.02472">
        <ele>176.1</ele>
        <time>2022-09-17T13:39:44.000Z</time>
      </trkpt>
      <trkpt lat="45.06488" lon="5.02467">
        <ele>176.2</ele>
        <time>2022-09-17T13:39:45.000Z</time>
      </trkpt>
      <trkpt lat="45.06485" lon="5.02463">
        <ele>176.4</ele>
        <time>2022-09-17T13:39:46.000Z</time>
      </trkpt>
      <trkpt lat="45.06482" lon="5.02458">
        <ele>176.5</ele>
        <time>2022-09-17T13:39:47.000Z</time>
      </trkpt>
      <trkpt lat="45.06478" lon="5.02454">
        <ele>176.6</ele>
        <time>2022-09-17T13:39:48.000Z</time>
      </trkpt>
      <trkpt lat="45.06475" lon="5.0245">
        <ele>176.7</ele>
        <time>2022-09-17T13:39:49.000Z</time>
      </trkpt>
      <trkpt lat="45.06471" lon="5.02446">
        <ele>176.7</ele>
        <time>2022-09-17T13:39:50.000Z</time>
      </trkpt>
      <trkpt lat="45.06468" lon="5.02442">
        <ele>176.8</ele>
        <time>2022-09-17T13:39:51.000Z</time>
      </trkpt>
      <trkpt lat="45.06465" lon="5.02438">
        <ele>177.1</ele>
        <time>2022-09-17T13:39:52.000Z</time>
      </trkpt>
      <trkpt lat="45.06462" lon="5.02434">
        <ele>177.2</ele>
        <time>2022-09-17T13:39:53.000Z</time>
      </trkpt>
      <trkpt lat="45.06459" lon="5.0243">
        <ele>177.3</ele>
        <time>2022-09-17T13:39:54.000Z</time>
      </trkpt>
      <trkpt lat="45.06456" lon="5.02426">
        <ele>177.5</ele>
        <time>2022-09-17T13:39:55.000Z</time>
      </trkpt>
      <trkpt lat="45.06453" lon="5.02421">
        <ele>177.7</ele>
        <time>2022-09-17T13:39:56.000Z</time>
      </trkpt>
      <trkpt lat="45.0645" lon="5.02417">
        <ele>177.8</ele>
        <time>2022-09-17T13:39:57.000Z</time>
      </trkpt>
      <trkpt lat="45.06447" lon="5.02412">
        <ele>178</ele>
        <time>2022-09-17T13:39:58.000Z</time>
      </trkpt>
      <trkpt lat="45.06444" lon="5.02408">
        <ele>178.2</ele>
        <time>2022-09-17T13:39:59.000Z</time>
      </trkpt>
      <trkpt lat="45.06441" lon="5.02404">
        <ele>178.4</ele>
        <time>2022-09-17T13:40:00.000Z</time>
      </trkpt>
      <trkpt lat="45.06439" lon="5.02399">
        <ele>178.5</ele>
        <time>2022-09-17T13:40:01.000Z</time>
      </trkpt>
      <trkpt lat="45.06436" lon="5.02394">
        <ele>178.6</ele>
        <time>2022-09-17T13:40:02.000Z</time>
      </trkpt>
      <trkpt lat="45.06434" lon="5.02389">
        <ele>178.6</ele>
        <time>2022-09-17T13:40:03.000Z</time>
      </trkpt>
      <trkpt lat="45.06432" lon="5.02384">
        <ele>178.6</ele>
        <time>2022-09-17T13:40:04.000Z</time>
      </trkpt>
      <trkpt lat="45.0643" lon="5.02379">
        <ele>178.5</ele>
        <time>2022-09-17T13:40:05.000Z</time>
      </trkpt>
      <trkpt lat="45.06428" lon="5.02373">
        <ele>178.6</ele>
        <time>2022-09-17T13:40:06.000Z</time>
      </trkpt>
      <trkpt lat="45.06426" lon="5.02367">
        <ele>178.7</ele>
        <time>2022-09-17T13:40:07.000Z</time>
      </trkpt>
      <trkpt lat="45.06425" lon="5.02361">
        <ele>178.8</ele>
        <time>2022-09-17T13:40:08.000Z</time>
      </trkpt>
      <trkpt lat="45.06424" lon="5.02355">
        <ele>178.9</ele>
        <time>2022-09-17T13:40:09.000Z</time>
      </trkpt>
      <trkpt lat="45.06422" lon="5.02349">
        <ele>178.9</ele>
        <time>2022-09-17T13:40:10.000Z</time>
      </trkpt>
      <trkpt lat="45.06421" lon="5.02343">
        <ele>179</ele>
        <time>2022-09-17T13:40:11.000Z</time>
      </trkpt>
      <trkpt lat="45.06419" lon="5.02336">
        <ele>179.2</ele>
        <time>2022-09-17T13:40:12.000Z</time>
      </trkpt>
      <trkpt lat="45.06417" lon="5.02329">
        <ele>179.1</ele>
        <time>2022-09-17T13:40:13.000Z</time>
      </trkpt>
      <trkpt lat="45.06415" lon="5.02322">
        <ele>178.8</ele>
        <time>2022-09-17T13:40:14.000Z</time>
      </trkpt>
      <trkpt lat="45.06412" lon="5.02316">
        <ele>178.6</ele>
        <time>2022-09-17T13:40:15.000Z</time>
      </trkpt>
      <trkpt lat="45.06409" lon="5.02309">
        <ele>178.4</ele>
        <time>2022-09-17T13:40:16.000Z</time>
      </trkpt>
      <trkpt lat="45.06406" lon="5.02302">
        <ele>178.3</ele>
        <time>2022-09-17T13:40:17.000Z</time>
      </trkpt>
      <trkpt lat="45.06402" lon="5.02296">
        <ele>178.1</ele>
        <time>2022-09-17T13:40:18.000Z</time>
      </trkpt>
      <trkpt lat="45.06399" lon="5.02289">
        <ele>177.9</ele>
        <time>2022-09-17T13:40:19.000Z</time>
      </trkpt>
      <trkpt lat="45.06395" lon="5.02282">
        <ele>177.6</ele>
        <time>2022-09-17T13:40:20.000Z</time>
      </trkpt>
      <trkpt lat="45.06391" lon="5.02274">
        <ele>177.5</ele>
        <time>2022-09-17T13:40:21.000Z</time>
      </trkpt>
      <trkpt lat="45.06387" lon="5.02266">
        <ele>177.7</ele>
        <time>2022-09-17T13:40:22.000Z</time>
      </trkpt>
      <trkpt lat="45.06383" lon="5.02258">
        <ele>177.9</ele>
        <time>2022-09-17T13:40:23.000Z</time>
      </trkpt>
      <trkpt lat="45.06379" lon="5.0225">
        <ele>177.9</ele>
        <time>2022-09-17T13:40:24.000Z</time>
      </trkpt>
      <trkpt lat="45.06375" lon="5.02241">
        <ele>178</ele>
        <time>2022-09-17T13:40:25.000Z</time>
      </trkpt>
      <trkpt lat="45.06372" lon="5.02232">
        <ele>178</ele>
        <time>2022-09-17T13:40:26.000Z</time>
      </trkpt>
      <trkpt lat="45.06369" lon="5.02224">
        <ele>178</ele>
        <time>2022-09-17T13:40:27.000Z</time>
      </trkpt>
      <trkpt lat="45.06366" lon="5.02215">
        <ele>178.2</ele>
        <time>2022-09-17T13:40:28.000Z</time>
      </trkpt>
      <trkpt lat="45.06363" lon="5.02207">
        <ele>178.5</ele>
        <time>2022-09-17T13:40:29.000Z</time>
      </trkpt>
      <trkpt lat="45.06361" lon="5.02199">
        <ele>178.7</ele>
        <time>2022-09-17T13:40:30.000Z</time>
      </trkpt>
      <trkpt lat="45.06358" lon="5.02192">
        <ele>178.8</ele>
        <time>2022-09-17T13:40:31.000Z</time>
      </trkpt>
      <trkpt lat="45.06355" lon="5.02185">
        <ele>178.8</ele>
        <time>2022-09-17T13:40:32.000Z</time>
      </trkpt>
      <trkpt lat="45.06352" lon="5.02179">
        <ele>178.8</ele>
        <time>2022-09-17T13:40:33.000Z</time>
      </trkpt>
      <trkpt lat="45.06349" lon="5.02174">
        <ele>178.8</ele>
        <time>2022-09-17T13:40:34.000Z</time>
      </trkpt>
      <trkpt lat="45.06346" lon="5.02168">
        <ele>178.7</ele>
        <time>2022-09-17T13:40:35.000Z</time>
      </trkpt>
      <trkpt lat="45.06343" lon="5.02163">
        <ele>178.7</ele>
        <time>2022-09-17T13:40:36.000Z</time>
      </trkpt>
      <trkpt lat="45.06339" lon="5.02158">
        <ele>178.7</ele>
        <time>2022-09-17T13:40:37.000Z</time>
      </trkpt>
      <trkpt lat="45.06335" lon="5.02152">
        <ele>178.9</ele>
        <time>2022-09-17T13:40:38.000Z</time>
      </trkpt>
      <trkpt lat="45.06331" lon="5.02145">
        <ele>179</ele>
        <time>2022-09-17T13:40:39.000Z</time>
      </trkpt>
      <trkpt lat="45.06328" lon="5.02137">
        <ele>179</ele>
        <time>2022-09-17T13:40:40.000Z</time>
      </trkpt>
      <trkpt lat="45.06324" lon="5.02128">
        <ele>178.6</ele>
        <time>2022-09-17T13:40:41.000Z</time>
      </trkpt>
      <trkpt lat="45.0632" lon="5.02118">
        <ele>178.1</ele>
        <time>2022-09-17T13:40:42.000Z</time>
      </trkpt>
      <trkpt lat="45.06317" lon="5.02107">
        <ele>177.6</ele>
        <time>2022-09-17T13:40:43.000Z</time>
      </trkpt>
      <trkpt lat="45.06314" lon="5.02096">
        <ele>177.3</ele>
        <time>2022-09-17T13:40:44.000Z</time>
      </trkpt>
      <trkpt lat="45.06311" lon="5.02085">
        <ele>177</ele>
        <time>2022-09-17T13:40:45.000Z</time>
      </trkpt>
      <trkpt lat="45.06307" lon="5.02075">
        <ele>177</ele>
        <time>2022-09-17T13:40:46.000Z</time>
      </trkpt>
      <trkpt lat="45.06304" lon="5.02064">
        <ele>177.1</ele>
        <time>2022-09-17T13:40:47.000Z</time>
      </trkpt>
      <trkpt lat="45.063" lon="5.02053">
        <ele>177.2</ele>
        <time>2022-09-17T13:40:48.000Z</time>
      </trkpt>
      <trkpt lat="45.06297" lon="5.02043">
        <ele>177</ele>
        <time>2022-09-17T13:40:49.000Z</time>
      </trkpt>
      <trkpt lat="45.06293" lon="5.02032">
        <ele>176.7</ele>
        <time>2022-09-17T13:40:50.000Z</time>
      </trkpt>
      <trkpt lat="45.06289" lon="5.02022">
        <ele>176.2</ele>
        <time>2022-09-17T13:40:51.000Z</time>
      </trkpt>
      <trkpt lat="45.06285" lon="5.02012">
        <ele>175.8</ele>
        <time>2022-09-17T13:40:52.000Z</time>
      </trkpt>
      <trkpt lat="45.06281" lon="5.02002">
        <ele>175.5</ele>
        <time>2022-09-17T13:40:53.000Z</time>
      </trkpt>
      <trkpt lat="45.06276" lon="5.01993">
        <ele>175.6</ele>
        <time>2022-09-17T13:40:54.000Z</time>
      </trkpt>
      <trkpt lat="45.06272" lon="5.01983">
        <ele>175.9</ele>
        <time>2022-09-17T13:40:55.000Z</time>
      </trkpt>
      <trkpt lat="45.06268" lon="5.01974">
        <ele>176.1</ele>
        <time>2022-09-17T13:40:56.000Z</time>
      </trkpt>
      <trkpt lat="45.06264" lon="5.01965">
        <ele>175.7</ele>
        <time>2022-09-17T13:40:57.000Z</time>
      </trkpt>
      <trkpt lat="45.0626" lon="5.01955">
        <ele>175.6</ele>
        <time>2022-09-17T13:40:58.000Z</time>
      </trkpt>
      <trkpt lat="45.06256" lon="5.01947">
        <ele>175.6</ele>
        <time>2022-09-17T13:40:59.000Z</time>
      </trkpt>
      <trkpt lat="45.06252" lon="5.01938">
        <ele>175.5</ele>
        <time>2022-09-17T13:41:00.000Z</time>
      </trkpt>
      <trkpt lat="45.06249" lon="5.0193">
        <ele>175.4</ele>
        <time>2022-09-17T13:41:01.000Z</time>
      </trkpt>
      <trkpt lat="45.06245" lon="5.01922">
        <ele>175.3</ele>
        <time>2022-09-17T13:41:02.000Z</time>
      </trkpt>
      <trkpt lat="45.06242" lon="5.01913">
        <ele>175.2</ele>
        <time>2022-09-17T13:41:03.000Z</time>
      </trkpt>
      <trkpt lat="45.06239" lon="5.01904">
        <ele>175.2</ele>
        <time>2022-09-17T13:41:04.000Z</time>
      </trkpt>
      <trkpt lat="45.06235" lon="5.01896">
        <ele>175.2</ele>
        <time>2022-09-17T13:41:05.000Z</time>
      </trkpt>
      <trkpt lat="45.06232" lon="5.01887">
        <ele>175.2</ele>
        <time>2022-09-17T13:41:06.000Z</time>
      </trkpt>
      <trkpt lat="45.0623" lon="5.01878">
        <ele>175.2</ele>
        <time>2022-09-17T13:41:07.000Z</time>
      </trkpt>
      <trkpt lat="45.06227" lon="5.01869">
        <ele>175.2</ele>
        <time>2022-09-17T13:41:08.000Z</time>
      </trkpt>
      <trkpt lat="45.06225" lon="5.0186">
        <ele>175.3</ele>
        <time>2022-09-17T13:41:09.000Z</time>
      </trkpt>
      <trkpt lat="45.06223" lon="5.01851">
        <ele>175.4</ele>
        <time>2022-09-17T13:41:10.000Z</time>
      </trkpt>
      <trkpt lat="45.0622" lon="5.01842">
        <ele>175.2</ele>
        <time>2022-09-17T13:41:11.000Z</time>
      </trkpt>
      <trkpt lat="45.06218" lon="5.01832">
        <ele>175</ele>
        <time>2022-09-17T13:41:12.000Z</time>
      </trkpt>
      <trkpt lat="45.06215" lon="5.01823">
        <ele>174.8</ele>
        <time>2022-09-17T13:41:13.000Z</time>
      </trkpt>
      <trkpt lat="45.06212" lon="5.01813">
        <ele>174.5</ele>
        <time>2022-09-17T13:41:14.000Z</time>
      </trkpt>
      <trkpt lat="45.0621" lon="5.01803">
        <ele>174.3</ele>
        <time>2022-09-17T13:41:15.000Z</time>
      </trkpt>
      <trkpt lat="45.06207" lon="5.01794">
        <ele>174.1</ele>
        <time>2022-09-17T13:41:16.000Z</time>
      </trkpt>
      <trkpt lat="45.06204" lon="5.01784">
        <ele>173.9</ele>
        <time>2022-09-17T13:41:17.000Z</time>
      </trkpt>
      <trkpt lat="45.06201" lon="5.01774">
        <ele>173.8</ele>
        <time>2022-09-17T13:41:18.000Z</time>
      </trkpt>
      <trkpt lat="45.06199" lon="5.01765">
        <ele>174.1</ele>
        <time>2022-09-17T13:41:19.000Z</time>
      </trkpt>
      <trkpt lat="45.06196" lon="5.01756">
        <ele>174.6</ele>
        <time>2022-09-17T13:41:20.000Z</time>
      </trkpt>
      <trkpt lat="45.06194" lon="5.01747">
        <ele>175.1</ele>
        <time>2022-09-17T13:41:21.000Z</time>
      </trkpt>
      <trkpt lat="45.06192" lon="5.01739">
        <ele>175.1</ele>
        <time>2022-09-17T13:41:22.000Z</time>
      </trkpt>
      <trkpt lat="45.06191" lon="5.0173">
        <ele>175.1</ele>
        <time>2022-09-17T13:41:23.000Z</time>
      </trkpt>
      <trkpt lat="45.06189" lon="5.01721">
        <ele>175.2</ele>
        <time>2022-09-17T13:41:24.000Z</time>
      </trkpt>
      <trkpt lat="45.06187" lon="5.01712">
        <ele>175.3</ele>
        <time>2022-09-17T13:41:25.000Z</time>
      </trkpt>
      <trkpt lat="45.06185" lon="5.01704">
        <ele>175.3</ele>
        <time>2022-09-17T13:41:26.000Z</time>
      </trkpt>
      <trkpt lat="45.06183" lon="5.01695">
        <ele>175.3</ele>
        <time>2022-09-17T13:41:27.000Z</time>
      </trkpt>
      <trkpt lat="45.06181" lon="5.01687">
        <ele>175.1</ele>
        <time>2022-09-17T13:41:28.000Z</time>
      </trkpt>
      <trkpt lat="45.06178" lon="5.01678">
        <ele>175</ele>
        <time>2022-09-17T13:41:29.000Z</time>
      </trkpt>
      <trkpt lat="45.06176" lon="5.01669">
        <ele>175</ele>
        <time>2022-09-17T13:41:30.000Z</time>
      </trkpt>
      <trkpt lat="45.06176" lon="5.01659">
        <ele>175</ele>
        <time>2022-09-17T13:41:31.000Z</time>
      </trkpt>
      <trkpt lat="45.06175" lon="5.0165">
        <ele>174.9</ele>
        <time>2022-09-17T13:41:32.000Z</time>
      </trkpt>
      <trkpt lat="45.06174" lon="5.0164">
        <ele>174.8</ele>
        <time>2022-09-17T13:41:33.000Z</time>
      </trkpt>
      <trkpt lat="45.06173" lon="5.01631">
        <ele>175</ele>
        <time>2022-09-17T13:41:34.000Z</time>
      </trkpt>
      <trkpt lat="45.06171" lon="5.01622">
        <ele>175.2</ele>
        <time>2022-09-17T13:41:35.000Z</time>
      </trkpt>
      <trkpt lat="45.0617" lon="5.01613">
        <ele>175.4</ele>
        <time>2022-09-17T13:41:36.000Z</time>
      </trkpt>
      <trkpt lat="45.06168" lon="5.01605">
        <ele>175.4</ele>
        <time>2022-09-17T13:41:37.000Z</time>
      </trkpt>
      <trkpt lat="45.06166" lon="5.01597">
        <ele>175.4</ele>
        <time>2022-09-17T13:41:38.000Z</time>
      </trkpt>
      <trkpt lat="45.06163" lon="5.01589">
        <ele>175.3</ele>
        <time>2022-09-17T13:41:39.000Z</time>
      </trkpt>
      <trkpt lat="45.06161" lon="5.01581">
        <ele>175.2</ele>
        <time>2022-09-17T13:41:40.000Z</time>
      </trkpt>
      <trkpt lat="45.06159" lon="5.01572">
        <ele>175.1</ele>
        <time>2022-09-17T13:41:41.000Z</time>
      </trkpt>
      <trkpt lat="45.06156" lon="5.01563">
        <ele>174.9</ele>
        <time>2022-09-17T13:41:42.000Z</time>
      </trkpt>
      <trkpt lat="45.06154" lon="5.01553">
        <ele>174.7</ele>
        <time>2022-09-17T13:41:43.000Z</time>
      </trkpt>
      <trkpt lat="45.06151" lon="5.01543">
        <ele>174.2</ele>
        <time>2022-09-17T13:41:44.000Z</time>
      </trkpt>
      <trkpt lat="45.06149" lon="5.01533">
        <ele>173.8</ele>
        <time>2022-09-17T13:41:45.000Z</time>
      </trkpt>
      <trkpt lat="45.06147" lon="5.01523">
        <ele>173.7</ele>
        <time>2022-09-17T13:41:46.000Z</time>
      </trkpt>
      <trkpt lat="45.06145" lon="5.01512">
        <ele>174</ele>
        <time>2022-09-17T13:41:47.000Z</time>
      </trkpt>
      <trkpt lat="45.06143" lon="5.01502">
        <ele>174.4</ele>
        <time>2022-09-17T13:41:48.000Z</time>
      </trkpt>
      <trkpt lat="45.06141" lon="5.01493">
        <ele>174.5</ele>
        <time>2022-09-17T13:41:49.000Z</time>
      </trkpt>
      <trkpt lat="45.06139" lon="5.01483">
        <ele>174.6</ele>
        <time>2022-09-17T13:41:50.000Z</time>
      </trkpt>
      <trkpt lat="45.06137" lon="5.01474">
        <ele>174.6</ele>
        <time>2022-09-17T13:41:51.000Z</time>
      </trkpt>
      <trkpt lat="45.06135" lon="5.01465">
        <ele>174.9</ele>
        <time>2022-09-17T13:41:52.000Z</time>
      </trkpt>
      <trkpt lat="45.06134" lon="5.01456">
        <ele>175.1</ele>
        <time>2022-09-17T13:41:53.000Z</time>
      </trkpt>
      <trkpt lat="45.06132" lon="5.01448">
        <ele>175.2</ele>
        <time>2022-09-17T13:41:54.000Z</time>
      </trkpt>
      <trkpt lat="45.0613" lon="5.0144">
        <ele>175.1</ele>
        <time>2022-09-17T13:41:55.000Z</time>
      </trkpt>
      <trkpt lat="45.06128" lon="5.01432">
        <ele>174.9</ele>
        <time>2022-09-17T13:41:56.000Z</time>
      </trkpt>
      <trkpt lat="45.06127" lon="5.01424">
        <ele>174.8</ele>
        <time>2022-09-17T13:41:57.000Z</time>
      </trkpt>
      <trkpt lat="45.06126" lon="5.01416">
        <ele>174.7</ele>
        <time>2022-09-17T13:41:58.000Z</time>
      </trkpt>
      <trkpt lat="45.06125" lon="5.01408">
        <ele>174.5</ele>
        <time>2022-09-17T13:41:59.000Z</time>
      </trkpt>
      <trkpt lat="45.06124" lon="5.01399">
        <ele>174.3</ele>
        <time>2022-09-17T13:42:00.000Z</time>
      </trkpt>
      <trkpt lat="45.06123" lon="5.0139">
        <ele>174.1</ele>
        <time>2022-09-17T13:42:01.000Z</time>
      </trkpt>
      <trkpt lat="45.06121" lon="5.0138">
        <ele>174.1</ele>
        <time>2022-09-17T13:42:02.000Z</time>
      </trkpt>
      <trkpt lat="45.0612" lon="5.01371">
        <ele>174.2</ele>
        <time>2022-09-17T13:42:03.000Z</time>
      </trkpt>
      <trkpt lat="45.06118" lon="5.01362">
        <ele>174.2</ele>
        <time>2022-09-17T13:42:04.000Z</time>
      </trkpt>
      <trkpt lat="45.06117" lon="5.01353">
        <ele>174.5</ele>
        <time>2022-09-17T13:42:05.000Z</time>
      </trkpt>
      <trkpt lat="45.06115" lon="5.01344">
        <ele>174.8</ele>
        <time>2022-09-17T13:42:06.000Z</time>
      </trkpt>
      <trkpt lat="45.06114" lon="5.01335">
        <ele>175.3</ele>
        <time>2022-09-17T13:42:07.000Z</time>
      </trkpt>
      <trkpt lat="45.06112" lon="5.01327">
        <ele>175.2</ele>
        <time>2022-09-17T13:42:08.000Z</time>
      </trkpt>
      <trkpt lat="45.06111" lon="5.01319">
        <ele>175</ele>
        <time>2022-09-17T13:42:09.000Z</time>
      </trkpt>
      <trkpt lat="45.0611" lon="5.01311">
        <ele>174.9</ele>
        <time>2022-09-17T13:42:10.000Z</time>
      </trkpt>
      <trkpt lat="45.06109" lon="5.01302">
        <ele>174.9</ele>
        <time>2022-09-17T13:42:11.000Z</time>
      </trkpt>
      <trkpt lat="45.06108" lon="5.01294">
        <ele>175</ele>
        <time>2022-09-17T13:42:12.000Z</time>
      </trkpt>
      <trkpt lat="45.06107" lon="5.01285">
        <ele>175</ele>
        <time>2022-09-17T13:42:13.000Z</time>
      </trkpt>
      <trkpt lat="45.06106" lon="5.01276">
        <ele>175.1</ele>
        <time>2022-09-17T13:42:14.000Z</time>
      </trkpt>
      <trkpt lat="45.06106" lon="5.01268">
        <ele>174.9</ele>
        <time>2022-09-17T13:42:15.000Z</time>
      </trkpt>
      <trkpt lat="45.06106" lon="5.01261">
        <ele>174.7</ele>
        <time>2022-09-17T13:42:16.000Z</time>
      </trkpt>
      <trkpt lat="45.06106" lon="5.01254">
        <ele>174.5</ele>
        <time>2022-09-17T13:42:17.000Z</time>
      </trkpt>
      <trkpt lat="45.06106" lon="5.01247">
        <ele>174.3</ele>
        <time>2022-09-17T13:42:18.000Z</time>
      </trkpt>
      <trkpt lat="45.06105" lon="5.0124">
        <ele>174.1</ele>
        <time>2022-09-17T13:42:19.000Z</time>
      </trkpt>
      <trkpt lat="45.06105" lon="5.01234">
        <ele>173.9</ele>
        <time>2022-09-17T13:42:20.000Z</time>
      </trkpt>
      <trkpt lat="45.06105" lon="5.01226">
        <ele>173.6</ele>
        <time>2022-09-17T13:42:21.000Z</time>
      </trkpt>
      <trkpt lat="45.06105" lon="5.01219">
        <ele>173.5</ele>
        <time>2022-09-17T13:42:22.000Z</time>
      </trkpt>
      <trkpt lat="45.06105" lon="5.01212">
        <ele>173.5</ele>
        <time>2022-09-17T13:42:23.000Z</time>
      </trkpt>
      <trkpt lat="45.06103" lon="5.01205">
        <ele>173.2</ele>
        <time>2022-09-17T13:42:24.000Z</time>
      </trkpt>
      <trkpt lat="45.06095" lon="5.01187">
        <ele>172.4</ele>
        <time>2022-09-17T13:42:25.000Z</time>
      </trkpt>
      <trkpt lat="45.06096" lon="5.0118">
        <ele>172.6</ele>
        <time>2022-09-17T13:42:26.000Z</time>
      </trkpt>
      <trkpt lat="45.06099" lon="5.01185">
        <ele>172.9</ele>
        <time>2022-09-17T13:42:27.000Z</time>
      </trkpt>
      <trkpt lat="45.06098" lon="5.01179">
        <ele>172.9</ele>
        <time>2022-09-17T13:42:28.000Z</time>
      </trkpt>
      <trkpt lat="45.06097" lon="5.01168">
        <ele>172.9</ele>
        <time>2022-09-17T13:42:29.000Z</time>
      </trkpt>
      <trkpt lat="45.06097" lon="5.01155">
        <ele>172.6</ele>
        <time>2022-09-17T13:42:30.000Z</time>
      </trkpt>
      <trkpt lat="45.061" lon="5.01146">
        <ele>172.5</ele>
        <time>2022-09-17T13:42:31.000Z</time>
      </trkpt>
      <trkpt lat="45.06102" lon="5.01135">
        <ele>172.2</ele>
        <time>2022-09-17T13:42:32.000Z</time>
      </trkpt>
      <trkpt lat="45.06104" lon="5.01132">
        <ele>172.2</ele>
        <time>2022-09-17T13:42:33.000Z</time>
      </trkpt>
      <trkpt lat="45.06106" lon="5.0113">
        <ele>172.3</ele>
        <time>2022-09-17T13:42:34.000Z</time>
      </trkpt>
      <trkpt lat="45.0611" lon="5.01127">
        <ele>172.5</ele>
        <time>2022-09-17T13:42:35.000Z</time>
      </trkpt>
      <trkpt lat="45.06115" lon="5.01126">
        <ele>172.9</ele>
        <time>2022-09-17T13:42:36.000Z</time>
      </trkpt>
      <trkpt lat="45.06118" lon="5.01125">
        <ele>173.2</ele>
        <time>2022-09-17T13:42:37.000Z</time>
      </trkpt>
      <trkpt lat="45.0612" lon="5.01124">
        <ele>173.4</ele>
        <time>2022-09-17T13:42:38.000Z</time>
      </trkpt>
      <trkpt lat="45.06123" lon="5.01123">
        <ele>173.6</ele>
        <time>2022-09-17T13:42:39.000Z</time>
      </trkpt>
      <trkpt lat="45.06125" lon="5.01123">
        <ele>173.8</ele>
        <time>2022-09-17T13:42:40.000Z</time>
      </trkpt>
      <trkpt lat="45.06128" lon="5.01122">
        <ele>174.1</ele>
        <time>2022-09-17T13:42:41.000Z</time>
      </trkpt>
      <trkpt lat="45.0613" lon="5.01122">
        <ele>174.3</ele>
        <time>2022-09-17T13:42:42.000Z</time>
      </trkpt>
      <trkpt lat="45.06133" lon="5.0112">
        <ele>174.4</ele>
        <time>2022-09-17T13:42:43.000Z</time>
      </trkpt>
      <trkpt lat="45.06135" lon="5.01119">
        <ele>174.5</ele>
        <time>2022-09-17T13:42:44.000Z</time>
      </trkpt>
      <trkpt lat="45.06138" lon="5.01118">
        <ele>174.6</ele>
        <time>2022-09-17T13:42:45.000Z</time>
      </trkpt>
      <trkpt lat="45.06141" lon="5.01117">
        <ele>174.7</ele>
        <time>2022-09-17T13:42:46.000Z</time>
      </trkpt>
      <trkpt lat="45.06143" lon="5.01116">
        <ele>174.7</ele>
        <time>2022-09-17T13:42:47.000Z</time>
      </trkpt>
      <trkpt lat="45.06146" lon="5.01115">
        <ele>174.7</ele>
        <time>2022-09-17T13:42:48.000Z</time>
      </trkpt>
      <trkpt lat="45.0615" lon="5.01115">
        <ele>174.7</ele>
        <time>2022-09-17T13:42:49.000Z</time>
      </trkpt>
      <trkpt lat="45.06153" lon="5.01114">
        <ele>174.7</ele>
        <time>2022-09-17T13:42:50.000Z</time>
      </trkpt>
      <trkpt lat="45.06156" lon="5.01112">
        <ele>174.7</ele>
        <time>2022-09-17T13:42:51.000Z</time>
      </trkpt>
      <trkpt lat="45.06159" lon="5.0111">
        <ele>174.7</ele>
        <time>2022-09-17T13:42:52.000Z</time>
      </trkpt>
      <trkpt lat="45.06161" lon="5.01109">
        <ele>174.7</ele>
        <time>2022-09-17T13:42:53.000Z</time>
      </trkpt>
      <trkpt lat="45.06164" lon="5.01107">
        <ele>174.8</ele>
        <time>2022-09-17T13:42:54.000Z</time>
      </trkpt>
      <trkpt lat="45.06167" lon="5.01106">
        <ele>174.8</ele>
        <time>2022-09-17T13:42:55.000Z</time>
      </trkpt>
      <trkpt lat="45.0617" lon="5.01105">
        <ele>175.1</ele>
        <time>2022-09-17T13:42:56.000Z</time>
      </trkpt>
      <trkpt lat="45.06173" lon="5.01103">
        <ele>175.3</ele>
        <time>2022-09-17T13:42:57.000Z</time>
      </trkpt>
      <trkpt lat="45.06176" lon="5.01102">
        <ele>175.6</ele>
        <time>2022-09-17T13:42:58.000Z</time>
      </trkpt>
      <trkpt lat="45.0618" lon="5.011">
        <ele>175.8</ele>
        <time>2022-09-17T13:42:59.000Z</time>
      </trkpt>
      <trkpt lat="45.06183" lon="5.01099">
        <ele>176.1</ele>
        <time>2022-09-17T13:43:00.000Z</time>
      </trkpt>
      <trkpt lat="45.06187" lon="5.01097">
        <ele>176.3</ele>
        <time>2022-09-17T13:43:01.000Z</time>
      </trkpt>
      <trkpt lat="45.06191" lon="5.01096">
        <ele>176.6</ele>
        <time>2022-09-17T13:43:02.000Z</time>
      </trkpt>
      <trkpt lat="45.06194" lon="5.01095">
        <ele>176.8</ele>
        <time>2022-09-17T13:43:03.000Z</time>
      </trkpt>
      <trkpt lat="45.06198" lon="5.01093">
        <ele>177</ele>
        <time>2022-09-17T13:43:04.000Z</time>
      </trkpt>
      <trkpt lat="45.06202" lon="5.01092">
        <ele>177.2</ele>
        <time>2022-09-17T13:43:05.000Z</time>
      </trkpt>
      <trkpt lat="45.06205" lon="5.01091">
        <ele>177.4</ele>
        <time>2022-09-17T13:43:06.000Z</time>
      </trkpt>
      <trkpt lat="45.06208" lon="5.01089">
        <ele>177.5</ele>
        <time>2022-09-17T13:43:07.000Z</time>
      </trkpt>
      <trkpt lat="45.06212" lon="5.01088">
        <ele>177.7</ele>
        <time>2022-09-17T13:43:08.000Z</time>
      </trkpt>
      <trkpt lat="45.06215" lon="5.01087">
        <ele>177.8</ele>
        <time>2022-09-17T13:43:09.000Z</time>
      </trkpt>
      <trkpt lat="45.06219" lon="5.01086">
        <ele>178</ele>
        <time>2022-09-17T13:43:10.000Z</time>
      </trkpt>
      <trkpt lat="45.06222" lon="5.01085">
        <ele>178.1</ele>
        <time>2022-09-17T13:43:11.000Z</time>
      </trkpt>
      <trkpt lat="45.06225" lon="5.01084">
        <ele>178.1</ele>
        <time>2022-09-17T13:43:12.000Z</time>
      </trkpt>
      <trkpt lat="45.06229" lon="5.01083">
        <ele>177.9</ele>
        <time>2022-09-17T13:43:13.000Z</time>
      </trkpt>
      <trkpt lat="45.06232" lon="5.01082">
        <ele>177.8</ele>
        <time>2022-09-17T13:43:14.000Z</time>
      </trkpt>
      <trkpt lat="45.06236" lon="5.01081">
        <ele>177.7</ele>
        <time>2022-09-17T13:43:15.000Z</time>
      </trkpt>
      <trkpt lat="45.0624" lon="5.0108">
        <ele>177.6</ele>
        <time>2022-09-17T13:43:16.000Z</time>
      </trkpt>
      <trkpt lat="45.06244" lon="5.0108">
        <ele>177.6</ele>
        <time>2022-09-17T13:43:17.000Z</time>
      </trkpt>
      <trkpt lat="45.06248" lon="5.01079">
        <ele>177.5</ele>
        <time>2022-09-17T13:43:18.000Z</time>
      </trkpt>
      <trkpt lat="45.06252" lon="5.01079">
        <ele>177.6</ele>
        <time>2022-09-17T13:43:19.000Z</time>
      </trkpt>
      <trkpt lat="45.06257" lon="5.01079">
        <ele>177.7</ele>
        <time>2022-09-17T13:43:20.000Z</time>
      </trkpt>
      <trkpt lat="45.06261" lon="5.01079">
        <ele>177.9</ele>
        <time>2022-09-17T13:43:21.000Z</time>
      </trkpt>
      <trkpt lat="45.06266" lon="5.01079">
        <ele>178.1</ele>
        <time>2022-09-17T13:43:22.000Z</time>
      </trkpt>
      <trkpt lat="45.0627" lon="5.0108">
        <ele>178.3</ele>
        <time>2022-09-17T13:43:23.000Z</time>
      </trkpt>
      <trkpt lat="45.06275" lon="5.0108">
        <ele>178.5</ele>
        <time>2022-09-17T13:43:24.000Z</time>
      </trkpt>
      <trkpt lat="45.06279" lon="5.01081">
        <ele>178.7</ele>
        <time>2022-09-17T13:43:25.000Z</time>
      </trkpt>
      <trkpt lat="45.06283" lon="5.01082">
        <ele>178.7</ele>
        <time>2022-09-17T13:43:26.000Z</time>
      </trkpt>
      <trkpt lat="45.06288" lon="5.01083">
        <ele>178.6</ele>
        <time>2022-09-17T13:43:27.000Z</time>
      </trkpt>
      <trkpt lat="45.06292" lon="5.01084">
        <ele>178.6</ele>
        <time>2022-09-17T13:43:28.000Z</time>
      </trkpt>
      <trkpt lat="45.06296" lon="5.01086">
        <ele>178.6</ele>
        <time>2022-09-17T13:43:29.000Z</time>
      </trkpt>
      <trkpt lat="45.063" lon="5.01087">
        <ele>178.6</ele>
        <time>2022-09-17T13:43:30.000Z</time>
      </trkpt>
      <trkpt lat="45.06304" lon="5.01089">
        <ele>178.6</ele>
        <time>2022-09-17T13:43:31.000Z</time>
      </trkpt>
      <trkpt lat="45.06308" lon="5.0109">
        <ele>178.6</ele>
        <time>2022-09-17T13:43:32.000Z</time>
      </trkpt>
      <trkpt lat="45.06311" lon="5.01092">
        <ele>178.5</ele>
        <time>2022-09-17T13:43:33.000Z</time>
      </trkpt>
      <trkpt lat="45.06315" lon="5.01093">
        <ele>178.5</ele>
        <time>2022-09-17T13:43:34.000Z</time>
      </trkpt>
      <trkpt lat="45.06319" lon="5.01095">
        <ele>178.5</ele>
        <time>2022-09-17T13:43:35.000Z</time>
      </trkpt>
      <trkpt lat="45.06323" lon="5.01096">
        <ele>178.4</ele>
        <time>2022-09-17T13:43:36.000Z</time>
      </trkpt>
      <trkpt lat="45.06326" lon="5.01097">
        <ele>178.4</ele>
        <time>2022-09-17T13:43:37.000Z</time>
      </trkpt>
      <trkpt lat="45.0633" lon="5.01099">
        <ele>178.4</ele>
        <time>2022-09-17T13:43:38.000Z</time>
      </trkpt>
      <trkpt lat="45.06334" lon="5.01101">
        <ele>178.5</ele>
        <time>2022-09-17T13:43:39.000Z</time>
      </trkpt>
      <trkpt lat="45.06339" lon="5.01102">
        <ele>178.6</ele>
        <time>2022-09-17T13:43:40.000Z</time>
      </trkpt>
      <trkpt lat="45.06343" lon="5.01104">
        <ele>178.7</ele>
        <time>2022-09-17T13:43:41.000Z</time>
      </trkpt>
      <trkpt lat="45.06348" lon="5.01105">
        <ele>178.7</ele>
        <time>2022-09-17T13:43:42.000Z</time>
      </trkpt>
      <trkpt lat="45.06352" lon="5.01107">
        <ele>178.8</ele>
        <time>2022-09-17T13:43:43.000Z</time>
      </trkpt>
      <trkpt lat="45.06357" lon="5.01108">
        <ele>178.8</ele>
        <time>2022-09-17T13:43:44.000Z</time>
      </trkpt>
      <trkpt lat="45.06361" lon="5.0111">
        <ele>178.8</ele>
        <time>2022-09-17T13:43:45.000Z</time>
      </trkpt>
      <trkpt lat="45.06365" lon="5.01111">
        <ele>178.9</ele>
        <time>2022-09-17T13:43:46.000Z</time>
      </trkpt>
      <trkpt lat="45.06369" lon="5.01113">
        <ele>179.1</ele>
        <time>2022-09-17T13:43:47.000Z</time>
      </trkpt>
      <trkpt lat="45.06373" lon="5.01114">
        <ele>179.3</ele>
        <time>2022-09-17T13:43:48.000Z</time>
      </trkpt>
      <trkpt lat="45.06377" lon="5.01116">
        <ele>179.4</ele>
        <time>2022-09-17T13:43:49.000Z</time>
      </trkpt>
      <trkpt lat="45.06381" lon="5.01117">
        <ele>179.4</ele>
        <time>2022-09-17T13:43:50.000Z</time>
      </trkpt>
      <trkpt lat="45.06384" lon="5.01118">
        <ele>179.6</ele>
        <time>2022-09-17T13:43:51.000Z</time>
      </trkpt>
      <trkpt lat="45.06387" lon="5.0112">
        <ele>179.7</ele>
        <time>2022-09-17T13:43:52.000Z</time>
      </trkpt>
      <trkpt lat="45.06391" lon="5.01122">
        <ele>179.9</ele>
        <time>2022-09-17T13:43:53.000Z</time>
      </trkpt>
      <trkpt lat="45.06395" lon="5.01124">
        <ele>180.1</ele>
        <time>2022-09-17T13:43:54.000Z</time>
      </trkpt>
      <trkpt lat="45.06399" lon="5.01125">
        <ele>180.2</ele>
        <time>2022-09-17T13:43:55.000Z</time>
      </trkpt>
      <trkpt lat="45.06403" lon="5.01127">
        <ele>180.3</ele>
        <time>2022-09-17T13:43:56.000Z</time>
      </trkpt>
      <trkpt lat="45.06406" lon="5.01128">
        <ele>180.3</ele>
        <time>2022-09-17T13:43:57.000Z</time>
      </trkpt>
      <trkpt lat="45.0641" lon="5.01129">
        <ele>180.2</ele>
        <time>2022-09-17T13:43:58.000Z</time>
      </trkpt>
      <trkpt lat="45.06414" lon="5.0113">
        <ele>180.2</ele>
        <time>2022-09-17T13:43:59.000Z</time>
      </trkpt>
      <trkpt lat="45.06418" lon="5.01132">
        <ele>180.2</ele>
        <time>2022-09-17T13:44:00.000Z</time>
      </trkpt>
      <trkpt lat="45.06422" lon="5.01134">
        <ele>180.3</ele>
        <time>2022-09-17T13:44:01.000Z</time>
      </trkpt>
      <trkpt lat="45.06426" lon="5.01135">
        <ele>180.3</ele>
        <time>2022-09-17T13:44:02.000Z</time>
      </trkpt>
      <trkpt lat="45.0643" lon="5.01136">
        <ele>180.3</ele>
        <time>2022-09-17T13:44:03.000Z</time>
      </trkpt>
      <trkpt lat="45.06434" lon="5.01137">
        <ele>180.3</ele>
        <time>2022-09-17T13:44:04.000Z</time>
      </trkpt>
      <trkpt lat="45.06438" lon="5.01139">
        <ele>180.2</ele>
        <time>2022-09-17T13:44:05.000Z</time>
      </trkpt>
      <trkpt lat="45.06442" lon="5.0114">
        <ele>180.3</ele>
        <time>2022-09-17T13:44:06.000Z</time>
      </trkpt>
      <trkpt lat="45.06445" lon="5.01141">
        <ele>180.5</ele>
        <time>2022-09-17T13:44:07.000Z</time>
      </trkpt>
      <trkpt lat="45.0645" lon="5.01142">
        <ele>180.5</ele>
        <time>2022-09-17T13:44:08.000Z</time>
      </trkpt>
      <trkpt lat="45.06454" lon="5.01143">
        <ele>180.5</ele>
        <time>2022-09-17T13:44:09.000Z</time>
      </trkpt>
      <trkpt lat="45.06458" lon="5.01144">
        <ele>180.5</ele>
        <time>2022-09-17T13:44:10.000Z</time>
      </trkpt>
      <trkpt lat="45.06462" lon="5.01146">
        <ele>180.6</ele>
        <time>2022-09-17T13:44:11.000Z</time>
      </trkpt>
      <trkpt lat="45.06466" lon="5.01148">
        <ele>180.7</ele>
        <time>2022-09-17T13:44:12.000Z</time>
      </trkpt>
      <trkpt lat="45.0647" lon="5.01149">
        <ele>180.6</ele>
        <time>2022-09-17T13:44:13.000Z</time>
      </trkpt>
      <trkpt lat="45.06474" lon="5.01151">
        <ele>180.6</ele>
        <time>2022-09-17T13:44:14.000Z</time>
      </trkpt>
      <trkpt lat="45.06478" lon="5.01152">
        <ele>180.8</ele>
        <time>2022-09-17T13:44:15.000Z</time>
      </trkpt>
      <trkpt lat="45.06482" lon="5.01153">
        <ele>180.9</ele>
        <time>2022-09-17T13:44:16.000Z</time>
      </trkpt>
      <trkpt lat="45.06486" lon="5.01155">
        <ele>181</ele>
        <time>2022-09-17T13:44:17.000Z</time>
      </trkpt>
      <trkpt lat="45.0649" lon="5.01156">
        <ele>181.1</ele>
        <time>2022-09-17T13:44:18.000Z</time>
      </trkpt>
      <trkpt lat="45.06494" lon="5.01158">
        <ele>181.2</ele>
        <time>2022-09-17T13:44:19.000Z</time>
      </trkpt>
      <trkpt lat="45.06498" lon="5.0116">
        <ele>181.3</ele>
        <time>2022-09-17T13:44:20.000Z</time>
      </trkpt>
      <trkpt lat="45.06501" lon="5.01161">
        <ele>181.4</ele>
        <time>2022-09-17T13:44:21.000Z</time>
      </trkpt>
      <trkpt lat="45.06505" lon="5.01163">
        <ele>181.5</ele>
        <time>2022-09-17T13:44:22.000Z</time>
      </trkpt>
      <trkpt lat="45.06509" lon="5.01165">
        <ele>181.5</ele>
        <time>2022-09-17T13:44:23.000Z</time>
      </trkpt>
      <trkpt lat="45.06513" lon="5.01167">
        <ele>181.6</ele>
        <time>2022-09-17T13:44:24.000Z</time>
      </trkpt>
      <trkpt lat="45.06516" lon="5.01169">
        <ele>181.9</ele>
        <time>2022-09-17T13:44:25.000Z</time>
      </trkpt>
      <trkpt lat="45.0652" lon="5.01172">
        <ele>182.3</ele>
        <time>2022-09-17T13:44:26.000Z</time>
      </trkpt>
      <trkpt lat="45.06523" lon="5.01174">
        <ele>182.6</ele>
        <time>2022-09-17T13:44:27.000Z</time>
      </trkpt>
      <trkpt lat="45.06527" lon="5.01176">
        <ele>182.8</ele>
        <time>2022-09-17T13:44:28.000Z</time>
      </trkpt>
      <trkpt lat="45.0653" lon="5.01178">
        <ele>183</ele>
        <time>2022-09-17T13:44:29.000Z</time>
      </trkpt>
      <trkpt lat="45.06534" lon="5.01181">
        <ele>183.3</ele>
        <time>2022-09-17T13:44:30.000Z</time>
      </trkpt>
      <trkpt lat="45.06537" lon="5.01184">
        <ele>183.7</ele>
        <time>2022-09-17T13:44:31.000Z</time>
      </trkpt>
      <trkpt lat="45.0654" lon="5.01187">
        <ele>183.9</ele>
        <time>2022-09-17T13:44:32.000Z</time>
      </trkpt>
      <trkpt lat="45.06544" lon="5.01189">
        <ele>184.1</ele>
        <time>2022-09-17T13:44:33.000Z</time>
      </trkpt>
      <trkpt lat="45.06547" lon="5.01192">
        <ele>184.3</ele>
        <time>2022-09-17T13:44:34.000Z</time>
      </trkpt>
      <trkpt lat="45.0655" lon="5.01195">
        <ele>184.5</ele>
        <time>2022-09-17T13:44:35.000Z</time>
      </trkpt>
      <trkpt lat="45.06553" lon="5.01198">
        <ele>184.9</ele>
        <time>2022-09-17T13:44:36.000Z</time>
      </trkpt>
      <trkpt lat="45.06555" lon="5.01201">
        <ele>185.2</ele>
        <time>2022-09-17T13:44:37.000Z</time>
      </trkpt>
      <trkpt lat="45.06557" lon="5.01204">
        <ele>185.4</ele>
        <time>2022-09-17T13:44:38.000Z</time>
      </trkpt>
      <trkpt lat="45.0656" lon="5.01206">
        <ele>185.5</ele>
        <time>2022-09-17T13:44:39.000Z</time>
      </trkpt>
      <trkpt lat="45.06562" lon="5.01208">
        <ele>185.6</ele>
        <time>2022-09-17T13:44:40.000Z</time>
      </trkpt>
      <trkpt lat="45.06564" lon="5.0121">
        <ele>185.6</ele>
        <time>2022-09-17T13:44:41.000Z</time>
      </trkpt>
      <trkpt lat="45.06566" lon="5.01212">
        <ele>185.5</ele>
        <time>2022-09-17T13:44:42.000Z</time>
      </trkpt>
      <trkpt lat="45.06568" lon="5.01214">
        <ele>185.4</ele>
        <time>2022-09-17T13:44:43.000Z</time>
      </trkpt>
      <trkpt lat="45.0657" lon="5.01217">
        <ele>185.4</ele>
        <time>2022-09-17T13:44:44.000Z</time>
      </trkpt>
      <trkpt lat="45.06572" lon="5.0122">
        <ele>185.2</ele>
        <time>2022-09-17T13:44:45.000Z</time>
      </trkpt>
      <trkpt lat="45.06574" lon="5.01222">
        <ele>184.9</ele>
        <time>2022-09-17T13:44:46.000Z</time>
      </trkpt>
      <trkpt lat="45.06577" lon="5.01224">
        <ele>184.9</ele>
        <time>2022-09-17T13:44:47.000Z</time>
      </trkpt>
      <trkpt lat="45.06579" lon="5.01227">
        <ele>184.9</ele>
        <time>2022-09-17T13:44:48.000Z</time>
      </trkpt>
      <trkpt lat="45.0658" lon="5.01229">
        <ele>184.9</ele>
        <time>2022-09-17T13:44:49.000Z</time>
      </trkpt>
      <trkpt lat="45.06583" lon="5.01231">
        <ele>184.8</ele>
        <time>2022-09-17T13:44:50.000Z</time>
      </trkpt>
      <trkpt lat="45.06585" lon="5.01233">
        <ele>184.8</ele>
        <time>2022-09-17T13:44:51.000Z</time>
      </trkpt>
      <trkpt lat="45.06586" lon="5.01235">
        <ele>185</ele>
        <time>2022-09-17T13:44:52.000Z</time>
      </trkpt>
      <trkpt lat="45.06588" lon="5.01238">
        <ele>185.2</ele>
        <time>2022-09-17T13:44:53.000Z</time>
      </trkpt>
      <trkpt lat="45.0659" lon="5.01241">
        <ele>185.5</ele>
        <time>2022-09-17T13:44:54.000Z</time>
      </trkpt>
      <trkpt lat="45.06592" lon="5.01243">
        <ele>185.5</ele>
        <time>2022-09-17T13:44:55.000Z</time>
      </trkpt>
      <trkpt lat="45.06594" lon="5.01244">
        <ele>185.4</ele>
        <time>2022-09-17T13:44:56.000Z</time>
      </trkpt>
      <trkpt lat="45.06596" lon="5.01245">
        <ele>185.2</ele>
        <time>2022-09-17T13:44:57.000Z</time>
      </trkpt>
      <trkpt lat="45.06598" lon="5.01247">
        <ele>185.1</ele>
        <time>2022-09-17T13:44:58.000Z</time>
      </trkpt>
      <trkpt lat="45.066" lon="5.0125">
        <ele>185</ele>
        <time>2022-09-17T13:44:59.000Z</time>
      </trkpt>
      <trkpt lat="45.06602" lon="5.01252">
        <ele>185</ele>
        <time>2022-09-17T13:45:00.000Z</time>
      </trkpt>
      <trkpt lat="45.06604" lon="5.01255">
        <ele>185.1</ele>
        <time>2022-09-17T13:45:01.000Z</time>
      </trkpt>
      <trkpt lat="45.06606" lon="5.01258">
        <ele>185.2</ele>
        <time>2022-09-17T13:45:02.000Z</time>
      </trkpt>
      <trkpt lat="45.06609" lon="5.01261">
        <ele>185.1</ele>
        <time>2022-09-17T13:45:03.000Z</time>
      </trkpt>
      <trkpt lat="45.06611" lon="5.01264">
        <ele>185</ele>
        <time>2022-09-17T13:45:04.000Z</time>
      </trkpt>
      <trkpt lat="45.06613" lon="5.01267">
        <ele>185.2</ele>
        <time>2022-09-17T13:45:05.000Z</time>
      </trkpt>
      <trkpt lat="45.06616" lon="5.01269">
        <ele>185.3</ele>
        <time>2022-09-17T13:45:06.000Z</time>
      </trkpt>
      <trkpt lat="45.06619" lon="5.01272">
        <ele>185.5</ele>
        <time>2022-09-17T13:45:07.000Z</time>
      </trkpt>
      <trkpt lat="45.06621" lon="5.01276">
        <ele>185.7</ele>
        <time>2022-09-17T13:45:08.000Z</time>
      </trkpt>
      <trkpt lat="45.06623" lon="5.01279">
        <ele>185.9</ele>
        <time>2022-09-17T13:45:09.000Z</time>
      </trkpt>
      <trkpt lat="45.06626" lon="5.01282">
        <ele>186.1</ele>
        <time>2022-09-17T13:45:10.000Z</time>
      </trkpt>
      <trkpt lat="45.06629" lon="5.01286">
        <ele>186.2</ele>
        <time>2022-09-17T13:45:11.000Z</time>
      </trkpt>
      <trkpt lat="45.06631" lon="5.01289">
        <ele>186.1</ele>
        <time>2022-09-17T13:45:12.000Z</time>
      </trkpt>
      <trkpt lat="45.06634" lon="5.01292">
        <ele>186</ele>
        <time>2022-09-17T13:45:13.000Z</time>
      </trkpt>
      <trkpt lat="45.06637" lon="5.01295">
        <ele>185.7</ele>
        <time>2022-09-17T13:45:14.000Z</time>
      </trkpt>
      <trkpt lat="45.06639" lon="5.01298">
        <ele>185.5</ele>
        <time>2022-09-17T13:45:15.000Z</time>
      </trkpt>
      <trkpt lat="45.06642" lon="5.01301">
        <ele>185.6</ele>
        <time>2022-09-17T13:45:16.000Z</time>
      </trkpt>
      <trkpt lat="45.06644" lon="5.01304">
        <ele>185.7</ele>
        <time>2022-09-17T13:45:17.000Z</time>
      </trkpt>
      <trkpt lat="45.06647" lon="5.01307">
        <ele>185.9</ele>
        <time>2022-09-17T13:45:18.000Z</time>
      </trkpt>
      <trkpt lat="45.06649" lon="5.0131">
        <ele>186.1</ele>
        <time>2022-09-17T13:45:19.000Z</time>
      </trkpt>
      <trkpt lat="45.06651" lon="5.01312">
        <ele>186.3</ele>
        <time>2022-09-17T13:45:20.000Z</time>
      </trkpt>
      <trkpt lat="45.06653" lon="5.01315">
        <ele>186.5</ele>
        <time>2022-09-17T13:45:21.000Z</time>
      </trkpt>
      <trkpt lat="45.06654" lon="5.01317">
        <ele>186.6</ele>
        <time>2022-09-17T13:45:22.000Z</time>
      </trkpt>
      <trkpt lat="45.06655" lon="5.01319">
        <ele>186.7</ele>
        <time>2022-09-17T13:45:23.000Z</time>
      </trkpt>
      <trkpt lat="45.06658" lon="5.01305">
        <ele>185.3</ele>
        <time>2022-09-17T13:45:47.000Z</time>
      </trkpt>
      <trkpt lat="45.0666" lon="5.01307">
        <ele>185.3</ele>
        <time>2022-09-17T13:45:48.000Z</time>
      </trkpt>
      <trkpt lat="45.06661" lon="5.01315">
        <ele>185.8</ele>
        <time>2022-09-17T13:45:49.000Z</time>
      </trkpt>
      <trkpt lat="45.06662" lon="5.0132">
        <ele>186.1</ele>
        <time>2022-09-17T13:45:50.000Z</time>
      </trkpt>
      <trkpt lat="45.0666" lon="5.01318">
        <ele>186.1</ele>
        <time>2022-09-17T13:45:53.000Z</time>
      </trkpt>
      <trkpt lat="45.0666" lon="5.01318">
        <ele>186.1</ele>
        <time>2022-09-17T13:45:53.000Z</time>
      </trkpt>
      <trkpt lat="45.0666" lon="5.01321">
        <ele>186.4</ele>
        <time>2022-09-17T14:06:44.000Z</time>
      </trkpt>
      <trkpt lat="45.0666" lon="5.01321">
        <ele>186.4</ele>
        <time>2022-09-17T14:06:44.000Z</time>
      </trkpt>
      <trkpt lat="45.06651" lon="5.01313">
        <ele>186.4</ele>
        <time>2022-09-17T14:06:47.000Z</time>
      </trkpt>
      <trkpt lat="45.06647" lon="5.01311">
        <ele>186.5</ele>
        <time>2022-09-17T14:06:48.000Z</time>
      </trkpt>
      <trkpt lat="45.06645" lon="5.01313">
        <ele>186.9</ele>
        <time>2022-09-17T14:06:49.000Z</time>
      </trkpt>
      <trkpt lat="45.06642" lon="5.0131">
        <ele>186.6</ele>
        <time>2022-09-17T14:06:50.000Z</time>
      </trkpt>
      <trkpt lat="45.06644" lon="5.01315">
        <ele>187.3</ele>
        <time>2022-09-17T14:06:52.000Z</time>
      </trkpt>
      <trkpt lat="45.06645" lon="5.0132">
        <ele>187.9</ele>
        <time>2022-09-17T14:06:53.000Z</time>
      </trkpt>
      <trkpt lat="45.06648" lon="5.0132">
        <ele>187.7</ele>
        <time>2022-09-17T14:06:54.000Z</time>
      </trkpt>
      <trkpt lat="45.0665" lon="5.01321">
        <ele>187.5</ele>
        <time>2022-09-17T14:06:55.000Z</time>
      </trkpt>
      <trkpt lat="45.06651" lon="5.01323">
        <ele>187.5</ele>
        <time>2022-09-17T14:06:56.000Z</time>
      </trkpt>
      <trkpt lat="45.06652" lon="5.01319">
        <ele>187.1</ele>
        <time>2022-09-17T14:07:00.000Z</time>
      </trkpt>
      <trkpt lat="45.06657" lon="5.01312">
        <ele>185.9</ele>
        <time>2022-09-17T14:07:18.000Z</time>
      </trkpt>
      <trkpt lat="45.06656" lon="5.01308">
        <ele>185.6</ele>
        <time>2022-09-17T14:07:20.000Z</time>
      </trkpt>
      <trkpt lat="45.06655" lon="5.01305">
        <ele>185.4</ele>
        <time>2022-09-17T14:07:21.000Z</time>
      </trkpt>
      <trkpt lat="45.06654" lon="5.01301">
        <ele>185.1</ele>
        <time>2022-09-17T14:07:22.000Z</time>
      </trkpt>
      <trkpt lat="45.06652" lon="5.01297">
        <ele>184.9</ele>
        <time>2022-09-17T14:07:23.000Z</time>
      </trkpt>
      <trkpt lat="45.06649" lon="5.01294">
        <ele>184.8</ele>
        <time>2022-09-17T14:07:24.000Z</time>
      </trkpt>
      <trkpt lat="45.06646" lon="5.0129">
        <ele>184.6</ele>
        <time>2022-09-17T14:07:25.000Z</time>
      </trkpt>
      <trkpt lat="45.06643" lon="5.01287">
        <ele>184.5</ele>
        <time>2022-09-17T14:07:26.000Z</time>
      </trkpt>
      <trkpt lat="45.06639" lon="5.01283">
        <ele>184.4</ele>
        <time>2022-09-17T14:07:27.000Z</time>
      </trkpt>
      <trkpt lat="45.06636" lon="5.0128">
        <ele>184.5</ele>
        <time>2022-09-17T14:07:28.000Z</time>
      </trkpt>
      <trkpt lat="45.06632" lon="5.01276">
        <ele>184.6</ele>
        <time>2022-09-17T14:07:29.000Z</time>
      </trkpt>
      <trkpt lat="45.06628" lon="5.01274">
        <ele>184.7</ele>
        <time>2022-09-17T14:07:30.000Z</time>
      </trkpt>
      <trkpt lat="45.06624" lon="5.0127">
        <ele>184.8</ele>
        <time>2022-09-17T14:07:31.000Z</time>
      </trkpt>
      <trkpt lat="45.06621" lon="5.01268">
        <ele>184.8</ele>
        <time>2022-09-17T14:07:32.000Z</time>
      </trkpt>
      <trkpt lat="45.06617" lon="5.01265">
        <ele>184.7</ele>
        <time>2022-09-17T14:07:33.000Z</time>
      </trkpt>
      <trkpt lat="45.06614" lon="5.01262">
        <ele>184.6</ele>
        <time>2022-09-17T14:07:34.000Z</time>
      </trkpt>
      <trkpt lat="45.0661" lon="5.01258">
        <ele>184.4</ele>
        <time>2022-09-17T14:07:35.000Z</time>
      </trkpt>
      <trkpt lat="45.06606" lon="5.01254">
        <ele>184.6</ele>
        <time>2022-09-17T14:07:36.000Z</time>
      </trkpt>
      <trkpt lat="45.06602" lon="5.0125">
        <ele>184.6</ele>
        <time>2022-09-17T14:07:37.000Z</time>
      </trkpt>
      <trkpt lat="45.06598" lon="5.01246">
        <ele>184.8</ele>
        <time>2022-09-17T14:07:38.000Z</time>
      </trkpt>
      <trkpt lat="45.06595" lon="5.0124">
        <ele>184.8</ele>
        <time>2022-09-17T14:07:39.000Z</time>
      </trkpt>
      <trkpt lat="45.06591" lon="5.01235">
        <ele>184.6</ele>
        <time>2022-09-17T14:07:40.000Z</time>
      </trkpt>
      <trkpt lat="45.06587" lon="5.0123">
        <ele>184.1</ele>
        <time>2022-09-17T14:07:41.000Z</time>
      </trkpt>
      <trkpt lat="45.06583" lon="5.01225">
        <ele>183.6</ele>
        <time>2022-09-17T14:07:42.000Z</time>
      </trkpt>
      <trkpt lat="45.06579" lon="5.0122">
        <ele>183.9</ele>
        <time>2022-09-17T14:07:43.000Z</time>
      </trkpt>
      <trkpt lat="45.06574" lon="5.01215">
        <ele>184.5</ele>
        <time>2022-09-17T14:07:44.000Z</time>
      </trkpt>
      <trkpt lat="45.06569" lon="5.01211">
        <ele>184.9</ele>
        <time>2022-09-17T14:07:45.000Z</time>
      </trkpt>
      <trkpt lat="45.06564" lon="5.01205">
        <ele>184.9</ele>
        <time>2022-09-17T14:07:46.000Z</time>
      </trkpt>
      <trkpt lat="45.06558" lon="5.012">
        <ele>184.7</ele>
        <time>2022-09-17T14:07:47.000Z</time>
      </trkpt>
      <trkpt lat="45.06553" lon="5.01196">
        <ele>184.4</ele>
        <time>2022-09-17T14:07:48.000Z</time>
      </trkpt>
      <trkpt lat="45.06547" lon="5.01192">
        <ele>184.3</ele>
        <time>2022-09-17T14:07:49.000Z</time>
      </trkpt>
      <trkpt lat="45.06542" lon="5.01187">
        <ele>184</ele>
        <time>2022-09-17T14:07:50.000Z</time>
      </trkpt>
      <trkpt lat="45.06536" lon="5.01183">
        <ele>183.5</ele>
        <time>2022-09-17T14:07:51.000Z</time>
      </trkpt>
      <trkpt lat="45.0653" lon="5.01178">
        <ele>182.9</ele>
        <time>2022-09-17T14:07:52.000Z</time>
      </trkpt>
      <trkpt lat="45.06524" lon="5.01173">
        <ele>182.4</ele>
        <time>2022-09-17T14:07:53.000Z</time>
      </trkpt>
      <trkpt lat="45.06517" lon="5.0117">
        <ele>182.1</ele>
        <time>2022-09-17T14:07:54.000Z</time>
      </trkpt>
      <trkpt lat="45.0651" lon="5.01168">
        <ele>181.8</ele>
        <time>2022-09-17T14:07:55.000Z</time>
      </trkpt>
      <trkpt lat="45.06503" lon="5.01165">
        <ele>181.7</ele>
        <time>2022-09-17T14:07:56.000Z</time>
      </trkpt>
      <trkpt lat="45.06497" lon="5.01164">
        <ele>181.8</ele>
        <time>2022-09-17T14:07:57.000Z</time>
      </trkpt>
      <trkpt lat="45.0649" lon="5.01162">
        <ele>181.8</ele>
        <time>2022-09-17T14:07:58.000Z</time>
      </trkpt>
      <trkpt lat="45.06484" lon="5.01161">
        <ele>181.8</ele>
        <time>2022-09-17T14:07:59.000Z</time>
      </trkpt>
      <trkpt lat="45.06477" lon="5.01159">
        <ele>181.7</ele>
        <time>2022-09-17T14:08:00.000Z</time>
      </trkpt>
      <trkpt lat="45.0647" lon="5.01156">
        <ele>181.7</ele>
        <time>2022-09-17T14:08:01.000Z</time>
      </trkpt>
      <trkpt lat="45.06463" lon="5.01154">
        <ele>181.8</ele>
        <time>2022-09-17T14:08:02.000Z</time>
      </trkpt>
      <trkpt lat="45.06457" lon="5.01151">
        <ele>181.7</ele>
        <time>2022-09-17T14:08:03.000Z</time>
      </trkpt>
      <trkpt lat="45.06451" lon="5.01148">
        <ele>181.6</ele>
        <time>2022-09-17T14:08:04.000Z</time>
      </trkpt>
      <trkpt lat="45.06445" lon="5.01147">
        <ele>181.6</ele>
        <time>2022-09-17T14:08:05.000Z</time>
      </trkpt>
      <trkpt lat="45.06439" lon="5.01145">
        <ele>181.6</ele>
        <time>2022-09-17T14:08:06.000Z</time>
      </trkpt>
      <trkpt lat="45.06433" lon="5.01144">
        <ele>181.5</ele>
        <time>2022-09-17T14:08:07.000Z</time>
      </trkpt>
      <trkpt lat="45.06427" lon="5.01142">
        <ele>181.5</ele>
        <time>2022-09-17T14:08:08.000Z</time>
      </trkpt>
      <trkpt lat="45.06421" lon="5.0114">
        <ele>181.1</ele>
        <time>2022-09-17T14:08:09.000Z</time>
      </trkpt>
      <trkpt lat="45.06414" lon="5.01138">
        <ele>181</ele>
        <time>2022-09-17T14:08:10.000Z</time>
      </trkpt>
      <trkpt lat="45.06408" lon="5.01135">
        <ele>181.1</ele>
        <time>2022-09-17T14:08:11.000Z</time>
      </trkpt>
      <trkpt lat="45.06402" lon="5.01133">
        <ele>181.2</ele>
        <time>2022-09-17T14:08:12.000Z</time>
      </trkpt>
      <trkpt lat="45.06396" lon="5.01132">
        <ele>181.3</ele>
        <time>2022-09-17T14:08:13.000Z</time>
      </trkpt>
      <trkpt lat="45.06391" lon="5.0113">
        <ele>181.3</ele>
        <time>2022-09-17T14:08:14.000Z</time>
      </trkpt>
      <trkpt lat="45.06385" lon="5.01129">
        <ele>181.4</ele>
        <time>2022-09-17T14:08:15.000Z</time>
      </trkpt>
      <trkpt lat="45.0638" lon="5.01125">
        <ele>181.1</ele>
        <time>2022-09-17T14:08:16.000Z</time>
      </trkpt>
      <trkpt lat="45.06374" lon="5.01121">
        <ele>180.7</ele>
        <time>2022-09-17T14:08:17.000Z</time>
      </trkpt>
      <trkpt lat="45.06368" lon="5.01117">
        <ele>180</ele>
        <time>2022-09-17T14:08:18.000Z</time>
      </trkpt>
      <trkpt lat="45.06362" lon="5.01113">
        <ele>179.4</ele>
        <time>2022-09-17T14:08:19.000Z</time>
      </trkpt>
      <trkpt lat="45.06357" lon="5.0111">
        <ele>179</ele>
        <time>2022-09-17T14:08:20.000Z</time>
      </trkpt>
      <trkpt lat="45.06351" lon="5.01107">
        <ele>178.9</ele>
        <time>2022-09-17T14:08:21.000Z</time>
      </trkpt>
      <trkpt lat="45.06346" lon="5.01105">
        <ele>178.7</ele>
        <time>2022-09-17T14:08:22.000Z</time>
      </trkpt>
      <trkpt lat="45.0634" lon="5.01102">
        <ele>178.5</ele>
        <time>2022-09-17T14:08:23.000Z</time>
      </trkpt>
      <trkpt lat="45.06335" lon="5.01099">
        <ele>178.2</ele>
        <time>2022-09-17T14:08:24.000Z</time>
      </trkpt>
      <trkpt lat="45.0633" lon="5.01096">
        <ele>178.1</ele>
        <time>2022-09-17T14:08:25.000Z</time>
      </trkpt>
      <trkpt lat="45.06325" lon="5.01093">
        <ele>177.9</ele>
        <time>2022-09-17T14:08:26.000Z</time>
      </trkpt>
      <trkpt lat="45.0632" lon="5.01092">
        <ele>178.1</ele>
        <time>2022-09-17T14:08:27.000Z</time>
      </trkpt>
      <trkpt lat="45.06314" lon="5.01091">
        <ele>178.3</ele>
        <time>2022-09-17T14:08:28.000Z</time>
      </trkpt>
      <trkpt lat="45.06308" lon="5.01089">
        <ele>178.4</ele>
        <time>2022-09-17T14:08:29.000Z</time>
      </trkpt>
      <trkpt lat="45.06302" lon="5.01087">
        <ele>178.6</ele>
        <time>2022-09-17T14:08:30.000Z</time>
      </trkpt>
      <trkpt lat="45.06295" lon="5.01085">
        <ele>178.6</ele>
        <time>2022-09-17T14:08:31.000Z</time>
      </trkpt>
      <trkpt lat="45.06289" lon="5.01083">
        <ele>178.5</ele>
        <time>2022-09-17T14:08:32.000Z</time>
      </trkpt>
      <trkpt lat="45.06283" lon="5.01081">
        <ele>178.6</ele>
        <time>2022-09-17T14:08:33.000Z</time>
      </trkpt>
      <trkpt lat="45.06276" lon="5.0108">
        <ele>178.6</ele>
        <time>2022-09-17T14:08:34.000Z</time>
      </trkpt>
      <trkpt lat="45.06268" lon="5.0108">
        <ele>178.2</ele>
        <time>2022-09-17T14:08:35.000Z</time>
      </trkpt>
      <trkpt lat="45.06261" lon="5.01079">
        <ele>177.9</ele>
        <time>2022-09-17T14:08:36.000Z</time>
      </trkpt>
      <trkpt lat="45.06254" lon="5.01078">
        <ele>177.6</ele>
        <time>2022-09-17T14:08:37.000Z</time>
      </trkpt>
      <trkpt lat="45.06247" lon="5.01077">
        <ele>177.3</ele>
        <time>2022-09-17T14:08:38.000Z</time>
      </trkpt>
      <trkpt lat="45.0624" lon="5.01078">
        <ele>177.4</ele>
        <time>2022-09-17T14:08:39.000Z</time>
      </trkpt>
      <trkpt lat="45.06234" lon="5.01079">
        <ele>177.6</ele>
        <time>2022-09-17T14:08:40.000Z</time>
      </trkpt>
      <trkpt lat="45.06228" lon="5.0108">
        <ele>177.7</ele>
        <time>2022-09-17T14:08:41.000Z</time>
      </trkpt>
      <trkpt lat="45.06222" lon="5.01082">
        <ele>177.8</ele>
        <time>2022-09-17T14:08:42.000Z</time>
      </trkpt>
      <trkpt lat="45.06216" lon="5.01083">
        <ele>177.5</ele>
        <time>2022-09-17T14:08:43.000Z</time>
      </trkpt>
      <trkpt lat="45.0621" lon="5.01084">
        <ele>177.2</ele>
        <time>2022-09-17T14:08:44.000Z</time>
      </trkpt>
      <trkpt lat="45.06204" lon="5.01086">
        <ele>176.9</ele>
        <time>2022-09-17T14:08:45.000Z</time>
      </trkpt>
      <trkpt lat="45.06198" lon="5.01087">
        <ele>176.5</ele>
        <time>2022-09-17T14:08:46.000Z</time>
      </trkpt>
      <trkpt lat="45.06191" lon="5.01089">
        <ele>176.1</ele>
        <time>2022-09-17T14:08:47.000Z</time>
      </trkpt>
      <trkpt lat="45.06184" lon="5.01092">
        <ele>175.7</ele>
        <time>2022-09-17T14:08:48.000Z</time>
      </trkpt>
      <trkpt lat="45.06177" lon="5.01095">
        <ele>175.3</ele>
        <time>2022-09-17T14:08:49.000Z</time>
      </trkpt>
      <trkpt lat="45.06169" lon="5.01098">
        <ele>174.8</ele>
        <time>2022-09-17T14:08:50.000Z</time>
      </trkpt>
      <trkpt lat="45.06162" lon="5.01102">
        <ele>174.5</ele>
        <time>2022-09-17T14:08:51.000Z</time>
      </trkpt>
      <trkpt lat="45.06154" lon="5.01106">
        <ele>174.3</ele>
        <time>2022-09-17T14:08:52.000Z</time>
      </trkpt>
      <trkpt lat="45.06146" lon="5.01111">
        <ele>174.2</ele>
        <time>2022-09-17T14:08:53.000Z</time>
      </trkpt>
      <trkpt lat="45.06137" lon="5.01115">
        <ele>174.3</ele>
        <time>2022-09-17T14:08:54.000Z</time>
      </trkpt>
      <trkpt lat="45.06129" lon="5.01119">
        <ele>173.9</ele>
        <time>2022-09-17T14:08:55.000Z</time>
      </trkpt>
      <trkpt lat="45.06122" lon="5.01122">
        <ele>173.5</ele>
        <time>2022-09-17T14:08:56.000Z</time>
      </trkpt>
      <trkpt lat="45.06116" lon="5.01125">
        <ele>173</ele>
        <time>2022-09-17T14:08:57.000Z</time>
      </trkpt>
      <trkpt lat="45.06111" lon="5.01127">
        <ele>172.6</ele>
        <time>2022-09-17T14:08:58.000Z</time>
      </trkpt>
      <trkpt lat="45.06106" lon="5.01131">
        <ele>172.3</ele>
        <time>2022-09-17T14:08:59.000Z</time>
      </trkpt>
      <trkpt lat="45.06103" lon="5.01135">
        <ele>172.3</ele>
        <time>2022-09-17T14:09:00.000Z</time>
      </trkpt>
      <trkpt lat="45.06102" lon="5.01141">
        <ele>172.4</ele>
        <time>2022-09-17T14:09:01.000Z</time>
      </trkpt>
      <trkpt lat="45.06101" lon="5.01146">
        <ele>172.6</ele>
        <time>2022-09-17T14:09:02.000Z</time>
      </trkpt>
      <trkpt lat="45.06101" lon="5.01152">
        <ele>172.8</ele>
        <time>2022-09-17T14:09:03.000Z</time>
      </trkpt>
      <trkpt lat="45.06101" lon="5.01157">
        <ele>173.1</ele>
        <time>2022-09-17T14:09:04.000Z</time>
      </trkpt>
      <trkpt lat="45.06101" lon="5.01161">
        <ele>173.3</ele>
        <time>2022-09-17T14:09:05.000Z</time>
      </trkpt>
      <trkpt lat="45.061" lon="5.01166">
        <ele>173.4</ele>
        <time>2022-09-17T14:09:06.000Z</time>
      </trkpt>
      <trkpt lat="45.061" lon="5.01172">
        <ele>173.3</ele>
        <time>2022-09-17T14:09:07.000Z</time>
      </trkpt>
      <trkpt lat="45.06101" lon="5.01176">
        <ele>173.3</ele>
        <time>2022-09-17T14:09:08.000Z</time>
      </trkpt>
      <trkpt lat="45.06101" lon="5.01181">
        <ele>173.2</ele>
        <time>2022-09-17T14:09:09.000Z</time>
      </trkpt>
      <trkpt lat="45.06101" lon="5.01186">
        <ele>173.1</ele>
        <time>2022-09-17T14:09:10.000Z</time>
      </trkpt>
      <trkpt lat="45.06101" lon="5.01192">
        <ele>173</ele>
        <time>2022-09-17T14:09:11.000Z</time>
      </trkpt>
      <trkpt lat="45.06101" lon="5.01197">
        <ele>172.9</ele>
        <time>2022-09-17T14:09:12.000Z</time>
      </trkpt>
      <trkpt lat="45.061" lon="5.01203">
        <ele>172.9</ele>
        <time>2022-09-17T14:09:13.000Z</time>
      </trkpt>
      <trkpt lat="45.061" lon="5.01209">
        <ele>173</ele>
        <time>2022-09-17T14:09:14.000Z</time>
      </trkpt>
      <trkpt lat="45.06099" lon="5.01214">
        <ele>173</ele>
        <time>2022-09-17T14:09:15.000Z</time>
      </trkpt>
      <trkpt lat="45.061" lon="5.0122">
        <ele>173.1</ele>
        <time>2022-09-17T14:09:16.000Z</time>
      </trkpt>
      <trkpt lat="45.06099" lon="5.01226">
        <ele>173.2</ele>
        <time>2022-09-17T14:09:17.000Z</time>
      </trkpt>
      <trkpt lat="45.061" lon="5.01232">
        <ele>173.4</ele>
        <time>2022-09-17T14:09:18.000Z</time>
      </trkpt>
      <trkpt lat="45.061" lon="5.01237">
        <ele>173.5</ele>
        <time>2022-09-17T14:09:19.000Z</time>
      </trkpt>
      <trkpt lat="45.061" lon="5.01243">
        <ele>173.7</ele>
        <time>2022-09-17T14:09:20.000Z</time>
      </trkpt>
      <trkpt lat="45.06101" lon="5.01248">
        <ele>173.8</ele>
        <time>2022-09-17T14:09:21.000Z</time>
      </trkpt>
      <trkpt lat="45.06101" lon="5.01254">
        <ele>173.9</ele>
        <time>2022-09-17T14:09:22.000Z</time>
      </trkpt>
      <trkpt lat="45.06101" lon="5.0126">
        <ele>174</ele>
        <time>2022-09-17T14:09:23.000Z</time>
      </trkpt>
      <trkpt lat="45.06101" lon="5.01267">
        <ele>174.1</ele>
        <time>2022-09-17T14:09:24.000Z</time>
      </trkpt>
      <trkpt lat="45.06102" lon="5.01273">
        <ele>174.2</ele>
        <time>2022-09-17T14:09:25.000Z</time>
      </trkpt>
      <trkpt lat="45.06102" lon="5.01278">
        <ele>174.3</ele>
        <time>2022-09-17T14:09:26.000Z</time>
      </trkpt>
      <trkpt lat="45.06103" lon="5.01284">
        <ele>174.3</ele>
        <time>2022-09-17T14:09:27.000Z</time>
      </trkpt>
      <trkpt lat="45.06104" lon="5.01291">
        <ele>174.3</ele>
        <time>2022-09-17T14:09:28.000Z</time>
      </trkpt>
      <trkpt lat="45.06104" lon="5.01297">
        <ele>174.3</ele>
        <time>2022-09-17T14:09:29.000Z</time>
      </trkpt>
      <trkpt lat="45.06105" lon="5.01303">
        <ele>174.2</ele>
        <time>2022-09-17T14:09:30.000Z</time>
      </trkpt>
      <trkpt lat="45.06105" lon="5.01309">
        <ele>174.1</ele>
        <time>2022-09-17T14:09:31.000Z</time>
      </trkpt>
      <trkpt lat="45.06105" lon="5.01316">
        <ele>174.1</ele>
        <time>2022-09-17T14:09:32.000Z</time>
      </trkpt>
      <trkpt lat="45.06106" lon="5.01322">
        <ele>174.1</ele>
        <time>2022-09-17T14:09:33.000Z</time>
      </trkpt>
      <trkpt lat="45.06107" lon="5.01329">
        <ele>174.2</ele>
        <time>2022-09-17T14:09:34.000Z</time>
      </trkpt>
      <trkpt lat="45.06108" lon="5.01335">
        <ele>174.2</ele>
        <time>2022-09-17T14:09:35.000Z</time>
      </trkpt>
      <trkpt lat="45.06108" lon="5.01342">
        <ele>173.9</ele>
        <time>2022-09-17T14:09:36.000Z</time>
      </trkpt>
      <trkpt lat="45.06109" lon="5.01348">
        <ele>173.5</ele>
        <time>2022-09-17T14:09:37.000Z</time>
      </trkpt>
      <trkpt lat="45.06109" lon="5.01356">
        <ele>173.1</ele>
        <time>2022-09-17T14:09:38.000Z</time>
      </trkpt>
      <trkpt lat="45.0611" lon="5.01362">
        <ele>172.8</ele>
        <time>2022-09-17T14:09:39.000Z</time>
      </trkpt>
      <trkpt lat="45.06111" lon="5.0137">
        <ele>172.7</ele>
        <time>2022-09-17T14:09:40.000Z</time>
      </trkpt>
      <trkpt lat="45.06112" lon="5.01377">
        <ele>172.6</ele>
        <time>2022-09-17T14:09:41.000Z</time>
      </trkpt>
      <trkpt lat="45.06114" lon="5.01384">
        <ele>172.6</ele>
        <time>2022-09-17T14:09:42.000Z</time>
      </trkpt>
      <trkpt lat="45.06115" lon="5.01391">
        <ele>172.6</ele>
        <time>2022-09-17T14:09:43.000Z</time>
      </trkpt>
      <trkpt lat="45.06115" lon="5.01397">
        <ele>172.7</ele>
        <time>2022-09-17T14:09:44.000Z</time>
      </trkpt>
      <trkpt lat="45.06116" lon="5.01403">
        <ele>172.8</ele>
        <time>2022-09-17T14:09:45.000Z</time>
      </trkpt>
      <trkpt lat="45.06117" lon="5.01409">
        <ele>173</ele>
        <time>2022-09-17T14:09:46.000Z</time>
      </trkpt>
      <trkpt lat="45.06118" lon="5.01415">
        <ele>173.2</ele>
        <time>2022-09-17T14:09:47.000Z</time>
      </trkpt>
      <trkpt lat="45.06119" lon="5.01421">
        <ele>173.2</ele>
        <time>2022-09-17T14:09:48.000Z</time>
      </trkpt>
      <trkpt lat="45.0612" lon="5.01427">
        <ele>173.3</ele>
        <time>2022-09-17T14:09:49.000Z</time>
      </trkpt>
      <trkpt lat="45.0612" lon="5.01433">
        <ele>173.3</ele>
        <time>2022-09-17T14:09:50.000Z</time>
      </trkpt>
      <trkpt lat="45.06122" lon="5.0144">
        <ele>173.4</ele>
        <time>2022-09-17T14:09:51.000Z</time>
      </trkpt>
      <trkpt lat="45.06123" lon="5.01447">
        <ele>173.4</ele>
        <time>2022-09-17T14:09:52.000Z</time>
      </trkpt>
      <trkpt lat="45.06125" lon="5.01454">
        <ele>173.4</ele>
        <time>2022-09-17T14:09:53.000Z</time>
      </trkpt>
      <trkpt lat="45.06126" lon="5.01461">
        <ele>173.3</ele>
        <time>2022-09-17T14:09:54.000Z</time>
      </trkpt>
      <trkpt lat="45.06127" lon="5.01468">
        <ele>173.1</ele>
        <time>2022-09-17T14:09:55.000Z</time>
      </trkpt>
      <trkpt lat="45.06128" lon="5.01475">
        <ele>173</ele>
        <time>2022-09-17T14:09:56.000Z</time>
      </trkpt>
      <trkpt lat="45.0613" lon="5.01482">
        <ele>173</ele>
        <time>2022-09-17T14:09:57.000Z</time>
      </trkpt>
      <trkpt lat="45.06132" lon="5.01489">
        <ele>173.1</ele>
        <time>2022-09-17T14:09:58.000Z</time>
      </trkpt>
      <trkpt lat="45.06134" lon="5.01495">
        <ele>173.2</ele>
        <time>2022-09-17T14:09:59.000Z</time>
      </trkpt>
      <trkpt lat="45.06135" lon="5.01502">
        <ele>173.1</ele>
        <time>2022-09-17T14:10:00.000Z</time>
      </trkpt>
      <trkpt lat="45.06136" lon="5.0151">
        <ele>172.9</ele>
        <time>2022-09-17T14:10:01.000Z</time>
      </trkpt>
      <trkpt lat="45.06138" lon="5.01517">
        <ele>172.7</ele>
        <time>2022-09-17T14:10:02.000Z</time>
      </trkpt>
      <trkpt lat="45.0614" lon="5.01523">
        <ele>172.5</ele>
        <time>2022-09-17T14:10:03.000Z</time>
      </trkpt>
      <trkpt lat="45.06141" lon="5.0153">
        <ele>172.4</ele>
        <time>2022-09-17T14:10:04.000Z</time>
      </trkpt>
      <trkpt lat="45.06143" lon="5.01536">
        <ele>172.7</ele>
        <time>2022-09-17T14:10:05.000Z</time>
      </trkpt>
      <trkpt lat="45.06145" lon="5.01542">
        <ele>173</ele>
        <time>2022-09-17T14:10:06.000Z</time>
      </trkpt>
      <trkpt lat="45.06148" lon="5.01548">
        <ele>173.6</ele>
        <time>2022-09-17T14:10:07.000Z</time>
      </trkpt>
      <trkpt lat="45.0615" lon="5.01556">
        <ele>173.9</ele>
        <time>2022-09-17T14:10:08.000Z</time>
      </trkpt>
      <trkpt lat="45.06152" lon="5.01563">
        <ele>174.2</ele>
        <time>2022-09-17T14:10:09.000Z</time>
      </trkpt>
      <trkpt lat="45.06154" lon="5.01569">
        <ele>174.5</ele>
        <time>2022-09-17T14:10:10.000Z</time>
      </trkpt>
      <trkpt lat="45.06157" lon="5.01575">
        <ele>174.7</ele>
        <time>2022-09-17T14:10:11.000Z</time>
      </trkpt>
      <trkpt lat="45.06158" lon="5.01581">
        <ele>174.8</ele>
        <time>2022-09-17T14:10:12.000Z</time>
      </trkpt>
      <trkpt lat="45.0616" lon="5.01587">
        <ele>174.9</ele>
        <time>2022-09-17T14:10:13.000Z</time>
      </trkpt>
      <trkpt lat="45.06161" lon="5.01592">
        <ele>175</ele>
        <time>2022-09-17T14:10:14.000Z</time>
      </trkpt>
      <trkpt lat="45.06163" lon="5.01597">
        <ele>175</ele>
        <time>2022-09-17T14:10:15.000Z</time>
      </trkpt>
      <trkpt lat="45.06164" lon="5.01602">
        <ele>175</ele>
        <time>2022-09-17T14:10:16.000Z</time>
      </trkpt>
      <trkpt lat="45.06165" lon="5.01607">
        <ele>174.9</ele>
        <time>2022-09-17T14:10:17.000Z</time>
      </trkpt>
      <trkpt lat="45.06166" lon="5.01613">
        <ele>174.8</ele>
        <time>2022-09-17T14:10:18.000Z</time>
      </trkpt>
      <trkpt lat="45.06166" lon="5.01618">
        <ele>174.7</ele>
        <time>2022-09-17T14:10:19.000Z</time>
      </trkpt>
      <trkpt lat="45.06169" lon="5.01625">
        <ele>174.8</ele>
        <time>2022-09-17T14:10:20.000Z</time>
      </trkpt>
      <trkpt lat="45.06173" lon="5.01632">
        <ele>174.9</ele>
        <time>2022-09-17T14:10:21.000Z</time>
      </trkpt>
      <trkpt lat="45.06174" lon="5.01639">
        <ele>174.8</ele>
        <time>2022-09-17T14:10:22.000Z</time>
      </trkpt>
      <trkpt lat="45.06176" lon="5.01645">
        <ele>175</ele>
        <time>2022-09-17T14:10:23.000Z</time>
      </trkpt>
      <trkpt lat="45.06177" lon="5.01651">
        <ele>175.1</ele>
        <time>2022-09-17T14:10:24.000Z</time>
      </trkpt>
      <trkpt lat="45.06179" lon="5.01656">
        <ele>175.3</ele>
        <time>2022-09-17T14:10:25.000Z</time>
      </trkpt>
      <trkpt lat="45.0618" lon="5.01663">
        <ele>175.4</ele>
        <time>2022-09-17T14:10:26.000Z</time>
      </trkpt>
      <trkpt lat="45.06178" lon="5.01669">
        <ele>175.2</ele>
        <time>2022-09-17T14:10:27.000Z</time>
      </trkpt>
      <trkpt lat="45.06178" lon="5.01675">
        <ele>175.1</ele>
        <time>2022-09-17T14:10:28.000Z</time>
      </trkpt>
      <trkpt lat="45.06178" lon="5.0168">
        <ele>175</ele>
        <time>2022-09-17T14:10:29.000Z</time>
      </trkpt>
      <trkpt lat="45.06179" lon="5.01685">
        <ele>174.9</ele>
        <time>2022-09-17T14:10:30.000Z</time>
      </trkpt>
      <trkpt lat="45.06179" lon="5.0169">
        <ele>174.9</ele>
        <time>2022-09-17T14:10:31.000Z</time>
      </trkpt>
      <trkpt lat="45.0618" lon="5.01695">
        <ele>174.8</ele>
        <time>2022-09-17T14:10:32.000Z</time>
      </trkpt>
      <trkpt lat="45.0618" lon="5.017">
        <ele>174.7</ele>
        <time>2022-09-17T14:10:33.000Z</time>
      </trkpt>
      <trkpt lat="45.06181" lon="5.01705">
        <ele>174.7</ele>
        <time>2022-09-17T14:10:34.000Z</time>
      </trkpt>
      <trkpt lat="45.06183" lon="5.01712">
        <ele>174.8</ele>
        <time>2022-09-17T14:10:35.000Z</time>
      </trkpt>
      <trkpt lat="45.06185" lon="5.01717">
        <ele>174.7</ele>
        <time>2022-09-17T14:10:36.000Z</time>
      </trkpt>
      <trkpt lat="45.06186" lon="5.01723">
        <ele>174.7</ele>
        <time>2022-09-17T14:10:37.000Z</time>
      </trkpt>
      <trkpt lat="45.06187" lon="5.01729">
        <ele>174.7</ele>
        <time>2022-09-17T14:10:38.000Z</time>
      </trkpt>
      <trkpt lat="45.06189" lon="5.01734">
        <ele>174.7</ele>
        <time>2022-09-17T14:10:39.000Z</time>
      </trkpt>
      <trkpt lat="45.0619" lon="5.01739">
        <ele>174.6</ele>
        <time>2022-09-17T14:10:40.000Z</time>
      </trkpt>
      <trkpt lat="45.06191" lon="5.01743">
        <ele>174.7</ele>
        <time>2022-09-17T14:10:41.000Z</time>
      </trkpt>
      <trkpt lat="45.06193" lon="5.01748">
        <ele>174.8</ele>
        <time>2022-09-17T14:10:42.000Z</time>
      </trkpt>
      <trkpt lat="45.06194" lon="5.01753">
        <ele>174.7</ele>
        <time>2022-09-17T14:10:43.000Z</time>
      </trkpt>
      <trkpt lat="45.06196" lon="5.01757">
        <ele>174.4</ele>
        <time>2022-09-17T14:10:44.000Z</time>
      </trkpt>
      <trkpt lat="45.06197" lon="5.01762">
        <ele>174.1</ele>
        <time>2022-09-17T14:10:45.000Z</time>
      </trkpt>
      <trkpt lat="45.06198" lon="5.01766">
        <ele>173.9</ele>
        <time>2022-09-17T14:10:46.000Z</time>
      </trkpt>
      <trkpt lat="45.06199" lon="5.01771">
        <ele>173.7</ele>
        <time>2022-09-17T14:10:47.000Z</time>
      </trkpt>
      <trkpt lat="45.06201" lon="5.01775">
        <ele>173.6</ele>
        <time>2022-09-17T14:10:48.000Z</time>
      </trkpt>
      <trkpt lat="45.06202" lon="5.0178">
        <ele>173.6</ele>
        <time>2022-09-17T14:10:49.000Z</time>
      </trkpt>
      <trkpt lat="45.06204" lon="5.01784">
        <ele>173.8</ele>
        <time>2022-09-17T14:10:50.000Z</time>
      </trkpt>
      <trkpt lat="45.06205" lon="5.01789">
        <ele>173.9</ele>
        <time>2022-09-17T14:10:51.000Z</time>
      </trkpt>
      <trkpt lat="45.06206" lon="5.01793">
        <ele>174</ele>
        <time>2022-09-17T14:10:52.000Z</time>
      </trkpt>
      <trkpt lat="45.06208" lon="5.01797">
        <ele>174.2</ele>
        <time>2022-09-17T14:10:53.000Z</time>
      </trkpt>
      <trkpt lat="45.06209" lon="5.01801">
        <ele>174.3</ele>
        <time>2022-09-17T14:10:54.000Z</time>
      </trkpt>
      <trkpt lat="45.0621" lon="5.01805">
        <ele>174.3</ele>
        <time>2022-09-17T14:10:55.000Z</time>
      </trkpt>
      <trkpt lat="45.06211" lon="5.01809">
        <ele>174.4</ele>
        <time>2022-09-17T14:10:56.000Z</time>
      </trkpt>
      <trkpt lat="45.06212" lon="5.01813">
        <ele>174.6</ele>
        <time>2022-09-17T14:10:57.000Z</time>
      </trkpt>
      <trkpt lat="45.06213" lon="5.01818">
        <ele>174.6</ele>
        <time>2022-09-17T14:10:58.000Z</time>
      </trkpt>
      <trkpt lat="45.06215" lon="5.01822">
        <ele>174.8</ele>
        <time>2022-09-17T14:10:59.000Z</time>
      </trkpt>
      <trkpt lat="45.06216" lon="5.01826">
        <ele>174.9</ele>
        <time>2022-09-17T14:11:00.000Z</time>
      </trkpt>
      <trkpt lat="45.06218" lon="5.01831">
        <ele>175.1</ele>
        <time>2022-09-17T14:11:01.000Z</time>
      </trkpt>
      <trkpt lat="45.06219" lon="5.01836">
        <ele>175.2</ele>
        <time>2022-09-17T14:11:02.000Z</time>
      </trkpt>
      <trkpt lat="45.0622" lon="5.0184">
        <ele>175.2</ele>
        <time>2022-09-17T14:11:03.000Z</time>
      </trkpt>
      <trkpt lat="45.06221" lon="5.01845">
        <ele>175.2</ele>
        <time>2022-09-17T14:11:04.000Z</time>
      </trkpt>
      <trkpt lat="45.06222" lon="5.0185">
        <ele>175.3</ele>
        <time>2022-09-17T14:11:05.000Z</time>
      </trkpt>
      <trkpt lat="45.06223" lon="5.01855">
        <ele>175.3</ele>
        <time>2022-09-17T14:11:06.000Z</time>
      </trkpt>
      <trkpt lat="45.06224" lon="5.0186">
        <ele>175.3</ele>
        <time>2022-09-17T14:11:07.000Z</time>
      </trkpt>
      <trkpt lat="45.06225" lon="5.01865">
        <ele>175.2</ele>
        <time>2022-09-17T14:11:08.000Z</time>
      </trkpt>
      <trkpt lat="45.06227" lon="5.0187">
        <ele>175.1</ele>
        <time>2022-09-17T14:11:09.000Z</time>
      </trkpt>
      <trkpt lat="45.06228" lon="5.01875">
        <ele>175.1</ele>
        <time>2022-09-17T14:11:10.000Z</time>
      </trkpt>
      <trkpt lat="45.0623" lon="5.0188">
        <ele>175.1</ele>
        <time>2022-09-17T14:11:11.000Z</time>
      </trkpt>
      <trkpt lat="45.06232" lon="5.01885">
        <ele>175.1</ele>
        <time>2022-09-17T14:11:12.000Z</time>
      </trkpt>
      <trkpt lat="45.06233" lon="5.0189">
        <ele>175.1</ele>
        <time>2022-09-17T14:11:13.000Z</time>
      </trkpt>
      <trkpt lat="45.06235" lon="5.01895">
        <ele>175.2</ele>
        <time>2022-09-17T14:11:14.000Z</time>
      </trkpt>
      <trkpt lat="45.06237" lon="5.01901">
        <ele>175.2</ele>
        <time>2022-09-17T14:11:15.000Z</time>
      </trkpt>
      <trkpt lat="45.0624" lon="5.01905">
        <ele>175.3</ele>
        <time>2022-09-17T14:11:16.000Z</time>
      </trkpt>
      <trkpt lat="45.06242" lon="5.01911">
        <ele>175.3</ele>
        <time>2022-09-17T14:11:17.000Z</time>
      </trkpt>
      <trkpt lat="45.06243" lon="5.01917">
        <ele>175.2</ele>
        <time>2022-09-17T14:11:18.000Z</time>
      </trkpt>
      <trkpt lat="45.06245" lon="5.01923">
        <ele>175.2</ele>
        <time>2022-09-17T14:11:19.000Z</time>
      </trkpt>
      <trkpt lat="45.06247" lon="5.01927">
        <ele>175.3</ele>
        <time>2022-09-17T14:11:20.000Z</time>
      </trkpt>
      <trkpt lat="45.06249" lon="5.01933">
        <ele>175.3</ele>
        <time>2022-09-17T14:11:21.000Z</time>
      </trkpt>
      <trkpt lat="45.06252" lon="5.01938">
        <ele>175.4</ele>
        <time>2022-09-17T14:11:22.000Z</time>
      </trkpt>
      <trkpt lat="45.06254" lon="5.01943">
        <ele>175.5</ele>
        <time>2022-09-17T14:11:23.000Z</time>
      </trkpt>
      <trkpt lat="45.06256" lon="5.01948">
        <ele>175.4</ele>
        <time>2022-09-17T14:11:24.000Z</time>
      </trkpt>
      <trkpt lat="45.06258" lon="5.01953">
        <ele>175.5</ele>
        <time>2022-09-17T14:11:25.000Z</time>
      </trkpt>
      <trkpt lat="45.06261" lon="5.01958">
        <ele>175.6</ele>
        <time>2022-09-17T14:11:26.000Z</time>
      </trkpt>
      <trkpt lat="45.06263" lon="5.01963">
        <ele>175.7</ele>
        <time>2022-09-17T14:11:27.000Z</time>
      </trkpt>
      <trkpt lat="45.06265" lon="5.01969">
        <ele>175.8</ele>
        <time>2022-09-17T14:11:28.000Z</time>
      </trkpt>
      <trkpt lat="45.06267" lon="5.01974">
        <ele>176</ele>
        <time>2022-09-17T14:11:29.000Z</time>
      </trkpt>
      <trkpt lat="45.0627" lon="5.01979">
        <ele>175.9</ele>
        <time>2022-09-17T14:11:30.000Z</time>
      </trkpt>
      <trkpt lat="45.06272" lon="5.01985">
        <ele>175.8</ele>
        <time>2022-09-17T14:11:31.000Z</time>
      </trkpt>
      <trkpt lat="45.06274" lon="5.0199">
        <ele>175.5</ele>
        <time>2022-09-17T14:11:32.000Z</time>
      </trkpt>
      <trkpt lat="45.06276" lon="5.01996">
        <ele>175.2</ele>
        <time>2022-09-17T14:11:33.000Z</time>
      </trkpt>
      <trkpt lat="45.06278" lon="5.02001">
        <ele>175</ele>
        <time>2022-09-17T14:11:34.000Z</time>
      </trkpt>
      <trkpt lat="45.06281" lon="5.02006">
        <ele>175.2</ele>
        <time>2022-09-17T14:11:35.000Z</time>
      </trkpt>
      <trkpt lat="45.06283" lon="5.02011">
        <ele>175.4</ele>
        <time>2022-09-17T14:11:36.000Z</time>
      </trkpt>
      <trkpt lat="45.06285" lon="5.02017">
        <ele>175.5</ele>
        <time>2022-09-17T14:11:37.000Z</time>
      </trkpt>
      <trkpt lat="45.06287" lon="5.02022">
        <ele>175.6</ele>
        <time>2022-09-17T14:11:38.000Z</time>
      </trkpt>
      <trkpt lat="45.06289" lon="5.02027">
        <ele>175.8</ele>
        <time>2022-09-17T14:11:39.000Z</time>
      </trkpt>
      <trkpt lat="45.06291" lon="5.02032">
        <ele>176.2</ele>
        <time>2022-09-17T14:11:40.000Z</time>
      </trkpt>
      <trkpt lat="45.06294" lon="5.02037">
        <ele>176.8</ele>
        <time>2022-09-17T14:11:41.000Z</time>
      </trkpt>
      <trkpt lat="45.06299" lon="5.02043">
        <ele>177.5</ele>
        <time>2022-09-17T14:11:42.000Z</time>
      </trkpt>
      <trkpt lat="45.06301" lon="5.02047">
        <ele>177.6</ele>
        <time>2022-09-17T14:11:43.000Z</time>
      </trkpt>
      <trkpt lat="45.06302" lon="5.02052">
        <ele>177.6</ele>
        <time>2022-09-17T14:11:44.000Z</time>
      </trkpt>
      <trkpt lat="45.06303" lon="5.02056">
        <ele>177.5</ele>
        <time>2022-09-17T14:11:45.000Z</time>
      </trkpt>
      <trkpt lat="45.06304" lon="5.02061">
        <ele>177.4</ele>
        <time>2022-09-17T14:11:46.000Z</time>
      </trkpt>
      <trkpt lat="45.06306" lon="5.02065">
        <ele>177.3</ele>
        <time>2022-09-17T14:11:47.000Z</time>
      </trkpt>
      <trkpt lat="45.06308" lon="5.0207">
        <ele>177.4</ele>
        <time>2022-09-17T14:11:48.000Z</time>
      </trkpt>
      <trkpt lat="45.06309" lon="5.02075">
        <ele>177.3</ele>
        <time>2022-09-17T14:11:49.000Z</time>
      </trkpt>
      <trkpt lat="45.0631" lon="5.02079">
        <ele>177.3</ele>
        <time>2022-09-17T14:11:50.000Z</time>
      </trkpt>
      <trkpt lat="45.06312" lon="5.02083">
        <ele>177.3</ele>
        <time>2022-09-17T14:11:51.000Z</time>
      </trkpt>
      <trkpt lat="45.06313" lon="5.02088">
        <ele>177.4</ele>
        <time>2022-09-17T14:11:52.000Z</time>
      </trkpt>
      <trkpt lat="45.06314" lon="5.02092">
        <ele>177.5</ele>
        <time>2022-09-17T14:11:53.000Z</time>
      </trkpt>
      <trkpt lat="45.06315" lon="5.02096">
        <ele>177.5</ele>
        <time>2022-09-17T14:11:54.000Z</time>
      </trkpt>
      <trkpt lat="45.06316" lon="5.02101">
        <ele>177.5</ele>
        <time>2022-09-17T14:11:55.000Z</time>
      </trkpt>
      <trkpt lat="45.06316" lon="5.02105">
        <ele>177.5</ele>
        <time>2022-09-17T14:11:56.000Z</time>
      </trkpt>
      <trkpt lat="45.06317" lon="5.02109">
        <ele>177.5</ele>
        <time>2022-09-17T14:11:57.000Z</time>
      </trkpt>
      <trkpt lat="45.06318" lon="5.02113">
        <ele>177.7</ele>
        <time>2022-09-17T14:11:58.000Z</time>
      </trkpt>
      <trkpt lat="45.0632" lon="5.02118">
        <ele>177.9</ele>
        <time>2022-09-17T14:11:59.000Z</time>
      </trkpt>
      <trkpt lat="45.06321" lon="5.02123">
        <ele>178</ele>
        <time>2022-09-17T14:12:00.000Z</time>
      </trkpt>
      <trkpt lat="45.06322" lon="5.02127">
        <ele>178.3</ele>
        <time>2022-09-17T14:12:01.000Z</time>
      </trkpt>
      <trkpt lat="45.06324" lon="5.02131">
        <ele>178.5</ele>
        <time>2022-09-17T14:12:02.000Z</time>
      </trkpt>
      <trkpt lat="45.06326" lon="5.02135">
        <ele>178.7</ele>
        <time>2022-09-17T14:12:03.000Z</time>
      </trkpt>
      <trkpt lat="45.06328" lon="5.02139">
        <ele>179</ele>
        <time>2022-09-17T14:12:04.000Z</time>
      </trkpt>
      <trkpt lat="45.0633" lon="5.02143">
        <ele>179</ele>
        <time>2022-09-17T14:12:05.000Z</time>
      </trkpt>
      <trkpt lat="45.06332" lon="5.02148">
        <ele>178.9</ele>
        <time>2022-09-17T14:12:06.000Z</time>
      </trkpt>
      <trkpt lat="45.06335" lon="5.02152">
        <ele>178.8</ele>
        <time>2022-09-17T14:12:07.000Z</time>
      </trkpt>
      <trkpt lat="45.06337" lon="5.02156">
        <ele>178.7</ele>
        <time>2022-09-17T14:12:08.000Z</time>
      </trkpt>
      <trkpt lat="45.0634" lon="5.0216">
        <ele>178.6</ele>
        <time>2022-09-17T14:12:09.000Z</time>
      </trkpt>
      <trkpt lat="45.06342" lon="5.02164">
        <ele>178.5</ele>
        <time>2022-09-17T14:12:10.000Z</time>
      </trkpt>
      <trkpt lat="45.06344" lon="5.02167">
        <ele>178.5</ele>
        <time>2022-09-17T14:12:11.000Z</time>
      </trkpt>
      <trkpt lat="45.06346" lon="5.0217">
        <ele>178.6</ele>
        <time>2022-09-17T14:12:12.000Z</time>
      </trkpt>
      <trkpt lat="45.06349" lon="5.02174">
        <ele>178.7</ele>
        <time>2022-09-17T14:12:13.000Z</time>
      </trkpt>
      <trkpt lat="45.06351" lon="5.02179">
        <ele>178.7</ele>
        <time>2022-09-17T14:12:14.000Z</time>
      </trkpt>
      <trkpt lat="45.06354" lon="5.02184">
        <ele>178.7</ele>
        <time>2022-09-17T14:12:15.000Z</time>
      </trkpt>
      <trkpt lat="45.06356" lon="5.02189">
        <ele>178.6</ele>
        <time>2022-09-17T14:12:16.000Z</time>
      </trkpt>
      <trkpt lat="45.06358" lon="5.02196">
        <ele>178.4</ele>
        <time>2022-09-17T14:12:17.000Z</time>
      </trkpt>
      <trkpt lat="45.06359" lon="5.02203">
        <ele>178.2</ele>
        <time>2022-09-17T14:12:18.000Z</time>
      </trkpt>
      <trkpt lat="45.06361" lon="5.02209">
        <ele>177.9</ele>
        <time>2022-09-17T14:12:19.000Z</time>
      </trkpt>
      <trkpt lat="45.06363" lon="5.02216">
        <ele>177.7</ele>
        <time>2022-09-17T14:12:20.000Z</time>
      </trkpt>
      <trkpt lat="45.06366" lon="5.02223">
        <ele>177.6</ele>
        <time>2022-09-17T14:12:21.000Z</time>
      </trkpt>
      <trkpt lat="45.06369" lon="5.02229">
        <ele>177.8</ele>
        <time>2022-09-17T14:12:22.000Z</time>
      </trkpt>
      <trkpt lat="45.06371" lon="5.02236">
        <ele>177.8</ele>
        <time>2022-09-17T14:12:23.000Z</time>
      </trkpt>
      <trkpt lat="45.06374" lon="5.02243">
        <ele>177.7</ele>
        <time>2022-09-17T14:12:24.000Z</time>
      </trkpt>
      <trkpt lat="45.06377" lon="5.02249">
        <ele>177.7</ele>
        <time>2022-09-17T14:12:25.000Z</time>
      </trkpt>
      <trkpt lat="45.06379" lon="5.02255">
        <ele>177.7</ele>
        <time>2022-09-17T14:12:26.000Z</time>
      </trkpt>
      <trkpt lat="45.06382" lon="5.0226">
        <ele>177.7</ele>
        <time>2022-09-17T14:12:27.000Z</time>
      </trkpt>
      <trkpt lat="45.06385" lon="5.02265">
        <ele>177.6</ele>
        <time>2022-09-17T14:12:28.000Z</time>
      </trkpt>
      <trkpt lat="45.06388" lon="5.0227">
        <ele>177.5</ele>
        <time>2022-09-17T14:12:29.000Z</time>
      </trkpt>
      <trkpt lat="45.0639" lon="5.02273">
        <ele>177.5</ele>
        <time>2022-09-17T14:12:30.000Z</time>
      </trkpt>
      <trkpt lat="45.06393" lon="5.02278">
        <ele>177.4</ele>
        <time>2022-09-17T14:12:31.000Z</time>
      </trkpt>
      <trkpt lat="45.06395" lon="5.02281">
        <ele>177.6</ele>
        <time>2022-09-17T14:12:32.000Z</time>
      </trkpt>
      <trkpt lat="45.06397" lon="5.02285">
        <ele>177.8</ele>
        <time>2022-09-17T14:12:33.000Z</time>
      </trkpt>
      <trkpt lat="45.06399" lon="5.0229">
        <ele>178</ele>
        <time>2022-09-17T14:12:34.000Z</time>
      </trkpt>
      <trkpt lat="45.06402" lon="5.02294">
        <ele>178.1</ele>
        <time>2022-09-17T14:12:35.000Z</time>
      </trkpt>
      <trkpt lat="45.06404" lon="5.02298">
        <ele>178.3</ele>
        <time>2022-09-17T14:12:36.000Z</time>
      </trkpt>
      <trkpt lat="45.06406" lon="5.02302">
        <ele>178.3</ele>
        <time>2022-09-17T14:12:37.000Z</time>
      </trkpt>
      <trkpt lat="45.06407" lon="5.02307">
        <ele>178.3</ele>
        <time>2022-09-17T14:12:38.000Z</time>
      </trkpt>
      <trkpt lat="45.06409" lon="5.02312">
        <ele>178.4</ele>
        <time>2022-09-17T14:12:39.000Z</time>
      </trkpt>
      <trkpt lat="45.0641" lon="5.02317">
        <ele>178.5</ele>
        <time>2022-09-17T14:12:40.000Z</time>
      </trkpt>
      <trkpt lat="45.06412" lon="5.02321">
        <ele>178.6</ele>
        <time>2022-09-17T14:12:41.000Z</time>
      </trkpt>
      <trkpt lat="45.06414" lon="5.02326">
        <ele>178.7</ele>
        <time>2022-09-17T14:12:42.000Z</time>
      </trkpt>
      <trkpt lat="45.06415" lon="5.02331">
        <ele>178.8</ele>
        <time>2022-09-17T14:12:43.000Z</time>
      </trkpt>
      <trkpt lat="45.06416" lon="5.02337">
        <ele>178.7</ele>
        <time>2022-09-17T14:12:44.000Z</time>
      </trkpt>
      <trkpt lat="45.06418" lon="5.02342">
        <ele>178.5</ele>
        <time>2022-09-17T14:12:45.000Z</time>
      </trkpt>
      <trkpt lat="45.06419" lon="5.02348">
        <ele>178.3</ele>
        <time>2022-09-17T14:12:46.000Z</time>
      </trkpt>
      <trkpt lat="45.0642" lon="5.02353">
        <ele>178.2</ele>
        <time>2022-09-17T14:12:47.000Z</time>
      </trkpt>
      <trkpt lat="45.06421" lon="5.02358">
        <ele>178.1</ele>
        <time>2022-09-17T14:12:48.000Z</time>
      </trkpt>
      <trkpt lat="45.06422" lon="5.02364">
        <ele>178</ele>
        <time>2022-09-17T14:12:49.000Z</time>
      </trkpt>
      <trkpt lat="45.06424" lon="5.02369">
        <ele>177.9</ele>
        <time>2022-09-17T14:12:50.000Z</time>
      </trkpt>
      <trkpt lat="45.06425" lon="5.02374">
        <ele>177.9</ele>
        <time>2022-09-17T14:12:51.000Z</time>
      </trkpt>
      <trkpt lat="45.06427" lon="5.02379">
        <ele>177.9</ele>
        <time>2022-09-17T14:12:52.000Z</time>
      </trkpt>
      <trkpt lat="45.06429" lon="5.02384">
        <ele>178</ele>
        <time>2022-09-17T14:12:53.000Z</time>
      </trkpt>
      <trkpt lat="45.06431" lon="5.02389">
        <ele>178.1</ele>
        <time>2022-09-17T14:12:54.000Z</time>
      </trkpt>
      <trkpt lat="45.06433" lon="5.02393">
        <ele>178.1</ele>
        <time>2022-09-17T14:12:55.000Z</time>
      </trkpt>
      <trkpt lat="45.06435" lon="5.02398">
        <ele>178</ele>
        <time>2022-09-17T14:12:56.000Z</time>
      </trkpt>
      <trkpt lat="45.06438" lon="5.02403">
        <ele>177.8</ele>
        <time>2022-09-17T14:12:57.000Z</time>
      </trkpt>
      <trkpt lat="45.0644" lon="5.02409">
        <ele>177.6</ele>
        <time>2022-09-17T14:12:58.000Z</time>
      </trkpt>
      <trkpt lat="45.06443" lon="5.02413">
        <ele>177.4</ele>
        <time>2022-09-17T14:12:59.000Z</time>
      </trkpt>
      <trkpt lat="45.06445" lon="5.02417">
        <ele>177.1</ele>
        <time>2022-09-17T14:13:00.000Z</time>
      </trkpt>
      <trkpt lat="45.06449" lon="5.02421">
        <ele>177.1</ele>
        <time>2022-09-17T14:13:01.000Z</time>
      </trkpt>
      <trkpt lat="45.06451" lon="5.02426">
        <ele>176.9</ele>
        <time>2022-09-17T14:13:02.000Z</time>
      </trkpt>
      <trkpt lat="45.06454" lon="5.02432">
        <ele>176.6</ele>
        <time>2022-09-17T14:13:03.000Z</time>
      </trkpt>
      <trkpt lat="45.06458" lon="5.02437">
        <ele>176.4</ele>
        <time>2022-09-17T14:13:04.000Z</time>
      </trkpt>
      <trkpt lat="45.06462" lon="5.02441">
        <ele>176.3</ele>
        <time>2022-09-17T14:13:05.000Z</time>
      </trkpt>
      <trkpt lat="45.06466" lon="5.02446">
        <ele>176.1</ele>
        <time>2022-09-17T14:13:06.000Z</time>
      </trkpt>
      <trkpt lat="45.06469" lon="5.02451">
        <ele>176.1</ele>
        <time>2022-09-17T14:13:07.000Z</time>
      </trkpt>
      <trkpt lat="45.06474" lon="5.02456">
        <ele>175.9</ele>
        <time>2022-09-17T14:13:08.000Z</time>
      </trkpt>
      <trkpt lat="45.06477" lon="5.0246">
        <ele>175.8</ele>
        <time>2022-09-17T14:13:09.000Z</time>
      </trkpt>
      <trkpt lat="45.06481" lon="5.02464">
        <ele>175.9</ele>
        <time>2022-09-17T14:13:10.000Z</time>
      </trkpt>
      <trkpt lat="45.06485" lon="5.02469">
        <ele>175.7</ele>
        <time>2022-09-17T14:13:11.000Z</time>
      </trkpt>
      <trkpt lat="45.06488" lon="5.02474">
        <ele>175.6</ele>
        <time>2022-09-17T14:13:12.000Z</time>
      </trkpt>
      <trkpt lat="45.06491" lon="5.02478">
        <ele>175.7</ele>
        <time>2022-09-17T14:13:13.000Z</time>
      </trkpt>
      <trkpt lat="45.06494" lon="5.02483">
        <ele>175.7</ele>
        <time>2022-09-17T14:13:14.000Z</time>
      </trkpt>
      <trkpt lat="45.06497" lon="5.02488">
        <ele>175.6</ele>
        <time>2022-09-17T14:13:15.000Z</time>
      </trkpt>
      <trkpt lat="45.06499" lon="5.02494">
        <ele>175.4</ele>
        <time>2022-09-17T14:13:16.000Z</time>
      </trkpt>
      <trkpt lat="45.06502" lon="5.02499">
        <ele>175.2</ele>
        <time>2022-09-17T14:13:17.000Z</time>
      </trkpt>
      <trkpt lat="45.06504" lon="5.02505">
        <ele>174.9</ele>
        <time>2022-09-17T14:13:18.000Z</time>
      </trkpt>
      <trkpt lat="45.06506" lon="5.0251">
        <ele>174.6</ele>
        <time>2022-09-17T14:13:19.000Z</time>
      </trkpt>
      <trkpt lat="45.06507" lon="5.02517">
        <ele>174.2</ele>
        <time>2022-09-17T14:13:20.000Z</time>
      </trkpt>
      <trkpt lat="45.06509" lon="5.02523">
        <ele>173.7</ele>
        <time>2022-09-17T14:13:21.000Z</time>
      </trkpt>
      <trkpt lat="45.0651" lon="5.0253">
        <ele>173.3</ele>
        <time>2022-09-17T14:13:22.000Z</time>
      </trkpt>
      <trkpt lat="45.06511" lon="5.02537">
        <ele>173.1</ele>
        <time>2022-09-17T14:13:23.000Z</time>
      </trkpt>
      <trkpt lat="45.06512" lon="5.02543">
        <ele>172.9</ele>
        <time>2022-09-17T14:13:24.000Z</time>
      </trkpt>
      <trkpt lat="45.06513" lon="5.0255">
        <ele>172.7</ele>
        <time>2022-09-17T14:13:25.000Z</time>
      </trkpt>
      <trkpt lat="45.06514" lon="5.02556">
        <ele>172.5</ele>
        <time>2022-09-17T14:13:26.000Z</time>
      </trkpt>
      <trkpt lat="45.06515" lon="5.02563">
        <ele>172.4</ele>
        <time>2022-09-17T14:13:27.000Z</time>
      </trkpt>
      <trkpt lat="45.06516" lon="5.0257">
        <ele>172.3</ele>
        <time>2022-09-17T14:13:28.000Z</time>
      </trkpt>
      <trkpt lat="45.06517" lon="5.02577">
        <ele>172.1</ele>
        <time>2022-09-17T14:13:29.000Z</time>
      </trkpt>
      <trkpt lat="45.06518" lon="5.02583">
        <ele>172</ele>
        <time>2022-09-17T14:13:30.000Z</time>
      </trkpt>
      <trkpt lat="45.06519" lon="5.0259">
        <ele>171.9</ele>
        <time>2022-09-17T14:13:31.000Z</time>
      </trkpt>
      <trkpt lat="45.0652" lon="5.02596">
        <ele>171.9</ele>
        <time>2022-09-17T14:13:32.000Z</time>
      </trkpt>
      <trkpt lat="45.06521" lon="5.02603">
        <ele>171.8</ele>
        <time>2022-09-17T14:13:33.000Z</time>
      </trkpt>
      <trkpt lat="45.06522" lon="5.02609">
        <ele>171.8</ele>
        <time>2022-09-17T14:13:34.000Z</time>
      </trkpt>
      <trkpt lat="45.06523" lon="5.02616">
        <ele>171.7</ele>
        <time>2022-09-17T14:13:35.000Z</time>
      </trkpt>
      <trkpt lat="45.06524" lon="5.02622">
        <ele>171.5</ele>
        <time>2022-09-17T14:13:36.000Z</time>
      </trkpt>
      <trkpt lat="45.06525" lon="5.02628">
        <ele>171.3</ele>
        <time>2022-09-17T14:13:37.000Z</time>
      </trkpt>
      <trkpt lat="45.06526" lon="5.02634">
        <ele>171.2</ele>
        <time>2022-09-17T14:13:38.000Z</time>
      </trkpt>
      <trkpt lat="45.06527" lon="5.02639">
        <ele>171</ele>
        <time>2022-09-17T14:13:39.000Z</time>
      </trkpt>
      <trkpt lat="45.06529" lon="5.02644">
        <ele>171</ele>
        <time>2022-09-17T14:13:40.000Z</time>
      </trkpt>
      <trkpt lat="45.06529" lon="5.0265">
        <ele>171</ele>
        <time>2022-09-17T14:13:41.000Z</time>
      </trkpt>
      <trkpt lat="45.0653" lon="5.02656">
        <ele>170.9</ele>
        <time>2022-09-17T14:13:42.000Z</time>
      </trkpt>
      <trkpt lat="45.06531" lon="5.02662">
        <ele>170.9</ele>
        <time>2022-09-17T14:13:43.000Z</time>
      </trkpt>
      <trkpt lat="45.06532" lon="5.02667">
        <ele>170.9</ele>
        <time>2022-09-17T14:13:44.000Z</time>
      </trkpt>
      <trkpt lat="45.06532" lon="5.02673">
        <ele>170.8</ele>
        <time>2022-09-17T14:13:45.000Z</time>
      </trkpt>
      <trkpt lat="45.06533" lon="5.02678">
        <ele>170.8</ele>
        <time>2022-09-17T14:13:46.000Z</time>
      </trkpt>
      <trkpt lat="45.06534" lon="5.02684">
        <ele>170.8</ele>
        <time>2022-09-17T14:13:47.000Z</time>
      </trkpt>
      <trkpt lat="45.06535" lon="5.02689">
        <ele>170.7</ele>
        <time>2022-09-17T14:13:48.000Z</time>
      </trkpt>
      <trkpt lat="45.06536" lon="5.02695">
        <ele>170.7</ele>
        <time>2022-09-17T14:13:49.000Z</time>
      </trkpt>
      <trkpt lat="45.06537" lon="5.02701">
        <ele>170.7</ele>
        <time>2022-09-17T14:13:50.000Z</time>
      </trkpt>
      <trkpt lat="45.06538" lon="5.02707">
        <ele>170.6</ele>
        <time>2022-09-17T14:13:51.000Z</time>
      </trkpt>
      <trkpt lat="45.06539" lon="5.02713">
        <ele>170.6</ele>
        <time>2022-09-17T14:13:52.000Z</time>
      </trkpt>
      <trkpt lat="45.0654" lon="5.02718">
        <ele>170.6</ele>
        <time>2022-09-17T14:13:53.000Z</time>
      </trkpt>
      <trkpt lat="45.06541" lon="5.02723">
        <ele>170.5</ele>
        <time>2022-09-17T14:13:54.000Z</time>
      </trkpt>
      <trkpt lat="45.06542" lon="5.02728">
        <ele>170.4</ele>
        <time>2022-09-17T14:13:55.000Z</time>
      </trkpt>
      <trkpt lat="45.06542" lon="5.02733">
        <ele>170.3</ele>
        <time>2022-09-17T14:13:56.000Z</time>
      </trkpt>
      <trkpt lat="45.06543" lon="5.02737">
        <ele>170.2</ele>
        <time>2022-09-17T14:13:57.000Z</time>
      </trkpt>
      <trkpt lat="45.06544" lon="5.02743">
        <ele>170.1</ele>
        <time>2022-09-17T14:13:58.000Z</time>
      </trkpt>
      <trkpt lat="45.06544" lon="5.02748">
        <ele>170</ele>
        <time>2022-09-17T14:13:59.000Z</time>
      </trkpt>
      <trkpt lat="45.06545" lon="5.02753">
        <ele>170.1</ele>
        <time>2022-09-17T14:14:00.000Z</time>
      </trkpt>
      <trkpt lat="45.06546" lon="5.02759">
        <ele>170.3</ele>
        <time>2022-09-17T14:14:01.000Z</time>
      </trkpt>
      <trkpt lat="45.06547" lon="5.02765">
        <ele>170.5</ele>
        <time>2022-09-17T14:14:02.000Z</time>
      </trkpt>
      <trkpt lat="45.06548" lon="5.0277">
        <ele>170.7</ele>
        <time>2022-09-17T14:14:03.000Z</time>
      </trkpt>
      <trkpt lat="45.06549" lon="5.02776">
        <ele>170.9</ele>
        <time>2022-09-17T14:14:04.000Z</time>
      </trkpt>
      <trkpt lat="45.0655" lon="5.02781">
        <ele>171</ele>
        <time>2022-09-17T14:14:05.000Z</time>
      </trkpt>
      <trkpt lat="45.06551" lon="5.02787">
        <ele>170.9</ele>
        <time>2022-09-17T14:14:06.000Z</time>
      </trkpt>
      <trkpt lat="45.06551" lon="5.02792">
        <ele>170.9</ele>
        <time>2022-09-17T14:14:07.000Z</time>
      </trkpt>
      <trkpt lat="45.06552" lon="5.02797">
        <ele>170.9</ele>
        <time>2022-09-17T14:14:08.000Z</time>
      </trkpt>
      <trkpt lat="45.06553" lon="5.02802">
        <ele>170.9</ele>
        <time>2022-09-17T14:14:09.000Z</time>
      </trkpt>
      <trkpt lat="45.06554" lon="5.02807">
        <ele>170.9</ele>
        <time>2022-09-17T14:14:10.000Z</time>
      </trkpt>
      <trkpt lat="45.06554" lon="5.02812">
        <ele>171</ele>
        <time>2022-09-17T14:14:11.000Z</time>
      </trkpt>
      <trkpt lat="45.06555" lon="5.02816">
        <ele>171</ele>
        <time>2022-09-17T14:14:12.000Z</time>
      </trkpt>
      <trkpt lat="45.06556" lon="5.02821">
        <ele>171</ele>
        <time>2022-09-17T14:14:13.000Z</time>
      </trkpt>
      <trkpt lat="45.06557" lon="5.02825">
        <ele>171</ele>
        <time>2022-09-17T14:14:14.000Z</time>
      </trkpt>
      <trkpt lat="45.06557" lon="5.02829">
        <ele>170.9</ele>
        <time>2022-09-17T14:14:15.000Z</time>
      </trkpt>
      <trkpt lat="45.06558" lon="5.02834">
        <ele>170.9</ele>
        <time>2022-09-17T14:14:16.000Z</time>
      </trkpt>
      <trkpt lat="45.06559" lon="5.02839">
        <ele>170.9</ele>
        <time>2022-09-17T14:14:17.000Z</time>
      </trkpt>
      <trkpt lat="45.06559" lon="5.02843">
        <ele>170.9</ele>
        <time>2022-09-17T14:14:18.000Z</time>
      </trkpt>
      <trkpt lat="45.0656" lon="5.02848">
        <ele>170.9</ele>
        <time>2022-09-17T14:14:19.000Z</time>
      </trkpt>
      <trkpt lat="45.0656" lon="5.02853">
        <ele>170.8</ele>
        <time>2022-09-17T14:14:20.000Z</time>
      </trkpt>
      <trkpt lat="45.06561" lon="5.02857">
        <ele>170.8</ele>
        <time>2022-09-17T14:14:21.000Z</time>
      </trkpt>
      <trkpt lat="45.06562" lon="5.02862">
        <ele>170.8</ele>
        <time>2022-09-17T14:14:22.000Z</time>
      </trkpt>
      <trkpt lat="45.06562" lon="5.02867">
        <ele>170.8</ele>
        <time>2022-09-17T14:14:23.000Z</time>
      </trkpt>
      <trkpt lat="45.06563" lon="5.02872">
        <ele>170.8</ele>
        <time>2022-09-17T14:14:24.000Z</time>
      </trkpt>
      <trkpt lat="45.06564" lon="5.02877">
        <ele>170.9</ele>
        <time>2022-09-17T14:14:25.000Z</time>
      </trkpt>
      <trkpt lat="45.06564" lon="5.02882">
        <ele>170.9</ele>
        <time>2022-09-17T14:14:26.000Z</time>
      </trkpt>
      <trkpt lat="45.06564" lon="5.02888">
        <ele>171</ele>
        <time>2022-09-17T14:14:27.000Z</time>
      </trkpt>
      <trkpt lat="45.06564" lon="5.02892">
        <ele>170.9</ele>
        <time>2022-09-17T14:14:28.000Z</time>
      </trkpt>
      <trkpt lat="45.06564" lon="5.02896">
        <ele>170.8</ele>
        <time>2022-09-17T14:14:29.000Z</time>
      </trkpt>
      <trkpt lat="45.06565" lon="5.02901">
        <ele>170.7</ele>
        <time>2022-09-17T14:14:30.000Z</time>
      </trkpt>
      <trkpt lat="45.06565" lon="5.02904">
        <ele>170.6</ele>
        <time>2022-09-17T14:14:31.000Z</time>
      </trkpt>
      <trkpt lat="45.06565" lon="5.02908">
        <ele>170.5</ele>
        <time>2022-09-17T14:14:32.000Z</time>
      </trkpt>
      <trkpt lat="45.06565" lon="5.02911">
        <ele>170.5</ele>
        <time>2022-09-17T14:14:33.000Z</time>
      </trkpt>
      <trkpt lat="45.06565" lon="5.02915">
        <ele>170.4</ele>
        <time>2022-09-17T14:14:34.000Z</time>
      </trkpt>
      <trkpt lat="45.06565" lon="5.02918">
        <ele>170.3</ele>
        <time>2022-09-17T14:14:35.000Z</time>
      </trkpt>
      <trkpt lat="45.06566" lon="5.02921">
        <ele>170.4</ele>
        <time>2022-09-17T14:14:36.000Z</time>
      </trkpt>
      <trkpt lat="45.06566" lon="5.02925">
        <ele>170.4</ele>
        <time>2022-09-17T14:14:37.000Z</time>
      </trkpt>
      <trkpt lat="45.06566" lon="5.02928">
        <ele>170.4</ele>
        <time>2022-09-17T14:14:38.000Z</time>
      </trkpt>
      <trkpt lat="45.06567" lon="5.02931">
        <ele>170.4</ele>
        <time>2022-09-17T14:14:39.000Z</time>
      </trkpt>
      <trkpt lat="45.06567" lon="5.02935">
        <ele>170.4</ele>
        <time>2022-09-17T14:14:40.000Z</time>
      </trkpt>
      <trkpt lat="45.06568" lon="5.0294">
        <ele>170.5</ele>
        <time>2022-09-17T14:14:41.000Z</time>
      </trkpt>
      <trkpt lat="45.06569" lon="5.02944">
        <ele>170.5</ele>
        <time>2022-09-17T14:14:42.000Z</time>
      </trkpt>
      <trkpt lat="45.06571" lon="5.0295">
        <ele>170.3</ele>
        <time>2022-09-17T14:14:43.000Z</time>
      </trkpt>
      <trkpt lat="45.06573" lon="5.02956">
        <ele>169.9</ele>
        <time>2022-09-17T14:14:44.000Z</time>
      </trkpt>
      <trkpt lat="45.06575" lon="5.02963">
        <ele>169.5</ele>
        <time>2022-09-17T14:14:45.000Z</time>
      </trkpt>
      <trkpt lat="45.06576" lon="5.02971">
        <ele>169.1</ele>
        <time>2022-09-17T14:14:46.000Z</time>
      </trkpt>
      <trkpt lat="45.06576" lon="5.02978">
        <ele>169.2</ele>
        <time>2022-09-17T14:14:47.000Z</time>
      </trkpt>
      <trkpt lat="45.06576" lon="5.02984">
        <ele>169.4</ele>
        <time>2022-09-17T14:14:48.000Z</time>
      </trkpt>
      <trkpt lat="45.06576" lon="5.02991">
        <ele>169.7</ele>
        <time>2022-09-17T14:14:49.000Z</time>
      </trkpt>
      <trkpt lat="45.06576" lon="5.02997">
        <ele>169.9</ele>
        <time>2022-09-17T14:14:50.000Z</time>
      </trkpt>
      <trkpt lat="45.06576" lon="5.03003">
        <ele>170.1</ele>
        <time>2022-09-17T14:14:51.000Z</time>
      </trkpt>
      <trkpt lat="45.06576" lon="5.03009">
        <ele>170.2</ele>
        <time>2022-09-17T14:14:52.000Z</time>
      </trkpt>
      <trkpt lat="45.06577" lon="5.03013">
        <ele>170.4</ele>
        <time>2022-09-17T14:14:53.000Z</time>
      </trkpt>
      <trkpt lat="45.06578" lon="5.03018">
        <ele>170.5</ele>
        <time>2022-09-17T14:14:54.000Z</time>
      </trkpt>
      <trkpt lat="45.06578" lon="5.03022">
        <ele>170.6</ele>
        <time>2022-09-17T14:14:55.000Z</time>
      </trkpt>
      <trkpt lat="45.06578" lon="5.03026">
        <ele>170.8</ele>
        <time>2022-09-17T14:14:56.000Z</time>
      </trkpt>
      <trkpt lat="45.06579" lon="5.0303">
        <ele>170.8</ele>
        <time>2022-09-17T14:14:57.000Z</time>
      </trkpt>
      <trkpt lat="45.06579" lon="5.03034">
        <ele>170.8</ele>
        <time>2022-09-17T14:14:58.000Z</time>
      </trkpt>
      <trkpt lat="45.06579" lon="5.03039">
        <ele>170.9</ele>
        <time>2022-09-17T14:14:59.000Z</time>
      </trkpt>
      <trkpt lat="45.0658" lon="5.03044">
        <ele>170.9</ele>
        <time>2022-09-17T14:15:00.000Z</time>
      </trkpt>
      <trkpt lat="45.0658" lon="5.03048">
        <ele>170.9</ele>
        <time>2022-09-17T14:15:01.000Z</time>
      </trkpt>
      <trkpt lat="45.06581" lon="5.03053">
        <ele>170.9</ele>
        <time>2022-09-17T14:15:02.000Z</time>
      </trkpt>
      <trkpt lat="45.06581" lon="5.03058">
        <ele>170.9</ele>
        <time>2022-09-17T14:15:03.000Z</time>
      </trkpt>
      <trkpt lat="45.06582" lon="5.03064">
        <ele>170.9</ele>
        <time>2022-09-17T14:15:04.000Z</time>
      </trkpt>
      <trkpt lat="45.06582" lon="5.0307">
        <ele>170.9</ele>
        <time>2022-09-17T14:15:05.000Z</time>
      </trkpt>
      <trkpt lat="45.06582" lon="5.03075">
        <ele>171</ele>
        <time>2022-09-17T14:15:06.000Z</time>
      </trkpt>
      <trkpt lat="45.06582" lon="5.03081">
        <ele>171</ele>
        <time>2022-09-17T14:15:07.000Z</time>
      </trkpt>
      <trkpt lat="45.06583" lon="5.03086">
        <ele>171</ele>
        <time>2022-09-17T14:15:08.000Z</time>
      </trkpt>
      <trkpt lat="45.06583" lon="5.03091">
        <ele>171</ele>
        <time>2022-09-17T14:15:09.000Z</time>
      </trkpt>
      <trkpt lat="45.06583" lon="5.03095">
        <ele>171</ele>
        <time>2022-09-17T14:15:10.000Z</time>
      </trkpt>
      <trkpt lat="45.06584" lon="5.031">
        <ele>171</ele>
        <time>2022-09-17T14:15:11.000Z</time>
      </trkpt>
      <trkpt lat="45.06585" lon="5.03104">
        <ele>171</ele>
        <time>2022-09-17T14:15:12.000Z</time>
      </trkpt>
      <trkpt lat="45.06585" lon="5.03108">
        <ele>171</ele>
        <time>2022-09-17T14:15:13.000Z</time>
      </trkpt>
      <trkpt lat="45.06586" lon="5.03112">
        <ele>171</ele>
        <time>2022-09-17T14:15:14.000Z</time>
      </trkpt>
      <trkpt lat="45.06587" lon="5.03116">
        <ele>171</ele>
        <time>2022-09-17T14:15:15.000Z</time>
      </trkpt>
      <trkpt lat="45.06587" lon="5.0312">
        <ele>171</ele>
        <time>2022-09-17T14:15:16.000Z</time>
      </trkpt>
      <trkpt lat="45.06588" lon="5.03124">
        <ele>171</ele>
        <time>2022-09-17T14:15:17.000Z</time>
      </trkpt>
      <trkpt lat="45.06589" lon="5.03129">
        <ele>171</ele>
        <time>2022-09-17T14:15:18.000Z</time>
      </trkpt>
      <trkpt lat="45.06589" lon="5.03134">
        <ele>171</ele>
        <time>2022-09-17T14:15:19.000Z</time>
      </trkpt>
      <trkpt lat="45.06591" lon="5.03138">
        <ele>171</ele>
        <time>2022-09-17T14:15:20.000Z</time>
      </trkpt>
      <trkpt lat="45.06592" lon="5.03142">
        <ele>171</ele>
        <time>2022-09-17T14:15:21.000Z</time>
      </trkpt>
      <trkpt lat="45.06593" lon="5.03146">
        <ele>171</ele>
        <time>2022-09-17T14:15:22.000Z</time>
      </trkpt>
      <trkpt lat="45.06594" lon="5.0315">
        <ele>171</ele>
        <time>2022-09-17T14:15:23.000Z</time>
      </trkpt>
      <trkpt lat="45.06595" lon="5.03155">
        <ele>171</ele>
        <time>2022-09-17T14:15:24.000Z</time>
      </trkpt>
      <trkpt lat="45.06596" lon="5.03159">
        <ele>171</ele>
        <time>2022-09-17T14:15:25.000Z</time>
      </trkpt>
      <trkpt lat="45.06598" lon="5.03164">
        <ele>171</ele>
        <time>2022-09-17T14:15:26.000Z</time>
      </trkpt>
      <trkpt lat="45.06599" lon="5.03169">
        <ele>171</ele>
        <time>2022-09-17T14:15:27.000Z</time>
      </trkpt>
      <trkpt lat="45.066" lon="5.03173">
        <ele>171.1</ele>
        <time>2022-09-17T14:15:28.000Z</time>
      </trkpt>
      <trkpt lat="45.06601" lon="5.03178">
        <ele>171.3</ele>
        <time>2022-09-17T14:15:29.000Z</time>
      </trkpt>
      <trkpt lat="45.06602" lon="5.03183">
        <ele>171.4</ele>
        <time>2022-09-17T14:15:30.000Z</time>
      </trkpt>
      <trkpt lat="45.06603" lon="5.03188">
        <ele>171.5</ele>
        <time>2022-09-17T14:15:31.000Z</time>
      </trkpt>
      <trkpt lat="45.06604" lon="5.03192">
        <ele>171.7</ele>
        <time>2022-09-17T14:15:32.000Z</time>
      </trkpt>
      <trkpt lat="45.06605" lon="5.03197">
        <ele>171.8</ele>
        <time>2022-09-17T14:15:33.000Z</time>
      </trkpt>
      <trkpt lat="45.06606" lon="5.03202">
        <ele>171.8</ele>
        <time>2022-09-17T14:15:34.000Z</time>
      </trkpt>
      <trkpt lat="45.06607" lon="5.03206">
        <ele>171.9</ele>
        <time>2022-09-17T14:15:35.000Z</time>
      </trkpt>
      <trkpt lat="45.06609" lon="5.03211">
        <ele>171.9</ele>
        <time>2022-09-17T14:15:36.000Z</time>
      </trkpt>
      <trkpt lat="45.06611" lon="5.03216">
        <ele>172</ele>
        <time>2022-09-17T14:15:37.000Z</time>
      </trkpt>
      <trkpt lat="45.06612" lon="5.03221">
        <ele>172</ele>
        <time>2022-09-17T14:15:38.000Z</time>
      </trkpt>
      <trkpt lat="45.06613" lon="5.03226">
        <ele>171.9</ele>
        <time>2022-09-17T14:15:39.000Z</time>
      </trkpt>
      <trkpt lat="45.06615" lon="5.03231">
        <ele>171.7</ele>
        <time>2022-09-17T14:15:40.000Z</time>
      </trkpt>
      <trkpt lat="45.06616" lon="5.03236">
        <ele>171.6</ele>
        <time>2022-09-17T14:15:41.000Z</time>
      </trkpt>
      <trkpt lat="45.06617" lon="5.03242">
        <ele>171.5</ele>
        <time>2022-09-17T14:15:42.000Z</time>
      </trkpt>
      <trkpt lat="45.06619" lon="5.03247">
        <ele>171.4</ele>
        <time>2022-09-17T14:15:43.000Z</time>
      </trkpt>
      <trkpt lat="45.0662" lon="5.03252">
        <ele>171.3</ele>
        <time>2022-09-17T14:15:44.000Z</time>
      </trkpt>
      <trkpt lat="45.06622" lon="5.03257">
        <ele>171.4</ele>
        <time>2022-09-17T14:15:45.000Z</time>
      </trkpt>
      <trkpt lat="45.06623" lon="5.03262">
        <ele>171.4</ele>
        <time>2022-09-17T14:15:46.000Z</time>
      </trkpt>
      <trkpt lat="45.06624" lon="5.03267">
        <ele>171.5</ele>
        <time>2022-09-17T14:15:47.000Z</time>
      </trkpt>
      <trkpt lat="45.06626" lon="5.03272">
        <ele>171.5</ele>
        <time>2022-09-17T14:15:48.000Z</time>
      </trkpt>
      <trkpt lat="45.06627" lon="5.03276">
        <ele>171.6</ele>
        <time>2022-09-17T14:15:49.000Z</time>
      </trkpt>
      <trkpt lat="45.06628" lon="5.03281">
        <ele>171.6</ele>
        <time>2022-09-17T14:15:50.000Z</time>
      </trkpt>
      <trkpt lat="45.06629" lon="5.03285">
        <ele>171.6</ele>
        <time>2022-09-17T14:15:51.000Z</time>
      </trkpt>
      <trkpt lat="45.0663" lon="5.03289">
        <ele>171.7</ele>
        <time>2022-09-17T14:15:52.000Z</time>
      </trkpt>
      <trkpt lat="45.06631" lon="5.03293">
        <ele>171.7</ele>
        <time>2022-09-17T14:15:53.000Z</time>
      </trkpt>
      <trkpt lat="45.06632" lon="5.03298">
        <ele>171.7</ele>
        <time>2022-09-17T14:15:54.000Z</time>
      </trkpt>
      <trkpt lat="45.06633" lon="5.03302">
        <ele>171.8</ele>
        <time>2022-09-17T14:15:55.000Z</time>
      </trkpt>
      <trkpt lat="45.06634" lon="5.03307">
        <ele>171.8</ele>
        <time>2022-09-17T14:15:56.000Z</time>
      </trkpt>
      <trkpt lat="45.06635" lon="5.03311">
        <ele>171.9</ele>
        <time>2022-09-17T14:15:57.000Z</time>
      </trkpt>
      <trkpt lat="45.06637" lon="5.03316">
        <ele>172</ele>
        <time>2022-09-17T14:15:58.000Z</time>
      </trkpt>
      <trkpt lat="45.06638" lon="5.03321">
        <ele>172</ele>
        <time>2022-09-17T14:15:59.000Z</time>
      </trkpt>
      <trkpt lat="45.06639" lon="5.03325">
        <ele>172</ele>
        <time>2022-09-17T14:16:00.000Z</time>
      </trkpt>
      <trkpt lat="45.06641" lon="5.0333">
        <ele>172</ele>
        <time>2022-09-17T14:16:01.000Z</time>
      </trkpt>
      <trkpt lat="45.06642" lon="5.03335">
        <ele>172</ele>
        <time>2022-09-17T14:16:02.000Z</time>
      </trkpt>
      <trkpt lat="45.06644" lon="5.0334">
        <ele>172</ele>
        <time>2022-09-17T14:16:03.000Z</time>
      </trkpt>
      <trkpt lat="45.06645" lon="5.03345">
        <ele>172</ele>
        <time>2022-09-17T14:16:04.000Z</time>
      </trkpt>
      <trkpt lat="45.06647" lon="5.0335">
        <ele>172</ele>
        <time>2022-09-17T14:16:05.000Z</time>
      </trkpt>
      <trkpt lat="45.06648" lon="5.03354">
        <ele>172</ele>
        <time>2022-09-17T14:16:06.000Z</time>
      </trkpt>
      <trkpt lat="45.0665" lon="5.03359">
        <ele>172</ele>
        <time>2022-09-17T14:16:07.000Z</time>
      </trkpt>
      <trkpt lat="45.06651" lon="5.03364">
        <ele>172</ele>
        <time>2022-09-17T14:16:08.000Z</time>
      </trkpt>
      <trkpt lat="45.06652" lon="5.03369">
        <ele>172</ele>
        <time>2022-09-17T14:16:09.000Z</time>
      </trkpt>
      <trkpt lat="45.06653" lon="5.03374">
        <ele>172</ele>
        <time>2022-09-17T14:16:10.000Z</time>
      </trkpt>
      <trkpt lat="45.06654" lon="5.03378">
        <ele>172</ele>
        <time>2022-09-17T14:16:11.000Z</time>
      </trkpt>
      <trkpt lat="45.06655" lon="5.03383">
        <ele>172</ele>
        <time>2022-09-17T14:16:12.000Z</time>
      </trkpt>
      <trkpt lat="45.06656" lon="5.03388">
        <ele>172</ele>
        <time>2022-09-17T14:16:13.000Z</time>
      </trkpt>
      <trkpt lat="45.06657" lon="5.03392">
        <ele>172.1</ele>
        <time>2022-09-17T14:16:14.000Z</time>
      </trkpt>
      <trkpt lat="45.06658" lon="5.03396">
        <ele>172.2</ele>
        <time>2022-09-17T14:16:15.000Z</time>
      </trkpt>
      <trkpt lat="45.06659" lon="5.03399">
        <ele>172.3</ele>
        <time>2022-09-17T14:16:16.000Z</time>
      </trkpt>
      <trkpt lat="45.06659" lon="5.03403">
        <ele>172.4</ele>
        <time>2022-09-17T14:16:17.000Z</time>
      </trkpt>
      <trkpt lat="45.0666" lon="5.03406">
        <ele>172.5</ele>
        <time>2022-09-17T14:16:18.000Z</time>
      </trkpt>
      <trkpt lat="45.06661" lon="5.0341">
        <ele>172.6</ele>
        <time>2022-09-17T14:16:19.000Z</time>
      </trkpt>
      <trkpt lat="45.06662" lon="5.03414">
        <ele>172.8</ele>
        <time>2022-09-17T14:16:20.000Z</time>
      </trkpt>
      <trkpt lat="45.06664" lon="5.03418">
        <ele>172.9</ele>
        <time>2022-09-17T14:16:21.000Z</time>
      </trkpt>
      <trkpt lat="45.06666" lon="5.03422">
        <ele>172.8</ele>
        <time>2022-09-17T14:16:22.000Z</time>
      </trkpt>
      <trkpt lat="45.06668" lon="5.03426">
        <ele>172.7</ele>
        <time>2022-09-17T14:16:23.000Z</time>
      </trkpt>
      <trkpt lat="45.0667" lon="5.03431">
        <ele>172.4</ele>
        <time>2022-09-17T14:16:24.000Z</time>
      </trkpt>
      <trkpt lat="45.06672" lon="5.03436">
        <ele>172.3</ele>
        <time>2022-09-17T14:16:25.000Z</time>
      </trkpt>
      <trkpt lat="45.06674" lon="5.03441">
        <ele>172.1</ele>
        <time>2022-09-17T14:16:26.000Z</time>
      </trkpt>
      <trkpt lat="45.06676" lon="5.03446">
        <ele>172</ele>
        <time>2022-09-17T14:16:27.000Z</time>
      </trkpt>
      <trkpt lat="45.06679" lon="5.03451">
        <ele>171.9</ele>
        <time>2022-09-17T14:16:28.000Z</time>
      </trkpt>
      <trkpt lat="45.06682" lon="5.03457">
        <ele>171.8</ele>
        <time>2022-09-17T14:16:29.000Z</time>
      </trkpt>
      <trkpt lat="45.06684" lon="5.03463">
        <ele>171.8</ele>
        <time>2022-09-17T14:16:30.000Z</time>
      </trkpt>
      <trkpt lat="45.06686" lon="5.03468">
        <ele>171.7</ele>
        <time>2022-09-17T14:16:31.000Z</time>
      </trkpt>
      <trkpt lat="45.06688" lon="5.03474">
        <ele>171.8</ele>
        <time>2022-09-17T14:16:32.000Z</time>
      </trkpt>
      <trkpt lat="45.06691" lon="5.0348">
        <ele>171.9</ele>
        <time>2022-09-17T14:16:33.000Z</time>
      </trkpt>
      <trkpt lat="45.06693" lon="5.03485">
        <ele>171.9</ele>
        <time>2022-09-17T14:16:34.000Z</time>
      </trkpt>
      <trkpt lat="45.06695" lon="5.03491">
        <ele>172</ele>
        <time>2022-09-17T14:16:35.000Z</time>
      </trkpt>
      <trkpt lat="45.06697" lon="5.03496">
        <ele>172</ele>
        <time>2022-09-17T14:16:36.000Z</time>
      </trkpt>
      <trkpt lat="45.06699" lon="5.03501">
        <ele>172</ele>
        <time>2022-09-17T14:16:37.000Z</time>
      </trkpt>
      <trkpt lat="45.06701" lon="5.03507">
        <ele>171.8</ele>
        <time>2022-09-17T14:16:38.000Z</time>
      </trkpt>
      <trkpt lat="45.06703" lon="5.03512">
        <ele>171.7</ele>
        <time>2022-09-17T14:16:39.000Z</time>
      </trkpt>
      <trkpt lat="45.06705" lon="5.03517">
        <ele>171.6</ele>
        <time>2022-09-17T14:16:40.000Z</time>
      </trkpt>
      <trkpt lat="45.06706" lon="5.03521">
        <ele>171.6</ele>
        <time>2022-09-17T14:16:41.000Z</time>
      </trkpt>
      <trkpt lat="45.06708" lon="5.03526">
        <ele>171.5</ele>
        <time>2022-09-17T14:16:42.000Z</time>
      </trkpt>
      <trkpt lat="45.06709" lon="5.0353">
        <ele>171.5</ele>
        <time>2022-09-17T14:16:43.000Z</time>
      </trkpt>
      <trkpt lat="45.0671" lon="5.03535">
        <ele>171.6</ele>
        <time>2022-09-17T14:16:44.000Z</time>
      </trkpt>
      <trkpt lat="45.06712" lon="5.03539">
        <ele>171.6</ele>
        <time>2022-09-17T14:16:45.000Z</time>
      </trkpt>
      <trkpt lat="45.06714" lon="5.03543">
        <ele>171.7</ele>
        <time>2022-09-17T14:16:46.000Z</time>
      </trkpt>
      <trkpt lat="45.06715" lon="5.03548">
        <ele>171.7</ele>
        <time>2022-09-17T14:16:47.000Z</time>
      </trkpt>
      <trkpt lat="45.06717" lon="5.03551">
        <ele>171.8</ele>
        <time>2022-09-17T14:16:48.000Z</time>
      </trkpt>
      <trkpt lat="45.06719" lon="5.03555">
        <ele>171.9</ele>
        <time>2022-09-17T14:16:49.000Z</time>
      </trkpt>
      <trkpt lat="45.0672" lon="5.03559">
        <ele>171.9</ele>
        <time>2022-09-17T14:16:50.000Z</time>
      </trkpt>
      <trkpt lat="45.06722" lon="5.03563">
        <ele>172</ele>
        <time>2022-09-17T14:16:51.000Z</time>
      </trkpt>
      <trkpt lat="45.06723" lon="5.03567">
        <ele>172</ele>
        <time>2022-09-17T14:16:52.000Z</time>
      </trkpt>
      <trkpt lat="45.06725" lon="5.03571">
        <ele>172</ele>
        <time>2022-09-17T14:16:53.000Z</time>
      </trkpt>
      <trkpt lat="45.06727" lon="5.03575">
        <ele>172</ele>
        <time>2022-09-17T14:16:54.000Z</time>
      </trkpt>
      <trkpt lat="45.06728" lon="5.03579">
        <ele>172</ele>
        <time>2022-09-17T14:16:55.000Z</time>
      </trkpt>
      <trkpt lat="45.0673" lon="5.03584">
        <ele>172</ele>
        <time>2022-09-17T14:16:56.000Z</time>
      </trkpt>
      <trkpt lat="45.06732" lon="5.03589">
        <ele>172</ele>
        <time>2022-09-17T14:16:57.000Z</time>
      </trkpt>
      <trkpt lat="45.06734" lon="5.03594">
        <ele>172</ele>
        <time>2022-09-17T14:16:58.000Z</time>
      </trkpt>
      <trkpt lat="45.06736" lon="5.036">
        <ele>172</ele>
        <time>2022-09-17T14:16:59.000Z</time>
      </trkpt>
      <trkpt lat="45.06738" lon="5.03604">
        <ele>172</ele>
        <time>2022-09-17T14:17:00.000Z</time>
      </trkpt>
      <trkpt lat="45.0674" lon="5.03609">
        <ele>172</ele>
        <time>2022-09-17T14:17:01.000Z</time>
      </trkpt>
      <trkpt lat="45.06742" lon="5.03613">
        <ele>172</ele>
        <time>2022-09-17T14:17:02.000Z</time>
      </trkpt>
      <trkpt lat="45.06744" lon="5.03618">
        <ele>171.9</ele>
        <time>2022-09-17T14:17:03.000Z</time>
      </trkpt>
      <trkpt lat="45.06745" lon="5.03622">
        <ele>171.9</ele>
        <time>2022-09-17T14:17:04.000Z</time>
      </trkpt>
      <trkpt lat="45.06747" lon="5.03626">
        <ele>171.9</ele>
        <time>2022-09-17T14:17:05.000Z</time>
      </trkpt>
      <trkpt lat="45.06749" lon="5.0363">
        <ele>172</ele>
        <time>2022-09-17T14:17:06.000Z</time>
      </trkpt>
      <trkpt lat="45.06751" lon="5.03635">
        <ele>172</ele>
        <time>2022-09-17T14:17:07.000Z</time>
      </trkpt>
      <trkpt lat="45.06753" lon="5.03639">
        <ele>172</ele>
        <time>2022-09-17T14:17:08.000Z</time>
      </trkpt>
      <trkpt lat="45.06754" lon="5.03644">
        <ele>172</ele>
        <time>2022-09-17T14:17:09.000Z</time>
      </trkpt>
      <trkpt lat="45.06756" lon="5.0365">
        <ele>172</ele>
        <time>2022-09-17T14:17:10.000Z</time>
      </trkpt>
      <trkpt lat="45.06757" lon="5.03654">
        <ele>172</ele>
        <time>2022-09-17T14:17:11.000Z</time>
      </trkpt>
      <trkpt lat="45.06759" lon="5.03659">
        <ele>172</ele>
        <time>2022-09-17T14:17:12.000Z</time>
      </trkpt>
      <trkpt lat="45.0676" lon="5.03664">
        <ele>172</ele>
        <time>2022-09-17T14:17:13.000Z</time>
      </trkpt>
      <trkpt lat="45.06761" lon="5.03669">
        <ele>172</ele>
        <time>2022-09-17T14:17:14.000Z</time>
      </trkpt>
      <trkpt lat="45.06763" lon="5.03674">
        <ele>172</ele>
        <time>2022-09-17T14:17:15.000Z</time>
      </trkpt>
      <trkpt lat="45.06764" lon="5.03679">
        <ele>172</ele>
        <time>2022-09-17T14:17:16.000Z</time>
      </trkpt>
      <trkpt lat="45.06766" lon="5.03684">
        <ele>172</ele>
        <time>2022-09-17T14:17:17.000Z</time>
      </trkpt>
      <trkpt lat="45.06767" lon="5.03689">
        <ele>172</ele>
        <time>2022-09-17T14:17:18.000Z</time>
      </trkpt>
      <trkpt lat="45.06768" lon="5.03695">
        <ele>172</ele>
        <time>2022-09-17T14:17:19.000Z</time>
      </trkpt>
      <trkpt lat="45.0677" lon="5.03699">
        <ele>172.1</ele>
        <time>2022-09-17T14:17:20.000Z</time>
      </trkpt>
      <trkpt lat="45.06771" lon="5.03704">
        <ele>172.3</ele>
        <time>2022-09-17T14:17:21.000Z</time>
      </trkpt>
      <trkpt lat="45.06772" lon="5.03709">
        <ele>172.4</ele>
        <time>2022-09-17T14:17:22.000Z</time>
      </trkpt>
      <trkpt lat="45.06774" lon="5.03714">
        <ele>172.6</ele>
        <time>2022-09-17T14:17:23.000Z</time>
      </trkpt>
      <trkpt lat="45.06775" lon="5.03719">
        <ele>172.8</ele>
        <time>2022-09-17T14:17:24.000Z</time>
      </trkpt>
      <trkpt lat="45.06777" lon="5.03725">
        <ele>173</ele>
        <time>2022-09-17T14:17:25.000Z</time>
      </trkpt>
      <trkpt lat="45.06778" lon="5.03731">
        <ele>173</ele>
        <time>2022-09-17T14:17:26.000Z</time>
      </trkpt>
      <trkpt lat="45.0678" lon="5.03737">
        <ele>173</ele>
        <time>2022-09-17T14:17:27.000Z</time>
      </trkpt>
      <trkpt lat="45.06782" lon="5.03743">
        <ele>172.9</ele>
        <time>2022-09-17T14:17:28.000Z</time>
      </trkpt>
      <trkpt lat="45.06784" lon="5.03749">
        <ele>172.8</ele>
        <time>2022-09-17T14:17:29.000Z</time>
      </trkpt>
      <trkpt lat="45.06786" lon="5.03755">
        <ele>172.6</ele>
        <time>2022-09-17T14:17:30.000Z</time>
      </trkpt>
      <trkpt lat="45.06788" lon="5.0376">
        <ele>172.5</ele>
        <time>2022-09-17T14:17:31.000Z</time>
      </trkpt>
      <trkpt lat="45.06789" lon="5.03766">
        <ele>172.5</ele>
        <time>2022-09-17T14:17:32.000Z</time>
      </trkpt>
      <trkpt lat="45.06791" lon="5.03772">
        <ele>172.5</ele>
        <time>2022-09-17T14:17:33.000Z</time>
      </trkpt>
      <trkpt lat="45.06793" lon="5.03778">
        <ele>172.6</ele>
        <time>2022-09-17T14:17:34.000Z</time>
      </trkpt>
      <trkpt lat="45.06795" lon="5.03783">
        <ele>172.6</ele>
        <time>2022-09-17T14:17:35.000Z</time>
      </trkpt>
      <trkpt lat="45.06797" lon="5.03789">
        <ele>172.7</ele>
        <time>2022-09-17T14:17:36.000Z</time>
      </trkpt>
      <trkpt lat="45.06799" lon="5.03794">
        <ele>172.8</ele>
        <time>2022-09-17T14:17:37.000Z</time>
      </trkpt>
      <trkpt lat="45.06801" lon="5.038">
        <ele>172.8</ele>
        <time>2022-09-17T14:17:38.000Z</time>
      </trkpt>
      <trkpt lat="45.06804" lon="5.03806">
        <ele>172.9</ele>
        <time>2022-09-17T14:17:39.000Z</time>
      </trkpt>
      <trkpt lat="45.06806" lon="5.03811">
        <ele>173</ele>
        <time>2022-09-17T14:17:40.000Z</time>
      </trkpt>
      <trkpt lat="45.06808" lon="5.03817">
        <ele>173</ele>
        <time>2022-09-17T14:17:41.000Z</time>
      </trkpt>
      <trkpt lat="45.0681" lon="5.03822">
        <ele>173</ele>
        <time>2022-09-17T14:17:42.000Z</time>
      </trkpt>
      <trkpt lat="45.06813" lon="5.03827">
        <ele>173</ele>
        <time>2022-09-17T14:17:43.000Z</time>
      </trkpt>
      <trkpt lat="45.06815" lon="5.03833">
        <ele>173</ele>
        <time>2022-09-17T14:17:44.000Z</time>
      </trkpt>
      <trkpt lat="45.06817" lon="5.03837">
        <ele>173.1</ele>
        <time>2022-09-17T14:17:45.000Z</time>
      </trkpt>
      <trkpt lat="45.0682" lon="5.03841">
        <ele>173.3</ele>
        <time>2022-09-17T14:17:46.000Z</time>
      </trkpt>
      <trkpt lat="45.06822" lon="5.03846">
        <ele>173.5</ele>
        <time>2022-09-17T14:17:47.000Z</time>
      </trkpt>
      <trkpt lat="45.06824" lon="5.03851">
        <ele>173.8</ele>
        <time>2022-09-17T14:17:48.000Z</time>
      </trkpt>
      <trkpt lat="45.06827" lon="5.03855">
        <ele>174.2</ele>
        <time>2022-09-17T14:17:49.000Z</time>
      </trkpt>
      <trkpt lat="45.06828" lon="5.03859">
        <ele>174.5</ele>
        <time>2022-09-17T14:17:50.000Z</time>
      </trkpt>
      <trkpt lat="45.0683" lon="5.03864">
        <ele>174.7</ele>
        <time>2022-09-17T14:17:51.000Z</time>
      </trkpt>
      <trkpt lat="45.06832" lon="5.03869">
        <ele>174.6</ele>
        <time>2022-09-17T14:17:52.000Z</time>
      </trkpt>
      <trkpt lat="45.06834" lon="5.03873">
        <ele>174.6</ele>
        <time>2022-09-17T14:17:53.000Z</time>
      </trkpt>
      <trkpt lat="45.06836" lon="5.03877">
        <ele>174.6</ele>
        <time>2022-09-17T14:17:54.000Z</time>
      </trkpt>
      <trkpt lat="45.06838" lon="5.03881">
        <ele>174.7</ele>
        <time>2022-09-17T14:17:55.000Z</time>
      </trkpt>
      <trkpt lat="45.0684" lon="5.03884">
        <ele>174.8</ele>
        <time>2022-09-17T14:17:56.000Z</time>
      </trkpt>
      <trkpt lat="45.06841" lon="5.03886">
        <ele>174.9</ele>
        <time>2022-09-17T14:17:57.000Z</time>
      </trkpt>
      <trkpt lat="45.06843" lon="5.03888">
        <ele>175.1</ele>
        <time>2022-09-17T14:17:58.000Z</time>
      </trkpt>
      <trkpt lat="45.06845" lon="5.0389">
        <ele>175.3</ele>
        <time>2022-09-17T14:17:59.000Z</time>
      </trkpt>
      <trkpt lat="45.06847" lon="5.03892">
        <ele>175.5</ele>
        <time>2022-09-17T14:18:00.000Z</time>
      </trkpt>
      <trkpt lat="45.06848" lon="5.03894">
        <ele>175.6</ele>
        <time>2022-09-17T14:18:01.000Z</time>
      </trkpt>
      <trkpt lat="45.06849" lon="5.03898">
        <ele>175.7</ele>
        <time>2022-09-17T14:18:02.000Z</time>
      </trkpt>
      <trkpt lat="45.0685" lon="5.039">
        <ele>175.8</ele>
        <time>2022-09-17T14:18:03.000Z</time>
      </trkpt>
      <trkpt lat="45.06852" lon="5.03904">
        <ele>176</ele>
        <time>2022-09-17T14:18:04.000Z</time>
      </trkpt>
      <trkpt lat="45.06853" lon="5.03907">
        <ele>176.1</ele>
        <time>2022-09-17T14:18:05.000Z</time>
      </trkpt>
      <trkpt lat="45.06854" lon="5.0391">
        <ele>176.2</ele>
        <time>2022-09-17T14:18:06.000Z</time>
      </trkpt>
      <trkpt lat="45.06854" lon="5.03915">
        <ele>176.3</ele>
        <time>2022-09-17T14:18:07.000Z</time>
      </trkpt>
      <trkpt lat="45.06854" lon="5.03919">
        <ele>176.3</ele>
        <time>2022-09-17T14:18:08.000Z</time>
      </trkpt>
      <trkpt lat="45.06854" lon="5.03923">
        <ele>176.3</ele>
        <time>2022-09-17T14:18:09.000Z</time>
      </trkpt>
      <trkpt lat="45.06853" lon="5.03928">
        <ele>176.2</ele>
        <time>2022-09-17T14:18:10.000Z</time>
      </trkpt>
      <trkpt lat="45.06852" lon="5.03933">
        <ele>176.2</ele>
        <time>2022-09-17T14:18:11.000Z</time>
      </trkpt>
      <trkpt lat="45.0685" lon="5.03938">
        <ele>176.1</ele>
        <time>2022-09-17T14:18:12.000Z</time>
      </trkpt>
      <trkpt lat="45.06848" lon="5.03944">
        <ele>176.1</ele>
        <time>2022-09-17T14:18:13.000Z</time>
      </trkpt>
      <trkpt lat="45.06848" lon="5.03951">
        <ele>175.8</ele>
        <time>2022-09-17T14:18:14.000Z</time>
      </trkpt>
      <trkpt lat="45.06848" lon="5.03958">
        <ele>175.5</ele>
        <time>2022-09-17T14:18:15.000Z</time>
      </trkpt>
      <trkpt lat="45.06848" lon="5.03965">
        <ele>175.2</ele>
        <time>2022-09-17T14:18:16.000Z</time>
      </trkpt>
      <trkpt lat="45.06849" lon="5.03973">
        <ele>174.9</ele>
        <time>2022-09-17T14:18:17.000Z</time>
      </trkpt>
      <trkpt lat="45.0685" lon="5.03982">
        <ele>174.8</ele>
        <time>2022-09-17T14:18:18.000Z</time>
      </trkpt>
      <trkpt lat="45.06853" lon="5.0399">
        <ele>174.9</ele>
        <time>2022-09-17T14:18:19.000Z</time>
      </trkpt>
      <trkpt lat="45.06856" lon="5.03998">
        <ele>175.3</ele>
        <time>2022-09-17T14:18:20.000Z</time>
      </trkpt>
      <trkpt lat="45.06859" lon="5.04006">
        <ele>175.3</ele>
        <time>2022-09-17T14:18:21.000Z</time>
      </trkpt>
      <trkpt lat="45.06861" lon="5.04014">
        <ele>175</ele>
        <time>2022-09-17T14:18:22.000Z</time>
      </trkpt>
      <trkpt lat="45.06864" lon="5.04022">
        <ele>174.5</ele>
        <time>2022-09-17T14:18:23.000Z</time>
      </trkpt>
      <trkpt lat="45.06865" lon="5.0403">
        <ele>174.3</ele>
        <time>2022-09-17T14:18:24.000Z</time>
      </trkpt>
      <trkpt lat="45.06867" lon="5.04038">
        <ele>174.4</ele>
        <time>2022-09-17T14:18:25.000Z</time>
      </trkpt>
      <trkpt lat="45.06867" lon="5.04045">
        <ele>174.4</ele>
        <time>2022-09-17T14:18:26.000Z</time>
      </trkpt>
      <trkpt lat="45.06868" lon="5.04053">
        <ele>174.5</ele>
        <time>2022-09-17T14:18:27.000Z</time>
      </trkpt>
      <trkpt lat="45.06869" lon="5.0406">
        <ele>174.6</ele>
        <time>2022-09-17T14:18:28.000Z</time>
      </trkpt>
      <trkpt lat="45.0687" lon="5.04067">
        <ele>174.8</ele>
        <time>2022-09-17T14:18:29.000Z</time>
      </trkpt>
      <trkpt lat="45.06871" lon="5.04074">
        <ele>174.9</ele>
        <time>2022-09-17T14:18:30.000Z</time>
      </trkpt>
      <trkpt lat="45.06871" lon="5.04081">
        <ele>175.1</ele>
        <time>2022-09-17T14:18:31.000Z</time>
      </trkpt>
      <trkpt lat="45.06872" lon="5.04087">
        <ele>175.1</ele>
        <time>2022-09-17T14:18:32.000Z</time>
      </trkpt>
      <trkpt lat="45.06872" lon="5.04094">
        <ele>175.2</ele>
        <time>2022-09-17T14:18:33.000Z</time>
      </trkpt>
      <trkpt lat="45.06873" lon="5.041">
        <ele>175.2</ele>
        <time>2022-09-17T14:18:34.000Z</time>
      </trkpt>
      <trkpt lat="45.06873" lon="5.04107">
        <ele>175.3</ele>
        <time>2022-09-17T14:18:35.000Z</time>
      </trkpt>
      <trkpt lat="45.06874" lon="5.04114">
        <ele>175.3</ele>
        <time>2022-09-17T14:18:36.000Z</time>
      </trkpt>
      <trkpt lat="45.06874" lon="5.04122">
        <ele>175.2</ele>
        <time>2022-09-17T14:18:37.000Z</time>
      </trkpt>
      <trkpt lat="45.06875" lon="5.0413">
        <ele>175.1</ele>
        <time>2022-09-17T14:18:38.000Z</time>
      </trkpt>
      <trkpt lat="45.06876" lon="5.04138">
        <ele>175.2</ele>
        <time>2022-09-17T14:18:39.000Z</time>
      </trkpt>
      <trkpt lat="45.06877" lon="5.04146">
        <ele>174.9</ele>
        <time>2022-09-17T14:18:40.000Z</time>
      </trkpt>
      <trkpt lat="45.06878" lon="5.04155">
        <ele>174.5</ele>
        <time>2022-09-17T14:18:41.000Z</time>
      </trkpt>
      <trkpt lat="45.06879" lon="5.04163">
        <ele>174.1</ele>
        <time>2022-09-17T14:18:42.000Z</time>
      </trkpt>
      <trkpt lat="45.0688" lon="5.04172">
        <ele>173.9</ele>
        <time>2022-09-17T14:18:43.000Z</time>
      </trkpt>
      <trkpt lat="45.06882" lon="5.0418">
        <ele>173.9</ele>
        <time>2022-09-17T14:18:44.000Z</time>
      </trkpt>
      <trkpt lat="45.06883" lon="5.04188">
        <ele>173.7</ele>
        <time>2022-09-17T14:18:45.000Z</time>
      </trkpt>
      <trkpt lat="45.06883" lon="5.04196">
        <ele>173.5</ele>
        <time>2022-09-17T14:18:46.000Z</time>
      </trkpt>
      <trkpt lat="45.06884" lon="5.04205">
        <ele>173.3</ele>
        <time>2022-09-17T14:18:47.000Z</time>
      </trkpt>
      <trkpt lat="45.06885" lon="5.04212">
        <ele>173.1</ele>
        <time>2022-09-17T14:18:48.000Z</time>
      </trkpt>
      <trkpt lat="45.06885" lon="5.0422">
        <ele>172.8</ele>
        <time>2022-09-17T14:18:49.000Z</time>
      </trkpt>
      <trkpt lat="45.06886" lon="5.04227">
        <ele>172.8</ele>
        <time>2022-09-17T14:18:50.000Z</time>
      </trkpt>
      <trkpt lat="45.06887" lon="5.04235">
        <ele>172.8</ele>
        <time>2022-09-17T14:18:51.000Z</time>
      </trkpt>
      <trkpt lat="45.06887" lon="5.04243">
        <ele>172.9</ele>
        <time>2022-09-17T14:18:52.000Z</time>
      </trkpt>
      <trkpt lat="45.06887" lon="5.04251">
        <ele>172.8</ele>
        <time>2022-09-17T14:18:53.000Z</time>
      </trkpt>
      <trkpt lat="45.06887" lon="5.04258">
        <ele>172.9</ele>
        <time>2022-09-17T14:18:54.000Z</time>
      </trkpt>
      <trkpt lat="45.06888" lon="5.04264">
        <ele>172.9</ele>
        <time>2022-09-17T14:18:55.000Z</time>
      </trkpt>
      <trkpt lat="45.06889" lon="5.04268">
        <ele>173</ele>
        <time>2022-09-17T14:18:56.000Z</time>
      </trkpt>
      <trkpt lat="45.06889" lon="5.04274">
        <ele>173</ele>
        <time>2022-09-17T14:18:57.000Z</time>
      </trkpt>
      <trkpt lat="45.06889" lon="5.0428">
        <ele>173</ele>
        <time>2022-09-17T14:18:58.000Z</time>
      </trkpt>
      <trkpt lat="45.06889" lon="5.04285">
        <ele>173</ele>
        <time>2022-09-17T14:18:59.000Z</time>
      </trkpt>
      <trkpt lat="45.06889" lon="5.04291">
        <ele>173</ele>
        <time>2022-09-17T14:19:00.000Z</time>
      </trkpt>
      <trkpt lat="45.0689" lon="5.04298">
        <ele>173.1</ele>
        <time>2022-09-17T14:19:01.000Z</time>
      </trkpt>
      <trkpt lat="45.0689" lon="5.04306">
        <ele>173.1</ele>
        <time>2022-09-17T14:19:02.000Z</time>
      </trkpt>
      <trkpt lat="45.06889" lon="5.04312">
        <ele>173.3</ele>
        <time>2022-09-17T14:19:03.000Z</time>
      </trkpt>
      <trkpt lat="45.06888" lon="5.04319">
        <ele>173.4</ele>
        <time>2022-09-17T14:19:04.000Z</time>
      </trkpt>
      <trkpt lat="45.06886" lon="5.04324">
        <ele>173.5</ele>
        <time>2022-09-17T14:19:05.000Z</time>
      </trkpt>
      <trkpt lat="45.06886" lon="5.04331">
        <ele>173.7</ele>
        <time>2022-09-17T14:19:06.000Z</time>
      </trkpt>
      <trkpt lat="45.06886" lon="5.04337">
        <ele>173.8</ele>
        <time>2022-09-17T14:19:07.000Z</time>
      </trkpt>
      <trkpt lat="45.06885" lon="5.04342">
        <ele>173.7</ele>
        <time>2022-09-17T14:19:08.000Z</time>
      </trkpt>
      <trkpt lat="45.06885" lon="5.04347">
        <ele>173.7</ele>
        <time>2022-09-17T14:19:09.000Z</time>
      </trkpt>
      <trkpt lat="45.06885" lon="5.04353">
        <ele>173.7</ele>
        <time>2022-09-17T14:19:10.000Z</time>
      </trkpt>
      <trkpt lat="45.06885" lon="5.04359">
        <ele>173.7</ele>
        <time>2022-09-17T14:19:11.000Z</time>
      </trkpt>
      <trkpt lat="45.06885" lon="5.04364">
        <ele>173.8</ele>
        <time>2022-09-17T14:19:12.000Z</time>
      </trkpt>
      <trkpt lat="45.06884" lon="5.04371">
        <ele>173.9</ele>
        <time>2022-09-17T14:19:13.000Z</time>
      </trkpt>
      <trkpt lat="45.06884" lon="5.04377">
        <ele>174</ele>
        <time>2022-09-17T14:19:14.000Z</time>
      </trkpt>
      <trkpt lat="45.06884" lon="5.04383">
        <ele>174.1</ele>
        <time>2022-09-17T14:19:15.000Z</time>
      </trkpt>
      <trkpt lat="45.06884" lon="5.04389">
        <ele>174.3</ele>
        <time>2022-09-17T14:19:16.000Z</time>
      </trkpt>
      <trkpt lat="45.06884" lon="5.04395">
        <ele>174.3</ele>
        <time>2022-09-17T14:19:17.000Z</time>
      </trkpt>
      <trkpt lat="45.06884" lon="5.04401">
        <ele>174.3</ele>
        <time>2022-09-17T14:19:18.000Z</time>
      </trkpt>
      <trkpt lat="45.06884" lon="5.04407">
        <ele>174.3</ele>
        <time>2022-09-17T14:19:19.000Z</time>
      </trkpt>
      <trkpt lat="45.06885" lon="5.04414">
        <ele>174.4</ele>
        <time>2022-09-17T14:19:20.000Z</time>
      </trkpt>
      <trkpt lat="45.06885" lon="5.04421">
        <ele>174.4</ele>
        <time>2022-09-17T14:19:21.000Z</time>
      </trkpt>
      <trkpt lat="45.06886" lon="5.04427">
        <ele>174.3</ele>
        <time>2022-09-17T14:19:22.000Z</time>
      </trkpt>
      <trkpt lat="45.06887" lon="5.04434">
        <ele>174.1</ele>
        <time>2022-09-17T14:19:23.000Z</time>
      </trkpt>
      <trkpt lat="45.06888" lon="5.0444">
        <ele>174</ele>
        <time>2022-09-17T14:19:24.000Z</time>
      </trkpt>
      <trkpt lat="45.06888" lon="5.04446">
        <ele>173.9</ele>
        <time>2022-09-17T14:19:25.000Z</time>
      </trkpt>
      <trkpt lat="45.06889" lon="5.04453">
        <ele>173.8</ele>
        <time>2022-09-17T14:19:26.000Z</time>
      </trkpt>
      <trkpt lat="45.06891" lon="5.04459">
        <ele>173.9</ele>
        <time>2022-09-17T14:19:27.000Z</time>
      </trkpt>
      <trkpt lat="45.06891" lon="5.04465">
        <ele>173.9</ele>
        <time>2022-09-17T14:19:28.000Z</time>
      </trkpt>
      <trkpt lat="45.06892" lon="5.04471">
        <ele>174</ele>
        <time>2022-09-17T14:19:29.000Z</time>
      </trkpt>
      <trkpt lat="45.06893" lon="5.04477">
        <ele>174.1</ele>
        <time>2022-09-17T14:19:30.000Z</time>
      </trkpt>
      <trkpt lat="45.06895" lon="5.04483">
        <ele>174.1</ele>
        <time>2022-09-17T14:19:31.000Z</time>
      </trkpt>
      <trkpt lat="45.06896" lon="5.04489">
        <ele>174.2</ele>
        <time>2022-09-17T14:19:32.000Z</time>
      </trkpt>
      <trkpt lat="45.06897" lon="5.04496">
        <ele>174.3</ele>
        <time>2022-09-17T14:19:33.000Z</time>
      </trkpt>
      <trkpt lat="45.06899" lon="5.04502">
        <ele>174.4</ele>
        <time>2022-09-17T14:19:34.000Z</time>
      </trkpt>
      <trkpt lat="45.06901" lon="5.04509">
        <ele>174.4</ele>
        <time>2022-09-17T14:19:35.000Z</time>
      </trkpt>
      <trkpt lat="45.06902" lon="5.04515">
        <ele>174.3</ele>
        <time>2022-09-17T14:19:36.000Z</time>
      </trkpt>
      <trkpt lat="45.06904" lon="5.04522">
        <ele>174.2</ele>
        <time>2022-09-17T14:19:37.000Z</time>
      </trkpt>
      <trkpt lat="45.06907" lon="5.04528">
        <ele>174.2</ele>
        <time>2022-09-17T14:19:38.000Z</time>
      </trkpt>
      <trkpt lat="45.06909" lon="5.04535">
        <ele>174.1</ele>
        <time>2022-09-17T14:19:39.000Z</time>
      </trkpt>
      <trkpt lat="45.06911" lon="5.04542">
        <ele>173.8</ele>
        <time>2022-09-17T14:19:40.000Z</time>
      </trkpt>
      <trkpt lat="45.06913" lon="5.04549">
        <ele>173.4</ele>
        <time>2022-09-17T14:19:41.000Z</time>
      </trkpt>
      <trkpt lat="45.06916" lon="5.04556">
        <ele>172.9</ele>
        <time>2022-09-17T14:19:42.000Z</time>
      </trkpt>
      <trkpt lat="45.06918" lon="5.04564">
        <ele>173</ele>
        <time>2022-09-17T14:19:43.000Z</time>
      </trkpt>
      <trkpt lat="45.0692" lon="5.04571">
        <ele>173.2</ele>
        <time>2022-09-17T14:19:44.000Z</time>
      </trkpt>
      <trkpt lat="45.06923" lon="5.04577">
        <ele>173.5</ele>
        <time>2022-09-17T14:19:45.000Z</time>
      </trkpt>
      <trkpt lat="45.06925" lon="5.04584">
        <ele>173.8</ele>
        <time>2022-09-17T14:19:46.000Z</time>
      </trkpt>
      <trkpt lat="45.06928" lon="5.0459">
        <ele>173.9</ele>
        <time>2022-09-17T14:19:47.000Z</time>
      </trkpt>
      <trkpt lat="45.0693" lon="5.04596">
        <ele>173.8</ele>
        <time>2022-09-17T14:19:48.000Z</time>
      </trkpt>
      <trkpt lat="45.06932" lon="5.04602">
        <ele>173.6</ele>
        <time>2022-09-17T14:19:49.000Z</time>
      </trkpt>
      <trkpt lat="45.06935" lon="5.04608">
        <ele>173.2</ele>
        <time>2022-09-17T14:19:50.000Z</time>
      </trkpt>
      <trkpt lat="45.06937" lon="5.04614">
        <ele>173.1</ele>
        <time>2022-09-17T14:19:51.000Z</time>
      </trkpt>
      <trkpt lat="45.06939" lon="5.0462">
        <ele>173.1</ele>
        <time>2022-09-17T14:19:52.000Z</time>
      </trkpt>
      <trkpt lat="45.0694" lon="5.04627">
        <ele>173.1</ele>
        <time>2022-09-17T14:19:53.000Z</time>
      </trkpt>
      <trkpt lat="45.06942" lon="5.04634">
        <ele>173</ele>
        <time>2022-09-17T14:19:54.000Z</time>
      </trkpt>
      <trkpt lat="45.06943" lon="5.0464">
        <ele>172.9</ele>
        <time>2022-09-17T14:19:55.000Z</time>
      </trkpt>
      <trkpt lat="45.06944" lon="5.04647">
        <ele>173</ele>
        <time>2022-09-17T14:19:56.000Z</time>
      </trkpt>
      <trkpt lat="45.06945" lon="5.04654">
        <ele>173</ele>
        <time>2022-09-17T14:19:57.000Z</time>
      </trkpt>
      <trkpt lat="45.06946" lon="5.04661">
        <ele>173.1</ele>
        <time>2022-09-17T14:19:58.000Z</time>
      </trkpt>
      <trkpt lat="45.06947" lon="5.04668">
        <ele>173</ele>
        <time>2022-09-17T14:19:59.000Z</time>
      </trkpt>
      <trkpt lat="45.06948" lon="5.04675">
        <ele>172.6</ele>
        <time>2022-09-17T14:20:00.000Z</time>
      </trkpt>
      <trkpt lat="45.06949" lon="5.04681">
        <ele>172.3</ele>
        <time>2022-09-17T14:20:01.000Z</time>
      </trkpt>
      <trkpt lat="45.0695" lon="5.04688">
        <ele>172</ele>
        <time>2022-09-17T14:20:02.000Z</time>
      </trkpt>
      <trkpt lat="45.06951" lon="5.04695">
        <ele>171.7</ele>
        <time>2022-09-17T14:20:03.000Z</time>
      </trkpt>
      <trkpt lat="45.06952" lon="5.04701">
        <ele>171.8</ele>
        <time>2022-09-17T14:20:04.000Z</time>
      </trkpt>
      <trkpt lat="45.06953" lon="5.04707">
        <ele>171.9</ele>
        <time>2022-09-17T14:20:05.000Z</time>
      </trkpt>
      <trkpt lat="45.06953" lon="5.04712">
        <ele>171.9</ele>
        <time>2022-09-17T14:20:06.000Z</time>
      </trkpt>
      <trkpt lat="45.06954" lon="5.04718">
        <ele>172</ele>
        <time>2022-09-17T14:20:07.000Z</time>
      </trkpt>
      <trkpt lat="45.06955" lon="5.04723">
        <ele>172.1</ele>
        <time>2022-09-17T14:20:08.000Z</time>
      </trkpt>
      <trkpt lat="45.06955" lon="5.04728">
        <ele>172.1</ele>
        <time>2022-09-17T14:20:09.000Z</time>
      </trkpt>
      <trkpt lat="45.06957" lon="5.04733">
        <ele>172.1</ele>
        <time>2022-09-17T14:20:10.000Z</time>
      </trkpt>
      <trkpt lat="45.06957" lon="5.04739">
        <ele>172.1</ele>
        <time>2022-09-17T14:20:11.000Z</time>
      </trkpt>
      <trkpt lat="45.06958" lon="5.04744">
        <ele>172.1</ele>
        <time>2022-09-17T14:20:12.000Z</time>
      </trkpt>
      <trkpt lat="45.06958" lon="5.04749">
        <ele>172</ele>
        <time>2022-09-17T14:20:13.000Z</time>
      </trkpt>
      <trkpt lat="45.06959" lon="5.04754">
        <ele>172</ele>
        <time>2022-09-17T14:20:14.000Z</time>
      </trkpt>
      <trkpt lat="45.06959" lon="5.04759">
        <ele>172</ele>
        <time>2022-09-17T14:20:15.000Z</time>
      </trkpt>
      <trkpt lat="45.06959" lon="5.04763">
        <ele>172</ele>
        <time>2022-09-17T14:20:16.000Z</time>
      </trkpt>
      <trkpt lat="45.06959" lon="5.04768">
        <ele>172</ele>
        <time>2022-09-17T14:20:17.000Z</time>
      </trkpt>
      <trkpt lat="45.06959" lon="5.04772">
        <ele>172</ele>
        <time>2022-09-17T14:20:18.000Z</time>
      </trkpt>
      <trkpt lat="45.06959" lon="5.04776">
        <ele>172.1</ele>
        <time>2022-09-17T14:20:19.000Z</time>
      </trkpt>
      <trkpt lat="45.0696" lon="5.0478">
        <ele>172.1</ele>
        <time>2022-09-17T14:20:20.000Z</time>
      </trkpt>
      <trkpt lat="45.06961" lon="5.04784">
        <ele>172.3</ele>
        <time>2022-09-17T14:20:21.000Z</time>
      </trkpt>
      <trkpt lat="45.06962" lon="5.04789">
        <ele>172.4</ele>
        <time>2022-09-17T14:20:22.000Z</time>
      </trkpt>
      <trkpt lat="45.06962" lon="5.04794">
        <ele>172.5</ele>
        <time>2022-09-17T14:20:23.000Z</time>
      </trkpt>
      <trkpt lat="45.06963" lon="5.04799">
        <ele>172.6</ele>
        <time>2022-09-17T14:20:24.000Z</time>
      </trkpt>
      <trkpt lat="45.06964" lon="5.04803">
        <ele>172.7</ele>
        <time>2022-09-17T14:20:25.000Z</time>
      </trkpt>
      <trkpt lat="45.06965" lon="5.04808">
        <ele>172.6</ele>
        <time>2022-09-17T14:20:26.000Z</time>
      </trkpt>
      <trkpt lat="45.06965" lon="5.04813">
        <ele>172.5</ele>
        <time>2022-09-17T14:20:27.000Z</time>
      </trkpt>
      <trkpt lat="45.06967" lon="5.04818">
        <ele>172.3</ele>
        <time>2022-09-17T14:20:28.000Z</time>
      </trkpt>
      <trkpt lat="45.06968" lon="5.04823">
        <ele>172.2</ele>
        <time>2022-09-17T14:20:29.000Z</time>
      </trkpt>
      <trkpt lat="45.06969" lon="5.04827">
        <ele>172.1</ele>
        <time>2022-09-17T14:20:30.000Z</time>
      </trkpt>
      <trkpt lat="45.0697" lon="5.04832">
        <ele>172</ele>
        <time>2022-09-17T14:20:31.000Z</time>
      </trkpt>
      <trkpt lat="45.06972" lon="5.04837">
        <ele>172</ele>
        <time>2022-09-17T14:20:32.000Z</time>
      </trkpt>
      <trkpt lat="45.06972" lon="5.04842">
        <ele>172</ele>
        <time>2022-09-17T14:20:33.000Z</time>
      </trkpt>
      <trkpt lat="45.06973" lon="5.04848">
        <ele>172</ele>
        <time>2022-09-17T14:20:34.000Z</time>
      </trkpt>
      <trkpt lat="45.06974" lon="5.04854">
        <ele>172.1</ele>
        <time>2022-09-17T14:20:35.000Z</time>
      </trkpt>
      <trkpt lat="45.06975" lon="5.0486">
        <ele>172.1</ele>
        <time>2022-09-17T14:20:36.000Z</time>
      </trkpt>
      <trkpt lat="45.06976" lon="5.04865">
        <ele>172.1</ele>
        <time>2022-09-17T14:20:37.000Z</time>
      </trkpt>
      <trkpt lat="45.06977" lon="5.04871">
        <ele>172.2</ele>
        <time>2022-09-17T14:20:38.000Z</time>
      </trkpt>
      <trkpt lat="45.06978" lon="5.04877">
        <ele>172.2</ele>
        <time>2022-09-17T14:20:39.000Z</time>
      </trkpt>
      <trkpt lat="45.06979" lon="5.04883">
        <ele>172.2</ele>
        <time>2022-09-17T14:20:40.000Z</time>
      </trkpt>
      <trkpt lat="45.0698" lon="5.04889">
        <ele>172.3</ele>
        <time>2022-09-17T14:20:41.000Z</time>
      </trkpt>
      <trkpt lat="45.06981" lon="5.04895">
        <ele>172.5</ele>
        <time>2022-09-17T14:20:42.000Z</time>
      </trkpt>
      <trkpt lat="45.06982" lon="5.04901">
        <ele>172.6</ele>
        <time>2022-09-17T14:20:43.000Z</time>
      </trkpt>
      <trkpt lat="45.06983" lon="5.04907">
        <ele>172.8</ele>
        <time>2022-09-17T14:20:44.000Z</time>
      </trkpt>
      <trkpt lat="45.06984" lon="5.04913">
        <ele>172.9</ele>
        <time>2022-09-17T14:20:45.000Z</time>
      </trkpt>
      <trkpt lat="45.06985" lon="5.04918">
        <ele>173</ele>
        <time>2022-09-17T14:20:46.000Z</time>
      </trkpt>
      <trkpt lat="45.06986" lon="5.04924">
        <ele>172.9</ele>
        <time>2022-09-17T14:20:47.000Z</time>
      </trkpt>
      <trkpt lat="45.06986" lon="5.04929">
        <ele>172.8</ele>
        <time>2022-09-17T14:20:48.000Z</time>
      </trkpt>
      <trkpt lat="45.06988" lon="5.04935">
        <ele>172.7</ele>
        <time>2022-09-17T14:20:49.000Z</time>
      </trkpt>
      <trkpt lat="45.06989" lon="5.04941">
        <ele>172.7</ele>
        <time>2022-09-17T14:20:50.000Z</time>
      </trkpt>
      <trkpt lat="45.06991" lon="5.04947">
        <ele>172.7</ele>
        <time>2022-09-17T14:20:51.000Z</time>
      </trkpt>
      <trkpt lat="45.06992" lon="5.04953">
        <ele>172.7</ele>
        <time>2022-09-17T14:20:52.000Z</time>
      </trkpt>
      <trkpt lat="45.06994" lon="5.04958">
        <ele>172.8</ele>
        <time>2022-09-17T14:20:53.000Z</time>
      </trkpt>
      <trkpt lat="45.06995" lon="5.04964">
        <ele>172.8</ele>
        <time>2022-09-17T14:20:54.000Z</time>
      </trkpt>
      <trkpt lat="45.06997" lon="5.04969">
        <ele>172.9</ele>
        <time>2022-09-17T14:20:55.000Z</time>
      </trkpt>
      <trkpt lat="45.06998" lon="5.04974">
        <ele>172.9</ele>
        <time>2022-09-17T14:20:56.000Z</time>
      </trkpt>
      <trkpt lat="45.07" lon="5.0498">
        <ele>173</ele>
        <time>2022-09-17T14:20:57.000Z</time>
      </trkpt>
      <trkpt lat="45.07001" lon="5.04985">
        <ele>173.1</ele>
        <time>2022-09-17T14:20:58.000Z</time>
      </trkpt>
      <trkpt lat="45.07003" lon="5.04989">
        <ele>173.1</ele>
        <time>2022-09-17T14:20:59.000Z</time>
      </trkpt>
      <trkpt lat="45.07004" lon="5.04994">
        <ele>173.2</ele>
        <time>2022-09-17T14:21:00.000Z</time>
      </trkpt>
      <trkpt lat="45.07005" lon="5.04999">
        <ele>173.3</ele>
        <time>2022-09-17T14:21:01.000Z</time>
      </trkpt>
      <trkpt lat="45.07006" lon="5.05004">
        <ele>173.5</ele>
        <time>2022-09-17T14:21:02.000Z</time>
      </trkpt>
      <trkpt lat="45.07007" lon="5.05008">
        <ele>173.7</ele>
        <time>2022-09-17T14:21:03.000Z</time>
      </trkpt>
      <trkpt lat="45.07008" lon="5.05012">
        <ele>173.9</ele>
        <time>2022-09-17T14:21:04.000Z</time>
      </trkpt>
      <trkpt lat="45.07009" lon="5.05016">
        <ele>174</ele>
        <time>2022-09-17T14:21:05.000Z</time>
      </trkpt>
      <trkpt lat="45.0701" lon="5.05019">
        <ele>174.2</ele>
        <time>2022-09-17T14:21:06.000Z</time>
      </trkpt>
      <trkpt lat="45.07011" lon="5.05022">
        <ele>174.3</ele>
        <time>2022-09-17T14:21:07.000Z</time>
      </trkpt>
      <trkpt lat="45.07012" lon="5.05026">
        <ele>174.4</ele>
        <time>2022-09-17T14:21:08.000Z</time>
      </trkpt>
      <trkpt lat="45.07012" lon="5.05029">
        <ele>174.4</ele>
        <time>2022-09-17T14:21:09.000Z</time>
      </trkpt>
      <trkpt lat="45.07013" lon="5.05033">
        <ele>174.5</ele>
        <time>2022-09-17T14:21:10.000Z</time>
      </trkpt>
      <trkpt lat="45.07014" lon="5.05037">
        <ele>174.5</ele>
        <time>2022-09-17T14:21:11.000Z</time>
      </trkpt>
      <trkpt lat="45.07015" lon="5.05042">
        <ele>174.5</ele>
        <time>2022-09-17T14:21:12.000Z</time>
      </trkpt>
      <trkpt lat="45.07016" lon="5.05046">
        <ele>174.6</ele>
        <time>2022-09-17T14:21:13.000Z</time>
      </trkpt>
      <trkpt lat="45.07017" lon="5.0505">
        <ele>174.6</ele>
        <time>2022-09-17T14:21:14.000Z</time>
      </trkpt>
      <trkpt lat="45.07018" lon="5.05056">
        <ele>174.6</ele>
        <time>2022-09-17T14:21:15.000Z</time>
      </trkpt>
      <trkpt lat="45.07018" lon="5.05061">
        <ele>174.7</ele>
        <time>2022-09-17T14:21:16.000Z</time>
      </trkpt>
      <trkpt lat="45.07019" lon="5.05066">
        <ele>174.7</ele>
        <time>2022-09-17T14:21:17.000Z</time>
      </trkpt>
      <trkpt lat="45.07019" lon="5.0507">
        <ele>174.7</ele>
        <time>2022-09-17T14:21:18.000Z</time>
      </trkpt>
      <trkpt lat="45.07019" lon="5.05073">
        <ele>174.7</ele>
        <time>2022-09-17T14:21:19.000Z</time>
      </trkpt>
      <trkpt lat="45.07019" lon="5.05077">
        <ele>174.7</ele>
        <time>2022-09-17T14:21:20.000Z</time>
      </trkpt>
      <trkpt lat="45.07019" lon="5.05079">
        <ele>174.7</ele>
        <time>2022-09-17T14:21:21.000Z</time>
      </trkpt>
      <trkpt lat="45.07017" lon="5.05083">
        <ele>174.6</ele>
        <time>2022-09-17T14:21:23.000Z</time>
      </trkpt>
      <trkpt lat="45.07016" lon="5.05087">
        <ele>174.6</ele>
        <time>2022-09-17T14:21:29.000Z</time>
      </trkpt>
      <trkpt lat="45.07016" lon="5.05091">
        <ele>174.6</ele>
        <time>2022-09-17T14:21:30.000Z</time>
      </trkpt>
      <trkpt lat="45.07017" lon="5.05096">
        <ele>174.6</ele>
        <time>2022-09-17T14:21:31.000Z</time>
      </trkpt>
      <trkpt lat="45.07016" lon="5.05101">
        <ele>174.6</ele>
        <time>2022-09-17T14:21:32.000Z</time>
      </trkpt>
      <trkpt lat="45.07017" lon="5.05108">
        <ele>174.6</ele>
        <time>2022-09-17T14:21:33.000Z</time>
      </trkpt>
      <trkpt lat="45.0702" lon="5.05113">
        <ele>174.7</ele>
        <time>2022-09-17T14:21:34.000Z</time>
      </trkpt>
      <trkpt lat="45.07023" lon="5.05117">
        <ele>174.8</ele>
        <time>2022-09-17T14:21:35.000Z</time>
      </trkpt>
      <trkpt lat="45.07026" lon="5.05121">
        <ele>174.9</ele>
        <time>2022-09-17T14:21:36.000Z</time>
      </trkpt>
      <trkpt lat="45.07028" lon="5.05126">
        <ele>175</ele>
        <time>2022-09-17T14:21:37.000Z</time>
      </trkpt>
      <trkpt lat="45.0703" lon="5.05131">
        <ele>175.2</ele>
        <time>2022-09-17T14:21:38.000Z</time>
      </trkpt>
      <trkpt lat="45.07033" lon="5.05135">
        <ele>175.3</ele>
        <time>2022-09-17T14:21:39.000Z</time>
      </trkpt>
      <trkpt lat="45.07035" lon="5.0514">
        <ele>175.5</ele>
        <time>2022-09-17T14:21:40.000Z</time>
      </trkpt>
      <trkpt lat="45.07037" lon="5.05144">
        <ele>175.6</ele>
        <time>2022-09-17T14:21:41.000Z</time>
      </trkpt>
      <trkpt lat="45.07039" lon="5.05148">
        <ele>175.8</ele>
        <time>2022-09-17T14:21:42.000Z</time>
      </trkpt>
      <trkpt lat="45.0704" lon="5.05153">
        <ele>175.9</ele>
        <time>2022-09-17T14:21:43.000Z</time>
      </trkpt>
      <trkpt lat="45.07042" lon="5.05158">
        <ele>176</ele>
        <time>2022-09-17T14:21:44.000Z</time>
      </trkpt>
      <trkpt lat="45.07043" lon="5.05164">
        <ele>176.1</ele>
        <time>2022-09-17T14:21:45.000Z</time>
      </trkpt>
      <trkpt lat="45.07045" lon="5.05168">
        <ele>176.3</ele>
        <time>2022-09-17T14:21:46.000Z</time>
      </trkpt>
      <trkpt lat="45.07047" lon="5.05173">
        <ele>176.5</ele>
        <time>2022-09-17T14:21:47.000Z</time>
      </trkpt>
      <trkpt lat="45.0705" lon="5.05178">
        <ele>176.7</ele>
        <time>2022-09-17T14:21:48.000Z</time>
      </trkpt>
      <trkpt lat="45.07051" lon="5.05183">
        <ele>176.9</ele>
        <time>2022-09-17T14:21:49.000Z</time>
      </trkpt>
      <trkpt lat="45.07053" lon="5.05188">
        <ele>177</ele>
        <time>2022-09-17T14:21:50.000Z</time>
      </trkpt>
      <trkpt lat="45.07055" lon="5.05192">
        <ele>177</ele>
        <time>2022-09-17T14:21:51.000Z</time>
      </trkpt>
      <trkpt lat="45.07058" lon="5.05196">
        <ele>177.1</ele>
        <time>2022-09-17T14:21:52.000Z</time>
      </trkpt>
      <trkpt lat="45.0706" lon="5.05201">
        <ele>177.1</ele>
        <time>2022-09-17T14:21:53.000Z</time>
      </trkpt>
      <trkpt lat="45.07062" lon="5.05205">
        <ele>177.2</ele>
        <time>2022-09-17T14:21:54.000Z</time>
      </trkpt>
      <trkpt lat="45.07063" lon="5.0521">
        <ele>177.3</ele>
        <time>2022-09-17T14:21:55.000Z</time>
      </trkpt>
      <trkpt lat="45.07064" lon="5.05215">
        <ele>177.3</ele>
        <time>2022-09-17T14:21:56.000Z</time>
      </trkpt>
      <trkpt lat="45.07065" lon="5.05219">
        <ele>177.3</ele>
        <time>2022-09-17T14:21:57.000Z</time>
      </trkpt>
      <trkpt lat="45.07068" lon="5.05222">
        <ele>177.4</ele>
        <time>2022-09-17T14:21:58.000Z</time>
      </trkpt>
      <trkpt lat="45.07069" lon="5.05226">
        <ele>177.4</ele>
        <time>2022-09-17T14:21:59.000Z</time>
      </trkpt>
      <trkpt lat="45.07071" lon="5.0523">
        <ele>177.4</ele>
        <time>2022-09-17T14:22:00.000Z</time>
      </trkpt>
      <trkpt lat="45.07072" lon="5.05235">
        <ele>177.3</ele>
        <time>2022-09-17T14:22:01.000Z</time>
      </trkpt>
      <trkpt lat="45.07074" lon="5.05239">
        <ele>177.3</ele>
        <time>2022-09-17T14:22:02.000Z</time>
      </trkpt>
      <trkpt lat="45.07077" lon="5.05242">
        <ele>177.2</ele>
        <time>2022-09-17T14:22:03.000Z</time>
      </trkpt>
      <trkpt lat="45.07079" lon="5.05246">
        <ele>177.1</ele>
        <time>2022-09-17T14:22:04.000Z</time>
      </trkpt>
      <trkpt lat="45.07082" lon="5.05251">
        <ele>177</ele>
        <time>2022-09-17T14:22:05.000Z</time>
      </trkpt>
      <trkpt lat="45.07084" lon="5.05257">
        <ele>177</ele>
        <time>2022-09-17T14:22:06.000Z</time>
      </trkpt>
      <trkpt lat="45.07086" lon="5.05264">
        <ele>177.1</ele>
        <time>2022-09-17T14:22:07.000Z</time>
      </trkpt>
      <trkpt lat="45.07088" lon="5.0527">
        <ele>177.2</ele>
        <time>2022-09-17T14:22:08.000Z</time>
      </trkpt>
      <trkpt lat="45.07091" lon="5.05275">
        <ele>177.3</ele>
        <time>2022-09-17T14:22:09.000Z</time>
      </trkpt>
      <trkpt lat="45.07093" lon="5.05281">
        <ele>177.4</ele>
        <time>2022-09-17T14:22:10.000Z</time>
      </trkpt>
      <trkpt lat="45.07094" lon="5.05286">
        <ele>177.6</ele>
        <time>2022-09-17T14:22:11.000Z</time>
      </trkpt>
      <trkpt lat="45.07096" lon="5.05292">
        <ele>177.9</ele>
        <time>2022-09-17T14:22:12.000Z</time>
      </trkpt>
      <trkpt lat="45.07097" lon="5.05297">
        <ele>178.2</ele>
        <time>2022-09-17T14:22:13.000Z</time>
      </trkpt>
      <trkpt lat="45.07097" lon="5.05303">
        <ele>178.4</ele>
        <time>2022-09-17T14:22:14.000Z</time>
      </trkpt>
      <trkpt lat="45.07097" lon="5.05309">
        <ele>178.3</ele>
        <time>2022-09-17T14:22:15.000Z</time>
      </trkpt>
      <trkpt lat="45.07098" lon="5.05315">
        <ele>178.1</ele>
        <time>2022-09-17T14:22:16.000Z</time>
      </trkpt>
      <trkpt lat="45.07098" lon="5.05321">
        <ele>177.8</ele>
        <time>2022-09-17T14:22:17.000Z</time>
      </trkpt>
      <trkpt lat="45.07098" lon="5.05327">
        <ele>177.4</ele>
        <time>2022-09-17T14:22:18.000Z</time>
      </trkpt>
      <trkpt lat="45.07097" lon="5.05334">
        <ele>177</ele>
        <time>2022-09-17T14:22:19.000Z</time>
      </trkpt>
      <trkpt lat="45.07096" lon="5.05341">
        <ele>176.9</ele>
        <time>2022-09-17T14:22:20.000Z</time>
      </trkpt>
      <trkpt lat="45.07095" lon="5.05348">
        <ele>176.8</ele>
        <time>2022-09-17T14:22:21.000Z</time>
      </trkpt>
      <trkpt lat="45.07094" lon="5.05355">
        <ele>176.8</ele>
        <time>2022-09-17T14:22:22.000Z</time>
      </trkpt>
      <trkpt lat="45.07094" lon="5.05361">
        <ele>176.7</ele>
        <time>2022-09-17T14:22:23.000Z</time>
      </trkpt>
      <trkpt lat="45.07094" lon="5.05368">
        <ele>176.7</ele>
        <time>2022-09-17T14:22:24.000Z</time>
      </trkpt>
      <trkpt lat="45.07094" lon="5.05375">
        <ele>176.6</ele>
        <time>2022-09-17T14:22:25.000Z</time>
      </trkpt>
      <trkpt lat="45.07093" lon="5.05381">
        <ele>176.4</ele>
        <time>2022-09-17T14:22:26.000Z</time>
      </trkpt>
      <trkpt lat="45.07092" lon="5.05388">
        <ele>176.3</ele>
        <time>2022-09-17T14:22:27.000Z</time>
      </trkpt>
      <trkpt lat="45.07092" lon="5.05395">
        <ele>176.2</ele>
        <time>2022-09-17T14:22:28.000Z</time>
      </trkpt>
      <trkpt lat="45.07092" lon="5.05402">
        <ele>176.1</ele>
        <time>2022-09-17T14:22:29.000Z</time>
      </trkpt>
      <trkpt lat="45.07092" lon="5.05409">
        <ele>176</ele>
        <time>2022-09-17T14:22:30.000Z</time>
      </trkpt>
      <trkpt lat="45.07091" lon="5.05415">
        <ele>175.9</ele>
        <time>2022-09-17T14:22:31.000Z</time>
      </trkpt>
      <trkpt lat="45.07091" lon="5.05422">
        <ele>175.9</ele>
        <time>2022-09-17T14:22:32.000Z</time>
      </trkpt>
      <trkpt lat="45.07092" lon="5.05429">
        <ele>175.9</ele>
        <time>2022-09-17T14:22:33.000Z</time>
      </trkpt>
      <trkpt lat="45.07093" lon="5.05437">
        <ele>176.1</ele>
        <time>2022-09-17T14:22:34.000Z</time>
      </trkpt>
      <trkpt lat="45.07096" lon="5.05444">
        <ele>176.3</ele>
        <time>2022-09-17T14:22:35.000Z</time>
      </trkpt>
      <trkpt lat="45.07098" lon="5.05451">
        <ele>176.6</ele>
        <time>2022-09-17T14:22:36.000Z</time>
      </trkpt>
      <trkpt lat="45.07101" lon="5.05457">
        <ele>176.9</ele>
        <time>2022-09-17T14:22:37.000Z</time>
      </trkpt>
      <trkpt lat="45.07103" lon="5.05463">
        <ele>177.1</ele>
        <time>2022-09-17T14:22:38.000Z</time>
      </trkpt>
      <trkpt lat="45.07105" lon="5.0547">
        <ele>177.3</ele>
        <time>2022-09-17T14:22:39.000Z</time>
      </trkpt>
      <trkpt lat="45.07107" lon="5.05476">
        <ele>177.6</ele>
        <time>2022-09-17T14:22:40.000Z</time>
      </trkpt>
      <trkpt lat="45.0711" lon="5.05482">
        <ele>177.9</ele>
        <time>2022-09-17T14:22:41.000Z</time>
      </trkpt>
      <trkpt lat="45.07113" lon="5.05487">
        <ele>178.5</ele>
        <time>2022-09-17T14:22:42.000Z</time>
      </trkpt>
      <trkpt lat="45.07116" lon="5.05493">
        <ele>179.2</ele>
        <time>2022-09-17T14:22:43.000Z</time>
      </trkpt>
      <trkpt lat="45.07119" lon="5.05498">
        <ele>179.6</ele>
        <time>2022-09-17T14:22:44.000Z</time>
      </trkpt>
      <trkpt lat="45.07121" lon="5.05503">
        <ele>179.9</ele>
        <time>2022-09-17T14:22:45.000Z</time>
      </trkpt>
      <trkpt lat="45.07124" lon="5.05508">
        <ele>180</ele>
        <time>2022-09-17T14:22:46.000Z</time>
      </trkpt>
      <trkpt lat="45.07126" lon="5.05513">
        <ele>180</ele>
        <time>2022-09-17T14:22:47.000Z</time>
      </trkpt>
      <trkpt lat="45.07128" lon="5.05518">
        <ele>179.9</ele>
        <time>2022-09-17T14:22:48.000Z</time>
      </trkpt>
      <trkpt lat="45.0713" lon="5.05522">
        <ele>179.9</ele>
        <time>2022-09-17T14:22:49.000Z</time>
      </trkpt>
      <trkpt lat="45.07132" lon="5.05526">
        <ele>180</ele>
        <time>2022-09-17T14:22:50.000Z</time>
      </trkpt>
      <trkpt lat="45.07135" lon="5.0553">
        <ele>180.1</ele>
        <time>2022-09-17T14:22:51.000Z</time>
      </trkpt>
      <trkpt lat="45.07137" lon="5.05534">
        <ele>180.3</ele>
        <time>2022-09-17T14:22:52.000Z</time>
      </trkpt>
      <trkpt lat="45.0714" lon="5.05538">
        <ele>180.5</ele>
        <time>2022-09-17T14:22:53.000Z</time>
      </trkpt>
      <trkpt lat="45.07143" lon="5.05541">
        <ele>180.7</ele>
        <time>2022-09-17T14:22:54.000Z</time>
      </trkpt>
      <trkpt lat="45.07145" lon="5.05545">
        <ele>180.9</ele>
        <time>2022-09-17T14:22:55.000Z</time>
      </trkpt>
      <trkpt lat="45.07148" lon="5.05548">
        <ele>181.1</ele>
        <time>2022-09-17T14:22:56.000Z</time>
      </trkpt>
      <trkpt lat="45.07151" lon="5.05552">
        <ele>181.4</ele>
        <time>2022-09-17T14:22:57.000Z</time>
      </trkpt>
      <trkpt lat="45.07153" lon="5.05555">
        <ele>181.6</ele>
        <time>2022-09-17T14:22:58.000Z</time>
      </trkpt>
      <trkpt lat="45.07156" lon="5.05559">
        <ele>181.8</ele>
        <time>2022-09-17T14:22:59.000Z</time>
      </trkpt>
      <trkpt lat="45.07159" lon="5.05562">
        <ele>181.9</ele>
        <time>2022-09-17T14:23:00.000Z</time>
      </trkpt>
      <trkpt lat="45.07161" lon="5.05565">
        <ele>182</ele>
        <time>2022-09-17T14:23:01.000Z</time>
      </trkpt>
      <trkpt lat="45.07164" lon="5.05569">
        <ele>182.1</ele>
        <time>2022-09-17T14:23:02.000Z</time>
      </trkpt>
      <trkpt lat="45.07166" lon="5.05574">
        <ele>181.9</ele>
        <time>2022-09-17T14:23:03.000Z</time>
      </trkpt>
      <trkpt lat="45.07168" lon="5.05579">
        <ele>181.7</ele>
        <time>2022-09-17T14:23:04.000Z</time>
      </trkpt>
      <trkpt lat="45.07169" lon="5.05584">
        <ele>181.4</ele>
        <time>2022-09-17T14:23:05.000Z</time>
      </trkpt>
      <trkpt lat="45.07171" lon="5.0559">
        <ele>181.3</ele>
        <time>2022-09-17T14:23:06.000Z</time>
      </trkpt>
      <trkpt lat="45.07172" lon="5.05595">
        <ele>181</ele>
        <time>2022-09-17T14:23:07.000Z</time>
      </trkpt>
      <trkpt lat="45.07173" lon="5.05601">
        <ele>180.8</ele>
        <time>2022-09-17T14:23:08.000Z</time>
      </trkpt>
      <trkpt lat="45.07174" lon="5.05607">
        <ele>180.5</ele>
        <time>2022-09-17T14:23:09.000Z</time>
      </trkpt>
      <trkpt lat="45.07174" lon="5.05613">
        <ele>180.3</ele>
        <time>2022-09-17T14:23:10.000Z</time>
      </trkpt>
      <trkpt lat="45.07175" lon="5.05618">
        <ele>180.3</ele>
        <time>2022-09-17T14:23:11.000Z</time>
      </trkpt>
      <trkpt lat="45.07177" lon="5.05624">
        <ele>180.4</ele>
        <time>2022-09-17T14:23:12.000Z</time>
      </trkpt>
      <trkpt lat="45.07179" lon="5.05629">
        <ele>180.5</ele>
        <time>2022-09-17T14:23:13.000Z</time>
      </trkpt>
      <trkpt lat="45.07181" lon="5.05633">
        <ele>180.7</ele>
        <time>2022-09-17T14:23:14.000Z</time>
      </trkpt>
      <trkpt lat="45.07182" lon="5.05639">
        <ele>180.8</ele>
        <time>2022-09-17T14:23:15.000Z</time>
      </trkpt>
      <trkpt lat="45.07184" lon="5.05644">
        <ele>180.8</ele>
        <time>2022-09-17T14:23:16.000Z</time>
      </trkpt>
      <trkpt lat="45.07186" lon="5.0565">
        <ele>180.8</ele>
        <time>2022-09-17T14:23:17.000Z</time>
      </trkpt>
      <trkpt lat="45.07188" lon="5.05656">
        <ele>180.8</ele>
        <time>2022-09-17T14:23:18.000Z</time>
      </trkpt>
      <trkpt lat="45.07191" lon="5.05662">
        <ele>180.7</ele>
        <time>2022-09-17T14:23:19.000Z</time>
      </trkpt>
      <trkpt lat="45.07193" lon="5.05669">
        <ele>180.7</ele>
        <time>2022-09-17T14:23:20.000Z</time>
      </trkpt>
      <trkpt lat="45.07195" lon="5.05675">
        <ele>180.7</ele>
        <time>2022-09-17T14:23:21.000Z</time>
      </trkpt>
      <trkpt lat="45.07196" lon="5.05682">
        <ele>180.7</ele>
        <time>2022-09-17T14:23:22.000Z</time>
      </trkpt>
      <trkpt lat="45.07198" lon="5.05689">
        <ele>180.6</ele>
        <time>2022-09-17T14:23:23.000Z</time>
      </trkpt>
      <trkpt lat="45.07199" lon="5.05696">
        <ele>180.6</ele>
        <time>2022-09-17T14:23:24.000Z</time>
      </trkpt>
      <trkpt lat="45.072" lon="5.05703">
        <ele>180.5</ele>
        <time>2022-09-17T14:23:25.000Z</time>
      </trkpt>
      <trkpt lat="45.072" lon="5.0571">
        <ele>180.4</ele>
        <time>2022-09-17T14:23:26.000Z</time>
      </trkpt>
      <trkpt lat="45.07201" lon="5.05716">
        <ele>180.3</ele>
        <time>2022-09-17T14:23:27.000Z</time>
      </trkpt>
      <trkpt lat="45.07201" lon="5.05722">
        <ele>180.2</ele>
        <time>2022-09-17T14:23:28.000Z</time>
      </trkpt>
      <trkpt lat="45.07202" lon="5.05728">
        <ele>180.3</ele>
        <time>2022-09-17T14:23:29.000Z</time>
      </trkpt>
      <trkpt lat="45.07202" lon="5.05733">
        <ele>180.3</ele>
        <time>2022-09-17T14:23:30.000Z</time>
      </trkpt>
      <trkpt lat="45.07203" lon="5.0574">
        <ele>180.3</ele>
        <time>2022-09-17T14:23:31.000Z</time>
      </trkpt>
      <trkpt lat="45.07203" lon="5.05746">
        <ele>180.3</ele>
        <time>2022-09-17T14:23:32.000Z</time>
      </trkpt>
      <trkpt lat="45.07205" lon="5.05752">
        <ele>180.5</ele>
        <time>2022-09-17T14:23:33.000Z</time>
      </trkpt>
      <trkpt lat="45.07205" lon="5.05758">
        <ele>180.7</ele>
        <time>2022-09-17T14:23:34.000Z</time>
      </trkpt>
      <trkpt lat="45.07207" lon="5.05763">
        <ele>181</ele>
        <time>2022-09-17T14:23:35.000Z</time>
      </trkpt>
      <trkpt lat="45.07207" lon="5.05767">
        <ele>181.2</ele>
        <time>2022-09-17T14:23:36.000Z</time>
      </trkpt>
      <trkpt lat="45.07206" lon="5.05773">
        <ele>181.1</ele>
        <time>2022-09-17T14:23:37.000Z</time>
      </trkpt>
      <trkpt lat="45.07206" lon="5.05776">
        <ele>181.2</ele>
        <time>2022-09-17T14:23:38.000Z</time>
      </trkpt>
      <trkpt lat="45.07207" lon="5.05781">
        <ele>181.3</ele>
        <time>2022-09-17T14:23:40.000Z</time>
      </trkpt>
      <trkpt lat="45.07208" lon="5.05787">
        <ele>181.2</ele>
        <time>2022-09-17T14:23:41.000Z</time>
      </trkpt>
      <trkpt lat="45.07209" lon="5.05794">
        <ele>181.3</ele>
        <time>2022-09-17T14:23:42.000Z</time>
      </trkpt>
      <trkpt lat="45.0721" lon="5.05798">
        <ele>181.2</ele>
        <time>2022-09-17T14:23:43.000Z</time>
      </trkpt>
      <trkpt lat="45.0721" lon="5.05803">
        <ele>181.2</ele>
        <time>2022-09-17T14:23:44.000Z</time>
      </trkpt>
      <trkpt lat="45.07211" lon="5.05809">
        <ele>181.3</ele>
        <time>2022-09-17T14:23:45.000Z</time>
      </trkpt>
      <trkpt lat="45.07213" lon="5.05814">
        <ele>181.4</ele>
        <time>2022-09-17T14:23:46.000Z</time>
      </trkpt>
      <trkpt lat="45.07214" lon="5.0582">
        <ele>181.5</ele>
        <time>2022-09-17T14:23:47.000Z</time>
      </trkpt>
      <trkpt lat="45.07214" lon="5.05825">
        <ele>181.6</ele>
        <time>2022-09-17T14:23:48.000Z</time>
      </trkpt>
      <trkpt lat="45.07214" lon="5.05832">
        <ele>181.7</ele>
        <time>2022-09-17T14:23:49.000Z</time>
      </trkpt>
      <trkpt lat="45.07214" lon="5.05837">
        <ele>181.7</ele>
        <time>2022-09-17T14:23:50.000Z</time>
      </trkpt>
      <trkpt lat="45.07215" lon="5.05843">
        <ele>181.7</ele>
        <time>2022-09-17T14:23:51.000Z</time>
      </trkpt>
      <trkpt lat="45.07216" lon="5.05849">
        <ele>181.8</ele>
        <time>2022-09-17T14:23:52.000Z</time>
      </trkpt>
      <trkpt lat="45.07217" lon="5.05855">
        <ele>181.8</ele>
        <time>2022-09-17T14:23:53.000Z</time>
      </trkpt>
      <trkpt lat="45.07217" lon="5.05861">
        <ele>181.8</ele>
        <time>2022-09-17T14:23:54.000Z</time>
      </trkpt>
      <trkpt lat="45.07217" lon="5.05866">
        <ele>182</ele>
        <time>2022-09-17T14:23:55.000Z</time>
      </trkpt>
      <trkpt lat="45.07217" lon="5.05871">
        <ele>182.2</ele>
        <time>2022-09-17T14:23:56.000Z</time>
      </trkpt>
      <trkpt lat="45.07218" lon="5.05876">
        <ele>182.4</ele>
        <time>2022-09-17T14:23:57.000Z</time>
      </trkpt>
      <trkpt lat="45.07219" lon="5.05881">
        <ele>182.6</ele>
        <time>2022-09-17T14:23:58.000Z</time>
      </trkpt>
      <trkpt lat="45.07219" lon="5.05886">
        <ele>182.8</ele>
        <time>2022-09-17T14:23:59.000Z</time>
      </trkpt>
      <trkpt lat="45.0722" lon="5.05892">
        <ele>182.8</ele>
        <time>2022-09-17T14:24:00.000Z</time>
      </trkpt>
      <trkpt lat="45.07221" lon="5.05898">
        <ele>182.6</ele>
        <time>2022-09-17T14:24:01.000Z</time>
      </trkpt>
      <trkpt lat="45.07221" lon="5.05904">
        <ele>182.4</ele>
        <time>2022-09-17T14:24:02.000Z</time>
      </trkpt>
      <trkpt lat="45.07222" lon="5.0591">
        <ele>182.2</ele>
        <time>2022-09-17T14:24:03.000Z</time>
      </trkpt>
      <trkpt lat="45.07223" lon="5.05915">
        <ele>182.1</ele>
        <time>2022-09-17T14:24:04.000Z</time>
      </trkpt>
      <trkpt lat="45.07224" lon="5.05921">
        <ele>182.1</ele>
        <time>2022-09-17T14:24:05.000Z</time>
      </trkpt>
      <trkpt lat="45.07227" lon="5.05927">
        <ele>182.2</ele>
        <time>2022-09-17T14:24:06.000Z</time>
      </trkpt>
      <trkpt lat="45.07229" lon="5.05933">
        <ele>182.2</ele>
        <time>2022-09-17T14:24:07.000Z</time>
      </trkpt>
      <trkpt lat="45.07231" lon="5.0594">
        <ele>182.3</ele>
        <time>2022-09-17T14:24:08.000Z</time>
      </trkpt>
      <trkpt lat="45.07233" lon="5.05946">
        <ele>182.3</ele>
        <time>2022-09-17T14:24:09.000Z</time>
      </trkpt>
      <trkpt lat="45.07235" lon="5.05953">
        <ele>182.3</ele>
        <time>2022-09-17T14:24:10.000Z</time>
      </trkpt>
      <trkpt lat="45.07236" lon="5.0596">
        <ele>182.2</ele>
        <time>2022-09-17T14:24:11.000Z</time>
      </trkpt>
      <trkpt lat="45.07238" lon="5.05966">
        <ele>182.2</ele>
        <time>2022-09-17T14:24:12.000Z</time>
      </trkpt>
      <trkpt lat="45.0724" lon="5.05973">
        <ele>182.3</ele>
        <time>2022-09-17T14:24:13.000Z</time>
      </trkpt>
      <trkpt lat="45.07242" lon="5.0598">
        <ele>182.2</ele>
        <time>2022-09-17T14:24:14.000Z</time>
      </trkpt>
      <trkpt lat="45.07244" lon="5.05986">
        <ele>182.1</ele>
        <time>2022-09-17T14:24:15.000Z</time>
      </trkpt>
      <trkpt lat="45.07245" lon="5.05992">
        <ele>181.9</ele>
        <time>2022-09-17T14:24:16.000Z</time>
      </trkpt>
      <trkpt lat="45.07247" lon="5.05999">
        <ele>181.8</ele>
        <time>2022-09-17T14:24:17.000Z</time>
      </trkpt>
      <trkpt lat="45.07249" lon="5.06006">
        <ele>181.8</ele>
        <time>2022-09-17T14:24:18.000Z</time>
      </trkpt>
      <trkpt lat="45.07251" lon="5.06011">
        <ele>181.5</ele>
        <time>2022-09-17T14:24:19.000Z</time>
      </trkpt>
      <trkpt lat="45.07253" lon="5.06018">
        <ele>181.2</ele>
        <time>2022-09-17T14:24:20.000Z</time>
      </trkpt>
      <trkpt lat="45.07255" lon="5.06024">
        <ele>180.8</ele>
        <time>2022-09-17T14:24:21.000Z</time>
      </trkpt>
      <trkpt lat="45.07256" lon="5.06031">
        <ele>180.5</ele>
        <time>2022-09-17T14:24:22.000Z</time>
      </trkpt>
      <trkpt lat="45.07258" lon="5.06037">
        <ele>180.4</ele>
        <time>2022-09-17T14:24:23.000Z</time>
      </trkpt>
      <trkpt lat="45.0726" lon="5.06043">
        <ele>180.3</ele>
        <time>2022-09-17T14:24:24.000Z</time>
      </trkpt>
      <trkpt lat="45.07262" lon="5.06049">
        <ele>180.4</ele>
        <time>2022-09-17T14:24:25.000Z</time>
      </trkpt>
      <trkpt lat="45.07264" lon="5.06056">
        <ele>180.5</ele>
        <time>2022-09-17T14:24:26.000Z</time>
      </trkpt>
      <trkpt lat="45.07265" lon="5.06063">
        <ele>180.4</ele>
        <time>2022-09-17T14:24:27.000Z</time>
      </trkpt>
      <trkpt lat="45.07267" lon="5.06069">
        <ele>180.4</ele>
        <time>2022-09-17T14:24:28.000Z</time>
      </trkpt>
      <trkpt lat="45.07269" lon="5.06076">
        <ele>180.5</ele>
        <time>2022-09-17T14:24:29.000Z</time>
      </trkpt>
      <trkpt lat="45.07271" lon="5.06082">
        <ele>180.5</ele>
        <time>2022-09-17T14:24:30.000Z</time>
      </trkpt>
      <trkpt lat="45.07273" lon="5.06089">
        <ele>180.5</ele>
        <time>2022-09-17T14:24:31.000Z</time>
      </trkpt>
      <trkpt lat="45.07275" lon="5.06095">
        <ele>180.4</ele>
        <time>2022-09-17T14:24:32.000Z</time>
      </trkpt>
      <trkpt lat="45.07277" lon="5.061">
        <ele>180.3</ele>
        <time>2022-09-17T14:24:33.000Z</time>
      </trkpt>
      <trkpt lat="45.07279" lon="5.06107">
        <ele>180.2</ele>
        <time>2022-09-17T14:24:34.000Z</time>
      </trkpt>
      <trkpt lat="45.0728" lon="5.06113">
        <ele>179.9</ele>
        <time>2022-09-17T14:24:35.000Z</time>
      </trkpt>
      <trkpt lat="45.07282" lon="5.06119">
        <ele>179.8</ele>
        <time>2022-09-17T14:24:36.000Z</time>
      </trkpt>
      <trkpt lat="45.07283" lon="5.06125">
        <ele>179.6</ele>
        <time>2022-09-17T14:24:37.000Z</time>
      </trkpt>
      <trkpt lat="45.07285" lon="5.06131">
        <ele>179.5</ele>
        <time>2022-09-17T14:24:38.000Z</time>
      </trkpt>
      <trkpt lat="45.07287" lon="5.06137">
        <ele>179.4</ele>
        <time>2022-09-17T14:24:39.000Z</time>
      </trkpt>
      <trkpt lat="45.07289" lon="5.06143">
        <ele>179.4</ele>
        <time>2022-09-17T14:24:40.000Z</time>
      </trkpt>
      <trkpt lat="45.07291" lon="5.06149">
        <ele>179.5</ele>
        <time>2022-09-17T14:24:41.000Z</time>
      </trkpt>
      <trkpt lat="45.07293" lon="5.06155">
        <ele>179.6</ele>
        <time>2022-09-17T14:24:42.000Z</time>
      </trkpt>
      <trkpt lat="45.07295" lon="5.06161">
        <ele>179.6</ele>
        <time>2022-09-17T14:24:43.000Z</time>
      </trkpt>
      <trkpt lat="45.07297" lon="5.06167">
        <ele>179.7</ele>
        <time>2022-09-17T14:24:44.000Z</time>
      </trkpt>
      <trkpt lat="45.07299" lon="5.06173">
        <ele>179.8</ele>
        <time>2022-09-17T14:24:45.000Z</time>
      </trkpt>
      <trkpt lat="45.07301" lon="5.06179">
        <ele>179.8</ele>
        <time>2022-09-17T14:24:46.000Z</time>
      </trkpt>
      <trkpt lat="45.07302" lon="5.06186">
        <ele>179.9</ele>
        <time>2022-09-17T14:24:47.000Z</time>
      </trkpt>
      <trkpt lat="45.07304" lon="5.06192">
        <ele>180</ele>
        <time>2022-09-17T14:24:48.000Z</time>
      </trkpt>
      <trkpt lat="45.07306" lon="5.06198">
        <ele>180</ele>
        <time>2022-09-17T14:24:49.000Z</time>
      </trkpt>
      <trkpt lat="45.07307" lon="5.06203">
        <ele>180</ele>
        <time>2022-09-17T14:24:50.000Z</time>
      </trkpt>
      <trkpt lat="45.07309" lon="5.06209">
        <ele>179.9</ele>
        <time>2022-09-17T14:24:51.000Z</time>
      </trkpt>
      <trkpt lat="45.0731" lon="5.06214">
        <ele>179.9</ele>
        <time>2022-09-17T14:24:52.000Z</time>
      </trkpt>
      <trkpt lat="45.07311" lon="5.06219">
        <ele>179.8</ele>
        <time>2022-09-17T14:24:53.000Z</time>
      </trkpt>
      <trkpt lat="45.07313" lon="5.06224">
        <ele>179.7</ele>
        <time>2022-09-17T14:24:54.000Z</time>
      </trkpt>
      <trkpt lat="45.07314" lon="5.06229">
        <ele>179.7</ele>
        <time>2022-09-17T14:24:55.000Z</time>
      </trkpt>
      <trkpt lat="45.07316" lon="5.06234">
        <ele>179.6</ele>
        <time>2022-09-17T14:24:56.000Z</time>
      </trkpt>
      <trkpt lat="45.07317" lon="5.06239">
        <ele>179.6</ele>
        <time>2022-09-17T14:24:57.000Z</time>
      </trkpt>
      <trkpt lat="45.07318" lon="5.06245">
        <ele>179.5</ele>
        <time>2022-09-17T14:24:58.000Z</time>
      </trkpt>
      <trkpt lat="45.0732" lon="5.0625">
        <ele>179.5</ele>
        <time>2022-09-17T14:24:59.000Z</time>
      </trkpt>
      <trkpt lat="45.07321" lon="5.06256">
        <ele>179.6</ele>
        <time>2022-09-17T14:25:00.000Z</time>
      </trkpt>
      <trkpt lat="45.07323" lon="5.06262">
        <ele>179.8</ele>
        <time>2022-09-17T14:25:01.000Z</time>
      </trkpt>
      <trkpt lat="45.07324" lon="5.06267">
        <ele>179.9</ele>
        <time>2022-09-17T14:25:02.000Z</time>
      </trkpt>
      <trkpt lat="45.07325" lon="5.06271">
        <ele>180.2</ele>
        <time>2022-09-17T14:25:03.000Z</time>
      </trkpt>
      <trkpt lat="45.07327" lon="5.06277">
        <ele>180.4</ele>
        <time>2022-09-17T14:25:04.000Z</time>
      </trkpt>
      <trkpt lat="45.07328" lon="5.06281">
        <ele>180.6</ele>
        <time>2022-09-17T14:25:05.000Z</time>
      </trkpt>
      <trkpt lat="45.07328" lon="5.06285">
        <ele>180.6</ele>
        <time>2022-09-17T14:25:06.000Z</time>
      </trkpt>
      <trkpt lat="45.07329" lon="5.06291">
        <ele>180.7</ele>
        <time>2022-09-17T14:25:07.000Z</time>
      </trkpt>
      <trkpt lat="45.07331" lon="5.06295">
        <ele>180.8</ele>
        <time>2022-09-17T14:25:08.000Z</time>
      </trkpt>
      <trkpt lat="45.07333" lon="5.063">
        <ele>181</ele>
        <time>2022-09-17T14:25:09.000Z</time>
      </trkpt>
      <trkpt lat="45.07335" lon="5.06306">
        <ele>181</ele>
        <time>2022-09-17T14:25:10.000Z</time>
      </trkpt>
      <trkpt lat="45.07336" lon="5.06311">
        <ele>181.1</ele>
        <time>2022-09-17T14:25:11.000Z</time>
      </trkpt>
      <trkpt lat="45.07338" lon="5.06315">
        <ele>181.2</ele>
        <time>2022-09-17T14:25:12.000Z</time>
      </trkpt>
      <trkpt lat="45.07339" lon="5.0632">
        <ele>181.3</ele>
        <time>2022-09-17T14:25:13.000Z</time>
      </trkpt>
      <trkpt lat="45.0734" lon="5.06324">
        <ele>181.3</ele>
        <time>2022-09-17T14:25:14.000Z</time>
      </trkpt>
      <trkpt lat="45.07341" lon="5.06329">
        <ele>181.4</ele>
        <time>2022-09-17T14:25:15.000Z</time>
      </trkpt>
      <trkpt lat="45.07342" lon="5.06334">
        <ele>181.3</ele>
        <time>2022-09-17T14:25:16.000Z</time>
      </trkpt>
      <trkpt lat="45.07343" lon="5.0634">
        <ele>180.6</ele>
        <time>2022-09-17T14:25:17.000Z</time>
      </trkpt>
      <trkpt lat="45.07345" lon="5.06345">
        <ele>180</ele>
        <time>2022-09-17T14:25:18.000Z</time>
      </trkpt>
      <trkpt lat="45.07346" lon="5.06351">
        <ele>179.5</ele>
        <time>2022-09-17T14:25:19.000Z</time>
      </trkpt>
      <trkpt lat="45.07348" lon="5.06357">
        <ele>178.9</ele>
        <time>2022-09-17T14:25:20.000Z</time>
      </trkpt>
      <trkpt lat="45.0735" lon="5.06364">
        <ele>178.6</ele>
        <time>2022-09-17T14:25:21.000Z</time>
      </trkpt>
      <trkpt lat="45.07352" lon="5.0637">
        <ele>178.8</ele>
        <time>2022-09-17T14:25:22.000Z</time>
      </trkpt>
      <trkpt lat="45.07354" lon="5.06377">
        <ele>179</ele>
        <time>2022-09-17T14:25:23.000Z</time>
      </trkpt>
      <trkpt lat="45.07355" lon="5.06384">
        <ele>179.3</ele>
        <time>2022-09-17T14:25:24.000Z</time>
      </trkpt>
      <trkpt lat="45.07357" lon="5.0639">
        <ele>179.6</ele>
        <time>2022-09-17T14:25:25.000Z</time>
      </trkpt>
      <trkpt lat="45.0736" lon="5.06396">
        <ele>179.8</ele>
        <time>2022-09-17T14:25:26.000Z</time>
      </trkpt>
      <trkpt lat="45.07362" lon="5.06403">
        <ele>180</ele>
        <time>2022-09-17T14:25:27.000Z</time>
      </trkpt>
      <trkpt lat="45.07364" lon="5.0641">
        <ele>180</ele>
        <time>2022-09-17T14:25:28.000Z</time>
      </trkpt>
      <trkpt lat="45.07365" lon="5.06416">
        <ele>180</ele>
        <time>2022-09-17T14:25:29.000Z</time>
      </trkpt>
      <trkpt lat="45.07367" lon="5.06423">
        <ele>179.6</ele>
        <time>2022-09-17T14:25:30.000Z</time>
      </trkpt>
      <trkpt lat="45.07368" lon="5.06429">
        <ele>179.3</ele>
        <time>2022-09-17T14:25:31.000Z</time>
      </trkpt>
      <trkpt lat="45.07369" lon="5.06435">
        <ele>179.1</ele>
        <time>2022-09-17T14:25:32.000Z</time>
      </trkpt>
      <trkpt lat="45.07371" lon="5.06441">
        <ele>178.9</ele>
        <time>2022-09-17T14:25:33.000Z</time>
      </trkpt>
      <trkpt lat="45.07372" lon="5.06447">
        <ele>178.8</ele>
        <time>2022-09-17T14:25:34.000Z</time>
      </trkpt>
      <trkpt lat="45.07373" lon="5.06452">
        <ele>178.8</ele>
        <time>2022-09-17T14:25:35.000Z</time>
      </trkpt>
      <trkpt lat="45.07375" lon="5.06458">
        <ele>178.7</ele>
        <time>2022-09-17T14:25:36.000Z</time>
      </trkpt>
      <trkpt lat="45.07376" lon="5.06463">
        <ele>178.7</ele>
        <time>2022-09-17T14:25:37.000Z</time>
      </trkpt>
      <trkpt lat="45.07378" lon="5.06469">
        <ele>178.7</ele>
        <time>2022-09-17T14:25:38.000Z</time>
      </trkpt>
      <trkpt lat="45.07379" lon="5.06474">
        <ele>178.6</ele>
        <time>2022-09-17T14:25:39.000Z</time>
      </trkpt>
      <trkpt lat="45.0738" lon="5.0648">
        <ele>178.6</ele>
        <time>2022-09-17T14:25:40.000Z</time>
      </trkpt>
      <trkpt lat="45.07382" lon="5.06487">
        <ele>178.6</ele>
        <time>2022-09-17T14:25:41.000Z</time>
      </trkpt>
      <trkpt lat="45.07383" lon="5.06493">
        <ele>178.6</ele>
        <time>2022-09-17T14:25:42.000Z</time>
      </trkpt>
      <trkpt lat="45.07384" lon="5.06499">
        <ele>178.6</ele>
        <time>2022-09-17T14:25:43.000Z</time>
      </trkpt>
      <trkpt lat="45.07384" lon="5.06505">
        <ele>178.7</ele>
        <time>2022-09-17T14:25:44.000Z</time>
      </trkpt>
      <trkpt lat="45.07386" lon="5.06511">
        <ele>178.8</ele>
        <time>2022-09-17T14:25:45.000Z</time>
      </trkpt>
      <trkpt lat="45.07387" lon="5.06517">
        <ele>178.9</ele>
        <time>2022-09-17T14:25:46.000Z</time>
      </trkpt>
      <trkpt lat="45.07389" lon="5.06522">
        <ele>179</ele>
        <time>2022-09-17T14:25:47.000Z</time>
      </trkpt>
      <trkpt lat="45.0739" lon="5.06528">
        <ele>178.9</ele>
        <time>2022-09-17T14:25:48.000Z</time>
      </trkpt>
      <trkpt lat="45.07392" lon="5.06533">
        <ele>178.9</ele>
        <time>2022-09-17T14:25:49.000Z</time>
      </trkpt>
      <trkpt lat="45.07393" lon="5.06539">
        <ele>178.9</ele>
        <time>2022-09-17T14:25:50.000Z</time>
      </trkpt>
      <trkpt lat="45.07394" lon="5.06546">
        <ele>178.9</ele>
        <time>2022-09-17T14:25:51.000Z</time>
      </trkpt>
      <trkpt lat="45.07396" lon="5.06551">
        <ele>179</ele>
        <time>2022-09-17T14:25:52.000Z</time>
      </trkpt>
      <trkpt lat="45.07397" lon="5.06558">
        <ele>178.9</ele>
        <time>2022-09-17T14:25:53.000Z</time>
      </trkpt>
      <trkpt lat="45.07399" lon="5.06565">
        <ele>178.8</ele>
        <time>2022-09-17T14:25:54.000Z</time>
      </trkpt>
      <trkpt lat="45.074" lon="5.06572">
        <ele>178.6</ele>
        <time>2022-09-17T14:25:55.000Z</time>
      </trkpt>
      <trkpt lat="45.07401" lon="5.06579">
        <ele>178.5</ele>
        <time>2022-09-17T14:25:56.000Z</time>
      </trkpt>
      <trkpt lat="45.07403" lon="5.06586">
        <ele>178.6</ele>
        <time>2022-09-17T14:25:57.000Z</time>
      </trkpt>
      <trkpt lat="45.07404" lon="5.06594">
        <ele>178.7</ele>
        <time>2022-09-17T14:25:58.000Z</time>
      </trkpt>
      <trkpt lat="45.07405" lon="5.06601">
        <ele>179</ele>
        <time>2022-09-17T14:25:59.000Z</time>
      </trkpt>
      <trkpt lat="45.07407" lon="5.06608">
        <ele>179.2</ele>
        <time>2022-09-17T14:26:00.000Z</time>
      </trkpt>
      <trkpt lat="45.07408" lon="5.06615">
        <ele>179.4</ele>
        <time>2022-09-17T14:26:01.000Z</time>
      </trkpt>
      <trkpt lat="45.07409" lon="5.06621">
        <ele>179.4</ele>
        <time>2022-09-17T14:26:02.000Z</time>
      </trkpt>
      <trkpt lat="45.0741" lon="5.06628">
        <ele>179.5</ele>
        <time>2022-09-17T14:26:03.000Z</time>
      </trkpt>
      <trkpt lat="45.07412" lon="5.06635">
        <ele>179.6</ele>
        <time>2022-09-17T14:26:04.000Z</time>
      </trkpt>
      <trkpt lat="45.07413" lon="5.06642">
        <ele>179.8</ele>
        <time>2022-09-17T14:26:05.000Z</time>
      </trkpt>
      <trkpt lat="45.07415" lon="5.06649">
        <ele>179.9</ele>
        <time>2022-09-17T14:26:06.000Z</time>
      </trkpt>
      <trkpt lat="45.07416" lon="5.06655">
        <ele>180</ele>
        <time>2022-09-17T14:26:07.000Z</time>
      </trkpt>
      <trkpt lat="45.07418" lon="5.06662">
        <ele>180</ele>
        <time>2022-09-17T14:26:08.000Z</time>
      </trkpt>
      <trkpt lat="45.07419" lon="5.06669">
        <ele>180.1</ele>
        <time>2022-09-17T14:26:09.000Z</time>
      </trkpt>
      <trkpt lat="45.07421" lon="5.06676">
        <ele>180.3</ele>
        <time>2022-09-17T14:26:10.000Z</time>
      </trkpt>
      <trkpt lat="45.07423" lon="5.06683">
        <ele>180.6</ele>
        <time>2022-09-17T14:26:11.000Z</time>
      </trkpt>
      <trkpt lat="45.07424" lon="5.0669">
        <ele>180.8</ele>
        <time>2022-09-17T14:26:12.000Z</time>
      </trkpt>
      <trkpt lat="45.07426" lon="5.06697">
        <ele>181.1</ele>
        <time>2022-09-17T14:26:13.000Z</time>
      </trkpt>
      <trkpt lat="45.07427" lon="5.06704">
        <ele>181.3</ele>
        <time>2022-09-17T14:26:14.000Z</time>
      </trkpt>
      <trkpt lat="45.07429" lon="5.06711">
        <ele>181.6</ele>
        <time>2022-09-17T14:26:15.000Z</time>
      </trkpt>
      <trkpt lat="45.07431" lon="5.06718">
        <ele>181.8</ele>
        <time>2022-09-17T14:26:16.000Z</time>
      </trkpt>
      <trkpt lat="45.07432" lon="5.06725">
        <ele>182.1</ele>
        <time>2022-09-17T14:26:17.000Z</time>
      </trkpt>
      <trkpt lat="45.07434" lon="5.06731">
        <ele>182.3</ele>
        <time>2022-09-17T14:26:18.000Z</time>
      </trkpt>
      <trkpt lat="45.07435" lon="5.06738">
        <ele>182.6</ele>
        <time>2022-09-17T14:26:19.000Z</time>
      </trkpt>
      <trkpt lat="45.07437" lon="5.06744">
        <ele>182.8</ele>
        <time>2022-09-17T14:26:20.000Z</time>
      </trkpt>
      <trkpt lat="45.07438" lon="5.0675">
        <ele>183</ele>
        <time>2022-09-17T14:26:21.000Z</time>
      </trkpt>
      <trkpt lat="45.07439" lon="5.06756">
        <ele>183</ele>
        <time>2022-09-17T14:26:22.000Z</time>
      </trkpt>
      <trkpt lat="45.07441" lon="5.06762">
        <ele>182.9</ele>
        <time>2022-09-17T14:26:23.000Z</time>
      </trkpt>
      <trkpt lat="45.07442" lon="5.06767">
        <ele>182.9</ele>
        <time>2022-09-17T14:26:24.000Z</time>
      </trkpt>
      <trkpt lat="45.07444" lon="5.06773">
        <ele>183</ele>
        <time>2022-09-17T14:26:25.000Z</time>
      </trkpt>
      <trkpt lat="45.07445" lon="5.0678">
        <ele>183</ele>
        <time>2022-09-17T14:26:26.000Z</time>
      </trkpt>
      <trkpt lat="45.07447" lon="5.06786">
        <ele>183.1</ele>
        <time>2022-09-17T14:26:27.000Z</time>
      </trkpt>
      <trkpt lat="45.07448" lon="5.06792">
        <ele>183.1</ele>
        <time>2022-09-17T14:26:28.000Z</time>
      </trkpt>
      <trkpt lat="45.07449" lon="5.06799">
        <ele>183</ele>
        <time>2022-09-17T14:26:29.000Z</time>
      </trkpt>
      <trkpt lat="45.07451" lon="5.06806">
        <ele>183</ele>
        <time>2022-09-17T14:26:30.000Z</time>
      </trkpt>
      <trkpt lat="45.07452" lon="5.06813">
        <ele>182.8</ele>
        <time>2022-09-17T14:26:31.000Z</time>
      </trkpt>
      <trkpt lat="45.07453" lon="5.06821">
        <ele>182.6</ele>
        <time>2022-09-17T14:26:32.000Z</time>
      </trkpt>
      <trkpt lat="45.07455" lon="5.06829">
        <ele>182.5</ele>
        <time>2022-09-17T14:26:33.000Z</time>
      </trkpt>
      <trkpt lat="45.07456" lon="5.06837">
        <ele>182.4</ele>
        <time>2022-09-17T14:26:34.000Z</time>
      </trkpt>
      <trkpt lat="45.07457" lon="5.06845">
        <ele>182.5</ele>
        <time>2022-09-17T14:26:35.000Z</time>
      </trkpt>
      <trkpt lat="45.07459" lon="5.06853">
        <ele>182.5</ele>
        <time>2022-09-17T14:26:36.000Z</time>
      </trkpt>
      <trkpt lat="45.0746" lon="5.06861">
        <ele>182.6</ele>
        <time>2022-09-17T14:26:37.000Z</time>
      </trkpt>
      <trkpt lat="45.07461" lon="5.06868">
        <ele>182.6</ele>
        <time>2022-09-17T14:26:38.000Z</time>
      </trkpt>
      <trkpt lat="45.07463" lon="5.06876">
        <ele>182.7</ele>
        <time>2022-09-17T14:26:39.000Z</time>
      </trkpt>
      <trkpt lat="45.07464" lon="5.06884">
        <ele>182.7</ele>
        <time>2022-09-17T14:26:40.000Z</time>
      </trkpt>
      <trkpt lat="45.07465" lon="5.06891">
        <ele>182.7</ele>
        <time>2022-09-17T14:26:41.000Z</time>
      </trkpt>
      <trkpt lat="45.07467" lon="5.06898">
        <ele>182.5</ele>
        <time>2022-09-17T14:26:42.000Z</time>
      </trkpt>
      <trkpt lat="45.07468" lon="5.06905">
        <ele>182.3</ele>
        <time>2022-09-17T14:26:43.000Z</time>
      </trkpt>
      <trkpt lat="45.07469" lon="5.06912">
        <ele>182.1</ele>
        <time>2022-09-17T14:26:44.000Z</time>
      </trkpt>
      <trkpt lat="45.07471" lon="5.0692">
        <ele>181.9</ele>
        <time>2022-09-17T14:26:45.000Z</time>
      </trkpt>
      <trkpt lat="45.07472" lon="5.06927">
        <ele>181.6</ele>
        <time>2022-09-17T14:26:46.000Z</time>
      </trkpt>
      <trkpt lat="45.07474" lon="5.06934">
        <ele>181.4</ele>
        <time>2022-09-17T14:26:47.000Z</time>
      </trkpt>
      <trkpt lat="45.07476" lon="5.06941">
        <ele>181.2</ele>
        <time>2022-09-17T14:26:48.000Z</time>
      </trkpt>
      <trkpt lat="45.07477" lon="5.06948">
        <ele>181.1</ele>
        <time>2022-09-17T14:26:49.000Z</time>
      </trkpt>
      <trkpt lat="45.07479" lon="5.06954">
        <ele>181</ele>
        <time>2022-09-17T14:26:50.000Z</time>
      </trkpt>
      <trkpt lat="45.07481" lon="5.06961">
        <ele>180.9</ele>
        <time>2022-09-17T14:26:51.000Z</time>
      </trkpt>
      <trkpt lat="45.07482" lon="5.06968">
        <ele>180.8</ele>
        <time>2022-09-17T14:26:52.000Z</time>
      </trkpt>
      <trkpt lat="45.07484" lon="5.06974">
        <ele>180.8</ele>
        <time>2022-09-17T14:26:53.000Z</time>
      </trkpt>
      <trkpt lat="45.07485" lon="5.06982">
        <ele>180.8</ele>
        <time>2022-09-17T14:26:54.000Z</time>
      </trkpt>
      <trkpt lat="45.07487" lon="5.06989">
        <ele>180.8</ele>
        <time>2022-09-17T14:26:55.000Z</time>
      </trkpt>
      <trkpt lat="45.07489" lon="5.06997">
        <ele>180.7</ele>
        <time>2022-09-17T14:26:56.000Z</time>
      </trkpt>
      <trkpt lat="45.07492" lon="5.07004">
        <ele>180.7</ele>
        <time>2022-09-17T14:26:57.000Z</time>
      </trkpt>
      <trkpt lat="45.07494" lon="5.07012">
        <ele>180.7</ele>
        <time>2022-09-17T14:26:58.000Z</time>
      </trkpt>
      <trkpt lat="45.07496" lon="5.07019">
        <ele>180.7</ele>
        <time>2022-09-17T14:26:59.000Z</time>
      </trkpt>
      <trkpt lat="45.07498" lon="5.07027">
        <ele>180.9</ele>
        <time>2022-09-17T14:27:00.000Z</time>
      </trkpt>
      <trkpt lat="45.07501" lon="5.07034">
        <ele>180.6</ele>
        <time>2022-09-17T14:27:01.000Z</time>
      </trkpt>
      <trkpt lat="45.07504" lon="5.07042">
        <ele>180.3</ele>
        <time>2022-09-17T14:27:02.000Z</time>
      </trkpt>
      <trkpt lat="45.07506" lon="5.07049">
        <ele>180.1</ele>
        <time>2022-09-17T14:27:03.000Z</time>
      </trkpt>
      <trkpt lat="45.07509" lon="5.07055">
        <ele>179.9</ele>
        <time>2022-09-17T14:27:04.000Z</time>
      </trkpt>
      <trkpt lat="45.07511" lon="5.07063">
        <ele>179.9</ele>
        <time>2022-09-17T14:27:05.000Z</time>
      </trkpt>
      <trkpt lat="45.07513" lon="5.0707">
        <ele>179.9</ele>
        <time>2022-09-17T14:27:06.000Z</time>
      </trkpt>
      <trkpt lat="45.07516" lon="5.07076">
        <ele>179.9</ele>
        <time>2022-09-17T14:27:07.000Z</time>
      </trkpt>
      <trkpt lat="45.07517" lon="5.07083">
        <ele>179.9</ele>
        <time>2022-09-17T14:27:08.000Z</time>
      </trkpt>
      <trkpt lat="45.07519" lon="5.07089">
        <ele>179.9</ele>
        <time>2022-09-17T14:27:09.000Z</time>
      </trkpt>
      <trkpt lat="45.07521" lon="5.07095">
        <ele>179.9</ele>
        <time>2022-09-17T14:27:10.000Z</time>
      </trkpt>
      <trkpt lat="45.07522" lon="5.07102">
        <ele>179.8</ele>
        <time>2022-09-17T14:27:11.000Z</time>
      </trkpt>
      <trkpt lat="45.07523" lon="5.07108">
        <ele>179.8</ele>
        <time>2022-09-17T14:27:12.000Z</time>
      </trkpt>
      <trkpt lat="45.07525" lon="5.07114">
        <ele>179.8</ele>
        <time>2022-09-17T14:27:13.000Z</time>
      </trkpt>
      <trkpt lat="45.07527" lon="5.07119">
        <ele>179.9</ele>
        <time>2022-09-17T14:27:14.000Z</time>
      </trkpt>
      <trkpt lat="45.07528" lon="5.07125">
        <ele>180</ele>
        <time>2022-09-17T14:27:15.000Z</time>
      </trkpt>
      <trkpt lat="45.07529" lon="5.0713">
        <ele>180.1</ele>
        <time>2022-09-17T14:27:16.000Z</time>
      </trkpt>
      <trkpt lat="45.07531" lon="5.07136">
        <ele>180.1</ele>
        <time>2022-09-17T14:27:17.000Z</time>
      </trkpt>
      <trkpt lat="45.07532" lon="5.07141">
        <ele>180</ele>
        <time>2022-09-17T14:27:18.000Z</time>
      </trkpt>
      <trkpt lat="45.07534" lon="5.07147">
        <ele>179.8</ele>
        <time>2022-09-17T14:27:19.000Z</time>
      </trkpt>
      <trkpt lat="45.07535" lon="5.07152">
        <ele>179.6</ele>
        <time>2022-09-17T14:27:20.000Z</time>
      </trkpt>
      <trkpt lat="45.07537" lon="5.07158">
        <ele>179.4</ele>
        <time>2022-09-17T14:27:21.000Z</time>
      </trkpt>
      <trkpt lat="45.07539" lon="5.07165">
        <ele>179.3</ele>
        <time>2022-09-17T14:27:22.000Z</time>
      </trkpt>
      <trkpt lat="45.0754" lon="5.07171">
        <ele>179.3</ele>
        <time>2022-09-17T14:27:23.000Z</time>
      </trkpt>
      <trkpt lat="45.07542" lon="5.07177">
        <ele>179.5</ele>
        <time>2022-09-17T14:27:24.000Z</time>
      </trkpt>
      <trkpt lat="45.07543" lon="5.07184">
        <ele>179.7</ele>
        <time>2022-09-17T14:27:25.000Z</time>
      </trkpt>
      <trkpt lat="45.07545" lon="5.0719">
        <ele>179.8</ele>
        <time>2022-09-17T14:27:26.000Z</time>
      </trkpt>
      <trkpt lat="45.07547" lon="5.07196">
        <ele>180</ele>
        <time>2022-09-17T14:27:27.000Z</time>
      </trkpt>
      <trkpt lat="45.07548" lon="5.07202">
        <ele>180.2</ele>
        <time>2022-09-17T14:27:28.000Z</time>
      </trkpt>
      <trkpt lat="45.0755" lon="5.07209">
        <ele>180.4</ele>
        <time>2022-09-17T14:27:29.000Z</time>
      </trkpt>
      <trkpt lat="45.07552" lon="5.07215">
        <ele>180.6</ele>
        <time>2022-09-17T14:27:30.000Z</time>
      </trkpt>
      <trkpt lat="45.07553" lon="5.07222">
        <ele>180.8</ele>
        <time>2022-09-17T14:27:31.000Z</time>
      </trkpt>
      <trkpt lat="45.07555" lon="5.07228">
        <ele>180.7</ele>
        <time>2022-09-17T14:27:32.000Z</time>
      </trkpt>
      <trkpt lat="45.07557" lon="5.07234">
        <ele>180.6</ele>
        <time>2022-09-17T14:27:33.000Z</time>
      </trkpt>
      <trkpt lat="45.0756" lon="5.0724">
        <ele>180.4</ele>
        <time>2022-09-17T14:27:34.000Z</time>
      </trkpt>
      <trkpt lat="45.07562" lon="5.07246">
        <ele>180.2</ele>
        <time>2022-09-17T14:27:35.000Z</time>
      </trkpt>
      <trkpt lat="45.07564" lon="5.07252">
        <ele>179.9</ele>
        <time>2022-09-17T14:27:36.000Z</time>
      </trkpt>
      <trkpt lat="45.07567" lon="5.07258">
        <ele>179.7</ele>
        <time>2022-09-17T14:27:37.000Z</time>
      </trkpt>
      <trkpt lat="45.0757" lon="5.07264">
        <ele>179.5</ele>
        <time>2022-09-17T14:27:38.000Z</time>
      </trkpt>
      <trkpt lat="45.07572" lon="5.07271">
        <ele>179.4</ele>
        <time>2022-09-17T14:27:39.000Z</time>
      </trkpt>
      <trkpt lat="45.07575" lon="5.07277">
        <ele>179.4</ele>
        <time>2022-09-17T14:27:40.000Z</time>
      </trkpt>
      <trkpt lat="45.07578" lon="5.07283">
        <ele>179.4</ele>
        <time>2022-09-17T14:27:41.000Z</time>
      </trkpt>
      <trkpt lat="45.07581" lon="5.07289">
        <ele>179.4</ele>
        <time>2022-09-17T14:27:42.000Z</time>
      </trkpt>
      <trkpt lat="45.07584" lon="5.07295">
        <ele>179.4</ele>
        <time>2022-09-17T14:27:43.000Z</time>
      </trkpt>
      <trkpt lat="45.07586" lon="5.07301">
        <ele>179.3</ele>
        <time>2022-09-17T14:27:44.000Z</time>
      </trkpt>
      <trkpt lat="45.07589" lon="5.07308">
        <ele>179.1</ele>
        <time>2022-09-17T14:27:45.000Z</time>
      </trkpt>
      <trkpt lat="45.07591" lon="5.07313">
        <ele>179.1</ele>
        <time>2022-09-17T14:27:46.000Z</time>
      </trkpt>
      <trkpt lat="45.07593" lon="5.07319">
        <ele>179</ele>
        <time>2022-09-17T14:27:47.000Z</time>
      </trkpt>
      <trkpt lat="45.07595" lon="5.07325">
        <ele>179</ele>
        <time>2022-09-17T14:27:48.000Z</time>
      </trkpt>
      <trkpt lat="45.07597" lon="5.07331">
        <ele>179</ele>
        <time>2022-09-17T14:27:49.000Z</time>
      </trkpt>
      <trkpt lat="45.076" lon="5.07337">
        <ele>179.2</ele>
        <time>2022-09-17T14:27:50.000Z</time>
      </trkpt>
      <trkpt lat="45.07602" lon="5.07342">
        <ele>179.5</ele>
        <time>2022-09-17T14:27:51.000Z</time>
      </trkpt>
      <trkpt lat="45.07604" lon="5.07348">
        <ele>179.9</ele>
        <time>2022-09-17T14:27:52.000Z</time>
      </trkpt>
      <trkpt lat="45.07606" lon="5.07353">
        <ele>180.2</ele>
        <time>2022-09-17T14:27:53.000Z</time>
      </trkpt>
      <trkpt lat="45.07608" lon="5.07358">
        <ele>180.6</ele>
        <time>2022-09-17T14:27:54.000Z</time>
      </trkpt>
      <trkpt lat="45.07611" lon="5.07364">
        <ele>180.9</ele>
        <time>2022-09-17T14:27:55.000Z</time>
      </trkpt>
      <trkpt lat="45.07613" lon="5.07369">
        <ele>180.8</ele>
        <time>2022-09-17T14:27:56.000Z</time>
      </trkpt>
      <trkpt lat="45.07616" lon="5.07374">
        <ele>180.8</ele>
        <time>2022-09-17T14:27:57.000Z</time>
      </trkpt>
      <trkpt lat="45.07618" lon="5.07379">
        <ele>180.7</ele>
        <time>2022-09-17T14:27:58.000Z</time>
      </trkpt>
      <trkpt lat="45.0762" lon="5.07384">
        <ele>180.7</ele>
        <time>2022-09-17T14:27:59.000Z</time>
      </trkpt>
      <trkpt lat="45.07622" lon="5.07389">
        <ele>180.8</ele>
        <time>2022-09-17T14:28:00.000Z</time>
      </trkpt>
      <trkpt lat="45.07624" lon="5.07393">
        <ele>180.9</ele>
        <time>2022-09-17T14:28:01.000Z</time>
      </trkpt>
      <trkpt lat="45.07627" lon="5.07397">
        <ele>180.9</ele>
        <time>2022-09-17T14:28:02.000Z</time>
      </trkpt>
      <trkpt lat="45.07629" lon="5.07402">
        <ele>181</ele>
        <time>2022-09-17T14:28:03.000Z</time>
      </trkpt>
      <trkpt lat="45.07631" lon="5.07406">
        <ele>181</ele>
        <time>2022-09-17T14:28:04.000Z</time>
      </trkpt>
      <trkpt lat="45.07634" lon="5.07412">
        <ele>181</ele>
        <time>2022-09-17T14:28:05.000Z</time>
      </trkpt>
      <trkpt lat="45.07636" lon="5.07417">
        <ele>180.9</ele>
        <time>2022-09-17T14:28:06.000Z</time>
      </trkpt>
      <trkpt lat="45.07639" lon="5.07422">
        <ele>180.6</ele>
        <time>2022-09-17T14:28:07.000Z</time>
      </trkpt>
      <trkpt lat="45.07643" lon="5.07428">
        <ele>180.3</ele>
        <time>2022-09-17T14:28:08.000Z</time>
      </trkpt>
      <trkpt lat="45.07646" lon="5.07433">
        <ele>179.9</ele>
        <time>2022-09-17T14:28:09.000Z</time>
      </trkpt>
      <trkpt lat="45.07649" lon="5.07439">
        <ele>179.7</ele>
        <time>2022-09-17T14:28:10.000Z</time>
      </trkpt>
      <trkpt lat="45.07651" lon="5.07445">
        <ele>179.4</ele>
        <time>2022-09-17T14:28:11.000Z</time>
      </trkpt>
      <trkpt lat="45.07654" lon="5.07451">
        <ele>179.6</ele>
        <time>2022-09-17T14:28:12.000Z</time>
      </trkpt>
      <trkpt lat="45.07657" lon="5.07456">
        <ele>179.7</ele>
        <time>2022-09-17T14:28:13.000Z</time>
      </trkpt>
      <trkpt lat="45.0766" lon="5.07461">
        <ele>179.7</ele>
        <time>2022-09-17T14:28:14.000Z</time>
      </trkpt>
      <trkpt lat="45.07662" lon="5.07467">
        <ele>179.8</ele>
        <time>2022-09-17T14:28:15.000Z</time>
      </trkpt>
      <trkpt lat="45.07665" lon="5.07471">
        <ele>179.9</ele>
        <time>2022-09-17T14:28:16.000Z</time>
      </trkpt>
      <trkpt lat="45.07668" lon="5.07476">
        <ele>179.9</ele>
        <time>2022-09-17T14:28:17.000Z</time>
      </trkpt>
      <trkpt lat="45.07671" lon="5.07481">
        <ele>179.9</ele>
        <time>2022-09-17T14:28:18.000Z</time>
      </trkpt>
      <trkpt lat="45.07673" lon="5.07487">
        <ele>179.8</ele>
        <time>2022-09-17T14:28:19.000Z</time>
      </trkpt>
      <trkpt lat="45.07676" lon="5.07492">
        <ele>179.9</ele>
        <time>2022-09-17T14:28:20.000Z</time>
      </trkpt>
      <trkpt lat="45.07679" lon="5.07497">
        <ele>179.9</ele>
        <time>2022-09-17T14:28:21.000Z</time>
      </trkpt>
      <trkpt lat="45.07682" lon="5.07502">
        <ele>180.1</ele>
        <time>2022-09-17T14:28:22.000Z</time>
      </trkpt>
      <trkpt lat="45.07684" lon="5.07507">
        <ele>180.4</ele>
        <time>2022-09-17T14:28:23.000Z</time>
      </trkpt>
      <trkpt lat="45.07687" lon="5.07513">
        <ele>180.6</ele>
        <time>2022-09-17T14:28:24.000Z</time>
      </trkpt>
      <trkpt lat="45.07689" lon="5.07519">
        <ele>180.8</ele>
        <time>2022-09-17T14:28:25.000Z</time>
      </trkpt>
      <trkpt lat="45.07692" lon="5.07525">
        <ele>180.9</ele>
        <time>2022-09-17T14:28:26.000Z</time>
      </trkpt>
      <trkpt lat="45.07694" lon="5.07532">
        <ele>180.8</ele>
        <time>2022-09-17T14:28:27.000Z</time>
      </trkpt>
      <trkpt lat="45.07697" lon="5.07538">
        <ele>180.7</ele>
        <time>2022-09-17T14:28:28.000Z</time>
      </trkpt>
      <trkpt lat="45.07699" lon="5.07544">
        <ele>180.6</ele>
        <time>2022-09-17T14:28:29.000Z</time>
      </trkpt>
      <trkpt lat="45.07701" lon="5.0755">
        <ele>180.5</ele>
        <time>2022-09-17T14:28:30.000Z</time>
      </trkpt>
      <trkpt lat="45.07703" lon="5.07555">
        <ele>180.3</ele>
        <time>2022-09-17T14:28:31.000Z</time>
      </trkpt>
      <trkpt lat="45.07705" lon="5.0756">
        <ele>180.3</ele>
        <time>2022-09-17T14:28:32.000Z</time>
      </trkpt>
      <trkpt lat="45.07707" lon="5.07566">
        <ele>180.3</ele>
        <time>2022-09-17T14:28:33.000Z</time>
      </trkpt>
      <trkpt lat="45.07709" lon="5.07572">
        <ele>180.3</ele>
        <time>2022-09-17T14:28:34.000Z</time>
      </trkpt>
      <trkpt lat="45.07711" lon="5.07578">
        <ele>180.3</ele>
        <time>2022-09-17T14:28:35.000Z</time>
      </trkpt>
      <trkpt lat="45.07713" lon="5.07583">
        <ele>180.3</ele>
        <time>2022-09-17T14:28:36.000Z</time>
      </trkpt>
      <trkpt lat="45.07715" lon="5.07589">
        <ele>180.5</ele>
        <time>2022-09-17T14:28:37.000Z</time>
      </trkpt>
      <trkpt lat="45.07717" lon="5.07595">
        <ele>180.6</ele>
        <time>2022-09-17T14:28:38.000Z</time>
      </trkpt>
      <trkpt lat="45.07718" lon="5.07601">
        <ele>180.7</ele>
        <time>2022-09-17T14:28:39.000Z</time>
      </trkpt>
      <trkpt lat="45.0772" lon="5.07607">
        <ele>180.9</ele>
        <time>2022-09-17T14:28:40.000Z</time>
      </trkpt>
      <trkpt lat="45.07722" lon="5.07613">
        <ele>181</ele>
        <time>2022-09-17T14:28:41.000Z</time>
      </trkpt>
      <trkpt lat="45.07724" lon="5.0762">
        <ele>181.1</ele>
        <time>2022-09-17T14:28:42.000Z</time>
      </trkpt>
      <trkpt lat="45.07726" lon="5.07627">
        <ele>181.1</ele>
        <time>2022-09-17T14:28:43.000Z</time>
      </trkpt>
      <trkpt lat="45.07728" lon="5.07633">
        <ele>181.2</ele>
        <time>2022-09-17T14:28:44.000Z</time>
      </trkpt>
      <trkpt lat="45.0773" lon="5.0764">
        <ele>181.3</ele>
        <time>2022-09-17T14:28:45.000Z</time>
      </trkpt>
      <trkpt lat="45.07731" lon="5.07647">
        <ele>181.3</ele>
        <time>2022-09-17T14:28:46.000Z</time>
      </trkpt>
      <trkpt lat="45.07733" lon="5.07654">
        <ele>181.4</ele>
        <time>2022-09-17T14:28:47.000Z</time>
      </trkpt>
      <trkpt lat="45.07735" lon="5.0766">
        <ele>181.4</ele>
        <time>2022-09-17T14:28:48.000Z</time>
      </trkpt>
      <trkpt lat="45.07736" lon="5.07667">
        <ele>181.5</ele>
        <time>2022-09-17T14:28:49.000Z</time>
      </trkpt>
      <trkpt lat="45.07738" lon="5.07673">
        <ele>181.6</ele>
        <time>2022-09-17T14:28:50.000Z</time>
      </trkpt>
      <trkpt lat="45.0774" lon="5.07679">
        <ele>181.6</ele>
        <time>2022-09-17T14:28:51.000Z</time>
      </trkpt>
      <trkpt lat="45.07742" lon="5.07685">
        <ele>181.7</ele>
        <time>2022-09-17T14:28:52.000Z</time>
      </trkpt>
      <trkpt lat="45.07743" lon="5.07692">
        <ele>181.8</ele>
        <time>2022-09-17T14:28:53.000Z</time>
      </trkpt>
      <trkpt lat="45.07745" lon="5.07697">
        <ele>181.9</ele>
        <time>2022-09-17T14:28:54.000Z</time>
      </trkpt>
      <trkpt lat="45.07747" lon="5.07703">
        <ele>182.1</ele>
        <time>2022-09-17T14:28:55.000Z</time>
      </trkpt>
      <trkpt lat="45.07748" lon="5.07709">
        <ele>182.4</ele>
        <time>2022-09-17T14:28:56.000Z</time>
      </trkpt>
      <trkpt lat="45.0775" lon="5.07714">
        <ele>182.7</ele>
        <time>2022-09-17T14:28:57.000Z</time>
      </trkpt>
      <trkpt lat="45.07752" lon="5.07719">
        <ele>182.9</ele>
        <time>2022-09-17T14:28:58.000Z</time>
      </trkpt>
      <trkpt lat="45.07754" lon="5.07724">
        <ele>182.9</ele>
        <time>2022-09-17T14:28:59.000Z</time>
      </trkpt>
      <trkpt lat="45.07757" lon="5.0773">
        <ele>182.5</ele>
        <time>2022-09-17T14:29:00.000Z</time>
      </trkpt>
      <trkpt lat="45.07759" lon="5.07735">
        <ele>182.2</ele>
        <time>2022-09-17T14:29:01.000Z</time>
      </trkpt>
      <trkpt lat="45.07762" lon="5.07741">
        <ele>182</ele>
        <time>2022-09-17T14:29:02.000Z</time>
      </trkpt>
      <trkpt lat="45.07765" lon="5.07746">
        <ele>181.7</ele>
        <time>2022-09-17T14:29:03.000Z</time>
      </trkpt>
      <trkpt lat="45.07768" lon="5.07752">
        <ele>181.6</ele>
        <time>2022-09-17T14:29:04.000Z</time>
      </trkpt>
      <trkpt lat="45.07771" lon="5.07757">
        <ele>181.5</ele>
        <time>2022-09-17T14:29:05.000Z</time>
      </trkpt>
      <trkpt lat="45.07774" lon="5.07762">
        <ele>181.4</ele>
        <time>2022-09-17T14:29:06.000Z</time>
      </trkpt>
      <trkpt lat="45.07777" lon="5.07766">
        <ele>181.4</ele>
        <time>2022-09-17T14:29:07.000Z</time>
      </trkpt>
      <trkpt lat="45.07779" lon="5.0777">
        <ele>181.3</ele>
        <time>2022-09-17T14:29:08.000Z</time>
      </trkpt>
      <trkpt lat="45.07782" lon="5.07775">
        <ele>181.1</ele>
        <time>2022-09-17T14:29:09.000Z</time>
      </trkpt>
      <trkpt lat="45.07784" lon="5.07779">
        <ele>181</ele>
        <time>2022-09-17T14:29:10.000Z</time>
      </trkpt>
      <trkpt lat="45.07787" lon="5.07783">
        <ele>180.9</ele>
        <time>2022-09-17T14:29:11.000Z</time>
      </trkpt>
      <trkpt lat="45.0779" lon="5.07787">
        <ele>180.8</ele>
        <time>2022-09-17T14:29:12.000Z</time>
      </trkpt>
      <trkpt lat="45.07793" lon="5.07791">
        <ele>180.8</ele>
        <time>2022-09-17T14:29:13.000Z</time>
      </trkpt>
      <trkpt lat="45.07795" lon="5.07796">
        <ele>180.8</ele>
        <time>2022-09-17T14:29:14.000Z</time>
      </trkpt>
      <trkpt lat="45.07798" lon="5.07801">
        <ele>180.8</ele>
        <time>2022-09-17T14:29:15.000Z</time>
      </trkpt>
      <trkpt lat="45.07801" lon="5.07805">
        <ele>180.8</ele>
        <time>2022-09-17T14:29:16.000Z</time>
      </trkpt>
      <trkpt lat="45.07805" lon="5.07809">
        <ele>180.8</ele>
        <time>2022-09-17T14:29:17.000Z</time>
      </trkpt>
      <trkpt lat="45.07808" lon="5.07814">
        <ele>180.7</ele>
        <time>2022-09-17T14:29:18.000Z</time>
      </trkpt>
      <trkpt lat="45.07811" lon="5.07819">
        <ele>180.6</ele>
        <time>2022-09-17T14:29:19.000Z</time>
      </trkpt>
      <trkpt lat="45.07814" lon="5.07824">
        <ele>180.5</ele>
        <time>2022-09-17T14:29:20.000Z</time>
      </trkpt>
      <trkpt lat="45.07817" lon="5.07829">
        <ele>180.5</ele>
        <time>2022-09-17T14:29:21.000Z</time>
      </trkpt>
      <trkpt lat="45.0782" lon="5.07834">
        <ele>180.5</ele>
        <time>2022-09-17T14:29:22.000Z</time>
      </trkpt>
      <trkpt lat="45.07824" lon="5.07838">
        <ele>180.6</ele>
        <time>2022-09-17T14:29:23.000Z</time>
      </trkpt>
      <trkpt lat="45.07828" lon="5.07843">
        <ele>180.7</ele>
        <time>2022-09-17T14:29:24.000Z</time>
      </trkpt>
      <trkpt lat="45.07832" lon="5.07849">
        <ele>180.9</ele>
        <time>2022-09-17T14:29:25.000Z</time>
      </trkpt>
      <trkpt lat="45.07836" lon="5.07854">
        <ele>181.1</ele>
        <time>2022-09-17T14:29:26.000Z</time>
      </trkpt>
      <trkpt lat="45.07839" lon="5.07859">
        <ele>181.2</ele>
        <time>2022-09-17T14:29:27.000Z</time>
      </trkpt>
      <trkpt lat="45.07842" lon="5.07864">
        <ele>181.3</ele>
        <time>2022-09-17T14:29:28.000Z</time>
      </trkpt>
      <trkpt lat="45.07845" lon="5.07869">
        <ele>181.3</ele>
        <time>2022-09-17T14:29:29.000Z</time>
      </trkpt>
      <trkpt lat="45.07847" lon="5.07873">
        <ele>181.3</ele>
        <time>2022-09-17T14:29:30.000Z</time>
      </trkpt>
      <trkpt lat="45.0785" lon="5.07878">
        <ele>181.4</ele>
        <time>2022-09-17T14:29:31.000Z</time>
      </trkpt>
      <trkpt lat="45.07853" lon="5.07882">
        <ele>181.5</ele>
        <time>2022-09-17T14:29:32.000Z</time>
      </trkpt>
      <trkpt lat="45.07856" lon="5.07886">
        <ele>181.6</ele>
        <time>2022-09-17T14:29:33.000Z</time>
      </trkpt>
      <trkpt lat="45.07858" lon="5.07891">
        <ele>181.7</ele>
        <time>2022-09-17T14:29:34.000Z</time>
      </trkpt>
      <trkpt lat="45.07861" lon="5.07896">
        <ele>181.7</ele>
        <time>2022-09-17T14:29:35.000Z</time>
      </trkpt>
      <trkpt lat="45.07864" lon="5.07901">
        <ele>181.7</ele>
        <time>2022-09-17T14:29:36.000Z</time>
      </trkpt>
      <trkpt lat="45.07867" lon="5.07905">
        <ele>181.8</ele>
        <time>2022-09-17T14:29:37.000Z</time>
      </trkpt>
      <trkpt lat="45.0787" lon="5.07909">
        <ele>181.8</ele>
        <time>2022-09-17T14:29:38.000Z</time>
      </trkpt>
      <trkpt lat="45.07873" lon="5.07913">
        <ele>181.9</ele>
        <time>2022-09-17T14:29:39.000Z</time>
      </trkpt>
      <trkpt lat="45.07875" lon="5.07917">
        <ele>182</ele>
        <time>2022-09-17T14:29:40.000Z</time>
      </trkpt>
      <trkpt lat="45.07878" lon="5.07922">
        <ele>182</ele>
        <time>2022-09-17T14:29:41.000Z</time>
      </trkpt>
      <trkpt lat="45.07881" lon="5.07926">
        <ele>182.1</ele>
        <time>2022-09-17T14:29:42.000Z</time>
      </trkpt>
      <trkpt lat="45.07884" lon="5.0793">
        <ele>182.1</ele>
        <time>2022-09-17T14:29:43.000Z</time>
      </trkpt>
      <trkpt lat="45.07887" lon="5.07934">
        <ele>182.2</ele>
        <time>2022-09-17T14:29:44.000Z</time>
      </trkpt>
      <trkpt lat="45.0789" lon="5.07939">
        <ele>182.2</ele>
        <time>2022-09-17T14:29:45.000Z</time>
      </trkpt>
      <trkpt lat="45.07893" lon="5.07943">
        <ele>182.2</ele>
        <time>2022-09-17T14:29:46.000Z</time>
      </trkpt>
      <trkpt lat="45.07895" lon="5.07947">
        <ele>182.1</ele>
        <time>2022-09-17T14:29:47.000Z</time>
      </trkpt>
      <trkpt lat="45.07898" lon="5.07952">
        <ele>182.1</ele>
        <time>2022-09-17T14:29:48.000Z</time>
      </trkpt>
      <trkpt lat="45.079" lon="5.07956">
        <ele>182.1</ele>
        <time>2022-09-17T14:29:49.000Z</time>
      </trkpt>
      <trkpt lat="45.07902" lon="5.0796">
        <ele>182.2</ele>
        <time>2022-09-17T14:29:50.000Z</time>
      </trkpt>
      <trkpt lat="45.07905" lon="5.07964">
        <ele>182.3</ele>
        <time>2022-09-17T14:29:51.000Z</time>
      </trkpt>
      <trkpt lat="45.07907" lon="5.07968">
        <ele>182.4</ele>
        <time>2022-09-17T14:29:52.000Z</time>
      </trkpt>
      <trkpt lat="45.0791" lon="5.07971">
        <ele>182.5</ele>
        <time>2022-09-17T14:29:53.000Z</time>
      </trkpt>
      <trkpt lat="45.07912" lon="5.07975">
        <ele>182.5</ele>
        <time>2022-09-17T14:29:54.000Z</time>
      </trkpt>
      <trkpt lat="45.07915" lon="5.07978">
        <ele>182.4</ele>
        <time>2022-09-17T14:29:55.000Z</time>
      </trkpt>
      <trkpt lat="45.07917" lon="5.07982">
        <ele>182.3</ele>
        <time>2022-09-17T14:29:56.000Z</time>
      </trkpt>
      <trkpt lat="45.0792" lon="5.07986">
        <ele>182.1</ele>
        <time>2022-09-17T14:29:57.000Z</time>
      </trkpt>
      <trkpt lat="45.07922" lon="5.07989">
        <ele>182</ele>
        <time>2022-09-17T14:29:58.000Z</time>
      </trkpt>
      <trkpt lat="45.07925" lon="5.07993">
        <ele>182</ele>
        <time>2022-09-17T14:29:59.000Z</time>
      </trkpt>
      <trkpt lat="45.07928" lon="5.07996">
        <ele>182</ele>
        <time>2022-09-17T14:30:00.000Z</time>
      </trkpt>
      <trkpt lat="45.07931" lon="5.07999">
        <ele>182</ele>
        <time>2022-09-17T14:30:01.000Z</time>
      </trkpt>
      <trkpt lat="45.07934" lon="5.08002">
        <ele>182.2</ele>
        <time>2022-09-17T14:30:02.000Z</time>
      </trkpt>
      <trkpt lat="45.07937" lon="5.08005">
        <ele>182.5</ele>
        <time>2022-09-17T14:30:03.000Z</time>
      </trkpt>
      <trkpt lat="45.0794" lon="5.08009">
        <ele>182.7</ele>
        <time>2022-09-17T14:30:04.000Z</time>
      </trkpt>
      <trkpt lat="45.07943" lon="5.08013">
        <ele>182.9</ele>
        <time>2022-09-17T14:30:05.000Z</time>
      </trkpt>
      <trkpt lat="45.07945" lon="5.08016">
        <ele>183</ele>
        <time>2022-09-17T14:30:06.000Z</time>
      </trkpt>
      <trkpt lat="45.07948" lon="5.0802">
        <ele>183.1</ele>
        <time>2022-09-17T14:30:07.000Z</time>
      </trkpt>
      <trkpt lat="45.07951" lon="5.08024">
        <ele>183.2</ele>
        <time>2022-09-17T14:30:08.000Z</time>
      </trkpt>
      <trkpt lat="45.07953" lon="5.08028">
        <ele>183.3</ele>
        <time>2022-09-17T14:30:09.000Z</time>
      </trkpt>
      <trkpt lat="45.07956" lon="5.08032">
        <ele>183.3</ele>
        <time>2022-09-17T14:30:10.000Z</time>
      </trkpt>
      <trkpt lat="45.07958" lon="5.08036">
        <ele>183.3</ele>
        <time>2022-09-17T14:30:11.000Z</time>
      </trkpt>
      <trkpt lat="45.0796" lon="5.08039">
        <ele>183.4</ele>
        <time>2022-09-17T14:30:12.000Z</time>
      </trkpt>
      <trkpt lat="45.07963" lon="5.08043">
        <ele>183.5</ele>
        <time>2022-09-17T14:30:13.000Z</time>
      </trkpt>
      <trkpt lat="45.07966" lon="5.08047">
        <ele>183.6</ele>
        <time>2022-09-17T14:30:14.000Z</time>
      </trkpt>
      <trkpt lat="45.07969" lon="5.08051">
        <ele>183.8</ele>
        <time>2022-09-17T14:30:15.000Z</time>
      </trkpt>
      <trkpt lat="45.07971" lon="5.08055">
        <ele>183.9</ele>
        <time>2022-09-17T14:30:16.000Z</time>
      </trkpt>
      <trkpt lat="45.07974" lon="5.08059">
        <ele>183.9</ele>
        <time>2022-09-17T14:30:17.000Z</time>
      </trkpt>
      <trkpt lat="45.07977" lon="5.08062">
        <ele>183.8</ele>
        <time>2022-09-17T14:30:18.000Z</time>
      </trkpt>
      <trkpt lat="45.0798" lon="5.08066">
        <ele>183.7</ele>
        <time>2022-09-17T14:30:19.000Z</time>
      </trkpt>
      <trkpt lat="45.07983" lon="5.08069">
        <ele>183.8</ele>
        <time>2022-09-17T14:30:20.000Z</time>
      </trkpt>
      <trkpt lat="45.07985" lon="5.08072">
        <ele>183.8</ele>
        <time>2022-09-17T14:30:21.000Z</time>
      </trkpt>
      <trkpt lat="45.07988" lon="5.08076">
        <ele>183.9</ele>
        <time>2022-09-17T14:30:22.000Z</time>
      </trkpt>
      <trkpt lat="45.07991" lon="5.08079">
        <ele>184.1</ele>
        <time>2022-09-17T14:30:23.000Z</time>
      </trkpt>
      <trkpt lat="45.07994" lon="5.08083">
        <ele>184.4</ele>
        <time>2022-09-17T14:30:24.000Z</time>
      </trkpt>
      <trkpt lat="45.07997" lon="5.08086">
        <ele>184.5</ele>
        <time>2022-09-17T14:30:25.000Z</time>
      </trkpt>
      <trkpt lat="45.08001" lon="5.0809">
        <ele>184.6</ele>
        <time>2022-09-17T14:30:26.000Z</time>
      </trkpt>
      <trkpt lat="45.08004" lon="5.08093">
        <ele>184.4</ele>
        <time>2022-09-17T14:30:27.000Z</time>
      </trkpt>
      <trkpt lat="45.08007" lon="5.08096">
        <ele>184.3</ele>
        <time>2022-09-17T14:30:28.000Z</time>
      </trkpt>
      <trkpt lat="45.08011" lon="5.081">
        <ele>184.3</ele>
        <time>2022-09-17T14:30:29.000Z</time>
      </trkpt>
      <trkpt lat="45.08014" lon="5.08103">
        <ele>184.3</ele>
        <time>2022-09-17T14:30:30.000Z</time>
      </trkpt>
      <trkpt lat="45.08017" lon="5.08107">
        <ele>184.4</ele>
        <time>2022-09-17T14:30:31.000Z</time>
      </trkpt>
      <trkpt lat="45.0802" lon="5.0811">
        <ele>184.5</ele>
        <time>2022-09-17T14:30:32.000Z</time>
      </trkpt>
      <trkpt lat="45.08024" lon="5.08114">
        <ele>184.6</ele>
        <time>2022-09-17T14:30:33.000Z</time>
      </trkpt>
      <trkpt lat="45.08027" lon="5.08117">
        <ele>184.8</ele>
        <time>2022-09-17T14:30:34.000Z</time>
      </trkpt>
      <trkpt lat="45.08031" lon="5.08121">
        <ele>184.8</ele>
        <time>2022-09-17T14:30:35.000Z</time>
      </trkpt>
      <trkpt lat="45.08034" lon="5.08124">
        <ele>184.9</ele>
        <time>2022-09-17T14:30:36.000Z</time>
      </trkpt>
      <trkpt lat="45.08038" lon="5.08128">
        <ele>185</ele>
        <time>2022-09-17T14:30:37.000Z</time>
      </trkpt>
      <trkpt lat="45.08041" lon="5.08132">
        <ele>185.1</ele>
        <time>2022-09-17T14:30:38.000Z</time>
      </trkpt>
      <trkpt lat="45.08045" lon="5.08136">
        <ele>185.3</ele>
        <time>2022-09-17T14:30:39.000Z</time>
      </trkpt>
      <trkpt lat="45.08049" lon="5.08139">
        <ele>185.5</ele>
        <time>2022-09-17T14:30:40.000Z</time>
      </trkpt>
      <trkpt lat="45.08052" lon="5.08142">
        <ele>185.5</ele>
        <time>2022-09-17T14:30:41.000Z</time>
      </trkpt>
      <trkpt lat="45.08056" lon="5.08146">
        <ele>185.5</ele>
        <time>2022-09-17T14:30:42.000Z</time>
      </trkpt>
      <trkpt lat="45.08059" lon="5.08149">
        <ele>185.4</ele>
        <time>2022-09-17T14:30:43.000Z</time>
      </trkpt>
      <trkpt lat="45.08062" lon="5.08153">
        <ele>185.4</ele>
        <time>2022-09-17T14:30:44.000Z</time>
      </trkpt>
      <trkpt lat="45.08065" lon="5.08157">
        <ele>185.5</ele>
        <time>2022-09-17T14:30:45.000Z</time>
      </trkpt>
      <trkpt lat="45.08068" lon="5.08161">
        <ele>185.5</ele>
        <time>2022-09-17T14:30:46.000Z</time>
      </trkpt>
      <trkpt lat="45.0807" lon="5.08164">
        <ele>185.7</ele>
        <time>2022-09-17T14:30:47.000Z</time>
      </trkpt>
      <trkpt lat="45.08074" lon="5.08169">
        <ele>185.8</ele>
        <time>2022-09-17T14:30:48.000Z</time>
      </trkpt>
      <trkpt lat="45.08076" lon="5.08173">
        <ele>185.8</ele>
        <time>2022-09-17T14:30:49.000Z</time>
      </trkpt>
      <trkpt lat="45.08079" lon="5.08178">
        <ele>185.8</ele>
        <time>2022-09-17T14:30:50.000Z</time>
      </trkpt>
      <trkpt lat="45.08082" lon="5.08183">
        <ele>185.7</ele>
        <time>2022-09-17T14:30:51.000Z</time>
      </trkpt>
      <trkpt lat="45.08085" lon="5.08188">
        <ele>185.5</ele>
        <time>2022-09-17T14:30:52.000Z</time>
      </trkpt>
      <trkpt lat="45.08088" lon="5.08192">
        <ele>185.3</ele>
        <time>2022-09-17T14:30:53.000Z</time>
      </trkpt>
      <trkpt lat="45.08091" lon="5.08197">
        <ele>185.2</ele>
        <time>2022-09-17T14:30:54.000Z</time>
      </trkpt>
      <trkpt lat="45.08094" lon="5.08202">
        <ele>185.2</ele>
        <time>2022-09-17T14:30:55.000Z</time>
      </trkpt>
      <trkpt lat="45.08097" lon="5.08206">
        <ele>185.3</ele>
        <time>2022-09-17T14:30:56.000Z</time>
      </trkpt>
      <trkpt lat="45.08099" lon="5.08211">
        <ele>185.3</ele>
        <time>2022-09-17T14:30:57.000Z</time>
      </trkpt>
      <trkpt lat="45.08102" lon="5.08216">
        <ele>185.4</ele>
        <time>2022-09-17T14:30:58.000Z</time>
      </trkpt>
      <trkpt lat="45.08105" lon="5.0822">
        <ele>185.6</ele>
        <time>2022-09-17T14:30:59.000Z</time>
      </trkpt>
      <trkpt lat="45.08108" lon="5.08224">
        <ele>185.7</ele>
        <time>2022-09-17T14:31:00.000Z</time>
      </trkpt>
      <trkpt lat="45.0811" lon="5.08228">
        <ele>185.7</ele>
        <time>2022-09-17T14:31:01.000Z</time>
      </trkpt>
      <trkpt lat="45.08112" lon="5.08233">
        <ele>185.6</ele>
        <time>2022-09-17T14:31:02.000Z</time>
      </trkpt>
      <trkpt lat="45.08115" lon="5.08238">
        <ele>185.5</ele>
        <time>2022-09-17T14:31:03.000Z</time>
      </trkpt>
      <trkpt lat="45.08116" lon="5.08244">
        <ele>185.4</ele>
        <time>2022-09-17T14:31:04.000Z</time>
      </trkpt>
      <trkpt lat="45.08118" lon="5.0825">
        <ele>185.2</ele>
        <time>2022-09-17T14:31:05.000Z</time>
      </trkpt>
      <trkpt lat="45.08119" lon="5.08255">
        <ele>185.1</ele>
        <time>2022-09-17T14:31:06.000Z</time>
      </trkpt>
      <trkpt lat="45.08121" lon="5.08262">
        <ele>184.9</ele>
        <time>2022-09-17T14:31:07.000Z</time>
      </trkpt>
      <trkpt lat="45.08123" lon="5.08268">
        <ele>184.8</ele>
        <time>2022-09-17T14:31:08.000Z</time>
      </trkpt>
      <trkpt lat="45.08125" lon="5.08275">
        <ele>184.6</ele>
        <time>2022-09-17T14:31:09.000Z</time>
      </trkpt>
      <trkpt lat="45.08127" lon="5.08281">
        <ele>184.6</ele>
        <time>2022-09-17T14:31:10.000Z</time>
      </trkpt>
      <trkpt lat="45.08129" lon="5.08288">
        <ele>184.7</ele>
        <time>2022-09-17T14:31:11.000Z</time>
      </trkpt>
      <trkpt lat="45.08131" lon="5.08295">
        <ele>184.7</ele>
        <time>2022-09-17T14:31:12.000Z</time>
      </trkpt>
      <trkpt lat="45.08133" lon="5.08302">
        <ele>184.8</ele>
        <time>2022-09-17T14:31:13.000Z</time>
      </trkpt>
      <trkpt lat="45.08135" lon="5.08309">
        <ele>184.8</ele>
        <time>2022-09-17T14:31:14.000Z</time>
      </trkpt>
      <trkpt lat="45.08137" lon="5.08316">
        <ele>184.9</ele>
        <time>2022-09-17T14:31:15.000Z</time>
      </trkpt>
      <trkpt lat="45.08139" lon="5.08324">
        <ele>185</ele>
        <time>2022-09-17T14:31:16.000Z</time>
      </trkpt>
      <trkpt lat="45.08141" lon="5.08331">
        <ele>185</ele>
        <time>2022-09-17T14:31:17.000Z</time>
      </trkpt>
      <trkpt lat="45.08142" lon="5.08338">
        <ele>184.9</ele>
        <time>2022-09-17T14:31:18.000Z</time>
      </trkpt>
      <trkpt lat="45.08143" lon="5.08345">
        <ele>184.6</ele>
        <time>2022-09-17T14:31:19.000Z</time>
      </trkpt>
      <trkpt lat="45.08145" lon="5.08353">
        <ele>184.5</ele>
        <time>2022-09-17T14:31:20.000Z</time>
      </trkpt>
      <trkpt lat="45.08146" lon="5.0836">
        <ele>184.3</ele>
        <time>2022-09-17T14:31:21.000Z</time>
      </trkpt>
      <trkpt lat="45.08147" lon="5.08367">
        <ele>184.3</ele>
        <time>2022-09-17T14:31:22.000Z</time>
      </trkpt>
      <trkpt lat="45.08148" lon="5.08374">
        <ele>184.3</ele>
        <time>2022-09-17T14:31:23.000Z</time>
      </trkpt>
      <trkpt lat="45.08149" lon="5.08382">
        <ele>184.4</ele>
        <time>2022-09-17T14:31:24.000Z</time>
      </trkpt>
      <trkpt lat="45.0815" lon="5.08389">
        <ele>184.4</ele>
        <time>2022-09-17T14:31:25.000Z</time>
      </trkpt>
      <trkpt lat="45.08151" lon="5.08395">
        <ele>184.4</ele>
        <time>2022-09-17T14:31:26.000Z</time>
      </trkpt>
      <trkpt lat="45.08152" lon="5.08401">
        <ele>184.5</ele>
        <time>2022-09-17T14:31:27.000Z</time>
      </trkpt>
      <trkpt lat="45.08153" lon="5.08408">
        <ele>184.5</ele>
        <time>2022-09-17T14:31:28.000Z</time>
      </trkpt>
      <trkpt lat="45.08153" lon="5.08414">
        <ele>184.5</ele>
        <time>2022-09-17T14:31:29.000Z</time>
      </trkpt>
      <trkpt lat="45.08154" lon="5.0842">
        <ele>184.6</ele>
        <time>2022-09-17T14:31:30.000Z</time>
      </trkpt>
      <trkpt lat="45.08154" lon="5.08427">
        <ele>184.6</ele>
        <time>2022-09-17T14:31:31.000Z</time>
      </trkpt>
      <trkpt lat="45.08155" lon="5.08433">
        <ele>184.6</ele>
        <time>2022-09-17T14:31:32.000Z</time>
      </trkpt>
      <trkpt lat="45.08155" lon="5.08439">
        <ele>184.6</ele>
        <time>2022-09-17T14:31:33.000Z</time>
      </trkpt>
      <trkpt lat="45.08155" lon="5.08445">
        <ele>184.6</ele>
        <time>2022-09-17T14:31:34.000Z</time>
      </trkpt>
      <trkpt lat="45.08156" lon="5.08451">
        <ele>184.5</ele>
        <time>2022-09-17T14:31:35.000Z</time>
      </trkpt>
      <trkpt lat="45.08157" lon="5.08457">
        <ele>184.5</ele>
        <time>2022-09-17T14:31:36.000Z</time>
      </trkpt>
      <trkpt lat="45.08158" lon="5.08464">
        <ele>184.5</ele>
        <time>2022-09-17T14:31:37.000Z</time>
      </trkpt>
      <trkpt lat="45.08158" lon="5.08471">
        <ele>184.4</ele>
        <time>2022-09-17T14:31:38.000Z</time>
      </trkpt>
      <trkpt lat="45.0816" lon="5.08479">
        <ele>184.3</ele>
        <time>2022-09-17T14:31:39.000Z</time>
      </trkpt>
      <trkpt lat="45.08161" lon="5.08486">
        <ele>184.2</ele>
        <time>2022-09-17T14:31:40.000Z</time>
      </trkpt>
      <trkpt lat="45.08162" lon="5.08494">
        <ele>184</ele>
        <time>2022-09-17T14:31:41.000Z</time>
      </trkpt>
      <trkpt lat="45.08163" lon="5.08502">
        <ele>183.9</ele>
        <time>2022-09-17T14:31:42.000Z</time>
      </trkpt>
      <trkpt lat="45.08164" lon="5.0851">
        <ele>183.9</ele>
        <time>2022-09-17T14:31:43.000Z</time>
      </trkpt>
      <trkpt lat="45.08166" lon="5.08518">
        <ele>184</ele>
        <time>2022-09-17T14:31:44.000Z</time>
      </trkpt>
      <trkpt lat="45.08167" lon="5.08526">
        <ele>184</ele>
        <time>2022-09-17T14:31:45.000Z</time>
      </trkpt>
      <trkpt lat="45.08168" lon="5.08534">
        <ele>183.8</ele>
        <time>2022-09-17T14:31:46.000Z</time>
      </trkpt>
      <trkpt lat="45.08169" lon="5.08542">
        <ele>183.6</ele>
        <time>2022-09-17T14:31:47.000Z</time>
      </trkpt>
      <trkpt lat="45.0817" lon="5.08549">
        <ele>183.3</ele>
        <time>2022-09-17T14:31:48.000Z</time>
      </trkpt>
      <trkpt lat="45.08171" lon="5.08557">
        <ele>183.1</ele>
        <time>2022-09-17T14:31:49.000Z</time>
      </trkpt>
      <trkpt lat="45.08172" lon="5.08564">
        <ele>183.2</ele>
        <time>2022-09-17T14:31:50.000Z</time>
      </trkpt>
      <trkpt lat="45.08173" lon="5.08571">
        <ele>183.2</ele>
        <time>2022-09-17T14:31:51.000Z</time>
      </trkpt>
      <trkpt lat="45.08175" lon="5.08579">
        <ele>183.3</ele>
        <time>2022-09-17T14:31:52.000Z</time>
      </trkpt>
      <trkpt lat="45.08175" lon="5.08585">
        <ele>183.3</ele>
        <time>2022-09-17T14:31:53.000Z</time>
      </trkpt>
      <trkpt lat="45.08176" lon="5.08592">
        <ele>183.3</ele>
        <time>2022-09-17T14:31:54.000Z</time>
      </trkpt>
      <trkpt lat="45.08177" lon="5.08599">
        <ele>183.4</ele>
        <time>2022-09-17T14:31:55.000Z</time>
      </trkpt>
      <trkpt lat="45.08178" lon="5.08605">
        <ele>183.4</ele>
        <time>2022-09-17T14:31:56.000Z</time>
      </trkpt>
      <trkpt lat="45.08179" lon="5.08612">
        <ele>183.4</ele>
        <time>2022-09-17T14:31:57.000Z</time>
      </trkpt>
      <trkpt lat="45.0818" lon="5.08618">
        <ele>183.5</ele>
        <time>2022-09-17T14:31:58.000Z</time>
      </trkpt>
      <trkpt lat="45.08181" lon="5.08625">
        <ele>183.5</ele>
        <time>2022-09-17T14:31:59.000Z</time>
      </trkpt>
      <trkpt lat="45.08182" lon="5.08632">
        <ele>183.5</ele>
        <time>2022-09-17T14:32:00.000Z</time>
      </trkpt>
      <trkpt lat="45.08183" lon="5.0864">
        <ele>183.6</ele>
        <time>2022-09-17T14:32:01.000Z</time>
      </trkpt>
      <trkpt lat="45.08184" lon="5.08648">
        <ele>183.7</ele>
        <time>2022-09-17T14:32:02.000Z</time>
      </trkpt>
      <trkpt lat="45.08184" lon="5.08655">
        <ele>183.8</ele>
        <time>2022-09-17T14:32:03.000Z</time>
      </trkpt>
      <trkpt lat="45.08185" lon="5.08661">
        <ele>183.9</ele>
        <time>2022-09-17T14:32:04.000Z</time>
      </trkpt>
      <trkpt lat="45.08186" lon="5.08668">
        <ele>184</ele>
        <time>2022-09-17T14:32:05.000Z</time>
      </trkpt>
      <trkpt lat="45.08187" lon="5.08673">
        <ele>184.2</ele>
        <time>2022-09-17T14:32:06.000Z</time>
      </trkpt>
      <trkpt lat="45.08188" lon="5.08678">
        <ele>184.3</ele>
        <time>2022-09-17T14:32:07.000Z</time>
      </trkpt>
      <trkpt lat="45.08188" lon="5.08682">
        <ele>184.4</ele>
        <time>2022-09-17T14:32:08.000Z</time>
      </trkpt>
      <trkpt lat="45.08188" lon="5.08687">
        <ele>184.6</ele>
        <time>2022-09-17T14:32:09.000Z</time>
      </trkpt>
      <trkpt lat="45.08188" lon="5.0869">
        <ele>184.6</ele>
        <time>2022-09-17T14:32:10.000Z</time>
      </trkpt>
      <trkpt lat="45.08188" lon="5.08693">
        <ele>184.7</ele>
        <time>2022-09-17T14:32:11.000Z</time>
      </trkpt>
      <trkpt lat="45.08188" lon="5.08696">
        <ele>184.8</ele>
        <time>2022-09-17T14:32:13.000Z</time>
      </trkpt>
      <trkpt lat="45.08186" lon="5.08702">
        <ele>185.1</ele>
        <time>2022-09-17T14:32:24.000Z</time>
      </trkpt>
      <trkpt lat="45.08186" lon="5.08705">
        <ele>185.2</ele>
        <time>2022-09-17T14:32:25.000Z</time>
      </trkpt>
      <trkpt lat="45.08184" lon="5.08708">
        <ele>185.3</ele>
        <time>2022-09-17T14:32:26.000Z</time>
      </trkpt>
      <trkpt lat="45.08183" lon="5.08711">
        <ele>185.4</ele>
        <time>2022-09-17T14:32:27.000Z</time>
      </trkpt>
      <trkpt lat="45.08181" lon="5.08716">
        <ele>185.7</ele>
        <time>2022-09-17T14:32:28.000Z</time>
      </trkpt>
      <trkpt lat="45.0818" lon="5.08721">
        <ele>185.9</ele>
        <time>2022-09-17T14:32:29.000Z</time>
      </trkpt>
      <trkpt lat="45.08181" lon="5.08728">
        <ele>185.9</ele>
        <time>2022-09-17T14:32:30.000Z</time>
      </trkpt>
      <trkpt lat="45.08184" lon="5.08734">
        <ele>185.8</ele>
        <time>2022-09-17T14:32:31.000Z</time>
      </trkpt>
      <trkpt lat="45.08188" lon="5.08739">
        <ele>185.9</ele>
        <time>2022-09-17T14:32:32.000Z</time>
      </trkpt>
      <trkpt lat="45.08192" lon="5.08742">
        <ele>185.9</ele>
        <time>2022-09-17T14:32:33.000Z</time>
      </trkpt>
      <trkpt lat="45.08197" lon="5.08745">
        <ele>186</ele>
        <time>2022-09-17T14:32:34.000Z</time>
      </trkpt>
      <trkpt lat="45.08201" lon="5.08749">
        <ele>186</ele>
        <time>2022-09-17T14:32:35.000Z</time>
      </trkpt>
      <trkpt lat="45.08205" lon="5.08753">
        <ele>185.9</ele>
        <time>2022-09-17T14:32:36.000Z</time>
      </trkpt>
      <trkpt lat="45.08208" lon="5.08759">
        <ele>185.8</ele>
        <time>2022-09-17T14:32:37.000Z</time>
      </trkpt>
      <trkpt lat="45.0821" lon="5.08766">
        <ele>185.7</ele>
        <time>2022-09-17T14:32:38.000Z</time>
      </trkpt>
      <trkpt lat="45.08211" lon="5.08773">
        <ele>185.7</ele>
        <time>2022-09-17T14:32:39.000Z</time>
      </trkpt>
      <trkpt lat="45.08212" lon="5.0878">
        <ele>185.6</ele>
        <time>2022-09-17T14:32:40.000Z</time>
      </trkpt>
      <trkpt lat="45.08213" lon="5.08788">
        <ele>185.6</ele>
        <time>2022-09-17T14:32:41.000Z</time>
      </trkpt>
      <trkpt lat="45.08214" lon="5.08796">
        <ele>185.5</ele>
        <time>2022-09-17T14:32:42.000Z</time>
      </trkpt>
      <trkpt lat="45.08215" lon="5.08803">
        <ele>185.5</ele>
        <time>2022-09-17T14:32:43.000Z</time>
      </trkpt>
      <trkpt lat="45.08215" lon="5.0881">
        <ele>185.5</ele>
        <time>2022-09-17T14:32:44.000Z</time>
      </trkpt>
      <trkpt lat="45.08215" lon="5.08817">
        <ele>185.6</ele>
        <time>2022-09-17T14:32:45.000Z</time>
      </trkpt>
      <trkpt lat="45.08216" lon="5.08824">
        <ele>185.7</ele>
        <time>2022-09-17T14:32:46.000Z</time>
      </trkpt>
      <trkpt lat="45.08216" lon="5.08831">
        <ele>185.8</ele>
        <time>2022-09-17T14:32:47.000Z</time>
      </trkpt>
      <trkpt lat="45.08217" lon="5.08837">
        <ele>185.7</ele>
        <time>2022-09-17T14:32:48.000Z</time>
      </trkpt>
      <trkpt lat="45.08217" lon="5.08843">
        <ele>185.5</ele>
        <time>2022-09-17T14:32:49.000Z</time>
      </trkpt>
      <trkpt lat="45.08218" lon="5.08849">
        <ele>185.4</ele>
        <time>2022-09-17T14:32:50.000Z</time>
      </trkpt>
      <trkpt lat="45.08218" lon="5.08856">
        <ele>185.2</ele>
        <time>2022-09-17T14:32:51.000Z</time>
      </trkpt>
      <trkpt lat="45.08219" lon="5.08862">
        <ele>185</ele>
        <time>2022-09-17T14:32:52.000Z</time>
      </trkpt>
      <trkpt lat="45.08219" lon="5.0887">
        <ele>185</ele>
        <time>2022-09-17T14:32:53.000Z</time>
      </trkpt>
      <trkpt lat="45.08219" lon="5.08877">
        <ele>184.9</ele>
        <time>2022-09-17T14:32:54.000Z</time>
      </trkpt>
      <trkpt lat="45.0822" lon="5.08884">
        <ele>184.9</ele>
        <time>2022-09-17T14:32:55.000Z</time>
      </trkpt>
      <trkpt lat="45.0822" lon="5.08891">
        <ele>184.9</ele>
        <time>2022-09-17T14:32:56.000Z</time>
      </trkpt>
      <trkpt lat="45.0822" lon="5.08898">
        <ele>184.9</ele>
        <time>2022-09-17T14:32:57.000Z</time>
      </trkpt>
      <trkpt lat="45.0822" lon="5.08905">
        <ele>184.9</ele>
        <time>2022-09-17T14:32:58.000Z</time>
      </trkpt>
      <trkpt lat="45.0822" lon="5.08912">
        <ele>184.9</ele>
        <time>2022-09-17T14:32:59.000Z</time>
      </trkpt>
      <trkpt lat="45.08221" lon="5.08919">
        <ele>184.9</ele>
        <time>2022-09-17T14:33:00.000Z</time>
      </trkpt>
      <trkpt lat="45.08221" lon="5.08925">
        <ele>184.9</ele>
        <time>2022-09-17T14:33:01.000Z</time>
      </trkpt>
      <trkpt lat="45.08221" lon="5.08931">
        <ele>185</ele>
        <time>2022-09-17T14:33:02.000Z</time>
      </trkpt>
      <trkpt lat="45.08221" lon="5.08938">
        <ele>184.9</ele>
        <time>2022-09-17T14:33:03.000Z</time>
      </trkpt>
      <trkpt lat="45.08221" lon="5.08945">
        <ele>184.9</ele>
        <time>2022-09-17T14:33:04.000Z</time>
      </trkpt>
      <trkpt lat="45.08221" lon="5.08952">
        <ele>184.9</ele>
        <time>2022-09-17T14:33:05.000Z</time>
      </trkpt>
      <trkpt lat="45.08221" lon="5.0896">
        <ele>185</ele>
        <time>2022-09-17T14:33:06.000Z</time>
      </trkpt>
      <trkpt lat="45.08221" lon="5.08967">
        <ele>185</ele>
        <time>2022-09-17T14:33:07.000Z</time>
      </trkpt>
      <trkpt lat="45.08221" lon="5.08975">
        <ele>185</ele>
        <time>2022-09-17T14:33:08.000Z</time>
      </trkpt>
      <trkpt lat="45.08221" lon="5.08983">
        <ele>185</ele>
        <time>2022-09-17T14:33:09.000Z</time>
      </trkpt>
      <trkpt lat="45.08222" lon="5.08991">
        <ele>185</ele>
        <time>2022-09-17T14:33:10.000Z</time>
      </trkpt>
      <trkpt lat="45.08221" lon="5.08999">
        <ele>185</ele>
        <time>2022-09-17T14:33:11.000Z</time>
      </trkpt>
      <trkpt lat="45.08222" lon="5.09008">
        <ele>185</ele>
        <time>2022-09-17T14:33:12.000Z</time>
      </trkpt>
      <trkpt lat="45.08223" lon="5.09016">
        <ele>185</ele>
        <time>2022-09-17T14:33:13.000Z</time>
      </trkpt>
      <trkpt lat="45.08224" lon="5.09024">
        <ele>185</ele>
        <time>2022-09-17T14:33:14.000Z</time>
      </trkpt>
      <trkpt lat="45.08225" lon="5.09032">
        <ele>185</ele>
        <time>2022-09-17T14:33:15.000Z</time>
      </trkpt>
      <trkpt lat="45.08225" lon="5.0904">
        <ele>185</ele>
        <time>2022-09-17T14:33:16.000Z</time>
      </trkpt>
      <trkpt lat="45.08226" lon="5.09047">
        <ele>185</ele>
        <time>2022-09-17T14:33:17.000Z</time>
      </trkpt>
      <trkpt lat="45.08227" lon="5.09054">
        <ele>185</ele>
        <time>2022-09-17T14:33:18.000Z</time>
      </trkpt>
      <trkpt lat="45.08227" lon="5.09062">
        <ele>185</ele>
        <time>2022-09-17T14:33:19.000Z</time>
      </trkpt>
      <trkpt lat="45.08228" lon="5.09068">
        <ele>185</ele>
        <time>2022-09-17T14:33:20.000Z</time>
      </trkpt>
      <trkpt lat="45.08229" lon="5.09075">
        <ele>185</ele>
        <time>2022-09-17T14:33:21.000Z</time>
      </trkpt>
      <trkpt lat="45.0823" lon="5.09081">
        <ele>185</ele>
        <time>2022-09-17T14:33:22.000Z</time>
      </trkpt>
      <trkpt lat="45.08231" lon="5.09087">
        <ele>185</ele>
        <time>2022-09-17T14:33:23.000Z</time>
      </trkpt>
      <trkpt lat="45.08231" lon="5.09093">
        <ele>185</ele>
        <time>2022-09-17T14:33:24.000Z</time>
      </trkpt>
      <trkpt lat="45.08232" lon="5.09099">
        <ele>185</ele>
        <time>2022-09-17T14:33:25.000Z</time>
      </trkpt>
      <trkpt lat="45.08232" lon="5.09104">
        <ele>185</ele>
        <time>2022-09-17T14:33:26.000Z</time>
      </trkpt>
      <trkpt lat="45.08232" lon="5.09109">
        <ele>185</ele>
        <time>2022-09-17T14:33:27.000Z</time>
      </trkpt>
      <trkpt lat="45.08233" lon="5.09115">
        <ele>185</ele>
        <time>2022-09-17T14:33:28.000Z</time>
      </trkpt>
      <trkpt lat="45.08233" lon="5.0912">
        <ele>185</ele>
        <time>2022-09-17T14:33:29.000Z</time>
      </trkpt>
      <trkpt lat="45.08234" lon="5.09124">
        <ele>185</ele>
        <time>2022-09-17T14:33:30.000Z</time>
      </trkpt>
      <trkpt lat="45.08235" lon="5.0913">
        <ele>185</ele>
        <time>2022-09-17T14:33:31.000Z</time>
      </trkpt>
      <trkpt lat="45.08236" lon="5.09135">
        <ele>185</ele>
        <time>2022-09-17T14:33:32.000Z</time>
      </trkpt>
      <trkpt lat="45.08236" lon="5.0914">
        <ele>185</ele>
        <time>2022-09-17T14:33:33.000Z</time>
      </trkpt>
      <trkpt lat="45.08237" lon="5.09146">
        <ele>185</ele>
        <time>2022-09-17T14:33:34.000Z</time>
      </trkpt>
      <trkpt lat="45.08237" lon="5.09152">
        <ele>185</ele>
        <time>2022-09-17T14:33:35.000Z</time>
      </trkpt>
      <trkpt lat="45.08238" lon="5.09158">
        <ele>185</ele>
        <time>2022-09-17T14:33:36.000Z</time>
      </trkpt>
      <trkpt lat="45.08239" lon="5.09164">
        <ele>185</ele>
        <time>2022-09-17T14:33:37.000Z</time>
      </trkpt>
      <trkpt lat="45.08239" lon="5.0917">
        <ele>185</ele>
        <time>2022-09-17T14:33:38.000Z</time>
      </trkpt>
      <trkpt lat="45.0824" lon="5.09176">
        <ele>185</ele>
        <time>2022-09-17T14:33:39.000Z</time>
      </trkpt>
      <trkpt lat="45.08241" lon="5.09182">
        <ele>185</ele>
        <time>2022-09-17T14:33:40.000Z</time>
      </trkpt>
      <trkpt lat="45.08241" lon="5.09187">
        <ele>185</ele>
        <time>2022-09-17T14:33:41.000Z</time>
      </trkpt>
      <trkpt lat="45.08242" lon="5.09194">
        <ele>185</ele>
        <time>2022-09-17T14:33:42.000Z</time>
      </trkpt>
      <trkpt lat="45.08243" lon="5.092">
        <ele>185.1</ele>
        <time>2022-09-17T14:33:43.000Z</time>
      </trkpt>
      <trkpt lat="45.08244" lon="5.09206">
        <ele>185.3</ele>
        <time>2022-09-17T14:33:44.000Z</time>
      </trkpt>
      <trkpt lat="45.08245" lon="5.09212">
        <ele>185.5</ele>
        <time>2022-09-17T14:33:45.000Z</time>
      </trkpt>
      <trkpt lat="45.08246" lon="5.09218">
        <ele>185.7</ele>
        <time>2022-09-17T14:33:46.000Z</time>
      </trkpt>
      <trkpt lat="45.08248" lon="5.09224">
        <ele>185.9</ele>
        <time>2022-09-17T14:33:47.000Z</time>
      </trkpt>
      <trkpt lat="45.08249" lon="5.0923">
        <ele>186</ele>
        <time>2022-09-17T14:33:48.000Z</time>
      </trkpt>
      <trkpt lat="45.08251" lon="5.09235">
        <ele>186</ele>
        <time>2022-09-17T14:33:49.000Z</time>
      </trkpt>
      <trkpt lat="45.08253" lon="5.09241">
        <ele>185.9</ele>
        <time>2022-09-17T14:33:50.000Z</time>
      </trkpt>
      <trkpt lat="45.08255" lon="5.09248">
        <ele>185.8</ele>
        <time>2022-09-17T14:33:51.000Z</time>
      </trkpt>
      <trkpt lat="45.08257" lon="5.09254">
        <ele>185.7</ele>
        <time>2022-09-17T14:33:52.000Z</time>
      </trkpt>
      <trkpt lat="45.08259" lon="5.0926">
        <ele>185.4</ele>
        <time>2022-09-17T14:33:53.000Z</time>
      </trkpt>
      <trkpt lat="45.08261" lon="5.09266">
        <ele>185.3</ele>
        <time>2022-09-17T14:33:54.000Z</time>
      </trkpt>
      <trkpt lat="45.08262" lon="5.09272">
        <ele>185.1</ele>
        <time>2022-09-17T14:33:55.000Z</time>
      </trkpt>
      <trkpt lat="45.08264" lon="5.09278">
        <ele>185</ele>
        <time>2022-09-17T14:33:56.000Z</time>
      </trkpt>
      <trkpt lat="45.08266" lon="5.09283">
        <ele>185.1</ele>
        <time>2022-09-17T14:33:57.000Z</time>
      </trkpt>
      <trkpt lat="45.08267" lon="5.09288">
        <ele>185.2</ele>
        <time>2022-09-17T14:33:58.000Z</time>
      </trkpt>
      <trkpt lat="45.08269" lon="5.09293">
        <ele>185.4</ele>
        <time>2022-09-17T14:33:59.000Z</time>
      </trkpt>
      <trkpt lat="45.0827" lon="5.09298">
        <ele>185.5</ele>
        <time>2022-09-17T14:34:00.000Z</time>
      </trkpt>
      <trkpt lat="45.08271" lon="5.09302">
        <ele>185.7</ele>
        <time>2022-09-17T14:34:01.000Z</time>
      </trkpt>
      <trkpt lat="45.08273" lon="5.09306">
        <ele>185.8</ele>
        <time>2022-09-17T14:34:02.000Z</time>
      </trkpt>
      <trkpt lat="45.08275" lon="5.0931">
        <ele>185.7</ele>
        <time>2022-09-17T14:34:03.000Z</time>
      </trkpt>
      <trkpt lat="45.08277" lon="5.09315">
        <ele>185.7</ele>
        <time>2022-09-17T14:34:04.000Z</time>
      </trkpt>
      <trkpt lat="45.08279" lon="5.09319">
        <ele>185.5</ele>
        <time>2022-09-17T14:34:05.000Z</time>
      </trkpt>
      <trkpt lat="45.08281" lon="5.09325">
        <ele>185.3</ele>
        <time>2022-09-17T14:34:06.000Z</time>
      </trkpt>
      <trkpt lat="45.08283" lon="5.0933">
        <ele>185.1</ele>
        <time>2022-09-17T14:34:07.000Z</time>
      </trkpt>
      <trkpt lat="45.08286" lon="5.09336">
        <ele>185</ele>
        <time>2022-09-17T14:34:08.000Z</time>
      </trkpt>
      <trkpt lat="45.08289" lon="5.09342">
        <ele>185</ele>
        <time>2022-09-17T14:34:09.000Z</time>
      </trkpt>
      <trkpt lat="45.08292" lon="5.09348">
        <ele>185</ele>
        <time>2022-09-17T14:34:10.000Z</time>
      </trkpt>
      <trkpt lat="45.08295" lon="5.09354">
        <ele>185</ele>
        <time>2022-09-17T14:34:11.000Z</time>
      </trkpt>
      <trkpt lat="45.08298" lon="5.09359">
        <ele>185</ele>
        <time>2022-09-17T14:34:12.000Z</time>
      </trkpt>
      <trkpt lat="45.08301" lon="5.09365">
        <ele>185</ele>
        <time>2022-09-17T14:34:13.000Z</time>
      </trkpt>
      <trkpt lat="45.08304" lon="5.0937">
        <ele>185</ele>
        <time>2022-09-17T14:34:14.000Z</time>
      </trkpt>
      <trkpt lat="45.08308" lon="5.09376">
        <ele>185</ele>
        <time>2022-09-17T14:34:15.000Z</time>
      </trkpt>
      <trkpt lat="45.08312" lon="5.09381">
        <ele>185.2</ele>
        <time>2022-09-17T14:34:16.000Z</time>
      </trkpt>
      <trkpt lat="45.08315" lon="5.09385">
        <ele>185.3</ele>
        <time>2022-09-17T14:34:17.000Z</time>
      </trkpt>
      <trkpt lat="45.08319" lon="5.0939">
        <ele>185.5</ele>
        <time>2022-09-17T14:34:18.000Z</time>
      </trkpt>
      <trkpt lat="45.08322" lon="5.09395">
        <ele>185.6</ele>
        <time>2022-09-17T14:34:19.000Z</time>
      </trkpt>
      <trkpt lat="45.08325" lon="5.09399">
        <ele>185.7</ele>
        <time>2022-09-17T14:34:20.000Z</time>
      </trkpt>
      <trkpt lat="45.08328" lon="5.09403">
        <ele>185.8</ele>
        <time>2022-09-17T14:34:21.000Z</time>
      </trkpt>
      <trkpt lat="45.08332" lon="5.09408">
        <ele>185.9</ele>
        <time>2022-09-17T14:34:22.000Z</time>
      </trkpt>
      <trkpt lat="45.08335" lon="5.09412">
        <ele>186</ele>
        <time>2022-09-17T14:34:23.000Z</time>
      </trkpt>
      <trkpt lat="45.08338" lon="5.09416">
        <ele>186</ele>
        <time>2022-09-17T14:34:24.000Z</time>
      </trkpt>
      <trkpt lat="45.08342" lon="5.09421">
        <ele>185.9</ele>
        <time>2022-09-17T14:34:25.000Z</time>
      </trkpt>
      <trkpt lat="45.08345" lon="5.09425">
        <ele>185.8</ele>
        <time>2022-09-17T14:34:26.000Z</time>
      </trkpt>
      <trkpt lat="45.08349" lon="5.0943">
        <ele>185.8</ele>
        <time>2022-09-17T14:34:27.000Z</time>
      </trkpt>
      <trkpt lat="45.08353" lon="5.09434">
        <ele>185.8</ele>
        <time>2022-09-17T14:34:28.000Z</time>
      </trkpt>
      <trkpt lat="45.08356" lon="5.09439">
        <ele>185.9</ele>
        <time>2022-09-17T14:34:29.000Z</time>
      </trkpt>
      <trkpt lat="45.0836" lon="5.09443">
        <ele>186</ele>
        <time>2022-09-17T14:34:30.000Z</time>
      </trkpt>
      <trkpt lat="45.08363" lon="5.09448">
        <ele>185.9</ele>
        <time>2022-09-17T14:34:31.000Z</time>
      </trkpt>
      <trkpt lat="45.08367" lon="5.09452">
        <ele>185.8</ele>
        <time>2022-09-17T14:34:32.000Z</time>
      </trkpt>
      <trkpt lat="45.08371" lon="5.09457">
        <ele>185.9</ele>
        <time>2022-09-17T14:34:33.000Z</time>
      </trkpt>
      <trkpt lat="45.08374" lon="5.09461">
        <ele>186</ele>
        <time>2022-09-17T14:34:34.000Z</time>
      </trkpt>
      <trkpt lat="45.08378" lon="5.09465">
        <ele>186.1</ele>
        <time>2022-09-17T14:34:35.000Z</time>
      </trkpt>
      <trkpt lat="45.08381" lon="5.09469">
        <ele>186.4</ele>
        <time>2022-09-17T14:34:36.000Z</time>
      </trkpt>
      <trkpt lat="45.08384" lon="5.09473">
        <ele>186.6</ele>
        <time>2022-09-17T14:34:37.000Z</time>
      </trkpt>
      <trkpt lat="45.08388" lon="5.09477">
        <ele>186.7</ele>
        <time>2022-09-17T14:34:38.000Z</time>
      </trkpt>
      <trkpt lat="45.08391" lon="5.09481">
        <ele>186.7</ele>
        <time>2022-09-17T14:34:39.000Z</time>
      </trkpt>
      <trkpt lat="45.08395" lon="5.09485">
        <ele>186.7</ele>
        <time>2022-09-17T14:34:40.000Z</time>
      </trkpt>
      <trkpt lat="45.08398" lon="5.09489">
        <ele>186.8</ele>
        <time>2022-09-17T14:34:41.000Z</time>
      </trkpt>
      <trkpt lat="45.08401" lon="5.09493">
        <ele>186.9</ele>
        <time>2022-09-17T14:34:42.000Z</time>
      </trkpt>
      <trkpt lat="45.08404" lon="5.09497">
        <ele>187.1</ele>
        <time>2022-09-17T14:34:43.000Z</time>
      </trkpt>
      <trkpt lat="45.08407" lon="5.09501">
        <ele>187.3</ele>
        <time>2022-09-17T14:34:44.000Z</time>
      </trkpt>
      <trkpt lat="45.0841" lon="5.09505">
        <ele>187.4</ele>
        <time>2022-09-17T14:34:45.000Z</time>
      </trkpt>
      <trkpt lat="45.08413" lon="5.09509">
        <ele>187.5</ele>
        <time>2022-09-17T14:34:46.000Z</time>
      </trkpt>
      <trkpt lat="45.08417" lon="5.09512">
        <ele>187.5</ele>
        <time>2022-09-17T14:34:47.000Z</time>
      </trkpt>
      <trkpt lat="45.0842" lon="5.09516">
        <ele>187.6</ele>
        <time>2022-09-17T14:34:48.000Z</time>
      </trkpt>
      <trkpt lat="45.08423" lon="5.0952">
        <ele>187.8</ele>
        <time>2022-09-17T14:34:49.000Z</time>
      </trkpt>
      <trkpt lat="45.08426" lon="5.09524">
        <ele>188</ele>
        <time>2022-09-17T14:34:50.000Z</time>
      </trkpt>
      <trkpt lat="45.08429" lon="5.09527">
        <ele>188.3</ele>
        <time>2022-09-17T14:34:51.000Z</time>
      </trkpt>
      <trkpt lat="45.08432" lon="5.09531">
        <ele>188.5</ele>
        <time>2022-09-17T14:34:52.000Z</time>
      </trkpt>
      <trkpt lat="45.08434" lon="5.09534">
        <ele>188.7</ele>
        <time>2022-09-17T14:34:53.000Z</time>
      </trkpt>
      <trkpt lat="45.08437" lon="5.09537">
        <ele>188.8</ele>
        <time>2022-09-17T14:34:54.000Z</time>
      </trkpt>
      <trkpt lat="45.08439" lon="5.0954">
        <ele>189</ele>
        <time>2022-09-17T14:34:55.000Z</time>
      </trkpt>
      <trkpt lat="45.08442" lon="5.09541">
        <ele>189.2</ele>
        <time>2022-09-17T14:34:56.000Z</time>
      </trkpt>
      <trkpt lat="45.08444" lon="5.09543">
        <ele>189.4</ele>
        <time>2022-09-17T14:34:57.000Z</time>
      </trkpt>
      <trkpt lat="45.08446" lon="5.09545">
        <ele>189.5</ele>
        <time>2022-09-17T14:34:58.000Z</time>
      </trkpt>
      <trkpt lat="45.08449" lon="5.09548">
        <ele>189.5</ele>
        <time>2022-09-17T14:34:59.000Z</time>
      </trkpt>
      <trkpt lat="45.08451" lon="5.0955">
        <ele>189.6</ele>
        <time>2022-09-17T14:35:00.000Z</time>
      </trkpt>
      <trkpt lat="45.08453" lon="5.09553">
        <ele>189.7</ele>
        <time>2022-09-17T14:35:01.000Z</time>
      </trkpt>
      <trkpt lat="45.08454" lon="5.09558">
        <ele>189.7</ele>
        <time>2022-09-17T14:35:02.000Z</time>
      </trkpt>
      <trkpt lat="45.08455" lon="5.09563">
        <ele>189.8</ele>
        <time>2022-09-17T14:35:03.000Z</time>
      </trkpt>
      <trkpt lat="45.08456" lon="5.09569">
        <ele>189.9</ele>
        <time>2022-09-17T14:35:04.000Z</time>
      </trkpt>
      <trkpt lat="45.08458" lon="5.09574">
        <ele>190</ele>
        <time>2022-09-17T14:35:05.000Z</time>
      </trkpt>
      <trkpt lat="45.08459" lon="5.0958">
        <ele>190.1</ele>
        <time>2022-09-17T14:35:06.000Z</time>
      </trkpt>
      <trkpt lat="45.08461" lon="5.09586">
        <ele>190.2</ele>
        <time>2022-09-17T14:35:07.000Z</time>
      </trkpt>
      <trkpt lat="45.08464" lon="5.09591">
        <ele>190.3</ele>
        <time>2022-09-17T14:35:08.000Z</time>
      </trkpt>
      <trkpt lat="45.08466" lon="5.09597">
        <ele>190.3</ele>
        <time>2022-09-17T14:35:09.000Z</time>
      </trkpt>
      <trkpt lat="45.08469" lon="5.09602">
        <ele>190.3</ele>
        <time>2022-09-17T14:35:10.000Z</time>
      </trkpt>
      <trkpt lat="45.08472" lon="5.09608">
        <ele>190.1</ele>
        <time>2022-09-17T14:35:11.000Z</time>
      </trkpt>
      <trkpt lat="45.08475" lon="5.09614">
        <ele>190.1</ele>
        <time>2022-09-17T14:35:12.000Z</time>
      </trkpt>
      <trkpt lat="45.08478" lon="5.09619">
        <ele>189.9</ele>
        <time>2022-09-17T14:35:13.000Z</time>
      </trkpt>
      <trkpt lat="45.08481" lon="5.09625">
        <ele>189.9</ele>
        <time>2022-09-17T14:35:14.000Z</time>
      </trkpt>
      <trkpt lat="45.08483" lon="5.09631">
        <ele>189.9</ele>
        <time>2022-09-17T14:35:15.000Z</time>
      </trkpt>
      <trkpt lat="45.08486" lon="5.09637">
        <ele>190</ele>
        <time>2022-09-17T14:35:16.000Z</time>
      </trkpt>
      <trkpt lat="45.08488" lon="5.09643">
        <ele>190.2</ele>
        <time>2022-09-17T14:35:17.000Z</time>
      </trkpt>
      <trkpt lat="45.08491" lon="5.09649">
        <ele>190.5</ele>
        <time>2022-09-17T14:35:18.000Z</time>
      </trkpt>
      <trkpt lat="45.08494" lon="5.09655">
        <ele>190.6</ele>
        <time>2022-09-17T14:35:19.000Z</time>
      </trkpt>
      <trkpt lat="45.08496" lon="5.09661">
        <ele>190.8</ele>
        <time>2022-09-17T14:35:20.000Z</time>
      </trkpt>
      <trkpt lat="45.08499" lon="5.09667">
        <ele>190.9</ele>
        <time>2022-09-17T14:35:21.000Z</time>
      </trkpt>
      <trkpt lat="45.08501" lon="5.09673">
        <ele>190.7</ele>
        <time>2022-09-17T14:35:22.000Z</time>
      </trkpt>
      <trkpt lat="45.08503" lon="5.09679">
        <ele>190.5</ele>
        <time>2022-09-17T14:35:23.000Z</time>
      </trkpt>
      <trkpt lat="45.08506" lon="5.09684">
        <ele>190.4</ele>
        <time>2022-09-17T14:35:24.000Z</time>
      </trkpt>
      <trkpt lat="45.08508" lon="5.0969">
        <ele>190.4</ele>
        <time>2022-09-17T14:35:25.000Z</time>
      </trkpt>
      <trkpt lat="45.0851" lon="5.09696">
        <ele>190.5</ele>
        <time>2022-09-17T14:35:26.000Z</time>
      </trkpt>
      <trkpt lat="45.08512" lon="5.09701">
        <ele>190.7</ele>
        <time>2022-09-17T14:35:27.000Z</time>
      </trkpt>
      <trkpt lat="45.08515" lon="5.09707">
        <ele>190.8</ele>
        <time>2022-09-17T14:35:28.000Z</time>
      </trkpt>
      <trkpt lat="45.08517" lon="5.09713">
        <ele>191</ele>
        <time>2022-09-17T14:35:29.000Z</time>
      </trkpt>
      <trkpt lat="45.08519" lon="5.09719">
        <ele>191.1</ele>
        <time>2022-09-17T14:35:30.000Z</time>
      </trkpt>
      <trkpt lat="45.08521" lon="5.09724">
        <ele>191.3</ele>
        <time>2022-09-17T14:35:31.000Z</time>
      </trkpt>
      <trkpt lat="45.08523" lon="5.09729">
        <ele>191.5</ele>
        <time>2022-09-17T14:35:32.000Z</time>
      </trkpt>
      <trkpt lat="45.08526" lon="5.09735">
        <ele>191.8</ele>
        <time>2022-09-17T14:35:33.000Z</time>
      </trkpt>
      <trkpt lat="45.08528" lon="5.0974">
        <ele>192</ele>
        <time>2022-09-17T14:35:34.000Z</time>
      </trkpt>
      <trkpt lat="45.0853" lon="5.09746">
        <ele>192.1</ele>
        <time>2022-09-17T14:35:35.000Z</time>
      </trkpt>
      <trkpt lat="45.08531" lon="5.09751">
        <ele>192.2</ele>
        <time>2022-09-17T14:35:36.000Z</time>
      </trkpt>
      <trkpt lat="45.08534" lon="5.09757">
        <ele>192.2</ele>
        <time>2022-09-17T14:35:37.000Z</time>
      </trkpt>
      <trkpt lat="45.08536" lon="5.09763">
        <ele>192.2</ele>
        <time>2022-09-17T14:35:38.000Z</time>
      </trkpt>
      <trkpt lat="45.08537" lon="5.09768">
        <ele>192.3</ele>
        <time>2022-09-17T14:35:39.000Z</time>
      </trkpt>
      <trkpt lat="45.08539" lon="5.09774">
        <ele>192.3</ele>
        <time>2022-09-17T14:35:40.000Z</time>
      </trkpt>
      <trkpt lat="45.08541" lon="5.0978">
        <ele>192.4</ele>
        <time>2022-09-17T14:35:41.000Z</time>
      </trkpt>
      <trkpt lat="45.08543" lon="5.09786">
        <ele>192.5</ele>
        <time>2022-09-17T14:35:42.000Z</time>
      </trkpt>
      <trkpt lat="45.08545" lon="5.09791">
        <ele>192.6</ele>
        <time>2022-09-17T14:35:43.000Z</time>
      </trkpt>
      <trkpt lat="45.08548" lon="5.09797">
        <ele>192.6</ele>
        <time>2022-09-17T14:35:44.000Z</time>
      </trkpt>
      <trkpt lat="45.0855" lon="5.09803">
        <ele>192.7</ele>
        <time>2022-09-17T14:35:45.000Z</time>
      </trkpt>
      <trkpt lat="45.08552" lon="5.09808">
        <ele>192.7</ele>
        <time>2022-09-17T14:35:46.000Z</time>
      </trkpt>
      <trkpt lat="45.08554" lon="5.09814">
        <ele>192.6</ele>
        <time>2022-09-17T14:35:47.000Z</time>
      </trkpt>
      <trkpt lat="45.08556" lon="5.0982">
        <ele>192.5</ele>
        <time>2022-09-17T14:35:48.000Z</time>
      </trkpt>
      <trkpt lat="45.08557" lon="5.09826">
        <ele>192.4</ele>
        <time>2022-09-17T14:35:49.000Z</time>
      </trkpt>
      <trkpt lat="45.08558" lon="5.09832">
        <ele>192.2</ele>
        <time>2022-09-17T14:35:50.000Z</time>
      </trkpt>
      <trkpt lat="45.0856" lon="5.09838">
        <ele>192.1</ele>
        <time>2022-09-17T14:35:51.000Z</time>
      </trkpt>
      <trkpt lat="45.08562" lon="5.09845">
        <ele>192</ele>
        <time>2022-09-17T14:35:52.000Z</time>
      </trkpt>
      <trkpt lat="45.08563" lon="5.09851">
        <ele>191.9</ele>
        <time>2022-09-17T14:35:53.000Z</time>
      </trkpt>
      <trkpt lat="45.08566" lon="5.09857">
        <ele>191.9</ele>
        <time>2022-09-17T14:35:54.000Z</time>
      </trkpt>
      <trkpt lat="45.08568" lon="5.09864">
        <ele>191.8</ele>
        <time>2022-09-17T14:35:55.000Z</time>
      </trkpt>
      <trkpt lat="45.08569" lon="5.0987">
        <ele>191.7</ele>
        <time>2022-09-17T14:35:56.000Z</time>
      </trkpt>
      <trkpt lat="45.08571" lon="5.09876">
        <ele>191.6</ele>
        <time>2022-09-17T14:35:57.000Z</time>
      </trkpt>
      <trkpt lat="45.08573" lon="5.09883">
        <ele>191.5</ele>
        <time>2022-09-17T14:35:58.000Z</time>
      </trkpt>
      <trkpt lat="45.08575" lon="5.09889">
        <ele>191.4</ele>
        <time>2022-09-17T14:35:59.000Z</time>
      </trkpt>
      <trkpt lat="45.08576" lon="5.09895">
        <ele>191.4</ele>
        <time>2022-09-17T14:36:00.000Z</time>
      </trkpt>
      <trkpt lat="45.08577" lon="5.09901">
        <ele>191.5</ele>
        <time>2022-09-17T14:36:01.000Z</time>
      </trkpt>
      <trkpt lat="45.08579" lon="5.09906">
        <ele>191.6</ele>
        <time>2022-09-17T14:36:02.000Z</time>
      </trkpt>
      <trkpt lat="45.0858" lon="5.09912">
        <ele>191.7</ele>
        <time>2022-09-17T14:36:03.000Z</time>
      </trkpt>
      <trkpt lat="45.08582" lon="5.09917">
        <ele>191.8</ele>
        <time>2022-09-17T14:36:04.000Z</time>
      </trkpt>
      <trkpt lat="45.08583" lon="5.09923">
        <ele>192</ele>
        <time>2022-09-17T14:36:05.000Z</time>
      </trkpt>
      <trkpt lat="45.08585" lon="5.09929">
        <ele>192</ele>
        <time>2022-09-17T14:36:06.000Z</time>
      </trkpt>
      <trkpt lat="45.08587" lon="5.09934">
        <ele>192</ele>
        <time>2022-09-17T14:36:07.000Z</time>
      </trkpt>
      <trkpt lat="45.08588" lon="5.0994">
        <ele>192</ele>
        <time>2022-09-17T14:36:08.000Z</time>
      </trkpt>
      <trkpt lat="45.0859" lon="5.09947">
        <ele>191.9</ele>
        <time>2022-09-17T14:36:09.000Z</time>
      </trkpt>
      <trkpt lat="45.08592" lon="5.09952">
        <ele>191.8</ele>
        <time>2022-09-17T14:36:10.000Z</time>
      </trkpt>
      <trkpt lat="45.08593" lon="5.09958">
        <ele>191.7</ele>
        <time>2022-09-17T14:36:11.000Z</time>
      </trkpt>
      <trkpt lat="45.08595" lon="5.09964">
        <ele>191.6</ele>
        <time>2022-09-17T14:36:12.000Z</time>
      </trkpt>
      <trkpt lat="45.08596" lon="5.09969">
        <ele>191.5</ele>
        <time>2022-09-17T14:36:13.000Z</time>
      </trkpt>
      <trkpt lat="45.08598" lon="5.09975">
        <ele>191.5</ele>
        <time>2022-09-17T14:36:14.000Z</time>
      </trkpt>
      <trkpt lat="45.086" lon="5.09981">
        <ele>191.5</ele>
        <time>2022-09-17T14:36:15.000Z</time>
      </trkpt>
      <trkpt lat="45.08601" lon="5.09987">
        <ele>191.5</ele>
        <time>2022-09-17T14:36:16.000Z</time>
      </trkpt>
      <trkpt lat="45.08603" lon="5.09993">
        <ele>191.5</ele>
        <time>2022-09-17T14:36:17.000Z</time>
      </trkpt>
      <trkpt lat="45.08605" lon="5.09999">
        <ele>191.6</ele>
        <time>2022-09-17T14:36:18.000Z</time>
      </trkpt>
      <trkpt lat="45.08607" lon="5.10005">
        <ele>191.8</ele>
        <time>2022-09-17T14:36:19.000Z</time>
      </trkpt>
      <trkpt lat="45.08609" lon="5.10011">
        <ele>192.2</ele>
        <time>2022-09-17T14:36:20.000Z</time>
      </trkpt>
      <trkpt lat="45.08611" lon="5.10017">
        <ele>192.6</ele>
        <time>2022-09-17T14:36:21.000Z</time>
      </trkpt>
      <trkpt lat="45.08612" lon="5.10023">
        <ele>192.8</ele>
        <time>2022-09-17T14:36:22.000Z</time>
      </trkpt>
      <trkpt lat="45.08614" lon="5.10029">
        <ele>193</ele>
        <time>2022-09-17T14:36:23.000Z</time>
      </trkpt>
      <trkpt lat="45.08615" lon="5.10035">
        <ele>193</ele>
        <time>2022-09-17T14:36:24.000Z</time>
      </trkpt>
      <trkpt lat="45.08617" lon="5.10041">
        <ele>193.1</ele>
        <time>2022-09-17T14:36:25.000Z</time>
      </trkpt>
      <trkpt lat="45.08618" lon="5.10047">
        <ele>193.2</ele>
        <time>2022-09-17T14:36:26.000Z</time>
      </trkpt>
      <trkpt lat="45.0862" lon="5.10053">
        <ele>193.3</ele>
        <time>2022-09-17T14:36:27.000Z</time>
      </trkpt>
      <trkpt lat="45.08621" lon="5.10059">
        <ele>193.3</ele>
        <time>2022-09-17T14:36:28.000Z</time>
      </trkpt>
      <trkpt lat="45.08623" lon="5.10065">
        <ele>193.2</ele>
        <time>2022-09-17T14:36:29.000Z</time>
      </trkpt>
      <trkpt lat="45.08624" lon="5.10072">
        <ele>193.2</ele>
        <time>2022-09-17T14:36:30.000Z</time>
      </trkpt>
      <trkpt lat="45.08625" lon="5.10078">
        <ele>193.1</ele>
        <time>2022-09-17T14:36:31.000Z</time>
      </trkpt>
      <trkpt lat="45.08627" lon="5.10084">
        <ele>193.1</ele>
        <time>2022-09-17T14:36:32.000Z</time>
      </trkpt>
      <trkpt lat="45.08628" lon="5.1009">
        <ele>193.1</ele>
        <time>2022-09-17T14:36:33.000Z</time>
      </trkpt>
      <trkpt lat="45.0863" lon="5.10097">
        <ele>193.2</ele>
        <time>2022-09-17T14:36:34.000Z</time>
      </trkpt>
      <trkpt lat="45.08631" lon="5.10103">
        <ele>193.3</ele>
        <time>2022-09-17T14:36:35.000Z</time>
      </trkpt>
      <trkpt lat="45.08633" lon="5.10109">
        <ele>193.3</ele>
        <time>2022-09-17T14:36:36.000Z</time>
      </trkpt>
      <trkpt lat="45.08634" lon="5.10115">
        <ele>193.6</ele>
        <time>2022-09-17T14:36:37.000Z</time>
      </trkpt>
      <trkpt lat="45.08635" lon="5.10121">
        <ele>193.9</ele>
        <time>2022-09-17T14:36:38.000Z</time>
      </trkpt>
      <trkpt lat="45.08637" lon="5.10127">
        <ele>194.3</ele>
        <time>2022-09-17T14:36:39.000Z</time>
      </trkpt>
      <trkpt lat="45.08638" lon="5.10133">
        <ele>194.7</ele>
        <time>2022-09-17T14:36:40.000Z</time>
      </trkpt>
      <trkpt lat="45.08639" lon="5.1014">
        <ele>195</ele>
        <time>2022-09-17T14:36:41.000Z</time>
      </trkpt>
      <trkpt lat="45.08641" lon="5.10146">
        <ele>195</ele>
        <time>2022-09-17T14:36:42.000Z</time>
      </trkpt>
      <trkpt lat="45.08642" lon="5.10153">
        <ele>195</ele>
        <time>2022-09-17T14:36:43.000Z</time>
      </trkpt>
      <trkpt lat="45.08644" lon="5.10159">
        <ele>195</ele>
        <time>2022-09-17T14:36:44.000Z</time>
      </trkpt>
      <trkpt lat="45.08645" lon="5.10166">
        <ele>195</ele>
        <time>2022-09-17T14:36:45.000Z</time>
      </trkpt>
      <trkpt lat="45.08646" lon="5.10172">
        <ele>194.9</ele>
        <time>2022-09-17T14:36:46.000Z</time>
      </trkpt>
      <trkpt lat="45.08648" lon="5.10179">
        <ele>194.8</ele>
        <time>2022-09-17T14:36:47.000Z</time>
      </trkpt>
      <trkpt lat="45.08649" lon="5.10186">
        <ele>194.8</ele>
        <time>2022-09-17T14:36:48.000Z</time>
      </trkpt>
      <trkpt lat="45.08651" lon="5.10193">
        <ele>194.8</ele>
        <time>2022-09-17T14:36:49.000Z</time>
      </trkpt>
      <trkpt lat="45.08652" lon="5.10199">
        <ele>194.7</ele>
        <time>2022-09-17T14:36:50.000Z</time>
      </trkpt>
      <trkpt lat="45.08653" lon="5.10206">
        <ele>194.4</ele>
        <time>2022-09-17T14:36:51.000Z</time>
      </trkpt>
      <trkpt lat="45.08655" lon="5.10212">
        <ele>194.1</ele>
        <time>2022-09-17T14:36:52.000Z</time>
      </trkpt>
      <trkpt lat="45.08656" lon="5.10219">
        <ele>193.8</ele>
        <time>2022-09-17T14:36:53.000Z</time>
      </trkpt>
      <trkpt lat="45.08657" lon="5.10226">
        <ele>193.6</ele>
        <time>2022-09-17T14:36:54.000Z</time>
      </trkpt>
      <trkpt lat="45.08658" lon="5.10233">
        <ele>193.5</ele>
        <time>2022-09-17T14:36:55.000Z</time>
      </trkpt>
      <trkpt lat="45.08659" lon="5.10239">
        <ele>193.4</ele>
        <time>2022-09-17T14:36:56.000Z</time>
      </trkpt>
      <trkpt lat="45.08661" lon="5.10245">
        <ele>193.4</ele>
        <time>2022-09-17T14:36:57.000Z</time>
      </trkpt>
      <trkpt lat="45.08662" lon="5.10251">
        <ele>193.5</ele>
        <time>2022-09-17T14:36:58.000Z</time>
      </trkpt>
      <trkpt lat="45.08664" lon="5.10257">
        <ele>193.7</ele>
        <time>2022-09-17T14:36:59.000Z</time>
      </trkpt>
      <trkpt lat="45.08666" lon="5.10264">
        <ele>193.9</ele>
        <time>2022-09-17T14:37:00.000Z</time>
      </trkpt>
      <trkpt lat="45.08667" lon="5.10271">
        <ele>194</ele>
        <time>2022-09-17T14:37:01.000Z</time>
      </trkpt>
      <trkpt lat="45.08669" lon="5.10278">
        <ele>193.8</ele>
        <time>2022-09-17T14:37:02.000Z</time>
      </trkpt>
      <trkpt lat="45.08671" lon="5.10285">
        <ele>193.4</ele>
        <time>2022-09-17T14:37:03.000Z</time>
      </trkpt>
      <trkpt lat="45.08674" lon="5.10293">
        <ele>193.1</ele>
        <time>2022-09-17T14:37:04.000Z</time>
      </trkpt>
      <trkpt lat="45.08676" lon="5.10301">
        <ele>192.8</ele>
        <time>2022-09-17T14:37:05.000Z</time>
      </trkpt>
      <trkpt lat="45.08678" lon="5.10309">
        <ele>192.4</ele>
        <time>2022-09-17T14:37:06.000Z</time>
      </trkpt>
      <trkpt lat="45.08681" lon="5.10317">
        <ele>191.9</ele>
        <time>2022-09-17T14:37:07.000Z</time>
      </trkpt>
      <trkpt lat="45.08683" lon="5.10325">
        <ele>191.5</ele>
        <time>2022-09-17T14:37:08.000Z</time>
      </trkpt>
      <trkpt lat="45.08685" lon="5.10332">
        <ele>191</ele>
        <time>2022-09-17T14:37:09.000Z</time>
      </trkpt>
      <trkpt lat="45.08687" lon="5.1034">
        <ele>191.1</ele>
        <time>2022-09-17T14:37:10.000Z</time>
      </trkpt>
      <trkpt lat="45.0869" lon="5.10347">
        <ele>191.3</ele>
        <time>2022-09-17T14:37:11.000Z</time>
      </trkpt>
      <trkpt lat="45.08692" lon="5.10354">
        <ele>191.6</ele>
        <time>2022-09-17T14:37:12.000Z</time>
      </trkpt>
      <trkpt lat="45.08694" lon="5.10361">
        <ele>191.9</ele>
        <time>2022-09-17T14:37:13.000Z</time>
      </trkpt>
      <trkpt lat="45.08695" lon="5.10368">
        <ele>192.2</ele>
        <time>2022-09-17T14:37:14.000Z</time>
      </trkpt>
      <trkpt lat="45.08697" lon="5.10375">
        <ele>192.3</ele>
        <time>2022-09-17T14:37:15.000Z</time>
      </trkpt>
      <trkpt lat="45.08699" lon="5.10381">
        <ele>192.4</ele>
        <time>2022-09-17T14:37:16.000Z</time>
      </trkpt>
      <trkpt lat="45.08701" lon="5.10388">
        <ele>192.5</ele>
        <time>2022-09-17T14:37:17.000Z</time>
      </trkpt>
      <trkpt lat="45.08703" lon="5.10395">
        <ele>192.4</ele>
        <time>2022-09-17T14:37:18.000Z</time>
      </trkpt>
      <trkpt lat="45.08705" lon="5.10402">
        <ele>192.3</ele>
        <time>2022-09-17T14:37:19.000Z</time>
      </trkpt>
      <trkpt lat="45.08707" lon="5.10408">
        <ele>192.3</ele>
        <time>2022-09-17T14:37:20.000Z</time>
      </trkpt>
      <trkpt lat="45.08709" lon="5.10415">
        <ele>192.5</ele>
        <time>2022-09-17T14:37:21.000Z</time>
      </trkpt>
      <trkpt lat="45.08711" lon="5.10422">
        <ele>192.3</ele>
        <time>2022-09-17T14:37:22.000Z</time>
      </trkpt>
      <trkpt lat="45.08713" lon="5.10429">
        <ele>192.1</ele>
        <time>2022-09-17T14:37:23.000Z</time>
      </trkpt>
      <trkpt lat="45.08715" lon="5.10437">
        <ele>191.8</ele>
        <time>2022-09-17T14:37:24.000Z</time>
      </trkpt>
      <trkpt lat="45.08717" lon="5.10444">
        <ele>191.7</ele>
        <time>2022-09-17T14:37:25.000Z</time>
      </trkpt>
      <trkpt lat="45.08719" lon="5.10452">
        <ele>192</ele>
        <time>2022-09-17T14:37:26.000Z</time>
      </trkpt>
      <trkpt lat="45.08721" lon="5.10459">
        <ele>192.4</ele>
        <time>2022-09-17T14:37:27.000Z</time>
      </trkpt>
      <trkpt lat="45.08723" lon="5.10467">
        <ele>192.7</ele>
        <time>2022-09-17T14:37:28.000Z</time>
      </trkpt>
      <trkpt lat="45.08725" lon="5.10474">
        <ele>192.7</ele>
        <time>2022-09-17T14:37:29.000Z</time>
      </trkpt>
      <trkpt lat="45.08727" lon="5.10481">
        <ele>192.4</ele>
        <time>2022-09-17T14:37:30.000Z</time>
      </trkpt>
      <trkpt lat="45.08729" lon="5.10488">
        <ele>192.1</ele>
        <time>2022-09-17T14:37:31.000Z</time>
      </trkpt>
      <trkpt lat="45.08731" lon="5.10496">
        <ele>191.8</ele>
        <time>2022-09-17T14:37:32.000Z</time>
      </trkpt>
      <trkpt lat="45.08732" lon="5.10503">
        <ele>191.6</ele>
        <time>2022-09-17T14:37:33.000Z</time>
      </trkpt>
      <trkpt lat="45.08734" lon="5.10509">
        <ele>191.4</ele>
        <time>2022-09-17T14:37:34.000Z</time>
      </trkpt>
      <trkpt lat="45.08736" lon="5.10516">
        <ele>191.2</ele>
        <time>2022-09-17T14:37:35.000Z</time>
      </trkpt>
      <trkpt lat="45.08738" lon="5.10523">
        <ele>191.1</ele>
        <time>2022-09-17T14:37:36.000Z</time>
      </trkpt>
      <trkpt lat="45.0874" lon="5.1053">
        <ele>191</ele>
        <time>2022-09-17T14:37:37.000Z</time>
      </trkpt>
      <trkpt lat="45.08742" lon="5.10538">
        <ele>190.9</ele>
        <time>2022-09-17T14:37:38.000Z</time>
      </trkpt>
      <trkpt lat="45.08744" lon="5.10545">
        <ele>190.9</ele>
        <time>2022-09-17T14:37:39.000Z</time>
      </trkpt>
      <trkpt lat="45.08746" lon="5.10553">
        <ele>190.9</ele>
        <time>2022-09-17T14:37:40.000Z</time>
      </trkpt>
      <trkpt lat="45.08748" lon="5.10561">
        <ele>191.1</ele>
        <time>2022-09-17T14:37:41.000Z</time>
      </trkpt>
      <trkpt lat="45.0875" lon="5.10569">
        <ele>191.5</ele>
        <time>2022-09-17T14:37:42.000Z</time>
      </trkpt>
      <trkpt lat="45.08752" lon="5.10576">
        <ele>191.7</ele>
        <time>2022-09-17T14:37:43.000Z</time>
      </trkpt>
      <trkpt lat="45.08754" lon="5.10584">
        <ele>191.9</ele>
        <time>2022-09-17T14:37:44.000Z</time>
      </trkpt>
      <trkpt lat="45.08756" lon="5.10591">
        <ele>191.6</ele>
        <time>2022-09-17T14:37:45.000Z</time>
      </trkpt>
      <trkpt lat="45.08758" lon="5.10598">
        <ele>191.4</ele>
        <time>2022-09-17T14:37:46.000Z</time>
      </trkpt>
      <trkpt lat="45.08759" lon="5.10604">
        <ele>191.2</ele>
        <time>2022-09-17T14:37:47.000Z</time>
      </trkpt>
      <trkpt lat="45.08761" lon="5.10611">
        <ele>191</ele>
        <time>2022-09-17T14:37:48.000Z</time>
      </trkpt>
      <trkpt lat="45.08763" lon="5.10617">
        <ele>191.1</ele>
        <time>2022-09-17T14:37:49.000Z</time>
      </trkpt>
      <trkpt lat="45.08764" lon="5.10624">
        <ele>191.2</ele>
        <time>2022-09-17T14:37:50.000Z</time>
      </trkpt>
      <trkpt lat="45.08766" lon="5.1063">
        <ele>191.4</ele>
        <time>2022-09-17T14:37:51.000Z</time>
      </trkpt>
      <trkpt lat="45.08768" lon="5.10637">
        <ele>191.6</ele>
        <time>2022-09-17T14:37:52.000Z</time>
      </trkpt>
      <trkpt lat="45.08769" lon="5.10644">
        <ele>191.7</ele>
        <time>2022-09-17T14:37:53.000Z</time>
      </trkpt>
      <trkpt lat="45.08771" lon="5.10652">
        <ele>191.8</ele>
        <time>2022-09-17T14:37:54.000Z</time>
      </trkpt>
      <trkpt lat="45.08773" lon="5.10659">
        <ele>191.8</ele>
        <time>2022-09-17T14:37:55.000Z</time>
      </trkpt>
      <trkpt lat="45.08774" lon="5.10666">
        <ele>191.9</ele>
        <time>2022-09-17T14:37:56.000Z</time>
      </trkpt>
      <trkpt lat="45.08776" lon="5.10674">
        <ele>191.9</ele>
        <time>2022-09-17T14:37:57.000Z</time>
      </trkpt>
      <trkpt lat="45.08777" lon="5.10681">
        <ele>192</ele>
        <time>2022-09-17T14:37:58.000Z</time>
      </trkpt>
      <trkpt lat="45.08778" lon="5.10688">
        <ele>192</ele>
        <time>2022-09-17T14:37:59.000Z</time>
      </trkpt>
      <trkpt lat="45.08779" lon="5.10696">
        <ele>192</ele>
        <time>2022-09-17T14:38:00.000Z</time>
      </trkpt>
      <trkpt lat="45.0878" lon="5.10704">
        <ele>192.1</ele>
        <time>2022-09-17T14:38:01.000Z</time>
      </trkpt>
      <trkpt lat="45.08781" lon="5.10712">
        <ele>192</ele>
        <time>2022-09-17T14:38:02.000Z</time>
      </trkpt>
      <trkpt lat="45.08782" lon="5.10719">
        <ele>192</ele>
        <time>2022-09-17T14:38:03.000Z</time>
      </trkpt>
      <trkpt lat="45.08783" lon="5.10727">
        <ele>192</ele>
        <time>2022-09-17T14:38:04.000Z</time>
      </trkpt>
      <trkpt lat="45.08783" lon="5.10735">
        <ele>192</ele>
        <time>2022-09-17T14:38:05.000Z</time>
      </trkpt>
      <trkpt lat="45.08784" lon="5.10743">
        <ele>192</ele>
        <time>2022-09-17T14:38:06.000Z</time>
      </trkpt>
      <trkpt lat="45.08784" lon="5.1075">
        <ele>192</ele>
        <time>2022-09-17T14:38:07.000Z</time>
      </trkpt>
      <trkpt lat="45.08785" lon="5.10757">
        <ele>192</ele>
        <time>2022-09-17T14:38:08.000Z</time>
      </trkpt>
      <trkpt lat="45.08785" lon="5.10764">
        <ele>192</ele>
        <time>2022-09-17T14:38:09.000Z</time>
      </trkpt>
      <trkpt lat="45.08786" lon="5.10771">
        <ele>192</ele>
        <time>2022-09-17T14:38:10.000Z</time>
      </trkpt>
      <trkpt lat="45.08786" lon="5.10777">
        <ele>192</ele>
        <time>2022-09-17T14:38:11.000Z</time>
      </trkpt>
      <trkpt lat="45.08786" lon="5.10784">
        <ele>192</ele>
        <time>2022-09-17T14:38:12.000Z</time>
      </trkpt>
      <trkpt lat="45.08786" lon="5.10791">
        <ele>192</ele>
        <time>2022-09-17T14:38:13.000Z</time>
      </trkpt>
      <trkpt lat="45.08786" lon="5.10798">
        <ele>192</ele>
        <time>2022-09-17T14:38:14.000Z</time>
      </trkpt>
      <trkpt lat="45.08786" lon="5.10805">
        <ele>192</ele>
        <time>2022-09-17T14:38:15.000Z</time>
      </trkpt>
      <trkpt lat="45.08786" lon="5.10812">
        <ele>191.8</ele>
        <time>2022-09-17T14:38:16.000Z</time>
      </trkpt>
      <trkpt lat="45.08786" lon="5.1082">
        <ele>191.6</ele>
        <time>2022-09-17T14:38:17.000Z</time>
      </trkpt>
      <trkpt lat="45.08786" lon="5.10827">
        <ele>191.5</ele>
        <time>2022-09-17T14:38:18.000Z</time>
      </trkpt>
      <trkpt lat="45.08786" lon="5.10834">
        <ele>191.3</ele>
        <time>2022-09-17T14:38:19.000Z</time>
      </trkpt>
      <trkpt lat="45.08786" lon="5.10841">
        <ele>191.3</ele>
        <time>2022-09-17T14:38:20.000Z</time>
      </trkpt>
      <trkpt lat="45.08786" lon="5.10849">
        <ele>191.3</ele>
        <time>2022-09-17T14:38:21.000Z</time>
      </trkpt>
      <trkpt lat="45.08786" lon="5.10856">
        <ele>191.3</ele>
        <time>2022-09-17T14:38:22.000Z</time>
      </trkpt>
      <trkpt lat="45.08787" lon="5.10864">
        <ele>191.3</ele>
        <time>2022-09-17T14:38:23.000Z</time>
      </trkpt>
      <trkpt lat="45.08787" lon="5.10872">
        <ele>191.2</ele>
        <time>2022-09-17T14:38:24.000Z</time>
      </trkpt>
      <trkpt lat="45.08787" lon="5.10879">
        <ele>191.1</ele>
        <time>2022-09-17T14:38:25.000Z</time>
      </trkpt>
      <trkpt lat="45.08787" lon="5.10887">
        <ele>191</ele>
        <time>2022-09-17T14:38:26.000Z</time>
      </trkpt>
      <trkpt lat="45.08787" lon="5.10894">
        <ele>191</ele>
        <time>2022-09-17T14:38:27.000Z</time>
      </trkpt>
      <trkpt lat="45.08787" lon="5.10901">
        <ele>191</ele>
        <time>2022-09-17T14:38:28.000Z</time>
      </trkpt>
      <trkpt lat="45.08787" lon="5.10909">
        <ele>191</ele>
        <time>2022-09-17T14:38:29.000Z</time>
      </trkpt>
      <trkpt lat="45.08788" lon="5.10916">
        <ele>191</ele>
        <time>2022-09-17T14:38:30.000Z</time>
      </trkpt>
      <trkpt lat="45.08788" lon="5.10923">
        <ele>191</ele>
        <time>2022-09-17T14:38:31.000Z</time>
      </trkpt>
      <trkpt lat="45.08789" lon="5.1093">
        <ele>191</ele>
        <time>2022-09-17T14:38:32.000Z</time>
      </trkpt>
      <trkpt lat="45.08789" lon="5.10937">
        <ele>191</ele>
        <time>2022-09-17T14:38:33.000Z</time>
      </trkpt>
      <trkpt lat="45.08789" lon="5.10945">
        <ele>191</ele>
        <time>2022-09-17T14:38:34.000Z</time>
      </trkpt>
      <trkpt lat="45.0879" lon="5.10952">
        <ele>191</ele>
        <time>2022-09-17T14:38:35.000Z</time>
      </trkpt>
      <trkpt lat="45.08791" lon="5.10959">
        <ele>191</ele>
        <time>2022-09-17T14:38:36.000Z</time>
      </trkpt>
      <trkpt lat="45.08792" lon="5.10966">
        <ele>191</ele>
        <time>2022-09-17T14:38:37.000Z</time>
      </trkpt>
      <trkpt lat="45.08793" lon="5.10974">
        <ele>191</ele>
        <time>2022-09-17T14:38:38.000Z</time>
      </trkpt>
      <trkpt lat="45.08794" lon="5.10981">
        <ele>191.2</ele>
        <time>2022-09-17T14:38:39.000Z</time>
      </trkpt>
      <trkpt lat="45.08795" lon="5.10988">
        <ele>191.3</ele>
        <time>2022-09-17T14:38:40.000Z</time>
      </trkpt>
      <trkpt lat="45.08796" lon="5.10994">
        <ele>191.5</ele>
        <time>2022-09-17T14:38:41.000Z</time>
      </trkpt>
      <trkpt lat="45.08797" lon="5.11001">
        <ele>191.7</ele>
        <time>2022-09-17T14:38:42.000Z</time>
      </trkpt>
      <trkpt lat="45.08799" lon="5.11008">
        <ele>191.7</ele>
        <time>2022-09-17T14:38:43.000Z</time>
      </trkpt>
      <trkpt lat="45.088" lon="5.11015">
        <ele>191.8</ele>
        <time>2022-09-17T14:38:44.000Z</time>
      </trkpt>
      <trkpt lat="45.08801" lon="5.11021">
        <ele>191.8</ele>
        <time>2022-09-17T14:38:45.000Z</time>
      </trkpt>
      <trkpt lat="45.08802" lon="5.11028">
        <ele>191.9</ele>
        <time>2022-09-17T14:38:46.000Z</time>
      </trkpt>
      <trkpt lat="45.08804" lon="5.11035">
        <ele>191.9</ele>
        <time>2022-09-17T14:38:47.000Z</time>
      </trkpt>
      <trkpt lat="45.08805" lon="5.11041">
        <ele>192</ele>
        <time>2022-09-17T14:38:48.000Z</time>
      </trkpt>
      <trkpt lat="45.08807" lon="5.11047">
        <ele>192</ele>
        <time>2022-09-17T14:38:49.000Z</time>
      </trkpt>
      <trkpt lat="45.08808" lon="5.11053">
        <ele>192</ele>
        <time>2022-09-17T14:38:50.000Z</time>
      </trkpt>
      <trkpt lat="45.08809" lon="5.1106">
        <ele>192</ele>
        <time>2022-09-17T14:38:51.000Z</time>
      </trkpt>
      <trkpt lat="45.08811" lon="5.11066">
        <ele>192</ele>
        <time>2022-09-17T14:38:52.000Z</time>
      </trkpt>
      <trkpt lat="45.08812" lon="5.11073">
        <ele>192</ele>
        <time>2022-09-17T14:38:53.000Z</time>
      </trkpt>
      <trkpt lat="45.08813" lon="5.11079">
        <ele>192</ele>
        <time>2022-09-17T14:38:54.000Z</time>
      </trkpt>
      <trkpt lat="45.08815" lon="5.11086">
        <ele>192</ele>
        <time>2022-09-17T14:38:55.000Z</time>
      </trkpt>
      <trkpt lat="45.08816" lon="5.11092">
        <ele>192</ele>
        <time>2022-09-17T14:38:56.000Z</time>
      </trkpt>
      <trkpt lat="45.08817" lon="5.11099">
        <ele>192</ele>
        <time>2022-09-17T14:38:57.000Z</time>
      </trkpt>
      <trkpt lat="45.08818" lon="5.11105">
        <ele>192</ele>
        <time>2022-09-17T14:38:58.000Z</time>
      </trkpt>
      <trkpt lat="45.08819" lon="5.11112">
        <ele>192</ele>
        <time>2022-09-17T14:38:59.000Z</time>
      </trkpt>
      <trkpt lat="45.0882" lon="5.11118">
        <ele>192.2</ele>
        <time>2022-09-17T14:39:00.000Z</time>
      </trkpt>
      <trkpt lat="45.08821" lon="5.11124">
        <ele>192.5</ele>
        <time>2022-09-17T14:39:01.000Z</time>
      </trkpt>
      <trkpt lat="45.08823" lon="5.11131">
        <ele>192.7</ele>
        <time>2022-09-17T14:39:02.000Z</time>
      </trkpt>
      <trkpt lat="45.08824" lon="5.11138">
        <ele>192.9</ele>
        <time>2022-09-17T14:39:03.000Z</time>
      </trkpt>
      <trkpt lat="45.08825" lon="5.11144">
        <ele>192.9</ele>
        <time>2022-09-17T14:39:04.000Z</time>
      </trkpt>
      <trkpt lat="45.08826" lon="5.11151">
        <ele>192.9</ele>
        <time>2022-09-17T14:39:05.000Z</time>
      </trkpt>
      <trkpt lat="45.08827" lon="5.11159">
        <ele>192.8</ele>
        <time>2022-09-17T14:39:06.000Z</time>
      </trkpt>
      <trkpt lat="45.08828" lon="5.11166">
        <ele>192.8</ele>
        <time>2022-09-17T14:39:07.000Z</time>
      </trkpt>
      <trkpt lat="45.08829" lon="5.11174">
        <ele>192.8</ele>
        <time>2022-09-17T14:39:08.000Z</time>
      </trkpt>
      <trkpt lat="45.0883" lon="5.11181">
        <ele>192.9</ele>
        <time>2022-09-17T14:39:09.000Z</time>
      </trkpt>
      <trkpt lat="45.0883" lon="5.11188">
        <ele>192.9</ele>
        <time>2022-09-17T14:39:10.000Z</time>
      </trkpt>
      <trkpt lat="45.08831" lon="5.11196">
        <ele>192.9</ele>
        <time>2022-09-17T14:39:11.000Z</time>
      </trkpt>
      <trkpt lat="45.08832" lon="5.11203">
        <ele>193.2</ele>
        <time>2022-09-17T14:39:12.000Z</time>
      </trkpt>
      <trkpt lat="45.08833" lon="5.1121">
        <ele>193.5</ele>
        <time>2022-09-17T14:39:13.000Z</time>
      </trkpt>
      <trkpt lat="45.08833" lon="5.11218">
        <ele>193.8</ele>
        <time>2022-09-17T14:39:14.000Z</time>
      </trkpt>
      <trkpt lat="45.08833" lon="5.11225">
        <ele>194</ele>
        <time>2022-09-17T14:39:15.000Z</time>
      </trkpt>
      <trkpt lat="45.08834" lon="5.11232">
        <ele>194</ele>
        <time>2022-09-17T14:39:16.000Z</time>
      </trkpt>
      <trkpt lat="45.08835" lon="5.11239">
        <ele>194</ele>
        <time>2022-09-17T14:39:17.000Z</time>
      </trkpt>
      <trkpt lat="45.08835" lon="5.11245">
        <ele>193.9</ele>
        <time>2022-09-17T14:39:18.000Z</time>
      </trkpt>
      <trkpt lat="45.08836" lon="5.11252">
        <ele>193.9</ele>
        <time>2022-09-17T14:39:19.000Z</time>
      </trkpt>
      <trkpt lat="45.08836" lon="5.11259">
        <ele>193.9</ele>
        <time>2022-09-17T14:39:20.000Z</time>
      </trkpt>
      <trkpt lat="45.08837" lon="5.11266">
        <ele>193.9</ele>
        <time>2022-09-17T14:39:21.000Z</time>
      </trkpt>
      <trkpt lat="45.08837" lon="5.11273">
        <ele>193.9</ele>
        <time>2022-09-17T14:39:22.000Z</time>
      </trkpt>
      <trkpt lat="45.08838" lon="5.1128">
        <ele>193.8</ele>
        <time>2022-09-17T14:39:23.000Z</time>
      </trkpt>
      <trkpt lat="45.08839" lon="5.11287">
        <ele>193.8</ele>
        <time>2022-09-17T14:39:24.000Z</time>
      </trkpt>
      <trkpt lat="45.08839" lon="5.11295">
        <ele>193.8</ele>
        <time>2022-09-17T14:39:25.000Z</time>
      </trkpt>
      <trkpt lat="45.0884" lon="5.11302">
        <ele>193.8</ele>
        <time>2022-09-17T14:39:26.000Z</time>
      </trkpt>
      <trkpt lat="45.08841" lon="5.11309">
        <ele>193.7</ele>
        <time>2022-09-17T14:39:27.000Z</time>
      </trkpt>
      <trkpt lat="45.08841" lon="5.11317">
        <ele>193.7</ele>
        <time>2022-09-17T14:39:28.000Z</time>
      </trkpt>
      <trkpt lat="45.08842" lon="5.11324">
        <ele>193.7</ele>
        <time>2022-09-17T14:39:29.000Z</time>
      </trkpt>
      <trkpt lat="45.08842" lon="5.11331">
        <ele>193.7</ele>
        <time>2022-09-17T14:39:30.000Z</time>
      </trkpt>
      <trkpt lat="45.08843" lon="5.11338">
        <ele>193.7</ele>
        <time>2022-09-17T14:39:31.000Z</time>
      </trkpt>
      <trkpt lat="45.08843" lon="5.11344">
        <ele>193.8</ele>
        <time>2022-09-17T14:39:32.000Z</time>
      </trkpt>
      <trkpt lat="45.08844" lon="5.1135">
        <ele>193.9</ele>
        <time>2022-09-17T14:39:33.000Z</time>
      </trkpt>
      <trkpt lat="45.08844" lon="5.11356">
        <ele>193.9</ele>
        <time>2022-09-17T14:39:34.000Z</time>
      </trkpt>
      <trkpt lat="45.08845" lon="5.11361">
        <ele>194</ele>
        <time>2022-09-17T14:39:35.000Z</time>
      </trkpt>
      <trkpt lat="45.08846" lon="5.11367">
        <ele>194</ele>
        <time>2022-09-17T14:39:36.000Z</time>
      </trkpt>
      <trkpt lat="45.08846" lon="5.11373">
        <ele>194</ele>
        <time>2022-09-17T14:39:37.000Z</time>
      </trkpt>
      <trkpt lat="45.08846" lon="5.11379">
        <ele>194</ele>
        <time>2022-09-17T14:39:38.000Z</time>
      </trkpt>
      <trkpt lat="45.08846" lon="5.11386">
        <ele>194</ele>
        <time>2022-09-17T14:39:39.000Z</time>
      </trkpt>
      <trkpt lat="45.08847" lon="5.11392">
        <ele>194.1</ele>
        <time>2022-09-17T14:39:40.000Z</time>
      </trkpt>
      <trkpt lat="45.08847" lon="5.11398">
        <ele>194.2</ele>
        <time>2022-09-17T14:39:41.000Z</time>
      </trkpt>
      <trkpt lat="45.08848" lon="5.11404">
        <ele>194.3</ele>
        <time>2022-09-17T14:39:42.000Z</time>
      </trkpt>
      <trkpt lat="45.08849" lon="5.11411">
        <ele>194.4</ele>
        <time>2022-09-17T14:39:43.000Z</time>
      </trkpt>
      <trkpt lat="45.08849" lon="5.11417">
        <ele>194.4</ele>
        <time>2022-09-17T14:39:44.000Z</time>
      </trkpt>
      <trkpt lat="45.0885" lon="5.11424">
        <ele>194.5</ele>
        <time>2022-09-17T14:39:45.000Z</time>
      </trkpt>
      <trkpt lat="45.08851" lon="5.1143">
        <ele>194.5</ele>
        <time>2022-09-17T14:39:46.000Z</time>
      </trkpt>
      <trkpt lat="45.08851" lon="5.11437">
        <ele>194.6</ele>
        <time>2022-09-17T14:39:47.000Z</time>
      </trkpt>
      <trkpt lat="45.08852" lon="5.11444">
        <ele>194.7</ele>
        <time>2022-09-17T14:39:48.000Z</time>
      </trkpt>
      <trkpt lat="45.08853" lon="5.1145">
        <ele>194.7</ele>
        <time>2022-09-17T14:39:49.000Z</time>
      </trkpt>
      <trkpt lat="45.08853" lon="5.11457">
        <ele>194.7</ele>
        <time>2022-09-17T14:39:50.000Z</time>
      </trkpt>
      <trkpt lat="45.08853" lon="5.11464">
        <ele>194.7</ele>
        <time>2022-09-17T14:39:51.000Z</time>
      </trkpt>
      <trkpt lat="45.08854" lon="5.11471">
        <ele>194.7</ele>
        <time>2022-09-17T14:39:52.000Z</time>
      </trkpt>
      <trkpt lat="45.08854" lon="5.11478">
        <ele>194.8</ele>
        <time>2022-09-17T14:39:53.000Z</time>
      </trkpt>
      <trkpt lat="45.08855" lon="5.11485">
        <ele>194.8</ele>
        <time>2022-09-17T14:39:54.000Z</time>
      </trkpt>
      <trkpt lat="45.08855" lon="5.11492">
        <ele>194.8</ele>
        <time>2022-09-17T14:39:55.000Z</time>
      </trkpt>
      <trkpt lat="45.08856" lon="5.11499">
        <ele>194.8</ele>
        <time>2022-09-17T14:39:56.000Z</time>
      </trkpt>
      <trkpt lat="45.08856" lon="5.11506">
        <ele>195</ele>
        <time>2022-09-17T14:39:57.000Z</time>
      </trkpt>
      <trkpt lat="45.08856" lon="5.11513">
        <ele>195.3</ele>
        <time>2022-09-17T14:39:58.000Z</time>
      </trkpt>
      <trkpt lat="45.08857" lon="5.1152">
        <ele>195.6</ele>
        <time>2022-09-17T14:39:59.000Z</time>
      </trkpt>
      <trkpt lat="45.08858" lon="5.11527">
        <ele>195.8</ele>
        <time>2022-09-17T14:40:00.000Z</time>
      </trkpt>
      <trkpt lat="45.08858" lon="5.11535">
        <ele>195.9</ele>
        <time>2022-09-17T14:40:01.000Z</time>
      </trkpt>
      <trkpt lat="45.08859" lon="5.11542">
        <ele>195.9</ele>
        <time>2022-09-17T14:40:02.000Z</time>
      </trkpt>
      <trkpt lat="45.08859" lon="5.1155">
        <ele>195.9</ele>
        <time>2022-09-17T14:40:03.000Z</time>
      </trkpt>
      <trkpt lat="45.0886" lon="5.11557">
        <ele>196</ele>
        <time>2022-09-17T14:40:04.000Z</time>
      </trkpt>
      <trkpt lat="45.08861" lon="5.11565">
        <ele>196.3</ele>
        <time>2022-09-17T14:40:05.000Z</time>
      </trkpt>
      <trkpt lat="45.08861" lon="5.11572">
        <ele>196.6</ele>
        <time>2022-09-17T14:40:06.000Z</time>
      </trkpt>
      <trkpt lat="45.08862" lon="5.1158">
        <ele>196.9</ele>
        <time>2022-09-17T14:40:07.000Z</time>
      </trkpt>
      <trkpt lat="45.08863" lon="5.11587">
        <ele>196.8</ele>
        <time>2022-09-17T14:40:08.000Z</time>
      </trkpt>
      <trkpt lat="45.08864" lon="5.11594">
        <ele>196.5</ele>
        <time>2022-09-17T14:40:09.000Z</time>
      </trkpt>
      <trkpt lat="45.08864" lon="5.116">
        <ele>196.2</ele>
        <time>2022-09-17T14:40:10.000Z</time>
      </trkpt>
      <trkpt lat="45.08865" lon="5.11606">
        <ele>195.9</ele>
        <time>2022-09-17T14:40:11.000Z</time>
      </trkpt>
      <trkpt lat="45.08866" lon="5.11612">
        <ele>195.6</ele>
        <time>2022-09-17T14:40:12.000Z</time>
      </trkpt>
      <trkpt lat="45.08867" lon="5.11617">
        <ele>195.6</ele>
        <time>2022-09-17T14:40:13.000Z</time>
      </trkpt>
      <trkpt lat="45.08867" lon="5.11623">
        <ele>195.6</ele>
        <time>2022-09-17T14:40:14.000Z</time>
      </trkpt>
      <trkpt lat="45.08868" lon="5.11629">
        <ele>195.5</ele>
        <time>2022-09-17T14:40:15.000Z</time>
      </trkpt>
      <trkpt lat="45.08868" lon="5.11635">
        <ele>195.5</ele>
        <time>2022-09-17T14:40:16.000Z</time>
      </trkpt>
      <trkpt lat="45.08868" lon="5.11641">
        <ele>195.4</ele>
        <time>2022-09-17T14:40:17.000Z</time>
      </trkpt>
      <trkpt lat="45.08869" lon="5.11648">
        <ele>195.3</ele>
        <time>2022-09-17T14:40:18.000Z</time>
      </trkpt>
      <trkpt lat="45.08869" lon="5.11655">
        <ele>195.2</ele>
        <time>2022-09-17T14:40:19.000Z</time>
      </trkpt>
      <trkpt lat="45.0887" lon="5.11662">
        <ele>195.1</ele>
        <time>2022-09-17T14:40:20.000Z</time>
      </trkpt>
      <trkpt lat="45.0887" lon="5.11669">
        <ele>195</ele>
        <time>2022-09-17T14:40:21.000Z</time>
      </trkpt>
      <trkpt lat="45.08871" lon="5.11677">
        <ele>195.1</ele>
        <time>2022-09-17T14:40:22.000Z</time>
      </trkpt>
      <trkpt lat="45.08871" lon="5.11684">
        <ele>195.2</ele>
        <time>2022-09-17T14:40:23.000Z</time>
      </trkpt>
      <trkpt lat="45.08872" lon="5.11692">
        <ele>195.3</ele>
        <time>2022-09-17T14:40:24.000Z</time>
      </trkpt>
      <trkpt lat="45.08872" lon="5.11699">
        <ele>195.3</ele>
        <time>2022-09-17T14:40:25.000Z</time>
      </trkpt>
      <trkpt lat="45.08873" lon="5.11707">
        <ele>195.2</ele>
        <time>2022-09-17T14:40:26.000Z</time>
      </trkpt>
      <trkpt lat="45.08873" lon="5.11715">
        <ele>195.1</ele>
        <time>2022-09-17T14:40:27.000Z</time>
      </trkpt>
      <trkpt lat="45.08874" lon="5.11722">
        <ele>195</ele>
        <time>2022-09-17T14:40:28.000Z</time>
      </trkpt>
      <trkpt lat="45.08874" lon="5.1173">
        <ele>195</ele>
        <time>2022-09-17T14:40:29.000Z</time>
      </trkpt>
      <trkpt lat="45.08874" lon="5.11738">
        <ele>195</ele>
        <time>2022-09-17T14:40:30.000Z</time>
      </trkpt>
      <trkpt lat="45.08875" lon="5.11745">
        <ele>195</ele>
        <time>2022-09-17T14:40:31.000Z</time>
      </trkpt>
      <trkpt lat="45.08875" lon="5.11753">
        <ele>195</ele>
        <time>2022-09-17T14:40:32.000Z</time>
      </trkpt>
      <trkpt lat="45.08876" lon="5.11761">
        <ele>195</ele>
        <time>2022-09-17T14:40:33.000Z</time>
      </trkpt>
      <trkpt lat="45.08876" lon="5.11768">
        <ele>195</ele>
        <time>2022-09-17T14:40:34.000Z</time>
      </trkpt>
      <trkpt lat="45.08877" lon="5.11776">
        <ele>195</ele>
        <time>2022-09-17T14:40:35.000Z</time>
      </trkpt>
      <trkpt lat="45.08877" lon="5.11784">
        <ele>195</ele>
        <time>2022-09-17T14:40:36.000Z</time>
      </trkpt>
      <trkpt lat="45.08878" lon="5.11792">
        <ele>195</ele>
        <time>2022-09-17T14:40:37.000Z</time>
      </trkpt>
      <trkpt lat="45.08879" lon="5.118">
        <ele>195</ele>
        <time>2022-09-17T14:40:38.000Z</time>
      </trkpt>
      <trkpt lat="45.08879" lon="5.11808">
        <ele>195.1</ele>
        <time>2022-09-17T14:40:39.000Z</time>
      </trkpt>
      <trkpt lat="45.0888" lon="5.11816">
        <ele>195.2</ele>
        <time>2022-09-17T14:40:40.000Z</time>
      </trkpt>
      <trkpt lat="45.0888" lon="5.11823">
        <ele>195.4</ele>
        <time>2022-09-17T14:40:41.000Z</time>
      </trkpt>
      <trkpt lat="45.08881" lon="5.11831">
        <ele>195.6</ele>
        <time>2022-09-17T14:40:42.000Z</time>
      </trkpt>
      <trkpt lat="45.08882" lon="5.11838">
        <ele>195.7</ele>
        <time>2022-09-17T14:40:43.000Z</time>
      </trkpt>
      <trkpt lat="45.08882" lon="5.11846">
        <ele>195.8</ele>
        <time>2022-09-17T14:40:44.000Z</time>
      </trkpt>
      <trkpt lat="45.08883" lon="5.11853">
        <ele>195.8</ele>
        <time>2022-09-17T14:40:45.000Z</time>
      </trkpt>
      <trkpt lat="45.08884" lon="5.1186">
        <ele>195.8</ele>
        <time>2022-09-17T14:40:46.000Z</time>
      </trkpt>
      <trkpt lat="45.08884" lon="5.11868">
        <ele>195.8</ele>
        <time>2022-09-17T14:40:47.000Z</time>
      </trkpt>
      <trkpt lat="45.08885" lon="5.11875">
        <ele>195.9</ele>
        <time>2022-09-17T14:40:48.000Z</time>
      </trkpt>
      <trkpt lat="45.08886" lon="5.11882">
        <ele>195.9</ele>
        <time>2022-09-17T14:40:49.000Z</time>
      </trkpt>
      <trkpt lat="45.08886" lon="5.1189">
        <ele>195.9</ele>
        <time>2022-09-17T14:40:50.000Z</time>
      </trkpt>
      <trkpt lat="45.08887" lon="5.11897">
        <ele>196.2</ele>
        <time>2022-09-17T14:40:51.000Z</time>
      </trkpt>
      <trkpt lat="45.08887" lon="5.11904">
        <ele>196.5</ele>
        <time>2022-09-17T14:40:52.000Z</time>
      </trkpt>
      <trkpt lat="45.08887" lon="5.11911">
        <ele>196.7</ele>
        <time>2022-09-17T14:40:53.000Z</time>
      </trkpt>
      <trkpt lat="45.08888" lon="5.11918">
        <ele>197</ele>
        <time>2022-09-17T14:40:54.000Z</time>
      </trkpt>
      <trkpt lat="45.08888" lon="5.11925">
        <ele>197</ele>
        <time>2022-09-17T14:40:55.000Z</time>
      </trkpt>
      <trkpt lat="45.08889" lon="5.11931">
        <ele>197</ele>
        <time>2022-09-17T14:40:56.000Z</time>
      </trkpt>
      <trkpt lat="45.08889" lon="5.11938">
        <ele>197</ele>
        <time>2022-09-17T14:40:57.000Z</time>
      </trkpt>
      <trkpt lat="45.08889" lon="5.11945">
        <ele>197</ele>
        <time>2022-09-17T14:40:58.000Z</time>
      </trkpt>
      <trkpt lat="45.0889" lon="5.11951">
        <ele>197.2</ele>
        <time>2022-09-17T14:40:59.000Z</time>
      </trkpt>
      <trkpt lat="45.0889" lon="5.11958">
        <ele>197.4</ele>
        <time>2022-09-17T14:41:00.000Z</time>
      </trkpt>
      <trkpt lat="45.0889" lon="5.11965">
        <ele>197.6</ele>
        <time>2022-09-17T14:41:01.000Z</time>
      </trkpt>
      <trkpt lat="45.08891" lon="5.11971">
        <ele>197.8</ele>
        <time>2022-09-17T14:41:02.000Z</time>
      </trkpt>
      <trkpt lat="45.08891" lon="5.11978">
        <ele>197.7</ele>
        <time>2022-09-17T14:41:03.000Z</time>
      </trkpt>
      <trkpt lat="45.08892" lon="5.11984">
        <ele>197.4</ele>
        <time>2022-09-17T14:41:04.000Z</time>
      </trkpt>
      <trkpt lat="45.08892" lon="5.11991">
        <ele>197.2</ele>
        <time>2022-09-17T14:41:05.000Z</time>
      </trkpt>
      <trkpt lat="45.08892" lon="5.11997">
        <ele>197</ele>
        <time>2022-09-17T14:41:06.000Z</time>
      </trkpt>
      <trkpt lat="45.08893" lon="5.12003">
        <ele>196.9</ele>
        <time>2022-09-17T14:41:07.000Z</time>
      </trkpt>
      <trkpt lat="45.08894" lon="5.12009">
        <ele>196.8</ele>
        <time>2022-09-17T14:41:08.000Z</time>
      </trkpt>
      <trkpt lat="45.08894" lon="5.12014">
        <ele>196.8</ele>
        <time>2022-09-17T14:41:09.000Z</time>
      </trkpt>
      <trkpt lat="45.08894" lon="5.12019">
        <ele>196.8</ele>
        <time>2022-09-17T14:41:10.000Z</time>
      </trkpt>
      <trkpt lat="45.08894" lon="5.12025">
        <ele>196.8</ele>
        <time>2022-09-17T14:41:11.000Z</time>
      </trkpt>
      <trkpt lat="45.08895" lon="5.1203">
        <ele>196.8</ele>
        <time>2022-09-17T14:41:12.000Z</time>
      </trkpt>
      <trkpt lat="45.08895" lon="5.12035">
        <ele>196.8</ele>
        <time>2022-09-17T14:41:13.000Z</time>
      </trkpt>
      <trkpt lat="45.08896" lon="5.1204">
        <ele>196.9</ele>
        <time>2022-09-17T14:41:14.000Z</time>
      </trkpt>
      <trkpt lat="45.08897" lon="5.12045">
        <ele>196.9</ele>
        <time>2022-09-17T14:41:15.000Z</time>
      </trkpt>
      <trkpt lat="45.08897" lon="5.1205">
        <ele>196.9</ele>
        <time>2022-09-17T14:41:16.000Z</time>
      </trkpt>
      <trkpt lat="45.08897" lon="5.12056">
        <ele>197</ele>
        <time>2022-09-17T14:41:17.000Z</time>
      </trkpt>
      <trkpt lat="45.08897" lon="5.12062">
        <ele>197</ele>
        <time>2022-09-17T14:41:18.000Z</time>
      </trkpt>
      <trkpt lat="45.08898" lon="5.12068">
        <ele>197</ele>
        <time>2022-09-17T14:41:19.000Z</time>
      </trkpt>
      <trkpt lat="45.08898" lon="5.12074">
        <ele>197</ele>
        <time>2022-09-17T14:41:20.000Z</time>
      </trkpt>
      <trkpt lat="45.08898" lon="5.1208">
        <ele>197</ele>
        <time>2022-09-17T14:41:21.000Z</time>
      </trkpt>
      <trkpt lat="45.08899" lon="5.12086">
        <ele>197</ele>
        <time>2022-09-17T14:41:22.000Z</time>
      </trkpt>
      <trkpt lat="45.08899" lon="5.12093">
        <ele>197</ele>
        <time>2022-09-17T14:41:23.000Z</time>
      </trkpt>
      <trkpt lat="45.08899" lon="5.12099">
        <ele>197</ele>
        <time>2022-09-17T14:41:24.000Z</time>
      </trkpt>
      <trkpt lat="45.089" lon="5.12105">
        <ele>197</ele>
        <time>2022-09-17T14:41:25.000Z</time>
      </trkpt>
      <trkpt lat="45.089" lon="5.12112">
        <ele>197</ele>
        <time>2022-09-17T14:41:26.000Z</time>
      </trkpt>
      <trkpt lat="45.08901" lon="5.12119">
        <ele>197</ele>
        <time>2022-09-17T14:41:27.000Z</time>
      </trkpt>
      <trkpt lat="45.08901" lon="5.12125">
        <ele>197</ele>
        <time>2022-09-17T14:41:28.000Z</time>
      </trkpt>
      <trkpt lat="45.08902" lon="5.12132">
        <ele>197</ele>
        <time>2022-09-17T14:41:29.000Z</time>
      </trkpt>
      <trkpt lat="45.08902" lon="5.12139">
        <ele>197</ele>
        <time>2022-09-17T14:41:30.000Z</time>
      </trkpt>
      <trkpt lat="45.08902" lon="5.12145">
        <ele>197.1</ele>
        <time>2022-09-17T14:41:31.000Z</time>
      </trkpt>
      <trkpt lat="45.08903" lon="5.12152">
        <ele>197.2</ele>
        <time>2022-09-17T14:41:32.000Z</time>
      </trkpt>
      <trkpt lat="45.08903" lon="5.12159">
        <ele>197.4</ele>
        <time>2022-09-17T14:41:33.000Z</time>
      </trkpt>
      <trkpt lat="45.08903" lon="5.12166">
        <ele>197.5</ele>
        <time>2022-09-17T14:41:34.000Z</time>
      </trkpt>
      <trkpt lat="45.08903" lon="5.12173">
        <ele>197.6</ele>
        <time>2022-09-17T14:41:35.000Z</time>
      </trkpt>
      <trkpt lat="45.08904" lon="5.12179">
        <ele>197.8</ele>
        <time>2022-09-17T14:41:36.000Z</time>
      </trkpt>
      <trkpt lat="45.08904" lon="5.12186">
        <ele>197.9</ele>
        <time>2022-09-17T14:41:37.000Z</time>
      </trkpt>
      <trkpt lat="45.08904" lon="5.12192">
        <ele>198</ele>
        <time>2022-09-17T14:41:38.000Z</time>
      </trkpt>
      <trkpt lat="45.08905" lon="5.12198">
        <ele>198.1</ele>
        <time>2022-09-17T14:41:39.000Z</time>
      </trkpt>
      <trkpt lat="45.08905" lon="5.12205">
        <ele>198.1</ele>
        <time>2022-09-17T14:41:40.000Z</time>
      </trkpt>
      <trkpt lat="45.08905" lon="5.12211">
        <ele>198.1</ele>
        <time>2022-09-17T14:41:41.000Z</time>
      </trkpt>
      <trkpt lat="45.08905" lon="5.12218">
        <ele>198.2</ele>
        <time>2022-09-17T14:41:42.000Z</time>
      </trkpt>
      <trkpt lat="45.08905" lon="5.12224">
        <ele>198.3</ele>
        <time>2022-09-17T14:41:43.000Z</time>
      </trkpt>
      <trkpt lat="45.08906" lon="5.12231">
        <ele>198.5</ele>
        <time>2022-09-17T14:41:44.000Z</time>
      </trkpt>
      <trkpt lat="45.08906" lon="5.12237">
        <ele>198.8</ele>
        <time>2022-09-17T14:41:45.000Z</time>
      </trkpt>
      <trkpt lat="45.08907" lon="5.12244">
        <ele>199.1</ele>
        <time>2022-09-17T14:41:46.000Z</time>
      </trkpt>
      <trkpt lat="45.08907" lon="5.12251">
        <ele>199.3</ele>
        <time>2022-09-17T14:41:47.000Z</time>
      </trkpt>
      <trkpt lat="45.08907" lon="5.12257">
        <ele>199.3</ele>
        <time>2022-09-17T14:41:48.000Z</time>
      </trkpt>
      <trkpt lat="45.08908" lon="5.12264">
        <ele>199.3</ele>
        <time>2022-09-17T14:41:49.000Z</time>
      </trkpt>
      <trkpt lat="45.08908" lon="5.1227">
        <ele>199.4</ele>
        <time>2022-09-17T14:41:50.000Z</time>
      </trkpt>
      <trkpt lat="45.08908" lon="5.12277">
        <ele>199.4</ele>
        <time>2022-09-17T14:41:51.000Z</time>
      </trkpt>
      <trkpt lat="45.08908" lon="5.12284">
        <ele>199.4</ele>
        <time>2022-09-17T14:41:52.000Z</time>
      </trkpt>
      <trkpt lat="45.08909" lon="5.12291">
        <ele>199.5</ele>
        <time>2022-09-17T14:41:53.000Z</time>
      </trkpt>
      <trkpt lat="45.08909" lon="5.12298">
        <ele>199.6</ele>
        <time>2022-09-17T14:41:54.000Z</time>
      </trkpt>
      <trkpt lat="45.08909" lon="5.12305">
        <ele>199.7</ele>
        <time>2022-09-17T14:41:55.000Z</time>
      </trkpt>
      <trkpt lat="45.0891" lon="5.12312">
        <ele>199.8</ele>
        <time>2022-09-17T14:41:56.000Z</time>
      </trkpt>
      <trkpt lat="45.0891" lon="5.12319">
        <ele>199.8</ele>
        <time>2022-09-17T14:41:57.000Z</time>
      </trkpt>
      <trkpt lat="45.08911" lon="5.12326">
        <ele>199.8</ele>
        <time>2022-09-17T14:41:58.000Z</time>
      </trkpt>
      <trkpt lat="45.08911" lon="5.12333">
        <ele>199.8</ele>
        <time>2022-09-17T14:41:59.000Z</time>
      </trkpt>
      <trkpt lat="45.08911" lon="5.1234">
        <ele>200.1</ele>
        <time>2022-09-17T14:42:00.000Z</time>
      </trkpt>
      <trkpt lat="45.08912" lon="5.12347">
        <ele>200.3</ele>
        <time>2022-09-17T14:42:01.000Z</time>
      </trkpt>
      <trkpt lat="45.08912" lon="5.12354">
        <ele>200.6</ele>
        <time>2022-09-17T14:42:02.000Z</time>
      </trkpt>
      <trkpt lat="45.08912" lon="5.12361">
        <ele>200.8</ele>
        <time>2022-09-17T14:42:03.000Z</time>
      </trkpt>
      <trkpt lat="45.08912" lon="5.12368">
        <ele>201.1</ele>
        <time>2022-09-17T14:42:04.000Z</time>
      </trkpt>
      <trkpt lat="45.08913" lon="5.12374">
        <ele>201.3</ele>
        <time>2022-09-17T14:42:05.000Z</time>
      </trkpt>
      <trkpt lat="45.08913" lon="5.12381">
        <ele>201.6</ele>
        <time>2022-09-17T14:42:06.000Z</time>
      </trkpt>
      <trkpt lat="45.08913" lon="5.12387">
        <ele>201.8</ele>
        <time>2022-09-17T14:42:07.000Z</time>
      </trkpt>
      <trkpt lat="45.08914" lon="5.12394">
        <ele>202.1</ele>
        <time>2022-09-17T14:42:08.000Z</time>
      </trkpt>
      <trkpt lat="45.08914" lon="5.12401">
        <ele>202.4</ele>
        <time>2022-09-17T14:42:09.000Z</time>
      </trkpt>
      <trkpt lat="45.08915" lon="5.12408">
        <ele>202.7</ele>
        <time>2022-09-17T14:42:10.000Z</time>
      </trkpt>
      <trkpt lat="45.08915" lon="5.12415">
        <ele>202.9</ele>
        <time>2022-09-17T14:42:11.000Z</time>
      </trkpt>
      <trkpt lat="45.08916" lon="5.12422">
        <ele>203.2</ele>
        <time>2022-09-17T14:42:12.000Z</time>
      </trkpt>
      <trkpt lat="45.08916" lon="5.12429">
        <ele>203.4</ele>
        <time>2022-09-17T14:42:13.000Z</time>
      </trkpt>
      <trkpt lat="45.08916" lon="5.12436">
        <ele>203.7</ele>
        <time>2022-09-17T14:42:14.000Z</time>
      </trkpt>
      <trkpt lat="45.08916" lon="5.12443">
        <ele>203.9</ele>
        <time>2022-09-17T14:42:15.000Z</time>
      </trkpt>
      <trkpt lat="45.08916" lon="5.1245">
        <ele>203.9</ele>
        <time>2022-09-17T14:42:16.000Z</time>
      </trkpt>
      <trkpt lat="45.08916" lon="5.12456">
        <ele>203.9</ele>
        <time>2022-09-17T14:42:17.000Z</time>
      </trkpt>
      <trkpt lat="45.08916" lon="5.12463">
        <ele>203.9</ele>
        <time>2022-09-17T14:42:18.000Z</time>
      </trkpt>
      <trkpt lat="45.08915" lon="5.1247">
        <ele>203.9</ele>
        <time>2022-09-17T14:42:19.000Z</time>
      </trkpt>
      <trkpt lat="45.08914" lon="5.12478">
        <ele>203.8</ele>
        <time>2022-09-17T14:42:20.000Z</time>
      </trkpt>
      <trkpt lat="45.08913" lon="5.12484">
        <ele>203.8</ele>
        <time>2022-09-17T14:42:21.000Z</time>
      </trkpt>
      <trkpt lat="45.08912" lon="5.12491">
        <ele>203.7</ele>
        <time>2022-09-17T14:42:22.000Z</time>
      </trkpt>
      <trkpt lat="45.08911" lon="5.12498">
        <ele>203.6</ele>
        <time>2022-09-17T14:42:23.000Z</time>
      </trkpt>
      <trkpt lat="45.08909" lon="5.12505">
        <ele>203.7</ele>
        <time>2022-09-17T14:42:24.000Z</time>
      </trkpt>
      <trkpt lat="45.08908" lon="5.12513">
        <ele>203.8</ele>
        <time>2022-09-17T14:42:25.000Z</time>
      </trkpt>
      <trkpt lat="45.08906" lon="5.1252">
        <ele>204</ele>
        <time>2022-09-17T14:42:26.000Z</time>
      </trkpt>
      <trkpt lat="45.08905" lon="5.12527">
        <ele>204.1</ele>
        <time>2022-09-17T14:42:27.000Z</time>
      </trkpt>
      <trkpt lat="45.08902" lon="5.12535">
        <ele>204</ele>
        <time>2022-09-17T14:42:28.000Z</time>
      </trkpt>
      <trkpt lat="45.089" lon="5.12542">
        <ele>203.8</ele>
        <time>2022-09-17T14:42:29.000Z</time>
      </trkpt>
      <trkpt lat="45.08898" lon="5.1255">
        <ele>203.6</ele>
        <time>2022-09-17T14:42:30.000Z</time>
      </trkpt>
      <trkpt lat="45.08896" lon="5.12558">
        <ele>203.6</ele>
        <time>2022-09-17T14:42:31.000Z</time>
      </trkpt>
      <trkpt lat="45.08893" lon="5.12566">
        <ele>203.9</ele>
        <time>2022-09-17T14:42:32.000Z</time>
      </trkpt>
      <trkpt lat="45.0889" lon="5.12574">
        <ele>204.3</ele>
        <time>2022-09-17T14:42:33.000Z</time>
      </trkpt>
      <trkpt lat="45.08888" lon="5.12581">
        <ele>204.7</ele>
        <time>2022-09-17T14:42:34.000Z</time>
      </trkpt>
      <trkpt lat="45.08885" lon="5.12589">
        <ele>204.6</ele>
        <time>2022-09-17T14:42:35.000Z</time>
      </trkpt>
      <trkpt lat="45.08882" lon="5.12598">
        <ele>204.2</ele>
        <time>2022-09-17T14:42:36.000Z</time>
      </trkpt>
      <trkpt lat="45.08879" lon="5.12606">
        <ele>204</ele>
        <time>2022-09-17T14:42:37.000Z</time>
      </trkpt>
      <trkpt lat="45.08877" lon="5.12615">
        <ele>203.8</ele>
        <time>2022-09-17T14:42:38.000Z</time>
      </trkpt>
      <trkpt lat="45.08874" lon="5.12623">
        <ele>203.8</ele>
        <time>2022-09-17T14:42:39.000Z</time>
      </trkpt>
      <trkpt lat="45.08872" lon="5.12632">
        <ele>203.9</ele>
        <time>2022-09-17T14:42:40.000Z</time>
      </trkpt>
      <trkpt lat="45.08869" lon="5.1264">
        <ele>203.9</ele>
        <time>2022-09-17T14:42:41.000Z</time>
      </trkpt>
      <trkpt lat="45.08867" lon="5.12649">
        <ele>203.9</ele>
        <time>2022-09-17T14:42:42.000Z</time>
      </trkpt>
      <trkpt lat="45.08865" lon="5.12657">
        <ele>204</ele>
        <time>2022-09-17T14:42:43.000Z</time>
      </trkpt>
      <trkpt lat="45.08862" lon="5.12665">
        <ele>204</ele>
        <time>2022-09-17T14:42:44.000Z</time>
      </trkpt>
      <trkpt lat="45.08859" lon="5.12672">
        <ele>204.1</ele>
        <time>2022-09-17T14:42:45.000Z</time>
      </trkpt>
      <trkpt lat="45.08856" lon="5.1268">
        <ele>204.1</ele>
        <time>2022-09-17T14:42:46.000Z</time>
      </trkpt>
      <trkpt lat="45.08854" lon="5.12688">
        <ele>204</ele>
        <time>2022-09-17T14:42:47.000Z</time>
      </trkpt>
      <trkpt lat="45.08851" lon="5.12696">
        <ele>204</ele>
        <time>2022-09-17T14:42:48.000Z</time>
      </trkpt>
      <trkpt lat="45.08849" lon="5.12704">
        <ele>204</ele>
        <time>2022-09-17T14:42:49.000Z</time>
      </trkpt>
      <trkpt lat="45.08847" lon="5.12712">
        <ele>204.1</ele>
        <time>2022-09-17T14:42:50.000Z</time>
      </trkpt>
      <trkpt lat="45.08844" lon="5.1272">
        <ele>204.1</ele>
        <time>2022-09-17T14:42:51.000Z</time>
      </trkpt>
      <trkpt lat="45.08842" lon="5.12728">
        <ele>204</ele>
        <time>2022-09-17T14:42:52.000Z</time>
      </trkpt>
      <trkpt lat="45.0884" lon="5.12736">
        <ele>203.7</ele>
        <time>2022-09-17T14:42:53.000Z</time>
      </trkpt>
      <trkpt lat="45.08838" lon="5.12744">
        <ele>203.5</ele>
        <time>2022-09-17T14:42:54.000Z</time>
      </trkpt>
      <trkpt lat="45.08835" lon="5.12752">
        <ele>203.3</ele>
        <time>2022-09-17T14:42:55.000Z</time>
      </trkpt>
      <trkpt lat="45.08833" lon="5.1276">
        <ele>203.3</ele>
        <time>2022-09-17T14:42:56.000Z</time>
      </trkpt>
      <trkpt lat="45.08831" lon="5.12768">
        <ele>203.4</ele>
        <time>2022-09-17T14:42:57.000Z</time>
      </trkpt>
      <trkpt lat="45.08829" lon="5.12775">
        <ele>203.5</ele>
        <time>2022-09-17T14:42:58.000Z</time>
      </trkpt>
      <trkpt lat="45.08827" lon="5.12782">
        <ele>203.4</ele>
        <time>2022-09-17T14:42:59.000Z</time>
      </trkpt>
      <trkpt lat="45.08825" lon="5.12789">
        <ele>203.4</ele>
        <time>2022-09-17T14:43:00.000Z</time>
      </trkpt>
      <trkpt lat="45.08823" lon="5.12797">
        <ele>203.3</ele>
        <time>2022-09-17T14:43:01.000Z</time>
      </trkpt>
      <trkpt lat="45.08822" lon="5.12804">
        <ele>203.3</ele>
        <time>2022-09-17T14:43:02.000Z</time>
      </trkpt>
      <trkpt lat="45.0882" lon="5.12812">
        <ele>203</ele>
        <time>2022-09-17T14:43:03.000Z</time>
      </trkpt>
      <trkpt lat="45.08819" lon="5.1282">
        <ele>202.7</ele>
        <time>2022-09-17T14:43:04.000Z</time>
      </trkpt>
      <trkpt lat="45.08818" lon="5.12828">
        <ele>202.4</ele>
        <time>2022-09-17T14:43:05.000Z</time>
      </trkpt>
      <trkpt lat="45.08816" lon="5.12836">
        <ele>202.2</ele>
        <time>2022-09-17T14:43:06.000Z</time>
      </trkpt>
      <trkpt lat="45.08815" lon="5.12844">
        <ele>202.1</ele>
        <time>2022-09-17T14:43:07.000Z</time>
      </trkpt>
      <trkpt lat="45.08814" lon="5.12852">
        <ele>202.1</ele>
        <time>2022-09-17T14:43:08.000Z</time>
      </trkpt>
      <trkpt lat="45.08812" lon="5.12861">
        <ele>202</ele>
        <time>2022-09-17T14:43:09.000Z</time>
      </trkpt>
      <trkpt lat="45.08811" lon="5.12868">
        <ele>201.7</ele>
        <time>2022-09-17T14:43:10.000Z</time>
      </trkpt>
      <trkpt lat="45.08809" lon="5.12877">
        <ele>201.5</ele>
        <time>2022-09-17T14:43:11.000Z</time>
      </trkpt>
      <trkpt lat="45.08808" lon="5.12885">
        <ele>201.3</ele>
        <time>2022-09-17T14:43:12.000Z</time>
      </trkpt>
      <trkpt lat="45.08806" lon="5.12893">
        <ele>201.1</ele>
        <time>2022-09-17T14:43:13.000Z</time>
      </trkpt>
      <trkpt lat="45.08805" lon="5.12901">
        <ele>201</ele>
        <time>2022-09-17T14:43:14.000Z</time>
      </trkpt>
      <trkpt lat="45.08803" lon="5.1291">
        <ele>200.9</ele>
        <time>2022-09-17T14:43:15.000Z</time>
      </trkpt>
      <trkpt lat="45.08801" lon="5.12918">
        <ele>200.8</ele>
        <time>2022-09-17T14:43:16.000Z</time>
      </trkpt>
      <trkpt lat="45.088" lon="5.12927">
        <ele>200.4</ele>
        <time>2022-09-17T14:43:17.000Z</time>
      </trkpt>
      <trkpt lat="45.08798" lon="5.12935">
        <ele>200</ele>
        <time>2022-09-17T14:43:18.000Z</time>
      </trkpt>
      <trkpt lat="45.08796" lon="5.12943">
        <ele>199.7</ele>
        <time>2022-09-17T14:43:19.000Z</time>
      </trkpt>
      <trkpt lat="45.08795" lon="5.12951">
        <ele>199.8</ele>
        <time>2022-09-17T14:43:20.000Z</time>
      </trkpt>
      <trkpt lat="45.08795" lon="5.1296">
        <ele>200</ele>
        <time>2022-09-17T14:43:21.000Z</time>
      </trkpt>
      <trkpt lat="45.08795" lon="5.12968">
        <ele>200.1</ele>
        <time>2022-09-17T14:43:22.000Z</time>
      </trkpt>
      <trkpt lat="45.08795" lon="5.12976">
        <ele>200.1</ele>
        <time>2022-09-17T14:43:23.000Z</time>
      </trkpt>
      <trkpt lat="45.08795" lon="5.12983">
        <ele>200</ele>
        <time>2022-09-17T14:43:24.000Z</time>
      </trkpt>
      <trkpt lat="45.08794" lon="5.12989">
        <ele>199.8</ele>
        <time>2022-09-17T14:43:25.000Z</time>
      </trkpt>
      <trkpt lat="45.08794" lon="5.12996">
        <ele>199.7</ele>
        <time>2022-09-17T14:43:26.000Z</time>
      </trkpt>
      <trkpt lat="45.08794" lon="5.13003">
        <ele>199.5</ele>
        <time>2022-09-17T14:43:27.000Z</time>
      </trkpt>
      <trkpt lat="45.08795" lon="5.1301">
        <ele>199.4</ele>
        <time>2022-09-17T14:43:28.000Z</time>
      </trkpt>
      <trkpt lat="45.08796" lon="5.13017">
        <ele>199.3</ele>
        <time>2022-09-17T14:43:29.000Z</time>
      </trkpt>
      <trkpt lat="45.08796" lon="5.13023">
        <ele>199.1</ele>
        <time>2022-09-17T14:43:30.000Z</time>
      </trkpt>
      <trkpt lat="45.08797" lon="5.13029">
        <ele>199</ele>
        <time>2022-09-17T14:43:31.000Z</time>
      </trkpt>
      <trkpt lat="45.08795" lon="5.13035">
        <ele>198.9</ele>
        <time>2022-09-17T14:43:32.000Z</time>
      </trkpt>
      <trkpt lat="45.08794" lon="5.1304">
        <ele>198.8</ele>
        <time>2022-09-17T14:43:33.000Z</time>
      </trkpt>
      <trkpt lat="45.08793" lon="5.13046">
        <ele>198.7</ele>
        <time>2022-09-17T14:43:34.000Z</time>
      </trkpt>
      <trkpt lat="45.08791" lon="5.13051">
        <ele>198.6</ele>
        <time>2022-09-17T14:43:35.000Z</time>
      </trkpt>
      <trkpt lat="45.08789" lon="5.13056">
        <ele>198.4</ele>
        <time>2022-09-17T14:43:36.000Z</time>
      </trkpt>
      <trkpt lat="45.08788" lon="5.13062">
        <ele>198.5</ele>
        <time>2022-09-17T14:43:37.000Z</time>
      </trkpt>
      <trkpt lat="45.08786" lon="5.13068">
        <ele>198.6</ele>
        <time>2022-09-17T14:43:38.000Z</time>
      </trkpt>
      <trkpt lat="45.08786" lon="5.13076">
        <ele>198.8</ele>
        <time>2022-09-17T14:43:39.000Z</time>
      </trkpt>
      <trkpt lat="45.08785" lon="5.13083">
        <ele>199</ele>
        <time>2022-09-17T14:43:40.000Z</time>
      </trkpt>
      <trkpt lat="45.08785" lon="5.1309">
        <ele>199.1</ele>
        <time>2022-09-17T14:43:41.000Z</time>
      </trkpt>
      <trkpt lat="45.08785" lon="5.13098">
        <ele>199.1</ele>
        <time>2022-09-17T14:43:42.000Z</time>
      </trkpt>
      <trkpt lat="45.08784" lon="5.13105">
        <ele>199.2</ele>
        <time>2022-09-17T14:43:43.000Z</time>
      </trkpt>
      <trkpt lat="45.08782" lon="5.13112">
        <ele>199.2</ele>
        <time>2022-09-17T14:43:44.000Z</time>
      </trkpt>
      <trkpt lat="45.0878" lon="5.13118">
        <ele>199.1</ele>
        <time>2022-09-17T14:43:45.000Z</time>
      </trkpt>
      <trkpt lat="45.08778" lon="5.13125">
        <ele>199</ele>
        <time>2022-09-17T14:43:46.000Z</time>
      </trkpt>
      <trkpt lat="45.08777" lon="5.13133">
        <ele>199</ele>
        <time>2022-09-17T14:43:47.000Z</time>
      </trkpt>
      <trkpt lat="45.08774" lon="5.1314">
        <ele>199</ele>
        <time>2022-09-17T14:43:48.000Z</time>
      </trkpt>
      <trkpt lat="45.08772" lon="5.13146">
        <ele>199.2</ele>
        <time>2022-09-17T14:43:49.000Z</time>
      </trkpt>
      <trkpt lat="45.08769" lon="5.13152">
        <ele>199.3</ele>
        <time>2022-09-17T14:43:50.000Z</time>
      </trkpt>
      <trkpt lat="45.08766" lon="5.13157">
        <ele>199.4</ele>
        <time>2022-09-17T14:43:51.000Z</time>
      </trkpt>
      <trkpt lat="45.08762" lon="5.13163">
        <ele>199.4</ele>
        <time>2022-09-17T14:43:52.000Z</time>
      </trkpt>
      <trkpt lat="45.08759" lon="5.13168">
        <ele>199.3</ele>
        <time>2022-09-17T14:43:53.000Z</time>
      </trkpt>
      <trkpt lat="45.08755" lon="5.13173">
        <ele>199.2</ele>
        <time>2022-09-17T14:43:54.000Z</time>
      </trkpt>
      <trkpt lat="45.08752" lon="5.1318">
        <ele>199.1</ele>
        <time>2022-09-17T14:43:55.000Z</time>
      </trkpt>
      <trkpt lat="45.08749" lon="5.13186">
        <ele>199</ele>
        <time>2022-09-17T14:43:56.000Z</time>
      </trkpt>
      <trkpt lat="45.08746" lon="5.13193">
        <ele>199</ele>
        <time>2022-09-17T14:43:57.000Z</time>
      </trkpt>
      <trkpt lat="45.08744" lon="5.13201">
        <ele>199</ele>
        <time>2022-09-17T14:43:58.000Z</time>
      </trkpt>
      <trkpt lat="45.0874" lon="5.13207">
        <ele>199</ele>
        <time>2022-09-17T14:43:59.000Z</time>
      </trkpt>
      <trkpt lat="45.08736" lon="5.13213">
        <ele>199</ele>
        <time>2022-09-17T14:44:00.000Z</time>
      </trkpt>
      <trkpt lat="45.08732" lon="5.1322">
        <ele>199</ele>
        <time>2022-09-17T14:44:01.000Z</time>
      </trkpt>
      <trkpt lat="45.0873" lon="5.13227">
        <ele>199</ele>
        <time>2022-09-17T14:44:02.000Z</time>
      </trkpt>
      <trkpt lat="45.08727" lon="5.13234">
        <ele>199.1</ele>
        <time>2022-09-17T14:44:03.000Z</time>
      </trkpt>
      <trkpt lat="45.08724" lon="5.13241">
        <ele>199</ele>
        <time>2022-09-17T14:44:04.000Z</time>
      </trkpt>
      <trkpt lat="45.08721" lon="5.13248">
        <ele>199</ele>
        <time>2022-09-17T14:44:05.000Z</time>
      </trkpt>
      <trkpt lat="45.08718" lon="5.13255">
        <ele>199</ele>
        <time>2022-09-17T14:44:06.000Z</time>
      </trkpt>
      <trkpt lat="45.08716" lon="5.13262">
        <ele>199</ele>
        <time>2022-09-17T14:44:07.000Z</time>
      </trkpt>
      <trkpt lat="45.08714" lon="5.13269">
        <ele>199</ele>
        <time>2022-09-17T14:44:08.000Z</time>
      </trkpt>
      <trkpt lat="45.08711" lon="5.13276">
        <ele>199</ele>
        <time>2022-09-17T14:44:09.000Z</time>
      </trkpt>
      <trkpt lat="45.08708" lon="5.13283">
        <ele>199.1</ele>
        <time>2022-09-17T14:44:10.000Z</time>
      </trkpt>
      <trkpt lat="45.08705" lon="5.1329">
        <ele>199.2</ele>
        <time>2022-09-17T14:44:11.000Z</time>
      </trkpt>
      <trkpt lat="45.08702" lon="5.13297">
        <ele>199.2</ele>
        <time>2022-09-17T14:44:12.000Z</time>
      </trkpt>
      <trkpt lat="45.08699" lon="5.13304">
        <ele>199.2</ele>
        <time>2022-09-17T14:44:13.000Z</time>
      </trkpt>
      <trkpt lat="45.08697" lon="5.13311">
        <ele>199.3</ele>
        <time>2022-09-17T14:44:14.000Z</time>
      </trkpt>
      <trkpt lat="45.08694" lon="5.13318">
        <ele>199.4</ele>
        <time>2022-09-17T14:44:15.000Z</time>
      </trkpt>
      <trkpt lat="45.08691" lon="5.13325">
        <ele>199.6</ele>
        <time>2022-09-17T14:44:16.000Z</time>
      </trkpt>
      <trkpt lat="45.08688" lon="5.13332">
        <ele>199.7</ele>
        <time>2022-09-17T14:44:17.000Z</time>
      </trkpt>
      <trkpt lat="45.08685" lon="5.13338">
        <ele>199.7</ele>
        <time>2022-09-17T14:44:18.000Z</time>
      </trkpt>
      <trkpt lat="45.08682" lon="5.13345">
        <ele>199.7</ele>
        <time>2022-09-17T14:44:19.000Z</time>
      </trkpt>
      <trkpt lat="45.0868" lon="5.13352">
        <ele>199.8</ele>
        <time>2022-09-17T14:44:20.000Z</time>
      </trkpt>
      <trkpt lat="45.08677" lon="5.1336">
        <ele>200</ele>
        <time>2022-09-17T14:44:21.000Z</time>
      </trkpt>
      <trkpt lat="45.08674" lon="5.13366">
        <ele>200</ele>
        <time>2022-09-17T14:44:22.000Z</time>
      </trkpt>
      <trkpt lat="45.08671" lon="5.13374">
        <ele>200</ele>
        <time>2022-09-17T14:44:23.000Z</time>
      </trkpt>
      <trkpt lat="45.08668" lon="5.13381">
        <ele>200</ele>
        <time>2022-09-17T14:44:24.000Z</time>
      </trkpt>
      <trkpt lat="45.08665" lon="5.13388">
        <ele>199.9</ele>
        <time>2022-09-17T14:44:25.000Z</time>
      </trkpt>
      <trkpt lat="45.08662" lon="5.13394">
        <ele>199.8</ele>
        <time>2022-09-17T14:44:26.000Z</time>
      </trkpt>
      <trkpt lat="45.08659" lon="5.13401">
        <ele>199.7</ele>
        <time>2022-09-17T14:44:27.000Z</time>
      </trkpt>
      <trkpt lat="45.08657" lon="5.13408">
        <ele>199.6</ele>
        <time>2022-09-17T14:44:28.000Z</time>
      </trkpt>
      <trkpt lat="45.08654" lon="5.13414">
        <ele>199.6</ele>
        <time>2022-09-17T14:44:29.000Z</time>
      </trkpt>
      <trkpt lat="45.08652" lon="5.1342">
        <ele>199.5</ele>
        <time>2022-09-17T14:44:30.000Z</time>
      </trkpt>
      <trkpt lat="45.08649" lon="5.13426">
        <ele>199.6</ele>
        <time>2022-09-17T14:44:31.000Z</time>
      </trkpt>
      <trkpt lat="45.08646" lon="5.13432">
        <ele>199.7</ele>
        <time>2022-09-17T14:44:32.000Z</time>
      </trkpt>
      <trkpt lat="45.08643" lon="5.13438">
        <ele>199.8</ele>
        <time>2022-09-17T14:44:33.000Z</time>
      </trkpt>
      <trkpt lat="45.0864" lon="5.13443">
        <ele>200</ele>
        <time>2022-09-17T14:44:34.000Z</time>
      </trkpt>
      <trkpt lat="45.08638" lon="5.13449">
        <ele>200</ele>
        <time>2022-09-17T14:44:35.000Z</time>
      </trkpt>
      <trkpt lat="45.08636" lon="5.13454">
        <ele>199.9</ele>
        <time>2022-09-17T14:44:36.000Z</time>
      </trkpt>
      <trkpt lat="45.08633" lon="5.13459">
        <ele>199.9</ele>
        <time>2022-09-17T14:44:37.000Z</time>
      </trkpt>
      <trkpt lat="45.0863" lon="5.13465">
        <ele>199.9</ele>
        <time>2022-09-17T14:44:38.000Z</time>
      </trkpt>
      <trkpt lat="45.08627" lon="5.1347">
        <ele>200</ele>
        <time>2022-09-17T14:44:39.000Z</time>
      </trkpt>
      <trkpt lat="45.08625" lon="5.13476">
        <ele>199.9</ele>
        <time>2022-09-17T14:44:40.000Z</time>
      </trkpt>
      <trkpt lat="45.08623" lon="5.13483">
        <ele>199.6</ele>
        <time>2022-09-17T14:44:41.000Z</time>
      </trkpt>
      <trkpt lat="45.08621" lon="5.1349">
        <ele>199.4</ele>
        <time>2022-09-17T14:44:42.000Z</time>
      </trkpt>
      <trkpt lat="45.08619" lon="5.13497">
        <ele>199.1</ele>
        <time>2022-09-17T14:44:43.000Z</time>
      </trkpt>
      <trkpt lat="45.08616" lon="5.13504">
        <ele>199</ele>
        <time>2022-09-17T14:44:44.000Z</time>
      </trkpt>
      <trkpt lat="45.08614" lon="5.13511">
        <ele>199</ele>
        <time>2022-09-17T14:44:45.000Z</time>
      </trkpt>
      <trkpt lat="45.08611" lon="5.13519">
        <ele>199</ele>
        <time>2022-09-17T14:44:46.000Z</time>
      </trkpt>
      <trkpt lat="45.08608" lon="5.13527">
        <ele>198.9</ele>
        <time>2022-09-17T14:44:47.000Z</time>
      </trkpt>
      <trkpt lat="45.08604" lon="5.13534">
        <ele>198.8</ele>
        <time>2022-09-17T14:44:48.000Z</time>
      </trkpt>
      <trkpt lat="45.08601" lon="5.13542">
        <ele>198.8</ele>
        <time>2022-09-17T14:44:49.000Z</time>
      </trkpt>
      <trkpt lat="45.08597" lon="5.1355">
        <ele>198.9</ele>
        <time>2022-09-17T14:44:50.000Z</time>
      </trkpt>
      <trkpt lat="45.08594" lon="5.13558">
        <ele>199.1</ele>
        <time>2022-09-17T14:44:51.000Z</time>
      </trkpt>
      <trkpt lat="45.0859" lon="5.13566">
        <ele>199.3</ele>
        <time>2022-09-17T14:44:52.000Z</time>
      </trkpt>
      <trkpt lat="45.08587" lon="5.13573">
        <ele>199.6</ele>
        <time>2022-09-17T14:44:53.000Z</time>
      </trkpt>
      <trkpt lat="45.08583" lon="5.13581">
        <ele>199.9</ele>
        <time>2022-09-17T14:44:54.000Z</time>
      </trkpt>
      <trkpt lat="45.08578" lon="5.13588">
        <ele>199.7</ele>
        <time>2022-09-17T14:44:55.000Z</time>
      </trkpt>
      <trkpt lat="45.08574" lon="5.13596">
        <ele>199.5</ele>
        <time>2022-09-17T14:44:56.000Z</time>
      </trkpt>
      <trkpt lat="45.08569" lon="5.13603">
        <ele>199.3</ele>
        <time>2022-09-17T14:44:57.000Z</time>
      </trkpt>
      <trkpt lat="45.08564" lon="5.1361">
        <ele>199.3</ele>
        <time>2022-09-17T14:44:58.000Z</time>
      </trkpt>
      <trkpt lat="45.08559" lon="5.13617">
        <ele>199.3</ele>
        <time>2022-09-17T14:44:59.000Z</time>
      </trkpt>
      <trkpt lat="45.08554" lon="5.13624">
        <ele>199.4</ele>
        <time>2022-09-17T14:45:00.000Z</time>
      </trkpt>
      <trkpt lat="45.08549" lon="5.13631">
        <ele>199.3</ele>
        <time>2022-09-17T14:45:01.000Z</time>
      </trkpt>
      <trkpt lat="45.08544" lon="5.13637">
        <ele>199.1</ele>
        <time>2022-09-17T14:45:02.000Z</time>
      </trkpt>
      <trkpt lat="45.08539" lon="5.13644">
        <ele>199.1</ele>
        <time>2022-09-17T14:45:03.000Z</time>
      </trkpt>
      <trkpt lat="45.08533" lon="5.13651">
        <ele>199.3</ele>
        <time>2022-09-17T14:45:04.000Z</time>
      </trkpt>
      <trkpt lat="45.08528" lon="5.13658">
        <ele>199.4</ele>
        <time>2022-09-17T14:45:05.000Z</time>
      </trkpt>
      <trkpt lat="45.08523" lon="5.13665">
        <ele>199.6</ele>
        <time>2022-09-17T14:45:06.000Z</time>
      </trkpt>
      <trkpt lat="45.08518" lon="5.13671">
        <ele>199.6</ele>
        <time>2022-09-17T14:45:07.000Z</time>
      </trkpt>
      <trkpt lat="45.08512" lon="5.13678">
        <ele>199.7</ele>
        <time>2022-09-17T14:45:08.000Z</time>
      </trkpt>
      <trkpt lat="45.08507" lon="5.13684">
        <ele>199.8</ele>
        <time>2022-09-17T14:45:09.000Z</time>
      </trkpt>
      <trkpt lat="45.08502" lon="5.13691">
        <ele>199.9</ele>
        <time>2022-09-17T14:45:10.000Z</time>
      </trkpt>
      <trkpt lat="45.08497" lon="5.13698">
        <ele>199.9</ele>
        <time>2022-09-17T14:45:11.000Z</time>
      </trkpt>
      <trkpt lat="45.08493" lon="5.13705">
        <ele>199.9</ele>
        <time>2022-09-17T14:45:12.000Z</time>
      </trkpt>
      <trkpt lat="45.08488" lon="5.13712">
        <ele>199.7</ele>
        <time>2022-09-17T14:45:13.000Z</time>
      </trkpt>
      <trkpt lat="45.08483" lon="5.13719">
        <ele>199.6</ele>
        <time>2022-09-17T14:45:14.000Z</time>
      </trkpt>
      <trkpt lat="45.08477" lon="5.13726">
        <ele>199.6</ele>
        <time>2022-09-17T14:45:15.000Z</time>
      </trkpt>
      <trkpt lat="45.08472" lon="5.13733">
        <ele>199.7</ele>
        <time>2022-09-17T14:45:16.000Z</time>
      </trkpt>
      <trkpt lat="45.08466" lon="5.1374">
        <ele>199.9</ele>
        <time>2022-09-17T14:45:17.000Z</time>
      </trkpt>
      <trkpt lat="45.08461" lon="5.13746">
        <ele>200</ele>
        <time>2022-09-17T14:45:18.000Z</time>
      </trkpt>
      <trkpt lat="45.08456" lon="5.13754">
        <ele>199.9</ele>
        <time>2022-09-17T14:45:19.000Z</time>
      </trkpt>
      <trkpt lat="45.0845" lon="5.13761">
        <ele>199.7</ele>
        <time>2022-09-17T14:45:20.000Z</time>
      </trkpt>
      <trkpt lat="45.08445" lon="5.13768">
        <ele>199.7</ele>
        <time>2022-09-17T14:45:21.000Z</time>
      </trkpt>
      <trkpt lat="45.08439" lon="5.13775">
        <ele>199.7</ele>
        <time>2022-09-17T14:45:22.000Z</time>
      </trkpt>
      <trkpt lat="45.08434" lon="5.13781">
        <ele>199.7</ele>
        <time>2022-09-17T14:45:23.000Z</time>
      </trkpt>
      <trkpt lat="45.08428" lon="5.13788">
        <ele>199.8</ele>
        <time>2022-09-17T14:45:24.000Z</time>
      </trkpt>
      <trkpt lat="45.08423" lon="5.13795">
        <ele>199.8</ele>
        <time>2022-09-17T14:45:25.000Z</time>
      </trkpt>
      <trkpt lat="45.08418" lon="5.13802">
        <ele>199.9</ele>
        <time>2022-09-17T14:45:26.000Z</time>
      </trkpt>
      <trkpt lat="45.08413" lon="5.13809">
        <ele>200</ele>
        <time>2022-09-17T14:45:27.000Z</time>
      </trkpt>
      <trkpt lat="45.08407" lon="5.13816">
        <ele>200</ele>
        <time>2022-09-17T14:45:28.000Z</time>
      </trkpt>
      <trkpt lat="45.08402" lon="5.13823">
        <ele>200.1</ele>
        <time>2022-09-17T14:45:29.000Z</time>
      </trkpt>
      <trkpt lat="45.08396" lon="5.1383">
        <ele>200.1</ele>
        <time>2022-09-17T14:45:30.000Z</time>
      </trkpt>
      <trkpt lat="45.08391" lon="5.13837">
        <ele>200.1</ele>
        <time>2022-09-17T14:45:31.000Z</time>
      </trkpt>
      <trkpt lat="45.08386" lon="5.13844">
        <ele>199.8</ele>
        <time>2022-09-17T14:45:32.000Z</time>
      </trkpt>
      <trkpt lat="45.0838" lon="5.13851">
        <ele>199.4</ele>
        <time>2022-09-17T14:45:33.000Z</time>
      </trkpt>
      <trkpt lat="45.08375" lon="5.13859">
        <ele>199</ele>
        <time>2022-09-17T14:45:34.000Z</time>
      </trkpt>
      <trkpt lat="45.0837" lon="5.13866">
        <ele>198.9</ele>
        <time>2022-09-17T14:45:35.000Z</time>
      </trkpt>
      <trkpt lat="45.08366" lon="5.13875">
        <ele>199.1</ele>
        <time>2022-09-17T14:45:36.000Z</time>
      </trkpt>
      <trkpt lat="45.08362" lon="5.13883">
        <ele>199.6</ele>
        <time>2022-09-17T14:45:37.000Z</time>
      </trkpt>
      <trkpt lat="45.08358" lon="5.13893">
        <ele>199.6</ele>
        <time>2022-09-17T14:45:38.000Z</time>
      </trkpt>
      <trkpt lat="45.08355" lon="5.13903">
        <ele>198.9</ele>
        <time>2022-09-17T14:45:39.000Z</time>
      </trkpt>
      <trkpt lat="45.08351" lon="5.13913">
        <ele>198.4</ele>
        <time>2022-09-17T14:45:40.000Z</time>
      </trkpt>
      <trkpt lat="45.08348" lon="5.13923">
        <ele>198.3</ele>
        <time>2022-09-17T14:45:41.000Z</time>
      </trkpt>
      <trkpt lat="45.08344" lon="5.13934">
        <ele>198.5</ele>
        <time>2022-09-17T14:45:42.000Z</time>
      </trkpt>
      <trkpt lat="45.08341" lon="5.13944">
        <ele>199</ele>
        <time>2022-09-17T14:45:43.000Z</time>
      </trkpt>
      <trkpt lat="45.08337" lon="5.13955">
        <ele>199</ele>
        <time>2022-09-17T14:45:44.000Z</time>
      </trkpt>
      <trkpt lat="45.08334" lon="5.13965">
        <ele>199</ele>
        <time>2022-09-17T14:45:45.000Z</time>
      </trkpt>
      <trkpt lat="45.08331" lon="5.13976">
        <ele>198.7</ele>
        <time>2022-09-17T14:45:46.000Z</time>
      </trkpt>
      <trkpt lat="45.08329" lon="5.13986">
        <ele>198.1</ele>
        <time>2022-09-17T14:45:47.000Z</time>
      </trkpt>
      <trkpt lat="45.08325" lon="5.13996">
        <ele>197.6</ele>
        <time>2022-09-17T14:45:48.000Z</time>
      </trkpt>
      <trkpt lat="45.08322" lon="5.14007">
        <ele>197.3</ele>
        <time>2022-09-17T14:45:49.000Z</time>
      </trkpt>
      <trkpt lat="45.08319" lon="5.14017">
        <ele>197.3</ele>
        <time>2022-09-17T14:45:50.000Z</time>
      </trkpt>
      <trkpt lat="45.08316" lon="5.14026">
        <ele>197.3</ele>
        <time>2022-09-17T14:45:51.000Z</time>
      </trkpt>
      <trkpt lat="45.08313" lon="5.14036">
        <ele>197.7</ele>
        <time>2022-09-17T14:45:52.000Z</time>
      </trkpt>
      <trkpt lat="45.0831" lon="5.14045">
        <ele>198.2</ele>
        <time>2022-09-17T14:45:53.000Z</time>
      </trkpt>
      <trkpt lat="45.08307" lon="5.14054">
        <ele>198.9</ele>
        <time>2022-09-17T14:45:54.000Z</time>
      </trkpt>
      <trkpt lat="45.08304" lon="5.14064">
        <ele>198.8</ele>
        <time>2022-09-17T14:45:55.000Z</time>
      </trkpt>
      <trkpt lat="45.08301" lon="5.14073">
        <ele>198.5</ele>
        <time>2022-09-17T14:45:56.000Z</time>
      </trkpt>
      <trkpt lat="45.08298" lon="5.14082">
        <ele>198.2</ele>
        <time>2022-09-17T14:45:57.000Z</time>
      </trkpt>
      <trkpt lat="45.08296" lon="5.14091">
        <ele>198</ele>
        <time>2022-09-17T14:45:58.000Z</time>
      </trkpt>
      <trkpt lat="45.08293" lon="5.14099">
        <ele>197.9</ele>
        <time>2022-09-17T14:45:59.000Z</time>
      </trkpt>
      <trkpt lat="45.08291" lon="5.14108">
        <ele>197.9</ele>
        <time>2022-09-17T14:46:00.000Z</time>
      </trkpt>
      <trkpt lat="45.08289" lon="5.14116">
        <ele>198</ele>
        <time>2022-09-17T14:46:01.000Z</time>
      </trkpt>
      <trkpt lat="45.08286" lon="5.14124">
        <ele>198.2</ele>
        <time>2022-09-17T14:46:02.000Z</time>
      </trkpt>
      <trkpt lat="45.08284" lon="5.14132">
        <ele>198.6</ele>
        <time>2022-09-17T14:46:03.000Z</time>
      </trkpt>
      <trkpt lat="45.08282" lon="5.1414">
        <ele>199</ele>
        <time>2022-09-17T14:46:04.000Z</time>
      </trkpt>
      <trkpt lat="45.0828" lon="5.14147">
        <ele>199.3</ele>
        <time>2022-09-17T14:46:05.000Z</time>
      </trkpt>
      <trkpt lat="45.08278" lon="5.14154">
        <ele>199.6</ele>
        <time>2022-09-17T14:46:06.000Z</time>
      </trkpt>
      <trkpt lat="45.08276" lon="5.14162">
        <ele>199.6</ele>
        <time>2022-09-17T14:46:07.000Z</time>
      </trkpt>
      <trkpt lat="45.08274" lon="5.1417">
        <ele>199.4</ele>
        <time>2022-09-17T14:46:08.000Z</time>
      </trkpt>
      <trkpt lat="45.08272" lon="5.14178">
        <ele>199.2</ele>
        <time>2022-09-17T14:46:09.000Z</time>
      </trkpt>
      <trkpt lat="45.0827" lon="5.14186">
        <ele>199</ele>
        <time>2022-09-17T14:46:10.000Z</time>
      </trkpt>
      <trkpt lat="45.08267" lon="5.14193">
        <ele>198.8</ele>
        <time>2022-09-17T14:46:11.000Z</time>
      </trkpt>
      <trkpt lat="45.08264" lon="5.14201">
        <ele>198.9</ele>
        <time>2022-09-17T14:46:12.000Z</time>
      </trkpt>
      <trkpt lat="45.08262" lon="5.14209">
        <ele>199.2</ele>
        <time>2022-09-17T14:46:13.000Z</time>
      </trkpt>
      <trkpt lat="45.0826" lon="5.14217">
        <ele>199.6</ele>
        <time>2022-09-17T14:46:14.000Z</time>
      </trkpt>
      <trkpt lat="45.08258" lon="5.14225">
        <ele>200.1</ele>
        <time>2022-09-17T14:46:15.000Z</time>
      </trkpt>
      <trkpt lat="45.08256" lon="5.14232">
        <ele>200.5</ele>
        <time>2022-09-17T14:46:16.000Z</time>
      </trkpt>
      <trkpt lat="45.08254" lon="5.14239">
        <ele>201</ele>
        <time>2022-09-17T14:46:17.000Z</time>
      </trkpt>
      <trkpt lat="45.08253" lon="5.14246">
        <ele>201.5</ele>
        <time>2022-09-17T14:46:18.000Z</time>
      </trkpt>
      <trkpt lat="45.08251" lon="5.14252">
        <ele>202</ele>
        <time>2022-09-17T14:46:19.000Z</time>
      </trkpt>
      <trkpt lat="45.08249" lon="5.14259">
        <ele>201.8</ele>
        <time>2022-09-17T14:46:20.000Z</time>
      </trkpt>
      <trkpt lat="45.08247" lon="5.14265">
        <ele>201.6</ele>
        <time>2022-09-17T14:46:21.000Z</time>
      </trkpt>
      <trkpt lat="45.08245" lon="5.14271">
        <ele>201.4</ele>
        <time>2022-09-17T14:46:22.000Z</time>
      </trkpt>
      <trkpt lat="45.08243" lon="5.14278">
        <ele>201.2</ele>
        <time>2022-09-17T14:46:23.000Z</time>
      </trkpt>
      <trkpt lat="45.08241" lon="5.14284">
        <ele>201.4</ele>
        <time>2022-09-17T14:46:24.000Z</time>
      </trkpt>
      <trkpt lat="45.08239" lon="5.1429">
        <ele>201.7</ele>
        <time>2022-09-17T14:46:25.000Z</time>
      </trkpt>
      <trkpt lat="45.08237" lon="5.14296">
        <ele>201.9</ele>
        <time>2022-09-17T14:46:26.000Z</time>
      </trkpt>
      <trkpt lat="45.08235" lon="5.14302">
        <ele>202.1</ele>
        <time>2022-09-17T14:46:27.000Z</time>
      </trkpt>
      <trkpt lat="45.08232" lon="5.14308">
        <ele>202.1</ele>
        <time>2022-09-17T14:46:28.000Z</time>
      </trkpt>
      <trkpt lat="45.08229" lon="5.14314">
        <ele>202.2</ele>
        <time>2022-09-17T14:46:29.000Z</time>
      </trkpt>
      <trkpt lat="45.08226" lon="5.14321">
        <ele>202.4</ele>
        <time>2022-09-17T14:46:30.000Z</time>
      </trkpt>
      <trkpt lat="45.08224" lon="5.14327">
        <ele>202.7</ele>
        <time>2022-09-17T14:46:31.000Z</time>
      </trkpt>
      <trkpt lat="45.08222" lon="5.14334">
        <ele>203</ele>
        <time>2022-09-17T14:46:32.000Z</time>
      </trkpt>
      <trkpt lat="45.0822" lon="5.14341">
        <ele>202.6</ele>
        <time>2022-09-17T14:46:33.000Z</time>
      </trkpt>
      <trkpt lat="45.08217" lon="5.14347">
        <ele>202.3</ele>
        <time>2022-09-17T14:46:34.000Z</time>
      </trkpt>
      <trkpt lat="45.08214" lon="5.14354">
        <ele>202.1</ele>
        <time>2022-09-17T14:46:35.000Z</time>
      </trkpt>
      <trkpt lat="45.08211" lon="5.1436">
        <ele>201.8</ele>
        <time>2022-09-17T14:46:36.000Z</time>
      </trkpt>
      <trkpt lat="45.08209" lon="5.14367">
        <ele>201.7</ele>
        <time>2022-09-17T14:46:37.000Z</time>
      </trkpt>
      <trkpt lat="45.08207" lon="5.14374">
        <ele>201.6</ele>
        <time>2022-09-17T14:46:38.000Z</time>
      </trkpt>
      <trkpt lat="45.08205" lon="5.14381">
        <ele>201.4</ele>
        <time>2022-09-17T14:46:39.000Z</time>
      </trkpt>
      <trkpt lat="45.08202" lon="5.14388">
        <ele>201.1</ele>
        <time>2022-09-17T14:46:40.000Z</time>
      </trkpt>
      <trkpt lat="45.082" lon="5.14395">
        <ele>201.3</ele>
        <time>2022-09-17T14:46:41.000Z</time>
      </trkpt>
      <trkpt lat="45.08197" lon="5.14402">
        <ele>201.7</ele>
        <time>2022-09-17T14:46:42.000Z</time>
      </trkpt>
      <trkpt lat="45.08194" lon="5.14409">
        <ele>202.1</ele>
        <time>2022-09-17T14:46:43.000Z</time>
      </trkpt>
      <trkpt lat="45.08192" lon="5.14415">
        <ele>202.6</ele>
        <time>2022-09-17T14:46:44.000Z</time>
      </trkpt>
      <trkpt lat="45.0819" lon="5.14422">
        <ele>202.5</ele>
        <time>2022-09-17T14:46:45.000Z</time>
      </trkpt>
      <trkpt lat="45.08187" lon="5.14429">
        <ele>202.3</ele>
        <time>2022-09-17T14:46:46.000Z</time>
      </trkpt>
      <trkpt lat="45.08185" lon="5.14436">
        <ele>202.2</ele>
        <time>2022-09-17T14:46:47.000Z</time>
      </trkpt>
      <trkpt lat="45.08182" lon="5.14443">
        <ele>202.1</ele>
        <time>2022-09-17T14:46:48.000Z</time>
      </trkpt>
      <trkpt lat="45.0818" lon="5.1445">
        <ele>202.1</ele>
        <time>2022-09-17T14:46:49.000Z</time>
      </trkpt>
      <trkpt lat="45.08178" lon="5.14456">
        <ele>202.1</ele>
        <time>2022-09-17T14:46:50.000Z</time>
      </trkpt>
      <trkpt lat="45.08177" lon="5.14462">
        <ele>202.1</ele>
        <time>2022-09-17T14:46:51.000Z</time>
      </trkpt>
      <trkpt lat="45.08175" lon="5.14468">
        <ele>202.2</ele>
        <time>2022-09-17T14:46:52.000Z</time>
      </trkpt>
      <trkpt lat="45.08173" lon="5.14473">
        <ele>202.3</ele>
        <time>2022-09-17T14:46:53.000Z</time>
      </trkpt>
      <trkpt lat="45.08172" lon="5.14478">
        <ele>202.5</ele>
        <time>2022-09-17T14:46:54.000Z</time>
      </trkpt>
      <trkpt lat="45.08171" lon="5.14482">
        <ele>202.8</ele>
        <time>2022-09-17T14:46:55.000Z</time>
      </trkpt>
      <trkpt lat="45.08171" lon="5.14487">
        <ele>203.1</ele>
        <time>2022-09-17T14:46:56.000Z</time>
      </trkpt>
      <trkpt lat="45.08171" lon="5.14491">
        <ele>203.4</ele>
        <time>2022-09-17T14:46:57.000Z</time>
      </trkpt>
      <trkpt lat="45.08171" lon="5.14496">
        <ele>203.7</ele>
        <time>2022-09-17T14:46:58.000Z</time>
      </trkpt>
      <trkpt lat="45.08169" lon="5.145">
        <ele>204</ele>
        <time>2022-09-17T14:46:59.000Z</time>
      </trkpt>
      <trkpt lat="45.08168" lon="5.14503">
        <ele>203.9</ele>
        <time>2022-09-17T14:47:00.000Z</time>
      </trkpt>
      <trkpt lat="45.08166" lon="5.14507">
        <ele>203.7</ele>
        <time>2022-09-17T14:47:01.000Z</time>
      </trkpt>
      <trkpt lat="45.08166" lon="5.14511">
        <ele>203.5</ele>
        <time>2022-09-17T14:47:02.000Z</time>
      </trkpt>
      <trkpt lat="45.08165" lon="5.14517">
        <ele>203.3</ele>
        <time>2022-09-17T14:47:03.000Z</time>
      </trkpt>
      <trkpt lat="45.08163" lon="5.14522">
        <ele>202.9</ele>
        <time>2022-09-17T14:47:04.000Z</time>
      </trkpt>
      <trkpt lat="45.0816" lon="5.14529">
        <ele>202.5</ele>
        <time>2022-09-17T14:47:05.000Z</time>
      </trkpt>
      <trkpt lat="45.08159" lon="5.14536">
        <ele>202.3</ele>
        <time>2022-09-17T14:47:06.000Z</time>
      </trkpt>
      <trkpt lat="45.08157" lon="5.14543">
        <ele>202.1</ele>
        <time>2022-09-17T14:47:07.000Z</time>
      </trkpt>
      <trkpt lat="45.08155" lon="5.14551">
        <ele>201.8</ele>
        <time>2022-09-17T14:47:08.000Z</time>
      </trkpt>
      <trkpt lat="45.08153" lon="5.14559">
        <ele>201.6</ele>
        <time>2022-09-17T14:47:09.000Z</time>
      </trkpt>
      <trkpt lat="45.08151" lon="5.14567">
        <ele>201.5</ele>
        <time>2022-09-17T14:47:10.000Z</time>
      </trkpt>
      <trkpt lat="45.08149" lon="5.14576">
        <ele>201.3</ele>
        <time>2022-09-17T14:47:11.000Z</time>
      </trkpt>
      <trkpt lat="45.08146" lon="5.14584">
        <ele>201.1</ele>
        <time>2022-09-17T14:47:12.000Z</time>
      </trkpt>
      <trkpt lat="45.08143" lon="5.14593">
        <ele>201</ele>
        <time>2022-09-17T14:47:13.000Z</time>
      </trkpt>
      <trkpt lat="45.08141" lon="5.14601">
        <ele>200.9</ele>
        <time>2022-09-17T14:47:14.000Z</time>
      </trkpt>
      <trkpt lat="45.08138" lon="5.1461">
        <ele>200.9</ele>
        <time>2022-09-17T14:47:15.000Z</time>
      </trkpt>
      <trkpt lat="45.08135" lon="5.14618">
        <ele>201</ele>
        <time>2022-09-17T14:47:16.000Z</time>
      </trkpt>
      <trkpt lat="45.08133" lon="5.14627">
        <ele>201</ele>
        <time>2022-09-17T14:47:17.000Z</time>
      </trkpt>
      <trkpt lat="45.0813" lon="5.14635">
        <ele>200.9</ele>
        <time>2022-09-17T14:47:18.000Z</time>
      </trkpt>
      <trkpt lat="45.08127" lon="5.14643">
        <ele>200.7</ele>
        <time>2022-09-17T14:47:19.000Z</time>
      </trkpt>
      <trkpt lat="45.08123" lon="5.14652">
        <ele>200.5</ele>
        <time>2022-09-17T14:47:20.000Z</time>
      </trkpt>
      <trkpt lat="45.0812" lon="5.1466">
        <ele>200.2</ele>
        <time>2022-09-17T14:47:21.000Z</time>
      </trkpt>
      <trkpt lat="45.08117" lon="5.14668">
        <ele>199.8</ele>
        <time>2022-09-17T14:47:22.000Z</time>
      </trkpt>
      <trkpt lat="45.08113" lon="5.14676">
        <ele>199.6</ele>
        <time>2022-09-17T14:47:23.000Z</time>
      </trkpt>
      <trkpt lat="45.0811" lon="5.14684">
        <ele>199.5</ele>
        <time>2022-09-17T14:47:24.000Z</time>
      </trkpt>
      <trkpt lat="45.08106" lon="5.14692">
        <ele>199.6</ele>
        <time>2022-09-17T14:47:25.000Z</time>
      </trkpt>
      <trkpt lat="45.08103" lon="5.147">
        <ele>199.5</ele>
        <time>2022-09-17T14:47:26.000Z</time>
      </trkpt>
      <trkpt lat="45.08099" lon="5.14708">
        <ele>199.4</ele>
        <time>2022-09-17T14:47:27.000Z</time>
      </trkpt>
      <trkpt lat="45.08096" lon="5.14717">
        <ele>199.3</ele>
        <time>2022-09-17T14:47:28.000Z</time>
      </trkpt>
      <trkpt lat="45.08092" lon="5.14726">
        <ele>199.1</ele>
        <time>2022-09-17T14:47:29.000Z</time>
      </trkpt>
      <trkpt lat="45.08089" lon="5.14734">
        <ele>199.1</ele>
        <time>2022-09-17T14:47:30.000Z</time>
      </trkpt>
      <trkpt lat="45.08086" lon="5.14743">
        <ele>199.1</ele>
        <time>2022-09-17T14:47:31.000Z</time>
      </trkpt>
      <trkpt lat="45.08083" lon="5.14752">
        <ele>199.1</ele>
        <time>2022-09-17T14:47:32.000Z</time>
      </trkpt>
      <trkpt lat="45.0808" lon="5.14761">
        <ele>199</ele>
        <time>2022-09-17T14:47:33.000Z</time>
      </trkpt>
      <trkpt lat="45.08077" lon="5.1477">
        <ele>198.9</ele>
        <time>2022-09-17T14:47:34.000Z</time>
      </trkpt>
      <trkpt lat="45.08074" lon="5.1478">
        <ele>198.6</ele>
        <time>2022-09-17T14:47:35.000Z</time>
      </trkpt>
      <trkpt lat="45.0807" lon="5.14789">
        <ele>198.5</ele>
        <time>2022-09-17T14:47:36.000Z</time>
      </trkpt>
      <trkpt lat="45.08067" lon="5.14799">
        <ele>198.4</ele>
        <time>2022-09-17T14:47:37.000Z</time>
      </trkpt>
      <trkpt lat="45.08063" lon="5.14808">
        <ele>198.2</ele>
        <time>2022-09-17T14:47:38.000Z</time>
      </trkpt>
      <trkpt lat="45.0806" lon="5.14818">
        <ele>198</ele>
        <time>2022-09-17T14:47:39.000Z</time>
      </trkpt>
      <trkpt lat="45.08057" lon="5.14827">
        <ele>197.9</ele>
        <time>2022-09-17T14:47:40.000Z</time>
      </trkpt>
      <trkpt lat="45.08054" lon="5.14837">
        <ele>198.1</ele>
        <time>2022-09-17T14:47:41.000Z</time>
      </trkpt>
      <trkpt lat="45.08051" lon="5.14847">
        <ele>198.5</ele>
        <time>2022-09-17T14:47:42.000Z</time>
      </trkpt>
      <trkpt lat="45.08048" lon="5.14857">
        <ele>198.8</ele>
        <time>2022-09-17T14:47:43.000Z</time>
      </trkpt>
      <trkpt lat="45.08046" lon="5.14868">
        <ele>198.9</ele>
        <time>2022-09-17T14:47:44.000Z</time>
      </trkpt>
      <trkpt lat="45.08044" lon="5.14878">
        <ele>198.9</ele>
        <time>2022-09-17T14:47:45.000Z</time>
      </trkpt>
      <trkpt lat="45.08042" lon="5.14888">
        <ele>198.9</ele>
        <time>2022-09-17T14:47:46.000Z</time>
      </trkpt>
      <trkpt lat="45.08039" lon="5.14898">
        <ele>199.2</ele>
        <time>2022-09-17T14:47:47.000Z</time>
      </trkpt>
      <trkpt lat="45.08038" lon="5.14908">
        <ele>199.5</ele>
        <time>2022-09-17T14:47:48.000Z</time>
      </trkpt>
      <trkpt lat="45.08036" lon="5.14918">
        <ele>199.9</ele>
        <time>2022-09-17T14:47:49.000Z</time>
      </trkpt>
      <trkpt lat="45.08033" lon="5.14928">
        <ele>200</ele>
        <time>2022-09-17T14:47:50.000Z</time>
      </trkpt>
      <trkpt lat="45.0803" lon="5.14938">
        <ele>200.1</ele>
        <time>2022-09-17T14:47:51.000Z</time>
      </trkpt>
      <trkpt lat="45.08028" lon="5.14948">
        <ele>200.2</ele>
        <time>2022-09-17T14:47:52.000Z</time>
      </trkpt>
      <trkpt lat="45.08025" lon="5.14957">
        <ele>200.7</ele>
        <time>2022-09-17T14:47:53.000Z</time>
      </trkpt>
      <trkpt lat="45.08023" lon="5.14967">
        <ele>201.1</ele>
        <time>2022-09-17T14:47:54.000Z</time>
      </trkpt>
      <trkpt lat="45.08021" lon="5.14976">
        <ele>201.4</ele>
        <time>2022-09-17T14:47:55.000Z</time>
      </trkpt>
      <trkpt lat="45.08019" lon="5.14985">
        <ele>201.5</ele>
        <time>2022-09-17T14:47:56.000Z</time>
      </trkpt>
      <trkpt lat="45.08016" lon="5.14993">
        <ele>201.5</ele>
        <time>2022-09-17T14:47:57.000Z</time>
      </trkpt>
      <trkpt lat="45.08014" lon="5.15002">
        <ele>201.6</ele>
        <time>2022-09-17T14:47:58.000Z</time>
      </trkpt>
      <trkpt lat="45.08012" lon="5.1501">
        <ele>201.8</ele>
        <time>2022-09-17T14:47:59.000Z</time>
      </trkpt>
      <trkpt lat="45.0801" lon="5.15018">
        <ele>202.1</ele>
        <time>2022-09-17T14:48:00.000Z</time>
      </trkpt>
      <trkpt lat="45.08008" lon="5.15025">
        <ele>202.4</ele>
        <time>2022-09-17T14:48:01.000Z</time>
      </trkpt>
      <trkpt lat="45.08006" lon="5.15033">
        <ele>202.6</ele>
        <time>2022-09-17T14:48:02.000Z</time>
      </trkpt>
      <trkpt lat="45.08004" lon="5.1504">
        <ele>202.6</ele>
        <time>2022-09-17T14:48:03.000Z</time>
      </trkpt>
      <trkpt lat="45.08002" lon="5.15047">
        <ele>202.8</ele>
        <time>2022-09-17T14:48:04.000Z</time>
      </trkpt>
      <trkpt lat="45.08" lon="5.15053">
        <ele>202.9</ele>
        <time>2022-09-17T14:48:05.000Z</time>
      </trkpt>
      <trkpt lat="45.07998" lon="5.1506">
        <ele>203</ele>
        <time>2022-09-17T14:48:06.000Z</time>
      </trkpt>
      <trkpt lat="45.07996" lon="5.15067">
        <ele>203</ele>
        <time>2022-09-17T14:48:07.000Z</time>
      </trkpt>
      <trkpt lat="45.07994" lon="5.15073">
        <ele>203.1</ele>
        <time>2022-09-17T14:48:08.000Z</time>
      </trkpt>
      <trkpt lat="45.07993" lon="5.1508">
        <ele>203.2</ele>
        <time>2022-09-17T14:48:09.000Z</time>
      </trkpt>
      <trkpt lat="45.07992" lon="5.15086">
        <ele>203.1</ele>
        <time>2022-09-17T14:48:10.000Z</time>
      </trkpt>
      <trkpt lat="45.07991" lon="5.15092">
        <ele>203</ele>
        <time>2022-09-17T14:48:11.000Z</time>
      </trkpt>
      <trkpt lat="45.0799" lon="5.15098">
        <ele>202.8</ele>
        <time>2022-09-17T14:48:12.000Z</time>
      </trkpt>
      <trkpt lat="45.07989" lon="5.15105">
        <ele>202.5</ele>
        <time>2022-09-17T14:48:13.000Z</time>
      </trkpt>
      <trkpt lat="45.07988" lon="5.15112">
        <ele>202.2</ele>
        <time>2022-09-17T14:48:14.000Z</time>
      </trkpt>
      <trkpt lat="45.07987" lon="5.1512">
        <ele>202.1</ele>
        <time>2022-09-17T14:48:15.000Z</time>
      </trkpt>
      <trkpt lat="45.07986" lon="5.15128">
        <ele>201.9</ele>
        <time>2022-09-17T14:48:16.000Z</time>
      </trkpt>
      <trkpt lat="45.07985" lon="5.15138">
        <ele>201.8</ele>
        <time>2022-09-17T14:48:17.000Z</time>
      </trkpt>
      <trkpt lat="45.07984" lon="5.15148">
        <ele>201.6</ele>
        <time>2022-09-17T14:48:18.000Z</time>
      </trkpt>
      <trkpt lat="45.07983" lon="5.15158">
        <ele>201.5</ele>
        <time>2022-09-17T14:48:19.000Z</time>
      </trkpt>
      <trkpt lat="45.07981" lon="5.15168">
        <ele>201.3</ele>
        <time>2022-09-17T14:48:20.000Z</time>
      </trkpt>
      <trkpt lat="45.0798" lon="5.15178">
        <ele>201.2</ele>
        <time>2022-09-17T14:48:21.000Z</time>
      </trkpt>
      <trkpt lat="45.0798" lon="5.15187">
        <ele>201.1</ele>
        <time>2022-09-17T14:48:22.000Z</time>
      </trkpt>
      <trkpt lat="45.0798" lon="5.15197">
        <ele>201.1</ele>
        <time>2022-09-17T14:48:23.000Z</time>
      </trkpt>
      <trkpt lat="45.07979" lon="5.15206">
        <ele>201.3</ele>
        <time>2022-09-17T14:48:24.000Z</time>
      </trkpt>
      <trkpt lat="45.07978" lon="5.15216">
        <ele>201.6</ele>
        <time>2022-09-17T14:48:25.000Z</time>
      </trkpt>
      <trkpt lat="45.07977" lon="5.15225">
        <ele>201.8</ele>
        <time>2022-09-17T14:48:26.000Z</time>
      </trkpt>
      <trkpt lat="45.07976" lon="5.15235">
        <ele>202</ele>
        <time>2022-09-17T14:48:27.000Z</time>
      </trkpt>
      <trkpt lat="45.07975" lon="5.15244">
        <ele>202.1</ele>
        <time>2022-09-17T14:48:28.000Z</time>
      </trkpt>
      <trkpt lat="45.07973" lon="5.15254">
        <ele>202.1</ele>
        <time>2022-09-17T14:48:29.000Z</time>
      </trkpt>
      <trkpt lat="45.07971" lon="5.15263">
        <ele>201.9</ele>
        <time>2022-09-17T14:48:30.000Z</time>
      </trkpt>
      <trkpt lat="45.07969" lon="5.15273">
        <ele>201.7</ele>
        <time>2022-09-17T14:48:31.000Z</time>
      </trkpt>
      <trkpt lat="45.07967" lon="5.15283">
        <ele>201.8</ele>
        <time>2022-09-17T14:48:32.000Z</time>
      </trkpt>
      <trkpt lat="45.07965" lon="5.15292">
        <ele>202</ele>
        <time>2022-09-17T14:48:33.000Z</time>
      </trkpt>
      <trkpt lat="45.07962" lon="5.153">
        <ele>202.1</ele>
        <time>2022-09-17T14:48:34.000Z</time>
      </trkpt>
      <trkpt lat="45.07959" lon="5.15309">
        <ele>202.1</ele>
        <time>2022-09-17T14:48:35.000Z</time>
      </trkpt>
      <trkpt lat="45.07957" lon="5.15318">
        <ele>201.9</ele>
        <time>2022-09-17T14:48:36.000Z</time>
      </trkpt>
      <trkpt lat="45.07955" lon="5.15327">
        <ele>201.8</ele>
        <time>2022-09-17T14:48:37.000Z</time>
      </trkpt>
      <trkpt lat="45.07953" lon="5.15335">
        <ele>201.6</ele>
        <time>2022-09-17T14:48:38.000Z</time>
      </trkpt>
      <trkpt lat="45.07951" lon="5.15344">
        <ele>201.7</ele>
        <time>2022-09-17T14:48:39.000Z</time>
      </trkpt>
      <trkpt lat="45.07948" lon="5.15352">
        <ele>201.9</ele>
        <time>2022-09-17T14:48:40.000Z</time>
      </trkpt>
      <trkpt lat="45.07946" lon="5.1536">
        <ele>202</ele>
        <time>2022-09-17T14:48:41.000Z</time>
      </trkpt>
      <trkpt lat="45.07943" lon="5.15369">
        <ele>202.2</ele>
        <time>2022-09-17T14:48:42.000Z</time>
      </trkpt>
      <trkpt lat="45.07941" lon="5.15377">
        <ele>202.5</ele>
        <time>2022-09-17T14:48:43.000Z</time>
      </trkpt>
      <trkpt lat="45.07939" lon="5.15385">
        <ele>202.8</ele>
        <time>2022-09-17T14:48:44.000Z</time>
      </trkpt>
      <trkpt lat="45.07937" lon="5.15393">
        <ele>203.1</ele>
        <time>2022-09-17T14:48:45.000Z</time>
      </trkpt>
      <trkpt lat="45.07935" lon="5.154">
        <ele>203.1</ele>
        <time>2022-09-17T14:48:46.000Z</time>
      </trkpt>
      <trkpt lat="45.07933" lon="5.15407">
        <ele>203.1</ele>
        <time>2022-09-17T14:48:47.000Z</time>
      </trkpt>
      <trkpt lat="45.07932" lon="5.15414">
        <ele>203.1</ele>
        <time>2022-09-17T14:48:48.000Z</time>
      </trkpt>
      <trkpt lat="45.0793" lon="5.15421">
        <ele>203</ele>
        <time>2022-09-17T14:48:49.000Z</time>
      </trkpt>
      <trkpt lat="45.07929" lon="5.15429">
        <ele>202.9</ele>
        <time>2022-09-17T14:48:50.000Z</time>
      </trkpt>
      <trkpt lat="45.07926" lon="5.15437">
        <ele>202.7</ele>
        <time>2022-09-17T14:48:51.000Z</time>
      </trkpt>
      <trkpt lat="45.07925" lon="5.15446">
        <ele>202.6</ele>
        <time>2022-09-17T14:48:52.000Z</time>
      </trkpt>
      <trkpt lat="45.07923" lon="5.15455">
        <ele>202.7</ele>
        <time>2022-09-17T14:48:53.000Z</time>
      </trkpt>
      <trkpt lat="45.0792" lon="5.15463">
        <ele>202.9</ele>
        <time>2022-09-17T14:48:54.000Z</time>
      </trkpt>
      <trkpt lat="45.07918" lon="5.15473">
        <ele>203.1</ele>
        <time>2022-09-17T14:48:55.000Z</time>
      </trkpt>
      <trkpt lat="45.07916" lon="5.15482">
        <ele>202.9</ele>
        <time>2022-09-17T14:48:56.000Z</time>
      </trkpt>
      <trkpt lat="45.07914" lon="5.15491">
        <ele>202.7</ele>
        <time>2022-09-17T14:48:57.000Z</time>
      </trkpt>
      <trkpt lat="45.07912" lon="5.155">
        <ele>202.5</ele>
        <time>2022-09-17T14:48:58.000Z</time>
      </trkpt>
      <trkpt lat="45.0791" lon="5.15509">
        <ele>202.3</ele>
        <time>2022-09-17T14:48:59.000Z</time>
      </trkpt>
      <trkpt lat="45.07908" lon="5.15519">
        <ele>202</ele>
        <time>2022-09-17T14:49:00.000Z</time>
      </trkpt>
      <trkpt lat="45.07906" lon="5.15528">
        <ele>201.8</ele>
        <time>2022-09-17T14:49:01.000Z</time>
      </trkpt>
      <trkpt lat="45.07904" lon="5.15538">
        <ele>201.6</ele>
        <time>2022-09-17T14:49:02.000Z</time>
      </trkpt>
      <trkpt lat="45.07902" lon="5.15547">
        <ele>201.4</ele>
        <time>2022-09-17T14:49:03.000Z</time>
      </trkpt>
      <trkpt lat="45.079" lon="5.15556">
        <ele>201.2</ele>
        <time>2022-09-17T14:49:04.000Z</time>
      </trkpt>
      <trkpt lat="45.07898" lon="5.15566">
        <ele>201.1</ele>
        <time>2022-09-17T14:49:05.000Z</time>
      </trkpt>
      <trkpt lat="45.07896" lon="5.15576">
        <ele>201.1</ele>
        <time>2022-09-17T14:49:06.000Z</time>
      </trkpt>
      <trkpt lat="45.07894" lon="5.15586">
        <ele>201.2</ele>
        <time>2022-09-17T14:49:07.000Z</time>
      </trkpt>
      <trkpt lat="45.07892" lon="5.15595">
        <ele>201.2</ele>
        <time>2022-09-17T14:49:08.000Z</time>
      </trkpt>
      <trkpt lat="45.0789" lon="5.15604">
        <ele>201.1</ele>
        <time>2022-09-17T14:49:09.000Z</time>
      </trkpt>
      <trkpt lat="45.07888" lon="5.15614">
        <ele>200.8</ele>
        <time>2022-09-17T14:49:10.000Z</time>
      </trkpt>
      <trkpt lat="45.07886" lon="5.15624">
        <ele>200.3</ele>
        <time>2022-09-17T14:49:11.000Z</time>
      </trkpt>
      <trkpt lat="45.07884" lon="5.15633">
        <ele>199.8</ele>
        <time>2022-09-17T14:49:12.000Z</time>
      </trkpt>
      <trkpt lat="45.07883" lon="5.15643">
        <ele>199.5</ele>
        <time>2022-09-17T14:49:13.000Z</time>
      </trkpt>
      <trkpt lat="45.07881" lon="5.15653">
        <ele>199.3</ele>
        <time>2022-09-17T14:49:14.000Z</time>
      </trkpt>
      <trkpt lat="45.0788" lon="5.15662">
        <ele>199.1</ele>
        <time>2022-09-17T14:49:15.000Z</time>
      </trkpt>
      <trkpt lat="45.07879" lon="5.15672">
        <ele>198.9</ele>
        <time>2022-09-17T14:49:16.000Z</time>
      </trkpt>
      <trkpt lat="45.07877" lon="5.15681">
        <ele>198.7</ele>
        <time>2022-09-17T14:49:17.000Z</time>
      </trkpt>
      <trkpt lat="45.07876" lon="5.15691">
        <ele>198.6</ele>
        <time>2022-09-17T14:49:18.000Z</time>
      </trkpt>
      <trkpt lat="45.07874" lon="5.157">
        <ele>198.5</ele>
        <time>2022-09-17T14:49:19.000Z</time>
      </trkpt>
      <trkpt lat="45.07872" lon="5.15709">
        <ele>198.5</ele>
        <time>2022-09-17T14:49:20.000Z</time>
      </trkpt>
      <trkpt lat="45.0787" lon="5.15718">
        <ele>198.6</ele>
        <time>2022-09-17T14:49:21.000Z</time>
      </trkpt>
      <trkpt lat="45.07869" lon="5.15727">
        <ele>198.6</ele>
        <time>2022-09-17T14:49:22.000Z</time>
      </trkpt>
      <trkpt lat="45.07867" lon="5.15737">
        <ele>198.6</ele>
        <time>2022-09-17T14:49:23.000Z</time>
      </trkpt>
      <trkpt lat="45.07865" lon="5.15746">
        <ele>198.5</ele>
        <time>2022-09-17T14:49:24.000Z</time>
      </trkpt>
      <trkpt lat="45.07863" lon="5.15755">
        <ele>198.4</ele>
        <time>2022-09-17T14:49:25.000Z</time>
      </trkpt>
      <trkpt lat="45.07861" lon="5.15763">
        <ele>198.5</ele>
        <time>2022-09-17T14:49:26.000Z</time>
      </trkpt>
      <trkpt lat="45.07859" lon="5.15772">
        <ele>198.6</ele>
        <time>2022-09-17T14:49:27.000Z</time>
      </trkpt>
      <trkpt lat="45.07857" lon="5.1578">
        <ele>198.5</ele>
        <time>2022-09-17T14:49:28.000Z</time>
      </trkpt>
      <trkpt lat="45.07855" lon="5.15789">
        <ele>198.2</ele>
        <time>2022-09-17T14:49:29.000Z</time>
      </trkpt>
      <trkpt lat="45.07852" lon="5.15797">
        <ele>197.8</ele>
        <time>2022-09-17T14:49:30.000Z</time>
      </trkpt>
      <trkpt lat="45.0785" lon="5.15805">
        <ele>197.4</ele>
        <time>2022-09-17T14:49:31.000Z</time>
      </trkpt>
      <trkpt lat="45.07848" lon="5.15813">
        <ele>197.1</ele>
        <time>2022-09-17T14:49:32.000Z</time>
      </trkpt>
      <trkpt lat="45.07846" lon="5.15822">
        <ele>196.9</ele>
        <time>2022-09-17T14:49:33.000Z</time>
      </trkpt>
      <trkpt lat="45.07844" lon="5.1583">
        <ele>196.6</ele>
        <time>2022-09-17T14:49:34.000Z</time>
      </trkpt>
      <trkpt lat="45.07842" lon="5.15838">
        <ele>196.7</ele>
        <time>2022-09-17T14:49:35.000Z</time>
      </trkpt>
      <trkpt lat="45.0784" lon="5.15847">
        <ele>197.2</ele>
        <time>2022-09-17T14:49:36.000Z</time>
      </trkpt>
      <trkpt lat="45.07838" lon="5.15856">
        <ele>197.9</ele>
        <time>2022-09-17T14:49:37.000Z</time>
      </trkpt>
      <trkpt lat="45.07835" lon="5.15865">
        <ele>198.2</ele>
        <time>2022-09-17T14:49:38.000Z</time>
      </trkpt>
      <trkpt lat="45.07833" lon="5.15873">
        <ele>197.9</ele>
        <time>2022-09-17T14:49:39.000Z</time>
      </trkpt>
      <trkpt lat="45.0783" lon="5.15882">
        <ele>197.6</ele>
        <time>2022-09-17T14:49:40.000Z</time>
      </trkpt>
      <trkpt lat="45.07828" lon="5.15891">
        <ele>197.5</ele>
        <time>2022-09-17T14:49:41.000Z</time>
      </trkpt>
      <trkpt lat="45.07825" lon="5.15899">
        <ele>197.4</ele>
        <time>2022-09-17T14:49:42.000Z</time>
      </trkpt>
      <trkpt lat="45.07823" lon="5.15908">
        <ele>197.3</ele>
        <time>2022-09-17T14:49:43.000Z</time>
      </trkpt>
      <trkpt lat="45.07821" lon="5.15916">
        <ele>197.2</ele>
        <time>2022-09-17T14:49:44.000Z</time>
      </trkpt>
      <trkpt lat="45.07818" lon="5.15924">
        <ele>196.8</ele>
        <time>2022-09-17T14:49:45.000Z</time>
      </trkpt>
      <trkpt lat="45.07816" lon="5.15932">
        <ele>196.5</ele>
        <time>2022-09-17T14:49:46.000Z</time>
      </trkpt>
      <trkpt lat="45.07814" lon="5.1594">
        <ele>196.2</ele>
        <time>2022-09-17T14:49:47.000Z</time>
      </trkpt>
      <trkpt lat="45.07811" lon="5.15948">
        <ele>196.1</ele>
        <time>2022-09-17T14:49:48.000Z</time>
      </trkpt>
      <trkpt lat="45.07809" lon="5.15956">
        <ele>196.3</ele>
        <time>2022-09-17T14:49:49.000Z</time>
      </trkpt>
      <trkpt lat="45.07806" lon="5.15964">
        <ele>196.5</ele>
        <time>2022-09-17T14:49:50.000Z</time>
      </trkpt>
      <trkpt lat="45.07804" lon="5.15972">
        <ele>196.7</ele>
        <time>2022-09-17T14:49:51.000Z</time>
      </trkpt>
      <trkpt lat="45.07802" lon="5.1598">
        <ele>196.7</ele>
        <time>2022-09-17T14:49:52.000Z</time>
      </trkpt>
      <trkpt lat="45.078" lon="5.15987">
        <ele>196.7</ele>
        <time>2022-09-17T14:49:53.000Z</time>
      </trkpt>
      <trkpt lat="45.07798" lon="5.15995">
        <ele>196.7</ele>
        <time>2022-09-17T14:49:54.000Z</time>
      </trkpt>
      <trkpt lat="45.07796" lon="5.16003">
        <ele>196.7</ele>
        <time>2022-09-17T14:49:55.000Z</time>
      </trkpt>
      <trkpt lat="45.07795" lon="5.16011">
        <ele>196.4</ele>
        <time>2022-09-17T14:49:56.000Z</time>
      </trkpt>
      <trkpt lat="45.07793" lon="5.1602">
        <ele>196.1</ele>
        <time>2022-09-17T14:49:57.000Z</time>
      </trkpt>
      <trkpt lat="45.07791" lon="5.16028">
        <ele>195.9</ele>
        <time>2022-09-17T14:49:58.000Z</time>
      </trkpt>
      <trkpt lat="45.07789" lon="5.16038">
        <ele>195.5</ele>
        <time>2022-09-17T14:49:59.000Z</time>
      </trkpt>
      <trkpt lat="45.07786" lon="5.16047">
        <ele>195.2</ele>
        <time>2022-09-17T14:50:00.000Z</time>
      </trkpt>
      <trkpt lat="45.07784" lon="5.16057">
        <ele>194.8</ele>
        <time>2022-09-17T14:50:01.000Z</time>
      </trkpt>
      <trkpt lat="45.07781" lon="5.16066">
        <ele>194.1</ele>
        <time>2022-09-17T14:50:02.000Z</time>
      </trkpt>
      <trkpt lat="45.07777" lon="5.16075">
        <ele>193.2</ele>
        <time>2022-09-17T14:50:03.000Z</time>
      </trkpt>
      <trkpt lat="45.07774" lon="5.16083">
        <ele>192.6</ele>
        <time>2022-09-17T14:50:04.000Z</time>
      </trkpt>
      <trkpt lat="45.0777" lon="5.1609">
        <ele>192.3</ele>
        <time>2022-09-17T14:50:05.000Z</time>
      </trkpt>
      <trkpt lat="45.07767" lon="5.16099">
        <ele>192.1</ele>
        <time>2022-09-17T14:50:06.000Z</time>
      </trkpt>
      <trkpt lat="45.07766" lon="5.16107">
        <ele>192.1</ele>
        <time>2022-09-17T14:50:07.000Z</time>
      </trkpt>
      <trkpt lat="45.07766" lon="5.16116">
        <ele>192.1</ele>
        <time>2022-09-17T14:50:08.000Z</time>
      </trkpt>
      <trkpt lat="45.07769" lon="5.16125">
        <ele>192.2</ele>
        <time>2022-09-17T14:50:09.000Z</time>
      </trkpt>
      <trkpt lat="45.07771" lon="5.16133">
        <ele>192.4</ele>
        <time>2022-09-17T14:50:10.000Z</time>
      </trkpt>
      <trkpt lat="45.07774" lon="5.16139">
        <ele>192.6</ele>
        <time>2022-09-17T14:50:11.000Z</time>
      </trkpt>
      <trkpt lat="45.07777" lon="5.16145">
        <ele>192.7</ele>
        <time>2022-09-17T14:50:12.000Z</time>
      </trkpt>
      <trkpt lat="45.07779" lon="5.16152">
        <ele>192.7</ele>
        <time>2022-09-17T14:50:13.000Z</time>
      </trkpt>
      <trkpt lat="45.0778" lon="5.16159">
        <ele>192.6</ele>
        <time>2022-09-17T14:50:14.000Z</time>
      </trkpt>
      <trkpt lat="45.07781" lon="5.16167">
        <ele>192.4</ele>
        <time>2022-09-17T14:50:15.000Z</time>
      </trkpt>
      <trkpt lat="45.07781" lon="5.16176">
        <ele>192.2</ele>
        <time>2022-09-17T14:50:16.000Z</time>
      </trkpt>
      <trkpt lat="45.07782" lon="5.16184">
        <ele>192</ele>
        <time>2022-09-17T14:50:17.000Z</time>
      </trkpt>
      <trkpt lat="45.07783" lon="5.16193">
        <ele>191.9</ele>
        <time>2022-09-17T14:50:18.000Z</time>
      </trkpt>
      <trkpt lat="45.07784" lon="5.16201">
        <ele>191.9</ele>
        <time>2022-09-17T14:50:19.000Z</time>
      </trkpt>
      <trkpt lat="45.07785" lon="5.1621">
        <ele>191.9</ele>
        <time>2022-09-17T14:50:20.000Z</time>
      </trkpt>
      <trkpt lat="45.07787" lon="5.16219">
        <ele>192</ele>
        <time>2022-09-17T14:50:21.000Z</time>
      </trkpt>
      <trkpt lat="45.07788" lon="5.16228">
        <ele>192</ele>
        <time>2022-09-17T14:50:22.000Z</time>
      </trkpt>
      <trkpt lat="45.07789" lon="5.16237">
        <ele>192.1</ele>
        <time>2022-09-17T14:50:23.000Z</time>
      </trkpt>
      <trkpt lat="45.0779" lon="5.16247">
        <ele>192.2</ele>
        <time>2022-09-17T14:50:24.000Z</time>
      </trkpt>
      <trkpt lat="45.07791" lon="5.16256">
        <ele>192.2</ele>
        <time>2022-09-17T14:50:25.000Z</time>
      </trkpt>
      <trkpt lat="45.07792" lon="5.16265">
        <ele>192</ele>
        <time>2022-09-17T14:50:26.000Z</time>
      </trkpt>
      <trkpt lat="45.07792" lon="5.16274">
        <ele>191.7</ele>
        <time>2022-09-17T14:50:27.000Z</time>
      </trkpt>
      <trkpt lat="45.07792" lon="5.16283">
        <ele>191.5</ele>
        <time>2022-09-17T14:50:28.000Z</time>
      </trkpt>
      <trkpt lat="45.07793" lon="5.16291">
        <ele>191.3</ele>
        <time>2022-09-17T14:50:29.000Z</time>
      </trkpt>
      <trkpt lat="45.07793" lon="5.163">
        <ele>191.2</ele>
        <time>2022-09-17T14:50:30.000Z</time>
      </trkpt>
      <trkpt lat="45.07794" lon="5.16308">
        <ele>191.1</ele>
        <time>2022-09-17T14:50:31.000Z</time>
      </trkpt>
      <trkpt lat="45.07794" lon="5.16316">
        <ele>191.1</ele>
        <time>2022-09-17T14:50:32.000Z</time>
      </trkpt>
      <trkpt lat="45.07793" lon="5.16325">
        <ele>191.1</ele>
        <time>2022-09-17T14:50:33.000Z</time>
      </trkpt>
      <trkpt lat="45.07793" lon="5.16332">
        <ele>191.1</ele>
        <time>2022-09-17T14:50:34.000Z</time>
      </trkpt>
      <trkpt lat="45.07794" lon="5.16339">
        <ele>191.1</ele>
        <time>2022-09-17T14:50:35.000Z</time>
      </trkpt>
      <trkpt lat="45.07794" lon="5.16346">
        <ele>191.1</ele>
        <time>2022-09-17T14:50:36.000Z</time>
      </trkpt>
      <trkpt lat="45.07794" lon="5.16354">
        <ele>191.1</ele>
        <time>2022-09-17T14:50:37.000Z</time>
      </trkpt>
      <trkpt lat="45.07793" lon="5.1636">
        <ele>191.1</ele>
        <time>2022-09-17T14:50:38.000Z</time>
      </trkpt>
      <trkpt lat="45.07793" lon="5.16367">
        <ele>191</ele>
        <time>2022-09-17T14:50:39.000Z</time>
      </trkpt>
      <trkpt lat="45.07793" lon="5.16373">
        <ele>190.9</ele>
        <time>2022-09-17T14:50:40.000Z</time>
      </trkpt>
      <trkpt lat="45.07793" lon="5.1638">
        <ele>190.7</ele>
        <time>2022-09-17T14:50:41.000Z</time>
      </trkpt>
      <trkpt lat="45.07794" lon="5.16387">
        <ele>190.6</ele>
        <time>2022-09-17T14:50:42.000Z</time>
      </trkpt>
      <trkpt lat="45.07794" lon="5.16395">
        <ele>190.6</ele>
        <time>2022-09-17T14:50:43.000Z</time>
      </trkpt>
      <trkpt lat="45.07794" lon="5.16403">
        <ele>190.6</ele>
        <time>2022-09-17T14:50:44.000Z</time>
      </trkpt>
      <trkpt lat="45.07794" lon="5.16412">
        <ele>190.6</ele>
        <time>2022-09-17T14:50:45.000Z</time>
      </trkpt>
      <trkpt lat="45.07794" lon="5.16421">
        <ele>190.4</ele>
        <time>2022-09-17T14:50:46.000Z</time>
      </trkpt>
      <trkpt lat="45.07794" lon="5.1643">
        <ele>190.1</ele>
        <time>2022-09-17T14:50:47.000Z</time>
      </trkpt>
      <trkpt lat="45.07794" lon="5.16439">
        <ele>189.8</ele>
        <time>2022-09-17T14:50:48.000Z</time>
      </trkpt>
      <trkpt lat="45.07793" lon="5.16448">
        <ele>189.6</ele>
        <time>2022-09-17T14:50:49.000Z</time>
      </trkpt>
      <trkpt lat="45.07793" lon="5.16457">
        <ele>189.5</ele>
        <time>2022-09-17T14:50:50.000Z</time>
      </trkpt>
      <trkpt lat="45.07793" lon="5.16467">
        <ele>189.5</ele>
        <time>2022-09-17T14:50:51.000Z</time>
      </trkpt>
      <trkpt lat="45.07793" lon="5.16476">
        <ele>189.4</ele>
        <time>2022-09-17T14:50:52.000Z</time>
      </trkpt>
      <trkpt lat="45.07792" lon="5.16485">
        <ele>189.1</ele>
        <time>2022-09-17T14:50:53.000Z</time>
      </trkpt>
      <trkpt lat="45.07793" lon="5.16495">
        <ele>188.7</ele>
        <time>2022-09-17T14:50:54.000Z</time>
      </trkpt>
      <trkpt lat="45.07793" lon="5.16504">
        <ele>188.5</ele>
        <time>2022-09-17T14:50:55.000Z</time>
      </trkpt>
      <trkpt lat="45.07793" lon="5.16513">
        <ele>188.5</ele>
        <time>2022-09-17T14:50:56.000Z</time>
      </trkpt>
      <trkpt lat="45.07793" lon="5.16523">
        <ele>188.5</ele>
        <time>2022-09-17T14:50:57.000Z</time>
      </trkpt>
      <trkpt lat="45.07793" lon="5.16532">
        <ele>188.5</ele>
        <time>2022-09-17T14:50:58.000Z</time>
      </trkpt>
      <trkpt lat="45.07793" lon="5.16541">
        <ele>188.5</ele>
        <time>2022-09-17T14:50:59.000Z</time>
      </trkpt>
      <trkpt lat="45.07793" lon="5.1655">
        <ele>188.6</ele>
        <time>2022-09-17T14:51:00.000Z</time>
      </trkpt>
      <trkpt lat="45.07794" lon="5.1656">
        <ele>188.4</ele>
        <time>2022-09-17T14:51:01.000Z</time>
      </trkpt>
      <trkpt lat="45.07796" lon="5.16569">
        <ele>188</ele>
        <time>2022-09-17T14:51:02.000Z</time>
      </trkpt>
      <trkpt lat="45.07798" lon="5.16578">
        <ele>187.6</ele>
        <time>2022-09-17T14:51:03.000Z</time>
      </trkpt>
      <trkpt lat="45.07799" lon="5.16588">
        <ele>187.2</ele>
        <time>2022-09-17T14:51:04.000Z</time>
      </trkpt>
      <trkpt lat="45.07802" lon="5.16597">
        <ele>187.1</ele>
        <time>2022-09-17T14:51:05.000Z</time>
      </trkpt>
      <trkpt lat="45.07804" lon="5.16606">
        <ele>187</ele>
        <time>2022-09-17T14:51:06.000Z</time>
      </trkpt>
      <trkpt lat="45.07807" lon="5.16616">
        <ele>186.9</ele>
        <time>2022-09-17T14:51:07.000Z</time>
      </trkpt>
      <trkpt lat="45.07809" lon="5.16625">
        <ele>186.6</ele>
        <time>2022-09-17T14:51:08.000Z</time>
      </trkpt>
      <trkpt lat="45.0781" lon="5.16633">
        <ele>186.3</ele>
        <time>2022-09-17T14:51:09.000Z</time>
      </trkpt>
      <trkpt lat="45.07811" lon="5.16639">
        <ele>186</ele>
        <time>2022-09-17T14:51:10.000Z</time>
      </trkpt>
      <trkpt lat="45.07812" lon="5.16644">
        <ele>186.2</ele>
        <time>2022-09-17T14:51:11.000Z</time>
      </trkpt>
      <trkpt lat="45.07811" lon="5.16649">
        <ele>186.4</ele>
        <time>2022-09-17T14:51:12.000Z</time>
      </trkpt>
      <trkpt lat="45.07809" lon="5.16652">
        <ele>186.5</ele>
        <time>2022-09-17T14:51:13.000Z</time>
      </trkpt>
      <trkpt lat="45.07807" lon="5.16654">
        <ele>186.5</ele>
        <time>2022-09-17T14:51:14.000Z</time>
      </trkpt>
      <trkpt lat="45.07804" lon="5.16655">
        <ele>186.6</ele>
        <time>2022-09-17T14:51:15.000Z</time>
      </trkpt>
      <trkpt lat="45.078" lon="5.16657">
        <ele>186.6</ele>
        <time>2022-09-17T14:51:16.000Z</time>
      </trkpt>
      <trkpt lat="45.07797" lon="5.1666">
        <ele>186.6</ele>
        <time>2022-09-17T14:51:17.000Z</time>
      </trkpt>
      <trkpt lat="45.07795" lon="5.16663">
        <ele>186.6</ele>
        <time>2022-09-17T14:51:18.000Z</time>
      </trkpt>
      <trkpt lat="45.07794" lon="5.16666">
        <ele>186.6</ele>
        <time>2022-09-17T14:51:19.000Z</time>
      </trkpt>
      <trkpt lat="45.07793" lon="5.1667">
        <ele>186.5</ele>
        <time>2022-09-17T14:51:20.000Z</time>
      </trkpt>
      <trkpt lat="45.07793" lon="5.16674">
        <ele>186.5</ele>
        <time>2022-09-17T14:51:21.000Z</time>
      </trkpt>
      <trkpt lat="45.07793" lon="5.16679">
        <ele>186.6</ele>
        <time>2022-09-17T14:51:22.000Z</time>
      </trkpt>
      <trkpt lat="45.07795" lon="5.16685">
        <ele>186.6</ele>
        <time>2022-09-17T14:51:23.000Z</time>
      </trkpt>
      <trkpt lat="45.07796" lon="5.16691">
        <ele>186.7</ele>
        <time>2022-09-17T14:51:24.000Z</time>
      </trkpt>
      <trkpt lat="45.07798" lon="5.16698">
        <ele>186.7</ele>
        <time>2022-09-17T14:51:25.000Z</time>
      </trkpt>
      <trkpt lat="45.07799" lon="5.16705">
        <ele>186.8</ele>
        <time>2022-09-17T14:51:26.000Z</time>
      </trkpt>
      <trkpt lat="45.078" lon="5.16711">
        <ele>186.8</ele>
        <time>2022-09-17T14:51:27.000Z</time>
      </trkpt>
      <trkpt lat="45.078" lon="5.16718">
        <ele>186.8</ele>
        <time>2022-09-17T14:51:28.000Z</time>
      </trkpt>
      <trkpt lat="45.07801" lon="5.16725">
        <ele>186.7</ele>
        <time>2022-09-17T14:51:29.000Z</time>
      </trkpt>
      <trkpt lat="45.07802" lon="5.16732">
        <ele>186.2</ele>
        <time>2022-09-17T14:51:30.000Z</time>
      </trkpt>
      <trkpt lat="45.07802" lon="5.16739">
        <ele>185.8</ele>
        <time>2022-09-17T14:51:31.000Z</time>
      </trkpt>
      <trkpt lat="45.07803" lon="5.16746">
        <ele>185.3</ele>
        <time>2022-09-17T14:51:32.000Z</time>
      </trkpt>
      <trkpt lat="45.07803" lon="5.16753">
        <ele>185</ele>
        <time>2022-09-17T14:51:33.000Z</time>
      </trkpt>
      <trkpt lat="45.07804" lon="5.1676">
        <ele>185</ele>
        <time>2022-09-17T14:51:34.000Z</time>
      </trkpt>
      <trkpt lat="45.07805" lon="5.16767">
        <ele>185</ele>
        <time>2022-09-17T14:51:35.000Z</time>
      </trkpt>
      <trkpt lat="45.07805" lon="5.16774">
        <ele>185</ele>
        <time>2022-09-17T14:51:36.000Z</time>
      </trkpt>
      <trkpt lat="45.07806" lon="5.16781">
        <ele>185.1</ele>
        <time>2022-09-17T14:51:37.000Z</time>
      </trkpt>
      <trkpt lat="45.07806" lon="5.16787">
        <ele>185.3</ele>
        <time>2022-09-17T14:51:38.000Z</time>
      </trkpt>
      <trkpt lat="45.07806" lon="5.16793">
        <ele>185.6</ele>
        <time>2022-09-17T14:51:39.000Z</time>
      </trkpt>
      <trkpt lat="45.07807" lon="5.168">
        <ele>185.8</ele>
        <time>2022-09-17T14:51:40.000Z</time>
      </trkpt>
      <trkpt lat="45.07807" lon="5.16806">
        <ele>186</ele>
        <time>2022-09-17T14:51:41.000Z</time>
      </trkpt>
      <trkpt lat="45.07807" lon="5.16813">
        <ele>186.1</ele>
        <time>2022-09-17T14:51:42.000Z</time>
      </trkpt>
      <trkpt lat="45.07807" lon="5.16819">
        <ele>186.1</ele>
        <time>2022-09-17T14:51:43.000Z</time>
      </trkpt>
      <trkpt lat="45.07808" lon="5.16824">
        <ele>186.1</ele>
        <time>2022-09-17T14:51:44.000Z</time>
      </trkpt>
      <trkpt lat="45.07809" lon="5.1683">
        <ele>186.1</ele>
        <time>2022-09-17T14:51:45.000Z</time>
      </trkpt>
      <trkpt lat="45.0781" lon="5.16835">
        <ele>186.1</ele>
        <time>2022-09-17T14:51:46.000Z</time>
      </trkpt>
      <trkpt lat="45.0781" lon="5.16839">
        <ele>186.2</ele>
        <time>2022-09-17T14:51:47.000Z</time>
      </trkpt>
      <trkpt lat="45.07811" lon="5.16844">
        <ele>186.2</ele>
        <time>2022-09-17T14:51:48.000Z</time>
      </trkpt>
      <trkpt lat="45.0781" lon="5.16848">
        <ele>186.2</ele>
        <time>2022-09-17T14:51:49.000Z</time>
      </trkpt>
      <trkpt lat="45.07809" lon="5.16852">
        <ele>186.1</ele>
        <time>2022-09-17T14:51:50.000Z</time>
      </trkpt>
      <trkpt lat="45.07809" lon="5.16855">
        <ele>186.1</ele>
        <time>2022-09-17T14:51:51.000Z</time>
      </trkpt>
      <trkpt lat="45.07808" lon="5.16859">
        <ele>186.1</ele>
        <time>2022-09-17T14:51:52.000Z</time>
      </trkpt>
      <trkpt lat="45.07808" lon="5.16862">
        <ele>186.1</ele>
        <time>2022-09-17T14:51:53.000Z</time>
      </trkpt>
      <trkpt lat="45.07809" lon="5.16865">
        <ele>186.1</ele>
        <time>2022-09-17T14:51:54.000Z</time>
      </trkpt>
      <trkpt lat="45.07809" lon="5.16869">
        <ele>186.1</ele>
        <time>2022-09-17T14:51:55.000Z</time>
      </trkpt>
      <trkpt lat="45.0781" lon="5.16872">
        <ele>186.1</ele>
        <time>2022-09-17T14:51:56.000Z</time>
      </trkpt>
      <trkpt lat="45.0781" lon="5.16875">
        <ele>186.1</ele>
        <time>2022-09-17T14:51:57.000Z</time>
      </trkpt>
      <trkpt lat="45.07811" lon="5.16877">
        <ele>186.1</ele>
        <time>2022-09-17T14:51:58.000Z</time>
      </trkpt>
      <trkpt lat="45.07811" lon="5.1688">
        <ele>186.1</ele>
        <time>2022-09-17T14:51:59.000Z</time>
      </trkpt>
      <trkpt lat="45.07812" lon="5.16883">
        <ele>186</ele>
        <time>2022-09-17T14:52:00.000Z</time>
      </trkpt>
      <trkpt lat="45.07813" lon="5.16886">
        <ele>186</ele>
        <time>2022-09-17T14:52:01.000Z</time>
      </trkpt>
      <trkpt lat="45.07814" lon="5.16889">
        <ele>186</ele>
        <time>2022-09-17T14:52:02.000Z</time>
      </trkpt>
      <trkpt lat="45.07814" lon="5.16892">
        <ele>185.9</ele>
        <time>2022-09-17T14:52:03.000Z</time>
      </trkpt>
      <trkpt lat="45.07815" lon="5.16896">
        <ele>185.8</ele>
        <time>2022-09-17T14:52:04.000Z</time>
      </trkpt>
      <trkpt lat="45.07816" lon="5.16899">
        <ele>185.8</ele>
        <time>2022-09-17T14:52:05.000Z</time>
      </trkpt>
      <trkpt lat="45.07816" lon="5.16902">
        <ele>185.7</ele>
        <time>2022-09-17T14:52:06.000Z</time>
      </trkpt>
      <trkpt lat="45.07817" lon="5.16905">
        <ele>185.7</ele>
        <time>2022-09-17T14:52:07.000Z</time>
      </trkpt>
      <trkpt lat="45.07818" lon="5.16908">
        <ele>185.6</ele>
        <time>2022-09-17T14:52:08.000Z</time>
      </trkpt>
      <trkpt lat="45.07818" lon="5.16911">
        <ele>185.6</ele>
        <time>2022-09-17T14:52:09.000Z</time>
      </trkpt>
      <trkpt lat="45.07819" lon="5.16915">
        <ele>185.5</ele>
        <time>2022-09-17T14:52:10.000Z</time>
      </trkpt>
      <trkpt lat="45.07819" lon="5.16918">
        <ele>185.5</ele>
        <time>2022-09-17T14:52:11.000Z</time>
      </trkpt>
      <trkpt lat="45.07819" lon="5.16922">
        <ele>185.5</ele>
        <time>2022-09-17T14:52:12.000Z</time>
      </trkpt>
      <trkpt lat="45.0782" lon="5.16926">
        <ele>185.5</ele>
        <time>2022-09-17T14:52:13.000Z</time>
      </trkpt>
      <trkpt lat="45.07821" lon="5.16931">
        <ele>185.5</ele>
        <time>2022-09-17T14:52:14.000Z</time>
      </trkpt>
      <trkpt lat="45.07823" lon="5.16938">
        <ele>185.6</ele>
        <time>2022-09-17T14:52:15.000Z</time>
      </trkpt>
      <trkpt lat="45.07825" lon="5.16944">
        <ele>185.7</ele>
        <time>2022-09-17T14:52:16.000Z</time>
      </trkpt>
      <trkpt lat="45.07827" lon="5.16952">
        <ele>185.5</ele>
        <time>2022-09-17T14:52:17.000Z</time>
      </trkpt>
      <trkpt lat="45.07829" lon="5.16959">
        <ele>185.3</ele>
        <time>2022-09-17T14:52:18.000Z</time>
      </trkpt>
      <trkpt lat="45.07831" lon="5.16966">
        <ele>185.1</ele>
        <time>2022-09-17T14:52:19.000Z</time>
      </trkpt>
      <trkpt lat="45.07833" lon="5.16973">
        <ele>185</ele>
        <time>2022-09-17T14:52:20.000Z</time>
      </trkpt>
      <trkpt lat="45.07835" lon="5.16979">
        <ele>185.1</ele>
        <time>2022-09-17T14:52:21.000Z</time>
      </trkpt>
      <trkpt lat="45.07838" lon="5.16986">
        <ele>185.2</ele>
        <time>2022-09-17T14:52:22.000Z</time>
      </trkpt>
      <trkpt lat="45.0784" lon="5.16993">
        <ele>185.2</ele>
        <time>2022-09-17T14:52:23.000Z</time>
      </trkpt>
      <trkpt lat="45.07842" lon="5.17001">
        <ele>185.3</ele>
        <time>2022-09-17T14:52:24.000Z</time>
      </trkpt>
      <trkpt lat="45.07845" lon="5.17009">
        <ele>185.1</ele>
        <time>2022-09-17T14:52:25.000Z</time>
      </trkpt>
      <trkpt lat="45.07847" lon="5.17017">
        <ele>184.9</ele>
        <time>2022-09-17T14:52:26.000Z</time>
      </trkpt>
      <trkpt lat="45.0785" lon="5.17023">
        <ele>184.8</ele>
        <time>2022-09-17T14:52:27.000Z</time>
      </trkpt>
      <trkpt lat="45.07853" lon="5.1703">
        <ele>184.7</ele>
        <time>2022-09-17T14:52:28.000Z</time>
      </trkpt>
      <trkpt lat="45.07856" lon="5.17037">
        <ele>184.8</ele>
        <time>2022-09-17T14:52:29.000Z</time>
      </trkpt>
      <trkpt lat="45.07859" lon="5.17043">
        <ele>184.9</ele>
        <time>2022-09-17T14:52:30.000Z</time>
      </trkpt>
      <trkpt lat="45.07862" lon="5.17049">
        <ele>185</ele>
        <time>2022-09-17T14:52:31.000Z</time>
      </trkpt>
      <trkpt lat="45.07864" lon="5.17056">
        <ele>185.1</ele>
        <time>2022-09-17T14:52:32.000Z</time>
      </trkpt>
      <trkpt lat="45.07867" lon="5.17062">
        <ele>185</ele>
        <time>2022-09-17T14:52:33.000Z</time>
      </trkpt>
      <trkpt lat="45.0787" lon="5.17069">
        <ele>184.9</ele>
        <time>2022-09-17T14:52:34.000Z</time>
      </trkpt>
      <trkpt lat="45.07874" lon="5.17075">
        <ele>184.7</ele>
        <time>2022-09-17T14:52:35.000Z</time>
      </trkpt>
      <trkpt lat="45.07877" lon="5.17082">
        <ele>184.6</ele>
        <time>2022-09-17T14:52:36.000Z</time>
      </trkpt>
      <trkpt lat="45.0788" lon="5.17088">
        <ele>184.6</ele>
        <time>2022-09-17T14:52:37.000Z</time>
      </trkpt>
      <trkpt lat="45.07883" lon="5.17095">
        <ele>184.6</ele>
        <time>2022-09-17T14:52:38.000Z</time>
      </trkpt>
      <trkpt lat="45.07886" lon="5.17101">
        <ele>184.8</ele>
        <time>2022-09-17T14:52:39.000Z</time>
      </trkpt>
      <trkpt lat="45.0789" lon="5.17107">
        <ele>185</ele>
        <time>2022-09-17T14:52:40.000Z</time>
      </trkpt>
      <trkpt lat="45.07893" lon="5.17114">
        <ele>184.9</ele>
        <time>2022-09-17T14:52:41.000Z</time>
      </trkpt>
      <trkpt lat="45.07897" lon="5.1712">
        <ele>184.8</ele>
        <time>2022-09-17T14:52:42.000Z</time>
      </trkpt>
      <trkpt lat="45.079" lon="5.17127">
        <ele>184.7</ele>
        <time>2022-09-17T14:52:43.000Z</time>
      </trkpt>
      <trkpt lat="45.07903" lon="5.17133">
        <ele>184.6</ele>
        <time>2022-09-17T14:52:44.000Z</time>
      </trkpt>
      <trkpt lat="45.07907" lon="5.1714">
        <ele>184.6</ele>
        <time>2022-09-17T14:52:45.000Z</time>
      </trkpt>
      <trkpt lat="45.0791" lon="5.17146">
        <ele>184.5</ele>
        <time>2022-09-17T14:52:46.000Z</time>
      </trkpt>
      <trkpt lat="45.07913" lon="5.17153">
        <ele>184.4</ele>
        <time>2022-09-17T14:52:47.000Z</time>
      </trkpt>
      <trkpt lat="45.07917" lon="5.17159">
        <ele>184.3</ele>
        <time>2022-09-17T14:52:48.000Z</time>
      </trkpt>
      <trkpt lat="45.0792" lon="5.17166">
        <ele>184.3</ele>
        <time>2022-09-17T14:52:49.000Z</time>
      </trkpt>
      <trkpt lat="45.07924" lon="5.17172">
        <ele>184.2</ele>
        <time>2022-09-17T14:52:50.000Z</time>
      </trkpt>
      <trkpt lat="45.07928" lon="5.17178">
        <ele>184</ele>
        <time>2022-09-17T14:52:51.000Z</time>
      </trkpt>
      <trkpt lat="45.07931" lon="5.17185">
        <ele>183.7</ele>
        <time>2022-09-17T14:52:52.000Z</time>
      </trkpt>
      <trkpt lat="45.07935" lon="5.17191">
        <ele>183.3</ele>
        <time>2022-09-17T14:52:53.000Z</time>
      </trkpt>
      <trkpt lat="45.07939" lon="5.17198">
        <ele>183</ele>
        <time>2022-09-17T14:52:54.000Z</time>
      </trkpt>
      <trkpt lat="45.07943" lon="5.17205">
        <ele>183</ele>
        <time>2022-09-17T14:52:55.000Z</time>
      </trkpt>
      <trkpt lat="45.07948" lon="5.17212">
        <ele>183.2</ele>
        <time>2022-09-17T14:52:56.000Z</time>
      </trkpt>
      <trkpt lat="45.07952" lon="5.1722">
        <ele>183.3</ele>
        <time>2022-09-17T14:52:57.000Z</time>
      </trkpt>
      <trkpt lat="45.07957" lon="5.17228">
        <ele>182.7</ele>
        <time>2022-09-17T14:52:58.000Z</time>
      </trkpt>
      <trkpt lat="45.07962" lon="5.17236">
        <ele>182</ele>
        <time>2022-09-17T14:52:59.000Z</time>
      </trkpt>
      <trkpt lat="45.07967" lon="5.17244">
        <ele>181.3</ele>
        <time>2022-09-17T14:53:00.000Z</time>
      </trkpt>
      <trkpt lat="45.07972" lon="5.17252">
        <ele>180.5</ele>
        <time>2022-09-17T14:53:01.000Z</time>
      </trkpt>
      <trkpt lat="45.07977" lon="5.17261">
        <ele>179.8</ele>
        <time>2022-09-17T14:53:02.000Z</time>
      </trkpt>
      <trkpt lat="45.07983" lon="5.1727">
        <ele>179.4</ele>
        <time>2022-09-17T14:53:03.000Z</time>
      </trkpt>
      <trkpt lat="45.07988" lon="5.17279">
        <ele>179.2</ele>
        <time>2022-09-17T14:53:04.000Z</time>
      </trkpt>
      <trkpt lat="45.07994" lon="5.17287">
        <ele>178.3</ele>
        <time>2022-09-17T14:53:05.000Z</time>
      </trkpt>
      <trkpt lat="45.08" lon="5.17295">
        <ele>178.1</ele>
        <time>2022-09-17T14:53:06.000Z</time>
      </trkpt>
      <trkpt lat="45.08006" lon="5.17303">
        <ele>177.9</ele>
        <time>2022-09-17T14:53:07.000Z</time>
      </trkpt>
      <trkpt lat="45.08012" lon="5.17312">
        <ele>176.8</ele>
        <time>2022-09-17T14:53:08.000Z</time>
      </trkpt>
      <trkpt lat="45.08019" lon="5.1732">
        <ele>175.8</ele>
        <time>2022-09-17T14:53:09.000Z</time>
      </trkpt>
      <trkpt lat="45.08025" lon="5.17329">
        <ele>175.3</ele>
        <time>2022-09-17T14:53:10.000Z</time>
      </trkpt>
      <trkpt lat="45.08032" lon="5.17338">
        <ele>174.6</ele>
        <time>2022-09-17T14:53:11.000Z</time>
      </trkpt>
      <trkpt lat="45.08038" lon="5.17347">
        <ele>173.3</ele>
        <time>2022-09-17T14:53:12.000Z</time>
      </trkpt>
      <trkpt lat="45.08045" lon="5.17357">
        <ele>172.1</ele>
        <time>2022-09-17T14:53:13.000Z</time>
      </trkpt>
      <trkpt lat="45.08051" lon="5.17367">
        <ele>171.9</ele>
        <time>2022-09-17T14:53:14.000Z</time>
      </trkpt>
      <trkpt lat="45.08057" lon="5.17377">
        <ele>172.6</ele>
        <time>2022-09-17T14:53:15.000Z</time>
      </trkpt>
      <trkpt lat="45.08063" lon="5.17387">
        <ele>173.7</ele>
        <time>2022-09-17T14:53:16.000Z</time>
      </trkpt>
      <trkpt lat="45.08068" lon="5.17397">
        <ele>173.6</ele>
        <time>2022-09-17T14:53:17.000Z</time>
      </trkpt>
      <trkpt lat="45.08074" lon="5.17407">
        <ele>173.3</ele>
        <time>2022-09-17T14:53:18.000Z</time>
      </trkpt>
      <trkpt lat="45.08079" lon="5.17416">
        <ele>173</ele>
        <time>2022-09-17T14:53:19.000Z</time>
      </trkpt>
      <trkpt lat="45.08085" lon="5.17425">
        <ele>174.5</ele>
        <time>2022-09-17T14:53:20.000Z</time>
      </trkpt>
      <trkpt lat="45.0809" lon="5.17435">
        <ele>175.3</ele>
        <time>2022-09-17T14:53:21.000Z</time>
      </trkpt>
      <trkpt lat="45.08094" lon="5.17444">
        <ele>174.3</ele>
        <time>2022-09-17T14:53:22.000Z</time>
      </trkpt>
      <trkpt lat="45.08099" lon="5.17453">
        <ele>173.3</ele>
        <time>2022-09-17T14:53:23.000Z</time>
      </trkpt>
      <trkpt lat="45.08104" lon="5.17461">
        <ele>172.9</ele>
        <time>2022-09-17T14:53:24.000Z</time>
      </trkpt>
      <trkpt lat="45.08109" lon="5.17469">
        <ele>172.8</ele>
        <time>2022-09-17T14:53:25.000Z</time>
      </trkpt>
      <trkpt lat="45.08114" lon="5.17477">
        <ele>173.5</ele>
        <time>2022-09-17T14:53:26.000Z</time>
      </trkpt>
      <trkpt lat="45.08119" lon="5.17485">
        <ele>173.8</ele>
        <time>2022-09-17T14:53:27.000Z</time>
      </trkpt>
      <trkpt lat="45.08124" lon="5.17493">
        <ele>173.2</ele>
        <time>2022-09-17T14:53:28.000Z</time>
      </trkpt>
      <trkpt lat="45.08129" lon="5.175">
        <ele>171.8</ele>
        <time>2022-09-17T14:53:29.000Z</time>
      </trkpt>
      <trkpt lat="45.08134" lon="5.17508">
        <ele>171.9</ele>
        <time>2022-09-17T14:53:30.000Z</time>
      </trkpt>
      <trkpt lat="45.08139" lon="5.17516">
        <ele>172.9</ele>
        <time>2022-09-17T14:53:31.000Z</time>
      </trkpt>
      <trkpt lat="45.08144" lon="5.17524">
        <ele>174</ele>
        <time>2022-09-17T14:53:32.000Z</time>
      </trkpt>
      <trkpt lat="45.0815" lon="5.17532">
        <ele>173.2</ele>
        <time>2022-09-17T14:53:33.000Z</time>
      </trkpt>
      <trkpt lat="45.08156" lon="5.1754">
        <ele>172.1</ele>
        <time>2022-09-17T14:53:34.000Z</time>
      </trkpt>
      <trkpt lat="45.08161" lon="5.17548">
        <ele>171.4</ele>
        <time>2022-09-17T14:53:35.000Z</time>
      </trkpt>
      <trkpt lat="45.08167" lon="5.17556">
        <ele>171.1</ele>
        <time>2022-09-17T14:53:36.000Z</time>
      </trkpt>
      <trkpt lat="45.08173" lon="5.17564">
        <ele>171.2</ele>
        <time>2022-09-17T14:53:37.000Z</time>
      </trkpt>
      <trkpt lat="45.08179" lon="5.17572">
        <ele>170.6</ele>
        <time>2022-09-17T14:53:38.000Z</time>
      </trkpt>
      <trkpt lat="45.08185" lon="5.1758">
        <ele>169.2</ele>
        <time>2022-09-17T14:53:39.000Z</time>
      </trkpt>
      <trkpt lat="45.08191" lon="5.17588">
        <ele>168.6</ele>
        <time>2022-09-17T14:53:40.000Z</time>
      </trkpt>
      <trkpt lat="45.08197" lon="5.17596">
        <ele>169.8</ele>
        <time>2022-09-17T14:53:41.000Z</time>
      </trkpt>
      <trkpt lat="45.08203" lon="5.17605">
        <ele>170.6</ele>
        <time>2022-09-17T14:53:42.000Z</time>
      </trkpt>
      <trkpt lat="45.08209" lon="5.17614">
        <ele>170.5</ele>
        <time>2022-09-17T14:53:43.000Z</time>
      </trkpt>
      <trkpt lat="45.08214" lon="5.17622">
        <ele>170</ele>
        <time>2022-09-17T14:53:44.000Z</time>
      </trkpt>
      <trkpt lat="45.0822" lon="5.1763">
        <ele>170.1</ele>
        <time>2022-09-17T14:53:45.000Z</time>
      </trkpt>
      <trkpt lat="45.08226" lon="5.17638">
        <ele>170.6</ele>
        <time>2022-09-17T14:53:46.000Z</time>
      </trkpt>
      <trkpt lat="45.08232" lon="5.17646">
        <ele>170.4</ele>
        <time>2022-09-17T14:53:47.000Z</time>
      </trkpt>
      <trkpt lat="45.08238" lon="5.17654">
        <ele>169.8</ele>
        <time>2022-09-17T14:53:48.000Z</time>
      </trkpt>
      <trkpt lat="45.08244" lon="5.17662">
        <ele>168.9</ele>
        <time>2022-09-17T14:53:49.000Z</time>
      </trkpt>
      <trkpt lat="45.0825" lon="5.17671">
        <ele>168.2</ele>
        <time>2022-09-17T14:53:50.000Z</time>
      </trkpt>
      <trkpt lat="45.08256" lon="5.17679">
        <ele>169</ele>
        <time>2022-09-17T14:53:51.000Z</time>
      </trkpt>
      <trkpt lat="45.08263" lon="5.17687">
        <ele>169.2</ele>
        <time>2022-09-17T14:53:52.000Z</time>
      </trkpt>
      <trkpt lat="45.08269" lon="5.17695">
        <ele>168.7</ele>
        <time>2022-09-17T14:53:53.000Z</time>
      </trkpt>
      <trkpt lat="45.08275" lon="5.17704">
        <ele>169</ele>
        <time>2022-09-17T14:53:54.000Z</time>
      </trkpt>
      <trkpt lat="45.08281" lon="5.17712">
        <ele>169.5</ele>
        <time>2022-09-17T14:53:55.000Z</time>
      </trkpt>
      <trkpt lat="45.08288" lon="5.17721">
        <ele>169.5</ele>
        <time>2022-09-17T14:53:56.000Z</time>
      </trkpt>
      <trkpt lat="45.08294" lon="5.17729">
        <ele>169.1</ele>
        <time>2022-09-17T14:53:57.000Z</time>
      </trkpt>
      <trkpt lat="45.083" lon="5.17737">
        <ele>169</ele>
        <time>2022-09-17T14:53:58.000Z</time>
      </trkpt>
      <trkpt lat="45.08307" lon="5.17744">
        <ele>169.3</ele>
        <time>2022-09-17T14:53:59.000Z</time>
      </trkpt>
      <trkpt lat="45.08313" lon="5.17752">
        <ele>169.7</ele>
        <time>2022-09-17T14:54:00.000Z</time>
      </trkpt>
      <trkpt lat="45.08319" lon="5.1776">
        <ele>169.5</ele>
        <time>2022-09-17T14:54:01.000Z</time>
      </trkpt>
      <trkpt lat="45.08325" lon="5.17768">
        <ele>169.1</ele>
        <time>2022-09-17T14:54:02.000Z</time>
      </trkpt>
      <trkpt lat="45.08332" lon="5.17775">
        <ele>168.5</ele>
        <time>2022-09-17T14:54:03.000Z</time>
      </trkpt>
      <trkpt lat="45.08338" lon="5.17782">
        <ele>168.4</ele>
        <time>2022-09-17T14:54:04.000Z</time>
      </trkpt>
      <trkpt lat="45.08344" lon="5.1779">
        <ele>168.4</ele>
        <time>2022-09-17T14:54:05.000Z</time>
      </trkpt>
      <trkpt lat="45.0835" lon="5.17797">
        <ele>168.1</ele>
        <time>2022-09-17T14:54:06.000Z</time>
      </trkpt>
      <trkpt lat="45.08356" lon="5.17804">
        <ele>167.4</ele>
        <time>2022-09-17T14:54:07.000Z</time>
      </trkpt>
      <trkpt lat="45.08361" lon="5.17812">
        <ele>167.2</ele>
        <time>2022-09-17T14:54:08.000Z</time>
      </trkpt>
      <trkpt lat="45.08367" lon="5.17819">
        <ele>168.2</ele>
        <time>2022-09-17T14:54:09.000Z</time>
      </trkpt>
      <trkpt lat="45.08373" lon="5.17827">
        <ele>168.5</ele>
        <time>2022-09-17T14:54:10.000Z</time>
      </trkpt>
      <trkpt lat="45.08378" lon="5.17834">
        <ele>168.1</ele>
        <time>2022-09-17T14:54:11.000Z</time>
      </trkpt>
      <trkpt lat="45.08384" lon="5.17843">
        <ele>167.8</ele>
        <time>2022-09-17T14:54:12.000Z</time>
      </trkpt>
      <trkpt lat="45.08388" lon="5.17851">
        <ele>167.7</ele>
        <time>2022-09-17T14:54:13.000Z</time>
      </trkpt>
      <trkpt lat="45.08393" lon="5.17859">
        <ele>167.8</ele>
        <time>2022-09-17T14:54:14.000Z</time>
      </trkpt>
      <trkpt lat="45.08398" lon="5.17868">
        <ele>167.9</ele>
        <time>2022-09-17T14:54:15.000Z</time>
      </trkpt>
      <trkpt lat="45.08402" lon="5.17877">
        <ele>167.5</ele>
        <time>2022-09-17T14:54:16.000Z</time>
      </trkpt>
      <trkpt lat="45.08407" lon="5.17885">
        <ele>166.8</ele>
        <time>2022-09-17T14:54:17.000Z</time>
      </trkpt>
      <trkpt lat="45.08411" lon="5.17894">
        <ele>165.7</ele>
        <time>2022-09-17T14:54:18.000Z</time>
      </trkpt>
      <trkpt lat="45.08415" lon="5.17903">
        <ele>165.1</ele>
        <time>2022-09-17T14:54:19.000Z</time>
      </trkpt>
      <trkpt lat="45.08419" lon="5.17911">
        <ele>165.2</ele>
        <time>2022-09-17T14:54:20.000Z</time>
      </trkpt>
      <trkpt lat="45.08424" lon="5.1792">
        <ele>165.2</ele>
        <time>2022-09-17T14:54:21.000Z</time>
      </trkpt>
      <trkpt lat="45.08428" lon="5.17928">
        <ele>165</ele>
        <time>2022-09-17T14:54:22.000Z</time>
      </trkpt>
      <trkpt lat="45.08432" lon="5.17936">
        <ele>164.6</ele>
        <time>2022-09-17T14:54:23.000Z</time>
      </trkpt>
      <trkpt lat="45.08437" lon="5.17944">
        <ele>164.1</ele>
        <time>2022-09-17T14:54:24.000Z</time>
      </trkpt>
      <trkpt lat="45.08441" lon="5.17951">
        <ele>164.1</ele>
        <time>2022-09-17T14:54:25.000Z</time>
      </trkpt>
      <trkpt lat="45.08445" lon="5.17959">
        <ele>164.2</ele>
        <time>2022-09-17T14:54:26.000Z</time>
      </trkpt>
      <trkpt lat="45.08449" lon="5.17967">
        <ele>164</ele>
        <time>2022-09-17T14:54:27.000Z</time>
      </trkpt>
      <trkpt lat="45.08454" lon="5.17975">
        <ele>163.9</ele>
        <time>2022-09-17T14:54:28.000Z</time>
      </trkpt>
      <trkpt lat="45.08458" lon="5.17983">
        <ele>163.7</ele>
        <time>2022-09-17T14:54:29.000Z</time>
      </trkpt>
      <trkpt lat="45.08462" lon="5.17991">
        <ele>163.4</ele>
        <time>2022-09-17T14:54:30.000Z</time>
      </trkpt>
      <trkpt lat="45.08466" lon="5.17999">
        <ele>163</ele>
        <time>2022-09-17T14:54:31.000Z</time>
      </trkpt>
      <trkpt lat="45.0847" lon="5.18008">
        <ele>163.2</ele>
        <time>2022-09-17T14:54:32.000Z</time>
      </trkpt>
      <trkpt lat="45.08474" lon="5.18016">
        <ele>163.6</ele>
        <time>2022-09-17T14:54:33.000Z</time>
      </trkpt>
      <trkpt lat="45.08478" lon="5.18025">
        <ele>164.1</ele>
        <time>2022-09-17T14:54:34.000Z</time>
      </trkpt>
      <trkpt lat="45.08481" lon="5.18034">
        <ele>163.8</ele>
        <time>2022-09-17T14:54:35.000Z</time>
      </trkpt>
      <trkpt lat="45.08485" lon="5.18043">
        <ele>163.1</ele>
        <time>2022-09-17T14:54:36.000Z</time>
      </trkpt>
      <trkpt lat="45.08488" lon="5.18053">
        <ele>162</ele>
        <time>2022-09-17T14:54:37.000Z</time>
      </trkpt>
      <trkpt lat="45.08491" lon="5.18063">
        <ele>161.3</ele>
        <time>2022-09-17T14:54:38.000Z</time>
      </trkpt>
      <trkpt lat="45.08494" lon="5.18074">
        <ele>160.7</ele>
        <time>2022-09-17T14:54:39.000Z</time>
      </trkpt>
      <trkpt lat="45.08497" lon="5.18084">
        <ele>160.1</ele>
        <time>2022-09-17T14:54:40.000Z</time>
      </trkpt>
      <trkpt lat="45.08501" lon="5.18095">
        <ele>160.7</ele>
        <time>2022-09-17T14:54:41.000Z</time>
      </trkpt>
      <trkpt lat="45.08504" lon="5.18106">
        <ele>160.8</ele>
        <time>2022-09-17T14:54:42.000Z</time>
      </trkpt>
      <trkpt lat="45.08507" lon="5.18117">
        <ele>160.8</ele>
        <time>2022-09-17T14:54:43.000Z</time>
      </trkpt>
      <trkpt lat="45.08511" lon="5.18128">
        <ele>160.5</ele>
        <time>2022-09-17T14:54:44.000Z</time>
      </trkpt>
      <trkpt lat="45.08514" lon="5.18139">
        <ele>160.5</ele>
        <time>2022-09-17T14:54:45.000Z</time>
      </trkpt>
      <trkpt lat="45.08518" lon="5.1815">
        <ele>159.8</ele>
        <time>2022-09-17T14:54:46.000Z</time>
      </trkpt>
      <trkpt lat="45.08522" lon="5.18161">
        <ele>159.3</ele>
        <time>2022-09-17T14:54:47.000Z</time>
      </trkpt>
      <trkpt lat="45.08526" lon="5.18172">
        <ele>159.4</ele>
        <time>2022-09-17T14:54:48.000Z</time>
      </trkpt>
      <trkpt lat="45.0853" lon="5.18183">
        <ele>160.1</ele>
        <time>2022-09-17T14:54:49.000Z</time>
      </trkpt>
      <trkpt lat="45.08534" lon="5.18194">
        <ele>160.8</ele>
        <time>2022-09-17T14:54:50.000Z</time>
      </trkpt>
      <trkpt lat="45.08537" lon="5.18205">
        <ele>160.5</ele>
        <time>2022-09-17T14:54:51.000Z</time>
      </trkpt>
      <trkpt lat="45.08541" lon="5.18215">
        <ele>160.1</ele>
        <time>2022-09-17T14:54:52.000Z</time>
      </trkpt>
      <trkpt lat="45.08544" lon="5.18226">
        <ele>159.7</ele>
        <time>2022-09-17T14:54:53.000Z</time>
      </trkpt>
      <trkpt lat="45.08547" lon="5.18236">
        <ele>159.3</ele>
        <time>2022-09-17T14:54:54.000Z</time>
      </trkpt>
      <trkpt lat="45.08551" lon="5.18247">
        <ele>159</ele>
        <time>2022-09-17T14:54:55.000Z</time>
      </trkpt>
      <trkpt lat="45.08554" lon="5.18258">
        <ele>159</ele>
        <time>2022-09-17T14:54:56.000Z</time>
      </trkpt>
      <trkpt lat="45.08557" lon="5.18268">
        <ele>159.1</ele>
        <time>2022-09-17T14:54:57.000Z</time>
      </trkpt>
      <trkpt lat="45.0856" lon="5.18278">
        <ele>158.9</ele>
        <time>2022-09-17T14:54:58.000Z</time>
      </trkpt>
      <trkpt lat="45.08562" lon="5.18289">
        <ele>158.6</ele>
        <time>2022-09-17T14:54:59.000Z</time>
      </trkpt>
      <trkpt lat="45.08564" lon="5.18299">
        <ele>158.3</ele>
        <time>2022-09-17T14:55:00.000Z</time>
      </trkpt>
      <trkpt lat="45.08565" lon="5.1831">
        <ele>157.9</ele>
        <time>2022-09-17T14:55:01.000Z</time>
      </trkpt>
      <trkpt lat="45.08566" lon="5.1832">
        <ele>157.8</ele>
        <time>2022-09-17T14:55:02.000Z</time>
      </trkpt>
      <trkpt lat="45.08567" lon="5.18331">
        <ele>157.7</ele>
        <time>2022-09-17T14:55:03.000Z</time>
      </trkpt>
      <trkpt lat="45.08568" lon="5.18342">
        <ele>157.4</ele>
        <time>2022-09-17T14:55:04.000Z</time>
      </trkpt>
      <trkpt lat="45.08568" lon="5.18353">
        <ele>157</ele>
        <time>2022-09-17T14:55:05.000Z</time>
      </trkpt>
      <trkpt lat="45.08568" lon="5.18365">
        <ele>156.6</ele>
        <time>2022-09-17T14:55:06.000Z</time>
      </trkpt>
      <trkpt lat="45.08568" lon="5.18376">
        <ele>156.2</ele>
        <time>2022-09-17T14:55:07.000Z</time>
      </trkpt>
      <trkpt lat="45.08568" lon="5.18387">
        <ele>155.9</ele>
        <time>2022-09-17T14:55:08.000Z</time>
      </trkpt>
      <trkpt lat="45.08569" lon="5.18398">
        <ele>155.7</ele>
        <time>2022-09-17T14:55:09.000Z</time>
      </trkpt>
      <trkpt lat="45.0857" lon="5.1841">
        <ele>155.7</ele>
        <time>2022-09-17T14:55:10.000Z</time>
      </trkpt>
      <trkpt lat="45.08571" lon="5.1842">
        <ele>155.5</ele>
        <time>2022-09-17T14:55:11.000Z</time>
      </trkpt>
      <trkpt lat="45.08571" lon="5.18431">
        <ele>155</ele>
        <time>2022-09-17T14:55:12.000Z</time>
      </trkpt>
      <trkpt lat="45.08572" lon="5.18441">
        <ele>154.5</ele>
        <time>2022-09-17T14:55:13.000Z</time>
      </trkpt>
      <trkpt lat="45.08572" lon="5.1845">
        <ele>154.2</ele>
        <time>2022-09-17T14:55:14.000Z</time>
      </trkpt>
      <trkpt lat="45.08572" lon="5.1846">
        <ele>154</ele>
        <time>2022-09-17T14:55:15.000Z</time>
      </trkpt>
      <trkpt lat="45.08572" lon="5.1847">
        <ele>153.8</ele>
        <time>2022-09-17T14:55:16.000Z</time>
      </trkpt>
      <trkpt lat="45.08571" lon="5.18479">
        <ele>153.3</ele>
        <time>2022-09-17T14:55:17.000Z</time>
      </trkpt>
      <trkpt lat="45.0857" lon="5.18488">
        <ele>152.7</ele>
        <time>2022-09-17T14:55:18.000Z</time>
      </trkpt>
      <trkpt lat="45.0857" lon="5.18497">
        <ele>152.2</ele>
        <time>2022-09-17T14:55:19.000Z</time>
      </trkpt>
      <trkpt lat="45.08569" lon="5.18506">
        <ele>151.9</ele>
        <time>2022-09-17T14:55:20.000Z</time>
      </trkpt>
      <trkpt lat="45.08569" lon="5.18514">
        <ele>151.7</ele>
        <time>2022-09-17T14:55:21.000Z</time>
      </trkpt>
      <trkpt lat="45.08569" lon="5.18523">
        <ele>151.6</ele>
        <time>2022-09-17T14:55:22.000Z</time>
      </trkpt>
      <trkpt lat="45.08569" lon="5.18531">
        <ele>151.5</ele>
        <time>2022-09-17T14:55:23.000Z</time>
      </trkpt>
      <trkpt lat="45.08569" lon="5.1854">
        <ele>151.5</ele>
        <time>2022-09-17T14:55:24.000Z</time>
      </trkpt>
      <trkpt lat="45.08569" lon="5.18548">
        <ele>151.5</ele>
        <time>2022-09-17T14:55:25.000Z</time>
      </trkpt>
      <trkpt lat="45.08569" lon="5.18557">
        <ele>151.5</ele>
        <time>2022-09-17T14:55:26.000Z</time>
      </trkpt>
      <trkpt lat="45.08569" lon="5.18564">
        <ele>151.7</ele>
        <time>2022-09-17T14:55:27.000Z</time>
      </trkpt>
      <trkpt lat="45.08569" lon="5.18572">
        <ele>151.8</ele>
        <time>2022-09-17T14:55:28.000Z</time>
      </trkpt>
      <trkpt lat="45.0857" lon="5.1858">
        <ele>151.9</ele>
        <time>2022-09-17T14:55:29.000Z</time>
      </trkpt>
      <trkpt lat="45.0857" lon="5.18587">
        <ele>151.9</ele>
        <time>2022-09-17T14:55:30.000Z</time>
      </trkpt>
      <trkpt lat="45.08569" lon="5.18594">
        <ele>151.8</ele>
        <time>2022-09-17T14:55:31.000Z</time>
      </trkpt>
      <trkpt lat="45.0857" lon="5.18601">
        <ele>151.7</ele>
        <time>2022-09-17T14:55:32.000Z</time>
      </trkpt>
      <trkpt lat="45.08569" lon="5.18607">
        <ele>151.6</ele>
        <time>2022-09-17T14:55:33.000Z</time>
      </trkpt>
      <trkpt lat="45.08569" lon="5.18613">
        <ele>151.5</ele>
        <time>2022-09-17T14:55:34.000Z</time>
      </trkpt>
      <trkpt lat="45.08569" lon="5.18619">
        <ele>151.6</ele>
        <time>2022-09-17T14:55:35.000Z</time>
      </trkpt>
      <trkpt lat="45.08569" lon="5.18625">
        <ele>151.7</ele>
        <time>2022-09-17T14:55:36.000Z</time>
      </trkpt>
      <trkpt lat="45.08569" lon="5.18631">
        <ele>151.8</ele>
        <time>2022-09-17T14:55:37.000Z</time>
      </trkpt>
      <trkpt lat="45.08568" lon="5.18636">
        <ele>151.9</ele>
        <time>2022-09-17T14:55:38.000Z</time>
      </trkpt>
      <trkpt lat="45.08567" lon="5.1864">
        <ele>152</ele>
        <time>2022-09-17T14:55:39.000Z</time>
      </trkpt>
      <trkpt lat="45.08565" lon="5.18643">
        <ele>151.9</ele>
        <time>2022-09-17T14:55:40.000Z</time>
      </trkpt>
      <trkpt lat="45.08564" lon="5.1864">
        <ele>152</ele>
        <time>2022-09-17T14:55:43.000Z</time>
      </trkpt>
      <trkpt lat="45.08564" lon="5.18638">
        <ele>152</ele>
        <time>2022-09-17T14:55:44.000Z</time>
      </trkpt>
      <trkpt lat="45.08564" lon="5.18634">
        <ele>151.9</ele>
        <time>2022-09-17T14:55:45.000Z</time>
      </trkpt>
      <trkpt lat="45.08563" lon="5.18631">
        <ele>151.8</ele>
        <time>2022-09-17T14:55:46.000Z</time>
      </trkpt>
      <trkpt lat="45.08563" lon="5.18628">
        <ele>151.7</ele>
        <time>2022-09-17T14:55:47.000Z</time>
      </trkpt>
      <trkpt lat="45.08562" lon="5.18625">
        <ele>151.6</ele>
        <time>2022-09-17T14:55:48.000Z</time>
      </trkpt>
      <trkpt lat="45.08562" lon="5.18622">
        <ele>151.5</ele>
        <time>2022-09-17T14:55:49.000Z</time>
      </trkpt>
      <trkpt lat="45.08561" lon="5.18619">
        <ele>151.4</ele>
        <time>2022-09-17T14:55:51.000Z</time>
      </trkpt>
      <trkpt lat="45.08561" lon="5.18619">
        <ele>151.4</ele>
        <time>2022-09-17T14:55:51.000Z</time>
      </trkpt>
      <trkpt lat="45.08565" lon="5.18622">
        <ele>151.6</ele>
        <time>2022-09-17T15:10:17.000Z</time>
      </trkpt>
      <trkpt lat="45.08565" lon="5.18622">
        <ele>151.6</ele>
        <time>2022-09-17T15:10:17.000Z</time>
      </trkpt>
      <trkpt lat="45.08564" lon="5.1865">
        <ele>151.7</ele>
        <time>2022-09-17T15:10:18.000Z</time>
      </trkpt>
      <trkpt lat="45.08562" lon="5.18655">
        <ele>151.5</ele>
        <time>2022-09-17T15:10:19.000Z</time>
      </trkpt>
      <trkpt lat="45.08548" lon="5.18648">
        <ele>151.2</ele>
        <time>2022-09-17T15:10:20.000Z</time>
      </trkpt>
      <trkpt lat="45.08547" lon="5.18638">
        <ele>151.4</ele>
        <time>2022-09-17T15:10:21.000Z</time>
      </trkpt>
      <trkpt lat="45.08553" lon="5.1862">
        <ele>151.2</ele>
        <time>2022-09-17T15:10:22.000Z</time>
      </trkpt>
      <trkpt lat="45.08554" lon="5.18611">
        <ele>150.9</ele>
        <time>2022-09-17T15:10:23.000Z</time>
      </trkpt>
      <trkpt lat="45.08558" lon="5.18606">
        <ele>151.2</ele>
        <time>2022-09-17T15:10:24.000Z</time>
      </trkpt>
      <trkpt lat="45.08561" lon="5.18604">
        <ele>151.4</ele>
        <time>2022-09-17T15:10:25.000Z</time>
      </trkpt>
      <trkpt lat="45.08562" lon="5.18606">
        <ele>151.4</ele>
        <time>2022-09-17T15:10:26.000Z</time>
      </trkpt>
      <trkpt lat="45.08562" lon="5.1861">
        <ele>151.3</ele>
        <time>2022-09-17T15:10:27.000Z</time>
      </trkpt>
      <trkpt lat="45.08562" lon="5.18612">
        <ele>151.3</ele>
        <time>2022-09-17T15:10:28.000Z</time>
      </trkpt>
      <trkpt lat="45.08562" lon="5.18615">
        <ele>151.3</ele>
        <time>2022-09-17T15:10:30.000Z</time>
      </trkpt>
      <trkpt lat="45.08563" lon="5.18623">
        <ele>151.6</ele>
        <time>2022-09-17T15:10:33.000Z</time>
      </trkpt>
      <trkpt lat="45.08563" lon="5.18626">
        <ele>151.7</ele>
        <time>2022-09-17T15:10:34.000Z</time>
      </trkpt>
      <trkpt lat="45.08563" lon="5.1863">
        <ele>151.8</ele>
        <time>2022-09-17T15:10:35.000Z</time>
      </trkpt>
      <trkpt lat="45.08563" lon="5.18633">
        <ele>151.8</ele>
        <time>2022-09-17T15:10:36.000Z</time>
      </trkpt>
      <trkpt lat="45.08563" lon="5.18636">
        <ele>151.9</ele>
        <time>2022-09-17T15:10:37.000Z</time>
      </trkpt>
      <trkpt lat="45.08563" lon="5.18639">
        <ele>152</ele>
        <time>2022-09-17T15:10:38.000Z</time>
      </trkpt>
      <trkpt lat="45.08564" lon="5.18642">
        <ele>151.9</ele>
        <time>2022-09-17T15:10:39.000Z</time>
      </trkpt>
      <trkpt lat="45.08564" lon="5.18645">
        <ele>151.8</ele>
        <time>2022-09-17T15:10:40.000Z</time>
      </trkpt>
      <trkpt lat="45.08563" lon="5.18648">
        <ele>151.8</ele>
        <time>2022-09-17T15:10:41.000Z</time>
      </trkpt>
      <trkpt lat="45.08563" lon="5.18651">
        <ele>151.7</ele>
        <time>2022-09-17T15:10:42.000Z</time>
      </trkpt>
      <trkpt lat="45.08563" lon="5.18654">
        <ele>151.6</ele>
        <time>2022-09-17T15:10:43.000Z</time>
      </trkpt>
      <trkpt lat="45.08563" lon="5.18657">
        <ele>151.5</ele>
        <time>2022-09-17T15:10:44.000Z</time>
      </trkpt>
      <trkpt lat="45.08563" lon="5.1866">
        <ele>151.4</ele>
        <time>2022-09-17T15:10:45.000Z</time>
      </trkpt>
      <trkpt lat="45.08562" lon="5.18663">
        <ele>151.4</ele>
        <time>2022-09-17T15:10:46.000Z</time>
      </trkpt>
      <trkpt lat="45.08562" lon="5.18665">
        <ele>151.3</ele>
        <time>2022-09-17T15:10:47.000Z</time>
      </trkpt>
      <trkpt lat="45.08562" lon="5.18668">
        <ele>151.3</ele>
        <time>2022-09-17T15:10:48.000Z</time>
      </trkpt>
      <trkpt lat="45.08562" lon="5.18671">
        <ele>151.3</ele>
        <time>2022-09-17T15:10:49.000Z</time>
      </trkpt>
      <trkpt lat="45.08562" lon="5.18674">
        <ele>151.4</ele>
        <time>2022-09-17T15:10:50.000Z</time>
      </trkpt>
      <trkpt lat="45.08562" lon="5.18677">
        <ele>151.5</ele>
        <time>2022-09-17T15:10:51.000Z</time>
      </trkpt>
      <trkpt lat="45.08562" lon="5.1868">
        <ele>151.6</ele>
        <time>2022-09-17T15:10:52.000Z</time>
      </trkpt>
      <trkpt lat="45.08562" lon="5.18685">
        <ele>151.7</ele>
        <time>2022-09-17T15:10:54.000Z</time>
      </trkpt>
      <trkpt lat="45.08563" lon="5.18688">
        <ele>151.8</ele>
        <time>2022-09-17T15:10:55.000Z</time>
      </trkpt>
      <trkpt lat="45.08563" lon="5.1869">
        <ele>151.9</ele>
        <time>2022-09-17T15:10:56.000Z</time>
      </trkpt>
      <trkpt lat="45.08563" lon="5.18694">
        <ele>152</ele>
        <time>2022-09-17T15:10:57.000Z</time>
      </trkpt>
      <trkpt lat="45.08563" lon="5.18697">
        <ele>152</ele>
        <time>2022-09-17T15:10:58.000Z</time>
      </trkpt>
      <trkpt lat="45.08564" lon="5.187">
        <ele>152</ele>
        <time>2022-09-17T15:10:59.000Z</time>
      </trkpt>
      <trkpt lat="45.08563" lon="5.18703">
        <ele>152</ele>
        <time>2022-09-17T15:11:00.000Z</time>
      </trkpt>
      <trkpt lat="45.08562" lon="5.18706">
        <ele>152</ele>
        <time>2022-09-17T15:11:01.000Z</time>
      </trkpt>
      <trkpt lat="45.08561" lon="5.18709">
        <ele>152</ele>
        <time>2022-09-17T15:11:02.000Z</time>
      </trkpt>
      <trkpt lat="45.0856" lon="5.18712">
        <ele>152</ele>
        <time>2022-09-17T15:11:03.000Z</time>
      </trkpt>
      <trkpt lat="45.08559" lon="5.18715">
        <ele>152</ele>
        <time>2022-09-17T15:11:04.000Z</time>
      </trkpt>
      <trkpt lat="45.08557" lon="5.18718">
        <ele>152</ele>
        <time>2022-09-17T15:11:05.000Z</time>
      </trkpt>
      <trkpt lat="45.08556" lon="5.1872">
        <ele>152</ele>
        <time>2022-09-17T15:11:06.000Z</time>
      </trkpt>
      <trkpt lat="45.08555" lon="5.18723">
        <ele>152</ele>
        <time>2022-09-17T15:11:07.000Z</time>
      </trkpt>
      <trkpt lat="45.08554" lon="5.18725">
        <ele>151.9</ele>
        <time>2022-09-17T15:11:08.000Z</time>
      </trkpt>
      <trkpt lat="45.08553" lon="5.18728">
        <ele>151.8</ele>
        <time>2022-09-17T15:11:09.000Z</time>
      </trkpt>
      <trkpt lat="45.08552" lon="5.1873">
        <ele>151.7</ele>
        <time>2022-09-17T15:11:10.000Z</time>
      </trkpt>
      <trkpt lat="45.08551" lon="5.18733">
        <ele>151.7</ele>
        <time>2022-09-17T15:11:11.000Z</time>
      </trkpt>
      <trkpt lat="45.0855" lon="5.18736">
        <ele>151.6</ele>
        <time>2022-09-17T15:11:12.000Z</time>
      </trkpt>
      <trkpt lat="45.08549" lon="5.18739">
        <ele>151.5</ele>
        <time>2022-09-17T15:11:13.000Z</time>
      </trkpt>
      <trkpt lat="45.08548" lon="5.18741">
        <ele>151.4</ele>
        <time>2022-09-17T15:11:14.000Z</time>
      </trkpt>
      <trkpt lat="45.08547" lon="5.18743">
        <ele>151.3</ele>
        <time>2022-09-17T15:11:15.000Z</time>
      </trkpt>
      <trkpt lat="45.08546" lon="5.18745">
        <ele>151.3</ele>
        <time>2022-09-17T15:11:16.000Z</time>
      </trkpt>
      <trkpt lat="45.08545" lon="5.18748">
        <ele>151.2</ele>
        <time>2022-09-17T15:11:17.000Z</time>
      </trkpt>
      <trkpt lat="45.08544" lon="5.1875">
        <ele>151.2</ele>
        <time>2022-09-17T15:11:18.000Z</time>
      </trkpt>
      <trkpt lat="45.08543" lon="5.18753">
        <ele>151.2</ele>
        <time>2022-09-17T15:11:19.000Z</time>
      </trkpt>
      <trkpt lat="45.08544" lon="5.18758">
        <ele>151.4</ele>
        <time>2022-09-17T15:11:21.000Z</time>
      </trkpt>
      <trkpt lat="45.08544" lon="5.18763">
        <ele>151.6</ele>
        <time>2022-09-17T15:11:23.000Z</time>
      </trkpt>
      <trkpt lat="45.08544" lon="5.18766">
        <ele>151.8</ele>
        <time>2022-09-17T15:11:24.000Z</time>
      </trkpt>
      <trkpt lat="45.08545" lon="5.18769">
        <ele>151.9</ele>
        <time>2022-09-17T15:11:25.000Z</time>
      </trkpt>
      <trkpt lat="45.08544" lon="5.18774">
        <ele>152</ele>
        <time>2022-09-17T15:11:27.000Z</time>
      </trkpt>
      <trkpt lat="45.08545" lon="5.18776">
        <ele>152.2</ele>
        <time>2022-09-17T15:11:28.000Z</time>
      </trkpt>
      <trkpt lat="45.08546" lon="5.18779">
        <ele>152.3</ele>
        <time>2022-09-17T15:11:29.000Z</time>
      </trkpt>
      <trkpt lat="45.08546" lon="5.18783">
        <ele>152.3</ele>
        <time>2022-09-17T15:11:30.000Z</time>
      </trkpt>
      <trkpt lat="45.08546" lon="5.18787">
        <ele>152.3</ele>
        <time>2022-09-17T15:11:31.000Z</time>
      </trkpt>
      <trkpt lat="45.08546" lon="5.18791">
        <ele>152.3</ele>
        <time>2022-09-17T15:11:32.000Z</time>
      </trkpt>
      <trkpt lat="45.08545" lon="5.18795">
        <ele>152.2</ele>
        <time>2022-09-17T15:11:33.000Z</time>
      </trkpt>
      <trkpt lat="45.08545" lon="5.188">
        <ele>152.2</ele>
        <time>2022-09-17T15:11:34.000Z</time>
      </trkpt>
      <trkpt lat="45.08545" lon="5.18805">
        <ele>152.2</ele>
        <time>2022-09-17T15:11:35.000Z</time>
      </trkpt>
      <trkpt lat="45.08545" lon="5.1881">
        <ele>152.2</ele>
        <time>2022-09-17T15:11:36.000Z</time>
      </trkpt>
      <trkpt lat="45.08546" lon="5.18815">
        <ele>152.3</ele>
        <time>2022-09-17T15:11:37.000Z</time>
      </trkpt>
      <trkpt lat="45.08547" lon="5.1882">
        <ele>152.4</ele>
        <time>2022-09-17T15:11:38.000Z</time>
      </trkpt>
      <trkpt lat="45.08549" lon="5.18825">
        <ele>152.5</ele>
        <time>2022-09-17T15:11:39.000Z</time>
      </trkpt>
      <trkpt lat="45.08551" lon="5.18829">
        <ele>152.7</ele>
        <time>2022-09-17T15:11:40.000Z</time>
      </trkpt>
      <trkpt lat="45.08554" lon="5.18834">
        <ele>152.9</ele>
        <time>2022-09-17T15:11:41.000Z</time>
      </trkpt>
      <trkpt lat="45.08555" lon="5.18839">
        <ele>153</ele>
        <time>2022-09-17T15:11:42.000Z</time>
      </trkpt>
      <trkpt lat="45.08557" lon="5.18844">
        <ele>153</ele>
        <time>2022-09-17T15:11:43.000Z</time>
      </trkpt>
      <trkpt lat="45.08558" lon="5.1885">
        <ele>153.1</ele>
        <time>2022-09-17T15:11:44.000Z</time>
      </trkpt>
      <trkpt lat="45.08559" lon="5.18856">
        <ele>153.1</ele>
        <time>2022-09-17T15:11:45.000Z</time>
      </trkpt>
      <trkpt lat="45.0856" lon="5.18863">
        <ele>153.1</ele>
        <time>2022-09-17T15:11:46.000Z</time>
      </trkpt>
      <trkpt lat="45.08559" lon="5.1887">
        <ele>153.1</ele>
        <time>2022-09-17T15:11:47.000Z</time>
      </trkpt>
      <trkpt lat="45.08558" lon="5.18878">
        <ele>153</ele>
        <time>2022-09-17T15:11:48.000Z</time>
      </trkpt>
      <trkpt lat="45.08557" lon="5.18885">
        <ele>153</ele>
        <time>2022-09-17T15:11:49.000Z</time>
      </trkpt>
      <trkpt lat="45.08555" lon="5.18892">
        <ele>153</ele>
        <time>2022-09-17T15:11:50.000Z</time>
      </trkpt>
      <trkpt lat="45.08555" lon="5.18899">
        <ele>152.9</ele>
        <time>2022-09-17T15:11:51.000Z</time>
      </trkpt>
      <trkpt lat="45.08553" lon="5.18905">
        <ele>152.9</ele>
        <time>2022-09-17T15:11:52.000Z</time>
      </trkpt>
      <trkpt lat="45.08553" lon="5.18912">
        <ele>152.9</ele>
        <time>2022-09-17T15:11:53.000Z</time>
      </trkpt>
      <trkpt lat="45.08553" lon="5.1892">
        <ele>152.9</ele>
        <time>2022-09-17T15:11:54.000Z</time>
      </trkpt>
      <trkpt lat="45.08552" lon="5.18928">
        <ele>152.9</ele>
        <time>2022-09-17T15:11:55.000Z</time>
      </trkpt>
      <trkpt lat="45.08553" lon="5.18936">
        <ele>152.9</ele>
        <time>2022-09-17T15:11:56.000Z</time>
      </trkpt>
      <trkpt lat="45.08552" lon="5.18944">
        <ele>152.9</ele>
        <time>2022-09-17T15:11:57.000Z</time>
      </trkpt>
      <trkpt lat="45.08552" lon="5.18951">
        <ele>152.9</ele>
        <time>2022-09-17T15:11:58.000Z</time>
      </trkpt>
      <trkpt lat="45.08551" lon="5.18959">
        <ele>152.8</ele>
        <time>2022-09-17T15:11:59.000Z</time>
      </trkpt>
      <trkpt lat="45.0855" lon="5.18966">
        <ele>152.8</ele>
        <time>2022-09-17T15:12:00.000Z</time>
      </trkpt>
      <trkpt lat="45.0855" lon="5.18974">
        <ele>152.8</ele>
        <time>2022-09-17T15:12:01.000Z</time>
      </trkpt>
      <trkpt lat="45.08549" lon="5.18981">
        <ele>152.8</ele>
        <time>2022-09-17T15:12:02.000Z</time>
      </trkpt>
      <trkpt lat="45.08548" lon="5.18989">
        <ele>152.7</ele>
        <time>2022-09-17T15:12:03.000Z</time>
      </trkpt>
      <trkpt lat="45.08548" lon="5.18996">
        <ele>152.7</ele>
        <time>2022-09-17T15:12:04.000Z</time>
      </trkpt>
      <trkpt lat="45.08547" lon="5.19003">
        <ele>152.7</ele>
        <time>2022-09-17T15:12:05.000Z</time>
      </trkpt>
      <trkpt lat="45.08547" lon="5.19011">
        <ele>152.7</ele>
        <time>2022-09-17T15:12:06.000Z</time>
      </trkpt>
      <trkpt lat="45.08546" lon="5.19019">
        <ele>152.7</ele>
        <time>2022-09-17T15:12:07.000Z</time>
      </trkpt>
      <trkpt lat="45.08546" lon="5.19027">
        <ele>152.6</ele>
        <time>2022-09-17T15:12:08.000Z</time>
      </trkpt>
      <trkpt lat="45.08546" lon="5.19034">
        <ele>152.8</ele>
        <time>2022-09-17T15:12:09.000Z</time>
      </trkpt>
      <trkpt lat="45.08545" lon="5.19042">
        <ele>152.9</ele>
        <time>2022-09-17T15:12:10.000Z</time>
      </trkpt>
      <trkpt lat="45.08545" lon="5.19049">
        <ele>153.1</ele>
        <time>2022-09-17T15:12:11.000Z</time>
      </trkpt>
      <trkpt lat="45.08545" lon="5.19057">
        <ele>153.2</ele>
        <time>2022-09-17T15:12:12.000Z</time>
      </trkpt>
      <trkpt lat="45.08544" lon="5.19064">
        <ele>153.3</ele>
        <time>2022-09-17T15:12:13.000Z</time>
      </trkpt>
      <trkpt lat="45.08543" lon="5.19071">
        <ele>153.4</ele>
        <time>2022-09-17T15:12:14.000Z</time>
      </trkpt>
      <trkpt lat="45.08542" lon="5.19079">
        <ele>153.5</ele>
        <time>2022-09-17T15:12:15.000Z</time>
      </trkpt>
      <trkpt lat="45.08542" lon="5.19087">
        <ele>153.5</ele>
        <time>2022-09-17T15:12:16.000Z</time>
      </trkpt>
      <trkpt lat="45.08542" lon="5.19095">
        <ele>153.5</ele>
        <time>2022-09-17T15:12:17.000Z</time>
      </trkpt>
      <trkpt lat="45.08541" lon="5.19103">
        <ele>153.4</ele>
        <time>2022-09-17T15:12:18.000Z</time>
      </trkpt>
      <trkpt lat="45.0854" lon="5.19111">
        <ele>153.3</ele>
        <time>2022-09-17T15:12:19.000Z</time>
      </trkpt>
      <trkpt lat="45.08539" lon="5.19119">
        <ele>153.3</ele>
        <time>2022-09-17T15:12:20.000Z</time>
      </trkpt>
      <trkpt lat="45.08539" lon="5.19126">
        <ele>153.3</ele>
        <time>2022-09-17T15:12:21.000Z</time>
      </trkpt>
      <trkpt lat="45.08538" lon="5.19134">
        <ele>153.3</ele>
        <time>2022-09-17T15:12:22.000Z</time>
      </trkpt>
      <trkpt lat="45.08537" lon="5.19142">
        <ele>153.3</ele>
        <time>2022-09-17T15:12:23.000Z</time>
      </trkpt>
      <trkpt lat="45.08537" lon="5.1915">
        <ele>153.3</ele>
        <time>2022-09-17T15:12:24.000Z</time>
      </trkpt>
      <trkpt lat="45.08537" lon="5.19157">
        <ele>153.3</ele>
        <time>2022-09-17T15:12:25.000Z</time>
      </trkpt>
      <trkpt lat="45.08536" lon="5.19165">
        <ele>153.3</ele>
        <time>2022-09-17T15:12:26.000Z</time>
      </trkpt>
      <trkpt lat="45.08536" lon="5.19172">
        <ele>153.4</ele>
        <time>2022-09-17T15:12:27.000Z</time>
      </trkpt>
      <trkpt lat="45.08535" lon="5.19179">
        <ele>153.5</ele>
        <time>2022-09-17T15:12:28.000Z</time>
      </trkpt>
      <trkpt lat="45.08536" lon="5.19185">
        <ele>153.7</ele>
        <time>2022-09-17T15:12:29.000Z</time>
      </trkpt>
      <trkpt lat="45.08536" lon="5.1919">
        <ele>153.8</ele>
        <time>2022-09-17T15:12:30.000Z</time>
      </trkpt>
      <trkpt lat="45.08535" lon="5.19197">
        <ele>153.8</ele>
        <time>2022-09-17T15:12:31.000Z</time>
      </trkpt>
      <trkpt lat="45.08535" lon="5.19203">
        <ele>153.7</ele>
        <time>2022-09-17T15:12:32.000Z</time>
      </trkpt>
      <trkpt lat="45.08534" lon="5.1921">
        <ele>153.7</ele>
        <time>2022-09-17T15:12:33.000Z</time>
      </trkpt>
      <trkpt lat="45.08534" lon="5.19215">
        <ele>153.6</ele>
        <time>2022-09-17T15:12:34.000Z</time>
      </trkpt>
      <trkpt lat="45.08533" lon="5.19221">
        <ele>153.6</ele>
        <time>2022-09-17T15:12:35.000Z</time>
      </trkpt>
      <trkpt lat="45.08533" lon="5.19227">
        <ele>153.7</ele>
        <time>2022-09-17T15:12:36.000Z</time>
      </trkpt>
      <trkpt lat="45.08532" lon="5.19232">
        <ele>153.7</ele>
        <time>2022-09-17T15:12:37.000Z</time>
      </trkpt>
      <trkpt lat="45.08531" lon="5.19237">
        <ele>153.8</ele>
        <time>2022-09-17T15:12:38.000Z</time>
      </trkpt>
      <trkpt lat="45.0853" lon="5.19243">
        <ele>153.9</ele>
        <time>2022-09-17T15:12:39.000Z</time>
      </trkpt>
      <trkpt lat="45.0853" lon="5.1925">
        <ele>154.1</ele>
        <time>2022-09-17T15:12:40.000Z</time>
      </trkpt>
      <trkpt lat="45.08529" lon="5.19256">
        <ele>154.1</ele>
        <time>2022-09-17T15:12:41.000Z</time>
      </trkpt>
      <trkpt lat="45.08529" lon="5.19262">
        <ele>154.1</ele>
        <time>2022-09-17T15:12:42.000Z</time>
      </trkpt>
      <trkpt lat="45.08528" lon="5.19268">
        <ele>154</ele>
        <time>2022-09-17T15:12:43.000Z</time>
      </trkpt>
      <trkpt lat="45.08528" lon="5.19275">
        <ele>154</ele>
        <time>2022-09-17T15:12:44.000Z</time>
      </trkpt>
      <trkpt lat="45.08528" lon="5.19282">
        <ele>154</ele>
        <time>2022-09-17T15:12:45.000Z</time>
      </trkpt>
      <trkpt lat="45.08527" lon="5.19288">
        <ele>154</ele>
        <time>2022-09-17T15:12:46.000Z</time>
      </trkpt>
      <trkpt lat="45.08527" lon="5.19295">
        <ele>153.9</ele>
        <time>2022-09-17T15:12:47.000Z</time>
      </trkpt>
      <trkpt lat="45.08526" lon="5.19302">
        <ele>153.9</ele>
        <time>2022-09-17T15:12:48.000Z</time>
      </trkpt>
      <trkpt lat="45.08526" lon="5.1931">
        <ele>154</ele>
        <time>2022-09-17T15:12:49.000Z</time>
      </trkpt>
      <trkpt lat="45.08527" lon="5.19317">
        <ele>154.3</ele>
        <time>2022-09-17T15:12:50.000Z</time>
      </trkpt>
      <trkpt lat="45.08526" lon="5.19324">
        <ele>154.6</ele>
        <time>2022-09-17T15:12:51.000Z</time>
      </trkpt>
      <trkpt lat="45.08526" lon="5.19331">
        <ele>154.8</ele>
        <time>2022-09-17T15:12:52.000Z</time>
      </trkpt>
      <trkpt lat="45.08526" lon="5.19337">
        <ele>154.8</ele>
        <time>2022-09-17T15:12:53.000Z</time>
      </trkpt>
      <trkpt lat="45.08526" lon="5.19343">
        <ele>154.9</ele>
        <time>2022-09-17T15:12:54.000Z</time>
      </trkpt>
      <trkpt lat="45.08526" lon="5.19349">
        <ele>154.8</ele>
        <time>2022-09-17T15:12:55.000Z</time>
      </trkpt>
      <trkpt lat="45.08525" lon="5.19356">
        <ele>154.8</ele>
        <time>2022-09-17T15:12:56.000Z</time>
      </trkpt>
      <trkpt lat="45.08525" lon="5.19362">
        <ele>154.8</ele>
        <time>2022-09-17T15:12:57.000Z</time>
      </trkpt>
      <trkpt lat="45.08524" lon="5.19369">
        <ele>154.9</ele>
        <time>2022-09-17T15:12:58.000Z</time>
      </trkpt>
      <trkpt lat="45.08523" lon="5.19375">
        <ele>155</ele>
        <time>2022-09-17T15:12:59.000Z</time>
      </trkpt>
      <trkpt lat="45.08522" lon="5.19381">
        <ele>155.1</ele>
        <time>2022-09-17T15:13:00.000Z</time>
      </trkpt>
      <trkpt lat="45.08521" lon="5.19388">
        <ele>155.3</ele>
        <time>2022-09-17T15:13:01.000Z</time>
      </trkpt>
      <trkpt lat="45.0852" lon="5.19395">
        <ele>155.4</ele>
        <time>2022-09-17T15:13:02.000Z</time>
      </trkpt>
      <trkpt lat="45.08519" lon="5.19401">
        <ele>155.5</ele>
        <time>2022-09-17T15:13:03.000Z</time>
      </trkpt>
      <trkpt lat="45.08518" lon="5.19408">
        <ele>155.7</ele>
        <time>2022-09-17T15:13:04.000Z</time>
      </trkpt>
      <trkpt lat="45.08517" lon="5.19414">
        <ele>155.8</ele>
        <time>2022-09-17T15:13:05.000Z</time>
      </trkpt>
      <trkpt lat="45.08517" lon="5.19421">
        <ele>155.8</ele>
        <time>2022-09-17T15:13:06.000Z</time>
      </trkpt>
      <trkpt lat="45.08516" lon="5.19427">
        <ele>155.7</ele>
        <time>2022-09-17T15:13:07.000Z</time>
      </trkpt>
      <trkpt lat="45.08515" lon="5.19434">
        <ele>155.7</ele>
        <time>2022-09-17T15:13:08.000Z</time>
      </trkpt>
      <trkpt lat="45.08515" lon="5.19441">
        <ele>155.6</ele>
        <time>2022-09-17T15:13:09.000Z</time>
      </trkpt>
      <trkpt lat="45.08514" lon="5.19447">
        <ele>155.6</ele>
        <time>2022-09-17T15:13:10.000Z</time>
      </trkpt>
      <trkpt lat="45.08513" lon="5.19453">
        <ele>155.5</ele>
        <time>2022-09-17T15:13:11.000Z</time>
      </trkpt>
      <trkpt lat="45.08512" lon="5.1946">
        <ele>155.6</ele>
        <time>2022-09-17T15:13:12.000Z</time>
      </trkpt>
      <trkpt lat="45.08512" lon="5.19466">
        <ele>155.7</ele>
        <time>2022-09-17T15:13:13.000Z</time>
      </trkpt>
      <trkpt lat="45.08512" lon="5.19472">
        <ele>155.9</ele>
        <time>2022-09-17T15:13:14.000Z</time>
      </trkpt>
      <trkpt lat="45.08513" lon="5.19479">
        <ele>156.2</ele>
        <time>2022-09-17T15:13:15.000Z</time>
      </trkpt>
      <trkpt lat="45.08513" lon="5.19485">
        <ele>156.6</ele>
        <time>2022-09-17T15:13:16.000Z</time>
      </trkpt>
      <trkpt lat="45.08513" lon="5.19492">
        <ele>156.9</ele>
        <time>2022-09-17T15:13:17.000Z</time>
      </trkpt>
      <trkpt lat="45.08513" lon="5.19498">
        <ele>157.3</ele>
        <time>2022-09-17T15:13:18.000Z</time>
      </trkpt>
      <trkpt lat="45.08512" lon="5.19505">
        <ele>157.5</ele>
        <time>2022-09-17T15:13:19.000Z</time>
      </trkpt>
      <trkpt lat="45.08511" lon="5.19511">
        <ele>157.6</ele>
        <time>2022-09-17T15:13:20.000Z</time>
      </trkpt>
      <trkpt lat="45.08511" lon="5.19518">
        <ele>157.8</ele>
        <time>2022-09-17T15:13:21.000Z</time>
      </trkpt>
      <trkpt lat="45.0851" lon="5.19524">
        <ele>157.9</ele>
        <time>2022-09-17T15:13:22.000Z</time>
      </trkpt>
      <trkpt lat="45.0851" lon="5.19531">
        <ele>158.1</ele>
        <time>2022-09-17T15:13:23.000Z</time>
      </trkpt>
      <trkpt lat="45.08509" lon="5.19536">
        <ele>158.3</ele>
        <time>2022-09-17T15:13:24.000Z</time>
      </trkpt>
      <trkpt lat="45.08509" lon="5.19542">
        <ele>158.5</ele>
        <time>2022-09-17T15:13:25.000Z</time>
      </trkpt>
      <trkpt lat="45.08509" lon="5.19547">
        <ele>158.6</ele>
        <time>2022-09-17T15:13:26.000Z</time>
      </trkpt>
      <trkpt lat="45.08509" lon="5.19552">
        <ele>158.8</ele>
        <time>2022-09-17T15:13:27.000Z</time>
      </trkpt>
      <trkpt lat="45.08508" lon="5.19558">
        <ele>158.9</ele>
        <time>2022-09-17T15:13:28.000Z</time>
      </trkpt>
      <trkpt lat="45.08508" lon="5.19563">
        <ele>159</ele>
        <time>2022-09-17T15:13:29.000Z</time>
      </trkpt>
      <trkpt lat="45.08507" lon="5.19569">
        <ele>159.1</ele>
        <time>2022-09-17T15:13:30.000Z</time>
      </trkpt>
      <trkpt lat="45.08506" lon="5.19574">
        <ele>159.2</ele>
        <time>2022-09-17T15:13:31.000Z</time>
      </trkpt>
      <trkpt lat="45.08506" lon="5.1958">
        <ele>159.3</ele>
        <time>2022-09-17T15:13:32.000Z</time>
      </trkpt>
      <trkpt lat="45.08506" lon="5.19585">
        <ele>159.4</ele>
        <time>2022-09-17T15:13:33.000Z</time>
      </trkpt>
      <trkpt lat="45.08505" lon="5.1959">
        <ele>159.4</ele>
        <time>2022-09-17T15:13:34.000Z</time>
      </trkpt>
      <trkpt lat="45.08505" lon="5.19596">
        <ele>159.4</ele>
        <time>2022-09-17T15:13:35.000Z</time>
      </trkpt>
      <trkpt lat="45.08506" lon="5.19602">
        <ele>159.4</ele>
        <time>2022-09-17T15:13:36.000Z</time>
      </trkpt>
      <trkpt lat="45.08506" lon="5.19609">
        <ele>159.4</ele>
        <time>2022-09-17T15:13:37.000Z</time>
      </trkpt>
      <trkpt lat="45.08506" lon="5.19615">
        <ele>159.4</ele>
        <time>2022-09-17T15:13:38.000Z</time>
      </trkpt>
      <trkpt lat="45.08506" lon="5.19622">
        <ele>159.4</ele>
        <time>2022-09-17T15:13:39.000Z</time>
      </trkpt>
      <trkpt lat="45.08505" lon="5.19629">
        <ele>159.4</ele>
        <time>2022-09-17T15:13:40.000Z</time>
      </trkpt>
      <trkpt lat="45.08505" lon="5.19635">
        <ele>159.4</ele>
        <time>2022-09-17T15:13:41.000Z</time>
      </trkpt>
      <trkpt lat="45.08505" lon="5.19641">
        <ele>159.4</ele>
        <time>2022-09-17T15:13:42.000Z</time>
      </trkpt>
      <trkpt lat="45.08505" lon="5.19649">
        <ele>159.4</ele>
        <time>2022-09-17T15:13:43.000Z</time>
      </trkpt>
      <trkpt lat="45.08506" lon="5.19657">
        <ele>159.6</ele>
        <time>2022-09-17T15:13:44.000Z</time>
      </trkpt>
      <trkpt lat="45.08507" lon="5.19665">
        <ele>159.7</ele>
        <time>2022-09-17T15:13:45.000Z</time>
      </trkpt>
      <trkpt lat="45.08507" lon="5.19673">
        <ele>159.6</ele>
        <time>2022-09-17T15:13:46.000Z</time>
      </trkpt>
      <trkpt lat="45.08508" lon="5.19682">
        <ele>159.4</ele>
        <time>2022-09-17T15:13:47.000Z</time>
      </trkpt>
      <trkpt lat="45.08508" lon="5.19689">
        <ele>159.3</ele>
        <time>2022-09-17T15:13:48.000Z</time>
      </trkpt>
      <trkpt lat="45.08508" lon="5.19698">
        <ele>159.3</ele>
        <time>2022-09-17T15:13:49.000Z</time>
      </trkpt>
      <trkpt lat="45.08508" lon="5.19706">
        <ele>159.4</ele>
        <time>2022-09-17T15:13:50.000Z</time>
      </trkpt>
      <trkpt lat="45.08508" lon="5.19714">
        <ele>159.6</ele>
        <time>2022-09-17T15:13:51.000Z</time>
      </trkpt>
      <trkpt lat="45.08508" lon="5.19722">
        <ele>159.9</ele>
        <time>2022-09-17T15:13:52.000Z</time>
      </trkpt>
      <trkpt lat="45.08508" lon="5.1973">
        <ele>159.9</ele>
        <time>2022-09-17T15:13:53.000Z</time>
      </trkpt>
      <trkpt lat="45.08508" lon="5.19738">
        <ele>160</ele>
        <time>2022-09-17T15:13:54.000Z</time>
      </trkpt>
      <trkpt lat="45.08508" lon="5.19746">
        <ele>160.1</ele>
        <time>2022-09-17T15:13:55.000Z</time>
      </trkpt>
      <trkpt lat="45.08508" lon="5.19754">
        <ele>160.3</ele>
        <time>2022-09-17T15:13:56.000Z</time>
      </trkpt>
      <trkpt lat="45.08508" lon="5.19762">
        <ele>160.5</ele>
        <time>2022-09-17T15:13:57.000Z</time>
      </trkpt>
      <trkpt lat="45.08507" lon="5.1977">
        <ele>160.8</ele>
        <time>2022-09-17T15:13:58.000Z</time>
      </trkpt>
      <trkpt lat="45.08507" lon="5.19778">
        <ele>161</ele>
        <time>2022-09-17T15:13:59.000Z</time>
      </trkpt>
      <trkpt lat="45.08507" lon="5.19785">
        <ele>161.2</ele>
        <time>2022-09-17T15:14:00.000Z</time>
      </trkpt>
      <trkpt lat="45.08507" lon="5.19793">
        <ele>161.4</ele>
        <time>2022-09-17T15:14:01.000Z</time>
      </trkpt>
      <trkpt lat="45.08507" lon="5.19801">
        <ele>161.6</ele>
        <time>2022-09-17T15:14:02.000Z</time>
      </trkpt>
      <trkpt lat="45.08506" lon="5.19808">
        <ele>161.7</ele>
        <time>2022-09-17T15:14:03.000Z</time>
      </trkpt>
      <trkpt lat="45.08506" lon="5.19816">
        <ele>161.7</ele>
        <time>2022-09-17T15:14:04.000Z</time>
      </trkpt>
      <trkpt lat="45.08506" lon="5.19823">
        <ele>161.7</ele>
        <time>2022-09-17T15:14:05.000Z</time>
      </trkpt>
      <trkpt lat="45.08506" lon="5.19832">
        <ele>161.8</ele>
        <time>2022-09-17T15:14:06.000Z</time>
      </trkpt>
      <trkpt lat="45.08506" lon="5.1984">
        <ele>161.8</ele>
        <time>2022-09-17T15:14:07.000Z</time>
      </trkpt>
      <trkpt lat="45.08506" lon="5.19848">
        <ele>161.8</ele>
        <time>2022-09-17T15:14:08.000Z</time>
      </trkpt>
      <trkpt lat="45.08505" lon="5.19857">
        <ele>161.8</ele>
        <time>2022-09-17T15:14:09.000Z</time>
      </trkpt>
      <trkpt lat="45.08505" lon="5.19866">
        <ele>161.8</ele>
        <time>2022-09-17T15:14:10.000Z</time>
      </trkpt>
      <trkpt lat="45.08505" lon="5.19874">
        <ele>161.8</ele>
        <time>2022-09-17T15:14:11.000Z</time>
      </trkpt>
      <trkpt lat="45.08505" lon="5.19883">
        <ele>161.9</ele>
        <time>2022-09-17T15:14:12.000Z</time>
      </trkpt>
      <trkpt lat="45.08505" lon="5.19891">
        <ele>161.9</ele>
        <time>2022-09-17T15:14:13.000Z</time>
      </trkpt>
      <trkpt lat="45.08505" lon="5.19899">
        <ele>162.1</ele>
        <time>2022-09-17T15:14:14.000Z</time>
      </trkpt>
      <trkpt lat="45.08504" lon="5.19907">
        <ele>162.2</ele>
        <time>2022-09-17T15:14:15.000Z</time>
      </trkpt>
      <trkpt lat="45.08504" lon="5.19915">
        <ele>162.4</ele>
        <time>2022-09-17T15:14:16.000Z</time>
      </trkpt>
      <trkpt lat="45.08504" lon="5.19924">
        <ele>162.5</ele>
        <time>2022-09-17T15:14:17.000Z</time>
      </trkpt>
      <trkpt lat="45.08504" lon="5.19932">
        <ele>162.5</ele>
        <time>2022-09-17T15:14:18.000Z</time>
      </trkpt>
      <trkpt lat="45.08504" lon="5.19941">
        <ele>162.5</ele>
        <time>2022-09-17T15:14:19.000Z</time>
      </trkpt>
      <trkpt lat="45.08505" lon="5.19949">
        <ele>162.2</ele>
        <time>2022-09-17T15:14:20.000Z</time>
      </trkpt>
      <trkpt lat="45.08505" lon="5.19957">
        <ele>161.7</ele>
        <time>2022-09-17T15:14:21.000Z</time>
      </trkpt>
      <trkpt lat="45.08505" lon="5.19965">
        <ele>161.1</ele>
        <time>2022-09-17T15:14:22.000Z</time>
      </trkpt>
      <trkpt lat="45.08505" lon="5.19974">
        <ele>160.8</ele>
        <time>2022-09-17T15:14:23.000Z</time>
      </trkpt>
      <trkpt lat="45.08506" lon="5.19982">
        <ele>161.1</ele>
        <time>2022-09-17T15:14:24.000Z</time>
      </trkpt>
      <trkpt lat="45.08506" lon="5.19991">
        <ele>161.4</ele>
        <time>2022-09-17T15:14:25.000Z</time>
      </trkpt>
      <trkpt lat="45.08506" lon="5.19999">
        <ele>161.6</ele>
        <time>2022-09-17T15:14:26.000Z</time>
      </trkpt>
      <trkpt lat="45.08506" lon="5.20008">
        <ele>161.7</ele>
        <time>2022-09-17T15:14:27.000Z</time>
      </trkpt>
      <trkpt lat="45.08506" lon="5.20017">
        <ele>161.8</ele>
        <time>2022-09-17T15:14:28.000Z</time>
      </trkpt>
      <trkpt lat="45.08507" lon="5.20025">
        <ele>161.9</ele>
        <time>2022-09-17T15:14:29.000Z</time>
      </trkpt>
      <trkpt lat="45.08507" lon="5.20034">
        <ele>162</ele>
        <time>2022-09-17T15:14:30.000Z</time>
      </trkpt>
      <trkpt lat="45.08507" lon="5.20042">
        <ele>162</ele>
        <time>2022-09-17T15:14:31.000Z</time>
      </trkpt>
      <trkpt lat="45.08507" lon="5.2005">
        <ele>161.9</ele>
        <time>2022-09-17T15:14:32.000Z</time>
      </trkpt>
      <trkpt lat="45.08507" lon="5.20059">
        <ele>162</ele>
        <time>2022-09-17T15:14:33.000Z</time>
      </trkpt>
      <trkpt lat="45.08507" lon="5.20067">
        <ele>162.3</ele>
        <time>2022-09-17T15:14:34.000Z</time>
      </trkpt>
      <trkpt lat="45.08507" lon="5.20075">
        <ele>162.6</ele>
        <time>2022-09-17T15:14:35.000Z</time>
      </trkpt>
      <trkpt lat="45.08507" lon="5.20083">
        <ele>162.7</ele>
        <time>2022-09-17T15:14:36.000Z</time>
      </trkpt>
      <trkpt lat="45.08507" lon="5.20091">
        <ele>162.7</ele>
        <time>2022-09-17T15:14:37.000Z</time>
      </trkpt>
      <trkpt lat="45.08507" lon="5.20099">
        <ele>162.6</ele>
        <time>2022-09-17T15:14:38.000Z</time>
      </trkpt>
      <trkpt lat="45.08508" lon="5.20107">
        <ele>162.6</ele>
        <time>2022-09-17T15:14:39.000Z</time>
      </trkpt>
      <trkpt lat="45.08508" lon="5.20116">
        <ele>162.6</ele>
        <time>2022-09-17T15:14:40.000Z</time>
      </trkpt>
      <trkpt lat="45.08508" lon="5.20124">
        <ele>162.5</ele>
        <time>2022-09-17T15:14:41.000Z</time>
      </trkpt>
      <trkpt lat="45.08507" lon="5.20133">
        <ele>162.5</ele>
        <time>2022-09-17T15:14:42.000Z</time>
      </trkpt>
      <trkpt lat="45.08507" lon="5.20142">
        <ele>162.5</ele>
        <time>2022-09-17T15:14:43.000Z</time>
      </trkpt>
      <trkpt lat="45.08507" lon="5.2015">
        <ele>162.4</ele>
        <time>2022-09-17T15:14:44.000Z</time>
      </trkpt>
      <trkpt lat="45.08507" lon="5.20159">
        <ele>162.3</ele>
        <time>2022-09-17T15:14:45.000Z</time>
      </trkpt>
      <trkpt lat="45.08507" lon="5.20168">
        <ele>162.2</ele>
        <time>2022-09-17T15:14:46.000Z</time>
      </trkpt>
      <trkpt lat="45.08507" lon="5.20177">
        <ele>162.3</ele>
        <time>2022-09-17T15:14:47.000Z</time>
      </trkpt>
      <trkpt lat="45.08507" lon="5.20185">
        <ele>162.3</ele>
        <time>2022-09-17T15:14:48.000Z</time>
      </trkpt>
      <trkpt lat="45.08507" lon="5.20194">
        <ele>162.3</ele>
        <time>2022-09-17T15:14:49.000Z</time>
      </trkpt>
      <trkpt lat="45.08507" lon="5.20203">
        <ele>162.3</ele>
        <time>2022-09-17T15:14:50.000Z</time>
      </trkpt>
      <trkpt lat="45.08508" lon="5.20212">
        <ele>162.3</ele>
        <time>2022-09-17T15:14:51.000Z</time>
      </trkpt>
      <trkpt lat="45.08508" lon="5.2022">
        <ele>162.3</ele>
        <time>2022-09-17T15:14:52.000Z</time>
      </trkpt>
      <trkpt lat="45.08508" lon="5.20229">
        <ele>162.1</ele>
        <time>2022-09-17T15:14:53.000Z</time>
      </trkpt>
      <trkpt lat="45.08508" lon="5.20238">
        <ele>161.9</ele>
        <time>2022-09-17T15:14:54.000Z</time>
      </trkpt>
      <trkpt lat="45.08508" lon="5.20246">
        <ele>161.6</ele>
        <time>2022-09-17T15:14:55.000Z</time>
      </trkpt>
      <trkpt lat="45.08507" lon="5.20255">
        <ele>161.5</ele>
        <time>2022-09-17T15:14:56.000Z</time>
      </trkpt>
      <trkpt lat="45.08507" lon="5.20263">
        <ele>161.6</ele>
        <time>2022-09-17T15:14:57.000Z</time>
      </trkpt>
      <trkpt lat="45.08507" lon="5.20271">
        <ele>161.6</ele>
        <time>2022-09-17T15:14:58.000Z</time>
      </trkpt>
      <trkpt lat="45.08506" lon="5.2028">
        <ele>161.6</ele>
        <time>2022-09-17T15:14:59.000Z</time>
      </trkpt>
      <trkpt lat="45.08506" lon="5.20289">
        <ele>161.4</ele>
        <time>2022-09-17T15:15:00.000Z</time>
      </trkpt>
      <trkpt lat="45.08507" lon="5.20297">
        <ele>161.2</ele>
        <time>2022-09-17T15:15:01.000Z</time>
      </trkpt>
      <trkpt lat="45.08506" lon="5.20306">
        <ele>160.9</ele>
        <time>2022-09-17T15:15:02.000Z</time>
      </trkpt>
      <trkpt lat="45.08507" lon="5.20315">
        <ele>161.5</ele>
        <time>2022-09-17T15:15:03.000Z</time>
      </trkpt>
      <trkpt lat="45.08507" lon="5.20324">
        <ele>161.9</ele>
        <time>2022-09-17T15:15:04.000Z</time>
      </trkpt>
      <trkpt lat="45.08507" lon="5.20333">
        <ele>162.5</ele>
        <time>2022-09-17T15:15:05.000Z</time>
      </trkpt>
      <trkpt lat="45.08507" lon="5.20342">
        <ele>162.5</ele>
        <time>2022-09-17T15:15:06.000Z</time>
      </trkpt>
      <trkpt lat="45.08508" lon="5.20352">
        <ele>162.6</ele>
        <time>2022-09-17T15:15:07.000Z</time>
      </trkpt>
      <trkpt lat="45.08509" lon="5.20361">
        <ele>162.6</ele>
        <time>2022-09-17T15:15:08.000Z</time>
      </trkpt>
      <trkpt lat="45.08509" lon="5.2037">
        <ele>162.6</ele>
        <time>2022-09-17T15:15:09.000Z</time>
      </trkpt>
      <trkpt lat="45.08509" lon="5.20379">
        <ele>162.6</ele>
        <time>2022-09-17T15:15:10.000Z</time>
      </trkpt>
      <trkpt lat="45.08509" lon="5.20387">
        <ele>162.7</ele>
        <time>2022-09-17T15:15:11.000Z</time>
      </trkpt>
      <trkpt lat="45.0851" lon="5.20396">
        <ele>162.9</ele>
        <time>2022-09-17T15:15:12.000Z</time>
      </trkpt>
      <trkpt lat="45.0851" lon="5.20404">
        <ele>163.2</ele>
        <time>2022-09-17T15:15:13.000Z</time>
      </trkpt>
      <trkpt lat="45.0851" lon="5.20412">
        <ele>163.5</ele>
        <time>2022-09-17T15:15:14.000Z</time>
      </trkpt>
      <trkpt lat="45.0851" lon="5.20421">
        <ele>163.3</ele>
        <time>2022-09-17T15:15:15.000Z</time>
      </trkpt>
      <trkpt lat="45.0851" lon="5.2043">
        <ele>162.6</ele>
        <time>2022-09-17T15:15:16.000Z</time>
      </trkpt>
      <trkpt lat="45.08511" lon="5.20439">
        <ele>161.8</ele>
        <time>2022-09-17T15:15:17.000Z</time>
      </trkpt>
      <trkpt lat="45.08511" lon="5.20448">
        <ele>161</ele>
        <time>2022-09-17T15:15:18.000Z</time>
      </trkpt>
      <trkpt lat="45.08511" lon="5.20457">
        <ele>160.5</ele>
        <time>2022-09-17T15:15:19.000Z</time>
      </trkpt>
      <trkpt lat="45.08511" lon="5.20466">
        <ele>159.9</ele>
        <time>2022-09-17T15:15:20.000Z</time>
      </trkpt>
      <trkpt lat="45.08511" lon="5.20476">
        <ele>159.7</ele>
        <time>2022-09-17T15:15:21.000Z</time>
      </trkpt>
      <trkpt lat="45.08511" lon="5.20485">
        <ele>160.2</ele>
        <time>2022-09-17T15:15:22.000Z</time>
      </trkpt>
      <trkpt lat="45.08511" lon="5.20494">
        <ele>160.8</ele>
        <time>2022-09-17T15:15:23.000Z</time>
      </trkpt>
      <trkpt lat="45.08511" lon="5.20503">
        <ele>161.3</ele>
        <time>2022-09-17T15:15:24.000Z</time>
      </trkpt>
      <trkpt lat="45.08511" lon="5.20512">
        <ele>161.7</ele>
        <time>2022-09-17T15:15:25.000Z</time>
      </trkpt>
      <trkpt lat="45.08511" lon="5.20521">
        <ele>162.1</ele>
        <time>2022-09-17T15:15:26.000Z</time>
      </trkpt>
      <trkpt lat="45.08512" lon="5.2053">
        <ele>162.5</ele>
        <time>2022-09-17T15:15:27.000Z</time>
      </trkpt>
      <trkpt lat="45.08512" lon="5.20539">
        <ele>162.5</ele>
        <time>2022-09-17T15:15:28.000Z</time>
      </trkpt>
      <trkpt lat="45.08512" lon="5.20547">
        <ele>162.6</ele>
        <time>2022-09-17T15:15:29.000Z</time>
      </trkpt>
      <trkpt lat="45.08512" lon="5.20556">
        <ele>162.6</ele>
        <time>2022-09-17T15:15:30.000Z</time>
      </trkpt>
      <trkpt lat="45.08512" lon="5.20565">
        <ele>162.8</ele>
        <time>2022-09-17T15:15:31.000Z</time>
      </trkpt>
      <trkpt lat="45.08512" lon="5.20574">
        <ele>162.9</ele>
        <time>2022-09-17T15:15:32.000Z</time>
      </trkpt>
      <trkpt lat="45.08513" lon="5.20582">
        <ele>163.1</ele>
        <time>2022-09-17T15:15:33.000Z</time>
      </trkpt>
      <trkpt lat="45.08513" lon="5.20591">
        <ele>163.2</ele>
        <time>2022-09-17T15:15:34.000Z</time>
      </trkpt>
      <trkpt lat="45.08513" lon="5.20599">
        <ele>163.2</ele>
        <time>2022-09-17T15:15:35.000Z</time>
      </trkpt>
      <trkpt lat="45.08513" lon="5.20608">
        <ele>163.2</ele>
        <time>2022-09-17T15:15:36.000Z</time>
      </trkpt>
      <trkpt lat="45.08513" lon="5.20617">
        <ele>163.3</ele>
        <time>2022-09-17T15:15:37.000Z</time>
      </trkpt>
      <trkpt lat="45.08514" lon="5.20626">
        <ele>163.4</ele>
        <time>2022-09-17T15:15:38.000Z</time>
      </trkpt>
      <trkpt lat="45.08514" lon="5.20636">
        <ele>163.5</ele>
        <time>2022-09-17T15:15:39.000Z</time>
      </trkpt>
      <trkpt lat="45.08514" lon="5.20646">
        <ele>163.5</ele>
        <time>2022-09-17T15:15:40.000Z</time>
      </trkpt>
      <trkpt lat="45.08515" lon="5.20655">
        <ele>163.4</ele>
        <time>2022-09-17T15:15:41.000Z</time>
      </trkpt>
      <trkpt lat="45.08515" lon="5.20665">
        <ele>163.2</ele>
        <time>2022-09-17T15:15:42.000Z</time>
      </trkpt>
      <trkpt lat="45.08515" lon="5.20675">
        <ele>162.9</ele>
        <time>2022-09-17T15:15:43.000Z</time>
      </trkpt>
      <trkpt lat="45.08515" lon="5.20685">
        <ele>162.5</ele>
        <time>2022-09-17T15:15:44.000Z</time>
      </trkpt>
      <trkpt lat="45.08515" lon="5.20694">
        <ele>162.2</ele>
        <time>2022-09-17T15:15:45.000Z</time>
      </trkpt>
      <trkpt lat="45.08515" lon="5.20704">
        <ele>162.5</ele>
        <time>2022-09-17T15:15:46.000Z</time>
      </trkpt>
      <trkpt lat="45.08515" lon="5.20713">
        <ele>162.7</ele>
        <time>2022-09-17T15:15:47.000Z</time>
      </trkpt>
      <trkpt lat="45.08516" lon="5.20722">
        <ele>163.1</ele>
        <time>2022-09-17T15:15:48.000Z</time>
      </trkpt>
      <trkpt lat="45.08516" lon="5.20731">
        <ele>163.5</ele>
        <time>2022-09-17T15:15:49.000Z</time>
      </trkpt>
      <trkpt lat="45.08516" lon="5.20739">
        <ele>163.6</ele>
        <time>2022-09-17T15:15:50.000Z</time>
      </trkpt>
      <trkpt lat="45.08516" lon="5.20748">
        <ele>163.9</ele>
        <time>2022-09-17T15:15:51.000Z</time>
      </trkpt>
      <trkpt lat="45.08516" lon="5.20756">
        <ele>163.5</ele>
        <time>2022-09-17T15:15:52.000Z</time>
      </trkpt>
      <trkpt lat="45.08517" lon="5.20764">
        <ele>163</ele>
        <time>2022-09-17T15:15:53.000Z</time>
      </trkpt>
      <trkpt lat="45.08517" lon="5.20772">
        <ele>162.5</ele>
        <time>2022-09-17T15:15:54.000Z</time>
      </trkpt>
      <trkpt lat="45.08517" lon="5.2078">
        <ele>161.9</ele>
        <time>2022-09-17T15:15:55.000Z</time>
      </trkpt>
      <trkpt lat="45.08517" lon="5.20788">
        <ele>161.3</ele>
        <time>2022-09-17T15:15:56.000Z</time>
      </trkpt>
      <trkpt lat="45.08517" lon="5.20795">
        <ele>160.6</ele>
        <time>2022-09-17T15:15:57.000Z</time>
      </trkpt>
      <trkpt lat="45.08517" lon="5.20803">
        <ele>160</ele>
        <time>2022-09-17T15:15:58.000Z</time>
      </trkpt>
      <trkpt lat="45.08517" lon="5.20811">
        <ele>159.7</ele>
        <time>2022-09-17T15:15:59.000Z</time>
      </trkpt>
      <trkpt lat="45.08517" lon="5.2082">
        <ele>159.5</ele>
        <time>2022-09-17T15:16:00.000Z</time>
      </trkpt>
      <trkpt lat="45.08517" lon="5.20828">
        <ele>159.3</ele>
        <time>2022-09-17T15:16:01.000Z</time>
      </trkpt>
      <trkpt lat="45.08517" lon="5.20836">
        <ele>159.2</ele>
        <time>2022-09-17T15:16:02.000Z</time>
      </trkpt>
      <trkpt lat="45.08517" lon="5.20844">
        <ele>159.2</ele>
        <time>2022-09-17T15:16:03.000Z</time>
      </trkpt>
      <trkpt lat="45.08517" lon="5.20851">
        <ele>159.2</ele>
        <time>2022-09-17T15:16:04.000Z</time>
      </trkpt>
      <trkpt lat="45.08517" lon="5.20858">
        <ele>159.4</ele>
        <time>2022-09-17T15:16:05.000Z</time>
      </trkpt>
      <trkpt lat="45.08518" lon="5.20865">
        <ele>158.9</ele>
        <time>2022-09-17T15:16:06.000Z</time>
      </trkpt>
      <trkpt lat="45.08519" lon="5.20869">
        <ele>158.4</ele>
        <time>2022-09-17T15:16:07.000Z</time>
      </trkpt>
      <trkpt lat="45.0852" lon="5.20877">
        <ele>157.1</ele>
        <time>2022-09-17T15:16:08.000Z</time>
      </trkpt>
      <trkpt lat="45.0852" lon="5.20885">
        <ele>155.9</ele>
        <time>2022-09-17T15:16:09.000Z</time>
      </trkpt>
      <trkpt lat="45.08519" lon="5.20891">
        <ele>154.8</ele>
        <time>2022-09-17T15:16:10.000Z</time>
      </trkpt>
      <trkpt lat="45.08517" lon="5.20896">
        <ele>154</ele>
        <time>2022-09-17T15:16:11.000Z</time>
      </trkpt>
      <trkpt lat="45.08517" lon="5.20902">
        <ele>153.4</ele>
        <time>2022-09-17T15:16:12.000Z</time>
      </trkpt>
      <trkpt lat="45.08517" lon="5.20909">
        <ele>152.5</ele>
        <time>2022-09-17T15:16:13.000Z</time>
      </trkpt>
      <trkpt lat="45.08517" lon="5.20916">
        <ele>151.8</ele>
        <time>2022-09-17T15:16:14.000Z</time>
      </trkpt>
      <trkpt lat="45.08518" lon="5.20923">
        <ele>153.2</ele>
        <time>2022-09-17T15:16:15.000Z</time>
      </trkpt>
      <trkpt lat="45.08519" lon="5.20931">
        <ele>155.2</ele>
        <time>2022-09-17T15:16:16.000Z</time>
      </trkpt>
      <trkpt lat="45.0852" lon="5.2094">
        <ele>157.4</ele>
        <time>2022-09-17T15:16:17.000Z</time>
      </trkpt>
      <trkpt lat="45.0852" lon="5.20948">
        <ele>158.9</ele>
        <time>2022-09-17T15:16:18.000Z</time>
      </trkpt>
      <trkpt lat="45.0852" lon="5.20955">
        <ele>159.7</ele>
        <time>2022-09-17T15:16:19.000Z</time>
      </trkpt>
      <trkpt lat="45.08521" lon="5.20961">
        <ele>160.4</ele>
        <time>2022-09-17T15:16:20.000Z</time>
      </trkpt>
      <trkpt lat="45.08521" lon="5.20967">
        <ele>161.1</ele>
        <time>2022-09-17T15:16:21.000Z</time>
      </trkpt>
      <trkpt lat="45.08521" lon="5.20973">
        <ele>161.7</ele>
        <time>2022-09-17T15:16:22.000Z</time>
      </trkpt>
      <trkpt lat="45.0852" lon="5.20979">
        <ele>162.2</ele>
        <time>2022-09-17T15:16:23.000Z</time>
      </trkpt>
      <trkpt lat="45.0852" lon="5.20985">
        <ele>162.8</ele>
        <time>2022-09-17T15:16:24.000Z</time>
      </trkpt>
      <trkpt lat="45.0852" lon="5.20992">
        <ele>163.3</ele>
        <time>2022-09-17T15:16:25.000Z</time>
      </trkpt>
      <trkpt lat="45.0852" lon="5.20999">
        <ele>164</ele>
        <time>2022-09-17T15:16:26.000Z</time>
      </trkpt>
      <trkpt lat="45.08519" lon="5.21006">
        <ele>164.7</ele>
        <time>2022-09-17T15:16:27.000Z</time>
      </trkpt>
      <trkpt lat="45.08519" lon="5.21012">
        <ele>165.3</ele>
        <time>2022-09-17T15:16:28.000Z</time>
      </trkpt>
      <trkpt lat="45.08518" lon="5.21018">
        <ele>165.8</ele>
        <time>2022-09-17T15:16:29.000Z</time>
      </trkpt>
      <trkpt lat="45.08516" lon="5.21024">
        <ele>166.2</ele>
        <time>2022-09-17T15:16:30.000Z</time>
      </trkpt>
      <trkpt lat="45.08515" lon="5.2103">
        <ele>166.5</ele>
        <time>2022-09-17T15:16:31.000Z</time>
      </trkpt>
      <trkpt lat="45.08513" lon="5.21036">
        <ele>166.8</ele>
        <time>2022-09-17T15:16:32.000Z</time>
      </trkpt>
      <trkpt lat="45.08512" lon="5.21041">
        <ele>167.1</ele>
        <time>2022-09-17T15:16:33.000Z</time>
      </trkpt>
      <trkpt lat="45.0851" lon="5.21046">
        <ele>167.3</ele>
        <time>2022-09-17T15:16:34.000Z</time>
      </trkpt>
      <trkpt lat="45.08509" lon="5.21051">
        <ele>167.4</ele>
        <time>2022-09-17T15:16:35.000Z</time>
      </trkpt>
      <trkpt lat="45.08508" lon="5.21056">
        <ele>167.5</ele>
        <time>2022-09-17T15:16:36.000Z</time>
      </trkpt>
      <trkpt lat="45.08506" lon="5.21061">
        <ele>167.5</ele>
        <time>2022-09-17T15:16:37.000Z</time>
      </trkpt>
      <trkpt lat="45.08504" lon="5.21067">
        <ele>167.5</ele>
        <time>2022-09-17T15:16:38.000Z</time>
      </trkpt>
      <trkpt lat="45.08503" lon="5.21071">
        <ele>167.6</ele>
        <time>2022-09-17T15:16:39.000Z</time>
      </trkpt>
      <trkpt lat="45.08501" lon="5.21076">
        <ele>167.6</ele>
        <time>2022-09-17T15:16:40.000Z</time>
      </trkpt>
      <trkpt lat="45.085" lon="5.2108">
        <ele>167.6</ele>
        <time>2022-09-17T15:16:41.000Z</time>
      </trkpt>
      <trkpt lat="45.08498" lon="5.21084">
        <ele>167.5</ele>
        <time>2022-09-17T15:16:42.000Z</time>
      </trkpt>
      <trkpt lat="45.08496" lon="5.21088">
        <ele>167.1</ele>
        <time>2022-09-17T15:16:43.000Z</time>
      </trkpt>
      <trkpt lat="45.08494" lon="5.21092">
        <ele>166.7</ele>
        <time>2022-09-17T15:16:44.000Z</time>
      </trkpt>
      <trkpt lat="45.08493" lon="5.21096">
        <ele>166.5</ele>
        <time>2022-09-17T15:16:45.000Z</time>
      </trkpt>
      <trkpt lat="45.08491" lon="5.21101">
        <ele>166.3</ele>
        <time>2022-09-17T15:16:46.000Z</time>
      </trkpt>
      <trkpt lat="45.08489" lon="5.21105">
        <ele>166</ele>
        <time>2022-09-17T15:16:47.000Z</time>
      </trkpt>
      <trkpt lat="45.08488" lon="5.21109">
        <ele>165.8</ele>
        <time>2022-09-17T15:16:48.000Z</time>
      </trkpt>
      <trkpt lat="45.08486" lon="5.21114">
        <ele>165.8</ele>
        <time>2022-09-17T15:16:49.000Z</time>
      </trkpt>
      <trkpt lat="45.08484" lon="5.21117">
        <ele>166</ele>
        <time>2022-09-17T15:16:50.000Z</time>
      </trkpt>
      <trkpt lat="45.08482" lon="5.21121">
        <ele>166.2</ele>
        <time>2022-09-17T15:16:51.000Z</time>
      </trkpt>
      <trkpt lat="45.08481" lon="5.21125">
        <ele>166.5</ele>
        <time>2022-09-17T15:16:52.000Z</time>
      </trkpt>
      <trkpt lat="45.08479" lon="5.21129">
        <ele>167.1</ele>
        <time>2022-09-17T15:16:53.000Z</time>
      </trkpt>
      <trkpt lat="45.08478" lon="5.21134">
        <ele>167.7</ele>
        <time>2022-09-17T15:16:54.000Z</time>
      </trkpt>
      <trkpt lat="45.08476" lon="5.21138">
        <ele>168.4</ele>
        <time>2022-09-17T15:16:55.000Z</time>
      </trkpt>
      <trkpt lat="45.08475" lon="5.21144">
        <ele>168.7</ele>
        <time>2022-09-17T15:16:56.000Z</time>
      </trkpt>
      <trkpt lat="45.08474" lon="5.21149">
        <ele>169</ele>
        <time>2022-09-17T15:16:57.000Z</time>
      </trkpt>
      <trkpt lat="45.08473" lon="5.21154">
        <ele>169.3</ele>
        <time>2022-09-17T15:16:58.000Z</time>
      </trkpt>
      <trkpt lat="45.08473" lon="5.21159">
        <ele>169.6</ele>
        <time>2022-09-17T15:16:59.000Z</time>
      </trkpt>
      <trkpt lat="45.08472" lon="5.21165">
        <ele>169.9</ele>
        <time>2022-09-17T15:17:00.000Z</time>
      </trkpt>
      <trkpt lat="45.08472" lon="5.2117">
        <ele>170.2</ele>
        <time>2022-09-17T15:17:01.000Z</time>
      </trkpt>
      <trkpt lat="45.08473" lon="5.21175">
        <ele>170.7</ele>
        <time>2022-09-17T15:17:02.000Z</time>
      </trkpt>
      <trkpt lat="45.08473" lon="5.21179">
        <ele>171.1</ele>
        <time>2022-09-17T15:17:03.000Z</time>
      </trkpt>
      <trkpt lat="45.08475" lon="5.21184">
        <ele>171.8</ele>
        <time>2022-09-17T15:17:04.000Z</time>
      </trkpt>
      <trkpt lat="45.08476" lon="5.21189">
        <ele>172.3</ele>
        <time>2022-09-17T15:17:05.000Z</time>
      </trkpt>
      <trkpt lat="45.08477" lon="5.21193">
        <ele>172.9</ele>
        <time>2022-09-17T15:17:06.000Z</time>
      </trkpt>
      <trkpt lat="45.08478" lon="5.21198">
        <ele>173.4</ele>
        <time>2022-09-17T15:17:07.000Z</time>
      </trkpt>
      <trkpt lat="45.08479" lon="5.21202">
        <ele>173.7</ele>
        <time>2022-09-17T15:17:08.000Z</time>
      </trkpt>
      <trkpt lat="45.08481" lon="5.21207">
        <ele>173.9</ele>
        <time>2022-09-17T15:17:09.000Z</time>
      </trkpt>
      <trkpt lat="45.08482" lon="5.21212">
        <ele>174.1</ele>
        <time>2022-09-17T15:17:10.000Z</time>
      </trkpt>
      <trkpt lat="45.08483" lon="5.21217">
        <ele>174.1</ele>
        <time>2022-09-17T15:17:11.000Z</time>
      </trkpt>
      <trkpt lat="45.08484" lon="5.21222">
        <ele>174</ele>
        <time>2022-09-17T15:17:12.000Z</time>
      </trkpt>
      <trkpt lat="45.08485" lon="5.21227">
        <ele>174.4</ele>
        <time>2022-09-17T15:17:13.000Z</time>
      </trkpt>
      <trkpt lat="45.08486" lon="5.21232">
        <ele>174.7</ele>
        <time>2022-09-17T15:17:14.000Z</time>
      </trkpt>
      <trkpt lat="45.08488" lon="5.21237">
        <ele>175</ele>
        <time>2022-09-17T15:17:15.000Z</time>
      </trkpt>
      <trkpt lat="45.08489" lon="5.21242">
        <ele>175.2</ele>
        <time>2022-09-17T15:17:16.000Z</time>
      </trkpt>
      <trkpt lat="45.0849" lon="5.21247">
        <ele>175.3</ele>
        <time>2022-09-17T15:17:17.000Z</time>
      </trkpt>
      <trkpt lat="45.08491" lon="5.21251">
        <ele>175.3</ele>
        <time>2022-09-17T15:17:18.000Z</time>
      </trkpt>
      <trkpt lat="45.08492" lon="5.21254">
        <ele>175.3</ele>
        <time>2022-09-17T15:17:19.000Z</time>
      </trkpt>
      <trkpt lat="45.08493" lon="5.21258">
        <ele>175.2</ele>
        <time>2022-09-17T15:17:20.000Z</time>
      </trkpt>
      <trkpt lat="45.08494" lon="5.21261">
        <ele>175.1</ele>
        <time>2022-09-17T15:17:21.000Z</time>
      </trkpt>
      <trkpt lat="45.08496" lon="5.21265">
        <ele>175</ele>
        <time>2022-09-17T15:17:22.000Z</time>
      </trkpt>
      <trkpt lat="45.08497" lon="5.21268">
        <ele>175</ele>
        <time>2022-09-17T15:17:23.000Z</time>
      </trkpt>
      <trkpt lat="45.08498" lon="5.21272">
        <ele>175</ele>
        <time>2022-09-17T15:17:24.000Z</time>
      </trkpt>
      <trkpt lat="45.08498" lon="5.21275">
        <ele>175</ele>
        <time>2022-09-17T15:17:25.000Z</time>
      </trkpt>
      <trkpt lat="45.08499" lon="5.21279">
        <ele>175.2</ele>
        <time>2022-09-17T15:17:26.000Z</time>
      </trkpt>
      <trkpt lat="45.085" lon="5.21282">
        <ele>175.5</ele>
        <time>2022-09-17T15:17:27.000Z</time>
      </trkpt>
      <trkpt lat="45.08501" lon="5.21285">
        <ele>175.8</ele>
        <time>2022-09-17T15:17:28.000Z</time>
      </trkpt>
      <trkpt lat="45.08502" lon="5.21289">
        <ele>176.2</ele>
        <time>2022-09-17T15:17:29.000Z</time>
      </trkpt>
      <trkpt lat="45.08503" lon="5.21292">
        <ele>176.5</ele>
        <time>2022-09-17T15:17:30.000Z</time>
      </trkpt>
      <trkpt lat="45.08504" lon="5.21295">
        <ele>176.9</ele>
        <time>2022-09-17T15:17:31.000Z</time>
      </trkpt>
      <trkpt lat="45.08504" lon="5.21298">
        <ele>177.3</ele>
        <time>2022-09-17T15:17:32.000Z</time>
      </trkpt>
      <trkpt lat="45.08505" lon="5.21302">
        <ele>177.6</ele>
        <time>2022-09-17T15:17:33.000Z</time>
      </trkpt>
      <trkpt lat="45.08506" lon="5.21306">
        <ele>178</ele>
        <time>2022-09-17T15:17:34.000Z</time>
      </trkpt>
      <trkpt lat="45.08507" lon="5.21309">
        <ele>178.3</ele>
        <time>2022-09-17T15:17:35.000Z</time>
      </trkpt>
      <trkpt lat="45.08508" lon="5.21312">
        <ele>178.5</ele>
        <time>2022-09-17T15:17:36.000Z</time>
      </trkpt>
      <trkpt lat="45.08509" lon="5.21316">
        <ele>178.8</ele>
        <time>2022-09-17T15:17:37.000Z</time>
      </trkpt>
      <trkpt lat="45.0851" lon="5.21319">
        <ele>179</ele>
        <time>2022-09-17T15:17:38.000Z</time>
      </trkpt>
      <trkpt lat="45.08511" lon="5.21323">
        <ele>179.1</ele>
        <time>2022-09-17T15:17:39.000Z</time>
      </trkpt>
      <trkpt lat="45.08512" lon="5.21326">
        <ele>179.3</ele>
        <time>2022-09-17T15:17:40.000Z</time>
      </trkpt>
      <trkpt lat="45.08513" lon="5.21329">
        <ele>179.4</ele>
        <time>2022-09-17T15:17:41.000Z</time>
      </trkpt>
      <trkpt lat="45.08515" lon="5.21333">
        <ele>179.4</ele>
        <time>2022-09-17T15:17:42.000Z</time>
      </trkpt>
      <trkpt lat="45.08515" lon="5.21336">
        <ele>179.4</ele>
        <time>2022-09-17T15:17:43.000Z</time>
      </trkpt>
      <trkpt lat="45.08517" lon="5.21341">
        <ele>179.3</ele>
        <time>2022-09-17T15:17:45.000Z</time>
      </trkpt>
      <trkpt lat="45.08518" lon="5.21345">
        <ele>179.3</ele>
        <time>2022-09-17T15:17:46.000Z</time>
      </trkpt>
      <trkpt lat="45.08519" lon="5.21348">
        <ele>179.3</ele>
        <time>2022-09-17T15:17:47.000Z</time>
      </trkpt>
      <trkpt lat="45.0852" lon="5.21352">
        <ele>179.3</ele>
        <time>2022-09-17T15:17:48.000Z</time>
      </trkpt>
      <trkpt lat="45.08521" lon="5.21356">
        <ele>179.3</ele>
        <time>2022-09-17T15:17:49.000Z</time>
      </trkpt>
      <trkpt lat="45.08522" lon="5.2136">
        <ele>179.4</ele>
        <time>2022-09-17T15:17:50.000Z</time>
      </trkpt>
      <trkpt lat="45.08523" lon="5.21364">
        <ele>179.4</ele>
        <time>2022-09-17T15:17:51.000Z</time>
      </trkpt>
      <trkpt lat="45.08525" lon="5.21368">
        <ele>179.4</ele>
        <time>2022-09-17T15:17:52.000Z</time>
      </trkpt>
      <trkpt lat="45.08526" lon="5.21372">
        <ele>179.5</ele>
        <time>2022-09-17T15:17:53.000Z</time>
      </trkpt>
      <trkpt lat="45.08527" lon="5.21375">
        <ele>179.6</ele>
        <time>2022-09-17T15:17:54.000Z</time>
      </trkpt>
      <trkpt lat="45.08528" lon="5.21379">
        <ele>179.6</ele>
        <time>2022-09-17T15:17:55.000Z</time>
      </trkpt>
      <trkpt lat="45.08529" lon="5.21382">
        <ele>180</ele>
        <time>2022-09-17T15:17:56.000Z</time>
      </trkpt>
      <trkpt lat="45.0853" lon="5.21386">
        <ele>180.4</ele>
        <time>2022-09-17T15:17:57.000Z</time>
      </trkpt>
      <trkpt lat="45.08532" lon="5.2139">
        <ele>180.9</ele>
        <time>2022-09-17T15:17:58.000Z</time>
      </trkpt>
      <trkpt lat="45.08533" lon="5.21394">
        <ele>181.5</ele>
        <time>2022-09-17T15:17:59.000Z</time>
      </trkpt>
      <trkpt lat="45.08535" lon="5.21398">
        <ele>182.1</ele>
        <time>2022-09-17T15:18:00.000Z</time>
      </trkpt>
      <trkpt lat="45.08536" lon="5.21402">
        <ele>182.6</ele>
        <time>2022-09-17T15:18:01.000Z</time>
      </trkpt>
      <trkpt lat="45.08537" lon="5.21406">
        <ele>183.1</ele>
        <time>2022-09-17T15:18:02.000Z</time>
      </trkpt>
      <trkpt lat="45.08538" lon="5.21409">
        <ele>183.5</ele>
        <time>2022-09-17T15:18:03.000Z</time>
      </trkpt>
      <trkpt lat="45.08539" lon="5.21413">
        <ele>184.1</ele>
        <time>2022-09-17T15:18:04.000Z</time>
      </trkpt>
      <trkpt lat="45.08539" lon="5.21416">
        <ele>184.4</ele>
        <time>2022-09-17T15:18:05.000Z</time>
      </trkpt>
      <trkpt lat="45.0854" lon="5.2142">
        <ele>184.6</ele>
        <time>2022-09-17T15:18:06.000Z</time>
      </trkpt>
      <trkpt lat="45.08541" lon="5.21424">
        <ele>184.7</ele>
        <time>2022-09-17T15:18:07.000Z</time>
      </trkpt>
      <trkpt lat="45.08542" lon="5.21427">
        <ele>184.9</ele>
        <time>2022-09-17T15:18:08.000Z</time>
      </trkpt>
      <trkpt lat="45.08543" lon="5.21431">
        <ele>184.9</ele>
        <time>2022-09-17T15:18:09.000Z</time>
      </trkpt>
      <trkpt lat="45.08544" lon="5.21434">
        <ele>184.9</ele>
        <time>2022-09-17T15:18:10.000Z</time>
      </trkpt>
      <trkpt lat="45.08545" lon="5.21438">
        <ele>184.8</ele>
        <time>2022-09-17T15:18:11.000Z</time>
      </trkpt>
      <trkpt lat="45.08545" lon="5.21442">
        <ele>184.7</ele>
        <time>2022-09-17T15:18:12.000Z</time>
      </trkpt>
      <trkpt lat="45.08546" lon="5.21446">
        <ele>184.6</ele>
        <time>2022-09-17T15:18:13.000Z</time>
      </trkpt>
      <trkpt lat="45.08547" lon="5.2145">
        <ele>184.6</ele>
        <time>2022-09-17T15:18:14.000Z</time>
      </trkpt>
      <trkpt lat="45.08548" lon="5.21453">
        <ele>184.6</ele>
        <time>2022-09-17T15:18:15.000Z</time>
      </trkpt>
      <trkpt lat="45.08549" lon="5.21458">
        <ele>184.5</ele>
        <time>2022-09-17T15:18:16.000Z</time>
      </trkpt>
      <trkpt lat="45.0855" lon="5.21463">
        <ele>184.4</ele>
        <time>2022-09-17T15:18:17.000Z</time>
      </trkpt>
      <trkpt lat="45.08551" lon="5.21467">
        <ele>184.3</ele>
        <time>2022-09-17T15:18:18.000Z</time>
      </trkpt>
      <trkpt lat="45.08552" lon="5.21471">
        <ele>184.2</ele>
        <time>2022-09-17T15:18:19.000Z</time>
      </trkpt>
      <trkpt lat="45.08553" lon="5.21474">
        <ele>184.2</ele>
        <time>2022-09-17T15:18:20.000Z</time>
      </trkpt>
      <trkpt lat="45.08554" lon="5.21478">
        <ele>184.3</ele>
        <time>2022-09-17T15:18:21.000Z</time>
      </trkpt>
      <trkpt lat="45.08556" lon="5.21482">
        <ele>184.4</ele>
        <time>2022-09-17T15:18:22.000Z</time>
      </trkpt>
      <trkpt lat="45.08557" lon="5.21486">
        <ele>184.8</ele>
        <time>2022-09-17T15:18:23.000Z</time>
      </trkpt>
      <trkpt lat="45.08559" lon="5.2149">
        <ele>185.2</ele>
        <time>2022-09-17T15:18:24.000Z</time>
      </trkpt>
      <trkpt lat="45.0856" lon="5.21493">
        <ele>185.4</ele>
        <time>2022-09-17T15:18:25.000Z</time>
      </trkpt>
      <trkpt lat="45.08561" lon="5.21497">
        <ele>185.6</ele>
        <time>2022-09-17T15:18:26.000Z</time>
      </trkpt>
      <trkpt lat="45.08562" lon="5.215">
        <ele>185.7</ele>
        <time>2022-09-17T15:18:27.000Z</time>
      </trkpt>
      <trkpt lat="45.08563" lon="5.21504">
        <ele>186</ele>
        <time>2022-09-17T15:18:28.000Z</time>
      </trkpt>
      <trkpt lat="45.08565" lon="5.21507">
        <ele>186.2</ele>
        <time>2022-09-17T15:18:29.000Z</time>
      </trkpt>
      <trkpt lat="45.08566" lon="5.21511">
        <ele>186.4</ele>
        <time>2022-09-17T15:18:30.000Z</time>
      </trkpt>
      <trkpt lat="45.08567" lon="5.21514">
        <ele>186.6</ele>
        <time>2022-09-17T15:18:31.000Z</time>
      </trkpt>
      <trkpt lat="45.08568" lon="5.21517">
        <ele>186.8</ele>
        <time>2022-09-17T15:18:32.000Z</time>
      </trkpt>
      <trkpt lat="45.0857" lon="5.21521">
        <ele>186.9</ele>
        <time>2022-09-17T15:18:33.000Z</time>
      </trkpt>
      <trkpt lat="45.08571" lon="5.21523">
        <ele>186.9</ele>
        <time>2022-09-17T15:18:34.000Z</time>
      </trkpt>
      <trkpt lat="45.08572" lon="5.21527">
        <ele>187</ele>
        <time>2022-09-17T15:18:35.000Z</time>
      </trkpt>
      <trkpt lat="45.08573" lon="5.2153">
        <ele>187.1</ele>
        <time>2022-09-17T15:18:36.000Z</time>
      </trkpt>
      <trkpt lat="45.08574" lon="5.21533">
        <ele>187.3</ele>
        <time>2022-09-17T15:18:37.000Z</time>
      </trkpt>
      <trkpt lat="45.08575" lon="5.21537">
        <ele>187.6</ele>
        <time>2022-09-17T15:18:38.000Z</time>
      </trkpt>
      <trkpt lat="45.08576" lon="5.21541">
        <ele>187.8</ele>
        <time>2022-09-17T15:18:39.000Z</time>
      </trkpt>
      <trkpt lat="45.08577" lon="5.21544">
        <ele>188</ele>
        <time>2022-09-17T15:18:40.000Z</time>
      </trkpt>
      <trkpt lat="45.08578" lon="5.21547">
        <ele>188.3</ele>
        <time>2022-09-17T15:18:41.000Z</time>
      </trkpt>
      <trkpt lat="45.0858" lon="5.21551">
        <ele>188.5</ele>
        <time>2022-09-17T15:18:42.000Z</time>
      </trkpt>
      <trkpt lat="45.08581" lon="5.21555">
        <ele>188.9</ele>
        <time>2022-09-17T15:18:43.000Z</time>
      </trkpt>
      <trkpt lat="45.08582" lon="5.21559">
        <ele>189</ele>
        <time>2022-09-17T15:18:44.000Z</time>
      </trkpt>
      <trkpt lat="45.08584" lon="5.21562">
        <ele>189</ele>
        <time>2022-09-17T15:18:45.000Z</time>
      </trkpt>
      <trkpt lat="45.08585" lon="5.21566">
        <ele>189</ele>
        <time>2022-09-17T15:18:46.000Z</time>
      </trkpt>
      <trkpt lat="45.08586" lon="5.21569">
        <ele>189</ele>
        <time>2022-09-17T15:18:47.000Z</time>
      </trkpt>
      <trkpt lat="45.08588" lon="5.21573">
        <ele>189</ele>
        <time>2022-09-17T15:18:48.000Z</time>
      </trkpt>
      <trkpt lat="45.08589" lon="5.21576">
        <ele>189.1</ele>
        <time>2022-09-17T15:18:49.000Z</time>
      </trkpt>
      <trkpt lat="45.0859" lon="5.2158">
        <ele>189.2</ele>
        <time>2022-09-17T15:18:50.000Z</time>
      </trkpt>
      <trkpt lat="45.08592" lon="5.21583">
        <ele>189.3</ele>
        <time>2022-09-17T15:18:51.000Z</time>
      </trkpt>
      <trkpt lat="45.08593" lon="5.21586">
        <ele>189.4</ele>
        <time>2022-09-17T15:18:52.000Z</time>
      </trkpt>
      <trkpt lat="45.08594" lon="5.2159">
        <ele>189.4</ele>
        <time>2022-09-17T15:18:53.000Z</time>
      </trkpt>
      <trkpt lat="45.08596" lon="5.21593">
        <ele>189.6</ele>
        <time>2022-09-17T15:18:54.000Z</time>
      </trkpt>
      <trkpt lat="45.08597" lon="5.21597">
        <ele>189.7</ele>
        <time>2022-09-17T15:18:55.000Z</time>
      </trkpt>
      <trkpt lat="45.08599" lon="5.216">
        <ele>190</ele>
        <time>2022-09-17T15:18:56.000Z</time>
      </trkpt>
      <trkpt lat="45.086" lon="5.21604">
        <ele>190.2</ele>
        <time>2022-09-17T15:18:57.000Z</time>
      </trkpt>
      <trkpt lat="45.08602" lon="5.21607">
        <ele>190.5</ele>
        <time>2022-09-17T15:18:58.000Z</time>
      </trkpt>
      <trkpt lat="45.08603" lon="5.21611">
        <ele>190.8</ele>
        <time>2022-09-17T15:18:59.000Z</time>
      </trkpt>
      <trkpt lat="45.08605" lon="5.21614">
        <ele>190.6</ele>
        <time>2022-09-17T15:19:00.000Z</time>
      </trkpt>
      <trkpt lat="45.08606" lon="5.21618">
        <ele>190.3</ele>
        <time>2022-09-17T15:19:01.000Z</time>
      </trkpt>
      <trkpt lat="45.08608" lon="5.21621">
        <ele>189.9</ele>
        <time>2022-09-17T15:19:02.000Z</time>
      </trkpt>
      <trkpt lat="45.08609" lon="5.21624">
        <ele>189.5</ele>
        <time>2022-09-17T15:19:03.000Z</time>
      </trkpt>
      <trkpt lat="45.0861" lon="5.21628">
        <ele>188.9</ele>
        <time>2022-09-17T15:19:04.000Z</time>
      </trkpt>
      <trkpt lat="45.08612" lon="5.21631">
        <ele>188.4</ele>
        <time>2022-09-17T15:19:05.000Z</time>
      </trkpt>
      <trkpt lat="45.08613" lon="5.21635">
        <ele>187.9</ele>
        <time>2022-09-17T15:19:06.000Z</time>
      </trkpt>
      <trkpt lat="45.08615" lon="5.21638">
        <ele>187.5</ele>
        <time>2022-09-17T15:19:07.000Z</time>
      </trkpt>
      <trkpt lat="45.08616" lon="5.21642">
        <ele>187.5</ele>
        <time>2022-09-17T15:19:08.000Z</time>
      </trkpt>
      <trkpt lat="45.08618" lon="5.21645">
        <ele>187.6</ele>
        <time>2022-09-17T15:19:09.000Z</time>
      </trkpt>
      <trkpt lat="45.08619" lon="5.21648">
        <ele>187.6</ele>
        <time>2022-09-17T15:19:10.000Z</time>
      </trkpt>
      <trkpt lat="45.08621" lon="5.21652">
        <ele>187.6</ele>
        <time>2022-09-17T15:19:11.000Z</time>
      </trkpt>
      <trkpt lat="45.08622" lon="5.21656">
        <ele>187.5</ele>
        <time>2022-09-17T15:19:12.000Z</time>
      </trkpt>
      <trkpt lat="45.08624" lon="5.21659">
        <ele>187.4</ele>
        <time>2022-09-17T15:19:13.000Z</time>
      </trkpt>
      <trkpt lat="45.08625" lon="5.21662">
        <ele>187.2</ele>
        <time>2022-09-17T15:19:14.000Z</time>
      </trkpt>
      <trkpt lat="45.08627" lon="5.21666">
        <ele>187.1</ele>
        <time>2022-09-17T15:19:15.000Z</time>
      </trkpt>
      <trkpt lat="45.08629" lon="5.21669">
        <ele>187</ele>
        <time>2022-09-17T15:19:16.000Z</time>
      </trkpt>
      <trkpt lat="45.0863" lon="5.21673">
        <ele>187.1</ele>
        <time>2022-09-17T15:19:17.000Z</time>
      </trkpt>
      <trkpt lat="45.08632" lon="5.21676">
        <ele>187.1</ele>
        <time>2022-09-17T15:19:18.000Z</time>
      </trkpt>
      <trkpt lat="45.08634" lon="5.2168">
        <ele>187.1</ele>
        <time>2022-09-17T15:19:19.000Z</time>
      </trkpt>
      <trkpt lat="45.08635" lon="5.21683">
        <ele>187.1</ele>
        <time>2022-09-17T15:19:20.000Z</time>
      </trkpt>
      <trkpt lat="45.08637" lon="5.21687">
        <ele>187</ele>
        <time>2022-09-17T15:19:21.000Z</time>
      </trkpt>
      <trkpt lat="45.08639" lon="5.21691">
        <ele>187</ele>
        <time>2022-09-17T15:19:22.000Z</time>
      </trkpt>
      <trkpt lat="45.08641" lon="5.21694">
        <ele>186.9</ele>
        <time>2022-09-17T15:19:23.000Z</time>
      </trkpt>
      <trkpt lat="45.08643" lon="5.21698">
        <ele>187.4</ele>
        <time>2022-09-17T15:19:24.000Z</time>
      </trkpt>
      <trkpt lat="45.08645" lon="5.21701">
        <ele>188</ele>
        <time>2022-09-17T15:19:25.000Z</time>
      </trkpt>
      <trkpt lat="45.08647" lon="5.21705">
        <ele>188.6</ele>
        <time>2022-09-17T15:19:26.000Z</time>
      </trkpt>
      <trkpt lat="45.08649" lon="5.21709">
        <ele>189.4</ele>
        <time>2022-09-17T15:19:27.000Z</time>
      </trkpt>
      <trkpt lat="45.0865" lon="5.21712">
        <ele>190.2</ele>
        <time>2022-09-17T15:19:28.000Z</time>
      </trkpt>
      <trkpt lat="45.08652" lon="5.21716">
        <ele>191</ele>
        <time>2022-09-17T15:19:29.000Z</time>
      </trkpt>
      <trkpt lat="45.08654" lon="5.21719">
        <ele>192</ele>
        <time>2022-09-17T15:19:30.000Z</time>
      </trkpt>
      <trkpt lat="45.08656" lon="5.21723">
        <ele>192.9</ele>
        <time>2022-09-17T15:19:31.000Z</time>
      </trkpt>
      <trkpt lat="45.08658" lon="5.21727">
        <ele>193.2</ele>
        <time>2022-09-17T15:19:32.000Z</time>
      </trkpt>
      <trkpt lat="45.08659" lon="5.2173">
        <ele>193.4</ele>
        <time>2022-09-17T15:19:33.000Z</time>
      </trkpt>
      <trkpt lat="45.08661" lon="5.21733">
        <ele>193.8</ele>
        <time>2022-09-17T15:19:34.000Z</time>
      </trkpt>
      <trkpt lat="45.08663" lon="5.21737">
        <ele>194.1</ele>
        <time>2022-09-17T15:19:35.000Z</time>
      </trkpt>
      <trkpt lat="45.08664" lon="5.21742">
        <ele>194.4</ele>
        <time>2022-09-17T15:19:36.000Z</time>
      </trkpt>
      <trkpt lat="45.08667" lon="5.21746">
        <ele>194.8</ele>
        <time>2022-09-17T15:19:37.000Z</time>
      </trkpt>
      <trkpt lat="45.08669" lon="5.2175">
        <ele>194.7</ele>
        <time>2022-09-17T15:19:38.000Z</time>
      </trkpt>
      <trkpt lat="45.08671" lon="5.21754">
        <ele>194.5</ele>
        <time>2022-09-17T15:19:39.000Z</time>
      </trkpt>
      <trkpt lat="45.08673" lon="5.21758">
        <ele>194.3</ele>
        <time>2022-09-17T15:19:40.000Z</time>
      </trkpt>
      <trkpt lat="45.08676" lon="5.21762">
        <ele>194.3</ele>
        <time>2022-09-17T15:19:41.000Z</time>
      </trkpt>
      <trkpt lat="45.08678" lon="5.21765">
        <ele>194.4</ele>
        <time>2022-09-17T15:19:42.000Z</time>
      </trkpt>
      <trkpt lat="45.0868" lon="5.21769">
        <ele>194.5</ele>
        <time>2022-09-17T15:19:43.000Z</time>
      </trkpt>
      <trkpt lat="45.08682" lon="5.21773">
        <ele>194.8</ele>
        <time>2022-09-17T15:19:44.000Z</time>
      </trkpt>
      <trkpt lat="45.08684" lon="5.21777">
        <ele>195.2</ele>
        <time>2022-09-17T15:19:45.000Z</time>
      </trkpt>
      <trkpt lat="45.08685" lon="5.21781">
        <ele>195.4</ele>
        <time>2022-09-17T15:19:46.000Z</time>
      </trkpt>
      <trkpt lat="45.08687" lon="5.21785">
        <ele>195.6</ele>
        <time>2022-09-17T15:19:47.000Z</time>
      </trkpt>
      <trkpt lat="45.08687" lon="5.2179">
        <ele>195.8</ele>
        <time>2022-09-17T15:19:48.000Z</time>
      </trkpt>
      <trkpt lat="45.08687" lon="5.21794">
        <ele>195.9</ele>
        <time>2022-09-17T15:19:49.000Z</time>
      </trkpt>
      <trkpt lat="45.08687" lon="5.21799">
        <ele>196</ele>
        <time>2022-09-17T15:19:50.000Z</time>
      </trkpt>
      <trkpt lat="45.08686" lon="5.21803">
        <ele>196</ele>
        <time>2022-09-17T15:19:51.000Z</time>
      </trkpt>
      <trkpt lat="45.08685" lon="5.21808">
        <ele>196</ele>
        <time>2022-09-17T15:19:52.000Z</time>
      </trkpt>
      <trkpt lat="45.08683" lon="5.21812">
        <ele>196</ele>
        <time>2022-09-17T15:19:53.000Z</time>
      </trkpt>
      <trkpt lat="45.0868" lon="5.21816">
        <ele>196</ele>
        <time>2022-09-17T15:19:54.000Z</time>
      </trkpt>
      <trkpt lat="45.08676" lon="5.21819">
        <ele>196</ele>
        <time>2022-09-17T15:19:55.000Z</time>
      </trkpt>
      <trkpt lat="45.08673" lon="5.21822">
        <ele>196</ele>
        <time>2022-09-17T15:19:56.000Z</time>
      </trkpt>
      <trkpt lat="45.08668" lon="5.21825">
        <ele>196.1</ele>
        <time>2022-09-17T15:19:57.000Z</time>
      </trkpt>
      <trkpt lat="45.08664" lon="5.21828">
        <ele>196.2</ele>
        <time>2022-09-17T15:19:58.000Z</time>
      </trkpt>
      <trkpt lat="45.08659" lon="5.2183">
        <ele>196.3</ele>
        <time>2022-09-17T15:19:59.000Z</time>
      </trkpt>
      <trkpt lat="45.08654" lon="5.21832">
        <ele>196.2</ele>
        <time>2022-09-17T15:20:00.000Z</time>
      </trkpt>
      <trkpt lat="45.08648" lon="5.21831">
        <ele>195.9</ele>
        <time>2022-09-17T15:20:01.000Z</time>
      </trkpt>
      <trkpt lat="45.08643" lon="5.2183">
        <ele>195.4</ele>
        <time>2022-09-17T15:20:02.000Z</time>
      </trkpt>
      <trkpt lat="45.08637" lon="5.21829">
        <ele>194.8</ele>
        <time>2022-09-17T15:20:03.000Z</time>
      </trkpt>
      <trkpt lat="45.08632" lon="5.21827">
        <ele>194.3</ele>
        <time>2022-09-17T15:20:04.000Z</time>
      </trkpt>
      <trkpt lat="45.08626" lon="5.21825">
        <ele>193.9</ele>
        <time>2022-09-17T15:20:05.000Z</time>
      </trkpt>
      <trkpt lat="45.08621" lon="5.21822">
        <ele>193.5</ele>
        <time>2022-09-17T15:20:06.000Z</time>
      </trkpt>
      <trkpt lat="45.08615" lon="5.2182">
        <ele>193.4</ele>
        <time>2022-09-17T15:20:07.000Z</time>
      </trkpt>
      <trkpt lat="45.08609" lon="5.21817">
        <ele>193.3</ele>
        <time>2022-09-17T15:20:08.000Z</time>
      </trkpt>
      <trkpt lat="45.08603" lon="5.21815">
        <ele>193.4</ele>
        <time>2022-09-17T15:20:09.000Z</time>
      </trkpt>
      <trkpt lat="45.08597" lon="5.21813">
        <ele>193.5</ele>
        <time>2022-09-17T15:20:10.000Z</time>
      </trkpt>
      <trkpt lat="45.08591" lon="5.21811">
        <ele>193.7</ele>
        <time>2022-09-17T15:20:11.000Z</time>
      </trkpt>
      <trkpt lat="45.08585" lon="5.21809">
        <ele>194</ele>
        <time>2022-09-17T15:20:12.000Z</time>
      </trkpt>
      <trkpt lat="45.08579" lon="5.21808">
        <ele>194</ele>
        <time>2022-09-17T15:20:13.000Z</time>
      </trkpt>
      <trkpt lat="45.08572" lon="5.21807">
        <ele>194</ele>
        <time>2022-09-17T15:20:14.000Z</time>
      </trkpt>
      <trkpt lat="45.08565" lon="5.21808">
        <ele>194</ele>
        <time>2022-09-17T15:20:15.000Z</time>
      </trkpt>
      <trkpt lat="45.08559" lon="5.21809">
        <ele>193.9</ele>
        <time>2022-09-17T15:20:16.000Z</time>
      </trkpt>
      <trkpt lat="45.08553" lon="5.21812">
        <ele>193.5</ele>
        <time>2022-09-17T15:20:17.000Z</time>
      </trkpt>
      <trkpt lat="45.08546" lon="5.21817">
        <ele>192.9</ele>
        <time>2022-09-17T15:20:18.000Z</time>
      </trkpt>
      <trkpt lat="45.08541" lon="5.21823">
        <ele>192.4</ele>
        <time>2022-09-17T15:20:19.000Z</time>
      </trkpt>
      <trkpt lat="45.08535" lon="5.21829">
        <ele>192.2</ele>
        <time>2022-09-17T15:20:20.000Z</time>
      </trkpt>
      <trkpt lat="45.08531" lon="5.21837">
        <ele>192.1</ele>
        <time>2022-09-17T15:20:21.000Z</time>
      </trkpt>
      <trkpt lat="45.08526" lon="5.21845">
        <ele>191.9</ele>
        <time>2022-09-17T15:20:22.000Z</time>
      </trkpt>
      <trkpt lat="45.08522" lon="5.21854">
        <ele>191.8</ele>
        <time>2022-09-17T15:20:23.000Z</time>
      </trkpt>
      <trkpt lat="45.08518" lon="5.21863">
        <ele>191.7</ele>
        <time>2022-09-17T15:20:24.000Z</time>
      </trkpt>
      <trkpt lat="45.08514" lon="5.21872">
        <ele>191.7</ele>
        <time>2022-09-17T15:20:25.000Z</time>
      </trkpt>
      <trkpt lat="45.08511" lon="5.21881">
        <ele>191.8</ele>
        <time>2022-09-17T15:20:26.000Z</time>
      </trkpt>
      <trkpt lat="45.08507" lon="5.21889">
        <ele>192</ele>
        <time>2022-09-17T15:20:27.000Z</time>
      </trkpt>
      <trkpt lat="45.08504" lon="5.21897">
        <ele>192</ele>
        <time>2022-09-17T15:20:28.000Z</time>
      </trkpt>
      <trkpt lat="45.08501" lon="5.21905">
        <ele>192</ele>
        <time>2022-09-17T15:20:29.000Z</time>
      </trkpt>
      <trkpt lat="45.08497" lon="5.21913">
        <ele>192.1</ele>
        <time>2022-09-17T15:20:30.000Z</time>
      </trkpt>
      <trkpt lat="45.08495" lon="5.2192">
        <ele>192.2</ele>
        <time>2022-09-17T15:20:31.000Z</time>
      </trkpt>
      <trkpt lat="45.08492" lon="5.21928">
        <ele>192.3</ele>
        <time>2022-09-17T15:20:32.000Z</time>
      </trkpt>
      <trkpt lat="45.08489" lon="5.21935">
        <ele>192.4</ele>
        <time>2022-09-17T15:20:33.000Z</time>
      </trkpt>
      <trkpt lat="45.08486" lon="5.21943">
        <ele>192.5</ele>
        <time>2022-09-17T15:20:34.000Z</time>
      </trkpt>
      <trkpt lat="45.08483" lon="5.2195">
        <ele>192.6</ele>
        <time>2022-09-17T15:20:35.000Z</time>
      </trkpt>
      <trkpt lat="45.08481" lon="5.21958">
        <ele>192.7</ele>
        <time>2022-09-17T15:20:36.000Z</time>
      </trkpt>
      <trkpt lat="45.08478" lon="5.21965">
        <ele>192.8</ele>
        <time>2022-09-17T15:20:37.000Z</time>
      </trkpt>
      <trkpt lat="45.08475" lon="5.21972">
        <ele>192.9</ele>
        <time>2022-09-17T15:20:38.000Z</time>
      </trkpt>
      <trkpt lat="45.08473" lon="5.2198">
        <ele>193.2</ele>
        <time>2022-09-17T15:20:39.000Z</time>
      </trkpt>
      <trkpt lat="45.0847" lon="5.21987">
        <ele>193.5</ele>
        <time>2022-09-17T15:20:40.000Z</time>
      </trkpt>
      <trkpt lat="45.08468" lon="5.21994">
        <ele>193.7</ele>
        <time>2022-09-17T15:20:41.000Z</time>
      </trkpt>
      <trkpt lat="45.08465" lon="5.22001">
        <ele>193.7</ele>
        <time>2022-09-17T15:20:42.000Z</time>
      </trkpt>
      <trkpt lat="45.08462" lon="5.22008">
        <ele>193.5</ele>
        <time>2022-09-17T15:20:43.000Z</time>
      </trkpt>
      <trkpt lat="45.08459" lon="5.22014">
        <ele>193.3</ele>
        <time>2022-09-17T15:20:44.000Z</time>
      </trkpt>
      <trkpt lat="45.08456" lon="5.22021">
        <ele>193.1</ele>
        <time>2022-09-17T15:20:45.000Z</time>
      </trkpt>
      <trkpt lat="45.08453" lon="5.22027">
        <ele>193</ele>
        <time>2022-09-17T15:20:46.000Z</time>
      </trkpt>
      <trkpt lat="45.0845" lon="5.22034">
        <ele>193.2</ele>
        <time>2022-09-17T15:20:47.000Z</time>
      </trkpt>
      <trkpt lat="45.08446" lon="5.22041">
        <ele>193.4</ele>
        <time>2022-09-17T15:20:48.000Z</time>
      </trkpt>
      <trkpt lat="45.08443" lon="5.22048">
        <ele>193.7</ele>
        <time>2022-09-17T15:20:49.000Z</time>
      </trkpt>
      <trkpt lat="45.08439" lon="5.22055">
        <ele>193.8</ele>
        <time>2022-09-17T15:20:50.000Z</time>
      </trkpt>
      <trkpt lat="45.08435" lon="5.22061">
        <ele>193.7</ele>
        <time>2022-09-17T15:20:51.000Z</time>
      </trkpt>
      <trkpt lat="45.08431" lon="5.22069">
        <ele>193.7</ele>
        <time>2022-09-17T15:20:52.000Z</time>
      </trkpt>
      <trkpt lat="45.08426" lon="5.22076">
        <ele>193.8</ele>
        <time>2022-09-17T15:20:53.000Z</time>
      </trkpt>
      <trkpt lat="45.08422" lon="5.22083">
        <ele>194</ele>
        <time>2022-09-17T15:20:54.000Z</time>
      </trkpt>
      <trkpt lat="45.08417" lon="5.2209">
        <ele>194</ele>
        <time>2022-09-17T15:20:55.000Z</time>
      </trkpt>
      <trkpt lat="45.08413" lon="5.22097">
        <ele>194.1</ele>
        <time>2022-09-17T15:20:56.000Z</time>
      </trkpt>
      <trkpt lat="45.08408" lon="5.22103">
        <ele>194.2</ele>
        <time>2022-09-17T15:20:57.000Z</time>
      </trkpt>
      <trkpt lat="45.08404" lon="5.2211">
        <ele>194.4</ele>
        <time>2022-09-17T15:20:58.000Z</time>
      </trkpt>
      <trkpt lat="45.08399" lon="5.22116">
        <ele>194.5</ele>
        <time>2022-09-17T15:20:59.000Z</time>
      </trkpt>
      <trkpt lat="45.08396" lon="5.22122">
        <ele>194.5</ele>
        <time>2022-09-17T15:21:00.000Z</time>
      </trkpt>
      <trkpt lat="45.08392" lon="5.22128">
        <ele>194.4</ele>
        <time>2022-09-17T15:21:01.000Z</time>
      </trkpt>
      <trkpt lat="45.08389" lon="5.22134">
        <ele>194.2</ele>
        <time>2022-09-17T15:21:02.000Z</time>
      </trkpt>
      <trkpt lat="45.08385" lon="5.2214">
        <ele>194.1</ele>
        <time>2022-09-17T15:21:03.000Z</time>
      </trkpt>
      <trkpt lat="45.08382" lon="5.22146">
        <ele>194.2</ele>
        <time>2022-09-17T15:21:04.000Z</time>
      </trkpt>
      <trkpt lat="45.08379" lon="5.22152">
        <ele>194.2</ele>
        <time>2022-09-17T15:21:05.000Z</time>
      </trkpt>
      <trkpt lat="45.08377" lon="5.22159">
        <ele>194.1</ele>
        <time>2022-09-17T15:21:06.000Z</time>
      </trkpt>
      <trkpt lat="45.08374" lon="5.22165">
        <ele>194</ele>
        <time>2022-09-17T15:21:07.000Z</time>
      </trkpt>
      <trkpt lat="45.08372" lon="5.22172">
        <ele>194</ele>
        <time>2022-09-17T15:21:08.000Z</time>
      </trkpt>
      <trkpt lat="45.08369" lon="5.22178">
        <ele>194</ele>
        <time>2022-09-17T15:21:09.000Z</time>
      </trkpt>
      <trkpt lat="45.08366" lon="5.22185">
        <ele>194</ele>
        <time>2022-09-17T15:21:10.000Z</time>
      </trkpt>
      <trkpt lat="45.08364" lon="5.22191">
        <ele>194</ele>
        <time>2022-09-17T15:21:11.000Z</time>
      </trkpt>
      <trkpt lat="45.08361" lon="5.22198">
        <ele>193.9</ele>
        <time>2022-09-17T15:21:12.000Z</time>
      </trkpt>
      <trkpt lat="45.08359" lon="5.22205">
        <ele>193.5</ele>
        <time>2022-09-17T15:21:13.000Z</time>
      </trkpt>
      <trkpt lat="45.08357" lon="5.22213">
        <ele>193.1</ele>
        <time>2022-09-17T15:21:14.000Z</time>
      </trkpt>
      <trkpt lat="45.08354" lon="5.2222">
        <ele>192.8</ele>
        <time>2022-09-17T15:21:15.000Z</time>
      </trkpt>
      <trkpt lat="45.08351" lon="5.22227">
        <ele>192.6</ele>
        <time>2022-09-17T15:21:16.000Z</time>
      </trkpt>
      <trkpt lat="45.08349" lon="5.22234">
        <ele>192.5</ele>
        <time>2022-09-17T15:21:17.000Z</time>
      </trkpt>
      <trkpt lat="45.08346" lon="5.22242">
        <ele>192.5</ele>
        <time>2022-09-17T15:21:18.000Z</time>
      </trkpt>
      <trkpt lat="45.08344" lon="5.22249">
        <ele>192.4</ele>
        <time>2022-09-17T15:21:19.000Z</time>
      </trkpt>
      <trkpt lat="45.08342" lon="5.22256">
        <ele>192.5</ele>
        <time>2022-09-17T15:21:20.000Z</time>
      </trkpt>
      <trkpt lat="45.0834" lon="5.22264">
        <ele>192.6</ele>
        <time>2022-09-17T15:21:21.000Z</time>
      </trkpt>
      <trkpt lat="45.08338" lon="5.22271">
        <ele>192.8</ele>
        <time>2022-09-17T15:21:22.000Z</time>
      </trkpt>
      <trkpt lat="45.08336" lon="5.22279">
        <ele>193</ele>
        <time>2022-09-17T15:21:23.000Z</time>
      </trkpt>
      <trkpt lat="45.08334" lon="5.22287">
        <ele>193.3</ele>
        <time>2022-09-17T15:21:24.000Z</time>
      </trkpt>
      <trkpt lat="45.08333" lon="5.22294">
        <ele>193.6</ele>
        <time>2022-09-17T15:21:25.000Z</time>
      </trkpt>
      <trkpt lat="45.08332" lon="5.22302">
        <ele>193.8</ele>
        <time>2022-09-17T15:21:26.000Z</time>
      </trkpt>
      <trkpt lat="45.08332" lon="5.22309">
        <ele>193.8</ele>
        <time>2022-09-17T15:21:27.000Z</time>
      </trkpt>
      <trkpt lat="45.08332" lon="5.22316">
        <ele>193.6</ele>
        <time>2022-09-17T15:21:28.000Z</time>
      </trkpt>
      <trkpt lat="45.08331" lon="5.22324">
        <ele>193.3</ele>
        <time>2022-09-17T15:21:29.000Z</time>
      </trkpt>
      <trkpt lat="45.08329" lon="5.22333">
        <ele>193</ele>
        <time>2022-09-17T15:21:30.000Z</time>
      </trkpt>
      <trkpt lat="45.08328" lon="5.22342">
        <ele>193</ele>
        <time>2022-09-17T15:21:31.000Z</time>
      </trkpt>
      <trkpt lat="45.08327" lon="5.22349">
        <ele>193</ele>
        <time>2022-09-17T15:21:32.000Z</time>
      </trkpt>
      <trkpt lat="45.08327" lon="5.22356">
        <ele>193</ele>
        <time>2022-09-17T15:21:33.000Z</time>
      </trkpt>
      <trkpt lat="45.08326" lon="5.22362">
        <ele>193</ele>
        <time>2022-09-17T15:21:34.000Z</time>
      </trkpt>
      <trkpt lat="45.08325" lon="5.22368">
        <ele>192.9</ele>
        <time>2022-09-17T15:21:35.000Z</time>
      </trkpt>
      <trkpt lat="45.08326" lon="5.22377">
        <ele>192.8</ele>
        <time>2022-09-17T15:21:36.000Z</time>
      </trkpt>
      <trkpt lat="45.08325" lon="5.22383">
        <ele>192.8</ele>
        <time>2022-09-17T15:21:37.000Z</time>
      </trkpt>
      <trkpt lat="45.08323" lon="5.2239">
        <ele>192.6</ele>
        <time>2022-09-17T15:21:38.000Z</time>
      </trkpt>
      <trkpt lat="45.08322" lon="5.22394">
        <ele>192.6</ele>
        <time>2022-09-17T15:21:39.000Z</time>
      </trkpt>
      <trkpt lat="45.0832" lon="5.22398">
        <ele>192.5</ele>
        <time>2022-09-17T15:21:40.000Z</time>
      </trkpt>
      <trkpt lat="45.08319" lon="5.22403">
        <ele>192.5</ele>
        <time>2022-09-17T15:21:41.000Z</time>
      </trkpt>
      <trkpt lat="45.08317" lon="5.2241">
        <ele>192.4</ele>
        <time>2022-09-17T15:21:42.000Z</time>
      </trkpt>
      <trkpt lat="45.08316" lon="5.22418">
        <ele>192.4</ele>
        <time>2022-09-17T15:21:43.000Z</time>
      </trkpt>
      <trkpt lat="45.08314" lon="5.22426">
        <ele>192.5</ele>
        <time>2022-09-17T15:21:44.000Z</time>
      </trkpt>
      <trkpt lat="45.08313" lon="5.22434">
        <ele>192.7</ele>
        <time>2022-09-17T15:21:45.000Z</time>
      </trkpt>
      <trkpt lat="45.08311" lon="5.22442">
        <ele>192.9</ele>
        <time>2022-09-17T15:21:46.000Z</time>
      </trkpt>
      <trkpt lat="45.08309" lon="5.2245">
        <ele>193</ele>
        <time>2022-09-17T15:21:47.000Z</time>
      </trkpt>
      <trkpt lat="45.08307" lon="5.22457">
        <ele>193</ele>
        <time>2022-09-17T15:21:48.000Z</time>
      </trkpt>
      <trkpt lat="45.08305" lon="5.22464">
        <ele>193</ele>
        <time>2022-09-17T15:21:49.000Z</time>
      </trkpt>
      <trkpt lat="45.08302" lon="5.22471">
        <ele>192.9</ele>
        <time>2022-09-17T15:21:50.000Z</time>
      </trkpt>
      <trkpt lat="45.08299" lon="5.22477">
        <ele>192.8</ele>
        <time>2022-09-17T15:21:51.000Z</time>
      </trkpt>
      <trkpt lat="45.08296" lon="5.22483">
        <ele>192.7</ele>
        <time>2022-09-17T15:21:52.000Z</time>
      </trkpt>
      <trkpt lat="45.08293" lon="5.2249">
        <ele>192.5</ele>
        <time>2022-09-17T15:21:53.000Z</time>
      </trkpt>
      <trkpt lat="45.0829" lon="5.22496">
        <ele>192.4</ele>
        <time>2022-09-17T15:21:54.000Z</time>
      </trkpt>
      <trkpt lat="45.08286" lon="5.22502">
        <ele>192.3</ele>
        <time>2022-09-17T15:21:55.000Z</time>
      </trkpt>
      <trkpt lat="45.08282" lon="5.22508">
        <ele>192.2</ele>
        <time>2022-09-17T15:21:56.000Z</time>
      </trkpt>
      <trkpt lat="45.08279" lon="5.22513">
        <ele>192</ele>
        <time>2022-09-17T15:21:57.000Z</time>
      </trkpt>
      <trkpt lat="45.08274" lon="5.22518">
        <ele>191.9</ele>
        <time>2022-09-17T15:21:58.000Z</time>
      </trkpt>
      <trkpt lat="45.08271" lon="5.22522">
        <ele>191.8</ele>
        <time>2022-09-17T15:21:59.000Z</time>
      </trkpt>
      <trkpt lat="45.08267" lon="5.22527">
        <ele>191.6</ele>
        <time>2022-09-17T15:22:00.000Z</time>
      </trkpt>
      <trkpt lat="45.08264" lon="5.22532">
        <ele>191.8</ele>
        <time>2022-09-17T15:22:01.000Z</time>
      </trkpt>
      <trkpt lat="45.0826" lon="5.22537">
        <ele>192</ele>
        <time>2022-09-17T15:22:02.000Z</time>
      </trkpt>
      <trkpt lat="45.08257" lon="5.22541">
        <ele>192.2</ele>
        <time>2022-09-17T15:22:03.000Z</time>
      </trkpt>
      <trkpt lat="45.08254" lon="5.22545">
        <ele>192.4</ele>
        <time>2022-09-17T15:22:04.000Z</time>
      </trkpt>
      <trkpt lat="45.08251" lon="5.22549">
        <ele>192.5</ele>
        <time>2022-09-17T15:22:05.000Z</time>
      </trkpt>
      <trkpt lat="45.08248" lon="5.22553">
        <ele>192.7</ele>
        <time>2022-09-17T15:22:06.000Z</time>
      </trkpt>
      <trkpt lat="45.08245" lon="5.22557">
        <ele>192.7</ele>
        <time>2022-09-17T15:22:07.000Z</time>
      </trkpt>
      <trkpt lat="45.08242" lon="5.22561">
        <ele>192.7</ele>
        <time>2022-09-17T15:22:08.000Z</time>
      </trkpt>
      <trkpt lat="45.08239" lon="5.22566">
        <ele>192.7</ele>
        <time>2022-09-17T15:22:09.000Z</time>
      </trkpt>
      <trkpt lat="45.08235" lon="5.22571">
        <ele>192.8</ele>
        <time>2022-09-17T15:22:10.000Z</time>
      </trkpt>
      <trkpt lat="45.08232" lon="5.22576">
        <ele>192.9</ele>
        <time>2022-09-17T15:22:11.000Z</time>
      </trkpt>
      <trkpt lat="45.08228" lon="5.22581">
        <ele>193</ele>
        <time>2022-09-17T15:22:12.000Z</time>
      </trkpt>
      <trkpt lat="45.08225" lon="5.22585">
        <ele>193.2</ele>
        <time>2022-09-17T15:22:13.000Z</time>
      </trkpt>
      <trkpt lat="45.08222" lon="5.2259">
        <ele>193.4</ele>
        <time>2022-09-17T15:22:14.000Z</time>
      </trkpt>
      <trkpt lat="45.08218" lon="5.22595">
        <ele>193.5</ele>
        <time>2022-09-17T15:22:15.000Z</time>
      </trkpt>
      <trkpt lat="45.08215" lon="5.226">
        <ele>193.5</ele>
        <time>2022-09-17T15:22:16.000Z</time>
      </trkpt>
      <trkpt lat="45.08212" lon="5.22605">
        <ele>193.5</ele>
        <time>2022-09-17T15:22:17.000Z</time>
      </trkpt>
      <trkpt lat="45.08208" lon="5.2261">
        <ele>193.4</ele>
        <time>2022-09-17T15:22:18.000Z</time>
      </trkpt>
      <trkpt lat="45.08204" lon="5.22614">
        <ele>193.4</ele>
        <time>2022-09-17T15:22:19.000Z</time>
      </trkpt>
      <trkpt lat="45.08201" lon="5.22619">
        <ele>193.6</ele>
        <time>2022-09-17T15:22:20.000Z</time>
      </trkpt>
      <trkpt lat="45.08197" lon="5.22624">
        <ele>193.7</ele>
        <time>2022-09-17T15:22:21.000Z</time>
      </trkpt>
      <trkpt lat="45.08194" lon="5.22629">
        <ele>193.9</ele>
        <time>2022-09-17T15:22:22.000Z</time>
      </trkpt>
      <trkpt lat="45.08192" lon="5.22633">
        <ele>194.2</ele>
        <time>2022-09-17T15:22:23.000Z</time>
      </trkpt>
      <trkpt lat="45.08189" lon="5.22637">
        <ele>194.5</ele>
        <time>2022-09-17T15:22:24.000Z</time>
      </trkpt>
      <trkpt lat="45.08187" lon="5.22642">
        <ele>194.9</ele>
        <time>2022-09-17T15:22:25.000Z</time>
      </trkpt>
      <trkpt lat="45.08183" lon="5.22646">
        <ele>195.2</ele>
        <time>2022-09-17T15:22:26.000Z</time>
      </trkpt>
      <trkpt lat="45.0818" lon="5.2265">
        <ele>195.6</ele>
        <time>2022-09-17T15:22:27.000Z</time>
      </trkpt>
      <trkpt lat="45.08176" lon="5.22655">
        <ele>195.8</ele>
        <time>2022-09-17T15:22:28.000Z</time>
      </trkpt>
      <trkpt lat="45.08173" lon="5.22659">
        <ele>195.9</ele>
        <time>2022-09-17T15:22:29.000Z</time>
      </trkpt>
      <trkpt lat="45.0817" lon="5.22663">
        <ele>196.1</ele>
        <time>2022-09-17T15:22:30.000Z</time>
      </trkpt>
      <trkpt lat="45.08167" lon="5.22668">
        <ele>196.1</ele>
        <time>2022-09-17T15:22:31.000Z</time>
      </trkpt>
      <trkpt lat="45.08164" lon="5.22672">
        <ele>196.4</ele>
        <time>2022-09-17T15:22:32.000Z</time>
      </trkpt>
      <trkpt lat="45.08161" lon="5.22676">
        <ele>196.6</ele>
        <time>2022-09-17T15:22:33.000Z</time>
      </trkpt>
      <trkpt lat="45.08158" lon="5.2268">
        <ele>196.8</ele>
        <time>2022-09-17T15:22:34.000Z</time>
      </trkpt>
      <trkpt lat="45.08155" lon="5.22684">
        <ele>196.9</ele>
        <time>2022-09-17T15:22:35.000Z</time>
      </trkpt>
      <trkpt lat="45.08152" lon="5.22688">
        <ele>197.1</ele>
        <time>2022-09-17T15:22:36.000Z</time>
      </trkpt>
      <trkpt lat="45.08149" lon="5.22692">
        <ele>197.1</ele>
        <time>2022-09-17T15:22:37.000Z</time>
      </trkpt>
      <trkpt lat="45.08146" lon="5.22697">
        <ele>197.1</ele>
        <time>2022-09-17T15:22:38.000Z</time>
      </trkpt>
      <trkpt lat="45.08142" lon="5.22701">
        <ele>197</ele>
        <time>2022-09-17T15:22:39.000Z</time>
      </trkpt>
      <trkpt lat="45.08139" lon="5.22705">
        <ele>196.8</ele>
        <time>2022-09-17T15:22:40.000Z</time>
      </trkpt>
      <trkpt lat="45.08137" lon="5.22709">
        <ele>196.8</ele>
        <time>2022-09-17T15:22:41.000Z</time>
      </trkpt>
      <trkpt lat="45.08134" lon="5.22713">
        <ele>196.8</ele>
        <time>2022-09-17T15:22:42.000Z</time>
      </trkpt>
      <trkpt lat="45.08131" lon="5.22717">
        <ele>196.8</ele>
        <time>2022-09-17T15:22:43.000Z</time>
      </trkpt>
      <trkpt lat="45.08128" lon="5.22721">
        <ele>196.7</ele>
        <time>2022-09-17T15:22:44.000Z</time>
      </trkpt>
      <trkpt lat="45.08126" lon="5.22725">
        <ele>197.1</ele>
        <time>2022-09-17T15:22:45.000Z</time>
      </trkpt>
      <trkpt lat="45.08123" lon="5.22729">
        <ele>197.5</ele>
        <time>2022-09-17T15:22:46.000Z</time>
      </trkpt>
      <trkpt lat="45.0812" lon="5.22733">
        <ele>197.9</ele>
        <time>2022-09-17T15:22:47.000Z</time>
      </trkpt>
      <trkpt lat="45.08118" lon="5.22738">
        <ele>198.4</ele>
        <time>2022-09-17T15:22:48.000Z</time>
      </trkpt>
      <trkpt lat="45.08115" lon="5.22743">
        <ele>199.1</ele>
        <time>2022-09-17T15:22:49.000Z</time>
      </trkpt>
      <trkpt lat="45.08112" lon="5.22748">
        <ele>199.8</ele>
        <time>2022-09-17T15:22:50.000Z</time>
      </trkpt>
      <trkpt lat="45.0811" lon="5.22753">
        <ele>200</ele>
        <time>2022-09-17T15:22:51.000Z</time>
      </trkpt>
      <trkpt lat="45.08107" lon="5.22759">
        <ele>200</ele>
        <time>2022-09-17T15:22:52.000Z</time>
      </trkpt>
      <trkpt lat="45.08105" lon="5.22764">
        <ele>200</ele>
        <time>2022-09-17T15:22:53.000Z</time>
      </trkpt>
      <trkpt lat="45.08103" lon="5.22769">
        <ele>200.1</ele>
        <time>2022-09-17T15:22:54.000Z</time>
      </trkpt>
      <trkpt lat="45.08101" lon="5.22775">
        <ele>200.2</ele>
        <time>2022-09-17T15:22:55.000Z</time>
      </trkpt>
      <trkpt lat="45.08099" lon="5.2278">
        <ele>200.4</ele>
        <time>2022-09-17T15:22:56.000Z</time>
      </trkpt>
      <trkpt lat="45.08097" lon="5.22786">
        <ele>200.5</ele>
        <time>2022-09-17T15:22:57.000Z</time>
      </trkpt>
      <trkpt lat="45.08095" lon="5.22791">
        <ele>200.7</ele>
        <time>2022-09-17T15:22:58.000Z</time>
      </trkpt>
      <trkpt lat="45.08093" lon="5.22796">
        <ele>200.9</ele>
        <time>2022-09-17T15:22:59.000Z</time>
      </trkpt>
      <trkpt lat="45.08091" lon="5.22802">
        <ele>201.2</ele>
        <time>2022-09-17T15:23:00.000Z</time>
      </trkpt>
      <trkpt lat="45.08089" lon="5.22807">
        <ele>201.4</ele>
        <time>2022-09-17T15:23:01.000Z</time>
      </trkpt>
      <trkpt lat="45.08087" lon="5.22812">
        <ele>201.5</ele>
        <time>2022-09-17T15:23:02.000Z</time>
      </trkpt>
      <trkpt lat="45.08084" lon="5.22817">
        <ele>201.5</ele>
        <time>2022-09-17T15:23:03.000Z</time>
      </trkpt>
      <trkpt lat="45.08081" lon="5.22823">
        <ele>201.4</ele>
        <time>2022-09-17T15:23:04.000Z</time>
      </trkpt>
      <trkpt lat="45.08079" lon="5.22829">
        <ele>201.3</ele>
        <time>2022-09-17T15:23:05.000Z</time>
      </trkpt>
      <trkpt lat="45.08076" lon="5.22834">
        <ele>201.2</ele>
        <time>2022-09-17T15:23:06.000Z</time>
      </trkpt>
      <trkpt lat="45.08074" lon="5.2284">
        <ele>201.3</ele>
        <time>2022-09-17T15:23:07.000Z</time>
      </trkpt>
      <trkpt lat="45.08073" lon="5.22847">
        <ele>201.4</ele>
        <time>2022-09-17T15:23:08.000Z</time>
      </trkpt>
      <trkpt lat="45.08071" lon="5.22853">
        <ele>201.3</ele>
        <time>2022-09-17T15:23:09.000Z</time>
      </trkpt>
      <trkpt lat="45.08068" lon="5.22858">
        <ele>201.3</ele>
        <time>2022-09-17T15:23:10.000Z</time>
      </trkpt>
      <trkpt lat="45.08066" lon="5.22864">
        <ele>201.3</ele>
        <time>2022-09-17T15:23:11.000Z</time>
      </trkpt>
      <trkpt lat="45.08064" lon="5.22869">
        <ele>201.4</ele>
        <time>2022-09-17T15:23:12.000Z</time>
      </trkpt>
      <trkpt lat="45.08062" lon="5.22874">
        <ele>201.5</ele>
        <time>2022-09-17T15:23:13.000Z</time>
      </trkpt>
      <trkpt lat="45.0806" lon="5.22878">
        <ele>201.6</ele>
        <time>2022-09-17T15:23:14.000Z</time>
      </trkpt>
      <trkpt lat="45.08058" lon="5.22883">
        <ele>201.8</ele>
        <time>2022-09-17T15:23:15.000Z</time>
      </trkpt>
      <trkpt lat="45.08056" lon="5.22887">
        <ele>201.9</ele>
        <time>2022-09-17T15:23:16.000Z</time>
      </trkpt>
      <trkpt lat="45.08055" lon="5.2289">
        <ele>202</ele>
        <time>2022-09-17T15:23:17.000Z</time>
      </trkpt>
      <trkpt lat="45.08053" lon="5.22894">
        <ele>202</ele>
        <time>2022-09-17T15:23:18.000Z</time>
      </trkpt>
      <trkpt lat="45.08051" lon="5.22899">
        <ele>202.1</ele>
        <time>2022-09-17T15:23:19.000Z</time>
      </trkpt>
      <trkpt lat="45.0805" lon="5.22904">
        <ele>202.1</ele>
        <time>2022-09-17T15:23:20.000Z</time>
      </trkpt>
      <trkpt lat="45.08048" lon="5.22909">
        <ele>202.2</ele>
        <time>2022-09-17T15:23:21.000Z</time>
      </trkpt>
      <trkpt lat="45.08047" lon="5.22914">
        <ele>202.2</ele>
        <time>2022-09-17T15:23:22.000Z</time>
      </trkpt>
      <trkpt lat="45.08046" lon="5.22919">
        <ele>202.3</ele>
        <time>2022-09-17T15:23:23.000Z</time>
      </trkpt>
      <trkpt lat="45.08044" lon="5.22924">
        <ele>202.3</ele>
        <time>2022-09-17T15:23:24.000Z</time>
      </trkpt>
      <trkpt lat="45.08043" lon="5.22929">
        <ele>202.3</ele>
        <time>2022-09-17T15:23:25.000Z</time>
      </trkpt>
      <trkpt lat="45.08042" lon="5.22933">
        <ele>202.3</ele>
        <time>2022-09-17T15:23:26.000Z</time>
      </trkpt>
      <trkpt lat="45.08041" lon="5.22938">
        <ele>202.4</ele>
        <time>2022-09-17T15:23:27.000Z</time>
      </trkpt>
      <trkpt lat="45.0804" lon="5.22942">
        <ele>202.4</ele>
        <time>2022-09-17T15:23:28.000Z</time>
      </trkpt>
      <trkpt lat="45.08039" lon="5.22947">
        <ele>202.5</ele>
        <time>2022-09-17T15:23:29.000Z</time>
      </trkpt>
      <trkpt lat="45.08039" lon="5.22952">
        <ele>202.5</ele>
        <time>2022-09-17T15:23:30.000Z</time>
      </trkpt>
      <trkpt lat="45.08038" lon="5.22958">
        <ele>202.5</ele>
        <time>2022-09-17T15:23:31.000Z</time>
      </trkpt>
      <trkpt lat="45.08037" lon="5.22963">
        <ele>202.6</ele>
        <time>2022-09-17T15:23:32.000Z</time>
      </trkpt>
      <trkpt lat="45.08037" lon="5.22969">
        <ele>202.6</ele>
        <time>2022-09-17T15:23:33.000Z</time>
      </trkpt>
      <trkpt lat="45.08036" lon="5.22974">
        <ele>202.7</ele>
        <time>2022-09-17T15:23:34.000Z</time>
      </trkpt>
      <trkpt lat="45.08036" lon="5.2298">
        <ele>202.8</ele>
        <time>2022-09-17T15:23:35.000Z</time>
      </trkpt>
      <trkpt lat="45.08035" lon="5.22986">
        <ele>202.9</ele>
        <time>2022-09-17T15:23:36.000Z</time>
      </trkpt>
      <trkpt lat="45.08034" lon="5.22991">
        <ele>203</ele>
        <time>2022-09-17T15:23:37.000Z</time>
      </trkpt>
      <trkpt lat="45.08033" lon="5.22996">
        <ele>203.1</ele>
        <time>2022-09-17T15:23:38.000Z</time>
      </trkpt>
      <trkpt lat="45.08032" lon="5.23001">
        <ele>203.2</ele>
        <time>2022-09-17T15:23:39.000Z</time>
      </trkpt>
      <trkpt lat="45.08031" lon="5.23006">
        <ele>203.3</ele>
        <time>2022-09-17T15:23:40.000Z</time>
      </trkpt>
      <trkpt lat="45.08031" lon="5.23011">
        <ele>203.4</ele>
        <time>2022-09-17T15:23:41.000Z</time>
      </trkpt>
      <trkpt lat="45.0803" lon="5.23015">
        <ele>203.6</ele>
        <time>2022-09-17T15:23:42.000Z</time>
      </trkpt>
      <trkpt lat="45.08029" lon="5.2302">
        <ele>203.7</ele>
        <time>2022-09-17T15:23:43.000Z</time>
      </trkpt>
      <trkpt lat="45.08028" lon="5.23025">
        <ele>203.9</ele>
        <time>2022-09-17T15:23:44.000Z</time>
      </trkpt>
      <trkpt lat="45.08026" lon="5.2303">
        <ele>203.8</ele>
        <time>2022-09-17T15:23:45.000Z</time>
      </trkpt>
      <trkpt lat="45.08024" lon="5.23036">
        <ele>203.6</ele>
        <time>2022-09-17T15:23:46.000Z</time>
      </trkpt>
      <trkpt lat="45.08023" lon="5.23041">
        <ele>203.4</ele>
        <time>2022-09-17T15:23:47.000Z</time>
      </trkpt>
      <trkpt lat="45.08021" lon="5.23046">
        <ele>203.3</ele>
        <time>2022-09-17T15:23:48.000Z</time>
      </trkpt>
      <trkpt lat="45.08019" lon="5.23052">
        <ele>203.3</ele>
        <time>2022-09-17T15:23:49.000Z</time>
      </trkpt>
      <trkpt lat="45.08017" lon="5.23057">
        <ele>203.3</ele>
        <time>2022-09-17T15:23:50.000Z</time>
      </trkpt>
      <trkpt lat="45.08015" lon="5.23061">
        <ele>203.2</ele>
        <time>2022-09-17T15:23:51.000Z</time>
      </trkpt>
      <trkpt lat="45.08013" lon="5.23066">
        <ele>203.1</ele>
        <time>2022-09-17T15:23:52.000Z</time>
      </trkpt>
      <trkpt lat="45.08011" lon="5.23071">
        <ele>203.1</ele>
        <time>2022-09-17T15:23:53.000Z</time>
      </trkpt>
      <trkpt lat="45.0801" lon="5.23076">
        <ele>203.2</ele>
        <time>2022-09-17T15:23:54.000Z</time>
      </trkpt>
      <trkpt lat="45.08008" lon="5.23081">
        <ele>203.2</ele>
        <time>2022-09-17T15:23:55.000Z</time>
      </trkpt>
      <trkpt lat="45.08006" lon="5.23086">
        <ele>203.4</ele>
        <time>2022-09-17T15:23:56.000Z</time>
      </trkpt>
      <trkpt lat="45.08004" lon="5.23092">
        <ele>203.7</ele>
        <time>2022-09-17T15:23:57.000Z</time>
      </trkpt>
      <trkpt lat="45.08002" lon="5.23097">
        <ele>204</ele>
        <time>2022-09-17T15:23:58.000Z</time>
      </trkpt>
      <trkpt lat="45.08" lon="5.23103">
        <ele>204.4</ele>
        <time>2022-09-17T15:23:59.000Z</time>
      </trkpt>
      <trkpt lat="45.07998" lon="5.23108">
        <ele>204.6</ele>
        <time>2022-09-17T15:24:00.000Z</time>
      </trkpt>
      <trkpt lat="45.07996" lon="5.23114">
        <ele>204.6</ele>
        <time>2022-09-17T15:24:01.000Z</time>
      </trkpt>
      <trkpt lat="45.07994" lon="5.2312">
        <ele>204.5</ele>
        <time>2022-09-17T15:24:02.000Z</time>
      </trkpt>
      <trkpt lat="45.07992" lon="5.23125">
        <ele>204.4</ele>
        <time>2022-09-17T15:24:03.000Z</time>
      </trkpt>
      <trkpt lat="45.0799" lon="5.23131">
        <ele>204.4</ele>
        <time>2022-09-17T15:24:04.000Z</time>
      </trkpt>
      <trkpt lat="45.07988" lon="5.23137">
        <ele>204.5</ele>
        <time>2022-09-17T15:24:05.000Z</time>
      </trkpt>
      <trkpt lat="45.07986" lon="5.23144">
        <ele>204.6</ele>
        <time>2022-09-17T15:24:06.000Z</time>
      </trkpt>
      <trkpt lat="45.07984" lon="5.2315">
        <ele>204.6</ele>
        <time>2022-09-17T15:24:07.000Z</time>
      </trkpt>
      <trkpt lat="45.07982" lon="5.23156">
        <ele>204.7</ele>
        <time>2022-09-17T15:24:08.000Z</time>
      </trkpt>
      <trkpt lat="45.0798" lon="5.23161">
        <ele>204.9</ele>
        <time>2022-09-17T15:24:09.000Z</time>
      </trkpt>
      <trkpt lat="45.07978" lon="5.23167">
        <ele>205</ele>
        <time>2022-09-17T15:24:10.000Z</time>
      </trkpt>
      <trkpt lat="45.07976" lon="5.23173">
        <ele>205.2</ele>
        <time>2022-09-17T15:24:11.000Z</time>
      </trkpt>
      <trkpt lat="45.07974" lon="5.23179">
        <ele>205.4</ele>
        <time>2022-09-17T15:24:12.000Z</time>
      </trkpt>
      <trkpt lat="45.07972" lon="5.23185">
        <ele>205.6</ele>
        <time>2022-09-17T15:24:13.000Z</time>
      </trkpt>
      <trkpt lat="45.07969" lon="5.23191">
        <ele>205.6</ele>
        <time>2022-09-17T15:24:14.000Z</time>
      </trkpt>
      <trkpt lat="45.07967" lon="5.23197">
        <ele>205.4</ele>
        <time>2022-09-17T15:24:15.000Z</time>
      </trkpt>
      <trkpt lat="45.07965" lon="5.23204">
        <ele>205</ele>
        <time>2022-09-17T15:24:16.000Z</time>
      </trkpt>
      <trkpt lat="45.07963" lon="5.2321">
        <ele>204.8</ele>
        <time>2022-09-17T15:24:17.000Z</time>
      </trkpt>
      <trkpt lat="45.07961" lon="5.23216">
        <ele>204.6</ele>
        <time>2022-09-17T15:24:18.000Z</time>
      </trkpt>
      <trkpt lat="45.07959" lon="5.23221">
        <ele>204.5</ele>
        <time>2022-09-17T15:24:19.000Z</time>
      </trkpt>
      <trkpt lat="45.07957" lon="5.23227">
        <ele>204.6</ele>
        <time>2022-09-17T15:24:20.000Z</time>
      </trkpt>
      <trkpt lat="45.07956" lon="5.23233">
        <ele>204.8</ele>
        <time>2022-09-17T15:24:21.000Z</time>
      </trkpt>
      <trkpt lat="45.07954" lon="5.23239">
        <ele>204.9</ele>
        <time>2022-09-17T15:24:22.000Z</time>
      </trkpt>
      <trkpt lat="45.07952" lon="5.23244">
        <ele>205.1</ele>
        <time>2022-09-17T15:24:23.000Z</time>
      </trkpt>
      <trkpt lat="45.0795" lon="5.23249">
        <ele>205.2</ele>
        <time>2022-09-17T15:24:24.000Z</time>
      </trkpt>
      <trkpt lat="45.07948" lon="5.23255">
        <ele>205.1</ele>
        <time>2022-09-17T15:24:25.000Z</time>
      </trkpt>
      <trkpt lat="45.07946" lon="5.2326">
        <ele>205</ele>
        <time>2022-09-17T15:24:26.000Z</time>
      </trkpt>
      <trkpt lat="45.07943" lon="5.23264">
        <ele>204.9</ele>
        <time>2022-09-17T15:24:27.000Z</time>
      </trkpt>
      <trkpt lat="45.07941" lon="5.23269">
        <ele>204.8</ele>
        <time>2022-09-17T15:24:28.000Z</time>
      </trkpt>
      <trkpt lat="45.07939" lon="5.23274">
        <ele>204.8</ele>
        <time>2022-09-17T15:24:29.000Z</time>
      </trkpt>
      <trkpt lat="45.07937" lon="5.23279">
        <ele>204.8</ele>
        <time>2022-09-17T15:24:30.000Z</time>
      </trkpt>
      <trkpt lat="45.07935" lon="5.23284">
        <ele>204.8</ele>
        <time>2022-09-17T15:24:31.000Z</time>
      </trkpt>
      <trkpt lat="45.07934" lon="5.23289">
        <ele>204.9</ele>
        <time>2022-09-17T15:24:32.000Z</time>
      </trkpt>
      <trkpt lat="45.07931" lon="5.23295">
        <ele>204.8</ele>
        <time>2022-09-17T15:24:33.000Z</time>
      </trkpt>
      <trkpt lat="45.07929" lon="5.233">
        <ele>204.8</ele>
        <time>2022-09-17T15:24:34.000Z</time>
      </trkpt>
      <trkpt lat="45.07927" lon="5.23305">
        <ele>204.7</ele>
        <time>2022-09-17T15:24:35.000Z</time>
      </trkpt>
      <trkpt lat="45.07924" lon="5.2331">
        <ele>204.6</ele>
        <time>2022-09-17T15:24:36.000Z</time>
      </trkpt>
      <trkpt lat="45.07922" lon="5.23315">
        <ele>204.6</ele>
        <time>2022-09-17T15:24:37.000Z</time>
      </trkpt>
      <trkpt lat="45.0792" lon="5.2332">
        <ele>204.6</ele>
        <time>2022-09-17T15:24:38.000Z</time>
      </trkpt>
      <trkpt lat="45.07917" lon="5.23325">
        <ele>204.7</ele>
        <time>2022-09-17T15:24:39.000Z</time>
      </trkpt>
      <trkpt lat="45.07915" lon="5.23329">
        <ele>204.7</ele>
        <time>2022-09-17T15:24:40.000Z</time>
      </trkpt>
      <trkpt lat="45.07912" lon="5.23333">
        <ele>204.7</ele>
        <time>2022-09-17T15:24:41.000Z</time>
      </trkpt>
      <trkpt lat="45.0791" lon="5.23338">
        <ele>204.6</ele>
        <time>2022-09-17T15:24:42.000Z</time>
      </trkpt>
      <trkpt lat="45.07908" lon="5.23343">
        <ele>204.6</ele>
        <time>2022-09-17T15:24:43.000Z</time>
      </trkpt>
      <trkpt lat="45.07905" lon="5.23347">
        <ele>204.6</ele>
        <time>2022-09-17T15:24:44.000Z</time>
      </trkpt>
      <trkpt lat="45.07902" lon="5.23353">
        <ele>204.7</ele>
        <time>2022-09-17T15:24:45.000Z</time>
      </trkpt>
      <trkpt lat="45.07899" lon="5.23358">
        <ele>204.8</ele>
        <time>2022-09-17T15:24:46.000Z</time>
      </trkpt>
      <trkpt lat="45.07896" lon="5.23362">
        <ele>205</ele>
        <time>2022-09-17T15:24:47.000Z</time>
      </trkpt>
      <trkpt lat="45.07894" lon="5.23367">
        <ele>205.2</ele>
        <time>2022-09-17T15:24:48.000Z</time>
      </trkpt>
      <trkpt lat="45.07891" lon="5.23372">
        <ele>205.4</ele>
        <time>2022-09-17T15:24:49.000Z</time>
      </trkpt>
      <trkpt lat="45.07888" lon="5.23377">
        <ele>205.5</ele>
        <time>2022-09-17T15:24:50.000Z</time>
      </trkpt>
      <trkpt lat="45.07886" lon="5.23383">
        <ele>205.5</ele>
        <time>2022-09-17T15:24:51.000Z</time>
      </trkpt>
      <trkpt lat="45.07884" lon="5.23388">
        <ele>205.4</ele>
        <time>2022-09-17T15:24:52.000Z</time>
      </trkpt>
      <trkpt lat="45.07881" lon="5.23394">
        <ele>205.1</ele>
        <time>2022-09-17T15:24:53.000Z</time>
      </trkpt>
      <trkpt lat="45.07879" lon="5.23399">
        <ele>204.9</ele>
        <time>2022-09-17T15:24:54.000Z</time>
      </trkpt>
      <trkpt lat="45.07877" lon="5.23406">
        <ele>204.7</ele>
        <time>2022-09-17T15:24:55.000Z</time>
      </trkpt>
      <trkpt lat="45.07875" lon="5.23412">
        <ele>204.5</ele>
        <time>2022-09-17T15:24:56.000Z</time>
      </trkpt>
      <trkpt lat="45.07873" lon="5.23419">
        <ele>204.4</ele>
        <time>2022-09-17T15:24:57.000Z</time>
      </trkpt>
      <trkpt lat="45.07871" lon="5.23425">
        <ele>204.7</ele>
        <time>2022-09-17T15:24:58.000Z</time>
      </trkpt>
      <trkpt lat="45.07869" lon="5.23432">
        <ele>205</ele>
        <time>2022-09-17T15:24:59.000Z</time>
      </trkpt>
      <trkpt lat="45.07867" lon="5.23438">
        <ele>205.5</ele>
        <time>2022-09-17T15:25:00.000Z</time>
      </trkpt>
      <trkpt lat="45.07865" lon="5.23445">
        <ele>206</ele>
        <time>2022-09-17T15:25:01.000Z</time>
      </trkpt>
      <trkpt lat="45.07863" lon="5.23451">
        <ele>206</ele>
        <time>2022-09-17T15:25:02.000Z</time>
      </trkpt>
      <trkpt lat="45.07861" lon="5.23458">
        <ele>206</ele>
        <time>2022-09-17T15:25:03.000Z</time>
      </trkpt>
      <trkpt lat="45.0786" lon="5.23465">
        <ele>205.8</ele>
        <time>2022-09-17T15:25:04.000Z</time>
      </trkpt>
      <trkpt lat="45.07858" lon="5.23472">
        <ele>205.6</ele>
        <time>2022-09-17T15:25:05.000Z</time>
      </trkpt>
      <trkpt lat="45.07856" lon="5.23479">
        <ele>205.5</ele>
        <time>2022-09-17T15:25:06.000Z</time>
      </trkpt>
      <trkpt lat="45.07854" lon="5.23486">
        <ele>205.4</ele>
        <time>2022-09-17T15:25:07.000Z</time>
      </trkpt>
      <trkpt lat="45.07852" lon="5.23493">
        <ele>205.3</ele>
        <time>2022-09-17T15:25:08.000Z</time>
      </trkpt>
      <trkpt lat="45.0785" lon="5.235">
        <ele>205.2</ele>
        <time>2022-09-17T15:25:09.000Z</time>
      </trkpt>
      <trkpt lat="45.07848" lon="5.23508">
        <ele>205.2</ele>
        <time>2022-09-17T15:25:10.000Z</time>
      </trkpt>
      <trkpt lat="45.07847" lon="5.23515">
        <ele>205.2</ele>
        <time>2022-09-17T15:25:11.000Z</time>
      </trkpt>
      <trkpt lat="45.07845" lon="5.23523">
        <ele>205.3</ele>
        <time>2022-09-17T15:25:12.000Z</time>
      </trkpt>
      <trkpt lat="45.07843" lon="5.23531">
        <ele>205.4</ele>
        <time>2022-09-17T15:25:13.000Z</time>
      </trkpt>
      <trkpt lat="45.07841" lon="5.23539">
        <ele>205.6</ele>
        <time>2022-09-17T15:25:14.000Z</time>
      </trkpt>
      <trkpt lat="45.07839" lon="5.23547">
        <ele>205.7</ele>
        <time>2022-09-17T15:25:15.000Z</time>
      </trkpt>
      <trkpt lat="45.07837" lon="5.23555">
        <ele>206</ele>
        <time>2022-09-17T15:25:16.000Z</time>
      </trkpt>
      <trkpt lat="45.07835" lon="5.23563">
        <ele>206</ele>
        <time>2022-09-17T15:25:17.000Z</time>
      </trkpt>
      <trkpt lat="45.07833" lon="5.2357">
        <ele>206</ele>
        <time>2022-09-17T15:25:18.000Z</time>
      </trkpt>
      <trkpt lat="45.07831" lon="5.23578">
        <ele>205.9</ele>
        <time>2022-09-17T15:25:19.000Z</time>
      </trkpt>
      <trkpt lat="45.07829" lon="5.23586">
        <ele>205.7</ele>
        <time>2022-09-17T15:25:20.000Z</time>
      </trkpt>
      <trkpt lat="45.07827" lon="5.23593">
        <ele>205.6</ele>
        <time>2022-09-17T15:25:21.000Z</time>
      </trkpt>
      <trkpt lat="45.07825" lon="5.23601">
        <ele>205.4</ele>
        <time>2022-09-17T15:25:22.000Z</time>
      </trkpt>
      <trkpt lat="45.07823" lon="5.23609">
        <ele>205.2</ele>
        <time>2022-09-17T15:25:23.000Z</time>
      </trkpt>
      <trkpt lat="45.07821" lon="5.23618">
        <ele>205.1</ele>
        <time>2022-09-17T15:25:24.000Z</time>
      </trkpt>
      <trkpt lat="45.07818" lon="5.23626">
        <ele>204.9</ele>
        <time>2022-09-17T15:25:25.000Z</time>
      </trkpt>
      <trkpt lat="45.07815" lon="5.23635">
        <ele>204.7</ele>
        <time>2022-09-17T15:25:26.000Z</time>
      </trkpt>
      <trkpt lat="45.07812" lon="5.23644">
        <ele>204.7</ele>
        <time>2022-09-17T15:25:27.000Z</time>
      </trkpt>
      <trkpt lat="45.07809" lon="5.23652">
        <ele>205.1</ele>
        <time>2022-09-17T15:25:28.000Z</time>
      </trkpt>
      <trkpt lat="45.07807" lon="5.23662">
        <ele>205.6</ele>
        <time>2022-09-17T15:25:29.000Z</time>
      </trkpt>
      <trkpt lat="45.07804" lon="5.23671">
        <ele>205.9</ele>
        <time>2022-09-17T15:25:30.000Z</time>
      </trkpt>
      <trkpt lat="45.07801" lon="5.2368">
        <ele>205.7</ele>
        <time>2022-09-17T15:25:31.000Z</time>
      </trkpt>
      <trkpt lat="45.07798" lon="5.2369">
        <ele>205.4</ele>
        <time>2022-09-17T15:25:32.000Z</time>
      </trkpt>
      <trkpt lat="45.07795" lon="5.23699">
        <ele>205.3</ele>
        <time>2022-09-17T15:25:33.000Z</time>
      </trkpt>
      <trkpt lat="45.07792" lon="5.23708">
        <ele>205.3</ele>
        <time>2022-09-17T15:25:34.000Z</time>
      </trkpt>
      <trkpt lat="45.07789" lon="5.23718">
        <ele>205.3</ele>
        <time>2022-09-17T15:25:35.000Z</time>
      </trkpt>
      <trkpt lat="45.07786" lon="5.23728">
        <ele>205.4</ele>
        <time>2022-09-17T15:25:36.000Z</time>
      </trkpt>
      <trkpt lat="45.07783" lon="5.23738">
        <ele>205.6</ele>
        <time>2022-09-17T15:25:37.000Z</time>
      </trkpt>
      <trkpt lat="45.0778" lon="5.23748">
        <ele>205.9</ele>
        <time>2022-09-17T15:25:38.000Z</time>
      </trkpt>
      <trkpt lat="45.07777" lon="5.23757">
        <ele>205.7</ele>
        <time>2022-09-17T15:25:39.000Z</time>
      </trkpt>
      <trkpt lat="45.07774" lon="5.23766">
        <ele>205.2</ele>
        <time>2022-09-17T15:25:40.000Z</time>
      </trkpt>
      <trkpt lat="45.07772" lon="5.23775">
        <ele>204.8</ele>
        <time>2022-09-17T15:25:41.000Z</time>
      </trkpt>
      <trkpt lat="45.07769" lon="5.23784">
        <ele>204.8</ele>
        <time>2022-09-17T15:25:42.000Z</time>
      </trkpt>
      <trkpt lat="45.07767" lon="5.23792">
        <ele>204.8</ele>
        <time>2022-09-17T15:25:43.000Z</time>
      </trkpt>
      <trkpt lat="45.07765" lon="5.238">
        <ele>204.9</ele>
        <time>2022-09-17T15:25:44.000Z</time>
      </trkpt>
      <trkpt lat="45.07762" lon="5.23808">
        <ele>205</ele>
        <time>2022-09-17T15:25:45.000Z</time>
      </trkpt>
      <trkpt lat="45.0776" lon="5.23816">
        <ele>205</ele>
        <time>2022-09-17T15:25:46.000Z</time>
      </trkpt>
      <trkpt lat="45.07758" lon="5.23823">
        <ele>205</ele>
        <time>2022-09-17T15:25:47.000Z</time>
      </trkpt>
      <trkpt lat="45.07756" lon="5.23831">
        <ele>205</ele>
        <time>2022-09-17T15:25:48.000Z</time>
      </trkpt>
      <trkpt lat="45.07753" lon="5.23839">
        <ele>205.2</ele>
        <time>2022-09-17T15:25:49.000Z</time>
      </trkpt>
      <trkpt lat="45.07751" lon="5.23846">
        <ele>205.4</ele>
        <time>2022-09-17T15:25:50.000Z</time>
      </trkpt>
      <trkpt lat="45.07749" lon="5.23854">
        <ele>205.7</ele>
        <time>2022-09-17T15:25:51.000Z</time>
      </trkpt>
      <trkpt lat="45.07746" lon="5.23862">
        <ele>205.7</ele>
        <time>2022-09-17T15:25:52.000Z</time>
      </trkpt>
      <trkpt lat="45.07744" lon="5.23871">
        <ele>205.3</ele>
        <time>2022-09-17T15:25:53.000Z</time>
      </trkpt>
      <trkpt lat="45.07741" lon="5.23879">
        <ele>204.9</ele>
        <time>2022-09-17T15:25:54.000Z</time>
      </trkpt>
      <trkpt lat="45.07739" lon="5.23888">
        <ele>204.6</ele>
        <time>2022-09-17T15:25:55.000Z</time>
      </trkpt>
      <trkpt lat="45.07737" lon="5.23896">
        <ele>204.6</ele>
        <time>2022-09-17T15:25:56.000Z</time>
      </trkpt>
      <trkpt lat="45.07734" lon="5.23905">
        <ele>204.8</ele>
        <time>2022-09-17T15:25:57.000Z</time>
      </trkpt>
      <trkpt lat="45.07732" lon="5.23913">
        <ele>204.9</ele>
        <time>2022-09-17T15:25:58.000Z</time>
      </trkpt>
      <trkpt lat="45.07729" lon="5.23922">
        <ele>205</ele>
        <time>2022-09-17T15:25:59.000Z</time>
      </trkpt>
      <trkpt lat="45.07727" lon="5.23931">
        <ele>205.1</ele>
        <time>2022-09-17T15:26:00.000Z</time>
      </trkpt>
      <trkpt lat="45.07724" lon="5.2394">
        <ele>205.1</ele>
        <time>2022-09-17T15:26:01.000Z</time>
      </trkpt>
      <trkpt lat="45.07722" lon="5.23948">
        <ele>205.1</ele>
        <time>2022-09-17T15:26:02.000Z</time>
      </trkpt>
      <trkpt lat="45.0772" lon="5.23957">
        <ele>205.3</ele>
        <time>2022-09-17T15:26:03.000Z</time>
      </trkpt>
      <trkpt lat="45.07717" lon="5.23966">
        <ele>205.4</ele>
        <time>2022-09-17T15:26:04.000Z</time>
      </trkpt>
      <trkpt lat="45.07714" lon="5.23975">
        <ele>205.4</ele>
        <time>2022-09-17T15:26:05.000Z</time>
      </trkpt>
      <trkpt lat="45.07711" lon="5.23984">
        <ele>205.1</ele>
        <time>2022-09-17T15:26:06.000Z</time>
      </trkpt>
      <trkpt lat="45.07708" lon="5.23992">
        <ele>205</ele>
        <time>2022-09-17T15:26:07.000Z</time>
      </trkpt>
      <trkpt lat="45.07705" lon="5.24001">
        <ele>205</ele>
        <time>2022-09-17T15:26:08.000Z</time>
      </trkpt>
      <trkpt lat="45.07702" lon="5.24009">
        <ele>205.1</ele>
        <time>2022-09-17T15:26:09.000Z</time>
      </trkpt>
      <trkpt lat="45.07699" lon="5.24017">
        <ele>205.1</ele>
        <time>2022-09-17T15:26:10.000Z</time>
      </trkpt>
      <trkpt lat="45.07697" lon="5.24026">
        <ele>205.1</ele>
        <time>2022-09-17T15:26:11.000Z</time>
      </trkpt>
      <trkpt lat="45.07695" lon="5.24033">
        <ele>205.2</ele>
        <time>2022-09-17T15:26:12.000Z</time>
      </trkpt>
      <trkpt lat="45.07693" lon="5.24041">
        <ele>205.4</ele>
        <time>2022-09-17T15:26:13.000Z</time>
      </trkpt>
      <trkpt lat="45.07692" lon="5.24048">
        <ele>205.6</ele>
        <time>2022-09-17T15:26:14.000Z</time>
      </trkpt>
      <trkpt lat="45.0769" lon="5.24056">
        <ele>205.7</ele>
        <time>2022-09-17T15:26:15.000Z</time>
      </trkpt>
      <trkpt lat="45.07688" lon="5.24063">
        <ele>205.5</ele>
        <time>2022-09-17T15:26:16.000Z</time>
      </trkpt>
      <trkpt lat="45.07685" lon="5.2407">
        <ele>205.3</ele>
        <time>2022-09-17T15:26:17.000Z</time>
      </trkpt>
      <trkpt lat="45.07683" lon="5.24078">
        <ele>205.1</ele>
        <time>2022-09-17T15:26:18.000Z</time>
      </trkpt>
      <trkpt lat="45.0768" lon="5.24086">
        <ele>205</ele>
        <time>2022-09-17T15:26:19.000Z</time>
      </trkpt>
      <trkpt lat="45.07678" lon="5.24093">
        <ele>205</ele>
        <time>2022-09-17T15:26:20.000Z</time>
      </trkpt>
      <trkpt lat="45.07675" lon="5.24101">
        <ele>205</ele>
        <time>2022-09-17T15:26:21.000Z</time>
      </trkpt>
      <trkpt lat="45.07672" lon="5.24108">
        <ele>205.1</ele>
        <time>2022-09-17T15:26:22.000Z</time>
      </trkpt>
      <trkpt lat="45.0767" lon="5.24116">
        <ele>205.1</ele>
        <time>2022-09-17T15:26:23.000Z</time>
      </trkpt>
      <trkpt lat="45.07667" lon="5.24123">
        <ele>205</ele>
        <time>2022-09-17T15:26:24.000Z</time>
      </trkpt>
      <trkpt lat="45.07664" lon="5.24131">
        <ele>204.8</ele>
        <time>2022-09-17T15:26:25.000Z</time>
      </trkpt>
      <trkpt lat="45.0766" lon="5.24139">
        <ele>204.5</ele>
        <time>2022-09-17T15:26:26.000Z</time>
      </trkpt>
      <trkpt lat="45.07657" lon="5.24147">
        <ele>204.4</ele>
        <time>2022-09-17T15:26:27.000Z</time>
      </trkpt>
      <trkpt lat="45.07654" lon="5.24154">
        <ele>204.3</ele>
        <time>2022-09-17T15:26:28.000Z</time>
      </trkpt>
      <trkpt lat="45.07652" lon="5.24162">
        <ele>204.4</ele>
        <time>2022-09-17T15:26:29.000Z</time>
      </trkpt>
      <trkpt lat="45.07649" lon="5.24169">
        <ele>204.3</ele>
        <time>2022-09-17T15:26:30.000Z</time>
      </trkpt>
      <trkpt lat="45.07647" lon="5.24177">
        <ele>204.2</ele>
        <time>2022-09-17T15:26:31.000Z</time>
      </trkpt>
      <trkpt lat="45.07645" lon="5.24184">
        <ele>204.1</ele>
        <time>2022-09-17T15:26:32.000Z</time>
      </trkpt>
      <trkpt lat="45.07642" lon="5.24193">
        <ele>204</ele>
        <time>2022-09-17T15:26:33.000Z</time>
      </trkpt>
      <trkpt lat="45.0764" lon="5.24201">
        <ele>204</ele>
        <time>2022-09-17T15:26:34.000Z</time>
      </trkpt>
      <trkpt lat="45.07637" lon="5.2421">
        <ele>203.9</ele>
        <time>2022-09-17T15:26:35.000Z</time>
      </trkpt>
      <trkpt lat="45.07635" lon="5.24219">
        <ele>203.8</ele>
        <time>2022-09-17T15:26:36.000Z</time>
      </trkpt>
      <trkpt lat="45.07632" lon="5.24227">
        <ele>203.8</ele>
        <time>2022-09-17T15:26:37.000Z</time>
      </trkpt>
      <trkpt lat="45.07629" lon="5.24236">
        <ele>203.8</ele>
        <time>2022-09-17T15:26:38.000Z</time>
      </trkpt>
      <trkpt lat="45.07626" lon="5.24244">
        <ele>203.9</ele>
        <time>2022-09-17T15:26:39.000Z</time>
      </trkpt>
      <trkpt lat="45.07622" lon="5.24252">
        <ele>204</ele>
        <time>2022-09-17T15:26:40.000Z</time>
      </trkpt>
      <trkpt lat="45.07619" lon="5.24259">
        <ele>204</ele>
        <time>2022-09-17T15:26:41.000Z</time>
      </trkpt>
      <trkpt lat="45.07617" lon="5.24266">
        <ele>204</ele>
        <time>2022-09-17T15:26:42.000Z</time>
      </trkpt>
      <trkpt lat="45.07614" lon="5.24274">
        <ele>204</ele>
        <time>2022-09-17T15:26:43.000Z</time>
      </trkpt>
      <trkpt lat="45.07611" lon="5.24281">
        <ele>204</ele>
        <time>2022-09-17T15:26:44.000Z</time>
      </trkpt>
      <trkpt lat="45.07609" lon="5.24288">
        <ele>203.9</ele>
        <time>2022-09-17T15:26:45.000Z</time>
      </trkpt>
      <trkpt lat="45.07607" lon="5.24295">
        <ele>203.9</ele>
        <time>2022-09-17T15:26:46.000Z</time>
      </trkpt>
      <trkpt lat="45.07604" lon="5.24296">
        <ele>203.9</ele>
        <time>2022-09-17T15:26:47.000Z</time>
      </trkpt>
      <trkpt lat="45.07602" lon="5.24297">
        <ele>203.9</ele>
        <time>2022-09-17T15:26:48.000Z</time>
      </trkpt>
      <trkpt lat="45.07602" lon="5.24306">
        <ele>204</ele>
        <time>2022-09-17T15:26:49.000Z</time>
      </trkpt>
      <trkpt lat="45.07598" lon="5.24322">
        <ele>204</ele>
        <time>2022-09-17T15:26:50.000Z</time>
      </trkpt>
      <trkpt lat="45.07595" lon="5.2433">
        <ele>204</ele>
        <time>2022-09-17T15:26:51.000Z</time>
      </trkpt>
      <trkpt lat="45.07593" lon="5.2433">
        <ele>204</ele>
        <time>2022-09-17T15:26:52.000Z</time>
      </trkpt>
      <trkpt lat="45.07593" lon="5.24332">
        <ele>204</ele>
        <time>2022-09-17T15:26:53.000Z</time>
      </trkpt>
      <trkpt lat="45.07594" lon="5.24338">
        <ele>204</ele>
        <time>2022-09-17T15:26:54.000Z</time>
      </trkpt>
      <trkpt lat="45.07593" lon="5.24345">
        <ele>204</ele>
        <time>2022-09-17T15:26:55.000Z</time>
      </trkpt>
      <trkpt lat="45.07592" lon="5.24354">
        <ele>204</ele>
        <time>2022-09-17T15:26:56.000Z</time>
      </trkpt>
      <trkpt lat="45.07591" lon="5.24362">
        <ele>204</ele>
        <time>2022-09-17T15:26:57.000Z</time>
      </trkpt>
      <trkpt lat="45.07591" lon="5.24368">
        <ele>204</ele>
        <time>2022-09-17T15:26:58.000Z</time>
      </trkpt>
      <trkpt lat="45.07589" lon="5.24374">
        <ele>204</ele>
        <time>2022-09-17T15:26:59.000Z</time>
      </trkpt>
      <trkpt lat="45.07589" lon="5.2438">
        <ele>204</ele>
        <time>2022-09-17T15:27:00.000Z</time>
      </trkpt>
      <trkpt lat="45.07589" lon="5.24387">
        <ele>204</ele>
        <time>2022-09-17T15:27:01.000Z</time>
      </trkpt>
      <trkpt lat="45.07588" lon="5.24394">
        <ele>204</ele>
        <time>2022-09-17T15:27:02.000Z</time>
      </trkpt>
      <trkpt lat="45.07588" lon="5.244">
        <ele>204</ele>
        <time>2022-09-17T15:27:03.000Z</time>
      </trkpt>
      <trkpt lat="45.07588" lon="5.24406">
        <ele>204</ele>
        <time>2022-09-17T15:27:04.000Z</time>
      </trkpt>
      <trkpt lat="45.07588" lon="5.24411">
        <ele>204</ele>
        <time>2022-09-17T15:27:05.000Z</time>
      </trkpt>
      <trkpt lat="45.07587" lon="5.24417">
        <ele>204</ele>
        <time>2022-09-17T15:27:06.000Z</time>
      </trkpt>
      <trkpt lat="45.07587" lon="5.24423">
        <ele>204</ele>
        <time>2022-09-17T15:27:07.000Z</time>
      </trkpt>
      <trkpt lat="45.07587" lon="5.24428">
        <ele>204</ele>
        <time>2022-09-17T15:27:08.000Z</time>
      </trkpt>
      <trkpt lat="45.07587" lon="5.24434">
        <ele>204</ele>
        <time>2022-09-17T15:27:09.000Z</time>
      </trkpt>
      <trkpt lat="45.07587" lon="5.24439">
        <ele>204</ele>
        <time>2022-09-17T15:27:10.000Z</time>
      </trkpt>
      <trkpt lat="45.07587" lon="5.24444">
        <ele>204</ele>
        <time>2022-09-17T15:27:11.000Z</time>
      </trkpt>
      <trkpt lat="45.07587" lon="5.24448">
        <ele>204</ele>
        <time>2022-09-17T15:27:12.000Z</time>
      </trkpt>
      <trkpt lat="45.07587" lon="5.24453">
        <ele>204</ele>
        <time>2022-09-17T15:27:13.000Z</time>
      </trkpt>
      <trkpt lat="45.07587" lon="5.24457">
        <ele>204</ele>
        <time>2022-09-17T15:27:14.000Z</time>
      </trkpt>
      <trkpt lat="45.07587" lon="5.24461">
        <ele>204</ele>
        <time>2022-09-17T15:27:15.000Z</time>
      </trkpt>
      <trkpt lat="45.07588" lon="5.24465">
        <ele>204</ele>
        <time>2022-09-17T15:27:16.000Z</time>
      </trkpt>
      <trkpt lat="45.07588" lon="5.24469">
        <ele>204</ele>
        <time>2022-09-17T15:27:17.000Z</time>
      </trkpt>
      <trkpt lat="45.07588" lon="5.24472">
        <ele>204</ele>
        <time>2022-09-17T15:27:18.000Z</time>
      </trkpt>
      <trkpt lat="45.07588" lon="5.24477">
        <ele>204</ele>
        <time>2022-09-17T15:27:19.000Z</time>
      </trkpt>
      <trkpt lat="45.07588" lon="5.24482">
        <ele>204</ele>
        <time>2022-09-17T15:27:20.000Z</time>
      </trkpt>
      <trkpt lat="45.07589" lon="5.24487">
        <ele>204</ele>
        <time>2022-09-17T15:27:21.000Z</time>
      </trkpt>
      <trkpt lat="45.07589" lon="5.24493">
        <ele>204</ele>
        <time>2022-09-17T15:27:22.000Z</time>
      </trkpt>
      <trkpt lat="45.0759" lon="5.24499">
        <ele>204</ele>
        <time>2022-09-17T15:27:23.000Z</time>
      </trkpt>
      <trkpt lat="45.0759" lon="5.24504">
        <ele>204</ele>
        <time>2022-09-17T15:27:24.000Z</time>
      </trkpt>
      <trkpt lat="45.0759" lon="5.2451">
        <ele>204</ele>
        <time>2022-09-17T15:27:25.000Z</time>
      </trkpt>
      <trkpt lat="45.0759" lon="5.24516">
        <ele>204</ele>
        <time>2022-09-17T15:27:26.000Z</time>
      </trkpt>
      <trkpt lat="45.0759" lon="5.24522">
        <ele>204</ele>
        <time>2022-09-17T15:27:27.000Z</time>
      </trkpt>
      <trkpt lat="45.0759" lon="5.24529">
        <ele>204</ele>
        <time>2022-09-17T15:27:28.000Z</time>
      </trkpt>
      <trkpt lat="45.0759" lon="5.24535">
        <ele>204</ele>
        <time>2022-09-17T15:27:29.000Z</time>
      </trkpt>
      <trkpt lat="45.07589" lon="5.24542">
        <ele>204</ele>
        <time>2022-09-17T15:27:30.000Z</time>
      </trkpt>
      <trkpt lat="45.07588" lon="5.24549">
        <ele>204</ele>
        <time>2022-09-17T15:27:31.000Z</time>
      </trkpt>
      <trkpt lat="45.07588" lon="5.24556">
        <ele>204</ele>
        <time>2022-09-17T15:27:32.000Z</time>
      </trkpt>
      <trkpt lat="45.07587" lon="5.24563">
        <ele>204</ele>
        <time>2022-09-17T15:27:33.000Z</time>
      </trkpt>
      <trkpt lat="45.07587" lon="5.24571">
        <ele>204</ele>
        <time>2022-09-17T15:27:34.000Z</time>
      </trkpt>
      <trkpt lat="45.07586" lon="5.24578">
        <ele>204</ele>
        <time>2022-09-17T15:27:35.000Z</time>
      </trkpt>
      <trkpt lat="45.07585" lon="5.24585">
        <ele>204</ele>
        <time>2022-09-17T15:27:36.000Z</time>
      </trkpt>
      <trkpt lat="45.07585" lon="5.24593">
        <ele>204</ele>
        <time>2022-09-17T15:27:37.000Z</time>
      </trkpt>
      <trkpt lat="45.07585" lon="5.24601">
        <ele>204</ele>
        <time>2022-09-17T15:27:38.000Z</time>
      </trkpt>
      <trkpt lat="45.07584" lon="5.24609">
        <ele>204</ele>
        <time>2022-09-17T15:27:39.000Z</time>
      </trkpt>
      <trkpt lat="45.07583" lon="5.24617">
        <ele>204</ele>
        <time>2022-09-17T15:27:40.000Z</time>
      </trkpt>
      <trkpt lat="45.07583" lon="5.24625">
        <ele>204</ele>
        <time>2022-09-17T15:27:41.000Z</time>
      </trkpt>
      <trkpt lat="45.07582" lon="5.24633">
        <ele>204</ele>
        <time>2022-09-17T15:27:42.000Z</time>
      </trkpt>
      <trkpt lat="45.07582" lon="5.24641">
        <ele>204</ele>
        <time>2022-09-17T15:27:43.000Z</time>
      </trkpt>
      <trkpt lat="45.07582" lon="5.2465">
        <ele>204</ele>
        <time>2022-09-17T15:27:44.000Z</time>
      </trkpt>
      <trkpt lat="45.07582" lon="5.24659">
        <ele>204</ele>
        <time>2022-09-17T15:27:45.000Z</time>
      </trkpt>
      <trkpt lat="45.07582" lon="5.24667">
        <ele>204</ele>
        <time>2022-09-17T15:27:46.000Z</time>
      </trkpt>
      <trkpt lat="45.07582" lon="5.24676">
        <ele>204</ele>
        <time>2022-09-17T15:27:47.000Z</time>
      </trkpt>
      <trkpt lat="45.07583" lon="5.24684">
        <ele>204</ele>
        <time>2022-09-17T15:27:48.000Z</time>
      </trkpt>
      <trkpt lat="45.07584" lon="5.24692">
        <ele>204</ele>
        <time>2022-09-17T15:27:49.000Z</time>
      </trkpt>
      <trkpt lat="45.07586" lon="5.247">
        <ele>204.1</ele>
        <time>2022-09-17T15:27:50.000Z</time>
      </trkpt>
      <trkpt lat="45.07588" lon="5.24708">
        <ele>204.1</ele>
        <time>2022-09-17T15:27:51.000Z</time>
      </trkpt>
      <trkpt lat="45.07589" lon="5.24717">
        <ele>204</ele>
        <time>2022-09-17T15:27:52.000Z</time>
      </trkpt>
      <trkpt lat="45.07591" lon="5.24725">
        <ele>204</ele>
        <time>2022-09-17T15:27:53.000Z</time>
      </trkpt>
      <trkpt lat="45.07594" lon="5.24734">
        <ele>204</ele>
        <time>2022-09-17T15:27:54.000Z</time>
      </trkpt>
      <trkpt lat="45.07596" lon="5.24742">
        <ele>204</ele>
        <time>2022-09-17T15:27:55.000Z</time>
      </trkpt>
      <trkpt lat="45.07597" lon="5.2475">
        <ele>204</ele>
        <time>2022-09-17T15:27:56.000Z</time>
      </trkpt>
      <trkpt lat="45.07599" lon="5.24758">
        <ele>204</ele>
        <time>2022-09-17T15:27:57.000Z</time>
      </trkpt>
      <trkpt lat="45.07601" lon="5.24766">
        <ele>204</ele>
        <time>2022-09-17T15:27:58.000Z</time>
      </trkpt>
      <trkpt lat="45.07602" lon="5.24774">
        <ele>204</ele>
        <time>2022-09-17T15:27:59.000Z</time>
      </trkpt>
      <trkpt lat="45.07604" lon="5.24781">
        <ele>204</ele>
        <time>2022-09-17T15:28:00.000Z</time>
      </trkpt>
      <trkpt lat="45.07606" lon="5.24789">
        <ele>204</ele>
        <time>2022-09-17T15:28:01.000Z</time>
      </trkpt>
      <trkpt lat="45.07607" lon="5.24797">
        <ele>204</ele>
        <time>2022-09-17T15:28:02.000Z</time>
      </trkpt>
      <trkpt lat="45.07608" lon="5.24804">
        <ele>204</ele>
        <time>2022-09-17T15:28:03.000Z</time>
      </trkpt>
      <trkpt lat="45.07609" lon="5.24812">
        <ele>204.2</ele>
        <time>2022-09-17T15:28:04.000Z</time>
      </trkpt>
      <trkpt lat="45.0761" lon="5.24818">
        <ele>204.4</ele>
        <time>2022-09-17T15:28:05.000Z</time>
      </trkpt>
      <trkpt lat="45.07611" lon="5.24825">
        <ele>204.7</ele>
        <time>2022-09-17T15:28:06.000Z</time>
      </trkpt>
      <trkpt lat="45.07612" lon="5.24831">
        <ele>204.9</ele>
        <time>2022-09-17T15:28:07.000Z</time>
      </trkpt>
      <trkpt lat="45.07612" lon="5.24838">
        <ele>204.8</ele>
        <time>2022-09-17T15:28:08.000Z</time>
      </trkpt>
      <trkpt lat="45.07612" lon="5.24845">
        <ele>204.6</ele>
        <time>2022-09-17T15:28:09.000Z</time>
      </trkpt>
      <trkpt lat="45.07611" lon="5.24851">
        <ele>204.4</ele>
        <time>2022-09-17T15:28:10.000Z</time>
      </trkpt>
      <trkpt lat="45.07611" lon="5.24859">
        <ele>204.1</ele>
        <time>2022-09-17T15:28:11.000Z</time>
      </trkpt>
      <trkpt lat="45.07611" lon="5.24865">
        <ele>204</ele>
        <time>2022-09-17T15:28:12.000Z</time>
      </trkpt>
      <trkpt lat="45.0761" lon="5.24872">
        <ele>204</ele>
        <time>2022-09-17T15:28:13.000Z</time>
      </trkpt>
      <trkpt lat="45.0761" lon="5.24878">
        <ele>204</ele>
        <time>2022-09-17T15:28:14.000Z</time>
      </trkpt>
      <trkpt lat="45.07608" lon="5.24884">
        <ele>203.9</ele>
        <time>2022-09-17T15:28:15.000Z</time>
      </trkpt>
      <trkpt lat="45.07605" lon="5.24887">
        <ele>203.8</ele>
        <time>2022-09-17T15:28:16.000Z</time>
      </trkpt>
      <trkpt lat="45.07603" lon="5.24891">
        <ele>203.7</ele>
        <time>2022-09-17T15:28:17.000Z</time>
      </trkpt>
      <trkpt lat="45.07603" lon="5.24894">
        <ele>203.7</ele>
        <time>2022-09-17T15:28:18.000Z</time>
      </trkpt>
      <trkpt lat="45.07606" lon="5.249">
        <ele>203.8</ele>
        <time>2022-09-17T15:28:19.000Z</time>
      </trkpt>
      <trkpt lat="45.07606" lon="5.24904">
        <ele>203.8</ele>
        <time>2022-09-17T15:28:20.000Z</time>
      </trkpt>
      <trkpt lat="45.07607" lon="5.2491">
        <ele>203.9</ele>
        <time>2022-09-17T15:28:21.000Z</time>
      </trkpt>
      <trkpt lat="45.07608" lon="5.24918">
        <ele>203.9</ele>
        <time>2022-09-17T15:28:22.000Z</time>
      </trkpt>
      <trkpt lat="45.07608" lon="5.24926">
        <ele>203.9</ele>
        <time>2022-09-17T15:28:23.000Z</time>
      </trkpt>
      <trkpt lat="45.07607" lon="5.24933">
        <ele>203.9</ele>
        <time>2022-09-17T15:28:24.000Z</time>
      </trkpt>
      <trkpt lat="45.07606" lon="5.24939">
        <ele>203.8</ele>
        <time>2022-09-17T15:28:25.000Z</time>
      </trkpt>
      <trkpt lat="45.07606" lon="5.24944">
        <ele>203.8</ele>
        <time>2022-09-17T15:28:26.000Z</time>
      </trkpt>
      <trkpt lat="45.07605" lon="5.2495">
        <ele>203.8</ele>
        <time>2022-09-17T15:28:27.000Z</time>
      </trkpt>
      <trkpt lat="45.07604" lon="5.24956">
        <ele>203.7</ele>
        <time>2022-09-17T15:28:28.000Z</time>
      </trkpt>
      <trkpt lat="45.07603" lon="5.24962">
        <ele>203.7</ele>
        <time>2022-09-17T15:28:29.000Z</time>
      </trkpt>
      <trkpt lat="45.07602" lon="5.24968">
        <ele>203.7</ele>
        <time>2022-09-17T15:28:30.000Z</time>
      </trkpt>
      <trkpt lat="45.07601" lon="5.24974">
        <ele>203.7</ele>
        <time>2022-09-17T15:28:31.000Z</time>
      </trkpt>
      <trkpt lat="45.076" lon="5.24981">
        <ele>203.7</ele>
        <time>2022-09-17T15:28:32.000Z</time>
      </trkpt>
      <trkpt lat="45.07599" lon="5.24987">
        <ele>203.8</ele>
        <time>2022-09-17T15:28:33.000Z</time>
      </trkpt>
      <trkpt lat="45.07598" lon="5.24993">
        <ele>203.9</ele>
        <time>2022-09-17T15:28:34.000Z</time>
      </trkpt>
      <trkpt lat="45.07597" lon="5.24998">
        <ele>204</ele>
        <time>2022-09-17T15:28:35.000Z</time>
      </trkpt>
      <trkpt lat="45.07596" lon="5.25004">
        <ele>204</ele>
        <time>2022-09-17T15:28:36.000Z</time>
      </trkpt>
      <trkpt lat="45.07596" lon="5.25009">
        <ele>204</ele>
        <time>2022-09-17T15:28:37.000Z</time>
      </trkpt>
      <trkpt lat="45.07595" lon="5.25014">
        <ele>204</ele>
        <time>2022-09-17T15:28:38.000Z</time>
      </trkpt>
      <trkpt lat="45.07594" lon="5.25018">
        <ele>204</ele>
        <time>2022-09-17T15:28:39.000Z</time>
      </trkpt>
      <trkpt lat="45.07593" lon="5.25022">
        <ele>204</ele>
        <time>2022-09-17T15:28:40.000Z</time>
      </trkpt>
      <trkpt lat="45.07591" lon="5.25025">
        <ele>204</ele>
        <time>2022-09-17T15:28:41.000Z</time>
      </trkpt>
      <trkpt lat="45.07589" lon="5.25029">
        <ele>204</ele>
        <time>2022-09-17T15:28:42.000Z</time>
      </trkpt>
      <trkpt lat="45.07589" lon="5.25031">
        <ele>204</ele>
        <time>2022-09-17T15:28:43.000Z</time>
      </trkpt>
      <trkpt lat="45.07588" lon="5.25034">
        <ele>204</ele>
        <time>2022-09-17T15:28:45.000Z</time>
      </trkpt>
      <trkpt lat="45.07588" lon="5.25037">
        <ele>204</ele>
        <time>2022-09-17T15:28:46.000Z</time>
      </trkpt>
      <trkpt lat="45.07589" lon="5.2504">
        <ele>204</ele>
        <time>2022-09-17T15:28:47.000Z</time>
      </trkpt>
      <trkpt lat="45.07591" lon="5.25044">
        <ele>204</ele>
        <time>2022-09-17T15:28:48.000Z</time>
      </trkpt>
      <trkpt lat="45.07592" lon="5.25049">
        <ele>204</ele>
        <time>2022-09-17T15:28:49.000Z</time>
      </trkpt>
      <trkpt lat="45.07593" lon="5.25057">
        <ele>204</ele>
        <time>2022-09-17T15:28:50.000Z</time>
      </trkpt>
      <trkpt lat="45.07594" lon="5.25064">
        <ele>203.9</ele>
        <time>2022-09-17T15:28:51.000Z</time>
      </trkpt>
      <trkpt lat="45.07594" lon="5.25072">
        <ele>203.8</ele>
        <time>2022-09-17T15:28:52.000Z</time>
      </trkpt>
      <trkpt lat="45.07595" lon="5.2508">
        <ele>203.7</ele>
        <time>2022-09-17T15:28:53.000Z</time>
      </trkpt>
      <trkpt lat="45.07595" lon="5.25088">
        <ele>203.6</ele>
        <time>2022-09-17T15:28:54.000Z</time>
      </trkpt>
      <trkpt lat="45.07596" lon="5.25096">
        <ele>203.8</ele>
        <time>2022-09-17T15:28:55.000Z</time>
      </trkpt>
      <trkpt lat="45.07597" lon="5.25104">
        <ele>203.9</ele>
        <time>2022-09-17T15:28:56.000Z</time>
      </trkpt>
      <trkpt lat="45.07597" lon="5.25112">
        <ele>204</ele>
        <time>2022-09-17T15:28:57.000Z</time>
      </trkpt>
      <trkpt lat="45.07598" lon="5.25121">
        <ele>204.2</ele>
        <time>2022-09-17T15:28:58.000Z</time>
      </trkpt>
      <trkpt lat="45.07598" lon="5.2513">
        <ele>204.3</ele>
        <time>2022-09-17T15:28:59.000Z</time>
      </trkpt>
      <trkpt lat="45.07597" lon="5.25137">
        <ele>204.5</ele>
        <time>2022-09-17T15:29:00.000Z</time>
      </trkpt>
      <trkpt lat="45.07596" lon="5.25144">
        <ele>204.5</ele>
        <time>2022-09-17T15:29:01.000Z</time>
      </trkpt>
      <trkpt lat="45.07595" lon="5.2515">
        <ele>204.6</ele>
        <time>2022-09-17T15:29:02.000Z</time>
      </trkpt>
      <trkpt lat="45.07595" lon="5.25157">
        <ele>204.6</ele>
        <time>2022-09-17T15:29:03.000Z</time>
      </trkpt>
      <trkpt lat="45.07594" lon="5.25164">
        <ele>204.6</ele>
        <time>2022-09-17T15:29:04.000Z</time>
      </trkpt>
      <trkpt lat="45.07593" lon="5.25171">
        <ele>204.7</ele>
        <time>2022-09-17T15:29:05.000Z</time>
      </trkpt>
      <trkpt lat="45.07592" lon="5.25177">
        <ele>204.7</ele>
        <time>2022-09-17T15:29:06.000Z</time>
      </trkpt>
      <trkpt lat="45.07591" lon="5.25184">
        <ele>204.7</ele>
        <time>2022-09-17T15:29:07.000Z</time>
      </trkpt>
      <trkpt lat="45.0759" lon="5.25191">
        <ele>204.8</ele>
        <time>2022-09-17T15:29:08.000Z</time>
      </trkpt>
      <trkpt lat="45.07589" lon="5.25198">
        <ele>204.8</ele>
        <time>2022-09-17T15:29:09.000Z</time>
      </trkpt>
      <trkpt lat="45.07588" lon="5.25205">
        <ele>204.9</ele>
        <time>2022-09-17T15:29:10.000Z</time>
      </trkpt>
      <trkpt lat="45.07587" lon="5.25212">
        <ele>205</ele>
        <time>2022-09-17T15:29:11.000Z</time>
      </trkpt>
      <trkpt lat="45.07586" lon="5.25219">
        <ele>205</ele>
        <time>2022-09-17T15:29:12.000Z</time>
      </trkpt>
      <trkpt lat="45.07586" lon="5.25226">
        <ele>205</ele>
        <time>2022-09-17T15:29:13.000Z</time>
      </trkpt>
      <trkpt lat="45.07587" lon="5.25233">
        <ele>205</ele>
        <time>2022-09-17T15:29:14.000Z</time>
      </trkpt>
      <trkpt lat="45.07587" lon="5.2524">
        <ele>205</ele>
        <time>2022-09-17T15:29:15.000Z</time>
      </trkpt>
      <trkpt lat="45.07588" lon="5.25246">
        <ele>205</ele>
        <time>2022-09-17T15:29:16.000Z</time>
      </trkpt>
      <trkpt lat="45.0759" lon="5.25252">
        <ele>205</ele>
        <time>2022-09-17T15:29:17.000Z</time>
      </trkpt>
      <trkpt lat="45.07592" lon="5.25259">
        <ele>205</ele>
        <time>2022-09-17T15:29:18.000Z</time>
      </trkpt>
      <trkpt lat="45.07595" lon="5.25265">
        <ele>205</ele>
        <time>2022-09-17T15:29:19.000Z</time>
      </trkpt>
      <trkpt lat="45.07598" lon="5.25271">
        <ele>205</ele>
        <time>2022-09-17T15:29:20.000Z</time>
      </trkpt>
      <trkpt lat="45.076" lon="5.25275">
        <ele>205</ele>
        <time>2022-09-17T15:29:21.000Z</time>
      </trkpt>
      <trkpt lat="45.07602" lon="5.2528">
        <ele>205.1</ele>
        <time>2022-09-17T15:29:22.000Z</time>
      </trkpt>
      <trkpt lat="45.07604" lon="5.25284">
        <ele>205.2</ele>
        <time>2022-09-17T15:29:23.000Z</time>
      </trkpt>
      <trkpt lat="45.07606" lon="5.25288">
        <ele>205.4</ele>
        <time>2022-09-17T15:29:24.000Z</time>
      </trkpt>
      <trkpt lat="45.07608" lon="5.25292">
        <ele>205.5</ele>
        <time>2022-09-17T15:29:25.000Z</time>
      </trkpt>
      <trkpt lat="45.07609" lon="5.25295">
        <ele>205.6</ele>
        <time>2022-09-17T15:29:26.000Z</time>
      </trkpt>
      <trkpt lat="45.07609" lon="5.25298">
        <ele>205.7</ele>
        <time>2022-09-17T15:29:27.000Z</time>
      </trkpt>
      <trkpt lat="45.07611" lon="5.25302">
        <ele>205.9</ele>
        <time>2022-09-17T15:29:29.000Z</time>
      </trkpt>
      <trkpt lat="45.07613" lon="5.25301">
        <ele>205.8</ele>
        <time>2022-09-17T15:29:32.000Z</time>
      </trkpt>
      <trkpt lat="45.07612" lon="5.25297">
        <ele>205.7</ele>
        <time>2022-09-17T15:29:34.000Z</time>
      </trkpt>
      <trkpt lat="45.0761" lon="5.25294">
        <ele>205.6</ele>
        <time>2022-09-17T15:29:36.000Z</time>
      </trkpt>
      <trkpt lat="45.07609" lon="5.25297">
        <ele>205.7</ele>
        <time>2022-09-17T15:29:41.000Z</time>
      </trkpt>
      <trkpt lat="45.07611" lon="5.2529">
        <ele>205.4</ele>
        <time>2022-09-17T15:29:49.000Z</time>
      </trkpt>
      <trkpt lat="45.07609" lon="5.25288">
        <ele>205.4</ele>
        <time>2022-09-17T15:29:50.000Z</time>
      </trkpt>
      <trkpt lat="45.07607" lon="5.25285">
        <ele>205.3</ele>
        <time>2022-09-17T15:29:51.000Z</time>
      </trkpt>
      <trkpt lat="45.07605" lon="5.25282">
        <ele>205.2</ele>
        <time>2022-09-17T15:29:52.000Z</time>
      </trkpt>
      <trkpt lat="45.07603" lon="5.25278">
        <ele>205</ele>
        <time>2022-09-17T15:29:53.000Z</time>
      </trkpt>
      <trkpt lat="45.07601" lon="5.25275">
        <ele>205</ele>
        <time>2022-09-17T15:29:54.000Z</time>
      </trkpt>
      <trkpt lat="45.07598" lon="5.2527">
        <ele>205</ele>
        <time>2022-09-17T15:29:55.000Z</time>
      </trkpt>
      <trkpt lat="45.07597" lon="5.25266">
        <ele>205</ele>
        <time>2022-09-17T15:29:56.000Z</time>
      </trkpt>
      <trkpt lat="45.07592" lon="5.25247">
        <ele>205</ele>
        <time>2022-09-17T15:29:57.000Z</time>
      </trkpt>
      <trkpt lat="45.0759" lon="5.25242">
        <ele>205</ele>
        <time>2022-09-17T15:29:58.000Z</time>
      </trkpt>
      <trkpt lat="45.07587" lon="5.25233">
        <ele>205</ele>
        <time>2022-09-17T15:30:03.000Z</time>
      </trkpt>
      <trkpt lat="45.07586" lon="5.25228">
        <ele>205</ele>
        <time>2022-09-17T15:30:04.000Z</time>
      </trkpt>
      <trkpt lat="45.07586" lon="5.25225">
        <ele>205</ele>
        <time>2022-09-17T15:30:05.000Z</time>
      </trkpt>
      <trkpt lat="45.07586" lon="5.25221">
        <ele>205</ele>
        <time>2022-09-17T15:30:06.000Z</time>
      </trkpt>
      <trkpt lat="45.07587" lon="5.25217">
        <ele>205</ele>
        <time>2022-09-17T15:30:07.000Z</time>
      </trkpt>
      <trkpt lat="45.07587" lon="5.25213">
        <ele>205</ele>
        <time>2022-09-17T15:30:08.000Z</time>
      </trkpt>
      <trkpt lat="45.07588" lon="5.2521">
        <ele>204.9</ele>
        <time>2022-09-17T15:30:09.000Z</time>
      </trkpt>
      <trkpt lat="45.07589" lon="5.25207">
        <ele>204.9</ele>
        <time>2022-09-17T15:30:10.000Z</time>
      </trkpt>
      <trkpt lat="45.07589" lon="5.25203">
        <ele>204.9</ele>
        <time>2022-09-17T15:30:11.000Z</time>
      </trkpt>
      <trkpt lat="45.0759" lon="5.252">
        <ele>204.8</ele>
        <time>2022-09-17T15:30:12.000Z</time>
      </trkpt>
      <trkpt lat="45.0759" lon="5.25197">
        <ele>204.8</ele>
        <time>2022-09-17T15:30:13.000Z</time>
      </trkpt>
      <trkpt lat="45.0759" lon="5.25193">
        <ele>204.7</ele>
        <time>2022-09-17T15:30:14.000Z</time>
      </trkpt>
      <trkpt lat="45.07591" lon="5.25189">
        <ele>204.7</ele>
        <time>2022-09-17T15:30:15.000Z</time>
      </trkpt>
      <trkpt lat="45.07592" lon="5.25185">
        <ele>204.7</ele>
        <time>2022-09-17T15:30:16.000Z</time>
      </trkpt>
      <trkpt lat="45.07592" lon="5.25181">
        <ele>204.7</ele>
        <time>2022-09-17T15:30:17.000Z</time>
      </trkpt>
      <trkpt lat="45.07593" lon="5.25177">
        <ele>204.7</ele>
        <time>2022-09-17T15:30:18.000Z</time>
      </trkpt>
      <trkpt lat="45.07593" lon="5.25174">
        <ele>204.7</ele>
        <time>2022-09-17T15:30:19.000Z</time>
      </trkpt>
      <trkpt lat="45.07593" lon="5.2517">
        <ele>204.6</ele>
        <time>2022-09-17T15:30:20.000Z</time>
      </trkpt>
      <trkpt lat="45.07594" lon="5.25166">
        <ele>204.6</ele>
        <time>2022-09-17T15:30:21.000Z</time>
      </trkpt>
      <trkpt lat="45.07594" lon="5.25161">
        <ele>204.6</ele>
        <time>2022-09-17T15:30:22.000Z</time>
      </trkpt>
      <trkpt lat="45.07595" lon="5.25157">
        <ele>204.6</ele>
        <time>2022-09-17T15:30:23.000Z</time>
      </trkpt>
      <trkpt lat="45.07596" lon="5.25151">
        <ele>204.6</ele>
        <time>2022-09-17T15:30:24.000Z</time>
      </trkpt>
      <trkpt lat="45.07596" lon="5.25145">
        <ele>204.5</ele>
        <time>2022-09-17T15:30:25.000Z</time>
      </trkpt>
      <trkpt lat="45.07597" lon="5.25137">
        <ele>204.5</ele>
        <time>2022-09-17T15:30:26.000Z</time>
      </trkpt>
      <trkpt lat="45.07597" lon="5.25129">
        <ele>204.3</ele>
        <time>2022-09-17T15:30:27.000Z</time>
      </trkpt>
      <trkpt lat="45.07598" lon="5.25119">
        <ele>204.1</ele>
        <time>2022-09-17T15:30:28.000Z</time>
      </trkpt>
      <trkpt lat="45.07598" lon="5.2511">
        <ele>204</ele>
        <time>2022-09-17T15:30:29.000Z</time>
      </trkpt>
      <trkpt lat="45.07598" lon="5.25103">
        <ele>203.8</ele>
        <time>2022-09-17T15:30:30.000Z</time>
      </trkpt>
      <trkpt lat="45.07598" lon="5.25096">
        <ele>203.7</ele>
        <time>2022-09-17T15:30:31.000Z</time>
      </trkpt>
      <trkpt lat="45.07598" lon="5.25088">
        <ele>203.6</ele>
        <time>2022-09-17T15:30:32.000Z</time>
      </trkpt>
      <trkpt lat="45.07597" lon="5.2508">
        <ele>203.6</ele>
        <time>2022-09-17T15:30:33.000Z</time>
      </trkpt>
      <trkpt lat="45.07596" lon="5.25073">
        <ele>203.7</ele>
        <time>2022-09-17T15:30:34.000Z</time>
      </trkpt>
      <trkpt lat="45.07596" lon="5.25067">
        <ele>203.8</ele>
        <time>2022-09-17T15:30:35.000Z</time>
      </trkpt>
      <trkpt lat="45.07596" lon="5.25062">
        <ele>203.9</ele>
        <time>2022-09-17T15:30:36.000Z</time>
      </trkpt>
      <trkpt lat="45.07596" lon="5.25056">
        <ele>204</ele>
        <time>2022-09-17T15:30:37.000Z</time>
      </trkpt>
      <trkpt lat="45.07595" lon="5.25051">
        <ele>204</ele>
        <time>2022-09-17T15:30:38.000Z</time>
      </trkpt>
      <trkpt lat="45.07593" lon="5.25049">
        <ele>204</ele>
        <time>2022-09-17T15:30:40.000Z</time>
      </trkpt>
      <trkpt lat="45.07592" lon="5.2504">
        <ele>204</ele>
        <time>2022-09-17T15:30:49.000Z</time>
      </trkpt>
      <trkpt lat="45.0759" lon="5.25038">
        <ele>204</ele>
        <time>2022-09-17T15:30:50.000Z</time>
      </trkpt>
      <trkpt lat="45.07588" lon="5.25037">
        <ele>204</ele>
        <time>2022-09-17T15:30:51.000Z</time>
      </trkpt>
      <trkpt lat="45.07586" lon="5.25036">
        <ele>204</ele>
        <time>2022-09-17T15:30:52.000Z</time>
      </trkpt>
      <trkpt lat="45.07583" lon="5.25035">
        <ele>204</ele>
        <time>2022-09-17T15:30:53.000Z</time>
      </trkpt>
      <trkpt lat="45.0758" lon="5.25034">
        <ele>204.1</ele>
        <time>2022-09-17T15:30:54.000Z</time>
      </trkpt>
      <trkpt lat="45.07577" lon="5.25034">
        <ele>204.2</ele>
        <time>2022-09-17T15:30:55.000Z</time>
      </trkpt>
      <trkpt lat="45.07572" lon="5.25035">
        <ele>204.3</ele>
        <time>2022-09-17T15:30:56.000Z</time>
      </trkpt>
      <trkpt lat="45.07566" lon="5.25036">
        <ele>204.4</ele>
        <time>2022-09-17T15:30:57.000Z</time>
      </trkpt>
      <trkpt lat="45.07561" lon="5.25037">
        <ele>204.6</ele>
        <time>2022-09-17T15:30:58.000Z</time>
      </trkpt>
      <trkpt lat="45.07555" lon="5.25038">
        <ele>204.6</ele>
        <time>2022-09-17T15:30:59.000Z</time>
      </trkpt>
      <trkpt lat="45.0755" lon="5.25039">
        <ele>204.6</ele>
        <time>2022-09-17T15:31:00.000Z</time>
      </trkpt>
      <trkpt lat="45.07544" lon="5.2504">
        <ele>204.5</ele>
        <time>2022-09-17T15:31:01.000Z</time>
      </trkpt>
      <trkpt lat="45.07539" lon="5.25041">
        <ele>204.5</ele>
        <time>2022-09-17T15:31:02.000Z</time>
      </trkpt>
      <trkpt lat="45.07534" lon="5.25041">
        <ele>204.5</ele>
        <time>2022-09-17T15:31:03.000Z</time>
      </trkpt>
      <trkpt lat="45.07528" lon="5.25042">
        <ele>204.5</ele>
        <time>2022-09-17T15:31:04.000Z</time>
      </trkpt>
      <trkpt lat="45.07523" lon="5.25044">
        <ele>204.6</ele>
        <time>2022-09-17T15:31:05.000Z</time>
      </trkpt>
      <trkpt lat="45.07517" lon="5.25044">
        <ele>204.6</ele>
        <time>2022-09-17T15:31:06.000Z</time>
      </trkpt>
      <trkpt lat="45.07511" lon="5.25045">
        <ele>204.6</ele>
        <time>2022-09-17T15:31:07.000Z</time>
      </trkpt>
      <trkpt lat="45.07505" lon="5.25046">
        <ele>204.6</ele>
        <time>2022-09-17T15:31:08.000Z</time>
      </trkpt>
      <trkpt lat="45.07498" lon="5.25046">
        <ele>204.7</ele>
        <time>2022-09-17T15:31:09.000Z</time>
      </trkpt>
      <trkpt lat="45.07492" lon="5.25046">
        <ele>204.8</ele>
        <time>2022-09-17T15:31:10.000Z</time>
      </trkpt>
      <trkpt lat="45.07485" lon="5.25046">
        <ele>204.8</ele>
        <time>2022-09-17T15:31:11.000Z</time>
      </trkpt>
      <trkpt lat="45.07479" lon="5.25045">
        <ele>204.9</ele>
        <time>2022-09-17T15:31:12.000Z</time>
      </trkpt>
      <trkpt lat="45.07472" lon="5.25044">
        <ele>205</ele>
        <time>2022-09-17T15:31:13.000Z</time>
      </trkpt>
      <trkpt lat="45.07466" lon="5.25043">
        <ele>205</ele>
        <time>2022-09-17T15:31:14.000Z</time>
      </trkpt>
      <trkpt lat="45.07459" lon="5.25041">
        <ele>205</ele>
        <time>2022-09-17T15:31:15.000Z</time>
      </trkpt>
      <trkpt lat="45.07453" lon="5.2504">
        <ele>205</ele>
        <time>2022-09-17T15:31:16.000Z</time>
      </trkpt>
      <trkpt lat="45.07446" lon="5.25039">
        <ele>205</ele>
        <time>2022-09-17T15:31:17.000Z</time>
      </trkpt>
      <trkpt lat="45.0744" lon="5.25038">
        <ele>205.1</ele>
        <time>2022-09-17T15:31:18.000Z</time>
      </trkpt>
      <trkpt lat="45.07434" lon="5.25037">
        <ele>205.1</ele>
        <time>2022-09-17T15:31:19.000Z</time>
      </trkpt>
      <trkpt lat="45.07427" lon="5.25036">
        <ele>205.2</ele>
        <time>2022-09-17T15:31:20.000Z</time>
      </trkpt>
      <trkpt lat="45.07421" lon="5.25035">
        <ele>205.2</ele>
        <time>2022-09-17T15:31:21.000Z</time>
      </trkpt>
      <trkpt lat="45.07415" lon="5.25034">
        <ele>205.2</ele>
        <time>2022-09-17T15:31:22.000Z</time>
      </trkpt>
      <trkpt lat="45.07408" lon="5.25033">
        <ele>205.1</ele>
        <time>2022-09-17T15:31:23.000Z</time>
      </trkpt>
      <trkpt lat="45.07402" lon="5.25032">
        <ele>205.1</ele>
        <time>2022-09-17T15:31:24.000Z</time>
      </trkpt>
      <trkpt lat="45.07395" lon="5.25031">
        <ele>205</ele>
        <time>2022-09-17T15:31:25.000Z</time>
      </trkpt>
      <trkpt lat="45.07389" lon="5.2503">
        <ele>205</ele>
        <time>2022-09-17T15:31:26.000Z</time>
      </trkpt>
      <trkpt lat="45.07383" lon="5.25029">
        <ele>205</ele>
        <time>2022-09-17T15:31:27.000Z</time>
      </trkpt>
      <trkpt lat="45.07376" lon="5.25027">
        <ele>205</ele>
        <time>2022-09-17T15:31:28.000Z</time>
      </trkpt>
      <trkpt lat="45.0737" lon="5.25024">
        <ele>205</ele>
        <time>2022-09-17T15:31:29.000Z</time>
      </trkpt>
      <trkpt lat="45.07364" lon="5.25021">
        <ele>205</ele>
        <time>2022-09-17T15:31:30.000Z</time>
      </trkpt>
      <trkpt lat="45.07359" lon="5.25017">
        <ele>204.9</ele>
        <time>2022-09-17T15:31:31.000Z</time>
      </trkpt>
      <trkpt lat="45.07353" lon="5.25013">
        <ele>204.7</ele>
        <time>2022-09-17T15:31:32.000Z</time>
      </trkpt>
      <trkpt lat="45.07348" lon="5.25008">
        <ele>204.5</ele>
        <time>2022-09-17T15:31:33.000Z</time>
      </trkpt>
      <trkpt lat="45.07344" lon="5.25001">
        <ele>204.4</ele>
        <time>2022-09-17T15:31:34.000Z</time>
      </trkpt>
      <trkpt lat="45.07339" lon="5.24994">
        <ele>204.4</ele>
        <time>2022-09-17T15:31:35.000Z</time>
      </trkpt>
      <trkpt lat="45.07335" lon="5.24987">
        <ele>204.5</ele>
        <time>2022-09-17T15:31:36.000Z</time>
      </trkpt>
      <trkpt lat="45.07331" lon="5.24981">
        <ele>204.6</ele>
        <time>2022-09-17T15:31:37.000Z</time>
      </trkpt>
      <trkpt lat="45.07326" lon="5.24974">
        <ele>204.5</ele>
        <time>2022-09-17T15:31:38.000Z</time>
      </trkpt>
      <trkpt lat="45.07322" lon="5.24967">
        <ele>204.4</ele>
        <time>2022-09-17T15:31:39.000Z</time>
      </trkpt>
      <trkpt lat="45.07318" lon="5.24959">
        <ele>204.4</ele>
        <time>2022-09-17T15:31:40.000Z</time>
      </trkpt>
      <trkpt lat="45.07314" lon="5.24952">
        <ele>204.6</ele>
        <time>2022-09-17T15:31:41.000Z</time>
      </trkpt>
      <trkpt lat="45.07309" lon="5.24945">
        <ele>205</ele>
        <time>2022-09-17T15:31:42.000Z</time>
      </trkpt>
      <trkpt lat="45.07305" lon="5.24938">
        <ele>205</ele>
        <time>2022-09-17T15:31:43.000Z</time>
      </trkpt>
      <trkpt lat="45.07301" lon="5.2493">
        <ele>204.8</ele>
        <time>2022-09-17T15:31:44.000Z</time>
      </trkpt>
      <trkpt lat="45.07297" lon="5.24923">
        <ele>204.5</ele>
        <time>2022-09-17T15:31:45.000Z</time>
      </trkpt>
      <trkpt lat="45.07293" lon="5.24915">
        <ele>204.1</ele>
        <time>2022-09-17T15:31:46.000Z</time>
      </trkpt>
      <trkpt lat="45.07289" lon="5.24908">
        <ele>203.9</ele>
        <time>2022-09-17T15:31:47.000Z</time>
      </trkpt>
      <trkpt lat="45.07285" lon="5.249">
        <ele>203.8</ele>
        <time>2022-09-17T15:31:48.000Z</time>
      </trkpt>
      <trkpt lat="45.07282" lon="5.24892">
        <ele>203.9</ele>
        <time>2022-09-17T15:31:49.000Z</time>
      </trkpt>
      <trkpt lat="45.07278" lon="5.24884">
        <ele>204</ele>
        <time>2022-09-17T15:31:50.000Z</time>
      </trkpt>
      <trkpt lat="45.07275" lon="5.24877">
        <ele>203.8</ele>
        <time>2022-09-17T15:31:51.000Z</time>
      </trkpt>
      <trkpt lat="45.07272" lon="5.24869">
        <ele>203.6</ele>
        <time>2022-09-17T15:31:52.000Z</time>
      </trkpt>
      <trkpt lat="45.07269" lon="5.24862">
        <ele>203.3</ele>
        <time>2022-09-17T15:31:53.000Z</time>
      </trkpt>
      <trkpt lat="45.07265" lon="5.24854">
        <ele>203.3</ele>
        <time>2022-09-17T15:31:54.000Z</time>
      </trkpt>
      <trkpt lat="45.07262" lon="5.24846">
        <ele>203.5</ele>
        <time>2022-09-17T15:31:55.000Z</time>
      </trkpt>
      <trkpt lat="45.07258" lon="5.24838">
        <ele>203.8</ele>
        <time>2022-09-17T15:31:56.000Z</time>
      </trkpt>
      <trkpt lat="45.07255" lon="5.2483">
        <ele>204</ele>
        <time>2022-09-17T15:31:57.000Z</time>
      </trkpt>
      <trkpt lat="45.07252" lon="5.24823">
        <ele>204</ele>
        <time>2022-09-17T15:31:58.000Z</time>
      </trkpt>
      <trkpt lat="45.07249" lon="5.24814">
        <ele>203.9</ele>
        <time>2022-09-17T15:31:59.000Z</time>
      </trkpt>
      <trkpt lat="45.07246" lon="5.24807">
        <ele>203.7</ele>
        <time>2022-09-17T15:32:00.000Z</time>
      </trkpt>
      <trkpt lat="45.07243" lon="5.24799">
        <ele>203.5</ele>
        <time>2022-09-17T15:32:01.000Z</time>
      </trkpt>
      <trkpt lat="45.0724" lon="5.24791">
        <ele>203.2</ele>
        <time>2022-09-17T15:32:02.000Z</time>
      </trkpt>
      <trkpt lat="45.07237" lon="5.24783">
        <ele>203</ele>
        <time>2022-09-17T15:32:03.000Z</time>
      </trkpt>
      <trkpt lat="45.07234" lon="5.24775">
        <ele>202.9</ele>
        <time>2022-09-17T15:32:04.000Z</time>
      </trkpt>
      <trkpt lat="45.07231" lon="5.24768">
        <ele>202.9</ele>
        <time>2022-09-17T15:32:05.000Z</time>
      </trkpt>
      <trkpt lat="45.07228" lon="5.2476">
        <ele>202.9</ele>
        <time>2022-09-17T15:32:06.000Z</time>
      </trkpt>
      <trkpt lat="45.07225" lon="5.24753">
        <ele>203</ele>
        <time>2022-09-17T15:32:07.000Z</time>
      </trkpt>
      <trkpt lat="45.07223" lon="5.24745">
        <ele>203</ele>
        <time>2022-09-17T15:32:08.000Z</time>
      </trkpt>
      <trkpt lat="45.07221" lon="5.24737">
        <ele>203</ele>
        <time>2022-09-17T15:32:09.000Z</time>
      </trkpt>
      <trkpt lat="45.0722" lon="5.24728">
        <ele>203</ele>
        <time>2022-09-17T15:32:10.000Z</time>
      </trkpt>
      <trkpt lat="45.0722" lon="5.24719">
        <ele>202.9</ele>
        <time>2022-09-17T15:32:11.000Z</time>
      </trkpt>
      <trkpt lat="45.07219" lon="5.24711">
        <ele>202.9</ele>
        <time>2022-09-17T15:32:12.000Z</time>
      </trkpt>
      <trkpt lat="45.07219" lon="5.24702">
        <ele>202.9</ele>
        <time>2022-09-17T15:32:13.000Z</time>
      </trkpt>
      <trkpt lat="45.07218" lon="5.24694">
        <ele>202.8</ele>
        <time>2022-09-17T15:32:14.000Z</time>
      </trkpt>
      <trkpt lat="45.07215" lon="5.24687">
        <ele>202.6</ele>
        <time>2022-09-17T15:32:15.000Z</time>
      </trkpt>
      <trkpt lat="45.07212" lon="5.24682">
        <ele>202.3</ele>
        <time>2022-09-17T15:32:16.000Z</time>
      </trkpt>
      <trkpt lat="45.07206" lon="5.24678">
        <ele>202.2</ele>
        <time>2022-09-17T15:32:17.000Z</time>
      </trkpt>
      <trkpt lat="45.072" lon="5.24677">
        <ele>202.1</ele>
        <time>2022-09-17T15:32:18.000Z</time>
      </trkpt>
      <trkpt lat="45.07196" lon="5.24678">
        <ele>202</ele>
        <time>2022-09-17T15:32:19.000Z</time>
      </trkpt>
      <trkpt lat="45.07192" lon="5.24679">
        <ele>202</ele>
        <time>2022-09-17T15:32:20.000Z</time>
      </trkpt>
      <trkpt lat="45.07189" lon="5.24681">
        <ele>202</ele>
        <time>2022-09-17T15:32:21.000Z</time>
      </trkpt>
      <trkpt lat="45.07186" lon="5.24683">
        <ele>202</ele>
        <time>2022-09-17T15:32:22.000Z</time>
      </trkpt>
      <trkpt lat="45.07184" lon="5.24685">
        <ele>202</ele>
        <time>2022-09-17T15:32:23.000Z</time>
      </trkpt>
      <trkpt lat="45.0718" lon="5.24688">
        <ele>202</ele>
        <time>2022-09-17T15:32:24.000Z</time>
      </trkpt>
      <trkpt lat="45.07177" lon="5.24692">
        <ele>202</ele>
        <time>2022-09-17T15:32:25.000Z</time>
      </trkpt>
      <trkpt lat="45.07175" lon="5.24697">
        <ele>202</ele>
        <time>2022-09-17T15:32:26.000Z</time>
      </trkpt>
      <trkpt lat="45.07174" lon="5.24703">
        <ele>202</ele>
        <time>2022-09-17T15:32:27.000Z</time>
      </trkpt>
      <trkpt lat="45.07174" lon="5.24709">
        <ele>202</ele>
        <time>2022-09-17T15:32:28.000Z</time>
      </trkpt>
      <trkpt lat="45.07174" lon="5.24715">
        <ele>202</ele>
        <time>2022-09-17T15:32:29.000Z</time>
      </trkpt>
      <trkpt lat="45.07175" lon="5.24722">
        <ele>202</ele>
        <time>2022-09-17T15:32:30.000Z</time>
      </trkpt>
      <trkpt lat="45.07177" lon="5.24728">
        <ele>202.3</ele>
        <time>2022-09-17T15:32:31.000Z</time>
      </trkpt>
      <trkpt lat="45.0718" lon="5.24734">
        <ele>202.6</ele>
        <time>2022-09-17T15:32:32.000Z</time>
      </trkpt>
      <trkpt lat="45.07182" lon="5.24741">
        <ele>203</ele>
        <time>2022-09-17T15:32:33.000Z</time>
      </trkpt>
      <trkpt lat="45.07185" lon="5.24747">
        <ele>203.5</ele>
        <time>2022-09-17T15:32:34.000Z</time>
      </trkpt>
      <trkpt lat="45.07187" lon="5.24753">
        <ele>203.8</ele>
        <time>2022-09-17T15:32:35.000Z</time>
      </trkpt>
      <trkpt lat="45.07189" lon="5.2476">
        <ele>203.9</ele>
        <time>2022-09-17T15:32:36.000Z</time>
      </trkpt>
      <trkpt lat="45.07191" lon="5.24768">
        <ele>203.9</ele>
        <time>2022-09-17T15:32:37.000Z</time>
      </trkpt>
      <trkpt lat="45.07192" lon="5.24775">
        <ele>204</ele>
        <time>2022-09-17T15:32:38.000Z</time>
      </trkpt>
      <trkpt lat="45.07193" lon="5.24782">
        <ele>204.2</ele>
        <time>2022-09-17T15:32:39.000Z</time>
      </trkpt>
      <trkpt lat="45.07194" lon="5.24789">
        <ele>204.4</ele>
        <time>2022-09-17T15:32:40.000Z</time>
      </trkpt>
      <trkpt lat="45.07195" lon="5.24797">
        <ele>204.6</ele>
        <time>2022-09-17T15:32:41.000Z</time>
      </trkpt>
      <trkpt lat="45.07197" lon="5.24804">
        <ele>204.7</ele>
        <time>2022-09-17T15:32:42.000Z</time>
      </trkpt>
      <trkpt lat="45.07198" lon="5.24812">
        <ele>204.7</ele>
        <time>2022-09-17T15:32:43.000Z</time>
      </trkpt>
      <trkpt lat="45.07199" lon="5.2482">
        <ele>204.6</ele>
        <time>2022-09-17T15:32:44.000Z</time>
      </trkpt>
      <trkpt lat="45.072" lon="5.24828">
        <ele>204.6</ele>
        <time>2022-09-17T15:32:45.000Z</time>
      </trkpt>
      <trkpt lat="45.07201" lon="5.24837">
        <ele>204.6</ele>
        <time>2022-09-17T15:32:46.000Z</time>
      </trkpt>
      <trkpt lat="45.07201" lon="5.24845">
        <ele>204.6</ele>
        <time>2022-09-17T15:32:47.000Z</time>
      </trkpt>
      <trkpt lat="45.07201" lon="5.24853">
        <ele>204.7</ele>
        <time>2022-09-17T15:32:48.000Z</time>
      </trkpt>
      <trkpt lat="45.07202" lon="5.24861">
        <ele>204.7</ele>
        <time>2022-09-17T15:32:49.000Z</time>
      </trkpt>
      <trkpt lat="45.07203" lon="5.24869">
        <ele>204.5</ele>
        <time>2022-09-17T15:32:50.000Z</time>
      </trkpt>
      <trkpt lat="45.07204" lon="5.24878">
        <ele>204.3</ele>
        <time>2022-09-17T15:32:51.000Z</time>
      </trkpt>
      <trkpt lat="45.07207" lon="5.24893">
        <ele>204</ele>
        <time>2022-09-17T15:32:53.000Z</time>
      </trkpt>
      <trkpt lat="45.07209" lon="5.24901">
        <ele>204</ele>
        <time>2022-09-17T15:32:54.000Z</time>
      </trkpt>
      <trkpt lat="45.07223" lon="5.24912">
        <ele>204</ele>
        <time>2022-09-17T15:32:55.000Z</time>
      </trkpt>
      <trkpt lat="45.07228" lon="5.24923">
        <ele>204</ele>
        <time>2022-09-17T15:32:56.000Z</time>
      </trkpt>
      <trkpt lat="45.07228" lon="5.2493">
        <ele>204</ele>
        <time>2022-09-17T15:32:57.000Z</time>
      </trkpt>
      <trkpt lat="45.0722" lon="5.24935">
        <ele>204</ele>
        <time>2022-09-17T15:32:58.000Z</time>
      </trkpt>
      <trkpt lat="45.07216" lon="5.24943">
        <ele>204</ele>
        <time>2022-09-17T15:32:59.000Z</time>
      </trkpt>
      <trkpt lat="45.07213" lon="5.24951">
        <ele>204</ele>
        <time>2022-09-17T15:33:00.000Z</time>
      </trkpt>
      <trkpt lat="45.07213" lon="5.24958">
        <ele>204</ele>
        <time>2022-09-17T15:33:01.000Z</time>
      </trkpt>
      <trkpt lat="45.07214" lon="5.24966">
        <ele>204</ele>
        <time>2022-09-17T15:33:02.000Z</time>
      </trkpt>
      <trkpt lat="45.07215" lon="5.24973">
        <ele>204</ele>
        <time>2022-09-17T15:33:03.000Z</time>
      </trkpt>
      <trkpt lat="45.07216" lon="5.24981">
        <ele>204</ele>
        <time>2022-09-17T15:33:04.000Z</time>
      </trkpt>
      <trkpt lat="45.07216" lon="5.24989">
        <ele>204</ele>
        <time>2022-09-17T15:33:05.000Z</time>
      </trkpt>
      <trkpt lat="45.07215" lon="5.24995">
        <ele>204</ele>
        <time>2022-09-17T15:33:06.000Z</time>
      </trkpt>
      <trkpt lat="45.07211" lon="5.25007">
        <ele>204</ele>
        <time>2022-09-17T15:33:07.000Z</time>
      </trkpt>
      <trkpt lat="45.07215" lon="5.25016">
        <ele>204</ele>
        <time>2022-09-17T15:33:08.000Z</time>
      </trkpt>
      <trkpt lat="45.07217" lon="5.25034">
        <ele>204</ele>
        <time>2022-09-17T15:33:09.000Z</time>
      </trkpt>
      <trkpt lat="45.07221" lon="5.25039">
        <ele>204</ele>
        <time>2022-09-17T15:33:10.000Z</time>
      </trkpt>
      <trkpt lat="45.07224" lon="5.25039">
        <ele>204</ele>
        <time>2022-09-17T15:33:11.000Z</time>
      </trkpt>
      <trkpt lat="45.07226" lon="5.25041">
        <ele>204</ele>
        <time>2022-09-17T15:33:12.000Z</time>
      </trkpt>
      <trkpt lat="45.07227" lon="5.25045">
        <ele>204</ele>
        <time>2022-09-17T15:33:13.000Z</time>
      </trkpt>
      <trkpt lat="45.07229" lon="5.2505">
        <ele>204</ele>
        <time>2022-09-17T15:33:14.000Z</time>
      </trkpt>
      <trkpt lat="45.0723" lon="5.25057">
        <ele>204</ele>
        <time>2022-09-17T15:33:15.000Z</time>
      </trkpt>
      <trkpt lat="45.07232" lon="5.25063">
        <ele>204</ele>
        <time>2022-09-17T15:33:16.000Z</time>
      </trkpt>
      <trkpt lat="45.07235" lon="5.25068">
        <ele>204</ele>
        <time>2022-09-17T15:33:17.000Z</time>
      </trkpt>
      <trkpt lat="45.07239" lon="5.25074">
        <ele>204</ele>
        <time>2022-09-17T15:33:18.000Z</time>
      </trkpt>
      <trkpt lat="45.07242" lon="5.2508">
        <ele>204</ele>
        <time>2022-09-17T15:33:19.000Z</time>
      </trkpt>
      <trkpt lat="45.07246" lon="5.25085">
        <ele>204</ele>
        <time>2022-09-17T15:33:20.000Z</time>
      </trkpt>
      <trkpt lat="45.07249" lon="5.25091">
        <ele>204</ele>
        <time>2022-09-17T15:33:21.000Z</time>
      </trkpt>
      <trkpt lat="45.07252" lon="5.25096">
        <ele>204</ele>
        <time>2022-09-17T15:33:22.000Z</time>
      </trkpt>
      <trkpt lat="45.07256" lon="5.25102">
        <ele>204.1</ele>
        <time>2022-09-17T15:33:23.000Z</time>
      </trkpt>
      <trkpt lat="45.07259" lon="5.25109">
        <ele>204</ele>
        <time>2022-09-17T15:33:24.000Z</time>
      </trkpt>
      <trkpt lat="45.07263" lon="5.25115">
        <ele>204</ele>
        <time>2022-09-17T15:33:25.000Z</time>
      </trkpt>
      <trkpt lat="45.07266" lon="5.25122">
        <ele>204</ele>
        <time>2022-09-17T15:33:26.000Z</time>
      </trkpt>
      <trkpt lat="45.07268" lon="5.25128">
        <ele>204</ele>
        <time>2022-09-17T15:33:27.000Z</time>
      </trkpt>
      <trkpt lat="45.07271" lon="5.25135">
        <ele>204</ele>
        <time>2022-09-17T15:33:28.000Z</time>
      </trkpt>
      <trkpt lat="45.07274" lon="5.25142">
        <ele>204</ele>
        <time>2022-09-17T15:33:29.000Z</time>
      </trkpt>
      <trkpt lat="45.07278" lon="5.25149">
        <ele>204</ele>
        <time>2022-09-17T15:33:30.000Z</time>
      </trkpt>
      <trkpt lat="45.07282" lon="5.25157">
        <ele>204</ele>
        <time>2022-09-17T15:33:31.000Z</time>
      </trkpt>
      <trkpt lat="45.07285" lon="5.25164">
        <ele>204</ele>
        <time>2022-09-17T15:33:32.000Z</time>
      </trkpt>
      <trkpt lat="45.07288" lon="5.25171">
        <ele>204</ele>
        <time>2022-09-17T15:33:33.000Z</time>
      </trkpt>
      <trkpt lat="45.07292" lon="5.25179">
        <ele>204</ele>
        <time>2022-09-17T15:33:34.000Z</time>
      </trkpt>
      <trkpt lat="45.07295" lon="5.25186">
        <ele>204</ele>
        <time>2022-09-17T15:33:35.000Z</time>
      </trkpt>
      <trkpt lat="45.07298" lon="5.25194">
        <ele>204</ele>
        <time>2022-09-17T15:33:36.000Z</time>
      </trkpt>
      <trkpt lat="45.073" lon="5.25202">
        <ele>204</ele>
        <time>2022-09-17T15:33:37.000Z</time>
      </trkpt>
      <trkpt lat="45.07303" lon="5.2521">
        <ele>204</ele>
        <time>2022-09-17T15:33:38.000Z</time>
      </trkpt>
      <trkpt lat="45.07306" lon="5.25219">
        <ele>204</ele>
        <time>2022-09-17T15:33:39.000Z</time>
      </trkpt>
      <trkpt lat="45.07308" lon="5.25227">
        <ele>204</ele>
        <time>2022-09-17T15:33:40.000Z</time>
      </trkpt>
      <trkpt lat="45.07312" lon="5.25236">
        <ele>204</ele>
        <time>2022-09-17T15:33:41.000Z</time>
      </trkpt>
      <trkpt lat="45.07314" lon="5.25243">
        <ele>204</ele>
        <time>2022-09-17T15:33:42.000Z</time>
      </trkpt>
      <trkpt lat="45.07317" lon="5.25251">
        <ele>204</ele>
        <time>2022-09-17T15:33:43.000Z</time>
      </trkpt>
      <trkpt lat="45.07319" lon="5.25259">
        <ele>204</ele>
        <time>2022-09-17T15:33:44.000Z</time>
      </trkpt>
      <trkpt lat="45.07321" lon="5.25268">
        <ele>204</ele>
        <time>2022-09-17T15:33:45.000Z</time>
      </trkpt>
      <trkpt lat="45.07323" lon="5.25276">
        <ele>204</ele>
        <time>2022-09-17T15:33:46.000Z</time>
      </trkpt>
      <trkpt lat="45.07325" lon="5.25284">
        <ele>204</ele>
        <time>2022-09-17T15:33:47.000Z</time>
      </trkpt>
      <trkpt lat="45.07328" lon="5.25293">
        <ele>204</ele>
        <time>2022-09-17T15:33:48.000Z</time>
      </trkpt>
      <trkpt lat="45.07331" lon="5.25302">
        <ele>204</ele>
        <time>2022-09-17T15:33:49.000Z</time>
      </trkpt>
      <trkpt lat="45.07333" lon="5.25311">
        <ele>204</ele>
        <time>2022-09-17T15:33:50.000Z</time>
      </trkpt>
      <trkpt lat="45.07336" lon="5.2532">
        <ele>204</ele>
        <time>2022-09-17T15:33:51.000Z</time>
      </trkpt>
      <trkpt lat="45.07339" lon="5.2533">
        <ele>204</ele>
        <time>2022-09-17T15:33:52.000Z</time>
      </trkpt>
      <trkpt lat="45.07341" lon="5.25339">
        <ele>203.8</ele>
        <time>2022-09-17T15:33:53.000Z</time>
      </trkpt>
      <trkpt lat="45.07343" lon="5.25348">
        <ele>203.5</ele>
        <time>2022-09-17T15:33:54.000Z</time>
      </trkpt>
      <trkpt lat="45.07345" lon="5.25358">
        <ele>203.1</ele>
        <time>2022-09-17T15:33:55.000Z</time>
      </trkpt>
      <trkpt lat="45.07348" lon="5.25367">
        <ele>203</ele>
        <time>2022-09-17T15:33:56.000Z</time>
      </trkpt>
      <trkpt lat="45.0735" lon="5.25375">
        <ele>203</ele>
        <time>2022-09-17T15:33:57.000Z</time>
      </trkpt>
      <trkpt lat="45.07353" lon="5.25384">
        <ele>203</ele>
        <time>2022-09-17T15:33:58.000Z</time>
      </trkpt>
      <trkpt lat="45.07355" lon="5.25393">
        <ele>203.1</ele>
        <time>2022-09-17T15:33:59.000Z</time>
      </trkpt>
      <trkpt lat="45.07358" lon="5.25401">
        <ele>203.4</ele>
        <time>2022-09-17T15:34:00.000Z</time>
      </trkpt>
      <trkpt lat="45.07361" lon="5.2541">
        <ele>203.7</ele>
        <time>2022-09-17T15:34:01.000Z</time>
      </trkpt>
      <trkpt lat="45.07364" lon="5.25418">
        <ele>203.9</ele>
        <time>2022-09-17T15:34:02.000Z</time>
      </trkpt>
      <trkpt lat="45.07367" lon="5.25426">
        <ele>203.5</ele>
        <time>2022-09-17T15:34:03.000Z</time>
      </trkpt>
      <trkpt lat="45.07371" lon="5.25433">
        <ele>203.3</ele>
        <time>2022-09-17T15:34:04.000Z</time>
      </trkpt>
      <trkpt lat="45.07375" lon="5.2544">
        <ele>203.1</ele>
        <time>2022-09-17T15:34:05.000Z</time>
      </trkpt>
      <trkpt lat="45.07379" lon="5.25446">
        <ele>203</ele>
        <time>2022-09-17T15:34:06.000Z</time>
      </trkpt>
      <trkpt lat="45.07384" lon="5.25452">
        <ele>203</ele>
        <time>2022-09-17T15:34:07.000Z</time>
      </trkpt>
      <trkpt lat="45.07388" lon="5.25458">
        <ele>203</ele>
        <time>2022-09-17T15:34:08.000Z</time>
      </trkpt>
      <trkpt lat="45.07393" lon="5.25464">
        <ele>203.1</ele>
        <time>2022-09-17T15:34:09.000Z</time>
      </trkpt>
      <trkpt lat="45.07397" lon="5.25471">
        <ele>203.3</ele>
        <time>2022-09-17T15:34:10.000Z</time>
      </trkpt>
      <trkpt lat="45.07402" lon="5.25477">
        <ele>203.5</ele>
        <time>2022-09-17T15:34:11.000Z</time>
      </trkpt>
      <trkpt lat="45.07407" lon="5.25483">
        <ele>203.6</ele>
        <time>2022-09-17T15:34:12.000Z</time>
      </trkpt>
      <trkpt lat="45.07412" lon="5.25489">
        <ele>203.8</ele>
        <time>2022-09-17T15:34:13.000Z</time>
      </trkpt>
      <trkpt lat="45.07417" lon="5.25494">
        <ele>204</ele>
        <time>2022-09-17T15:34:14.000Z</time>
      </trkpt>
      <trkpt lat="45.07422" lon="5.255">
        <ele>204</ele>
        <time>2022-09-17T15:34:15.000Z</time>
      </trkpt>
      <trkpt lat="45.07428" lon="5.25506">
        <ele>203.9</ele>
        <time>2022-09-17T15:34:16.000Z</time>
      </trkpt>
      <trkpt lat="45.07434" lon="5.25512">
        <ele>203.8</ele>
        <time>2022-09-17T15:34:17.000Z</time>
      </trkpt>
      <trkpt lat="45.07439" lon="5.25517">
        <ele>203.9</ele>
        <time>2022-09-17T15:34:18.000Z</time>
      </trkpt>
      <trkpt lat="45.07445" lon="5.25523">
        <ele>204</ele>
        <time>2022-09-17T15:34:19.000Z</time>
      </trkpt>
      <trkpt lat="45.07451" lon="5.25528">
        <ele>204</ele>
        <time>2022-09-17T15:34:20.000Z</time>
      </trkpt>
      <trkpt lat="45.07457" lon="5.25534">
        <ele>203.9</ele>
        <time>2022-09-17T15:34:21.000Z</time>
      </trkpt>
      <trkpt lat="45.07462" lon="5.25539">
        <ele>203.9</ele>
        <time>2022-09-17T15:34:22.000Z</time>
      </trkpt>
      <trkpt lat="45.07468" lon="5.25545">
        <ele>203.9</ele>
        <time>2022-09-17T15:34:23.000Z</time>
      </trkpt>
      <trkpt lat="45.07474" lon="5.2555">
        <ele>204</ele>
        <time>2022-09-17T15:34:24.000Z</time>
      </trkpt>
      <trkpt lat="45.0748" lon="5.25554">
        <ele>204</ele>
        <time>2022-09-17T15:34:25.000Z</time>
      </trkpt>
      <trkpt lat="45.07485" lon="5.25558">
        <ele>204</ele>
        <time>2022-09-17T15:34:26.000Z</time>
      </trkpt>
      <trkpt lat="45.07491" lon="5.25561">
        <ele>203.9</ele>
        <time>2022-09-17T15:34:27.000Z</time>
      </trkpt>
      <trkpt lat="45.07497" lon="5.25564">
        <ele>204</ele>
        <time>2022-09-17T15:34:28.000Z</time>
      </trkpt>
      <trkpt lat="45.07502" lon="5.25566">
        <ele>204</ele>
        <time>2022-09-17T15:34:29.000Z</time>
      </trkpt>
      <trkpt lat="45.07508" lon="5.25569">
        <ele>204</ele>
        <time>2022-09-17T15:34:30.000Z</time>
      </trkpt>
      <trkpt lat="45.07513" lon="5.25571">
        <ele>204</ele>
        <time>2022-09-17T15:34:31.000Z</time>
      </trkpt>
      <trkpt lat="45.07519" lon="5.25574">
        <ele>204</ele>
        <time>2022-09-17T15:34:32.000Z</time>
      </trkpt>
      <trkpt lat="45.07524" lon="5.25576">
        <ele>204</ele>
        <time>2022-09-17T15:34:33.000Z</time>
      </trkpt>
      <trkpt lat="45.0753" lon="5.25579">
        <ele>204</ele>
        <time>2022-09-17T15:34:34.000Z</time>
      </trkpt>
      <trkpt lat="45.07535" lon="5.25582">
        <ele>204</ele>
        <time>2022-09-17T15:34:35.000Z</time>
      </trkpt>
      <trkpt lat="45.0754" lon="5.25586">
        <ele>204</ele>
        <time>2022-09-17T15:34:36.000Z</time>
      </trkpt>
      <trkpt lat="45.07545" lon="5.25591">
        <ele>204</ele>
        <time>2022-09-17T15:34:37.000Z</time>
      </trkpt>
      <trkpt lat="45.07549" lon="5.25596">
        <ele>204</ele>
        <time>2022-09-17T15:34:38.000Z</time>
      </trkpt>
      <trkpt lat="45.07553" lon="5.25601">
        <ele>204</ele>
        <time>2022-09-17T15:34:39.000Z</time>
      </trkpt>
      <trkpt lat="45.07557" lon="5.25606">
        <ele>204</ele>
        <time>2022-09-17T15:34:40.000Z</time>
      </trkpt>
      <trkpt lat="45.07561" lon="5.25611">
        <ele>204</ele>
        <time>2022-09-17T15:34:41.000Z</time>
      </trkpt>
      <trkpt lat="45.07566" lon="5.25616">
        <ele>204.1</ele>
        <time>2022-09-17T15:34:42.000Z</time>
      </trkpt>
      <trkpt lat="45.0757" lon="5.25621">
        <ele>204.2</ele>
        <time>2022-09-17T15:34:43.000Z</time>
      </trkpt>
      <trkpt lat="45.07575" lon="5.25627">
        <ele>204.4</ele>
        <time>2022-09-17T15:34:44.000Z</time>
      </trkpt>
      <trkpt lat="45.0758" lon="5.25632">
        <ele>204.6</ele>
        <time>2022-09-17T15:34:45.000Z</time>
      </trkpt>
      <trkpt lat="45.07584" lon="5.25638">
        <ele>204.9</ele>
        <time>2022-09-17T15:34:46.000Z</time>
      </trkpt>
      <trkpt lat="45.07589" lon="5.25643">
        <ele>204.7</ele>
        <time>2022-09-17T15:34:47.000Z</time>
      </trkpt>
      <trkpt lat="45.07594" lon="5.25649">
        <ele>204.5</ele>
        <time>2022-09-17T15:34:48.000Z</time>
      </trkpt>
      <trkpt lat="45.07599" lon="5.25654">
        <ele>204.5</ele>
        <time>2022-09-17T15:34:49.000Z</time>
      </trkpt>
      <trkpt lat="45.07604" lon="5.2566">
        <ele>204.6</ele>
        <time>2022-09-17T15:34:50.000Z</time>
      </trkpt>
      <trkpt lat="45.07609" lon="5.25666">
        <ele>204.9</ele>
        <time>2022-09-17T15:34:51.000Z</time>
      </trkpt>
      <trkpt lat="45.07614" lon="5.25671">
        <ele>204.8</ele>
        <time>2022-09-17T15:34:52.000Z</time>
      </trkpt>
      <trkpt lat="45.07619" lon="5.25678">
        <ele>204.6</ele>
        <time>2022-09-17T15:34:53.000Z</time>
      </trkpt>
      <trkpt lat="45.07624" lon="5.25685">
        <ele>204.3</ele>
        <time>2022-09-17T15:34:54.000Z</time>
      </trkpt>
      <trkpt lat="45.07628" lon="5.25693">
        <ele>204.1</ele>
        <time>2022-09-17T15:34:55.000Z</time>
      </trkpt>
      <trkpt lat="45.07631" lon="5.257">
        <ele>204.1</ele>
        <time>2022-09-17T15:34:56.000Z</time>
      </trkpt>
      <trkpt lat="45.07634" lon="5.25708">
        <ele>204.4</ele>
        <time>2022-09-17T15:34:57.000Z</time>
      </trkpt>
      <trkpt lat="45.07638" lon="5.25716">
        <ele>204.7</ele>
        <time>2022-09-17T15:34:58.000Z</time>
      </trkpt>
      <trkpt lat="45.07641" lon="5.25724">
        <ele>204.9</ele>
        <time>2022-09-17T15:34:59.000Z</time>
      </trkpt>
      <trkpt lat="45.07645" lon="5.25733">
        <ele>204.7</ele>
        <time>2022-09-17T15:35:00.000Z</time>
      </trkpt>
      <trkpt lat="45.07648" lon="5.25741">
        <ele>204.5</ele>
        <time>2022-09-17T15:35:01.000Z</time>
      </trkpt>
      <trkpt lat="45.07651" lon="5.25749">
        <ele>204.5</ele>
        <time>2022-09-17T15:35:02.000Z</time>
      </trkpt>
      <trkpt lat="45.07654" lon="5.25757">
        <ele>204.6</ele>
        <time>2022-09-17T15:35:03.000Z</time>
      </trkpt>
      <trkpt lat="45.07658" lon="5.25765">
        <ele>204.7</ele>
        <time>2022-09-17T15:35:04.000Z</time>
      </trkpt>
      <trkpt lat="45.07661" lon="5.25774">
        <ele>204.8</ele>
        <time>2022-09-17T15:35:05.000Z</time>
      </trkpt>
      <trkpt lat="45.07664" lon="5.25782">
        <ele>204.8</ele>
        <time>2022-09-17T15:35:06.000Z</time>
      </trkpt>
      <trkpt lat="45.07668" lon="5.25791">
        <ele>204.5</ele>
        <time>2022-09-17T15:35:07.000Z</time>
      </trkpt>
      <trkpt lat="45.07671" lon="5.25799">
        <ele>204.2</ele>
        <time>2022-09-17T15:35:08.000Z</time>
      </trkpt>
      <trkpt lat="45.07675" lon="5.25807">
        <ele>204</ele>
        <time>2022-09-17T15:35:09.000Z</time>
      </trkpt>
      <trkpt lat="45.07678" lon="5.25815">
        <ele>204</ele>
        <time>2022-09-17T15:35:10.000Z</time>
      </trkpt>
      <trkpt lat="45.07681" lon="5.25824">
        <ele>204</ele>
        <time>2022-09-17T15:35:11.000Z</time>
      </trkpt>
      <trkpt lat="45.07684" lon="5.25833">
        <ele>204</ele>
        <time>2022-09-17T15:35:12.000Z</time>
      </trkpt>
      <trkpt lat="45.07687" lon="5.25841">
        <ele>203.9</ele>
        <time>2022-09-17T15:35:13.000Z</time>
      </trkpt>
      <trkpt lat="45.07691" lon="5.25849">
        <ele>203.9</ele>
        <time>2022-09-17T15:35:14.000Z</time>
      </trkpt>
      <trkpt lat="45.07694" lon="5.25858">
        <ele>204</ele>
        <time>2022-09-17T15:35:15.000Z</time>
      </trkpt>
      <trkpt lat="45.07698" lon="5.25866">
        <ele>203.8</ele>
        <time>2022-09-17T15:35:16.000Z</time>
      </trkpt>
      <trkpt lat="45.07701" lon="5.25875">
        <ele>203.6</ele>
        <time>2022-09-17T15:35:17.000Z</time>
      </trkpt>
      <trkpt lat="45.07704" lon="5.25885">
        <ele>203.4</ele>
        <time>2022-09-17T15:35:18.000Z</time>
      </trkpt>
      <trkpt lat="45.07707" lon="5.25893">
        <ele>203.5</ele>
        <time>2022-09-17T15:35:19.000Z</time>
      </trkpt>
      <trkpt lat="45.07711" lon="5.25902">
        <ele>203.6</ele>
        <time>2022-09-17T15:35:20.000Z</time>
      </trkpt>
      <trkpt lat="45.07715" lon="5.25909">
        <ele>203.7</ele>
        <time>2022-09-17T15:35:21.000Z</time>
      </trkpt>
      <trkpt lat="45.07719" lon="5.25916">
        <ele>203.9</ele>
        <time>2022-09-17T15:35:22.000Z</time>
      </trkpt>
      <trkpt lat="45.07724" lon="5.25922">
        <ele>203.8</ele>
        <time>2022-09-17T15:35:23.000Z</time>
      </trkpt>
      <trkpt lat="45.07728" lon="5.25927">
        <ele>203.7</ele>
        <time>2022-09-17T15:35:24.000Z</time>
      </trkpt>
      <trkpt lat="45.07732" lon="5.25933">
        <ele>203.6</ele>
        <time>2022-09-17T15:35:25.000Z</time>
      </trkpt>
      <trkpt lat="45.07736" lon="5.25939">
        <ele>203.6</ele>
        <time>2022-09-17T15:35:26.000Z</time>
      </trkpt>
      <trkpt lat="45.0774" lon="5.25943">
        <ele>203.7</ele>
        <time>2022-09-17T15:35:27.000Z</time>
      </trkpt>
      <trkpt lat="45.07744" lon="5.25947">
        <ele>203.8</ele>
        <time>2022-09-17T15:35:28.000Z</time>
      </trkpt>
      <trkpt lat="45.07747" lon="5.25951">
        <ele>203.9</ele>
        <time>2022-09-17T15:35:29.000Z</time>
      </trkpt>
      <trkpt lat="45.0775" lon="5.25955">
        <ele>204</ele>
        <time>2022-09-17T15:35:30.000Z</time>
      </trkpt>
      <trkpt lat="45.07752" lon="5.25961">
        <ele>204</ele>
        <time>2022-09-17T15:35:31.000Z</time>
      </trkpt>
      <trkpt lat="45.07752" lon="5.25969">
        <ele>204</ele>
        <time>2022-09-17T15:35:32.000Z</time>
      </trkpt>
      <trkpt lat="45.07751" lon="5.25976">
        <ele>203.9</ele>
        <time>2022-09-17T15:35:33.000Z</time>
      </trkpt>
      <trkpt lat="45.07748" lon="5.25983">
        <ele>203.6</ele>
        <time>2022-09-17T15:35:34.000Z</time>
      </trkpt>
      <trkpt lat="45.07744" lon="5.2599">
        <ele>203.3</ele>
        <time>2022-09-17T15:35:35.000Z</time>
      </trkpt>
      <trkpt lat="45.07739" lon="5.25998">
        <ele>203.1</ele>
        <time>2022-09-17T15:35:36.000Z</time>
      </trkpt>
      <trkpt lat="45.07735" lon="5.26006">
        <ele>202.8</ele>
        <time>2022-09-17T15:35:37.000Z</time>
      </trkpt>
      <trkpt lat="45.07732" lon="5.26015">
        <ele>202.5</ele>
        <time>2022-09-17T15:35:38.000Z</time>
      </trkpt>
      <trkpt lat="45.07729" lon="5.26024">
        <ele>202.1</ele>
        <time>2022-09-17T15:35:39.000Z</time>
      </trkpt>
      <trkpt lat="45.07729" lon="5.26033">
        <ele>201.9</ele>
        <time>2022-09-17T15:35:40.000Z</time>
      </trkpt>
      <trkpt lat="45.0773" lon="5.26042">
        <ele>201.6</ele>
        <time>2022-09-17T15:35:41.000Z</time>
      </trkpt>
      <trkpt lat="45.07732" lon="5.26052">
        <ele>201.5</ele>
        <time>2022-09-17T15:35:42.000Z</time>
      </trkpt>
      <trkpt lat="45.07737" lon="5.26059">
        <ele>201.5</ele>
        <time>2022-09-17T15:35:43.000Z</time>
      </trkpt>
      <trkpt lat="45.07742" lon="5.26065">
        <ele>201.5</ele>
        <time>2022-09-17T15:35:44.000Z</time>
      </trkpt>
      <trkpt lat="45.07748" lon="5.2607">
        <ele>201.4</ele>
        <time>2022-09-17T15:35:45.000Z</time>
      </trkpt>
      <trkpt lat="45.07753" lon="5.26074">
        <ele>201.5</ele>
        <time>2022-09-17T15:35:46.000Z</time>
      </trkpt>
      <trkpt lat="45.07759" lon="5.26078">
        <ele>201.8</ele>
        <time>2022-09-17T15:35:47.000Z</time>
      </trkpt>
      <trkpt lat="45.07764" lon="5.26083">
        <ele>202</ele>
        <time>2022-09-17T15:35:48.000Z</time>
      </trkpt>
      <trkpt lat="45.07769" lon="5.26087">
        <ele>202.3</ele>
        <time>2022-09-17T15:35:49.000Z</time>
      </trkpt>
      <trkpt lat="45.07775" lon="5.26091">
        <ele>202.5</ele>
        <time>2022-09-17T15:35:50.000Z</time>
      </trkpt>
      <trkpt lat="45.0778" lon="5.26095">
        <ele>202.7</ele>
        <time>2022-09-17T15:35:51.000Z</time>
      </trkpt>
      <trkpt lat="45.07786" lon="5.26098">
        <ele>202.8</ele>
        <time>2022-09-17T15:35:52.000Z</time>
      </trkpt>
      <trkpt lat="45.07791" lon="5.26101">
        <ele>203</ele>
        <time>2022-09-17T15:35:53.000Z</time>
      </trkpt>
      <trkpt lat="45.07795" lon="5.26103">
        <ele>203.2</ele>
        <time>2022-09-17T15:35:54.000Z</time>
      </trkpt>
      <trkpt lat="45.07799" lon="5.26106">
        <ele>203.4</ele>
        <time>2022-09-17T15:35:55.000Z</time>
      </trkpt>
      <trkpt lat="45.07803" lon="5.26108">
        <ele>203.7</ele>
        <time>2022-09-17T15:35:56.000Z</time>
      </trkpt>
      <trkpt lat="45.07807" lon="5.2611">
        <ele>203.9</ele>
        <time>2022-09-17T15:35:57.000Z</time>
      </trkpt>
      <trkpt lat="45.07811" lon="5.26113">
        <ele>203.7</ele>
        <time>2022-09-17T15:35:58.000Z</time>
      </trkpt>
      <trkpt lat="45.07816" lon="5.26117">
        <ele>203.4</ele>
        <time>2022-09-17T15:35:59.000Z</time>
      </trkpt>
      <trkpt lat="45.0782" lon="5.26122">
        <ele>203.3</ele>
        <time>2022-09-17T15:36:00.000Z</time>
      </trkpt>
      <trkpt lat="45.07823" lon="5.26127">
        <ele>203.3</ele>
        <time>2022-09-17T15:36:01.000Z</time>
      </trkpt>
      <trkpt lat="45.07826" lon="5.26134">
        <ele>203.4</ele>
        <time>2022-09-17T15:36:02.000Z</time>
      </trkpt>
      <trkpt lat="45.07828" lon="5.26139">
        <ele>203.6</ele>
        <time>2022-09-17T15:36:03.000Z</time>
      </trkpt>
      <trkpt lat="45.07831" lon="5.26145">
        <ele>203.6</ele>
        <time>2022-09-17T15:36:04.000Z</time>
      </trkpt>
      <trkpt lat="45.07833" lon="5.2615">
        <ele>203.6</ele>
        <time>2022-09-17T15:36:05.000Z</time>
      </trkpt>
      <trkpt lat="45.07836" lon="5.26156">
        <ele>203.4</ele>
        <time>2022-09-17T15:36:06.000Z</time>
      </trkpt>
      <trkpt lat="45.07838" lon="5.26162">
        <ele>203.2</ele>
        <time>2022-09-17T15:36:07.000Z</time>
      </trkpt>
      <trkpt lat="45.07839" lon="5.26168">
        <ele>203</ele>
        <time>2022-09-17T15:36:08.000Z</time>
      </trkpt>
      <trkpt lat="45.07841" lon="5.26174">
        <ele>202.8</ele>
        <time>2022-09-17T15:36:09.000Z</time>
      </trkpt>
      <trkpt lat="45.07843" lon="5.26179">
        <ele>202.7</ele>
        <time>2022-09-17T15:36:10.000Z</time>
      </trkpt>
      <trkpt lat="45.07846" lon="5.26185">
        <ele>202.6</ele>
        <time>2022-09-17T15:36:11.000Z</time>
      </trkpt>
      <trkpt lat="45.07848" lon="5.2619">
        <ele>202.6</ele>
        <time>2022-09-17T15:36:12.000Z</time>
      </trkpt>
      <trkpt lat="45.0785" lon="5.26195">
        <ele>202.6</ele>
        <time>2022-09-17T15:36:13.000Z</time>
      </trkpt>
      <trkpt lat="45.07853" lon="5.262">
        <ele>202.4</ele>
        <time>2022-09-17T15:36:14.000Z</time>
      </trkpt>
      <trkpt lat="45.07856" lon="5.26205">
        <ele>202.2</ele>
        <time>2022-09-17T15:36:15.000Z</time>
      </trkpt>
      <trkpt lat="45.07859" lon="5.26209">
        <ele>201.9</ele>
        <time>2022-09-17T15:36:16.000Z</time>
      </trkpt>
      <trkpt lat="45.07862" lon="5.26214">
        <ele>201.6</ele>
        <time>2022-09-17T15:36:17.000Z</time>
      </trkpt>
      <trkpt lat="45.07866" lon="5.26219">
        <ele>201.4</ele>
        <time>2022-09-17T15:36:18.000Z</time>
      </trkpt>
      <trkpt lat="45.07869" lon="5.26224">
        <ele>201.3</ele>
        <time>2022-09-17T15:36:19.000Z</time>
      </trkpt>
      <trkpt lat="45.07872" lon="5.26229">
        <ele>201.3</ele>
        <time>2022-09-17T15:36:20.000Z</time>
      </trkpt>
      <trkpt lat="45.07873" lon="5.26234">
        <ele>201.2</ele>
        <time>2022-09-17T15:36:21.000Z</time>
      </trkpt>
      <trkpt lat="45.07873" lon="5.26238">
        <ele>201.1</ele>
        <time>2022-09-17T15:36:22.000Z</time>
      </trkpt>
      <trkpt lat="45.0787" lon="5.26243">
        <ele>200.8</ele>
        <time>2022-09-17T15:36:23.000Z</time>
      </trkpt>
      <trkpt lat="45.07867" lon="5.26249">
        <ele>200.4</ele>
        <time>2022-09-17T15:36:24.000Z</time>
      </trkpt>
      <trkpt lat="45.07863" lon="5.26254">
        <ele>200.1</ele>
        <time>2022-09-17T15:36:25.000Z</time>
      </trkpt>
      <trkpt lat="45.0786" lon="5.26261">
        <ele>200</ele>
        <time>2022-09-17T15:36:26.000Z</time>
      </trkpt>
      <trkpt lat="45.07858" lon="5.26268">
        <ele>199.9</ele>
        <time>2022-09-17T15:36:27.000Z</time>
      </trkpt>
      <trkpt lat="45.07856" lon="5.26276">
        <ele>199.8</ele>
        <time>2022-09-17T15:36:28.000Z</time>
      </trkpt>
      <trkpt lat="45.07853" lon="5.26284">
        <ele>199.5</ele>
        <time>2022-09-17T15:36:29.000Z</time>
      </trkpt>
      <trkpt lat="45.0785" lon="5.26292">
        <ele>199.3</ele>
        <time>2022-09-17T15:36:30.000Z</time>
      </trkpt>
      <trkpt lat="45.07848" lon="5.263">
        <ele>199.1</ele>
        <time>2022-09-17T15:36:31.000Z</time>
      </trkpt>
      <trkpt lat="45.07846" lon="5.26308">
        <ele>199</ele>
        <time>2022-09-17T15:36:32.000Z</time>
      </trkpt>
      <trkpt lat="45.07844" lon="5.26315">
        <ele>199</ele>
        <time>2022-09-17T15:36:33.000Z</time>
      </trkpt>
      <trkpt lat="45.07842" lon="5.26323">
        <ele>199</ele>
        <time>2022-09-17T15:36:34.000Z</time>
      </trkpt>
      <trkpt lat="45.0784" lon="5.26331">
        <ele>199</ele>
        <time>2022-09-17T15:36:35.000Z</time>
      </trkpt>
      <trkpt lat="45.07839" lon="5.26339">
        <ele>199</ele>
        <time>2022-09-17T15:36:36.000Z</time>
      </trkpt>
      <trkpt lat="45.07838" lon="5.26345">
        <ele>199</ele>
        <time>2022-09-17T15:36:37.000Z</time>
      </trkpt>
      <trkpt lat="45.07838" lon="5.26352">
        <ele>199</ele>
        <time>2022-09-17T15:36:38.000Z</time>
      </trkpt>
      <trkpt lat="45.07839" lon="5.26359">
        <ele>199</ele>
        <time>2022-09-17T15:36:39.000Z</time>
      </trkpt>
      <trkpt lat="45.07842" lon="5.26365">
        <ele>198.8</ele>
        <time>2022-09-17T15:36:40.000Z</time>
      </trkpt>
      <trkpt lat="45.07846" lon="5.26371">
        <ele>198.6</ele>
        <time>2022-09-17T15:36:41.000Z</time>
      </trkpt>
      <trkpt lat="45.0785" lon="5.26376">
        <ele>198.5</ele>
        <time>2022-09-17T15:36:42.000Z</time>
      </trkpt>
      <trkpt lat="45.07855" lon="5.26381">
        <ele>198.3</ele>
        <time>2022-09-17T15:36:43.000Z</time>
      </trkpt>
      <trkpt lat="45.07861" lon="5.26384">
        <ele>198.2</ele>
        <time>2022-09-17T15:36:44.000Z</time>
      </trkpt>
      <trkpt lat="45.07866" lon="5.26388">
        <ele>198</ele>
        <time>2022-09-17T15:36:45.000Z</time>
      </trkpt>
      <trkpt lat="45.07871" lon="5.26392">
        <ele>197.9</ele>
        <time>2022-09-17T15:36:46.000Z</time>
      </trkpt>
      <trkpt lat="45.07877" lon="5.26396">
        <ele>197.9</ele>
        <time>2022-09-17T15:36:47.000Z</time>
      </trkpt>
      <trkpt lat="45.07883" lon="5.26401">
        <ele>197.9</ele>
        <time>2022-09-17T15:36:48.000Z</time>
      </trkpt>
      <trkpt lat="45.07889" lon="5.26404">
        <ele>198</ele>
        <time>2022-09-17T15:36:49.000Z</time>
      </trkpt>
      <trkpt lat="45.07895" lon="5.26406">
        <ele>198.1</ele>
        <time>2022-09-17T15:36:50.000Z</time>
      </trkpt>
      <trkpt lat="45.07901" lon="5.26408">
        <ele>198.1</ele>
        <time>2022-09-17T15:36:51.000Z</time>
      </trkpt>
      <trkpt lat="45.07908" lon="5.26411">
        <ele>198.1</ele>
        <time>2022-09-17T15:36:52.000Z</time>
      </trkpt>
      <trkpt lat="45.07914" lon="5.26413">
        <ele>198.1</ele>
        <time>2022-09-17T15:36:53.000Z</time>
      </trkpt>
      <trkpt lat="45.0792" lon="5.26416">
        <ele>198.2</ele>
        <time>2022-09-17T15:36:54.000Z</time>
      </trkpt>
      <trkpt lat="45.07927" lon="5.26418">
        <ele>198.3</ele>
        <time>2022-09-17T15:36:55.000Z</time>
      </trkpt>
      <trkpt lat="45.07932" lon="5.26421">
        <ele>198.3</ele>
        <time>2022-09-17T15:36:56.000Z</time>
      </trkpt>
      <trkpt lat="45.07937" lon="5.26427">
        <ele>198.1</ele>
        <time>2022-09-17T15:36:57.000Z</time>
      </trkpt>
      <trkpt lat="45.07942" lon="5.26434">
        <ele>197.7</ele>
        <time>2022-09-17T15:36:58.000Z</time>
      </trkpt>
      <trkpt lat="45.07945" lon="5.26442">
        <ele>197.2</ele>
        <time>2022-09-17T15:36:59.000Z</time>
      </trkpt>
      <trkpt lat="45.07949" lon="5.2645">
        <ele>196.8</ele>
        <time>2022-09-17T15:37:00.000Z</time>
      </trkpt>
      <trkpt lat="45.07953" lon="5.26459">
        <ele>196.4</ele>
        <time>2022-09-17T15:37:01.000Z</time>
      </trkpt>
      <trkpt lat="45.07958" lon="5.26466">
        <ele>196.3</ele>
        <time>2022-09-17T15:37:02.000Z</time>
      </trkpt>
      <trkpt lat="45.07963" lon="5.26473">
        <ele>196.2</ele>
        <time>2022-09-17T15:37:03.000Z</time>
      </trkpt>
      <trkpt lat="45.07969" lon="5.2648">
        <ele>195.8</ele>
        <time>2022-09-17T15:37:04.000Z</time>
      </trkpt>
      <trkpt lat="45.07976" lon="5.26486">
        <ele>195.4</ele>
        <time>2022-09-17T15:37:05.000Z</time>
      </trkpt>
      <trkpt lat="45.07982" lon="5.26491">
        <ele>195.3</ele>
        <time>2022-09-17T15:37:06.000Z</time>
      </trkpt>
      <trkpt lat="45.07988" lon="5.26497">
        <ele>195.4</ele>
        <time>2022-09-17T15:37:07.000Z</time>
      </trkpt>
      <trkpt lat="45.07993" lon="5.26503">
        <ele>195.7</ele>
        <time>2022-09-17T15:37:08.000Z</time>
      </trkpt>
      <trkpt lat="45.07999" lon="5.26509">
        <ele>195.9</ele>
        <time>2022-09-17T15:37:09.000Z</time>
      </trkpt>
      <trkpt lat="45.08004" lon="5.26514">
        <ele>195.7</ele>
        <time>2022-09-17T15:37:10.000Z</time>
      </trkpt>
      <trkpt lat="45.08009" lon="5.2652">
        <ele>195.7</ele>
        <time>2022-09-17T15:37:11.000Z</time>
      </trkpt>
      <trkpt lat="45.08014" lon="5.26525">
        <ele>195.7</ele>
        <time>2022-09-17T15:37:12.000Z</time>
      </trkpt>
      <trkpt lat="45.08019" lon="5.2653">
        <ele>195.8</ele>
        <time>2022-09-17T15:37:13.000Z</time>
      </trkpt>
      <trkpt lat="45.08023" lon="5.26535">
        <ele>195.7</ele>
        <time>2022-09-17T15:37:14.000Z</time>
      </trkpt>
      <trkpt lat="45.08028" lon="5.26539">
        <ele>195.8</ele>
        <time>2022-09-17T15:37:15.000Z</time>
      </trkpt>
      <trkpt lat="45.08033" lon="5.26543">
        <ele>195.7</ele>
        <time>2022-09-17T15:37:16.000Z</time>
      </trkpt>
      <trkpt lat="45.08037" lon="5.26547">
        <ele>195.6</ele>
        <time>2022-09-17T15:37:17.000Z</time>
      </trkpt>
      <trkpt lat="45.08042" lon="5.26551">
        <ele>195.8</ele>
        <time>2022-09-17T15:37:18.000Z</time>
      </trkpt>
      <trkpt lat="45.08047" lon="5.26554">
        <ele>196.1</ele>
        <time>2022-09-17T15:37:19.000Z</time>
      </trkpt>
      <trkpt lat="45.08052" lon="5.26558">
        <ele>196</ele>
        <time>2022-09-17T15:37:20.000Z</time>
      </trkpt>
      <trkpt lat="45.08058" lon="5.26562">
        <ele>195.4</ele>
        <time>2022-09-17T15:37:21.000Z</time>
      </trkpt>
      <trkpt lat="45.08063" lon="5.26567">
        <ele>195</ele>
        <time>2022-09-17T15:37:22.000Z</time>
      </trkpt>
      <trkpt lat="45.08068" lon="5.26571">
        <ele>194.8</ele>
        <time>2022-09-17T15:37:23.000Z</time>
      </trkpt>
      <trkpt lat="45.08073" lon="5.26577">
        <ele>195</ele>
        <time>2022-09-17T15:37:24.000Z</time>
      </trkpt>
      <trkpt lat="45.08078" lon="5.26582">
        <ele>195.7</ele>
        <time>2022-09-17T15:37:25.000Z</time>
      </trkpt>
      <trkpt lat="45.08083" lon="5.26587">
        <ele>196.4</ele>
        <time>2022-09-17T15:37:26.000Z</time>
      </trkpt>
      <trkpt lat="45.08087" lon="5.26593">
        <ele>196.2</ele>
        <time>2022-09-17T15:37:27.000Z</time>
      </trkpt>
      <trkpt lat="45.08092" lon="5.26597">
        <ele>196</ele>
        <time>2022-09-17T15:37:28.000Z</time>
      </trkpt>
      <trkpt lat="45.08097" lon="5.26602">
        <ele>196</ele>
        <time>2022-09-17T15:37:29.000Z</time>
      </trkpt>
      <trkpt lat="45.08102" lon="5.26606">
        <ele>196.2</ele>
        <time>2022-09-17T15:37:30.000Z</time>
      </trkpt>
      <trkpt lat="45.08108" lon="5.2661">
        <ele>196.6</ele>
        <time>2022-09-17T15:37:31.000Z</time>
      </trkpt>
      <trkpt lat="45.08112" lon="5.26615">
        <ele>196.9</ele>
        <time>2022-09-17T15:37:32.000Z</time>
      </trkpt>
      <trkpt lat="45.08117" lon="5.26619">
        <ele>196.8</ele>
        <time>2022-09-17T15:37:33.000Z</time>
      </trkpt>
      <trkpt lat="45.08122" lon="5.26623">
        <ele>196.7</ele>
        <time>2022-09-17T15:37:34.000Z</time>
      </trkpt>
      <trkpt lat="45.08126" lon="5.26627">
        <ele>196.7</ele>
        <time>2022-09-17T15:37:35.000Z</time>
      </trkpt>
      <trkpt lat="45.08131" lon="5.26631">
        <ele>196.8</ele>
        <time>2022-09-17T15:37:36.000Z</time>
      </trkpt>
      <trkpt lat="45.08135" lon="5.26635">
        <ele>196.9</ele>
        <time>2022-09-17T15:37:37.000Z</time>
      </trkpt>
      <trkpt lat="45.0814" lon="5.2664">
        <ele>197</ele>
        <time>2022-09-17T15:37:38.000Z</time>
      </trkpt>
      <trkpt lat="45.08144" lon="5.26644">
        <ele>196.9</ele>
        <time>2022-09-17T15:37:39.000Z</time>
      </trkpt>
      <trkpt lat="45.08149" lon="5.26647">
        <ele>196.8</ele>
        <time>2022-09-17T15:37:40.000Z</time>
      </trkpt>
      <trkpt lat="45.08155" lon="5.26652">
        <ele>196.8</ele>
        <time>2022-09-17T15:37:41.000Z</time>
      </trkpt>
      <trkpt lat="45.08159" lon="5.26657">
        <ele>196.8</ele>
        <time>2022-09-17T15:37:42.000Z</time>
      </trkpt>
      <trkpt lat="45.08164" lon="5.26662">
        <ele>196.9</ele>
        <time>2022-09-17T15:37:43.000Z</time>
      </trkpt>
      <trkpt lat="45.08169" lon="5.26666">
        <ele>197</ele>
        <time>2022-09-17T15:37:44.000Z</time>
      </trkpt>
      <trkpt lat="45.08175" lon="5.2667">
        <ele>196.9</ele>
        <time>2022-09-17T15:37:45.000Z</time>
      </trkpt>
      <trkpt lat="45.0818" lon="5.26674">
        <ele>196.9</ele>
        <time>2022-09-17T15:37:46.000Z</time>
      </trkpt>
      <trkpt lat="45.08185" lon="5.26678">
        <ele>196.9</ele>
        <time>2022-09-17T15:37:47.000Z</time>
      </trkpt>
      <trkpt lat="45.0819" lon="5.26682">
        <ele>196.9</ele>
        <time>2022-09-17T15:37:48.000Z</time>
      </trkpt>
      <trkpt lat="45.08195" lon="5.26686">
        <ele>197</ele>
        <time>2022-09-17T15:37:49.000Z</time>
      </trkpt>
      <trkpt lat="45.08199" lon="5.2669">
        <ele>197</ele>
        <time>2022-09-17T15:37:50.000Z</time>
      </trkpt>
      <trkpt lat="45.08204" lon="5.26695">
        <ele>197</ele>
        <time>2022-09-17T15:37:51.000Z</time>
      </trkpt>
      <trkpt lat="45.08208" lon="5.26699">
        <ele>196.8</ele>
        <time>2022-09-17T15:37:52.000Z</time>
      </trkpt>
      <trkpt lat="45.08213" lon="5.26702">
        <ele>196.6</ele>
        <time>2022-09-17T15:37:53.000Z</time>
      </trkpt>
      <trkpt lat="45.08217" lon="5.26706">
        <ele>196.5</ele>
        <time>2022-09-17T15:37:54.000Z</time>
      </trkpt>
      <trkpt lat="45.08222" lon="5.26711">
        <ele>196.4</ele>
        <time>2022-09-17T15:37:55.000Z</time>
      </trkpt>
      <trkpt lat="45.08227" lon="5.26715">
        <ele>196.4</ele>
        <time>2022-09-17T15:37:56.000Z</time>
      </trkpt>
      <trkpt lat="45.08231" lon="5.26719">
        <ele>196.4</ele>
        <time>2022-09-17T15:37:57.000Z</time>
      </trkpt>
      <trkpt lat="45.08236" lon="5.26723">
        <ele>196.4</ele>
        <time>2022-09-17T15:37:58.000Z</time>
      </trkpt>
      <trkpt lat="45.08241" lon="5.26726">
        <ele>196</ele>
        <time>2022-09-17T15:37:59.000Z</time>
      </trkpt>
      <trkpt lat="45.08245" lon="5.26728">
        <ele>195.7</ele>
        <time>2022-09-17T15:38:00.000Z</time>
      </trkpt>
      <trkpt lat="45.08251" lon="5.2673">
        <ele>195.6</ele>
        <time>2022-09-17T15:38:01.000Z</time>
      </trkpt>
      <trkpt lat="45.08256" lon="5.26732">
        <ele>195.6</ele>
        <time>2022-09-17T15:38:02.000Z</time>
      </trkpt>
      <trkpt lat="45.08262" lon="5.26734">
        <ele>195.7</ele>
        <time>2022-09-17T15:38:03.000Z</time>
      </trkpt>
      <trkpt lat="45.08268" lon="5.26736">
        <ele>195.8</ele>
        <time>2022-09-17T15:38:04.000Z</time>
      </trkpt>
      <trkpt lat="45.08274" lon="5.26738">
        <ele>196</ele>
        <time>2022-09-17T15:38:05.000Z</time>
      </trkpt>
      <trkpt lat="45.0828" lon="5.2674">
        <ele>196.2</ele>
        <time>2022-09-17T15:38:06.000Z</time>
      </trkpt>
      <trkpt lat="45.08286" lon="5.26741">
        <ele>196.4</ele>
        <time>2022-09-17T15:38:07.000Z</time>
      </trkpt>
      <trkpt lat="45.08293" lon="5.26742">
        <ele>196.6</ele>
        <time>2022-09-17T15:38:08.000Z</time>
      </trkpt>
      <trkpt lat="45.08298" lon="5.26742">
        <ele>196.9</ele>
        <time>2022-09-17T15:38:09.000Z</time>
      </trkpt>
      <trkpt lat="45.08303" lon="5.26741">
        <ele>197.2</ele>
        <time>2022-09-17T15:38:10.000Z</time>
      </trkpt>
      <trkpt lat="45.08308" lon="5.2674">
        <ele>197.4</ele>
        <time>2022-09-17T15:38:11.000Z</time>
      </trkpt>
      <trkpt lat="45.08313" lon="5.26739">
        <ele>197.4</ele>
        <time>2022-09-17T15:38:12.000Z</time>
      </trkpt>
      <trkpt lat="45.08319" lon="5.26739">
        <ele>197.4</ele>
        <time>2022-09-17T15:38:13.000Z</time>
      </trkpt>
      <trkpt lat="45.08325" lon="5.26738">
        <ele>197.4</ele>
        <time>2022-09-17T15:38:14.000Z</time>
      </trkpt>
      <trkpt lat="45.0833" lon="5.26739">
        <ele>197.4</ele>
        <time>2022-09-17T15:38:15.000Z</time>
      </trkpt>
      <trkpt lat="45.08335" lon="5.2674">
        <ele>197.4</ele>
        <time>2022-09-17T15:38:16.000Z</time>
      </trkpt>
      <trkpt lat="45.08341" lon="5.26741">
        <ele>197.6</ele>
        <time>2022-09-17T15:38:17.000Z</time>
      </trkpt>
      <trkpt lat="45.08346" lon="5.26743">
        <ele>197.7</ele>
        <time>2022-09-17T15:38:18.000Z</time>
      </trkpt>
      <trkpt lat="45.08351" lon="5.26746">
        <ele>197.8</ele>
        <time>2022-09-17T15:38:19.000Z</time>
      </trkpt>
      <trkpt lat="45.08357" lon="5.26748">
        <ele>197.9</ele>
        <time>2022-09-17T15:38:20.000Z</time>
      </trkpt>
      <trkpt lat="45.08362" lon="5.26751">
        <ele>198</ele>
        <time>2022-09-17T15:38:21.000Z</time>
      </trkpt>
      <trkpt lat="45.08368" lon="5.26753">
        <ele>198</ele>
        <time>2022-09-17T15:38:22.000Z</time>
      </trkpt>
      <trkpt lat="45.08374" lon="5.26756">
        <ele>197.9</ele>
        <time>2022-09-17T15:38:23.000Z</time>
      </trkpt>
      <trkpt lat="45.0838" lon="5.26759">
        <ele>197.9</ele>
        <time>2022-09-17T15:38:24.000Z</time>
      </trkpt>
      <trkpt lat="45.08386" lon="5.26761">
        <ele>198.1</ele>
        <time>2022-09-17T15:38:25.000Z</time>
      </trkpt>
      <trkpt lat="45.08392" lon="5.26764">
        <ele>198.1</ele>
        <time>2022-09-17T15:38:26.000Z</time>
      </trkpt>
      <trkpt lat="45.08398" lon="5.26766">
        <ele>198</ele>
        <time>2022-09-17T15:38:27.000Z</time>
      </trkpt>
      <trkpt lat="45.08404" lon="5.26769">
        <ele>198</ele>
        <time>2022-09-17T15:38:28.000Z</time>
      </trkpt>
      <trkpt lat="45.0841" lon="5.26771">
        <ele>198</ele>
        <time>2022-09-17T15:38:29.000Z</time>
      </trkpt>
      <trkpt lat="45.08415" lon="5.26774">
        <ele>198.1</ele>
        <time>2022-09-17T15:38:30.000Z</time>
      </trkpt>
      <trkpt lat="45.08421" lon="5.26777">
        <ele>198.1</ele>
        <time>2022-09-17T15:38:31.000Z</time>
      </trkpt>
      <trkpt lat="45.08426" lon="5.26779">
        <ele>197.8</ele>
        <time>2022-09-17T15:38:32.000Z</time>
      </trkpt>
      <trkpt lat="45.08431" lon="5.26781">
        <ele>197.6</ele>
        <time>2022-09-17T15:38:33.000Z</time>
      </trkpt>
      <trkpt lat="45.08436" lon="5.26784">
        <ele>197.4</ele>
        <time>2022-09-17T15:38:34.000Z</time>
      </trkpt>
      <trkpt lat="45.08441" lon="5.26787">
        <ele>197.5</ele>
        <time>2022-09-17T15:38:35.000Z</time>
      </trkpt>
      <trkpt lat="45.08446" lon="5.2679">
        <ele>197.6</ele>
        <time>2022-09-17T15:38:36.000Z</time>
      </trkpt>
      <trkpt lat="45.08451" lon="5.26793">
        <ele>197.7</ele>
        <time>2022-09-17T15:38:37.000Z</time>
      </trkpt>
      <trkpt lat="45.08456" lon="5.26795">
        <ele>197.8</ele>
        <time>2022-09-17T15:38:38.000Z</time>
      </trkpt>
      <trkpt lat="45.08461" lon="5.26798">
        <ele>197.9</ele>
        <time>2022-09-17T15:38:39.000Z</time>
      </trkpt>
      <trkpt lat="45.08466" lon="5.268">
        <ele>198</ele>
        <time>2022-09-17T15:38:40.000Z</time>
      </trkpt>
      <trkpt lat="45.08472" lon="5.26803">
        <ele>198.1</ele>
        <time>2022-09-17T15:38:41.000Z</time>
      </trkpt>
      <trkpt lat="45.08477" lon="5.26807">
        <ele>197.8</ele>
        <time>2022-09-17T15:38:42.000Z</time>
      </trkpt>
      <trkpt lat="45.08482" lon="5.2681">
        <ele>197.2</ele>
        <time>2022-09-17T15:38:43.000Z</time>
      </trkpt>
      <trkpt lat="45.08488" lon="5.26813">
        <ele>196.8</ele>
        <time>2022-09-17T15:38:44.000Z</time>
      </trkpt>
      <trkpt lat="45.08493" lon="5.26816">
        <ele>196.6</ele>
        <time>2022-09-17T15:38:45.000Z</time>
      </trkpt>
      <trkpt lat="45.08498" lon="5.26819">
        <ele>196.5</ele>
        <time>2022-09-17T15:38:46.000Z</time>
      </trkpt>
      <trkpt lat="45.08503" lon="5.26822">
        <ele>196.4</ele>
        <time>2022-09-17T15:38:47.000Z</time>
      </trkpt>
      <trkpt lat="45.08507" lon="5.26825">
        <ele>196.3</ele>
        <time>2022-09-17T15:38:48.000Z</time>
      </trkpt>
      <trkpt lat="45.08512" lon="5.26828">
        <ele>196.3</ele>
        <time>2022-09-17T15:38:49.000Z</time>
      </trkpt>
      <trkpt lat="45.08516" lon="5.2683">
        <ele>196.4</ele>
        <time>2022-09-17T15:38:50.000Z</time>
      </trkpt>
      <trkpt lat="45.08521" lon="5.26833">
        <ele>196.5</ele>
        <time>2022-09-17T15:38:51.000Z</time>
      </trkpt>
      <trkpt lat="45.08525" lon="5.26835">
        <ele>196.4</ele>
        <time>2022-09-17T15:38:52.000Z</time>
      </trkpt>
      <trkpt lat="45.08529" lon="5.26838">
        <ele>196.1</ele>
        <time>2022-09-17T15:38:53.000Z</time>
      </trkpt>
      <trkpt lat="45.08533" lon="5.2684">
        <ele>195.8</ele>
        <time>2022-09-17T15:38:54.000Z</time>
      </trkpt>
      <trkpt lat="45.08538" lon="5.26843">
        <ele>195.7</ele>
        <time>2022-09-17T15:38:55.000Z</time>
      </trkpt>
      <trkpt lat="45.08543" lon="5.26846">
        <ele>195.7</ele>
        <time>2022-09-17T15:38:56.000Z</time>
      </trkpt>
      <trkpt lat="45.08547" lon="5.2685">
        <ele>195.9</ele>
        <time>2022-09-17T15:38:57.000Z</time>
      </trkpt>
      <trkpt lat="45.08552" lon="5.26853">
        <ele>196.4</ele>
        <time>2022-09-17T15:38:58.000Z</time>
      </trkpt>
      <trkpt lat="45.08556" lon="5.26856">
        <ele>197</ele>
        <time>2022-09-17T15:38:59.000Z</time>
      </trkpt>
      <trkpt lat="45.08561" lon="5.26859">
        <ele>197</ele>
        <time>2022-09-17T15:39:00.000Z</time>
      </trkpt>
      <trkpt lat="45.08566" lon="5.26862">
        <ele>196.8</ele>
        <time>2022-09-17T15:39:01.000Z</time>
      </trkpt>
      <trkpt lat="45.0857" lon="5.26866">
        <ele>196.4</ele>
        <time>2022-09-17T15:39:02.000Z</time>
      </trkpt>
      <trkpt lat="45.08575" lon="5.26869">
        <ele>196.1</ele>
        <time>2022-09-17T15:39:03.000Z</time>
      </trkpt>
      <trkpt lat="45.0858" lon="5.26871">
        <ele>196.1</ele>
        <time>2022-09-17T15:39:04.000Z</time>
      </trkpt>
      <trkpt lat="45.08586" lon="5.26874">
        <ele>196.1</ele>
        <time>2022-09-17T15:39:05.000Z</time>
      </trkpt>
      <trkpt lat="45.08592" lon="5.26878">
        <ele>196</ele>
        <time>2022-09-17T15:39:06.000Z</time>
      </trkpt>
      <trkpt lat="45.08598" lon="5.26881">
        <ele>195.9</ele>
        <time>2022-09-17T15:39:07.000Z</time>
      </trkpt>
      <trkpt lat="45.08603" lon="5.26885">
        <ele>195.9</ele>
        <time>2022-09-17T15:39:08.000Z</time>
      </trkpt>
      <trkpt lat="45.08609" lon="5.26888">
        <ele>196</ele>
        <time>2022-09-17T15:39:09.000Z</time>
      </trkpt>
      <trkpt lat="45.08615" lon="5.26891">
        <ele>196.1</ele>
        <time>2022-09-17T15:39:10.000Z</time>
      </trkpt>
      <trkpt lat="45.08621" lon="5.26895">
        <ele>196.3</ele>
        <time>2022-09-17T15:39:11.000Z</time>
      </trkpt>
      <trkpt lat="45.08626" lon="5.26899">
        <ele>196.5</ele>
        <time>2022-09-17T15:39:12.000Z</time>
      </trkpt>
      <trkpt lat="45.08632" lon="5.26903">
        <ele>196.7</ele>
        <time>2022-09-17T15:39:13.000Z</time>
      </trkpt>
      <trkpt lat="45.08637" lon="5.26907">
        <ele>196.9</ele>
        <time>2022-09-17T15:39:14.000Z</time>
      </trkpt>
      <trkpt lat="45.08642" lon="5.26909">
        <ele>196.9</ele>
        <time>2022-09-17T15:39:15.000Z</time>
      </trkpt>
      <trkpt lat="45.08648" lon="5.26911">
        <ele>196.7</ele>
        <time>2022-09-17T15:39:16.000Z</time>
      </trkpt>
      <trkpt lat="45.08655" lon="5.26912">
        <ele>196.5</ele>
        <time>2022-09-17T15:39:17.000Z</time>
      </trkpt>
      <trkpt lat="45.0866" lon="5.26913">
        <ele>196.3</ele>
        <time>2022-09-17T15:39:18.000Z</time>
      </trkpt>
      <trkpt lat="45.08667" lon="5.26912">
        <ele>196.2</ele>
        <time>2022-09-17T15:39:19.000Z</time>
      </trkpt>
      <trkpt lat="45.08672" lon="5.26913">
        <ele>196.3</ele>
        <time>2022-09-17T15:39:20.000Z</time>
      </trkpt>
      <trkpt lat="45.08677" lon="5.26914">
        <ele>196.4</ele>
        <time>2022-09-17T15:39:21.000Z</time>
      </trkpt>
      <trkpt lat="45.08682" lon="5.26915">
        <ele>196.6</ele>
        <time>2022-09-17T15:39:22.000Z</time>
      </trkpt>
      <trkpt lat="45.08688" lon="5.26917">
        <ele>196.7</ele>
        <time>2022-09-17T15:39:23.000Z</time>
      </trkpt>
      <trkpt lat="45.08695" lon="5.26918">
        <ele>196.9</ele>
        <time>2022-09-17T15:39:24.000Z</time>
      </trkpt>
      <trkpt lat="45.08702" lon="5.26919">
        <ele>196.9</ele>
        <time>2022-09-17T15:39:25.000Z</time>
      </trkpt>
      <trkpt lat="45.08708" lon="5.26921">
        <ele>196.9</ele>
        <time>2022-09-17T15:39:26.000Z</time>
      </trkpt>
      <trkpt lat="45.08715" lon="5.26923">
        <ele>196.8</ele>
        <time>2022-09-17T15:39:27.000Z</time>
      </trkpt>
      <trkpt lat="45.08722" lon="5.26925">
        <ele>196.7</ele>
        <time>2022-09-17T15:39:28.000Z</time>
      </trkpt>
      <trkpt lat="45.0873" lon="5.26926">
        <ele>196.7</ele>
        <time>2022-09-17T15:39:29.000Z</time>
      </trkpt>
      <trkpt lat="45.08738" lon="5.26927">
        <ele>196.6</ele>
        <time>2022-09-17T15:39:30.000Z</time>
      </trkpt>
      <trkpt lat="45.08746" lon="5.26928">
        <ele>196.6</ele>
        <time>2022-09-17T15:39:31.000Z</time>
      </trkpt>
      <trkpt lat="45.08753" lon="5.26928">
        <ele>196.7</ele>
        <time>2022-09-17T15:39:32.000Z</time>
      </trkpt>
      <trkpt lat="45.08761" lon="5.26928">
        <ele>196.9</ele>
        <time>2022-09-17T15:39:33.000Z</time>
      </trkpt>
      <trkpt lat="45.08767" lon="5.26929">
        <ele>197.1</ele>
        <time>2022-09-17T15:39:34.000Z</time>
      </trkpt>
      <trkpt lat="45.08774" lon="5.2693">
        <ele>197.3</ele>
        <time>2022-09-17T15:39:35.000Z</time>
      </trkpt>
      <trkpt lat="45.0878" lon="5.26933">
        <ele>197.6</ele>
        <time>2022-09-17T15:39:36.000Z</time>
      </trkpt>
      <trkpt lat="45.08786" lon="5.26936">
        <ele>197.8</ele>
        <time>2022-09-17T15:39:37.000Z</time>
      </trkpt>
      <trkpt lat="45.08792" lon="5.26938">
        <ele>197.9</ele>
        <time>2022-09-17T15:39:38.000Z</time>
      </trkpt>
      <trkpt lat="45.08798" lon="5.2694">
        <ele>198</ele>
        <time>2022-09-17T15:39:39.000Z</time>
      </trkpt>
      <trkpt lat="45.08803" lon="5.26942">
        <ele>198</ele>
        <time>2022-09-17T15:39:40.000Z</time>
      </trkpt>
      <trkpt lat="45.08809" lon="5.26944">
        <ele>198</ele>
        <time>2022-09-17T15:39:41.000Z</time>
      </trkpt>
      <trkpt lat="45.08815" lon="5.26946">
        <ele>198</ele>
        <time>2022-09-17T15:39:42.000Z</time>
      </trkpt>
      <trkpt lat="45.08821" lon="5.26948">
        <ele>197.8</ele>
        <time>2022-09-17T15:39:43.000Z</time>
      </trkpt>
      <trkpt lat="45.08827" lon="5.26949">
        <ele>197.6</ele>
        <time>2022-09-17T15:39:44.000Z</time>
      </trkpt>
      <trkpt lat="45.08833" lon="5.26949">
        <ele>197.5</ele>
        <time>2022-09-17T15:39:45.000Z</time>
      </trkpt>
      <trkpt lat="45.0884" lon="5.26948">
        <ele>197.2</ele>
        <time>2022-09-17T15:39:46.000Z</time>
      </trkpt>
      <trkpt lat="45.08847" lon="5.26947">
        <ele>197</ele>
        <time>2022-09-17T15:39:47.000Z</time>
      </trkpt>
      <trkpt lat="45.08854" lon="5.26945">
        <ele>197.1</ele>
        <time>2022-09-17T15:39:48.000Z</time>
      </trkpt>
      <trkpt lat="45.08861" lon="5.26944">
        <ele>197</ele>
        <time>2022-09-17T15:39:49.000Z</time>
      </trkpt>
      <trkpt lat="45.08868" lon="5.26942">
        <ele>197.1</ele>
        <time>2022-09-17T15:39:50.000Z</time>
      </trkpt>
      <trkpt lat="45.08875" lon="5.26941">
        <ele>197.1</ele>
        <time>2022-09-17T15:39:51.000Z</time>
      </trkpt>
      <trkpt lat="45.08882" lon="5.26941">
        <ele>197.1</ele>
        <time>2022-09-17T15:39:52.000Z</time>
      </trkpt>
      <trkpt lat="45.08889" lon="5.2694">
        <ele>197.1</ele>
        <time>2022-09-17T15:39:53.000Z</time>
      </trkpt>
      <trkpt lat="45.08896" lon="5.2694">
        <ele>197.2</ele>
        <time>2022-09-17T15:39:54.000Z</time>
      </trkpt>
      <trkpt lat="45.08902" lon="5.26939">
        <ele>197.2</ele>
        <time>2022-09-17T15:39:55.000Z</time>
      </trkpt>
      <trkpt lat="45.08908" lon="5.26939">
        <ele>197.2</ele>
        <time>2022-09-17T15:39:56.000Z</time>
      </trkpt>
      <trkpt lat="45.08914" lon="5.26938">
        <ele>197.2</ele>
        <time>2022-09-17T15:39:57.000Z</time>
      </trkpt>
      <trkpt lat="45.0892" lon="5.26938">
        <ele>197.2</ele>
        <time>2022-09-17T15:39:58.000Z</time>
      </trkpt>
      <trkpt lat="45.08926" lon="5.26938">
        <ele>197.1</ele>
        <time>2022-09-17T15:39:59.000Z</time>
      </trkpt>
      <trkpt lat="45.08932" lon="5.26938">
        <ele>196.9</ele>
        <time>2022-09-17T15:40:00.000Z</time>
      </trkpt>
      <trkpt lat="45.08938" lon="5.2694">
        <ele>196.7</ele>
        <time>2022-09-17T15:40:01.000Z</time>
      </trkpt>
      <trkpt lat="45.08944" lon="5.2694">
        <ele>196.5</ele>
        <time>2022-09-17T15:40:02.000Z</time>
      </trkpt>
      <trkpt lat="45.0895" lon="5.26941">
        <ele>196.2</ele>
        <time>2022-09-17T15:40:03.000Z</time>
      </trkpt>
      <trkpt lat="45.08956" lon="5.26942">
        <ele>195.9</ele>
        <time>2022-09-17T15:40:04.000Z</time>
      </trkpt>
      <trkpt lat="45.08962" lon="5.26942">
        <ele>195.7</ele>
        <time>2022-09-17T15:40:05.000Z</time>
      </trkpt>
      <trkpt lat="45.08967" lon="5.26942">
        <ele>195.5</ele>
        <time>2022-09-17T15:40:06.000Z</time>
      </trkpt>
      <trkpt lat="45.08972" lon="5.26941">
        <ele>195.5</ele>
        <time>2022-09-17T15:40:07.000Z</time>
      </trkpt>
      <trkpt lat="45.08977" lon="5.26939">
        <ele>196</ele>
        <time>2022-09-17T15:40:08.000Z</time>
      </trkpt>
      <trkpt lat="45.08982" lon="5.26938">
        <ele>196.5</ele>
        <time>2022-09-17T15:40:09.000Z</time>
      </trkpt>
      <trkpt lat="45.08987" lon="5.26937">
        <ele>196.9</ele>
        <time>2022-09-17T15:40:10.000Z</time>
      </trkpt>
      <trkpt lat="45.08992" lon="5.26936">
        <ele>197.2</ele>
        <time>2022-09-17T15:40:11.000Z</time>
      </trkpt>
      <trkpt lat="45.08997" lon="5.26935">
        <ele>197.5</ele>
        <time>2022-09-17T15:40:12.000Z</time>
      </trkpt>
      <trkpt lat="45.09002" lon="5.26934">
        <ele>197.5</ele>
        <time>2022-09-17T15:40:13.000Z</time>
      </trkpt>
      <trkpt lat="45.09006" lon="5.26932">
        <ele>197.1</ele>
        <time>2022-09-17T15:40:14.000Z</time>
      </trkpt>
      <trkpt lat="45.09011" lon="5.26931">
        <ele>196.8</ele>
        <time>2022-09-17T15:40:15.000Z</time>
      </trkpt>
      <trkpt lat="45.09015" lon="5.26929">
        <ele>196.7</ele>
        <time>2022-09-17T15:40:16.000Z</time>
      </trkpt>
      <trkpt lat="45.09019" lon="5.26928">
        <ele>196.6</ele>
        <time>2022-09-17T15:40:17.000Z</time>
      </trkpt>
      <trkpt lat="45.09025" lon="5.26926">
        <ele>196.5</ele>
        <time>2022-09-17T15:40:18.000Z</time>
      </trkpt>
      <trkpt lat="45.0903" lon="5.26925">
        <ele>196.5</ele>
        <time>2022-09-17T15:40:19.000Z</time>
      </trkpt>
      <trkpt lat="45.09036" lon="5.26924">
        <ele>196.9</ele>
        <time>2022-09-17T15:40:20.000Z</time>
      </trkpt>
      <trkpt lat="45.09041" lon="5.26923">
        <ele>197.2</ele>
        <time>2022-09-17T15:40:21.000Z</time>
      </trkpt>
      <trkpt lat="45.09046" lon="5.26923">
        <ele>197.3</ele>
        <time>2022-09-17T15:40:22.000Z</time>
      </trkpt>
      <trkpt lat="45.09051" lon="5.26923">
        <ele>197.3</ele>
        <time>2022-09-17T15:40:23.000Z</time>
      </trkpt>
      <trkpt lat="45.09057" lon="5.26923">
        <ele>197.3</ele>
        <time>2022-09-17T15:40:24.000Z</time>
      </trkpt>
      <trkpt lat="45.09062" lon="5.26923">
        <ele>197.6</ele>
        <time>2022-09-17T15:40:25.000Z</time>
      </trkpt>
      <trkpt lat="45.09067" lon="5.26923">
        <ele>197.9</ele>
        <time>2022-09-17T15:40:26.000Z</time>
      </trkpt>
      <trkpt lat="45.09073" lon="5.26923">
        <ele>198.2</ele>
        <time>2022-09-17T15:40:27.000Z</time>
      </trkpt>
      <trkpt lat="45.09078" lon="5.26923">
        <ele>198.5</ele>
        <time>2022-09-17T15:40:28.000Z</time>
      </trkpt>
      <trkpt lat="45.09084" lon="5.26922">
        <ele>198.8</ele>
        <time>2022-09-17T15:40:29.000Z</time>
      </trkpt>
      <trkpt lat="45.0909" lon="5.26922">
        <ele>198.7</ele>
        <time>2022-09-17T15:40:30.000Z</time>
      </trkpt>
      <trkpt lat="45.09096" lon="5.26921">
        <ele>198.6</ele>
        <time>2022-09-17T15:40:31.000Z</time>
      </trkpt>
      <trkpt lat="45.09102" lon="5.26921">
        <ele>198.6</ele>
        <time>2022-09-17T15:40:32.000Z</time>
      </trkpt>
      <trkpt lat="45.09108" lon="5.2692">
        <ele>198.5</ele>
        <time>2022-09-17T15:40:33.000Z</time>
      </trkpt>
      <trkpt lat="45.09115" lon="5.2692">
        <ele>198.5</ele>
        <time>2022-09-17T15:40:34.000Z</time>
      </trkpt>
      <trkpt lat="45.09121" lon="5.2692">
        <ele>198.4</ele>
        <time>2022-09-17T15:40:35.000Z</time>
      </trkpt>
      <trkpt lat="45.09128" lon="5.26919">
        <ele>198.5</ele>
        <time>2022-09-17T15:40:36.000Z</time>
      </trkpt>
      <trkpt lat="45.09134" lon="5.26918">
        <ele>198.6</ele>
        <time>2022-09-17T15:40:37.000Z</time>
      </trkpt>
      <trkpt lat="45.09141" lon="5.26918">
        <ele>198.7</ele>
        <time>2022-09-17T15:40:38.000Z</time>
      </trkpt>
      <trkpt lat="45.09147" lon="5.26917">
        <ele>199</ele>
        <time>2022-09-17T15:40:39.000Z</time>
      </trkpt>
      <trkpt lat="45.09153" lon="5.26916">
        <ele>199</ele>
        <time>2022-09-17T15:40:40.000Z</time>
      </trkpt>
      <trkpt lat="45.09159" lon="5.26916">
        <ele>199</ele>
        <time>2022-09-17T15:40:41.000Z</time>
      </trkpt>
      <trkpt lat="45.09165" lon="5.26915">
        <ele>199</ele>
        <time>2022-09-17T15:40:42.000Z</time>
      </trkpt>
      <trkpt lat="45.09172" lon="5.26915">
        <ele>199</ele>
        <time>2022-09-17T15:40:43.000Z</time>
      </trkpt>
      <trkpt lat="45.09179" lon="5.26914">
        <ele>199</ele>
        <time>2022-09-17T15:40:44.000Z</time>
      </trkpt>
      <trkpt lat="45.09185" lon="5.26914">
        <ele>199</ele>
        <time>2022-09-17T15:40:45.000Z</time>
      </trkpt>
      <trkpt lat="45.09192" lon="5.26914">
        <ele>199</ele>
        <time>2022-09-17T15:40:46.000Z</time>
      </trkpt>
      <trkpt lat="45.09198" lon="5.26914">
        <ele>199</ele>
        <time>2022-09-17T15:40:47.000Z</time>
      </trkpt>
      <trkpt lat="45.09204" lon="5.26913">
        <ele>199</ele>
        <time>2022-09-17T15:40:48.000Z</time>
      </trkpt>
      <trkpt lat="45.09211" lon="5.26912">
        <ele>199</ele>
        <time>2022-09-17T15:40:49.000Z</time>
      </trkpt>
      <trkpt lat="45.09219" lon="5.26911">
        <ele>199</ele>
        <time>2022-09-17T15:40:50.000Z</time>
      </trkpt>
      <trkpt lat="45.09227" lon="5.26911">
        <ele>198.9</ele>
        <time>2022-09-17T15:40:51.000Z</time>
      </trkpt>
      <trkpt lat="45.09235" lon="5.2691">
        <ele>198.6</ele>
        <time>2022-09-17T15:40:52.000Z</time>
      </trkpt>
      <trkpt lat="45.09243" lon="5.26909">
        <ele>198.4</ele>
        <time>2022-09-17T15:40:53.000Z</time>
      </trkpt>
      <trkpt lat="45.0925" lon="5.26908">
        <ele>198.3</ele>
        <time>2022-09-17T15:40:54.000Z</time>
      </trkpt>
      <trkpt lat="45.09258" lon="5.26906">
        <ele>198.4</ele>
        <time>2022-09-17T15:40:55.000Z</time>
      </trkpt>
      <trkpt lat="45.09265" lon="5.26905">
        <ele>198.4</ele>
        <time>2022-09-17T15:40:56.000Z</time>
      </trkpt>
      <trkpt lat="45.09271" lon="5.26904">
        <ele>198.5</ele>
        <time>2022-09-17T15:40:57.000Z</time>
      </trkpt>
      <trkpt lat="45.09276" lon="5.26904">
        <ele>198.5</ele>
        <time>2022-09-17T15:40:58.000Z</time>
      </trkpt>
      <trkpt lat="45.09281" lon="5.26903">
        <ele>198.2</ele>
        <time>2022-09-17T15:40:59.000Z</time>
      </trkpt>
      <trkpt lat="45.09286" lon="5.26902">
        <ele>197.8</ele>
        <time>2022-09-17T15:41:00.000Z</time>
      </trkpt>
      <trkpt lat="45.09291" lon="5.26901">
        <ele>197.4</ele>
        <time>2022-09-17T15:41:01.000Z</time>
      </trkpt>
      <trkpt lat="45.09297" lon="5.269">
        <ele>197.1</ele>
        <time>2022-09-17T15:41:02.000Z</time>
      </trkpt>
      <trkpt lat="45.09303" lon="5.26898">
        <ele>196.9</ele>
        <time>2022-09-17T15:41:03.000Z</time>
      </trkpt>
      <trkpt lat="45.09308" lon="5.26896">
        <ele>196.9</ele>
        <time>2022-09-17T15:41:04.000Z</time>
      </trkpt>
      <trkpt lat="45.09314" lon="5.26893">
        <ele>197.1</ele>
        <time>2022-09-17T15:41:05.000Z</time>
      </trkpt>
      <trkpt lat="45.0932" lon="5.2689">
        <ele>197.3</ele>
        <time>2022-09-17T15:41:06.000Z</time>
      </trkpt>
      <trkpt lat="45.09325" lon="5.26887">
        <ele>197.4</ele>
        <time>2022-09-17T15:41:07.000Z</time>
      </trkpt>
      <trkpt lat="45.09331" lon="5.26883">
        <ele>197.5</ele>
        <time>2022-09-17T15:41:08.000Z</time>
      </trkpt>
      <trkpt lat="45.09338" lon="5.2688">
        <ele>197.4</ele>
        <time>2022-09-17T15:41:09.000Z</time>
      </trkpt>
      <trkpt lat="45.09344" lon="5.26877">
        <ele>197.3</ele>
        <time>2022-09-17T15:41:10.000Z</time>
      </trkpt>
      <trkpt lat="45.09351" lon="5.26873">
        <ele>197.2</ele>
        <time>2022-09-17T15:41:11.000Z</time>
      </trkpt>
      <trkpt lat="45.09358" lon="5.26871">
        <ele>197.1</ele>
        <time>2022-09-17T15:41:12.000Z</time>
      </trkpt>
      <trkpt lat="45.09365" lon="5.26868">
        <ele>197.2</ele>
        <time>2022-09-17T15:41:13.000Z</time>
      </trkpt>
      <trkpt lat="45.09372" lon="5.26865">
        <ele>197.4</ele>
        <time>2022-09-17T15:41:14.000Z</time>
      </trkpt>
      <trkpt lat="45.09378" lon="5.26863">
        <ele>197.7</ele>
        <time>2022-09-17T15:41:15.000Z</time>
      </trkpt>
      <trkpt lat="45.09385" lon="5.26862">
        <ele>197.9</ele>
        <time>2022-09-17T15:41:16.000Z</time>
      </trkpt>
      <trkpt lat="45.09391" lon="5.2686">
        <ele>198</ele>
        <time>2022-09-17T15:41:17.000Z</time>
      </trkpt>
      <trkpt lat="45.09398" lon="5.26859">
        <ele>197.8</ele>
        <time>2022-09-17T15:41:18.000Z</time>
      </trkpt>
      <trkpt lat="45.09404" lon="5.26859">
        <ele>197.6</ele>
        <time>2022-09-17T15:41:19.000Z</time>
      </trkpt>
      <trkpt lat="45.0941" lon="5.26858">
        <ele>197.4</ele>
        <time>2022-09-17T15:41:20.000Z</time>
      </trkpt>
      <trkpt lat="45.09415" lon="5.26857">
        <ele>197.4</ele>
        <time>2022-09-17T15:41:21.000Z</time>
      </trkpt>
      <trkpt lat="45.09421" lon="5.26856">
        <ele>197.4</ele>
        <time>2022-09-17T15:41:22.000Z</time>
      </trkpt>
      <trkpt lat="45.09428" lon="5.26856">
        <ele>197.4</ele>
        <time>2022-09-17T15:41:23.000Z</time>
      </trkpt>
      <trkpt lat="45.09434" lon="5.26855">
        <ele>197.4</ele>
        <time>2022-09-17T15:41:24.000Z</time>
      </trkpt>
      <trkpt lat="45.09441" lon="5.26856">
        <ele>197.4</ele>
        <time>2022-09-17T15:41:25.000Z</time>
      </trkpt>
      <trkpt lat="45.09448" lon="5.26856">
        <ele>197.3</ele>
        <time>2022-09-17T15:41:26.000Z</time>
      </trkpt>
      <trkpt lat="45.09454" lon="5.26857">
        <ele>197.1</ele>
        <time>2022-09-17T15:41:27.000Z</time>
      </trkpt>
      <trkpt lat="45.0946" lon="5.26857">
        <ele>196.9</ele>
        <time>2022-09-17T15:41:28.000Z</time>
      </trkpt>
      <trkpt lat="45.09466" lon="5.26857">
        <ele>196.7</ele>
        <time>2022-09-17T15:41:29.000Z</time>
      </trkpt>
      <trkpt lat="45.09471" lon="5.26858">
        <ele>196.5</ele>
        <time>2022-09-17T15:41:30.000Z</time>
      </trkpt>
      <trkpt lat="45.09476" lon="5.26859">
        <ele>196.3</ele>
        <time>2022-09-17T15:41:31.000Z</time>
      </trkpt>
      <trkpt lat="45.09481" lon="5.26861">
        <ele>196</ele>
        <time>2022-09-17T15:41:32.000Z</time>
      </trkpt>
      <trkpt lat="45.09486" lon="5.26862">
        <ele>195.9</ele>
        <time>2022-09-17T15:41:33.000Z</time>
      </trkpt>
      <trkpt lat="45.09492" lon="5.26863">
        <ele>195.6</ele>
        <time>2022-09-17T15:41:34.000Z</time>
      </trkpt>
      <trkpt lat="45.09499" lon="5.26865">
        <ele>195.4</ele>
        <time>2022-09-17T15:41:35.000Z</time>
      </trkpt>
      <trkpt lat="45.09506" lon="5.26867">
        <ele>194.7</ele>
        <time>2022-09-17T15:41:36.000Z</time>
      </trkpt>
      <trkpt lat="45.09513" lon="5.26868">
        <ele>193.9</ele>
        <time>2022-09-17T15:41:37.000Z</time>
      </trkpt>
      <trkpt lat="45.09521" lon="5.26871">
        <ele>193</ele>
        <time>2022-09-17T15:41:38.000Z</time>
      </trkpt>
      <trkpt lat="45.0953" lon="5.26873">
        <ele>192.3</ele>
        <time>2022-09-17T15:41:39.000Z</time>
      </trkpt>
      <trkpt lat="45.09538" lon="5.26876">
        <ele>191.9</ele>
        <time>2022-09-17T15:41:40.000Z</time>
      </trkpt>
      <trkpt lat="45.09545" lon="5.26879">
        <ele>191.5</ele>
        <time>2022-09-17T15:41:41.000Z</time>
      </trkpt>
      <trkpt lat="45.09554" lon="5.26882">
        <ele>191</ele>
        <time>2022-09-17T15:41:42.000Z</time>
      </trkpt>
      <trkpt lat="45.09563" lon="5.26885">
        <ele>190.7</ele>
        <time>2022-09-17T15:41:43.000Z</time>
      </trkpt>
      <trkpt lat="45.09572" lon="5.26887">
        <ele>190.8</ele>
        <time>2022-09-17T15:41:44.000Z</time>
      </trkpt>
      <trkpt lat="45.09576" lon="5.26888">
        <ele>190.8</ele>
        <time>2022-09-17T15:41:45.000Z</time>
      </trkpt>
      <trkpt lat="45.09584" lon="5.2689">
        <ele>190.9</ele>
        <time>2022-09-17T15:41:46.000Z</time>
      </trkpt>
      <trkpt lat="45.09592" lon="5.26892">
        <ele>190.8</ele>
        <time>2022-09-17T15:41:47.000Z</time>
      </trkpt>
      <trkpt lat="45.096" lon="5.26894">
        <ele>190.7</ele>
        <time>2022-09-17T15:41:48.000Z</time>
      </trkpt>
      <trkpt lat="45.09607" lon="5.26897">
        <ele>190.7</ele>
        <time>2022-09-17T15:41:49.000Z</time>
      </trkpt>
      <trkpt lat="45.09613" lon="5.26899">
        <ele>190.7</ele>
        <time>2022-09-17T15:41:50.000Z</time>
      </trkpt>
      <trkpt lat="45.0962" lon="5.26903">
        <ele>190.7</ele>
        <time>2022-09-17T15:41:51.000Z</time>
      </trkpt>
      <trkpt lat="45.09627" lon="5.26905">
        <ele>190.7</ele>
        <time>2022-09-17T15:41:52.000Z</time>
      </trkpt>
      <trkpt lat="45.09632" lon="5.26907">
        <ele>190.8</ele>
        <time>2022-09-17T15:41:53.000Z</time>
      </trkpt>
      <trkpt lat="45.09636" lon="5.26908">
        <ele>190.9</ele>
        <time>2022-09-17T15:41:54.000Z</time>
      </trkpt>
      <trkpt lat="45.0964" lon="5.2691">
        <ele>191</ele>
        <time>2022-09-17T15:41:55.000Z</time>
      </trkpt>
      <trkpt lat="45.09646" lon="5.2691">
        <ele>191</ele>
        <time>2022-09-17T15:41:56.000Z</time>
      </trkpt>
      <trkpt lat="45.0965" lon="5.26911">
        <ele>191</ele>
        <time>2022-09-17T15:41:57.000Z</time>
      </trkpt>
      <trkpt lat="45.09655" lon="5.26912">
        <ele>191</ele>
        <time>2022-09-17T15:41:58.000Z</time>
      </trkpt>
      <trkpt lat="45.09659" lon="5.26913">
        <ele>191</ele>
        <time>2022-09-17T15:41:59.000Z</time>
      </trkpt>
      <trkpt lat="45.09665" lon="5.26914">
        <ele>191</ele>
        <time>2022-09-17T15:42:00.000Z</time>
      </trkpt>
      <trkpt lat="45.0967" lon="5.26916">
        <ele>191</ele>
        <time>2022-09-17T15:42:01.000Z</time>
      </trkpt>
      <trkpt lat="45.09674" lon="5.26917">
        <ele>191</ele>
        <time>2022-09-17T15:42:02.000Z</time>
      </trkpt>
      <trkpt lat="45.0968" lon="5.26919">
        <ele>191</ele>
        <time>2022-09-17T15:42:03.000Z</time>
      </trkpt>
      <trkpt lat="45.09685" lon="5.26921">
        <ele>191</ele>
        <time>2022-09-17T15:42:04.000Z</time>
      </trkpt>
      <trkpt lat="45.0969" lon="5.26922">
        <ele>191</ele>
        <time>2022-09-17T15:42:05.000Z</time>
      </trkpt>
      <trkpt lat="45.09694" lon="5.26924">
        <ele>191</ele>
        <time>2022-09-17T15:42:06.000Z</time>
      </trkpt>
      <trkpt lat="45.09698" lon="5.26926">
        <ele>191</ele>
        <time>2022-09-17T15:42:07.000Z</time>
      </trkpt>
      <trkpt lat="45.09702" lon="5.26927">
        <ele>191</ele>
        <time>2022-09-17T15:42:08.000Z</time>
      </trkpt>
      <trkpt lat="45.09706" lon="5.26929">
        <ele>191</ele>
        <time>2022-09-17T15:42:09.000Z</time>
      </trkpt>
      <trkpt lat="45.09711" lon="5.26931">
        <ele>191</ele>
        <time>2022-09-17T15:42:10.000Z</time>
      </trkpt>
      <trkpt lat="45.09715" lon="5.26932">
        <ele>191</ele>
        <time>2022-09-17T15:42:11.000Z</time>
      </trkpt>
      <trkpt lat="45.0972" lon="5.26934">
        <ele>191</ele>
        <time>2022-09-17T15:42:12.000Z</time>
      </trkpt>
      <trkpt lat="45.09725" lon="5.26936">
        <ele>191</ele>
        <time>2022-09-17T15:42:13.000Z</time>
      </trkpt>
      <trkpt lat="45.0973" lon="5.26938">
        <ele>191</ele>
        <time>2022-09-17T15:42:14.000Z</time>
      </trkpt>
      <trkpt lat="45.09734" lon="5.2694">
        <ele>191</ele>
        <time>2022-09-17T15:42:15.000Z</time>
      </trkpt>
      <trkpt lat="45.09739" lon="5.26942">
        <ele>191</ele>
        <time>2022-09-17T15:42:16.000Z</time>
      </trkpt>
      <trkpt lat="45.09744" lon="5.26944">
        <ele>191</ele>
        <time>2022-09-17T15:42:17.000Z</time>
      </trkpt>
      <trkpt lat="45.0975" lon="5.26945">
        <ele>190.9</ele>
        <time>2022-09-17T15:42:18.000Z</time>
      </trkpt>
      <trkpt lat="45.09756" lon="5.26946">
        <ele>190.6</ele>
        <time>2022-09-17T15:42:19.000Z</time>
      </trkpt>
      <trkpt lat="45.09762" lon="5.26947">
        <ele>190.2</ele>
        <time>2022-09-17T15:42:20.000Z</time>
      </trkpt>
      <trkpt lat="45.09767" lon="5.26948">
        <ele>189.9</ele>
        <time>2022-09-17T15:42:21.000Z</time>
      </trkpt>
      <trkpt lat="45.09772" lon="5.26947">
        <ele>189.7</ele>
        <time>2022-09-17T15:42:22.000Z</time>
      </trkpt>
      <trkpt lat="45.09779" lon="5.26947">
        <ele>189.6</ele>
        <time>2022-09-17T15:42:23.000Z</time>
      </trkpt>
      <trkpt lat="45.09786" lon="5.26947">
        <ele>189.3</ele>
        <time>2022-09-17T15:42:24.000Z</time>
      </trkpt>
      <trkpt lat="45.09794" lon="5.26947">
        <ele>189.1</ele>
        <time>2022-09-17T15:42:25.000Z</time>
      </trkpt>
      <trkpt lat="45.09802" lon="5.26948">
        <ele>188.5</ele>
        <time>2022-09-17T15:42:26.000Z</time>
      </trkpt>
      <trkpt lat="45.0981" lon="5.2695">
        <ele>188.3</ele>
        <time>2022-09-17T15:42:27.000Z</time>
      </trkpt>
      <trkpt lat="45.09818" lon="5.26955">
        <ele>188.2</ele>
        <time>2022-09-17T15:42:28.000Z</time>
      </trkpt>
      <trkpt lat="45.09825" lon="5.26961">
        <ele>187.8</ele>
        <time>2022-09-17T15:42:29.000Z</time>
      </trkpt>
      <trkpt lat="45.09832" lon="5.26968">
        <ele>187.5</ele>
        <time>2022-09-17T15:42:30.000Z</time>
      </trkpt>
      <trkpt lat="45.09839" lon="5.26974">
        <ele>186.5</ele>
        <time>2022-09-17T15:42:31.000Z</time>
      </trkpt>
      <trkpt lat="45.09847" lon="5.26979">
        <ele>185.6</ele>
        <time>2022-09-17T15:42:32.000Z</time>
      </trkpt>
      <trkpt lat="45.09854" lon="5.26982">
        <ele>185.2</ele>
        <time>2022-09-17T15:42:33.000Z</time>
      </trkpt>
      <trkpt lat="45.09863" lon="5.26984">
        <ele>185.1</ele>
        <time>2022-09-17T15:42:34.000Z</time>
      </trkpt>
      <trkpt lat="45.09871" lon="5.26987">
        <ele>184.8</ele>
        <time>2022-09-17T15:42:35.000Z</time>
      </trkpt>
      <trkpt lat="45.0988" lon="5.26988">
        <ele>184.5</ele>
        <time>2022-09-17T15:42:36.000Z</time>
      </trkpt>
      <trkpt lat="45.09889" lon="5.26991">
        <ele>184</ele>
        <time>2022-09-17T15:42:37.000Z</time>
      </trkpt>
      <trkpt lat="45.09898" lon="5.26994">
        <ele>183.6</ele>
        <time>2022-09-17T15:42:38.000Z</time>
      </trkpt>
      <trkpt lat="45.09907" lon="5.26996">
        <ele>183.3</ele>
        <time>2022-09-17T15:42:39.000Z</time>
      </trkpt>
      <trkpt lat="45.09915" lon="5.26997">
        <ele>183.1</ele>
        <time>2022-09-17T15:42:40.000Z</time>
      </trkpt>
      <trkpt lat="45.09923" lon="5.26999">
        <ele>183</ele>
        <time>2022-09-17T15:42:41.000Z</time>
      </trkpt>
      <trkpt lat="45.0993" lon="5.27001">
        <ele>183</ele>
        <time>2022-09-17T15:42:42.000Z</time>
      </trkpt>
      <trkpt lat="45.09938" lon="5.27003">
        <ele>183</ele>
        <time>2022-09-17T15:42:43.000Z</time>
      </trkpt>
      <trkpt lat="45.09946" lon="5.27005">
        <ele>183.1</ele>
        <time>2022-09-17T15:42:44.000Z</time>
      </trkpt>
      <trkpt lat="45.09954" lon="5.27006">
        <ele>183.5</ele>
        <time>2022-09-17T15:42:45.000Z</time>
      </trkpt>
      <trkpt lat="45.09962" lon="5.27008">
        <ele>183.9</ele>
        <time>2022-09-17T15:42:46.000Z</time>
      </trkpt>
      <trkpt lat="45.09969" lon="5.2701">
        <ele>184.1</ele>
        <time>2022-09-17T15:42:47.000Z</time>
      </trkpt>
      <trkpt lat="45.09975" lon="5.27012">
        <ele>184.2</ele>
        <time>2022-09-17T15:42:48.000Z</time>
      </trkpt>
      <trkpt lat="45.09982" lon="5.27014">
        <ele>184</ele>
        <time>2022-09-17T15:42:49.000Z</time>
      </trkpt>
      <trkpt lat="45.09988" lon="5.27015">
        <ele>183.9</ele>
        <time>2022-09-17T15:42:50.000Z</time>
      </trkpt>
      <trkpt lat="45.09994" lon="5.27016">
        <ele>183.8</ele>
        <time>2022-09-17T15:42:51.000Z</time>
      </trkpt>
      <trkpt lat="45.10001" lon="5.27016">
        <ele>183.7</ele>
        <time>2022-09-17T15:42:52.000Z</time>
      </trkpt>
      <trkpt lat="45.10008" lon="5.27014">
        <ele>183.4</ele>
        <time>2022-09-17T15:42:53.000Z</time>
      </trkpt>
      <trkpt lat="45.10015" lon="5.27012">
        <ele>183.2</ele>
        <time>2022-09-17T15:42:54.000Z</time>
      </trkpt>
      <trkpt lat="45.10021" lon="5.2701">
        <ele>183.1</ele>
        <time>2022-09-17T15:42:55.000Z</time>
      </trkpt>
      <trkpt lat="45.10028" lon="5.27006">
        <ele>183.2</ele>
        <time>2022-09-17T15:42:56.000Z</time>
      </trkpt>
      <trkpt lat="45.10034" lon="5.27">
        <ele>183.5</ele>
        <time>2022-09-17T15:42:57.000Z</time>
      </trkpt>
      <trkpt lat="45.1004" lon="5.26995">
        <ele>183.8</ele>
        <time>2022-09-17T15:42:58.000Z</time>
      </trkpt>
      <trkpt lat="45.10046" lon="5.2699">
        <ele>183.8</ele>
        <time>2022-09-17T15:42:59.000Z</time>
      </trkpt>
      <trkpt lat="45.10052" lon="5.26984">
        <ele>183.6</ele>
        <time>2022-09-17T15:43:00.000Z</time>
      </trkpt>
      <trkpt lat="45.10058" lon="5.26978">
        <ele>183.5</ele>
        <time>2022-09-17T15:43:01.000Z</time>
      </trkpt>
      <trkpt lat="45.10064" lon="5.26973">
        <ele>183.9</ele>
        <time>2022-09-17T15:43:02.000Z</time>
      </trkpt>
      <trkpt lat="45.1007" lon="5.26969">
        <ele>184.4</ele>
        <time>2022-09-17T15:43:03.000Z</time>
      </trkpt>
      <trkpt lat="45.10077" lon="5.26967">
        <ele>184.8</ele>
        <time>2022-09-17T15:43:04.000Z</time>
      </trkpt>
      <trkpt lat="45.10083" lon="5.26966">
        <ele>185.1</ele>
        <time>2022-09-17T15:43:05.000Z</time>
      </trkpt>
      <trkpt lat="45.10089" lon="5.26966">
        <ele>185.3</ele>
        <time>2022-09-17T15:43:06.000Z</time>
      </trkpt>
      <trkpt lat="45.10094" lon="5.26968">
        <ele>185.3</ele>
        <time>2022-09-17T15:43:07.000Z</time>
      </trkpt>
      <trkpt lat="45.10099" lon="5.26968">
        <ele>185.3</ele>
        <time>2022-09-17T15:43:08.000Z</time>
      </trkpt>
      <trkpt lat="45.10103" lon="5.2697">
        <ele>185.2</ele>
        <time>2022-09-17T15:43:09.000Z</time>
      </trkpt>
      <trkpt lat="45.10108" lon="5.26971">
        <ele>185.1</ele>
        <time>2022-09-17T15:43:10.000Z</time>
      </trkpt>
      <trkpt lat="45.10113" lon="5.26973">
        <ele>185</ele>
        <time>2022-09-17T15:43:11.000Z</time>
      </trkpt>
      <trkpt lat="45.10117" lon="5.26974">
        <ele>184.9</ele>
        <time>2022-09-17T15:43:12.000Z</time>
      </trkpt>
      <trkpt lat="45.10123" lon="5.26975">
        <ele>184.9</ele>
        <time>2022-09-17T15:43:13.000Z</time>
      </trkpt>
      <trkpt lat="45.10129" lon="5.26975">
        <ele>185.1</ele>
        <time>2022-09-17T15:43:14.000Z</time>
      </trkpt>
      <trkpt lat="45.10133" lon="5.26975">
        <ele>185.2</ele>
        <time>2022-09-17T15:43:15.000Z</time>
      </trkpt>
      <trkpt lat="45.10135" lon="5.26975">
        <ele>185.4</ele>
        <time>2022-09-17T15:43:16.000Z</time>
      </trkpt>
      <trkpt lat="45.10137" lon="5.26974">
        <ele>185.6</ele>
        <time>2022-09-17T15:43:17.000Z</time>
      </trkpt>
      <trkpt lat="45.10139" lon="5.26973">
        <ele>185.9</ele>
        <time>2022-09-17T15:43:18.000Z</time>
      </trkpt>
      <trkpt lat="45.10143" lon="5.26972">
        <ele>185.6</ele>
        <time>2022-09-17T15:43:19.000Z</time>
      </trkpt>
      <trkpt lat="45.10145" lon="5.26972">
        <ele>185.5</ele>
        <time>2022-09-17T15:43:20.000Z</time>
      </trkpt>
      <trkpt lat="45.10148" lon="5.26971">
        <ele>185.2</ele>
        <time>2022-09-17T15:43:21.000Z</time>
      </trkpt>
      <trkpt lat="45.10151" lon="5.2697">
        <ele>185.3</ele>
        <time>2022-09-17T15:43:22.000Z</time>
      </trkpt>
      <trkpt lat="45.10153" lon="5.26968">
        <ele>185.4</ele>
        <time>2022-09-17T15:43:23.000Z</time>
      </trkpt>
      <trkpt lat="45.10155" lon="5.26967">
        <ele>185.5</ele>
        <time>2022-09-17T15:43:24.000Z</time>
      </trkpt>
      <trkpt lat="45.10158" lon="5.26965">
        <ele>185.6</ele>
        <time>2022-09-17T15:43:25.000Z</time>
      </trkpt>
      <trkpt lat="45.1016" lon="5.26964">
        <ele>185.5</ele>
        <time>2022-09-17T15:43:26.000Z</time>
      </trkpt>
      <trkpt lat="45.10163" lon="5.26964">
        <ele>185.3</ele>
        <time>2022-09-17T15:43:27.000Z</time>
      </trkpt>
      <trkpt lat="45.10166" lon="5.26962">
        <ele>185.3</ele>
        <time>2022-09-17T15:43:28.000Z</time>
      </trkpt>
      <trkpt lat="45.10169" lon="5.26961">
        <ele>185.3</ele>
        <time>2022-09-17T15:43:29.000Z</time>
      </trkpt>
      <trkpt lat="45.10174" lon="5.26959">
        <ele>185.2</ele>
        <time>2022-09-17T15:43:30.000Z</time>
      </trkpt>
      <trkpt lat="45.10178" lon="5.26958">
        <ele>185.1</ele>
        <time>2022-09-17T15:43:31.000Z</time>
      </trkpt>
      <trkpt lat="45.10182" lon="5.26957">
        <ele>184.8</ele>
        <time>2022-09-17T15:43:32.000Z</time>
      </trkpt>
      <trkpt lat="45.10187" lon="5.26957">
        <ele>184.4</ele>
        <time>2022-09-17T15:43:33.000Z</time>
      </trkpt>
      <trkpt lat="45.10192" lon="5.26957">
        <ele>183.9</ele>
        <time>2022-09-17T15:43:34.000Z</time>
      </trkpt>
      <trkpt lat="45.10197" lon="5.26959">
        <ele>183.5</ele>
        <time>2022-09-17T15:43:35.000Z</time>
      </trkpt>
      <trkpt lat="45.10202" lon="5.2696">
        <ele>183.5</ele>
        <time>2022-09-17T15:43:36.000Z</time>
      </trkpt>
      <trkpt lat="45.10209" lon="5.2696">
        <ele>183.5</ele>
        <time>2022-09-17T15:43:37.000Z</time>
      </trkpt>
      <trkpt lat="45.10216" lon="5.26962">
        <ele>183.3</ele>
        <time>2022-09-17T15:43:38.000Z</time>
      </trkpt>
      <trkpt lat="45.10224" lon="5.26962">
        <ele>183.3</ele>
        <time>2022-09-17T15:43:39.000Z</time>
      </trkpt>
      <trkpt lat="45.10231" lon="5.26961">
        <ele>183.5</ele>
        <time>2022-09-17T15:43:40.000Z</time>
      </trkpt>
      <trkpt lat="45.10239" lon="5.2696">
        <ele>183.7</ele>
        <time>2022-09-17T15:43:41.000Z</time>
      </trkpt>
      <trkpt lat="45.10246" lon="5.26959">
        <ele>184</ele>
        <time>2022-09-17T15:43:42.000Z</time>
      </trkpt>
      <trkpt lat="45.10253" lon="5.26957">
        <ele>184.3</ele>
        <time>2022-09-17T15:43:43.000Z</time>
      </trkpt>
      <trkpt lat="45.1026" lon="5.26955">
        <ele>184.5</ele>
        <time>2022-09-17T15:43:44.000Z</time>
      </trkpt>
      <trkpt lat="45.10267" lon="5.26954">
        <ele>184.5</ele>
        <time>2022-09-17T15:43:45.000Z</time>
      </trkpt>
      <trkpt lat="45.10274" lon="5.26953">
        <ele>184.6</ele>
        <time>2022-09-17T15:43:46.000Z</time>
      </trkpt>
      <trkpt lat="45.10281" lon="5.26953">
        <ele>185</ele>
        <time>2022-09-17T15:43:47.000Z</time>
      </trkpt>
      <trkpt lat="45.10287" lon="5.26954">
        <ele>185.8</ele>
        <time>2022-09-17T15:43:48.000Z</time>
      </trkpt>
      <trkpt lat="45.10293" lon="5.26957">
        <ele>186.2</ele>
        <time>2022-09-17T15:43:49.000Z</time>
      </trkpt>
      <trkpt lat="45.10298" lon="5.26961">
        <ele>186.3</ele>
        <time>2022-09-17T15:43:50.000Z</time>
      </trkpt>
      <trkpt lat="45.10303" lon="5.26965">
        <ele>186.1</ele>
        <time>2022-09-17T15:43:51.000Z</time>
      </trkpt>
      <trkpt lat="45.10308" lon="5.26971">
        <ele>185.8</ele>
        <time>2022-09-17T15:43:52.000Z</time>
      </trkpt>
      <trkpt lat="45.10313" lon="5.26976">
        <ele>185.4</ele>
        <time>2022-09-17T15:43:53.000Z</time>
      </trkpt>
      <trkpt lat="45.10318" lon="5.26981">
        <ele>185.1</ele>
        <time>2022-09-17T15:43:54.000Z</time>
      </trkpt>
      <trkpt lat="45.10323" lon="5.26985">
        <ele>185.2</ele>
        <time>2022-09-17T15:43:55.000Z</time>
      </trkpt>
      <trkpt lat="45.10328" lon="5.26988">
        <ele>185.5</ele>
        <time>2022-09-17T15:43:56.000Z</time>
      </trkpt>
      <trkpt lat="45.10333" lon="5.26991">
        <ele>186</ele>
        <time>2022-09-17T15:43:57.000Z</time>
      </trkpt>
      <trkpt lat="45.10339" lon="5.26993">
        <ele>185.8</ele>
        <time>2022-09-17T15:43:58.000Z</time>
      </trkpt>
      <trkpt lat="45.10344" lon="5.26995">
        <ele>185.7</ele>
        <time>2022-09-17T15:43:59.000Z</time>
      </trkpt>
      <trkpt lat="45.1035" lon="5.26997">
        <ele>185.6</ele>
        <time>2022-09-17T15:44:00.000Z</time>
      </trkpt>
      <trkpt lat="45.10355" lon="5.26998">
        <ele>185.3</ele>
        <time>2022-09-17T15:44:01.000Z</time>
      </trkpt>
      <trkpt lat="45.1036" lon="5.27001">
        <ele>184.8</ele>
        <time>2022-09-17T15:44:02.000Z</time>
      </trkpt>
      <trkpt lat="45.10365" lon="5.27004">
        <ele>184.8</ele>
        <time>2022-09-17T15:44:03.000Z</time>
      </trkpt>
      <trkpt lat="45.1037" lon="5.27008">
        <ele>184.6</ele>
        <time>2022-09-17T15:44:04.000Z</time>
      </trkpt>
      <trkpt lat="45.10375" lon="5.27012">
        <ele>184.3</ele>
        <time>2022-09-17T15:44:05.000Z</time>
      </trkpt>
      <trkpt lat="45.10379" lon="5.27018">
        <ele>183.8</ele>
        <time>2022-09-17T15:44:06.000Z</time>
      </trkpt>
      <trkpt lat="45.10383" lon="5.27022">
        <ele>183.5</ele>
        <time>2022-09-17T15:44:07.000Z</time>
      </trkpt>
      <trkpt lat="45.10388" lon="5.27025">
        <ele>183.5</ele>
        <time>2022-09-17T15:44:08.000Z</time>
      </trkpt>
      <trkpt lat="45.10393" lon="5.27028">
        <ele>183.1</ele>
        <time>2022-09-17T15:44:09.000Z</time>
      </trkpt>
      <trkpt lat="45.10398" lon="5.27031">
        <ele>182.6</ele>
        <time>2022-09-17T15:44:10.000Z</time>
      </trkpt>
      <trkpt lat="45.10404" lon="5.27033">
        <ele>182.3</ele>
        <time>2022-09-17T15:44:11.000Z</time>
      </trkpt>
      <trkpt lat="45.10411" lon="5.27034">
        <ele>182.5</ele>
        <time>2022-09-17T15:44:12.000Z</time>
      </trkpt>
      <trkpt lat="45.10418" lon="5.27035">
        <ele>182.4</ele>
        <time>2022-09-17T15:44:13.000Z</time>
      </trkpt>
      <trkpt lat="45.10425" lon="5.27036">
        <ele>182</ele>
        <time>2022-09-17T15:44:14.000Z</time>
      </trkpt>
      <trkpt lat="45.10434" lon="5.27036">
        <ele>181.7</ele>
        <time>2022-09-17T15:44:15.000Z</time>
      </trkpt>
      <trkpt lat="45.10442" lon="5.27036">
        <ele>181.5</ele>
        <time>2022-09-17T15:44:16.000Z</time>
      </trkpt>
      <trkpt lat="45.10451" lon="5.27036">
        <ele>181</ele>
        <time>2022-09-17T15:44:17.000Z</time>
      </trkpt>
      <trkpt lat="45.1046" lon="5.27037">
        <ele>180.3</ele>
        <time>2022-09-17T15:44:18.000Z</time>
      </trkpt>
      <trkpt lat="45.10468" lon="5.27038">
        <ele>179.5</ele>
        <time>2022-09-17T15:44:19.000Z</time>
      </trkpt>
      <trkpt lat="45.10477" lon="5.27039">
        <ele>178.9</ele>
        <time>2022-09-17T15:44:20.000Z</time>
      </trkpt>
      <trkpt lat="45.10486" lon="5.27041">
        <ele>178.4</ele>
        <time>2022-09-17T15:44:21.000Z</time>
      </trkpt>
      <trkpt lat="45.10494" lon="5.27043">
        <ele>177.7</ele>
        <time>2022-09-17T15:44:22.000Z</time>
      </trkpt>
      <trkpt lat="45.10502" lon="5.27045">
        <ele>177.2</ele>
        <time>2022-09-17T15:44:23.000Z</time>
      </trkpt>
      <trkpt lat="45.10511" lon="5.27046">
        <ele>177.2</ele>
        <time>2022-09-17T15:44:24.000Z</time>
      </trkpt>
      <trkpt lat="45.10519" lon="5.27047">
        <ele>177.2</ele>
        <time>2022-09-17T15:44:25.000Z</time>
      </trkpt>
      <trkpt lat="45.10528" lon="5.27048">
        <ele>177.1</ele>
        <time>2022-09-17T15:44:26.000Z</time>
      </trkpt>
      <trkpt lat="45.10536" lon="5.27049">
        <ele>177.4</ele>
        <time>2022-09-17T15:44:27.000Z</time>
      </trkpt>
      <trkpt lat="45.10545" lon="5.27051">
        <ele>177.7</ele>
        <time>2022-09-17T15:44:28.000Z</time>
      </trkpt>
      <trkpt lat="45.10553" lon="5.27054">
        <ele>177.4</ele>
        <time>2022-09-17T15:44:29.000Z</time>
      </trkpt>
      <trkpt lat="45.1056" lon="5.27059">
        <ele>177.5</ele>
        <time>2022-09-17T15:44:30.000Z</time>
      </trkpt>
      <trkpt lat="45.10567" lon="5.27067">
        <ele>177.3</ele>
        <time>2022-09-17T15:44:31.000Z</time>
      </trkpt>
      <trkpt lat="45.10573" lon="5.27075">
        <ele>176.6</ele>
        <time>2022-09-17T15:44:32.000Z</time>
      </trkpt>
      <trkpt lat="45.10579" lon="5.27083">
        <ele>175.6</ele>
        <time>2022-09-17T15:44:33.000Z</time>
      </trkpt>
      <trkpt lat="45.10585" lon="5.27088">
        <ele>175.7</ele>
        <time>2022-09-17T15:44:34.000Z</time>
      </trkpt>
      <trkpt lat="45.10591" lon="5.27093">
        <ele>176.1</ele>
        <time>2022-09-17T15:44:35.000Z</time>
      </trkpt>
      <trkpt lat="45.10598" lon="5.27099">
        <ele>176</ele>
        <time>2022-09-17T15:44:36.000Z</time>
      </trkpt>
      <trkpt lat="45.10605" lon="5.27103">
        <ele>175.6</ele>
        <time>2022-09-17T15:44:37.000Z</time>
      </trkpt>
      <trkpt lat="45.10613" lon="5.27106">
        <ele>175</ele>
        <time>2022-09-17T15:44:38.000Z</time>
      </trkpt>
      <trkpt lat="45.1062" lon="5.27109">
        <ele>174.7</ele>
        <time>2022-09-17T15:44:39.000Z</time>
      </trkpt>
      <trkpt lat="45.10628" lon="5.27112">
        <ele>174.3</ele>
        <time>2022-09-17T15:44:40.000Z</time>
      </trkpt>
      <trkpt lat="45.10636" lon="5.27117">
        <ele>173.3</ele>
        <time>2022-09-17T15:44:41.000Z</time>
      </trkpt>
      <trkpt lat="45.10644" lon="5.27123">
        <ele>172.8</ele>
        <time>2022-09-17T15:44:42.000Z</time>
      </trkpt>
      <trkpt lat="45.10652" lon="5.27129">
        <ele>172.3</ele>
        <time>2022-09-17T15:44:43.000Z</time>
      </trkpt>
      <trkpt lat="45.1066" lon="5.27135">
        <ele>171.9</ele>
        <time>2022-09-17T15:44:44.000Z</time>
      </trkpt>
      <trkpt lat="45.10668" lon="5.27141">
        <ele>171.8</ele>
        <time>2022-09-17T15:44:45.000Z</time>
      </trkpt>
      <trkpt lat="45.10676" lon="5.27146">
        <ele>172.1</ele>
        <time>2022-09-17T15:44:46.000Z</time>
      </trkpt>
      <trkpt lat="45.10684" lon="5.27152">
        <ele>172.4</ele>
        <time>2022-09-17T15:44:47.000Z</time>
      </trkpt>
      <trkpt lat="45.10692" lon="5.27157">
        <ele>172.7</ele>
        <time>2022-09-17T15:44:48.000Z</time>
      </trkpt>
      <trkpt lat="45.10701" lon="5.27162">
        <ele>172.5</ele>
        <time>2022-09-17T15:44:49.000Z</time>
      </trkpt>
      <trkpt lat="45.10709" lon="5.27169">
        <ele>172.1</ele>
        <time>2022-09-17T15:44:50.000Z</time>
      </trkpt>
      <trkpt lat="45.10717" lon="5.27175">
        <ele>171.9</ele>
        <time>2022-09-17T15:44:51.000Z</time>
      </trkpt>
      <trkpt lat="45.10725" lon="5.27181">
        <ele>171.4</ele>
        <time>2022-09-17T15:44:52.000Z</time>
      </trkpt>
      <trkpt lat="45.10733" lon="5.27188">
        <ele>170.5</ele>
        <time>2022-09-17T15:44:53.000Z</time>
      </trkpt>
      <trkpt lat="45.10741" lon="5.27196">
        <ele>169</ele>
        <time>2022-09-17T15:44:54.000Z</time>
      </trkpt>
      <trkpt lat="45.10749" lon="5.27202">
        <ele>168.4</ele>
        <time>2022-09-17T15:44:55.000Z</time>
      </trkpt>
      <trkpt lat="45.10756" lon="5.27209">
        <ele>168.1</ele>
        <time>2022-09-17T15:44:56.000Z</time>
      </trkpt>
      <trkpt lat="45.10764" lon="5.27216">
        <ele>167.8</ele>
        <time>2022-09-17T15:44:57.000Z</time>
      </trkpt>
      <trkpt lat="45.10773" lon="5.27222">
        <ele>167.1</ele>
        <time>2022-09-17T15:44:58.000Z</time>
      </trkpt>
      <trkpt lat="45.10781" lon="5.27229">
        <ele>167.7</ele>
        <time>2022-09-17T15:44:59.000Z</time>
      </trkpt>
      <trkpt lat="45.10789" lon="5.27236">
        <ele>168.4</ele>
        <time>2022-09-17T15:45:00.000Z</time>
      </trkpt>
      <trkpt lat="45.10797" lon="5.27244">
        <ele>167.9</ele>
        <time>2022-09-17T15:45:01.000Z</time>
      </trkpt>
      <trkpt lat="45.10805" lon="5.27252">
        <ele>166.6</ele>
        <time>2022-09-17T15:45:02.000Z</time>
      </trkpt>
      <trkpt lat="45.10813" lon="5.2726">
        <ele>167.8</ele>
        <time>2022-09-17T15:45:03.000Z</time>
      </trkpt>
      <trkpt lat="45.10819" lon="5.27269">
        <ele>168</ele>
        <time>2022-09-17T15:45:04.000Z</time>
      </trkpt>
      <trkpt lat="45.10826" lon="5.27277">
        <ele>167.2</ele>
        <time>2022-09-17T15:45:05.000Z</time>
      </trkpt>
      <trkpt lat="45.10832" lon="5.27286">
        <ele>167</ele>
        <time>2022-09-17T15:45:06.000Z</time>
      </trkpt>
      <trkpt lat="45.10839" lon="5.27295">
        <ele>167.5</ele>
        <time>2022-09-17T15:45:07.000Z</time>
      </trkpt>
      <trkpt lat="45.10844" lon="5.27303">
        <ele>167.6</ele>
        <time>2022-09-17T15:45:08.000Z</time>
      </trkpt>
      <trkpt lat="45.10851" lon="5.27312">
        <ele>167.7</ele>
        <time>2022-09-17T15:45:09.000Z</time>
      </trkpt>
      <trkpt lat="45.10856" lon="5.27322">
        <ele>166.9</ele>
        <time>2022-09-17T15:45:10.000Z</time>
      </trkpt>
      <trkpt lat="45.10862" lon="5.27329">
        <ele>165.7</ele>
        <time>2022-09-17T15:45:11.000Z</time>
      </trkpt>
      <trkpt lat="45.10868" lon="5.27336">
        <ele>166.4</ele>
        <time>2022-09-17T15:45:12.000Z</time>
      </trkpt>
      <trkpt lat="45.10873" lon="5.2734">
        <ele>167.4</ele>
        <time>2022-09-17T15:45:13.000Z</time>
      </trkpt>
      <trkpt lat="45.10878" lon="5.27344">
        <ele>168.2</ele>
        <time>2022-09-17T15:45:14.000Z</time>
      </trkpt>
      <trkpt lat="45.10882" lon="5.27347">
        <ele>168.8</ele>
        <time>2022-09-17T15:45:15.000Z</time>
      </trkpt>
      <trkpt lat="45.10887" lon="5.27349">
        <ele>169.5</ele>
        <time>2022-09-17T15:45:16.000Z</time>
      </trkpt>
      <trkpt lat="45.10892" lon="5.27353">
        <ele>170.5</ele>
        <time>2022-09-17T15:45:17.000Z</time>
      </trkpt>
      <trkpt lat="45.10897" lon="5.27356">
        <ele>172.3</ele>
        <time>2022-09-17T15:45:18.000Z</time>
      </trkpt>
      <trkpt lat="45.10902" lon="5.27361">
        <ele>173.4</ele>
        <time>2022-09-17T15:45:19.000Z</time>
      </trkpt>
      <trkpt lat="45.10907" lon="5.27366">
        <ele>175.1</ele>
        <time>2022-09-17T15:45:20.000Z</time>
      </trkpt>
      <trkpt lat="45.10911" lon="5.27371">
        <ele>176</ele>
        <time>2022-09-17T15:45:21.000Z</time>
      </trkpt>
      <trkpt lat="45.10914" lon="5.27379">
        <ele>175.6</ele>
        <time>2022-09-17T15:45:22.000Z</time>
      </trkpt>
      <trkpt lat="45.10918" lon="5.27386">
        <ele>175.8</ele>
        <time>2022-09-17T15:45:23.000Z</time>
      </trkpt>
      <trkpt lat="45.10922" lon="5.27394">
        <ele>175.3</ele>
        <time>2022-09-17T15:45:24.000Z</time>
      </trkpt>
      <trkpt lat="45.10925" lon="5.27403">
        <ele>174.2</ele>
        <time>2022-09-17T15:45:25.000Z</time>
      </trkpt>
      <trkpt lat="45.10928" lon="5.27412">
        <ele>173.2</ele>
        <time>2022-09-17T15:45:26.000Z</time>
      </trkpt>
      <trkpt lat="45.1093" lon="5.27424">
        <ele>172</ele>
        <time>2022-09-17T15:45:27.000Z</time>
      </trkpt>
      <trkpt lat="45.10932" lon="5.27435">
        <ele>171.1</ele>
        <time>2022-09-17T15:45:28.000Z</time>
      </trkpt>
      <trkpt lat="45.10935" lon="5.27449">
        <ele>169.7</ele>
        <time>2022-09-17T15:45:29.000Z</time>
      </trkpt>
      <trkpt lat="45.10937" lon="5.27461">
        <ele>168.6</ele>
        <time>2022-09-17T15:45:30.000Z</time>
      </trkpt>
      <trkpt lat="45.10939" lon="5.27469">
        <ele>167.4</ele>
        <time>2022-09-17T15:45:31.000Z</time>
      </trkpt>
      <trkpt lat="45.1094" lon="5.27477">
        <ele>166.4</ele>
        <time>2022-09-17T15:45:32.000Z</time>
      </trkpt>
      <trkpt lat="45.10941" lon="5.27488">
        <ele>165.3</ele>
        <time>2022-09-17T15:45:33.000Z</time>
      </trkpt>
      <trkpt lat="45.10943" lon="5.27499">
        <ele>164.1</ele>
        <time>2022-09-17T15:45:34.000Z</time>
      </trkpt>
      <trkpt lat="45.10945" lon="5.27509">
        <ele>163.5</ele>
        <time>2022-09-17T15:45:35.000Z</time>
      </trkpt>
      <trkpt lat="45.10948" lon="5.27519">
        <ele>163.5</ele>
        <time>2022-09-17T15:45:36.000Z</time>
      </trkpt>
      <trkpt lat="45.10951" lon="5.27529">
        <ele>163.2</ele>
        <time>2022-09-17T15:45:37.000Z</time>
      </trkpt>
      <trkpt lat="45.10954" lon="5.27538">
        <ele>163.4</ele>
        <time>2022-09-17T15:45:38.000Z</time>
      </trkpt>
      <trkpt lat="45.10956" lon="5.27548">
        <ele>163.5</ele>
        <time>2022-09-17T15:45:39.000Z</time>
      </trkpt>
      <trkpt lat="45.10959" lon="5.27556">
        <ele>163.6</ele>
        <time>2022-09-17T15:45:40.000Z</time>
      </trkpt>
      <trkpt lat="45.10961" lon="5.27565">
        <ele>164</ele>
        <time>2022-09-17T15:45:41.000Z</time>
      </trkpt>
      <trkpt lat="45.10964" lon="5.27572">
        <ele>164.5</ele>
        <time>2022-09-17T15:45:42.000Z</time>
      </trkpt>
      <trkpt lat="45.10966" lon="5.2758">
        <ele>165</ele>
        <time>2022-09-17T15:45:43.000Z</time>
      </trkpt>
      <trkpt lat="45.10968" lon="5.27586">
        <ele>165.5</ele>
        <time>2022-09-17T15:45:44.000Z</time>
      </trkpt>
      <trkpt lat="45.1097" lon="5.27592">
        <ele>165.9</ele>
        <time>2022-09-17T15:45:45.000Z</time>
      </trkpt>
      <trkpt lat="45.10971" lon="5.27596">
        <ele>166.3</ele>
        <time>2022-09-17T15:45:46.000Z</time>
      </trkpt>
      <trkpt lat="45.10972" lon="5.27601">
        <ele>166.6</ele>
        <time>2022-09-17T15:45:47.000Z</time>
      </trkpt>
      <trkpt lat="45.10974" lon="5.27604">
        <ele>167.3</ele>
        <time>2022-09-17T15:45:48.000Z</time>
      </trkpt>
      <trkpt lat="45.10976" lon="5.27608">
        <ele>168.2</ele>
        <time>2022-09-17T15:45:49.000Z</time>
      </trkpt>
      <trkpt lat="45.10977" lon="5.27611">
        <ele>168.8</ele>
        <time>2022-09-17T15:45:50.000Z</time>
      </trkpt>
      <trkpt lat="45.10978" lon="5.27615">
        <ele>169.4</ele>
        <time>2022-09-17T15:45:51.000Z</time>
      </trkpt>
      <trkpt lat="45.10979" lon="5.27618">
        <ele>169.9</ele>
        <time>2022-09-17T15:45:52.000Z</time>
      </trkpt>
      <trkpt lat="45.1098" lon="5.27622">
        <ele>170.4</ele>
        <time>2022-09-17T15:45:53.000Z</time>
      </trkpt>
      <trkpt lat="45.10981" lon="5.27626">
        <ele>171</ele>
        <time>2022-09-17T15:45:54.000Z</time>
      </trkpt>
      <trkpt lat="45.10982" lon="5.27629">
        <ele>171.6</ele>
        <time>2022-09-17T15:45:55.000Z</time>
      </trkpt>
      <trkpt lat="45.10983" lon="5.27633">
        <ele>172.4</ele>
        <time>2022-09-17T15:45:56.000Z</time>
      </trkpt>
      <trkpt lat="45.10985" lon="5.27636">
        <ele>173.5</ele>
        <time>2022-09-17T15:45:57.000Z</time>
      </trkpt>
      <trkpt lat="45.10987" lon="5.27639">
        <ele>174.5</ele>
        <time>2022-09-17T15:45:58.000Z</time>
      </trkpt>
      <trkpt lat="45.10989" lon="5.27641">
        <ele>174.9</ele>
        <time>2022-09-17T15:45:59.000Z</time>
      </trkpt>
      <trkpt lat="45.10991" lon="5.27643">
        <ele>175</ele>
        <time>2022-09-17T15:46:00.000Z</time>
      </trkpt>
      <trkpt lat="45.10993" lon="5.27646">
        <ele>175</ele>
        <time>2022-09-17T15:46:01.000Z</time>
      </trkpt>
      <trkpt lat="45.10994" lon="5.27649">
        <ele>174.8</ele>
        <time>2022-09-17T15:46:02.000Z</time>
      </trkpt>
      <trkpt lat="45.10996" lon="5.27651">
        <ele>174.7</ele>
        <time>2022-09-17T15:46:03.000Z</time>
      </trkpt>
      <trkpt lat="45.10998" lon="5.27653">
        <ele>174.6</ele>
        <time>2022-09-17T15:46:04.000Z</time>
      </trkpt>
      <trkpt lat="45.11" lon="5.27656">
        <ele>174.1</ele>
        <time>2022-09-17T15:46:05.000Z</time>
      </trkpt>
      <trkpt lat="45.11001" lon="5.27658">
        <ele>173.7</ele>
        <time>2022-09-17T15:46:06.000Z</time>
      </trkpt>
      <trkpt lat="45.11003" lon="5.27661">
        <ele>173.3</ele>
        <time>2022-09-17T15:46:07.000Z</time>
      </trkpt>
      <trkpt lat="45.11004" lon="5.27663">
        <ele>173</ele>
        <time>2022-09-17T15:46:08.000Z</time>
      </trkpt>
      <trkpt lat="45.11006" lon="5.27665">
        <ele>172.9</ele>
        <time>2022-09-17T15:46:09.000Z</time>
      </trkpt>
      <trkpt lat="45.11008" lon="5.27667">
        <ele>172.9</ele>
        <time>2022-09-17T15:46:10.000Z</time>
      </trkpt>
      <trkpt lat="45.11009" lon="5.2767">
        <ele>173.2</ele>
        <time>2022-09-17T15:46:11.000Z</time>
      </trkpt>
      <trkpt lat="45.11011" lon="5.27673">
        <ele>173.5</ele>
        <time>2022-09-17T15:46:12.000Z</time>
      </trkpt>
      <trkpt lat="45.11013" lon="5.27675">
        <ele>173.7</ele>
        <time>2022-09-17T15:46:13.000Z</time>
      </trkpt>
      <trkpt lat="45.11015" lon="5.27678">
        <ele>173.9</ele>
        <time>2022-09-17T15:46:14.000Z</time>
      </trkpt>
      <trkpt lat="45.11018" lon="5.2768">
        <ele>174.3</ele>
        <time>2022-09-17T15:46:15.000Z</time>
      </trkpt>
      <trkpt lat="45.1102" lon="5.27682">
        <ele>174.6</ele>
        <time>2022-09-17T15:46:16.000Z</time>
      </trkpt>
      <trkpt lat="45.11022" lon="5.27684">
        <ele>174.5</ele>
        <time>2022-09-17T15:46:17.000Z</time>
      </trkpt>
      <trkpt lat="45.11024" lon="5.27686">
        <ele>174.5</ele>
        <time>2022-09-17T15:46:18.000Z</time>
      </trkpt>
      <trkpt lat="45.11026" lon="5.27689">
        <ele>174.4</ele>
        <time>2022-09-17T15:46:19.000Z</time>
      </trkpt>
      <trkpt lat="45.11028" lon="5.27691">
        <ele>174.1</ele>
        <time>2022-09-17T15:46:20.000Z</time>
      </trkpt>
      <trkpt lat="45.1103" lon="5.27694">
        <ele>174.1</ele>
        <time>2022-09-17T15:46:21.000Z</time>
      </trkpt>
      <trkpt lat="45.11031" lon="5.27697">
        <ele>174</ele>
        <time>2022-09-17T15:46:22.000Z</time>
      </trkpt>
      <trkpt lat="45.11032" lon="5.277">
        <ele>173.8</ele>
        <time>2022-09-17T15:46:23.000Z</time>
      </trkpt>
      <trkpt lat="45.11033" lon="5.27705">
        <ele>173.1</ele>
        <time>2022-09-17T15:46:24.000Z</time>
      </trkpt>
      <trkpt lat="45.11034" lon="5.27708">
        <ele>172.9</ele>
        <time>2022-09-17T15:46:25.000Z</time>
      </trkpt>
      <trkpt lat="45.11035" lon="5.27712">
        <ele>172.8</ele>
        <time>2022-09-17T15:46:26.000Z</time>
      </trkpt>
      <trkpt lat="45.11037" lon="5.27715">
        <ele>172.7</ele>
        <time>2022-09-17T15:46:27.000Z</time>
      </trkpt>
      <trkpt lat="45.11038" lon="5.27719">
        <ele>172.8</ele>
        <time>2022-09-17T15:46:28.000Z</time>
      </trkpt>
      <trkpt lat="45.1104" lon="5.27721">
        <ele>173</ele>
        <time>2022-09-17T15:46:29.000Z</time>
      </trkpt>
      <trkpt lat="45.11042" lon="5.27725">
        <ele>173.3</ele>
        <time>2022-09-17T15:46:30.000Z</time>
      </trkpt>
      <trkpt lat="45.11044" lon="5.27728">
        <ele>173.6</ele>
        <time>2022-09-17T15:46:31.000Z</time>
      </trkpt>
      <trkpt lat="45.11046" lon="5.27731">
        <ele>174.2</ele>
        <time>2022-09-17T15:46:32.000Z</time>
      </trkpt>
      <trkpt lat="45.11047" lon="5.27733">
        <ele>174.6</ele>
        <time>2022-09-17T15:46:33.000Z</time>
      </trkpt>
      <trkpt lat="45.11049" lon="5.27735">
        <ele>174.9</ele>
        <time>2022-09-17T15:46:34.000Z</time>
      </trkpt>
      <trkpt lat="45.1105" lon="5.27738">
        <ele>175.2</ele>
        <time>2022-09-17T15:46:35.000Z</time>
      </trkpt>
      <trkpt lat="45.11051" lon="5.27742">
        <ele>175.2</ele>
        <time>2022-09-17T15:46:36.000Z</time>
      </trkpt>
      <trkpt lat="45.11053" lon="5.27745">
        <ele>175.4</ele>
        <time>2022-09-17T15:46:37.000Z</time>
      </trkpt>
      <trkpt lat="45.11054" lon="5.27748">
        <ele>175.7</ele>
        <time>2022-09-17T15:46:38.000Z</time>
      </trkpt>
      <trkpt lat="45.11055" lon="5.27751">
        <ele>175.7</ele>
        <time>2022-09-17T15:46:39.000Z</time>
      </trkpt>
      <trkpt lat="45.11057" lon="5.27754">
        <ele>175.5</ele>
        <time>2022-09-17T15:46:40.000Z</time>
      </trkpt>
      <trkpt lat="45.11058" lon="5.27757">
        <ele>175.3</ele>
        <time>2022-09-17T15:46:41.000Z</time>
      </trkpt>
      <trkpt lat="45.11059" lon="5.27761">
        <ele>175.1</ele>
        <time>2022-09-17T15:46:42.000Z</time>
      </trkpt>
      <trkpt lat="45.1106" lon="5.27764">
        <ele>174.9</ele>
        <time>2022-09-17T15:46:43.000Z</time>
      </trkpt>
      <trkpt lat="45.11061" lon="5.27767">
        <ele>174.7</ele>
        <time>2022-09-17T15:46:44.000Z</time>
      </trkpt>
      <trkpt lat="45.11062" lon="5.27771">
        <ele>174.6</ele>
        <time>2022-09-17T15:46:45.000Z</time>
      </trkpt>
      <trkpt lat="45.11063" lon="5.27775">
        <ele>174.4</ele>
        <time>2022-09-17T15:46:46.000Z</time>
      </trkpt>
      <trkpt lat="45.11064" lon="5.27778">
        <ele>174.3</ele>
        <time>2022-09-17T15:46:47.000Z</time>
      </trkpt>
      <trkpt lat="45.11065" lon="5.27782">
        <ele>174.3</ele>
        <time>2022-09-17T15:46:48.000Z</time>
      </trkpt>
      <trkpt lat="45.11066" lon="5.27786">
        <ele>174.3</ele>
        <time>2022-09-17T15:46:49.000Z</time>
      </trkpt>
      <trkpt lat="45.11067" lon="5.2779">
        <ele>174.3</ele>
        <time>2022-09-17T15:46:50.000Z</time>
      </trkpt>
      <trkpt lat="45.11068" lon="5.27794">
        <ele>174.2</ele>
        <time>2022-09-17T15:46:51.000Z</time>
      </trkpt>
      <trkpt lat="45.11069" lon="5.27798">
        <ele>174.4</ele>
        <time>2022-09-17T15:46:52.000Z</time>
      </trkpt>
      <trkpt lat="45.1107" lon="5.27803">
        <ele>174.5</ele>
        <time>2022-09-17T15:46:53.000Z</time>
      </trkpt>
      <trkpt lat="45.11072" lon="5.27807">
        <ele>174.9</ele>
        <time>2022-09-17T15:46:54.000Z</time>
      </trkpt>
      <trkpt lat="45.11073" lon="5.27811">
        <ele>175.1</ele>
        <time>2022-09-17T15:46:55.000Z</time>
      </trkpt>
      <trkpt lat="45.11074" lon="5.27815">
        <ele>175.4</ele>
        <time>2022-09-17T15:46:56.000Z</time>
      </trkpt>
      <trkpt lat="45.11076" lon="5.27819">
        <ele>175.9</ele>
        <time>2022-09-17T15:46:57.000Z</time>
      </trkpt>
      <trkpt lat="45.11078" lon="5.27823">
        <ele>176.6</ele>
        <time>2022-09-17T15:46:58.000Z</time>
      </trkpt>
      <trkpt lat="45.1108" lon="5.27826">
        <ele>177.4</ele>
        <time>2022-09-17T15:46:59.000Z</time>
      </trkpt>
      <trkpt lat="45.11081" lon="5.2783">
        <ele>178.1</ele>
        <time>2022-09-17T15:47:00.000Z</time>
      </trkpt>
      <trkpt lat="45.11083" lon="5.27833">
        <ele>179</ele>
        <time>2022-09-17T15:47:01.000Z</time>
      </trkpt>
      <trkpt lat="45.11085" lon="5.27836">
        <ele>178.8</ele>
        <time>2022-09-17T15:47:02.000Z</time>
      </trkpt>
      <trkpt lat="45.11087" lon="5.27839">
        <ele>178.7</ele>
        <time>2022-09-17T15:47:03.000Z</time>
      </trkpt>
      <trkpt lat="45.11089" lon="5.27841">
        <ele>178.8</ele>
        <time>2022-09-17T15:47:04.000Z</time>
      </trkpt>
      <trkpt lat="45.11091" lon="5.27844">
        <ele>178.8</ele>
        <time>2022-09-17T15:47:05.000Z</time>
      </trkpt>
      <trkpt lat="45.11093" lon="5.27847">
        <ele>178.7</ele>
        <time>2022-09-17T15:47:06.000Z</time>
      </trkpt>
      <trkpt lat="45.11096" lon="5.2785">
        <ele>178.8</ele>
        <time>2022-09-17T15:47:07.000Z</time>
      </trkpt>
      <trkpt lat="45.11098" lon="5.27853">
        <ele>179</ele>
        <time>2022-09-17T15:47:08.000Z</time>
      </trkpt>
      <trkpt lat="45.11101" lon="5.27855">
        <ele>179.2</ele>
        <time>2022-09-17T15:47:09.000Z</time>
      </trkpt>
      <trkpt lat="45.11102" lon="5.27857">
        <ele>179.3</ele>
        <time>2022-09-17T15:47:10.000Z</time>
      </trkpt>
      <trkpt lat="45.11105" lon="5.27861">
        <ele>179.4</ele>
        <time>2022-09-17T15:47:11.000Z</time>
      </trkpt>
      <trkpt lat="45.11106" lon="5.27864">
        <ele>179.7</ele>
        <time>2022-09-17T15:47:12.000Z</time>
      </trkpt>
      <trkpt lat="45.11108" lon="5.27868">
        <ele>180.1</ele>
        <time>2022-09-17T15:47:13.000Z</time>
      </trkpt>
      <trkpt lat="45.11111" lon="5.27872">
        <ele>181</ele>
        <time>2022-09-17T15:47:14.000Z</time>
      </trkpt>
      <trkpt lat="45.11114" lon="5.27874">
        <ele>181.4</ele>
        <time>2022-09-17T15:47:15.000Z</time>
      </trkpt>
      <trkpt lat="45.11117" lon="5.27879">
        <ele>181.9</ele>
        <time>2022-09-17T15:47:16.000Z</time>
      </trkpt>
      <trkpt lat="45.11118" lon="5.27881">
        <ele>182.1</ele>
        <time>2022-09-17T15:47:17.000Z</time>
      </trkpt>
      <trkpt lat="45.1112" lon="5.27888">
        <ele>182.5</ele>
        <time>2022-09-17T15:47:19.000Z</time>
      </trkpt>
      <trkpt lat="45.11122" lon="5.27892">
        <ele>182.3</ele>
        <time>2022-09-17T15:47:20.000Z</time>
      </trkpt>
      <trkpt lat="45.11127" lon="5.27896">
        <ele>182.2</ele>
        <time>2022-09-17T15:47:21.000Z</time>
      </trkpt>
      <trkpt lat="45.11131" lon="5.27899">
        <ele>182.7</ele>
        <time>2022-09-17T15:47:22.000Z</time>
      </trkpt>
      <trkpt lat="45.11134" lon="5.27899">
        <ele>183.3</ele>
        <time>2022-09-17T15:47:23.000Z</time>
      </trkpt>
      <trkpt lat="45.11138" lon="5.27899">
        <ele>184.3</ele>
        <time>2022-09-17T15:47:24.000Z</time>
      </trkpt>
      <trkpt lat="45.11139" lon="5.27901">
        <ele>184.2</ele>
        <time>2022-09-17T15:47:25.000Z</time>
      </trkpt>
      <trkpt lat="45.1114" lon="5.27905">
        <ele>183.8</ele>
        <time>2022-09-17T15:47:26.000Z</time>
      </trkpt>
      <trkpt lat="45.11142" lon="5.27907">
        <ele>183.7</ele>
        <time>2022-09-17T15:47:27.000Z</time>
      </trkpt>
      <trkpt lat="45.11145" lon="5.2791">
        <ele>183.7</ele>
        <time>2022-09-17T15:47:28.000Z</time>
      </trkpt>
      <trkpt lat="45.11148" lon="5.27911">
        <ele>183.9</ele>
        <time>2022-09-17T15:47:29.000Z</time>
      </trkpt>
      <trkpt lat="45.1115" lon="5.27912">
        <ele>184.1</ele>
        <time>2022-09-17T15:47:30.000Z</time>
      </trkpt>
      <trkpt lat="45.11154" lon="5.27913">
        <ele>184.4</ele>
        <time>2022-09-17T15:47:31.000Z</time>
      </trkpt>
      <trkpt lat="45.11157" lon="5.27913">
        <ele>184.8</ele>
        <time>2022-09-17T15:47:32.000Z</time>
      </trkpt>
      <trkpt lat="45.11159" lon="5.27914">
        <ele>185.1</ele>
        <time>2022-09-17T15:47:33.000Z</time>
      </trkpt>
      <trkpt lat="45.11162" lon="5.27914">
        <ele>185.4</ele>
        <time>2022-09-17T15:47:34.000Z</time>
      </trkpt>
      <trkpt lat="45.11164" lon="5.27914">
        <ele>185.8</ele>
        <time>2022-09-17T15:47:35.000Z</time>
      </trkpt>
      <trkpt lat="45.11167" lon="5.27913">
        <ele>186.1</ele>
        <time>2022-09-17T15:47:36.000Z</time>
      </trkpt>
      <trkpt lat="45.1117" lon="5.27914">
        <ele>186.2</ele>
        <time>2022-09-17T15:47:37.000Z</time>
      </trkpt>
      <trkpt lat="45.11171" lon="5.27916">
        <ele>186.2</ele>
        <time>2022-09-17T15:47:38.000Z</time>
      </trkpt>
      <trkpt lat="45.11172" lon="5.27919">
        <ele>185.8</ele>
        <time>2022-09-17T15:47:39.000Z</time>
      </trkpt>
      <trkpt lat="45.1117" lon="5.27923">
        <ele>185.3</ele>
        <time>2022-09-17T15:47:40.000Z</time>
      </trkpt>
      <trkpt lat="45.11168" lon="5.27926">
        <ele>184.7</ele>
        <time>2022-09-17T15:47:41.000Z</time>
      </trkpt>
      <trkpt lat="45.11166" lon="5.2793">
        <ele>183.9</ele>
        <time>2022-09-17T15:47:42.000Z</time>
      </trkpt>
      <trkpt lat="45.11164" lon="5.27934">
        <ele>182.5</ele>
        <time>2022-09-17T15:47:43.000Z</time>
      </trkpt>
      <trkpt lat="45.11162" lon="5.27938">
        <ele>180.9</ele>
        <time>2022-09-17T15:47:44.000Z</time>
      </trkpt>
      <trkpt lat="45.1116" lon="5.27942">
        <ele>179.4</ele>
        <time>2022-09-17T15:47:45.000Z</time>
      </trkpt>
      <trkpt lat="45.11158" lon="5.27946">
        <ele>177.6</ele>
        <time>2022-09-17T15:47:46.000Z</time>
      </trkpt>
      <trkpt lat="45.11157" lon="5.27949">
        <ele>175.5</ele>
        <time>2022-09-17T15:47:47.000Z</time>
      </trkpt>
      <trkpt lat="45.11155" lon="5.27952">
        <ele>173.7</ele>
        <time>2022-09-17T15:47:48.000Z</time>
      </trkpt>
      <trkpt lat="45.11153" lon="5.27956">
        <ele>171.6</ele>
        <time>2022-09-17T15:47:49.000Z</time>
      </trkpt>
      <trkpt lat="45.11151" lon="5.2796">
        <ele>169.6</ele>
        <time>2022-09-17T15:47:50.000Z</time>
      </trkpt>
      <trkpt lat="45.11149" lon="5.27963">
        <ele>167.7</ele>
        <time>2022-09-17T15:47:51.000Z</time>
      </trkpt>
      <trkpt lat="45.11147" lon="5.27967">
        <ele>165.7</ele>
        <time>2022-09-17T15:47:52.000Z</time>
      </trkpt>
      <trkpt lat="45.11144" lon="5.27971">
        <ele>163.9</ele>
        <time>2022-09-17T15:47:53.000Z</time>
      </trkpt>
      <trkpt lat="45.11142" lon="5.27975">
        <ele>162.8</ele>
        <time>2022-09-17T15:47:54.000Z</time>
      </trkpt>
      <trkpt lat="45.1114" lon="5.27979">
        <ele>162.2</ele>
        <time>2022-09-17T15:47:55.000Z</time>
      </trkpt>
      <trkpt lat="45.11137" lon="5.27982">
        <ele>161.9</ele>
        <time>2022-09-17T15:47:56.000Z</time>
      </trkpt>
      <trkpt lat="45.11135" lon="5.27986">
        <ele>161.9</ele>
        <time>2022-09-17T15:47:57.000Z</time>
      </trkpt>
      <trkpt lat="45.11133" lon="5.2799">
        <ele>161.8</ele>
        <time>2022-09-17T15:47:58.000Z</time>
      </trkpt>
      <trkpt lat="45.1113" lon="5.27994">
        <ele>161.7</ele>
        <time>2022-09-17T15:47:59.000Z</time>
      </trkpt>
      <trkpt lat="45.11128" lon="5.27997">
        <ele>161.6</ele>
        <time>2022-09-17T15:48:00.000Z</time>
      </trkpt>
      <trkpt lat="45.11125" lon="5.28001">
        <ele>161.5</ele>
        <time>2022-09-17T15:48:01.000Z</time>
      </trkpt>
      <trkpt lat="45.11123" lon="5.28005">
        <ele>161.5</ele>
        <time>2022-09-17T15:48:02.000Z</time>
      </trkpt>
      <trkpt lat="45.11121" lon="5.28009">
        <ele>161.6</ele>
        <time>2022-09-17T15:48:03.000Z</time>
      </trkpt>
      <trkpt lat="45.11118" lon="5.28013">
        <ele>161.6</ele>
        <time>2022-09-17T15:48:04.000Z</time>
      </trkpt>
      <trkpt lat="45.11116" lon="5.28017">
        <ele>161.7</ele>
        <time>2022-09-17T15:48:05.000Z</time>
      </trkpt>
      <trkpt lat="45.11114" lon="5.28021">
        <ele>161.8</ele>
        <time>2022-09-17T15:48:06.000Z</time>
      </trkpt>
      <trkpt lat="45.11111" lon="5.28025">
        <ele>161.9</ele>
        <time>2022-09-17T15:48:07.000Z</time>
      </trkpt>
      <trkpt lat="45.11109" lon="5.28029">
        <ele>162</ele>
        <time>2022-09-17T15:48:08.000Z</time>
      </trkpt>
      <trkpt lat="45.11107" lon="5.28033">
        <ele>162.1</ele>
        <time>2022-09-17T15:48:09.000Z</time>
      </trkpt>
      <trkpt lat="45.11104" lon="5.28037">
        <ele>162.2</ele>
        <time>2022-09-17T15:48:10.000Z</time>
      </trkpt>
      <trkpt lat="45.11102" lon="5.2804">
        <ele>162.4</ele>
        <time>2022-09-17T15:48:11.000Z</time>
      </trkpt>
      <trkpt lat="45.111" lon="5.28044">
        <ele>162.7</ele>
        <time>2022-09-17T15:48:12.000Z</time>
      </trkpt>
      <trkpt lat="45.11098" lon="5.28048">
        <ele>163</ele>
        <time>2022-09-17T15:48:13.000Z</time>
      </trkpt>
      <trkpt lat="45.11096" lon="5.28051">
        <ele>163.4</ele>
        <time>2022-09-17T15:48:14.000Z</time>
      </trkpt>
      <trkpt lat="45.11094" lon="5.28055">
        <ele>163.8</ele>
        <time>2022-09-17T15:48:15.000Z</time>
      </trkpt>
      <trkpt lat="45.11092" lon="5.28059">
        <ele>165</ele>
        <time>2022-09-17T15:48:16.000Z</time>
      </trkpt>
      <trkpt lat="45.1109" lon="5.28063">
        <ele>166.2</ele>
        <time>2022-09-17T15:48:17.000Z</time>
      </trkpt>
      <trkpt lat="45.11088" lon="5.28066">
        <ele>167.6</ele>
        <time>2022-09-17T15:48:18.000Z</time>
      </trkpt>
      <trkpt lat="45.11087" lon="5.2807">
        <ele>169.1</ele>
        <time>2022-09-17T15:48:19.000Z</time>
      </trkpt>
      <trkpt lat="45.11085" lon="5.28073">
        <ele>170.9</ele>
        <time>2022-09-17T15:48:20.000Z</time>
      </trkpt>
      <trkpt lat="45.11083" lon="5.28077">
        <ele>173.2</ele>
        <time>2022-09-17T15:48:21.000Z</time>
      </trkpt>
      <trkpt lat="45.11081" lon="5.28081">
        <ele>175.7</ele>
        <time>2022-09-17T15:48:22.000Z</time>
      </trkpt>
      <trkpt lat="45.11079" lon="5.28085">
        <ele>177.9</ele>
        <time>2022-09-17T15:48:23.000Z</time>
      </trkpt>
      <trkpt lat="45.11076" lon="5.28088">
        <ele>180.1</ele>
        <time>2022-09-17T15:48:24.000Z</time>
      </trkpt>
      <trkpt lat="45.11074" lon="5.28091">
        <ele>182.1</ele>
        <time>2022-09-17T15:48:25.000Z</time>
      </trkpt>
      <trkpt lat="45.11072" lon="5.28095">
        <ele>183.8</ele>
        <time>2022-09-17T15:48:26.000Z</time>
      </trkpt>
      <trkpt lat="45.1107" lon="5.28099">
        <ele>185.4</ele>
        <time>2022-09-17T15:48:27.000Z</time>
      </trkpt>
      <trkpt lat="45.11068" lon="5.28102">
        <ele>186.7</ele>
        <time>2022-09-17T15:48:28.000Z</time>
      </trkpt>
      <trkpt lat="45.11065" lon="5.28104">
        <ele>187.8</ele>
        <time>2022-09-17T15:48:29.000Z</time>
      </trkpt>
      <trkpt lat="45.11062" lon="5.28106">
        <ele>188.7</ele>
        <time>2022-09-17T15:48:30.000Z</time>
      </trkpt>
      <trkpt lat="45.11059" lon="5.28109">
        <ele>189.4</ele>
        <time>2022-09-17T15:48:31.000Z</time>
      </trkpt>
      <trkpt lat="45.11055" lon="5.2811">
        <ele>190</ele>
        <time>2022-09-17T15:48:32.000Z</time>
      </trkpt>
      <trkpt lat="45.11052" lon="5.28112">
        <ele>190.3</ele>
        <time>2022-09-17T15:48:33.000Z</time>
      </trkpt>
      <trkpt lat="45.11049" lon="5.28113">
        <ele>190.7</ele>
        <time>2022-09-17T15:48:34.000Z</time>
      </trkpt>
      <trkpt lat="45.11045" lon="5.28113">
        <ele>190.9</ele>
        <time>2022-09-17T15:48:35.000Z</time>
      </trkpt>
      <trkpt lat="45.11042" lon="5.28113">
        <ele>190.9</ele>
        <time>2022-09-17T15:48:36.000Z</time>
      </trkpt>
      <trkpt lat="45.11039" lon="5.28113">
        <ele>191</ele>
        <time>2022-09-17T15:48:37.000Z</time>
      </trkpt>
      <trkpt lat="45.11036" lon="5.28112">
        <ele>190.9</ele>
        <time>2022-09-17T15:48:38.000Z</time>
      </trkpt>
      <trkpt lat="45.11033" lon="5.28111">
        <ele>190.8</ele>
        <time>2022-09-17T15:48:39.000Z</time>
      </trkpt>
      <trkpt lat="45.1103" lon="5.2811">
        <ele>191</ele>
        <time>2022-09-17T15:48:40.000Z</time>
      </trkpt>
      <trkpt lat="45.11027" lon="5.28108">
        <ele>191.2</ele>
        <time>2022-09-17T15:48:41.000Z</time>
      </trkpt>
      <trkpt lat="45.11025" lon="5.28107">
        <ele>191.8</ele>
        <time>2022-09-17T15:48:42.000Z</time>
      </trkpt>
      <trkpt lat="45.11022" lon="5.28105">
        <ele>192.3</ele>
        <time>2022-09-17T15:48:43.000Z</time>
      </trkpt>
      <trkpt lat="45.1102" lon="5.28102">
        <ele>192.7</ele>
        <time>2022-09-17T15:48:44.000Z</time>
      </trkpt>
      <trkpt lat="45.11017" lon="5.281">
        <ele>193.1</ele>
        <time>2022-09-17T15:48:45.000Z</time>
      </trkpt>
      <trkpt lat="45.11014" lon="5.28097">
        <ele>193.5</ele>
        <time>2022-09-17T15:48:46.000Z</time>
      </trkpt>
      <trkpt lat="45.11012" lon="5.28095">
        <ele>193.7</ele>
        <time>2022-09-17T15:48:47.000Z</time>
      </trkpt>
      <trkpt lat="45.11009" lon="5.28093">
        <ele>193.9</ele>
        <time>2022-09-17T15:48:48.000Z</time>
      </trkpt>
      <trkpt lat="45.11007" lon="5.28091">
        <ele>194</ele>
        <time>2022-09-17T15:48:49.000Z</time>
      </trkpt>
      <trkpt lat="45.11005" lon="5.28089">
        <ele>194.1</ele>
        <time>2022-09-17T15:48:50.000Z</time>
      </trkpt>
      <trkpt lat="45.11003" lon="5.28086">
        <ele>194.1</ele>
        <time>2022-09-17T15:48:51.000Z</time>
      </trkpt>
      <trkpt lat="45.11001" lon="5.28084">
        <ele>194</ele>
        <time>2022-09-17T15:48:52.000Z</time>
      </trkpt>
      <trkpt lat="45.10999" lon="5.28081">
        <ele>194.6</ele>
        <time>2022-09-17T15:48:53.000Z</time>
      </trkpt>
      <trkpt lat="45.10996" lon="5.28079">
        <ele>195.3</ele>
        <time>2022-09-17T15:48:54.000Z</time>
      </trkpt>
      <trkpt lat="45.10994" lon="5.28077">
        <ele>195.8</ele>
        <time>2022-09-17T15:48:55.000Z</time>
      </trkpt>
      <trkpt lat="45.10991" lon="5.28075">
        <ele>196.2</ele>
        <time>2022-09-17T15:48:56.000Z</time>
      </trkpt>
      <trkpt lat="45.10989" lon="5.28072">
        <ele>196.6</ele>
        <time>2022-09-17T15:48:57.000Z</time>
      </trkpt>
      <trkpt lat="45.10987" lon="5.2807">
        <ele>196.7</ele>
        <time>2022-09-17T15:48:58.000Z</time>
      </trkpt>
      <trkpt lat="45.10984" lon="5.28067">
        <ele>196.8</ele>
        <time>2022-09-17T15:48:59.000Z</time>
      </trkpt>
      <trkpt lat="45.10982" lon="5.28064">
        <ele>196.7</ele>
        <time>2022-09-17T15:49:00.000Z</time>
      </trkpt>
      <trkpt lat="45.1098" lon="5.28062">
        <ele>196.4</ele>
        <time>2022-09-17T15:49:01.000Z</time>
      </trkpt>
      <trkpt lat="45.10977" lon="5.2806">
        <ele>196</ele>
        <time>2022-09-17T15:49:02.000Z</time>
      </trkpt>
      <trkpt lat="45.10975" lon="5.28056">
        <ele>195.4</ele>
        <time>2022-09-17T15:49:03.000Z</time>
      </trkpt>
      <trkpt lat="45.10973" lon="5.28053">
        <ele>195.3</ele>
        <time>2022-09-17T15:49:04.000Z</time>
      </trkpt>
      <trkpt lat="45.1097" lon="5.2805">
        <ele>195.9</ele>
        <time>2022-09-17T15:49:05.000Z</time>
      </trkpt>
      <trkpt lat="45.10968" lon="5.28047">
        <ele>196.4</ele>
        <time>2022-09-17T15:49:06.000Z</time>
      </trkpt>
      <trkpt lat="45.10965" lon="5.28044">
        <ele>196.8</ele>
        <time>2022-09-17T15:49:07.000Z</time>
      </trkpt>
      <trkpt lat="45.10962" lon="5.28041">
        <ele>197.1</ele>
        <time>2022-09-17T15:49:08.000Z</time>
      </trkpt>
      <trkpt lat="45.10959" lon="5.28039">
        <ele>197.2</ele>
        <time>2022-09-17T15:49:09.000Z</time>
      </trkpt>
      <trkpt lat="45.10957" lon="5.28035">
        <ele>197.1</ele>
        <time>2022-09-17T15:49:10.000Z</time>
      </trkpt>
      <trkpt lat="45.10954" lon="5.28032">
        <ele>197</ele>
        <time>2022-09-17T15:49:11.000Z</time>
      </trkpt>
      <trkpt lat="45.10952" lon="5.2803">
        <ele>196.7</ele>
        <time>2022-09-17T15:49:12.000Z</time>
      </trkpt>
      <trkpt lat="45.10949" lon="5.28027">
        <ele>196.4</ele>
        <time>2022-09-17T15:49:13.000Z</time>
      </trkpt>
      <trkpt lat="45.10947" lon="5.28024">
        <ele>196.4</ele>
        <time>2022-09-17T15:49:14.000Z</time>
      </trkpt>
      <trkpt lat="45.10944" lon="5.2802">
        <ele>196.6</ele>
        <time>2022-09-17T15:49:15.000Z</time>
      </trkpt>
      <trkpt lat="45.10941" lon="5.28017">
        <ele>197.2</ele>
        <time>2022-09-17T15:49:16.000Z</time>
      </trkpt>
      <trkpt lat="45.10938" lon="5.28013">
        <ele>197.7</ele>
        <time>2022-09-17T15:49:17.000Z</time>
      </trkpt>
      <trkpt lat="45.10935" lon="5.28009">
        <ele>198.1</ele>
        <time>2022-09-17T15:49:18.000Z</time>
      </trkpt>
      <trkpt lat="45.10932" lon="5.28006">
        <ele>198.4</ele>
        <time>2022-09-17T15:49:19.000Z</time>
      </trkpt>
      <trkpt lat="45.10929" lon="5.28003">
        <ele>198.6</ele>
        <time>2022-09-17T15:49:20.000Z</time>
      </trkpt>
      <trkpt lat="45.10926" lon="5.27999">
        <ele>198.6</ele>
        <time>2022-09-17T15:49:21.000Z</time>
      </trkpt>
      <trkpt lat="45.10923" lon="5.27994">
        <ele>198.7</ele>
        <time>2022-09-17T15:49:22.000Z</time>
      </trkpt>
      <trkpt lat="45.1092" lon="5.27991">
        <ele>198.8</ele>
        <time>2022-09-17T15:49:23.000Z</time>
      </trkpt>
      <trkpt lat="45.10918" lon="5.27987">
        <ele>199</ele>
        <time>2022-09-17T15:49:24.000Z</time>
      </trkpt>
      <trkpt lat="45.10915" lon="5.27984">
        <ele>199.1</ele>
        <time>2022-09-17T15:49:25.000Z</time>
      </trkpt>
      <trkpt lat="45.10912" lon="5.2798">
        <ele>199.2</ele>
        <time>2022-09-17T15:49:26.000Z</time>
      </trkpt>
      <trkpt lat="45.10909" lon="5.27976">
        <ele>199.3</ele>
        <time>2022-09-17T15:49:27.000Z</time>
      </trkpt>
      <trkpt lat="45.10907" lon="5.27973">
        <ele>199.4</ele>
        <time>2022-09-17T15:49:28.000Z</time>
      </trkpt>
      <trkpt lat="45.10904" lon="5.2797">
        <ele>199.4</ele>
        <time>2022-09-17T15:49:29.000Z</time>
      </trkpt>
      <trkpt lat="45.10902" lon="5.27966">
        <ele>199.3</ele>
        <time>2022-09-17T15:49:30.000Z</time>
      </trkpt>
      <trkpt lat="45.10899" lon="5.27963">
        <ele>199.3</ele>
        <time>2022-09-17T15:49:31.000Z</time>
      </trkpt>
      <trkpt lat="45.10896" lon="5.2796">
        <ele>199.3</ele>
        <time>2022-09-17T15:49:32.000Z</time>
      </trkpt>
      <trkpt lat="45.10893" lon="5.27956">
        <ele>199.3</ele>
        <time>2022-09-17T15:49:33.000Z</time>
      </trkpt>
      <trkpt lat="45.1089" lon="5.27953">
        <ele>199.3</ele>
        <time>2022-09-17T15:49:34.000Z</time>
      </trkpt>
      <trkpt lat="45.10887" lon="5.2795">
        <ele>199.3</ele>
        <time>2022-09-17T15:49:35.000Z</time>
      </trkpt>
      <trkpt lat="45.10884" lon="5.27946">
        <ele>199.4</ele>
        <time>2022-09-17T15:49:36.000Z</time>
      </trkpt>
      <trkpt lat="45.10881" lon="5.27942">
        <ele>199.5</ele>
        <time>2022-09-17T15:49:37.000Z</time>
      </trkpt>
      <trkpt lat="45.10877" lon="5.27939">
        <ele>199.5</ele>
        <time>2022-09-17T15:49:38.000Z</time>
      </trkpt>
      <trkpt lat="45.10874" lon="5.27935">
        <ele>199.6</ele>
        <time>2022-09-17T15:49:39.000Z</time>
      </trkpt>
      <trkpt lat="45.10871" lon="5.27932">
        <ele>199.5</ele>
        <time>2022-09-17T15:49:40.000Z</time>
      </trkpt>
      <trkpt lat="45.10868" lon="5.27928">
        <ele>199.5</ele>
        <time>2022-09-17T15:49:41.000Z</time>
      </trkpt>
      <trkpt lat="45.10865" lon="5.27924">
        <ele>199.4</ele>
        <time>2022-09-17T15:49:42.000Z</time>
      </trkpt>
      <trkpt lat="45.10862" lon="5.27921">
        <ele>199.2</ele>
        <time>2022-09-17T15:49:43.000Z</time>
      </trkpt>
      <trkpt lat="45.10859" lon="5.27917">
        <ele>199.2</ele>
        <time>2022-09-17T15:49:44.000Z</time>
      </trkpt>
      <trkpt lat="45.10856" lon="5.27914">
        <ele>199.4</ele>
        <time>2022-09-17T15:49:45.000Z</time>
      </trkpt>
      <trkpt lat="45.10853" lon="5.2791">
        <ele>199.5</ele>
        <time>2022-09-17T15:49:46.000Z</time>
      </trkpt>
      <trkpt lat="45.1085" lon="5.27906">
        <ele>199.7</ele>
        <time>2022-09-17T15:49:47.000Z</time>
      </trkpt>
      <trkpt lat="45.10846" lon="5.27902">
        <ele>199.8</ele>
        <time>2022-09-17T15:49:48.000Z</time>
      </trkpt>
      <trkpt lat="45.10843" lon="5.27897">
        <ele>199.9</ele>
        <time>2022-09-17T15:49:49.000Z</time>
      </trkpt>
      <trkpt lat="45.10839" lon="5.27893">
        <ele>199.9</ele>
        <time>2022-09-17T15:49:50.000Z</time>
      </trkpt>
      <trkpt lat="45.10835" lon="5.2789">
        <ele>200</ele>
        <time>2022-09-17T15:49:51.000Z</time>
      </trkpt>
      <trkpt lat="45.10831" lon="5.27885">
        <ele>200</ele>
        <time>2022-09-17T15:49:52.000Z</time>
      </trkpt>
      <trkpt lat="45.10827" lon="5.2788">
        <ele>199.9</ele>
        <time>2022-09-17T15:49:53.000Z</time>
      </trkpt>
      <trkpt lat="45.10823" lon="5.27876">
        <ele>199.9</ele>
        <time>2022-09-17T15:49:54.000Z</time>
      </trkpt>
      <trkpt lat="45.1082" lon="5.27871">
        <ele>199.8</ele>
        <time>2022-09-17T15:49:55.000Z</time>
      </trkpt>
      <trkpt lat="45.10816" lon="5.27866">
        <ele>199.8</ele>
        <time>2022-09-17T15:49:56.000Z</time>
      </trkpt>
      <trkpt lat="45.10812" lon="5.27861">
        <ele>199.8</ele>
        <time>2022-09-17T15:49:57.000Z</time>
      </trkpt>
      <trkpt lat="45.10808" lon="5.27856">
        <ele>200.1</ele>
        <time>2022-09-17T15:49:58.000Z</time>
      </trkpt>
      <trkpt lat="45.10805" lon="5.27851">
        <ele>200.4</ele>
        <time>2022-09-17T15:49:59.000Z</time>
      </trkpt>
      <trkpt lat="45.10801" lon="5.27847">
        <ele>200.6</ele>
        <time>2022-09-17T15:50:00.000Z</time>
      </trkpt>
      <trkpt lat="45.10797" lon="5.27842">
        <ele>200.8</ele>
        <time>2022-09-17T15:50:01.000Z</time>
      </trkpt>
      <trkpt lat="45.10793" lon="5.27838">
        <ele>200.9</ele>
        <time>2022-09-17T15:50:02.000Z</time>
      </trkpt>
      <trkpt lat="45.10789" lon="5.27834">
        <ele>201</ele>
        <time>2022-09-17T15:50:03.000Z</time>
      </trkpt>
      <trkpt lat="45.10786" lon="5.27829">
        <ele>200.8</ele>
        <time>2022-09-17T15:50:04.000Z</time>
      </trkpt>
      <trkpt lat="45.10781" lon="5.27825">
        <ele>200.6</ele>
        <time>2022-09-17T15:50:05.000Z</time>
      </trkpt>
      <trkpt lat="45.10778" lon="5.2782">
        <ele>200.5</ele>
        <time>2022-09-17T15:50:06.000Z</time>
      </trkpt>
      <trkpt lat="45.10774" lon="5.27816">
        <ele>200.3</ele>
        <time>2022-09-17T15:50:07.000Z</time>
      </trkpt>
      <trkpt lat="45.1077" lon="5.27812">
        <ele>200.2</ele>
        <time>2022-09-17T15:50:08.000Z</time>
      </trkpt>
      <trkpt lat="45.10767" lon="5.27809">
        <ele>200.1</ele>
        <time>2022-09-17T15:50:09.000Z</time>
      </trkpt>
      <trkpt lat="45.10764" lon="5.27805">
        <ele>200</ele>
        <time>2022-09-17T15:50:10.000Z</time>
      </trkpt>
      <trkpt lat="45.10761" lon="5.27801">
        <ele>199.9</ele>
        <time>2022-09-17T15:50:11.000Z</time>
      </trkpt>
      <trkpt lat="45.10757" lon="5.27797">
        <ele>199.9</ele>
        <time>2022-09-17T15:50:12.000Z</time>
      </trkpt>
      <trkpt lat="45.10753" lon="5.27792">
        <ele>199.9</ele>
        <time>2022-09-17T15:50:13.000Z</time>
      </trkpt>
      <trkpt lat="45.1075" lon="5.27788">
        <ele>200</ele>
        <time>2022-09-17T15:50:14.000Z</time>
      </trkpt>
      <trkpt lat="45.10745" lon="5.27783">
        <ele>200.1</ele>
        <time>2022-09-17T15:50:15.000Z</time>
      </trkpt>
      <trkpt lat="45.10741" lon="5.27778">
        <ele>200.3</ele>
        <time>2022-09-17T15:50:16.000Z</time>
      </trkpt>
      <trkpt lat="45.10737" lon="5.27773">
        <ele>200.5</ele>
        <time>2022-09-17T15:50:17.000Z</time>
      </trkpt>
      <trkpt lat="45.10733" lon="5.27768">
        <ele>200.6</ele>
        <time>2022-09-17T15:50:18.000Z</time>
      </trkpt>
      <trkpt lat="45.10729" lon="5.27764">
        <ele>200.8</ele>
        <time>2022-09-17T15:50:19.000Z</time>
      </trkpt>
      <trkpt lat="45.10725" lon="5.27759">
        <ele>200.9</ele>
        <time>2022-09-17T15:50:20.000Z</time>
      </trkpt>
      <trkpt lat="45.10722" lon="5.27755">
        <ele>201</ele>
        <time>2022-09-17T15:50:21.000Z</time>
      </trkpt>
      <trkpt lat="45.10718" lon="5.27751">
        <ele>201</ele>
        <time>2022-09-17T15:50:22.000Z</time>
      </trkpt>
      <trkpt lat="45.10715" lon="5.27747">
        <ele>200.9</ele>
        <time>2022-09-17T15:50:23.000Z</time>
      </trkpt>
      <trkpt lat="45.10712" lon="5.27743">
        <ele>200.8</ele>
        <time>2022-09-17T15:50:24.000Z</time>
      </trkpt>
      <trkpt lat="45.10708" lon="5.27739">
        <ele>200.8</ele>
        <time>2022-09-17T15:50:25.000Z</time>
      </trkpt>
      <trkpt lat="45.10705" lon="5.27735">
        <ele>200.8</ele>
        <time>2022-09-17T15:50:26.000Z</time>
      </trkpt>
      <trkpt lat="45.10701" lon="5.27731">
        <ele>200.8</ele>
        <time>2022-09-17T15:50:27.000Z</time>
      </trkpt>
      <trkpt lat="45.10697" lon="5.27727">
        <ele>200.9</ele>
        <time>2022-09-17T15:50:28.000Z</time>
      </trkpt>
      <trkpt lat="45.10694" lon="5.27723">
        <ele>201</ele>
        <time>2022-09-17T15:50:29.000Z</time>
      </trkpt>
      <trkpt lat="45.1069" lon="5.27719">
        <ele>201</ele>
        <time>2022-09-17T15:50:30.000Z</time>
      </trkpt>
      <trkpt lat="45.10686" lon="5.27715">
        <ele>201</ele>
        <time>2022-09-17T15:50:31.000Z</time>
      </trkpt>
      <trkpt lat="45.10682" lon="5.27711">
        <ele>201</ele>
        <time>2022-09-17T15:50:32.000Z</time>
      </trkpt>
      <trkpt lat="45.10678" lon="5.27707">
        <ele>201</ele>
        <time>2022-09-17T15:50:33.000Z</time>
      </trkpt>
      <trkpt lat="45.10674" lon="5.27704">
        <ele>201</ele>
        <time>2022-09-17T15:50:34.000Z</time>
      </trkpt>
      <trkpt lat="45.10669" lon="5.27704">
        <ele>201</ele>
        <time>2022-09-17T15:50:35.000Z</time>
      </trkpt>
      <trkpt lat="45.10664" lon="5.27706">
        <ele>201</ele>
        <time>2022-09-17T15:50:36.000Z</time>
      </trkpt>
      <trkpt lat="45.10662" lon="5.27711">
        <ele>200.9</ele>
        <time>2022-09-17T15:50:37.000Z</time>
      </trkpt>
      <trkpt lat="45.10661" lon="5.27717">
        <ele>200.8</ele>
        <time>2022-09-17T15:50:38.000Z</time>
      </trkpt>
      <trkpt lat="45.10661" lon="5.27723">
        <ele>200.8</ele>
        <time>2022-09-17T15:50:39.000Z</time>
      </trkpt>
      <trkpt lat="45.10662" lon="5.27729">
        <ele>200.9</ele>
        <time>2022-09-17T15:50:40.000Z</time>
      </trkpt>
      <trkpt lat="45.10663" lon="5.27736">
        <ele>200.9</ele>
        <time>2022-09-17T15:50:41.000Z</time>
      </trkpt>
      <trkpt lat="45.10664" lon="5.27742">
        <ele>201</ele>
        <time>2022-09-17T15:50:42.000Z</time>
      </trkpt>
      <trkpt lat="45.10664" lon="5.27748">
        <ele>201</ele>
        <time>2022-09-17T15:50:43.000Z</time>
      </trkpt>
      <trkpt lat="45.10665" lon="5.27755">
        <ele>201.2</ele>
        <time>2022-09-17T15:50:44.000Z</time>
      </trkpt>
      <trkpt lat="45.10666" lon="5.27761">
        <ele>201.4</ele>
        <time>2022-09-17T15:50:45.000Z</time>
      </trkpt>
      <trkpt lat="45.10667" lon="5.27768">
        <ele>201.7</ele>
        <time>2022-09-17T15:50:46.000Z</time>
      </trkpt>
      <trkpt lat="45.10668" lon="5.27775">
        <ele>201.9</ele>
        <time>2022-09-17T15:50:47.000Z</time>
      </trkpt>
      <trkpt lat="45.10668" lon="5.27782">
        <ele>201.9</ele>
        <time>2022-09-17T15:50:48.000Z</time>
      </trkpt>
      <trkpt lat="45.10669" lon="5.27789">
        <ele>201.9</ele>
        <time>2022-09-17T15:50:49.000Z</time>
      </trkpt>
      <trkpt lat="45.1067" lon="5.27796">
        <ele>201.9</ele>
        <time>2022-09-17T15:50:50.000Z</time>
      </trkpt>
      <trkpt lat="45.10671" lon="5.27803">
        <ele>201.9</ele>
        <time>2022-09-17T15:50:51.000Z</time>
      </trkpt>
      <trkpt lat="45.10671" lon="5.2781">
        <ele>201.9</ele>
        <time>2022-09-17T15:50:52.000Z</time>
      </trkpt>
      <trkpt lat="45.10672" lon="5.27818">
        <ele>201.9</ele>
        <time>2022-09-17T15:50:53.000Z</time>
      </trkpt>
      <trkpt lat="45.10672" lon="5.27825">
        <ele>201.9</ele>
        <time>2022-09-17T15:50:54.000Z</time>
      </trkpt>
      <trkpt lat="45.10673" lon="5.27832">
        <ele>202</ele>
        <time>2022-09-17T15:50:55.000Z</time>
      </trkpt>
      <trkpt lat="45.10674" lon="5.27838">
        <ele>202</ele>
        <time>2022-09-17T15:50:56.000Z</time>
      </trkpt>
      <trkpt lat="45.10674" lon="5.27845">
        <ele>202</ele>
        <time>2022-09-17T15:50:57.000Z</time>
      </trkpt>
      <trkpt lat="45.10675" lon="5.27853">
        <ele>202</ele>
        <time>2022-09-17T15:50:58.000Z</time>
      </trkpt>
      <trkpt lat="45.10676" lon="5.2786">
        <ele>202</ele>
        <time>2022-09-17T15:50:59.000Z</time>
      </trkpt>
      <trkpt lat="45.10677" lon="5.27867">
        <ele>202</ele>
        <time>2022-09-17T15:51:00.000Z</time>
      </trkpt>
      <trkpt lat="45.10678" lon="5.27874">
        <ele>202</ele>
        <time>2022-09-17T15:51:01.000Z</time>
      </trkpt>
      <trkpt lat="45.10679" lon="5.27881">
        <ele>202</ele>
        <time>2022-09-17T15:51:02.000Z</time>
      </trkpt>
      <trkpt lat="45.10679" lon="5.27889">
        <ele>202</ele>
        <time>2022-09-17T15:51:03.000Z</time>
      </trkpt>
      <trkpt lat="45.1068" lon="5.27897">
        <ele>202</ele>
        <time>2022-09-17T15:51:04.000Z</time>
      </trkpt>
      <trkpt lat="45.1068" lon="5.27905">
        <ele>202</ele>
        <time>2022-09-17T15:51:05.000Z</time>
      </trkpt>
      <trkpt lat="45.10681" lon="5.27912">
        <ele>202</ele>
        <time>2022-09-17T15:51:06.000Z</time>
      </trkpt>
      <trkpt lat="45.10682" lon="5.2792">
        <ele>202</ele>
        <time>2022-09-17T15:51:07.000Z</time>
      </trkpt>
      <trkpt lat="45.10682" lon="5.27928">
        <ele>202</ele>
        <time>2022-09-17T15:51:08.000Z</time>
      </trkpt>
      <trkpt lat="45.10683" lon="5.27936">
        <ele>202</ele>
        <time>2022-09-17T15:51:09.000Z</time>
      </trkpt>
      <trkpt lat="45.10684" lon="5.27943">
        <ele>202</ele>
        <time>2022-09-17T15:51:10.000Z</time>
      </trkpt>
      <trkpt lat="45.10684" lon="5.27951">
        <ele>202</ele>
        <time>2022-09-17T15:51:11.000Z</time>
      </trkpt>
      <trkpt lat="45.10685" lon="5.27958">
        <ele>202</ele>
        <time>2022-09-17T15:51:12.000Z</time>
      </trkpt>
      <trkpt lat="45.10685" lon="5.27966">
        <ele>202</ele>
        <time>2022-09-17T15:51:13.000Z</time>
      </trkpt>
      <trkpt lat="45.10686" lon="5.27974">
        <ele>202</ele>
        <time>2022-09-17T15:51:14.000Z</time>
      </trkpt>
      <trkpt lat="45.10686" lon="5.27982">
        <ele>202</ele>
        <time>2022-09-17T15:51:15.000Z</time>
      </trkpt>
      <trkpt lat="45.10687" lon="5.2799">
        <ele>202</ele>
        <time>2022-09-17T15:51:16.000Z</time>
      </trkpt>
      <trkpt lat="45.10687" lon="5.27998">
        <ele>202</ele>
        <time>2022-09-17T15:51:17.000Z</time>
      </trkpt>
      <trkpt lat="45.10688" lon="5.28007">
        <ele>201.9</ele>
        <time>2022-09-17T15:51:18.000Z</time>
      </trkpt>
      <trkpt lat="45.10689" lon="5.28015">
        <ele>201.9</ele>
        <time>2022-09-17T15:51:19.000Z</time>
      </trkpt>
      <trkpt lat="45.1069" lon="5.28024">
        <ele>201.8</ele>
        <time>2022-09-17T15:51:20.000Z</time>
      </trkpt>
      <trkpt lat="45.1069" lon="5.28032">
        <ele>201.8</ele>
        <time>2022-09-17T15:51:21.000Z</time>
      </trkpt>
      <trkpt lat="45.1069" lon="5.28039">
        <ele>201.8</ele>
        <time>2022-09-17T15:51:22.000Z</time>
      </trkpt>
      <trkpt lat="45.10691" lon="5.28047">
        <ele>201.9</ele>
        <time>2022-09-17T15:51:23.000Z</time>
      </trkpt>
      <trkpt lat="45.10691" lon="5.28054">
        <ele>201.9</ele>
        <time>2022-09-17T15:51:24.000Z</time>
      </trkpt>
      <trkpt lat="45.10692" lon="5.28061">
        <ele>201.9</ele>
        <time>2022-09-17T15:51:25.000Z</time>
      </trkpt>
      <trkpt lat="45.10692" lon="5.28068">
        <ele>201.9</ele>
        <time>2022-09-17T15:51:26.000Z</time>
      </trkpt>
      <trkpt lat="45.10693" lon="5.28075">
        <ele>201.9</ele>
        <time>2022-09-17T15:51:27.000Z</time>
      </trkpt>
      <trkpt lat="45.10694" lon="5.28083">
        <ele>201.9</ele>
        <time>2022-09-17T15:51:28.000Z</time>
      </trkpt>
      <trkpt lat="45.10694" lon="5.2809">
        <ele>202</ele>
        <time>2022-09-17T15:51:29.000Z</time>
      </trkpt>
      <trkpt lat="45.10695" lon="5.28098">
        <ele>202</ele>
        <time>2022-09-17T15:51:30.000Z</time>
      </trkpt>
      <trkpt lat="45.10695" lon="5.28106">
        <ele>201.9</ele>
        <time>2022-09-17T15:51:31.000Z</time>
      </trkpt>
      <trkpt lat="45.10696" lon="5.28114">
        <ele>202</ele>
        <time>2022-09-17T15:51:32.000Z</time>
      </trkpt>
      <trkpt lat="45.10697" lon="5.28122">
        <ele>202.1</ele>
        <time>2022-09-17T15:51:33.000Z</time>
      </trkpt>
      <trkpt lat="45.10698" lon="5.28129">
        <ele>202.3</ele>
        <time>2022-09-17T15:51:34.000Z</time>
      </trkpt>
      <trkpt lat="45.10698" lon="5.28137">
        <ele>202.4</ele>
        <time>2022-09-17T15:51:35.000Z</time>
      </trkpt>
      <trkpt lat="45.10699" lon="5.28145">
        <ele>202.4</ele>
        <time>2022-09-17T15:51:36.000Z</time>
      </trkpt>
      <trkpt lat="45.10699" lon="5.28153">
        <ele>202.3</ele>
        <time>2022-09-17T15:51:37.000Z</time>
      </trkpt>
      <trkpt lat="45.107" lon="5.28161">
        <ele>202.2</ele>
        <time>2022-09-17T15:51:38.000Z</time>
      </trkpt>
      <trkpt lat="45.107" lon="5.2817">
        <ele>202.2</ele>
        <time>2022-09-17T15:51:39.000Z</time>
      </trkpt>
      <trkpt lat="45.10701" lon="5.28178">
        <ele>202.2</ele>
        <time>2022-09-17T15:51:40.000Z</time>
      </trkpt>
      <trkpt lat="45.10702" lon="5.28186">
        <ele>202.1</ele>
        <time>2022-09-17T15:51:41.000Z</time>
      </trkpt>
      <trkpt lat="45.10703" lon="5.28194">
        <ele>202.1</ele>
        <time>2022-09-17T15:51:42.000Z</time>
      </trkpt>
      <trkpt lat="45.10703" lon="5.28201">
        <ele>202.2</ele>
        <time>2022-09-17T15:51:43.000Z</time>
      </trkpt>
      <trkpt lat="45.10704" lon="5.28208">
        <ele>202.3</ele>
        <time>2022-09-17T15:51:44.000Z</time>
      </trkpt>
      <trkpt lat="45.10704" lon="5.28216">
        <ele>202.5</ele>
        <time>2022-09-17T15:51:45.000Z</time>
      </trkpt>
      <trkpt lat="45.10704" lon="5.28222">
        <ele>202.6</ele>
        <time>2022-09-17T15:51:46.000Z</time>
      </trkpt>
      <trkpt lat="45.10705" lon="5.28229">
        <ele>203.2</ele>
        <time>2022-09-17T15:51:47.000Z</time>
      </trkpt>
      <trkpt lat="45.10705" lon="5.28236">
        <ele>203.9</ele>
        <time>2022-09-17T15:51:48.000Z</time>
      </trkpt>
      <trkpt lat="45.10705" lon="5.28243">
        <ele>204.5</ele>
        <time>2022-09-17T15:51:49.000Z</time>
      </trkpt>
      <trkpt lat="45.10705" lon="5.28249">
        <ele>205.2</ele>
        <time>2022-09-17T15:51:50.000Z</time>
      </trkpt>
      <trkpt lat="45.10705" lon="5.28256">
        <ele>205.7</ele>
        <time>2022-09-17T15:51:51.000Z</time>
      </trkpt>
      <trkpt lat="45.10706" lon="5.28261">
        <ele>206</ele>
        <time>2022-09-17T15:51:52.000Z</time>
      </trkpt>
      <trkpt lat="45.10706" lon="5.28267">
        <ele>206.4</ele>
        <time>2022-09-17T15:51:53.000Z</time>
      </trkpt>
      <trkpt lat="45.10707" lon="5.28272">
        <ele>206.8</ele>
        <time>2022-09-17T15:51:54.000Z</time>
      </trkpt>
      <trkpt lat="45.10708" lon="5.28278">
        <ele>207.1</ele>
        <time>2022-09-17T15:51:55.000Z</time>
      </trkpt>
      <trkpt lat="45.10709" lon="5.28284">
        <ele>207.2</ele>
        <time>2022-09-17T15:51:56.000Z</time>
      </trkpt>
      <trkpt lat="45.10709" lon="5.2829">
        <ele>207.3</ele>
        <time>2022-09-17T15:51:57.000Z</time>
      </trkpt>
      <trkpt lat="45.1071" lon="5.28296">
        <ele>207.5</ele>
        <time>2022-09-17T15:51:58.000Z</time>
      </trkpt>
      <trkpt lat="45.1071" lon="5.28303">
        <ele>207.6</ele>
        <time>2022-09-17T15:51:59.000Z</time>
      </trkpt>
      <trkpt lat="45.10711" lon="5.28309">
        <ele>207.8</ele>
        <time>2022-09-17T15:52:00.000Z</time>
      </trkpt>
      <trkpt lat="45.10712" lon="5.28316">
        <ele>208</ele>
        <time>2022-09-17T15:52:01.000Z</time>
      </trkpt>
      <trkpt lat="45.10712" lon="5.28323">
        <ele>208.3</ele>
        <time>2022-09-17T15:52:02.000Z</time>
      </trkpt>
      <trkpt lat="45.10713" lon="5.2833">
        <ele>208.5</ele>
        <time>2022-09-17T15:52:03.000Z</time>
      </trkpt>
      <trkpt lat="45.10714" lon="5.28337">
        <ele>208.7</ele>
        <time>2022-09-17T15:52:04.000Z</time>
      </trkpt>
      <trkpt lat="45.10715" lon="5.28345">
        <ele>208.8</ele>
        <time>2022-09-17T15:52:05.000Z</time>
      </trkpt>
      <trkpt lat="45.10716" lon="5.28352">
        <ele>209</ele>
        <time>2022-09-17T15:52:06.000Z</time>
      </trkpt>
      <trkpt lat="45.10716" lon="5.28359">
        <ele>209.1</ele>
        <time>2022-09-17T15:52:07.000Z</time>
      </trkpt>
      <trkpt lat="45.10717" lon="5.28366">
        <ele>209.3</ele>
        <time>2022-09-17T15:52:08.000Z</time>
      </trkpt>
      <trkpt lat="45.10717" lon="5.28374">
        <ele>209.6</ele>
        <time>2022-09-17T15:52:09.000Z</time>
      </trkpt>
      <trkpt lat="45.10718" lon="5.28381">
        <ele>209.8</ele>
        <time>2022-09-17T15:52:10.000Z</time>
      </trkpt>
      <trkpt lat="45.10718" lon="5.28388">
        <ele>210</ele>
        <time>2022-09-17T15:52:11.000Z</time>
      </trkpt>
      <trkpt lat="45.10719" lon="5.28394">
        <ele>210</ele>
        <time>2022-09-17T15:52:12.000Z</time>
      </trkpt>
      <trkpt lat="45.10719" lon="5.28401">
        <ele>209.9</ele>
        <time>2022-09-17T15:52:13.000Z</time>
      </trkpt>
      <trkpt lat="45.10719" lon="5.28408">
        <ele>209.9</ele>
        <time>2022-09-17T15:52:14.000Z</time>
      </trkpt>
      <trkpt lat="45.1072" lon="5.28415">
        <ele>209.9</ele>
        <time>2022-09-17T15:52:15.000Z</time>
      </trkpt>
      <trkpt lat="45.10721" lon="5.28422">
        <ele>210.1</ele>
        <time>2022-09-17T15:52:16.000Z</time>
      </trkpt>
      <trkpt lat="45.10721" lon="5.28429">
        <ele>210.4</ele>
        <time>2022-09-17T15:52:17.000Z</time>
      </trkpt>
      <trkpt lat="45.10722" lon="5.28437">
        <ele>210.7</ele>
        <time>2022-09-17T15:52:18.000Z</time>
      </trkpt>
      <trkpt lat="45.10723" lon="5.28444">
        <ele>210.9</ele>
        <time>2022-09-17T15:52:19.000Z</time>
      </trkpt>
      <trkpt lat="45.10723" lon="5.28452">
        <ele>210.4</ele>
        <time>2022-09-17T15:52:20.000Z</time>
      </trkpt>
      <trkpt lat="45.10724" lon="5.2846">
        <ele>209.9</ele>
        <time>2022-09-17T15:52:21.000Z</time>
      </trkpt>
      <trkpt lat="45.10724" lon="5.28467">
        <ele>209.5</ele>
        <time>2022-09-17T15:52:22.000Z</time>
      </trkpt>
      <trkpt lat="45.10725" lon="5.28475">
        <ele>209.3</ele>
        <time>2022-09-17T15:52:23.000Z</time>
      </trkpt>
      <trkpt lat="45.10725" lon="5.28483">
        <ele>209.2</ele>
        <time>2022-09-17T15:52:24.000Z</time>
      </trkpt>
      <trkpt lat="45.10726" lon="5.2849">
        <ele>209.3</ele>
        <time>2022-09-17T15:52:25.000Z</time>
      </trkpt>
      <trkpt lat="45.10726" lon="5.28497">
        <ele>209.5</ele>
        <time>2022-09-17T15:52:26.000Z</time>
      </trkpt>
      <trkpt lat="45.10727" lon="5.28504">
        <ele>209.6</ele>
        <time>2022-09-17T15:52:27.000Z</time>
      </trkpt>
      <trkpt lat="45.10727" lon="5.28511">
        <ele>209.6</ele>
        <time>2022-09-17T15:52:28.000Z</time>
      </trkpt>
      <trkpt lat="45.10728" lon="5.28518">
        <ele>209.6</ele>
        <time>2022-09-17T15:52:29.000Z</time>
      </trkpt>
      <trkpt lat="45.10729" lon="5.28525">
        <ele>209.7</ele>
        <time>2022-09-17T15:52:30.000Z</time>
      </trkpt>
      <trkpt lat="45.1073" lon="5.28531">
        <ele>209.7</ele>
        <time>2022-09-17T15:52:31.000Z</time>
      </trkpt>
      <trkpt lat="45.1073" lon="5.28537">
        <ele>209.6</ele>
        <time>2022-09-17T15:52:32.000Z</time>
      </trkpt>
      <trkpt lat="45.10731" lon="5.28543">
        <ele>209.5</ele>
        <time>2022-09-17T15:52:33.000Z</time>
      </trkpt>
      <trkpt lat="45.10732" lon="5.2855">
        <ele>209.4</ele>
        <time>2022-09-17T15:52:34.000Z</time>
      </trkpt>
      <trkpt lat="45.10732" lon="5.28556">
        <ele>209.4</ele>
        <time>2022-09-17T15:52:35.000Z</time>
      </trkpt>
      <trkpt lat="45.10733" lon="5.28563">
        <ele>209.5</ele>
        <time>2022-09-17T15:52:36.000Z</time>
      </trkpt>
      <trkpt lat="45.10734" lon="5.2857">
        <ele>209.6</ele>
        <time>2022-09-17T15:52:37.000Z</time>
      </trkpt>
      <trkpt lat="45.10734" lon="5.28576">
        <ele>209.7</ele>
        <time>2022-09-17T15:52:38.000Z</time>
      </trkpt>
      <trkpt lat="45.10734" lon="5.28583">
        <ele>209.8</ele>
        <time>2022-09-17T15:52:39.000Z</time>
      </trkpt>
      <trkpt lat="45.10734" lon="5.2859">
        <ele>209.7</ele>
        <time>2022-09-17T15:52:40.000Z</time>
      </trkpt>
      <trkpt lat="45.10734" lon="5.28597">
        <ele>209.4</ele>
        <time>2022-09-17T15:52:41.000Z</time>
      </trkpt>
      <trkpt lat="45.10734" lon="5.28604">
        <ele>209.2</ele>
        <time>2022-09-17T15:52:42.000Z</time>
      </trkpt>
      <trkpt lat="45.10735" lon="5.28611">
        <ele>209</ele>
        <time>2022-09-17T15:52:43.000Z</time>
      </trkpt>
      <trkpt lat="45.10735" lon="5.28619">
        <ele>208.9</ele>
        <time>2022-09-17T15:52:44.000Z</time>
      </trkpt>
      <trkpt lat="45.10736" lon="5.28626">
        <ele>208.7</ele>
        <time>2022-09-17T15:52:45.000Z</time>
      </trkpt>
      <trkpt lat="45.10737" lon="5.28633">
        <ele>208.6</ele>
        <time>2022-09-17T15:52:46.000Z</time>
      </trkpt>
      <trkpt lat="45.10738" lon="5.28641">
        <ele>208.6</ele>
        <time>2022-09-17T15:52:47.000Z</time>
      </trkpt>
      <trkpt lat="45.10739" lon="5.28649">
        <ele>208.6</ele>
        <time>2022-09-17T15:52:48.000Z</time>
      </trkpt>
      <trkpt lat="45.10739" lon="5.28657">
        <ele>208.6</ele>
        <time>2022-09-17T15:52:49.000Z</time>
      </trkpt>
      <trkpt lat="45.10739" lon="5.28665">
        <ele>208.6</ele>
        <time>2022-09-17T15:52:50.000Z</time>
      </trkpt>
      <trkpt lat="45.1074" lon="5.28673">
        <ele>208.6</ele>
        <time>2022-09-17T15:52:51.000Z</time>
      </trkpt>
      <trkpt lat="45.1074" lon="5.28681">
        <ele>208.6</ele>
        <time>2022-09-17T15:52:52.000Z</time>
      </trkpt>
      <trkpt lat="45.1074" lon="5.2869">
        <ele>208.7</ele>
        <time>2022-09-17T15:52:53.000Z</time>
      </trkpt>
      <trkpt lat="45.10741" lon="5.28698">
        <ele>208.7</ele>
        <time>2022-09-17T15:52:54.000Z</time>
      </trkpt>
      <trkpt lat="45.10742" lon="5.28705">
        <ele>208.7</ele>
        <time>2022-09-17T15:52:55.000Z</time>
      </trkpt>
      <trkpt lat="45.10742" lon="5.28713">
        <ele>208.7</ele>
        <time>2022-09-17T15:52:56.000Z</time>
      </trkpt>
      <trkpt lat="45.10743" lon="5.28721">
        <ele>208.7</ele>
        <time>2022-09-17T15:52:57.000Z</time>
      </trkpt>
      <trkpt lat="45.10743" lon="5.28729">
        <ele>208.6</ele>
        <time>2022-09-17T15:52:58.000Z</time>
      </trkpt>
      <trkpt lat="45.10744" lon="5.28737">
        <ele>208.4</ele>
        <time>2022-09-17T15:52:59.000Z</time>
      </trkpt>
      <trkpt lat="45.10744" lon="5.28745">
        <ele>208.1</ele>
        <time>2022-09-17T15:53:00.000Z</time>
      </trkpt>
      <trkpt lat="45.10745" lon="5.28753">
        <ele>208</ele>
        <time>2022-09-17T15:53:01.000Z</time>
      </trkpt>
      <trkpt lat="45.10745" lon="5.28761">
        <ele>208.1</ele>
        <time>2022-09-17T15:53:02.000Z</time>
      </trkpt>
      <trkpt lat="45.10746" lon="5.28769">
        <ele>208.1</ele>
        <time>2022-09-17T15:53:03.000Z</time>
      </trkpt>
      <trkpt lat="45.10746" lon="5.28777">
        <ele>208.1</ele>
        <time>2022-09-17T15:53:04.000Z</time>
      </trkpt>
      <trkpt lat="45.10747" lon="5.28785">
        <ele>208.1</ele>
        <time>2022-09-17T15:53:05.000Z</time>
      </trkpt>
      <trkpt lat="45.10747" lon="5.28794">
        <ele>208.1</ele>
        <time>2022-09-17T15:53:06.000Z</time>
      </trkpt>
      <trkpt lat="45.10748" lon="5.28801">
        <ele>208.1</ele>
        <time>2022-09-17T15:53:07.000Z</time>
      </trkpt>
      <trkpt lat="45.10748" lon="5.28809">
        <ele>208.2</ele>
        <time>2022-09-17T15:53:08.000Z</time>
      </trkpt>
      <trkpt lat="45.10749" lon="5.28818">
        <ele>208.4</ele>
        <time>2022-09-17T15:53:09.000Z</time>
      </trkpt>
      <trkpt lat="45.1075" lon="5.28826">
        <ele>208.7</ele>
        <time>2022-09-17T15:53:10.000Z</time>
      </trkpt>
      <trkpt lat="45.1075" lon="5.28834">
        <ele>209</ele>
        <time>2022-09-17T15:53:11.000Z</time>
      </trkpt>
      <trkpt lat="45.10751" lon="5.28842">
        <ele>209</ele>
        <time>2022-09-17T15:53:12.000Z</time>
      </trkpt>
      <trkpt lat="45.10752" lon="5.2885">
        <ele>209</ele>
        <time>2022-09-17T15:53:13.000Z</time>
      </trkpt>
      <trkpt lat="45.10752" lon="5.28859">
        <ele>209</ele>
        <time>2022-09-17T15:53:14.000Z</time>
      </trkpt>
      <trkpt lat="45.10753" lon="5.28867">
        <ele>209</ele>
        <time>2022-09-17T15:53:15.000Z</time>
      </trkpt>
      <trkpt lat="45.10754" lon="5.28875">
        <ele>209</ele>
        <time>2022-09-17T15:53:16.000Z</time>
      </trkpt>
      <trkpt lat="45.10754" lon="5.28883">
        <ele>209</ele>
        <time>2022-09-17T15:53:17.000Z</time>
      </trkpt>
      <trkpt lat="45.10754" lon="5.28892">
        <ele>209</ele>
        <time>2022-09-17T15:53:18.000Z</time>
      </trkpt>
      <trkpt lat="45.10755" lon="5.289">
        <ele>209</ele>
        <time>2022-09-17T15:53:19.000Z</time>
      </trkpt>
      <trkpt lat="45.10755" lon="5.28908">
        <ele>209</ele>
        <time>2022-09-17T15:53:20.000Z</time>
      </trkpt>
      <trkpt lat="45.10756" lon="5.28916">
        <ele>209</ele>
        <time>2022-09-17T15:53:21.000Z</time>
      </trkpt>
      <trkpt lat="45.10757" lon="5.28924">
        <ele>209.2</ele>
        <time>2022-09-17T15:53:22.000Z</time>
      </trkpt>
      <trkpt lat="45.10758" lon="5.28932">
        <ele>209.4</ele>
        <time>2022-09-17T15:53:23.000Z</time>
      </trkpt>
      <trkpt lat="45.10759" lon="5.2894">
        <ele>209.6</ele>
        <time>2022-09-17T15:53:24.000Z</time>
      </trkpt>
      <trkpt lat="45.1076" lon="5.28949">
        <ele>209.6</ele>
        <time>2022-09-17T15:53:25.000Z</time>
      </trkpt>
      <trkpt lat="45.1076" lon="5.28957">
        <ele>209.3</ele>
        <time>2022-09-17T15:53:26.000Z</time>
      </trkpt>
      <trkpt lat="45.10761" lon="5.28965">
        <ele>209.2</ele>
        <time>2022-09-17T15:53:27.000Z</time>
      </trkpt>
      <trkpt lat="45.10762" lon="5.28974">
        <ele>209</ele>
        <time>2022-09-17T15:53:28.000Z</time>
      </trkpt>
      <trkpt lat="45.10763" lon="5.28982">
        <ele>209</ele>
        <time>2022-09-17T15:53:29.000Z</time>
      </trkpt>
      <trkpt lat="45.10765" lon="5.28991">
        <ele>209</ele>
        <time>2022-09-17T15:53:30.000Z</time>
      </trkpt>
      <trkpt lat="45.10766" lon="5.28999">
        <ele>209</ele>
        <time>2022-09-17T15:53:31.000Z</time>
      </trkpt>
      <trkpt lat="45.10766" lon="5.29007">
        <ele>209</ele>
        <time>2022-09-17T15:53:32.000Z</time>
      </trkpt>
      <trkpt lat="45.10766" lon="5.29015">
        <ele>209</ele>
        <time>2022-09-17T15:53:33.000Z</time>
      </trkpt>
      <trkpt lat="45.10767" lon="5.29023">
        <ele>209</ele>
        <time>2022-09-17T15:53:34.000Z</time>
      </trkpt>
      <trkpt lat="45.10767" lon="5.29031">
        <ele>209.1</ele>
        <time>2022-09-17T15:53:35.000Z</time>
      </trkpt>
      <trkpt lat="45.10768" lon="5.2904">
        <ele>209.4</ele>
        <time>2022-09-17T15:53:36.000Z</time>
      </trkpt>
      <trkpt lat="45.10769" lon="5.29048">
        <ele>209.7</ele>
        <time>2022-09-17T15:53:37.000Z</time>
      </trkpt>
      <trkpt lat="45.10769" lon="5.29056">
        <ele>210</ele>
        <time>2022-09-17T15:53:38.000Z</time>
      </trkpt>
      <trkpt lat="45.1077" lon="5.29064">
        <ele>210.1</ele>
        <time>2022-09-17T15:53:39.000Z</time>
      </trkpt>
      <trkpt lat="45.1077" lon="5.29071">
        <ele>210.1</ele>
        <time>2022-09-17T15:53:40.000Z</time>
      </trkpt>
      <trkpt lat="45.10771" lon="5.29078">
        <ele>210.2</ele>
        <time>2022-09-17T15:53:41.000Z</time>
      </trkpt>
      <trkpt lat="45.10772" lon="5.29086">
        <ele>210.3</ele>
        <time>2022-09-17T15:53:42.000Z</time>
      </trkpt>
      <trkpt lat="45.10772" lon="5.29094">
        <ele>210.6</ele>
        <time>2022-09-17T15:53:43.000Z</time>
      </trkpt>
      <trkpt lat="45.10773" lon="5.29101">
        <ele>210.8</ele>
        <time>2022-09-17T15:53:44.000Z</time>
      </trkpt>
      <trkpt lat="45.10774" lon="5.29108">
        <ele>211</ele>
        <time>2022-09-17T15:53:45.000Z</time>
      </trkpt>
      <trkpt lat="45.10774" lon="5.29115">
        <ele>211.1</ele>
        <time>2022-09-17T15:53:46.000Z</time>
      </trkpt>
      <trkpt lat="45.10774" lon="5.29121">
        <ele>211.1</ele>
        <time>2022-09-17T15:53:47.000Z</time>
      </trkpt>
      <trkpt lat="45.10774" lon="5.29128">
        <ele>211.1</ele>
        <time>2022-09-17T15:53:48.000Z</time>
      </trkpt>
      <trkpt lat="45.10775" lon="5.29134">
        <ele>211.1</ele>
        <time>2022-09-17T15:53:49.000Z</time>
      </trkpt>
      <trkpt lat="45.10776" lon="5.29142">
        <ele>211.1</ele>
        <time>2022-09-17T15:53:50.000Z</time>
      </trkpt>
      <trkpt lat="45.10777" lon="5.29148">
        <ele>211</ele>
        <time>2022-09-17T15:53:51.000Z</time>
      </trkpt>
      <trkpt lat="45.10777" lon="5.29155">
        <ele>211</ele>
        <time>2022-09-17T15:53:52.000Z</time>
      </trkpt>
      <trkpt lat="45.10778" lon="5.29162">
        <ele>211</ele>
        <time>2022-09-17T15:53:53.000Z</time>
      </trkpt>
      <trkpt lat="45.10779" lon="5.29169">
        <ele>211</ele>
        <time>2022-09-17T15:53:54.000Z</time>
      </trkpt>
      <trkpt lat="45.10779" lon="5.29176">
        <ele>211</ele>
        <time>2022-09-17T15:53:55.000Z</time>
      </trkpt>
      <trkpt lat="45.1078" lon="5.29184">
        <ele>211</ele>
        <time>2022-09-17T15:53:56.000Z</time>
      </trkpt>
      <trkpt lat="45.10781" lon="5.29191">
        <ele>211</ele>
        <time>2022-09-17T15:53:57.000Z</time>
      </trkpt>
      <trkpt lat="45.10782" lon="5.29199">
        <ele>211.1</ele>
        <time>2022-09-17T15:53:58.000Z</time>
      </trkpt>
      <trkpt lat="45.10783" lon="5.29207">
        <ele>211.4</ele>
        <time>2022-09-17T15:53:59.000Z</time>
      </trkpt>
      <trkpt lat="45.10783" lon="5.29215">
        <ele>211.6</ele>
        <time>2022-09-17T15:54:00.000Z</time>
      </trkpt>
      <trkpt lat="45.10784" lon="5.29222">
        <ele>211.8</ele>
        <time>2022-09-17T15:54:01.000Z</time>
      </trkpt>
      <trkpt lat="45.10784" lon="5.29229">
        <ele>211.8</ele>
        <time>2022-09-17T15:54:02.000Z</time>
      </trkpt>
      <trkpt lat="45.10785" lon="5.29237">
        <ele>211.7</ele>
        <time>2022-09-17T15:54:03.000Z</time>
      </trkpt>
      <trkpt lat="45.10786" lon="5.29243">
        <ele>211.7</ele>
        <time>2022-09-17T15:54:04.000Z</time>
      </trkpt>
      <trkpt lat="45.10787" lon="5.2925">
        <ele>211.7</ele>
        <time>2022-09-17T15:54:05.000Z</time>
      </trkpt>
      <trkpt lat="45.10788" lon="5.29257">
        <ele>211.6</ele>
        <time>2022-09-17T15:54:06.000Z</time>
      </trkpt>
      <trkpt lat="45.10789" lon="5.29263">
        <ele>211.6</ele>
        <time>2022-09-17T15:54:07.000Z</time>
      </trkpt>
      <trkpt lat="45.1079" lon="5.29271">
        <ele>211.6</ele>
        <time>2022-09-17T15:54:08.000Z</time>
      </trkpt>
      <trkpt lat="45.1079" lon="5.29278">
        <ele>211.6</ele>
        <time>2022-09-17T15:54:09.000Z</time>
      </trkpt>
      <trkpt lat="45.1079" lon="5.29285">
        <ele>211.4</ele>
        <time>2022-09-17T15:54:10.000Z</time>
      </trkpt>
      <trkpt lat="45.1079" lon="5.29291">
        <ele>211.3</ele>
        <time>2022-09-17T15:54:11.000Z</time>
      </trkpt>
      <trkpt lat="45.1079" lon="5.29297">
        <ele>211.2</ele>
        <time>2022-09-17T15:54:12.000Z</time>
      </trkpt>
      <trkpt lat="45.1079" lon="5.29303">
        <ele>211</ele>
        <time>2022-09-17T15:54:13.000Z</time>
      </trkpt>
      <trkpt lat="45.10791" lon="5.29309">
        <ele>211</ele>
        <time>2022-09-17T15:54:14.000Z</time>
      </trkpt>
      <trkpt lat="45.10791" lon="5.29315">
        <ele>211</ele>
        <time>2022-09-17T15:54:15.000Z</time>
      </trkpt>
      <trkpt lat="45.10791" lon="5.29321">
        <ele>211</ele>
        <time>2022-09-17T15:54:16.000Z</time>
      </trkpt>
      <trkpt lat="45.10792" lon="5.29327">
        <ele>211</ele>
        <time>2022-09-17T15:54:17.000Z</time>
      </trkpt>
      <trkpt lat="45.10793" lon="5.29335">
        <ele>211</ele>
        <time>2022-09-17T15:54:18.000Z</time>
      </trkpt>
      <trkpt lat="45.10793" lon="5.29342">
        <ele>211</ele>
        <time>2022-09-17T15:54:19.000Z</time>
      </trkpt>
      <trkpt lat="45.10793" lon="5.2935">
        <ele>211</ele>
        <time>2022-09-17T15:54:20.000Z</time>
      </trkpt>
      <trkpt lat="45.10794" lon="5.29357">
        <ele>211</ele>
        <time>2022-09-17T15:54:21.000Z</time>
      </trkpt>
      <trkpt lat="45.10794" lon="5.29365">
        <ele>211</ele>
        <time>2022-09-17T15:54:22.000Z</time>
      </trkpt>
      <trkpt lat="45.10795" lon="5.29372">
        <ele>211</ele>
        <time>2022-09-17T15:54:23.000Z</time>
      </trkpt>
      <trkpt lat="45.10796" lon="5.2938">
        <ele>211</ele>
        <time>2022-09-17T15:54:24.000Z</time>
      </trkpt>
      <trkpt lat="45.10796" lon="5.29388">
        <ele>211</ele>
        <time>2022-09-17T15:54:25.000Z</time>
      </trkpt>
      <trkpt lat="45.10797" lon="5.29396">
        <ele>211.2</ele>
        <time>2022-09-17T15:54:26.000Z</time>
      </trkpt>
      <trkpt lat="45.10797" lon="5.29404">
        <ele>211.4</ele>
        <time>2022-09-17T15:54:27.000Z</time>
      </trkpt>
      <trkpt lat="45.10798" lon="5.29413">
        <ele>211.6</ele>
        <time>2022-09-17T15:54:28.000Z</time>
      </trkpt>
      <trkpt lat="45.10799" lon="5.29421">
        <ele>211.6</ele>
        <time>2022-09-17T15:54:29.000Z</time>
      </trkpt>
      <trkpt lat="45.108" lon="5.2943">
        <ele>211.4</ele>
        <time>2022-09-17T15:54:30.000Z</time>
      </trkpt>
      <trkpt lat="45.10801" lon="5.29438">
        <ele>211.2</ele>
        <time>2022-09-17T15:54:31.000Z</time>
      </trkpt>
      <trkpt lat="45.10802" lon="5.29447">
        <ele>211</ele>
        <time>2022-09-17T15:54:32.000Z</time>
      </trkpt>
      <trkpt lat="45.10803" lon="5.29455">
        <ele>211</ele>
        <time>2022-09-17T15:54:33.000Z</time>
      </trkpt>
      <trkpt lat="45.10804" lon="5.29463">
        <ele>211</ele>
        <time>2022-09-17T15:54:34.000Z</time>
      </trkpt>
      <trkpt lat="45.10805" lon="5.29472">
        <ele>211</ele>
        <time>2022-09-17T15:54:35.000Z</time>
      </trkpt>
      <trkpt lat="45.10805" lon="5.29481">
        <ele>211</ele>
        <time>2022-09-17T15:54:36.000Z</time>
      </trkpt>
      <trkpt lat="45.10806" lon="5.29491">
        <ele>211</ele>
        <time>2022-09-17T15:54:37.000Z</time>
      </trkpt>
      <trkpt lat="45.10807" lon="5.295">
        <ele>211</ele>
        <time>2022-09-17T15:54:38.000Z</time>
      </trkpt>
      <trkpt lat="45.10808" lon="5.29509">
        <ele>211</ele>
        <time>2022-09-17T15:54:39.000Z</time>
      </trkpt>
      <trkpt lat="45.10808" lon="5.29518">
        <ele>211</ele>
        <time>2022-09-17T15:54:40.000Z</time>
      </trkpt>
      <trkpt lat="45.10809" lon="5.29527">
        <ele>211</ele>
        <time>2022-09-17T15:54:41.000Z</time>
      </trkpt>
      <trkpt lat="45.10809" lon="5.29537">
        <ele>211</ele>
        <time>2022-09-17T15:54:42.000Z</time>
      </trkpt>
      <trkpt lat="45.1081" lon="5.29546">
        <ele>211</ele>
        <time>2022-09-17T15:54:43.000Z</time>
      </trkpt>
      <trkpt lat="45.1081" lon="5.29556">
        <ele>211</ele>
        <time>2022-09-17T15:54:44.000Z</time>
      </trkpt>
      <trkpt lat="45.10811" lon="5.29565">
        <ele>211</ele>
        <time>2022-09-17T15:54:45.000Z</time>
      </trkpt>
      <trkpt lat="45.10812" lon="5.29575">
        <ele>211</ele>
        <time>2022-09-17T15:54:46.000Z</time>
      </trkpt>
      <trkpt lat="45.10813" lon="5.29585">
        <ele>211</ele>
        <time>2022-09-17T15:54:47.000Z</time>
      </trkpt>
      <trkpt lat="45.10814" lon="5.29594">
        <ele>211</ele>
        <time>2022-09-17T15:54:48.000Z</time>
      </trkpt>
      <trkpt lat="45.10814" lon="5.29604">
        <ele>211</ele>
        <time>2022-09-17T15:54:49.000Z</time>
      </trkpt>
      <trkpt lat="45.10815" lon="5.29613">
        <ele>211</ele>
        <time>2022-09-17T15:54:50.000Z</time>
      </trkpt>
      <trkpt lat="45.10816" lon="5.29622">
        <ele>211</ele>
        <time>2022-09-17T15:54:51.000Z</time>
      </trkpt>
      <trkpt lat="45.10816" lon="5.2963">
        <ele>211</ele>
        <time>2022-09-17T15:54:52.000Z</time>
      </trkpt>
      <trkpt lat="45.10817" lon="5.29639">
        <ele>211</ele>
        <time>2022-09-17T15:54:53.000Z</time>
      </trkpt>
      <trkpt lat="45.10817" lon="5.29647">
        <ele>211</ele>
        <time>2022-09-17T15:54:54.000Z</time>
      </trkpt>
      <trkpt lat="45.10818" lon="5.29655">
        <ele>211</ele>
        <time>2022-09-17T15:54:55.000Z</time>
      </trkpt>
      <trkpt lat="45.10818" lon="5.29662">
        <ele>211</ele>
        <time>2022-09-17T15:54:56.000Z</time>
      </trkpt>
      <trkpt lat="45.10819" lon="5.2967">
        <ele>211</ele>
        <time>2022-09-17T15:54:57.000Z</time>
      </trkpt>
      <trkpt lat="45.1082" lon="5.29678">
        <ele>211</ele>
        <time>2022-09-17T15:54:58.000Z</time>
      </trkpt>
      <trkpt lat="45.1082" lon="5.29686">
        <ele>211</ele>
        <time>2022-09-17T15:54:59.000Z</time>
      </trkpt>
      <trkpt lat="45.10821" lon="5.29693">
        <ele>211</ele>
        <time>2022-09-17T15:55:00.000Z</time>
      </trkpt>
      <trkpt lat="45.10821" lon="5.29701">
        <ele>211</ele>
        <time>2022-09-17T15:55:01.000Z</time>
      </trkpt>
      <trkpt lat="45.10822" lon="5.29709">
        <ele>211</ele>
        <time>2022-09-17T15:55:02.000Z</time>
      </trkpt>
      <trkpt lat="45.10822" lon="5.29718">
        <ele>211</ele>
        <time>2022-09-17T15:55:03.000Z</time>
      </trkpt>
      <trkpt lat="45.10823" lon="5.29726">
        <ele>211</ele>
        <time>2022-09-17T15:55:04.000Z</time>
      </trkpt>
      <trkpt lat="45.10823" lon="5.29734">
        <ele>211</ele>
        <time>2022-09-17T15:55:05.000Z</time>
      </trkpt>
      <trkpt lat="45.10824" lon="5.29742">
        <ele>211</ele>
        <time>2022-09-17T15:55:06.000Z</time>
      </trkpt>
      <trkpt lat="45.10825" lon="5.29751">
        <ele>211</ele>
        <time>2022-09-17T15:55:07.000Z</time>
      </trkpt>
      <trkpt lat="45.10826" lon="5.29759">
        <ele>211</ele>
        <time>2022-09-17T15:55:08.000Z</time>
      </trkpt>
      <trkpt lat="45.10827" lon="5.29767">
        <ele>211</ele>
        <time>2022-09-17T15:55:09.000Z</time>
      </trkpt>
      <trkpt lat="45.10828" lon="5.29775">
        <ele>211</ele>
        <time>2022-09-17T15:55:10.000Z</time>
      </trkpt>
      <trkpt lat="45.10829" lon="5.29783">
        <ele>211</ele>
        <time>2022-09-17T15:55:11.000Z</time>
      </trkpt>
      <trkpt lat="45.1083" lon="5.29791">
        <ele>211</ele>
        <time>2022-09-17T15:55:12.000Z</time>
      </trkpt>
      <trkpt lat="45.1083" lon="5.29799">
        <ele>211</ele>
        <time>2022-09-17T15:55:13.000Z</time>
      </trkpt>
      <trkpt lat="45.10831" lon="5.29806">
        <ele>211</ele>
        <time>2022-09-17T15:55:14.000Z</time>
      </trkpt>
      <trkpt lat="45.10831" lon="5.29814">
        <ele>211</ele>
        <time>2022-09-17T15:55:15.000Z</time>
      </trkpt>
      <trkpt lat="45.10832" lon="5.29823">
        <ele>211</ele>
        <time>2022-09-17T15:55:16.000Z</time>
      </trkpt>
      <trkpt lat="45.10832" lon="5.29831">
        <ele>211</ele>
        <time>2022-09-17T15:55:17.000Z</time>
      </trkpt>
      <trkpt lat="45.10833" lon="5.29839">
        <ele>211</ele>
        <time>2022-09-17T15:55:18.000Z</time>
      </trkpt>
      <trkpt lat="45.10833" lon="5.29847">
        <ele>211</ele>
        <time>2022-09-17T15:55:19.000Z</time>
      </trkpt>
      <trkpt lat="45.10834" lon="5.29856">
        <ele>211</ele>
        <time>2022-09-17T15:55:20.000Z</time>
      </trkpt>
      <trkpt lat="45.10835" lon="5.29865">
        <ele>211</ele>
        <time>2022-09-17T15:55:21.000Z</time>
      </trkpt>
      <trkpt lat="45.10836" lon="5.29873">
        <ele>211</ele>
        <time>2022-09-17T15:55:22.000Z</time>
      </trkpt>
      <trkpt lat="45.10836" lon="5.29881">
        <ele>211</ele>
        <time>2022-09-17T15:55:23.000Z</time>
      </trkpt>
      <trkpt lat="45.10837" lon="5.2989">
        <ele>211</ele>
        <time>2022-09-17T15:55:24.000Z</time>
      </trkpt>
      <trkpt lat="45.10837" lon="5.29898">
        <ele>211</ele>
        <time>2022-09-17T15:55:25.000Z</time>
      </trkpt>
      <trkpt lat="45.10838" lon="5.29906">
        <ele>211</ele>
        <time>2022-09-17T15:55:26.000Z</time>
      </trkpt>
      <trkpt lat="45.10839" lon="5.29915">
        <ele>211</ele>
        <time>2022-09-17T15:55:27.000Z</time>
      </trkpt>
      <trkpt lat="45.10839" lon="5.29923">
        <ele>211.2</ele>
        <time>2022-09-17T15:55:28.000Z</time>
      </trkpt>
      <trkpt lat="45.1084" lon="5.29932">
        <ele>211.5</ele>
        <time>2022-09-17T15:55:29.000Z</time>
      </trkpt>
      <trkpt lat="45.10841" lon="5.2994">
        <ele>211.8</ele>
        <time>2022-09-17T15:55:30.000Z</time>
      </trkpt>
      <trkpt lat="45.10841" lon="5.29948">
        <ele>211.9</ele>
        <time>2022-09-17T15:55:31.000Z</time>
      </trkpt>
      <trkpt lat="45.10842" lon="5.29957">
        <ele>211.6</ele>
        <time>2022-09-17T15:55:32.000Z</time>
      </trkpt>
      <trkpt lat="45.10843" lon="5.29965">
        <ele>211.3</ele>
        <time>2022-09-17T15:55:33.000Z</time>
      </trkpt>
      <trkpt lat="45.10843" lon="5.29974">
        <ele>211</ele>
        <time>2022-09-17T15:55:34.000Z</time>
      </trkpt>
      <trkpt lat="45.10844" lon="5.29982">
        <ele>211</ele>
        <time>2022-09-17T15:55:35.000Z</time>
      </trkpt>
      <trkpt lat="45.10845" lon="5.2999">
        <ele>211</ele>
        <time>2022-09-17T15:55:36.000Z</time>
      </trkpt>
      <trkpt lat="45.10846" lon="5.29999">
        <ele>211</ele>
        <time>2022-09-17T15:55:37.000Z</time>
      </trkpt>
      <trkpt lat="45.10847" lon="5.30007">
        <ele>211</ele>
        <time>2022-09-17T15:55:38.000Z</time>
      </trkpt>
      <trkpt lat="45.10848" lon="5.30016">
        <ele>211</ele>
        <time>2022-09-17T15:55:39.000Z</time>
      </trkpt>
      <trkpt lat="45.10849" lon="5.30025">
        <ele>211</ele>
        <time>2022-09-17T15:55:40.000Z</time>
      </trkpt>
      <trkpt lat="45.1085" lon="5.30034">
        <ele>211</ele>
        <time>2022-09-17T15:55:41.000Z</time>
      </trkpt>
      <trkpt lat="45.1085" lon="5.30042">
        <ele>211</ele>
        <time>2022-09-17T15:55:42.000Z</time>
      </trkpt>
      <trkpt lat="45.10851" lon="5.30051">
        <ele>211</ele>
        <time>2022-09-17T15:55:43.000Z</time>
      </trkpt>
      <trkpt lat="45.10851" lon="5.3006">
        <ele>211</ele>
        <time>2022-09-17T15:55:44.000Z</time>
      </trkpt>
      <trkpt lat="45.10852" lon="5.30069">
        <ele>211</ele>
        <time>2022-09-17T15:55:45.000Z</time>
      </trkpt>
      <trkpt lat="45.10853" lon="5.30078">
        <ele>211</ele>
        <time>2022-09-17T15:55:46.000Z</time>
      </trkpt>
      <trkpt lat="45.10854" lon="5.30086">
        <ele>211</ele>
        <time>2022-09-17T15:55:47.000Z</time>
      </trkpt>
      <trkpt lat="45.10854" lon="5.30095">
        <ele>211</ele>
        <time>2022-09-17T15:55:48.000Z</time>
      </trkpt>
      <trkpt lat="45.10854" lon="5.30103">
        <ele>211</ele>
        <time>2022-09-17T15:55:49.000Z</time>
      </trkpt>
      <trkpt lat="45.10855" lon="5.30111">
        <ele>211</ele>
        <time>2022-09-17T15:55:50.000Z</time>
      </trkpt>
      <trkpt lat="45.10855" lon="5.30119">
        <ele>211</ele>
        <time>2022-09-17T15:55:51.000Z</time>
      </trkpt>
      <trkpt lat="45.10856" lon="5.30127">
        <ele>211</ele>
        <time>2022-09-17T15:55:52.000Z</time>
      </trkpt>
      <trkpt lat="45.10856" lon="5.30136">
        <ele>211</ele>
        <time>2022-09-17T15:55:53.000Z</time>
      </trkpt>
      <trkpt lat="45.10856" lon="5.30144">
        <ele>211</ele>
        <time>2022-09-17T15:55:54.000Z</time>
      </trkpt>
      <trkpt lat="45.10857" lon="5.30153">
        <ele>211</ele>
        <time>2022-09-17T15:55:55.000Z</time>
      </trkpt>
      <trkpt lat="45.10857" lon="5.30161">
        <ele>211</ele>
        <time>2022-09-17T15:55:56.000Z</time>
      </trkpt>
      <trkpt lat="45.10858" lon="5.30169">
        <ele>211</ele>
        <time>2022-09-17T15:55:57.000Z</time>
      </trkpt>
      <trkpt lat="45.10859" lon="5.30177">
        <ele>211</ele>
        <time>2022-09-17T15:55:58.000Z</time>
      </trkpt>
      <trkpt lat="45.1086" lon="5.30186">
        <ele>211</ele>
        <time>2022-09-17T15:55:59.000Z</time>
      </trkpt>
      <trkpt lat="45.1086" lon="5.30195">
        <ele>211</ele>
        <time>2022-09-17T15:56:00.000Z</time>
      </trkpt>
      <trkpt lat="45.10861" lon="5.30203">
        <ele>211</ele>
        <time>2022-09-17T15:56:01.000Z</time>
      </trkpt>
      <trkpt lat="45.10862" lon="5.30211">
        <ele>211</ele>
        <time>2022-09-17T15:56:02.000Z</time>
      </trkpt>
      <trkpt lat="45.10863" lon="5.30219">
        <ele>211</ele>
        <time>2022-09-17T15:56:03.000Z</time>
      </trkpt>
      <trkpt lat="45.10864" lon="5.30228">
        <ele>211</ele>
        <time>2022-09-17T15:56:04.000Z</time>
      </trkpt>
      <trkpt lat="45.10865" lon="5.30236">
        <ele>210.9</ele>
        <time>2022-09-17T15:56:05.000Z</time>
      </trkpt>
      <trkpt lat="45.10866" lon="5.30245">
        <ele>210.9</ele>
        <time>2022-09-17T15:56:06.000Z</time>
      </trkpt>
      <trkpt lat="45.10866" lon="5.30254">
        <ele>210.8</ele>
        <time>2022-09-17T15:56:07.000Z</time>
      </trkpt>
      <trkpt lat="45.10868" lon="5.30262">
        <ele>210.9</ele>
        <time>2022-09-17T15:56:08.000Z</time>
      </trkpt>
      <trkpt lat="45.10869" lon="5.3027">
        <ele>210.9</ele>
        <time>2022-09-17T15:56:09.000Z</time>
      </trkpt>
      <trkpt lat="45.1087" lon="5.30278">
        <ele>211</ele>
        <time>2022-09-17T15:56:10.000Z</time>
      </trkpt>
      <trkpt lat="45.10871" lon="5.30285">
        <ele>211.2</ele>
        <time>2022-09-17T15:56:11.000Z</time>
      </trkpt>
      <trkpt lat="45.10871" lon="5.3029">
        <ele>211.3</ele>
        <time>2022-09-17T15:56:12.000Z</time>
      </trkpt>
      <trkpt lat="45.10871" lon="5.30297">
        <ele>211.4</ele>
        <time>2022-09-17T15:56:13.000Z</time>
      </trkpt>
      <trkpt lat="45.10871" lon="5.30304">
        <ele>211.6</ele>
        <time>2022-09-17T15:56:14.000Z</time>
      </trkpt>
      <trkpt lat="45.10871" lon="5.30311">
        <ele>211.6</ele>
        <time>2022-09-17T15:56:15.000Z</time>
      </trkpt>
      <trkpt lat="45.10872" lon="5.30319">
        <ele>211.6</ele>
        <time>2022-09-17T15:56:16.000Z</time>
      </trkpt>
      <trkpt lat="45.10872" lon="5.30326">
        <ele>211.6</ele>
        <time>2022-09-17T15:56:17.000Z</time>
      </trkpt>
      <trkpt lat="45.10873" lon="5.30334">
        <ele>211.6</ele>
        <time>2022-09-17T15:56:18.000Z</time>
      </trkpt>
      <trkpt lat="45.10873" lon="5.30342">
        <ele>211.7</ele>
        <time>2022-09-17T15:56:19.000Z</time>
      </trkpt>
      <trkpt lat="45.10874" lon="5.3035">
        <ele>211.8</ele>
        <time>2022-09-17T15:56:20.000Z</time>
      </trkpt>
      <trkpt lat="45.10875" lon="5.30358">
        <ele>211.9</ele>
        <time>2022-09-17T15:56:21.000Z</time>
      </trkpt>
      <trkpt lat="45.10875" lon="5.30366">
        <ele>212</ele>
        <time>2022-09-17T15:56:22.000Z</time>
      </trkpt>
      <trkpt lat="45.10876" lon="5.30375">
        <ele>212</ele>
        <time>2022-09-17T15:56:23.000Z</time>
      </trkpt>
      <trkpt lat="45.10876" lon="5.30383">
        <ele>212</ele>
        <time>2022-09-17T15:56:24.000Z</time>
      </trkpt>
      <trkpt lat="45.10877" lon="5.30392">
        <ele>212</ele>
        <time>2022-09-17T15:56:25.000Z</time>
      </trkpt>
      <trkpt lat="45.10878" lon="5.30401">
        <ele>212</ele>
        <time>2022-09-17T15:56:26.000Z</time>
      </trkpt>
      <trkpt lat="45.10879" lon="5.30408">
        <ele>212</ele>
        <time>2022-09-17T15:56:27.000Z</time>
      </trkpt>
      <trkpt lat="45.10879" lon="5.30417">
        <ele>212</ele>
        <time>2022-09-17T15:56:28.000Z</time>
      </trkpt>
      <trkpt lat="45.1088" lon="5.30424">
        <ele>212.1</ele>
        <time>2022-09-17T15:56:29.000Z</time>
      </trkpt>
      <trkpt lat="45.10882" lon="5.30432">
        <ele>212.1</ele>
        <time>2022-09-17T15:56:30.000Z</time>
      </trkpt>
      <trkpt lat="45.10883" lon="5.30439">
        <ele>212.2</ele>
        <time>2022-09-17T15:56:31.000Z</time>
      </trkpt>
      <trkpt lat="45.10884" lon="5.30447">
        <ele>212.2</ele>
        <time>2022-09-17T15:56:32.000Z</time>
      </trkpt>
      <trkpt lat="45.10885" lon="5.30454">
        <ele>212.2</ele>
        <time>2022-09-17T15:56:33.000Z</time>
      </trkpt>
      <trkpt lat="45.10886" lon="5.30461">
        <ele>212.1</ele>
        <time>2022-09-17T15:56:34.000Z</time>
      </trkpt>
      <trkpt lat="45.10886" lon="5.30469">
        <ele>212.1</ele>
        <time>2022-09-17T15:56:35.000Z</time>
      </trkpt>
      <trkpt lat="45.10886" lon="5.30478">
        <ele>212.3</ele>
        <time>2022-09-17T15:56:36.000Z</time>
      </trkpt>
      <trkpt lat="45.10887" lon="5.30486">
        <ele>212.6</ele>
        <time>2022-09-17T15:56:37.000Z</time>
      </trkpt>
      <trkpt lat="45.10888" lon="5.30495">
        <ele>212.8</ele>
        <time>2022-09-17T15:56:38.000Z</time>
      </trkpt>
      <trkpt lat="45.10889" lon="5.30502">
        <ele>213</ele>
        <time>2022-09-17T15:56:39.000Z</time>
      </trkpt>
      <trkpt lat="45.10889" lon="5.3051">
        <ele>213</ele>
        <time>2022-09-17T15:56:40.000Z</time>
      </trkpt>
      <trkpt lat="45.10889" lon="5.30519">
        <ele>213</ele>
        <time>2022-09-17T15:56:41.000Z</time>
      </trkpt>
      <trkpt lat="45.1089" lon="5.30526">
        <ele>213</ele>
        <time>2022-09-17T15:56:42.000Z</time>
      </trkpt>
      <trkpt lat="45.10891" lon="5.30534">
        <ele>212.9</ele>
        <time>2022-09-17T15:56:43.000Z</time>
      </trkpt>
      <trkpt lat="45.10892" lon="5.30542">
        <ele>212.9</ele>
        <time>2022-09-17T15:56:44.000Z</time>
      </trkpt>
      <trkpt lat="45.10892" lon="5.30551">
        <ele>212.9</ele>
        <time>2022-09-17T15:56:45.000Z</time>
      </trkpt>
      <trkpt lat="45.10893" lon="5.30559">
        <ele>213</ele>
        <time>2022-09-17T15:56:46.000Z</time>
      </trkpt>
      <trkpt lat="45.10893" lon="5.30567">
        <ele>213.2</ele>
        <time>2022-09-17T15:56:47.000Z</time>
      </trkpt>
      <trkpt lat="45.10893" lon="5.30575">
        <ele>213.4</ele>
        <time>2022-09-17T15:56:48.000Z</time>
      </trkpt>
      <trkpt lat="45.10893" lon="5.30582">
        <ele>213.6</ele>
        <time>2022-09-17T15:56:49.000Z</time>
      </trkpt>
      <trkpt lat="45.10893" lon="5.3059">
        <ele>213.7</ele>
        <time>2022-09-17T15:56:50.000Z</time>
      </trkpt>
      <trkpt lat="45.10893" lon="5.30597">
        <ele>213.8</ele>
        <time>2022-09-17T15:56:51.000Z</time>
      </trkpt>
      <trkpt lat="45.10893" lon="5.30603">
        <ele>213.8</ele>
        <time>2022-09-17T15:56:52.000Z</time>
      </trkpt>
      <trkpt lat="45.10894" lon="5.3061">
        <ele>213.8</ele>
        <time>2022-09-17T15:56:53.000Z</time>
      </trkpt>
      <trkpt lat="45.10896" lon="5.30616">
        <ele>213.8</ele>
        <time>2022-09-17T15:56:54.000Z</time>
      </trkpt>
      <trkpt lat="45.10899" lon="5.30621">
        <ele>213.6</ele>
        <time>2022-09-17T15:56:55.000Z</time>
      </trkpt>
      <trkpt lat="45.10904" lon="5.30624">
        <ele>213.5</ele>
        <time>2022-09-17T15:56:56.000Z</time>
      </trkpt>
      <trkpt lat="45.10908" lon="5.30629">
        <ele>213.3</ele>
        <time>2022-09-17T15:56:57.000Z</time>
      </trkpt>
      <trkpt lat="45.10912" lon="5.30634">
        <ele>213.2</ele>
        <time>2022-09-17T15:56:58.000Z</time>
      </trkpt>
      <trkpt lat="45.10916" lon="5.3064">
        <ele>213</ele>
        <time>2022-09-17T15:56:59.000Z</time>
      </trkpt>
      <trkpt lat="45.10921" lon="5.30645">
        <ele>213</ele>
        <time>2022-09-17T15:57:00.000Z</time>
      </trkpt>
      <trkpt lat="45.10925" lon="5.30651">
        <ele>213</ele>
        <time>2022-09-17T15:57:01.000Z</time>
      </trkpt>
      <trkpt lat="45.1093" lon="5.30657">
        <ele>213</ele>
        <time>2022-09-17T15:57:02.000Z</time>
      </trkpt>
      <trkpt lat="45.10934" lon="5.30663">
        <ele>213</ele>
        <time>2022-09-17T15:57:03.000Z</time>
      </trkpt>
      <trkpt lat="45.10938" lon="5.30668">
        <ele>213</ele>
        <time>2022-09-17T15:57:04.000Z</time>
      </trkpt>
      <trkpt lat="45.10942" lon="5.30674">
        <ele>213</ele>
        <time>2022-09-17T15:57:05.000Z</time>
      </trkpt>
      <trkpt lat="45.10947" lon="5.3068">
        <ele>213</ele>
        <time>2022-09-17T15:57:06.000Z</time>
      </trkpt>
      <trkpt lat="45.10951" lon="5.30685">
        <ele>212.9</ele>
        <time>2022-09-17T15:57:07.000Z</time>
      </trkpt>
      <trkpt lat="45.10955" lon="5.30691">
        <ele>213</ele>
        <time>2022-09-17T15:57:08.000Z</time>
      </trkpt>
      <trkpt lat="45.10959" lon="5.30696">
        <ele>213.1</ele>
        <time>2022-09-17T15:57:09.000Z</time>
      </trkpt>
      <trkpt lat="45.10963" lon="5.30702">
        <ele>213.3</ele>
        <time>2022-09-17T15:57:10.000Z</time>
      </trkpt>
      <trkpt lat="45.10967" lon="5.30707">
        <ele>213.5</ele>
        <time>2022-09-17T15:57:11.000Z</time>
      </trkpt>
      <trkpt lat="45.10971" lon="5.30713">
        <ele>213.7</ele>
        <time>2022-09-17T15:57:12.000Z</time>
      </trkpt>
      <trkpt lat="45.10974" lon="5.30719">
        <ele>213.8</ele>
        <time>2022-09-17T15:57:13.000Z</time>
      </trkpt>
      <trkpt lat="45.10978" lon="5.30725">
        <ele>213.8</ele>
        <time>2022-09-17T15:57:14.000Z</time>
      </trkpt>
      <trkpt lat="45.10982" lon="5.30732">
        <ele>213.7</ele>
        <time>2022-09-17T15:57:15.000Z</time>
      </trkpt>
      <trkpt lat="45.10986" lon="5.30737">
        <ele>213.5</ele>
        <time>2022-09-17T15:57:16.000Z</time>
      </trkpt>
      <trkpt lat="45.1099" lon="5.30743">
        <ele>213.4</ele>
        <time>2022-09-17T15:57:17.000Z</time>
      </trkpt>
      <trkpt lat="45.10994" lon="5.30749">
        <ele>213.2</ele>
        <time>2022-09-17T15:57:18.000Z</time>
      </trkpt>
      <trkpt lat="45.10998" lon="5.30754">
        <ele>213.2</ele>
        <time>2022-09-17T15:57:19.000Z</time>
      </trkpt>
      <trkpt lat="45.11001" lon="5.30759">
        <ele>213.3</ele>
        <time>2022-09-17T15:57:20.000Z</time>
      </trkpt>
      <trkpt lat="45.11005" lon="5.30764">
        <ele>213.5</ele>
        <time>2022-09-17T15:57:21.000Z</time>
      </trkpt>
      <trkpt lat="45.11009" lon="5.3077">
        <ele>213.7</ele>
        <time>2022-09-17T15:57:22.000Z</time>
      </trkpt>
      <trkpt lat="45.11012" lon="5.30775">
        <ele>213.9</ele>
        <time>2022-09-17T15:57:23.000Z</time>
      </trkpt>
      <trkpt lat="45.11015" lon="5.30781">
        <ele>214</ele>
        <time>2022-09-17T15:57:24.000Z</time>
      </trkpt>
      <trkpt lat="45.11018" lon="5.30786">
        <ele>214</ele>
        <time>2022-09-17T15:57:25.000Z</time>
      </trkpt>
      <trkpt lat="45.11021" lon="5.30792">
        <ele>214</ele>
        <time>2022-09-17T15:57:26.000Z</time>
      </trkpt>
      <trkpt lat="45.11025" lon="5.30798">
        <ele>214</ele>
        <time>2022-09-17T15:57:27.000Z</time>
      </trkpt>
      <trkpt lat="45.11028" lon="5.30805">
        <ele>214</ele>
        <time>2022-09-17T15:57:28.000Z</time>
      </trkpt>
      <trkpt lat="45.11031" lon="5.30811">
        <ele>214</ele>
        <time>2022-09-17T15:57:29.000Z</time>
      </trkpt>
      <trkpt lat="45.11034" lon="5.30818">
        <ele>214</ele>
        <time>2022-09-17T15:57:30.000Z</time>
      </trkpt>
      <trkpt lat="45.11037" lon="5.30825">
        <ele>214</ele>
        <time>2022-09-17T15:57:31.000Z</time>
      </trkpt>
      <trkpt lat="45.1104" lon="5.30832">
        <ele>214</ele>
        <time>2022-09-17T15:57:32.000Z</time>
      </trkpt>
      <trkpt lat="45.11042" lon="5.30839">
        <ele>214</ele>
        <time>2022-09-17T15:57:33.000Z</time>
      </trkpt>
      <trkpt lat="45.11044" lon="5.30845">
        <ele>214</ele>
        <time>2022-09-17T15:57:34.000Z</time>
      </trkpt>
      <trkpt lat="45.11047" lon="5.30851">
        <ele>214</ele>
        <time>2022-09-17T15:57:35.000Z</time>
      </trkpt>
      <trkpt lat="45.11049" lon="5.30858">
        <ele>214</ele>
        <time>2022-09-17T15:57:36.000Z</time>
      </trkpt>
      <trkpt lat="45.11051" lon="5.30865">
        <ele>214.1</ele>
        <time>2022-09-17T15:57:37.000Z</time>
      </trkpt>
      <trkpt lat="45.11053" lon="5.30872">
        <ele>214.4</ele>
        <time>2022-09-17T15:57:38.000Z</time>
      </trkpt>
      <trkpt lat="45.11056" lon="5.30879">
        <ele>214.6</ele>
        <time>2022-09-17T15:57:39.000Z</time>
      </trkpt>
      <trkpt lat="45.11059" lon="5.30886">
        <ele>214.8</ele>
        <time>2022-09-17T15:57:40.000Z</time>
      </trkpt>
      <trkpt lat="45.11061" lon="5.30893">
        <ele>214.8</ele>
        <time>2022-09-17T15:57:41.000Z</time>
      </trkpt>
      <trkpt lat="45.11064" lon="5.30901">
        <ele>214.7</ele>
        <time>2022-09-17T15:57:42.000Z</time>
      </trkpt>
      <trkpt lat="45.11066" lon="5.30909">
        <ele>214.6</ele>
        <time>2022-09-17T15:57:43.000Z</time>
      </trkpt>
      <trkpt lat="45.11069" lon="5.30917">
        <ele>214.5</ele>
        <time>2022-09-17T15:57:44.000Z</time>
      </trkpt>
      <trkpt lat="45.11071" lon="5.30925">
        <ele>214.6</ele>
        <time>2022-09-17T15:57:45.000Z</time>
      </trkpt>
      <trkpt lat="45.11073" lon="5.30932">
        <ele>214.7</ele>
        <time>2022-09-17T15:57:46.000Z</time>
      </trkpt>
      <trkpt lat="45.11075" lon="5.30939">
        <ele>214.9</ele>
        <time>2022-09-17T15:57:47.000Z</time>
      </trkpt>
      <trkpt lat="45.11078" lon="5.30946">
        <ele>215</ele>
        <time>2022-09-17T15:57:48.000Z</time>
      </trkpt>
      <trkpt lat="45.1108" lon="5.30953">
        <ele>215</ele>
        <time>2022-09-17T15:57:49.000Z</time>
      </trkpt>
      <trkpt lat="45.11083" lon="5.3096">
        <ele>215</ele>
        <time>2022-09-17T15:57:50.000Z</time>
      </trkpt>
      <trkpt lat="45.11085" lon="5.30967">
        <ele>214.9</ele>
        <time>2022-09-17T15:57:51.000Z</time>
      </trkpt>
      <trkpt lat="45.11088" lon="5.30974">
        <ele>214.9</ele>
        <time>2022-09-17T15:57:52.000Z</time>
      </trkpt>
      <trkpt lat="45.1109" lon="5.30981">
        <ele>214.8</ele>
        <time>2022-09-17T15:57:53.000Z</time>
      </trkpt>
      <trkpt lat="45.11091" lon="5.30988">
        <ele>214.7</ele>
        <time>2022-09-17T15:57:54.000Z</time>
      </trkpt>
      <trkpt lat="45.11093" lon="5.30994">
        <ele>214.6</ele>
        <time>2022-09-17T15:57:55.000Z</time>
      </trkpt>
      <trkpt lat="45.11095" lon="5.31">
        <ele>214.6</ele>
        <time>2022-09-17T15:57:56.000Z</time>
      </trkpt>
      <trkpt lat="45.11097" lon="5.31006">
        <ele>214.6</ele>
        <time>2022-09-17T15:57:57.000Z</time>
      </trkpt>
      <trkpt lat="45.11099" lon="5.31012">
        <ele>214.7</ele>
        <time>2022-09-17T15:57:58.000Z</time>
      </trkpt>
      <trkpt lat="45.111" lon="5.31017">
        <ele>214.8</ele>
        <time>2022-09-17T15:57:59.000Z</time>
      </trkpt>
      <trkpt lat="45.11102" lon="5.31023">
        <ele>214.9</ele>
        <time>2022-09-17T15:58:00.000Z</time>
      </trkpt>
      <trkpt lat="45.11104" lon="5.31028">
        <ele>215</ele>
        <time>2022-09-17T15:58:01.000Z</time>
      </trkpt>
      <trkpt lat="45.11105" lon="5.31033">
        <ele>215</ele>
        <time>2022-09-17T15:58:02.000Z</time>
      </trkpt>
      <trkpt lat="45.11107" lon="5.31038">
        <ele>215</ele>
        <time>2022-09-17T15:58:03.000Z</time>
      </trkpt>
      <trkpt lat="45.11109" lon="5.31044">
        <ele>215</ele>
        <time>2022-09-17T15:58:04.000Z</time>
      </trkpt>
      <trkpt lat="45.1111" lon="5.3105">
        <ele>215</ele>
        <time>2022-09-17T15:58:05.000Z</time>
      </trkpt>
      <trkpt lat="45.11112" lon="5.31056">
        <ele>215</ele>
        <time>2022-09-17T15:58:06.000Z</time>
      </trkpt>
      <trkpt lat="45.11114" lon="5.31063">
        <ele>215</ele>
        <time>2022-09-17T15:58:07.000Z</time>
      </trkpt>
      <trkpt lat="45.11115" lon="5.3107">
        <ele>215</ele>
        <time>2022-09-17T15:58:08.000Z</time>
      </trkpt>
      <trkpt lat="45.11116" lon="5.31077">
        <ele>215</ele>
        <time>2022-09-17T15:58:09.000Z</time>
      </trkpt>
      <trkpt lat="45.11118" lon="5.31084">
        <ele>215</ele>
        <time>2022-09-17T15:58:10.000Z</time>
      </trkpt>
      <trkpt lat="45.1112" lon="5.31091">
        <ele>215.2</ele>
        <time>2022-09-17T15:58:11.000Z</time>
      </trkpt>
      <trkpt lat="45.11121" lon="5.31099">
        <ele>215.4</ele>
        <time>2022-09-17T15:58:12.000Z</time>
      </trkpt>
      <trkpt lat="45.11123" lon="5.31106">
        <ele>215.5</ele>
        <time>2022-09-17T15:58:13.000Z</time>
      </trkpt>
      <trkpt lat="45.11125" lon="5.31113">
        <ele>215.5</ele>
        <time>2022-09-17T15:58:14.000Z</time>
      </trkpt>
      <trkpt lat="45.11126" lon="5.3112">
        <ele>215.5</ele>
        <time>2022-09-17T15:58:15.000Z</time>
      </trkpt>
      <trkpt lat="45.11128" lon="5.31127">
        <ele>215.4</ele>
        <time>2022-09-17T15:58:16.000Z</time>
      </trkpt>
      <trkpt lat="45.1113" lon="5.31134">
        <ele>215.3</ele>
        <time>2022-09-17T15:58:17.000Z</time>
      </trkpt>
      <trkpt lat="45.11133" lon="5.31141">
        <ele>215.3</ele>
        <time>2022-09-17T15:58:18.000Z</time>
      </trkpt>
      <trkpt lat="45.11135" lon="5.31148">
        <ele>215.4</ele>
        <time>2022-09-17T15:58:19.000Z</time>
      </trkpt>
      <trkpt lat="45.11137" lon="5.31155">
        <ele>215.6</ele>
        <time>2022-09-17T15:58:20.000Z</time>
      </trkpt>
      <trkpt lat="45.1114" lon="5.31162">
        <ele>215.8</ele>
        <time>2022-09-17T15:58:21.000Z</time>
      </trkpt>
      <trkpt lat="45.11143" lon="5.31169">
        <ele>215.7</ele>
        <time>2022-09-17T15:58:22.000Z</time>
      </trkpt>
      <trkpt lat="45.11146" lon="5.31176">
        <ele>215.3</ele>
        <time>2022-09-17T15:58:23.000Z</time>
      </trkpt>
      <trkpt lat="45.11149" lon="5.31183">
        <ele>214.9</ele>
        <time>2022-09-17T15:58:24.000Z</time>
      </trkpt>
      <trkpt lat="45.11152" lon="5.3119">
        <ele>214.6</ele>
        <time>2022-09-17T15:58:25.000Z</time>
      </trkpt>
      <trkpt lat="45.11156" lon="5.31197">
        <ele>214.5</ele>
        <time>2022-09-17T15:58:26.000Z</time>
      </trkpt>
      <trkpt lat="45.11159" lon="5.31204">
        <ele>214.5</ele>
        <time>2022-09-17T15:58:27.000Z</time>
      </trkpt>
      <trkpt lat="45.11163" lon="5.31211">
        <ele>214.6</ele>
        <time>2022-09-17T15:58:28.000Z</time>
      </trkpt>
      <trkpt lat="45.11167" lon="5.31217">
        <ele>214.8</ele>
        <time>2022-09-17T15:58:29.000Z</time>
      </trkpt>
      <trkpt lat="45.11171" lon="5.31224">
        <ele>214.9</ele>
        <time>2022-09-17T15:58:30.000Z</time>
      </trkpt>
      <trkpt lat="45.11174" lon="5.31231">
        <ele>214.8</ele>
        <time>2022-09-17T15:58:31.000Z</time>
      </trkpt>
      <trkpt lat="45.11178" lon="5.31237">
        <ele>214.8</ele>
        <time>2022-09-17T15:58:32.000Z</time>
      </trkpt>
      <trkpt lat="45.11182" lon="5.31242">
        <ele>214.8</ele>
        <time>2022-09-17T15:58:33.000Z</time>
      </trkpt>
      <trkpt lat="45.11186" lon="5.31248">
        <ele>215</ele>
        <time>2022-09-17T15:58:34.000Z</time>
      </trkpt>
      <trkpt lat="45.11192" lon="5.3126">
        <ele>215</ele>
        <time>2022-09-17T15:58:36.000Z</time>
      </trkpt>
      <trkpt lat="45.11195" lon="5.31266">
        <ele>215</ele>
        <time>2022-09-17T15:58:37.000Z</time>
      </trkpt>
      <trkpt lat="45.11199" lon="5.31273">
        <ele>214.8</ele>
        <time>2022-09-17T15:58:38.000Z</time>
      </trkpt>
      <trkpt lat="45.11202" lon="5.31278">
        <ele>214.7</ele>
        <time>2022-09-17T15:58:39.000Z</time>
      </trkpt>
      <trkpt lat="45.11206" lon="5.31284">
        <ele>214.7</ele>
        <time>2022-09-17T15:58:40.000Z</time>
      </trkpt>
      <trkpt lat="45.11209" lon="5.3129">
        <ele>214.7</ele>
        <time>2022-09-17T15:58:41.000Z</time>
      </trkpt>
      <trkpt lat="45.11212" lon="5.31296">
        <ele>214.8</ele>
        <time>2022-09-17T15:58:42.000Z</time>
      </trkpt>
      <trkpt lat="45.11215" lon="5.31302">
        <ele>214.9</ele>
        <time>2022-09-17T15:58:43.000Z</time>
      </trkpt>
      <trkpt lat="45.11218" lon="5.31307">
        <ele>215</ele>
        <time>2022-09-17T15:58:44.000Z</time>
      </trkpt>
      <trkpt lat="45.11222" lon="5.31312">
        <ele>215</ele>
        <time>2022-09-17T15:58:45.000Z</time>
      </trkpt>
      <trkpt lat="45.11224" lon="5.31317">
        <ele>215</ele>
        <time>2022-09-17T15:58:46.000Z</time>
      </trkpt>
      <trkpt lat="45.11227" lon="5.31322">
        <ele>214.9</ele>
        <time>2022-09-17T15:58:47.000Z</time>
      </trkpt>
      <trkpt lat="45.1123" lon="5.31327">
        <ele>214.9</ele>
        <time>2022-09-17T15:58:48.000Z</time>
      </trkpt>
      <trkpt lat="45.11233" lon="5.31331">
        <ele>215</ele>
        <time>2022-09-17T15:58:49.000Z</time>
      </trkpt>
      <trkpt lat="45.11236" lon="5.31336">
        <ele>215</ele>
        <time>2022-09-17T15:58:50.000Z</time>
      </trkpt>
      <trkpt lat="45.11239" lon="5.31341">
        <ele>215</ele>
        <time>2022-09-17T15:58:51.000Z</time>
      </trkpt>
      <trkpt lat="45.11242" lon="5.31346">
        <ele>215</ele>
        <time>2022-09-17T15:58:52.000Z</time>
      </trkpt>
      <trkpt lat="45.11244" lon="5.3135">
        <ele>215</ele>
        <time>2022-09-17T15:58:53.000Z</time>
      </trkpt>
      <trkpt lat="45.11246" lon="5.31354">
        <ele>215</ele>
        <time>2022-09-17T15:58:54.000Z</time>
      </trkpt>
      <trkpt lat="45.11247" lon="5.31358">
        <ele>215</ele>
        <time>2022-09-17T15:58:55.000Z</time>
      </trkpt>
      <trkpt lat="45.11249" lon="5.31362">
        <ele>215</ele>
        <time>2022-09-17T15:58:56.000Z</time>
      </trkpt>
      <trkpt lat="45.11252" lon="5.31366">
        <ele>215</ele>
        <time>2022-09-17T15:58:57.000Z</time>
      </trkpt>
      <trkpt lat="45.11255" lon="5.31371">
        <ele>215</ele>
        <time>2022-09-17T15:58:58.000Z</time>
      </trkpt>
      <trkpt lat="45.11258" lon="5.31375">
        <ele>215</ele>
        <time>2022-09-17T15:58:59.000Z</time>
      </trkpt>
      <trkpt lat="45.11261" lon="5.31381">
        <ele>215</ele>
        <time>2022-09-17T15:59:00.000Z</time>
      </trkpt>
      <trkpt lat="45.11265" lon="5.31386">
        <ele>215</ele>
        <time>2022-09-17T15:59:01.000Z</time>
      </trkpt>
      <trkpt lat="45.11269" lon="5.31391">
        <ele>215</ele>
        <time>2022-09-17T15:59:02.000Z</time>
      </trkpt>
      <trkpt lat="45.11273" lon="5.31396">
        <ele>215</ele>
        <time>2022-09-17T15:59:03.000Z</time>
      </trkpt>
      <trkpt lat="45.11277" lon="5.31402">
        <ele>215</ele>
        <time>2022-09-17T15:59:04.000Z</time>
      </trkpt>
      <trkpt lat="45.11282" lon="5.31408">
        <ele>215</ele>
        <time>2022-09-17T15:59:05.000Z</time>
      </trkpt>
      <trkpt lat="45.11286" lon="5.31412">
        <ele>215</ele>
        <time>2022-09-17T15:59:06.000Z</time>
      </trkpt>
      <trkpt lat="45.1129" lon="5.31418">
        <ele>215</ele>
        <time>2022-09-17T15:59:07.000Z</time>
      </trkpt>
      <trkpt lat="45.11294" lon="5.31423">
        <ele>215</ele>
        <time>2022-09-17T15:59:08.000Z</time>
      </trkpt>
      <trkpt lat="45.11297" lon="5.31427">
        <ele>215</ele>
        <time>2022-09-17T15:59:09.000Z</time>
      </trkpt>
      <trkpt lat="45.11301" lon="5.3143">
        <ele>215</ele>
        <time>2022-09-17T15:59:10.000Z</time>
      </trkpt>
      <trkpt lat="45.11304" lon="5.31435">
        <ele>215</ele>
        <time>2022-09-17T15:59:11.000Z</time>
      </trkpt>
      <trkpt lat="45.11307" lon="5.31439">
        <ele>215</ele>
        <time>2022-09-17T15:59:12.000Z</time>
      </trkpt>
      <trkpt lat="45.11312" lon="5.31444">
        <ele>215</ele>
        <time>2022-09-17T15:59:13.000Z</time>
      </trkpt>
      <trkpt lat="45.11315" lon="5.31448">
        <ele>215</ele>
        <time>2022-09-17T15:59:14.000Z</time>
      </trkpt>
      <trkpt lat="45.11319" lon="5.31452">
        <ele>215</ele>
        <time>2022-09-17T15:59:15.000Z</time>
      </trkpt>
      <trkpt lat="45.11323" lon="5.31456">
        <ele>215</ele>
        <time>2022-09-17T15:59:16.000Z</time>
      </trkpt>
      <trkpt lat="45.11328" lon="5.3146">
        <ele>215</ele>
        <time>2022-09-17T15:59:17.000Z</time>
      </trkpt>
      <trkpt lat="45.11333" lon="5.31464">
        <ele>215</ele>
        <time>2022-09-17T15:59:18.000Z</time>
      </trkpt>
      <trkpt lat="45.11339" lon="5.31469">
        <ele>214.8</ele>
        <time>2022-09-17T15:59:19.000Z</time>
      </trkpt>
      <trkpt lat="45.11345" lon="5.31473">
        <ele>214.6</ele>
        <time>2022-09-17T15:59:20.000Z</time>
      </trkpt>
      <trkpt lat="45.11349" lon="5.31478">
        <ele>214.4</ele>
        <time>2022-09-17T15:59:21.000Z</time>
      </trkpt>
      <trkpt lat="45.11353" lon="5.31484">
        <ele>214.3</ele>
        <time>2022-09-17T15:59:22.000Z</time>
      </trkpt>
      <trkpt lat="45.11355" lon="5.31489">
        <ele>214.2</ele>
        <time>2022-09-17T15:59:23.000Z</time>
      </trkpt>
      <trkpt lat="45.11358" lon="5.31494">
        <ele>214.1</ele>
        <time>2022-09-17T15:59:24.000Z</time>
      </trkpt>
      <trkpt lat="45.11361" lon="5.31497">
        <ele>214</ele>
        <time>2022-09-17T15:59:25.000Z</time>
      </trkpt>
      <trkpt lat="45.11365" lon="5.31502">
        <ele>214.1</ele>
        <time>2022-09-17T15:59:26.000Z</time>
      </trkpt>
      <trkpt lat="45.11369" lon="5.31507">
        <ele>214.2</ele>
        <time>2022-09-17T15:59:27.000Z</time>
      </trkpt>
      <trkpt lat="45.11373" lon="5.31513">
        <ele>214.3</ele>
        <time>2022-09-17T15:59:28.000Z</time>
      </trkpt>
      <trkpt lat="45.11377" lon="5.31518">
        <ele>214.3</ele>
        <time>2022-09-17T15:59:29.000Z</time>
      </trkpt>
      <trkpt lat="45.11381" lon="5.31524">
        <ele>214.2</ele>
        <time>2022-09-17T15:59:30.000Z</time>
      </trkpt>
      <trkpt lat="45.11385" lon="5.31529">
        <ele>214.2</ele>
        <time>2022-09-17T15:59:31.000Z</time>
      </trkpt>
      <trkpt lat="45.11389" lon="5.31534">
        <ele>214.2</ele>
        <time>2022-09-17T15:59:32.000Z</time>
      </trkpt>
      <trkpt lat="45.11392" lon="5.3154">
        <ele>214.4</ele>
        <time>2022-09-17T15:59:33.000Z</time>
      </trkpt>
      <trkpt lat="45.11396" lon="5.31546">
        <ele>214.5</ele>
        <time>2022-09-17T15:59:34.000Z</time>
      </trkpt>
      <trkpt lat="45.11399" lon="5.31551">
        <ele>214.5</ele>
        <time>2022-09-17T15:59:35.000Z</time>
      </trkpt>
      <trkpt lat="45.11402" lon="5.31558">
        <ele>214.5</ele>
        <time>2022-09-17T15:59:36.000Z</time>
      </trkpt>
      <trkpt lat="45.11405" lon="5.31565">
        <ele>214.4</ele>
        <time>2022-09-17T15:59:37.000Z</time>
      </trkpt>
      <trkpt lat="45.11407" lon="5.31571">
        <ele>214.3</ele>
        <time>2022-09-17T15:59:38.000Z</time>
      </trkpt>
      <trkpt lat="45.1141" lon="5.31578">
        <ele>214.2</ele>
        <time>2022-09-17T15:59:39.000Z</time>
      </trkpt>
      <trkpt lat="45.11412" lon="5.31585">
        <ele>214.2</ele>
        <time>2022-09-17T15:59:40.000Z</time>
      </trkpt>
      <trkpt lat="45.11414" lon="5.31592">
        <ele>214.4</ele>
        <time>2022-09-17T15:59:41.000Z</time>
      </trkpt>
      <trkpt lat="45.11416" lon="5.316">
        <ele>214.6</ele>
        <time>2022-09-17T15:59:42.000Z</time>
      </trkpt>
      <trkpt lat="45.11418" lon="5.31607">
        <ele>214.8</ele>
        <time>2022-09-17T15:59:43.000Z</time>
      </trkpt>
      <trkpt lat="45.1142" lon="5.31614">
        <ele>214.9</ele>
        <time>2022-09-17T15:59:44.000Z</time>
      </trkpt>
      <trkpt lat="45.11422" lon="5.31621">
        <ele>214.8</ele>
        <time>2022-09-17T15:59:45.000Z</time>
      </trkpt>
      <trkpt lat="45.11424" lon="5.31629">
        <ele>214.7</ele>
        <time>2022-09-17T15:59:46.000Z</time>
      </trkpt>
      <trkpt lat="45.11426" lon="5.31636">
        <ele>214.7</ele>
        <time>2022-09-17T15:59:47.000Z</time>
      </trkpt>
      <trkpt lat="45.11428" lon="5.31644">
        <ele>214.6</ele>
        <time>2022-09-17T15:59:48.000Z</time>
      </trkpt>
      <trkpt lat="45.1143" lon="5.31652">
        <ele>214.5</ele>
        <time>2022-09-17T15:59:49.000Z</time>
      </trkpt>
      <trkpt lat="45.11432" lon="5.31659">
        <ele>214.4</ele>
        <time>2022-09-17T15:59:50.000Z</time>
      </trkpt>
      <trkpt lat="45.11434" lon="5.31667">
        <ele>214.4</ele>
        <time>2022-09-17T15:59:51.000Z</time>
      </trkpt>
      <trkpt lat="45.11437" lon="5.31675">
        <ele>214.5</ele>
        <time>2022-09-17T15:59:52.000Z</time>
      </trkpt>
      <trkpt lat="45.11439" lon="5.31683">
        <ele>214.7</ele>
        <time>2022-09-17T15:59:53.000Z</time>
      </trkpt>
      <trkpt lat="45.11441" lon="5.31691">
        <ele>214.9</ele>
        <time>2022-09-17T15:59:54.000Z</time>
      </trkpt>
      <trkpt lat="45.11444" lon="5.31698">
        <ele>215</ele>
        <time>2022-09-17T15:59:55.000Z</time>
      </trkpt>
      <trkpt lat="45.11447" lon="5.31705">
        <ele>214.9</ele>
        <time>2022-09-17T15:59:56.000Z</time>
      </trkpt>
      <trkpt lat="45.1145" lon="5.31712">
        <ele>214.8</ele>
        <time>2022-09-17T15:59:57.000Z</time>
      </trkpt>
      <trkpt lat="45.11453" lon="5.3172">
        <ele>214.7</ele>
        <time>2022-09-17T15:59:58.000Z</time>
      </trkpt>
      <trkpt lat="45.11457" lon="5.31726">
        <ele>214.6</ele>
        <time>2022-09-17T15:59:59.000Z</time>
      </trkpt>
      <trkpt lat="45.1146" lon="5.31732">
        <ele>214.6</ele>
        <time>2022-09-17T16:00:00.000Z</time>
      </trkpt>
      <trkpt lat="45.11464" lon="5.31738">
        <ele>214.7</ele>
        <time>2022-09-17T16:00:01.000Z</time>
      </trkpt>
      <trkpt lat="45.11468" lon="5.31743">
        <ele>214.8</ele>
        <time>2022-09-17T16:00:02.000Z</time>
      </trkpt>
      <trkpt lat="45.11471" lon="5.31748">
        <ele>214.9</ele>
        <time>2022-09-17T16:00:03.000Z</time>
      </trkpt>
      <trkpt lat="45.11474" lon="5.31753">
        <ele>215</ele>
        <time>2022-09-17T16:00:04.000Z</time>
      </trkpt>
      <trkpt lat="45.11476" lon="5.31759">
        <ele>214.9</ele>
        <time>2022-09-17T16:00:05.000Z</time>
      </trkpt>
      <trkpt lat="45.1148" lon="5.31764">
        <ele>214.7</ele>
        <time>2022-09-17T16:00:06.000Z</time>
      </trkpt>
      <trkpt lat="45.11483" lon="5.31769">
        <ele>214.6</ele>
        <time>2022-09-17T16:00:07.000Z</time>
      </trkpt>
      <trkpt lat="45.11485" lon="5.31775">
        <ele>214.5</ele>
        <time>2022-09-17T16:00:08.000Z</time>
      </trkpt>
      <trkpt lat="45.11488" lon="5.31781">
        <ele>214.5</ele>
        <time>2022-09-17T16:00:09.000Z</time>
      </trkpt>
      <trkpt lat="45.1149" lon="5.31786">
        <ele>214.5</ele>
        <time>2022-09-17T16:00:10.000Z</time>
      </trkpt>
      <trkpt lat="45.11493" lon="5.31791">
        <ele>214.6</ele>
        <time>2022-09-17T16:00:11.000Z</time>
      </trkpt>
      <trkpt lat="45.11496" lon="5.31795">
        <ele>214.7</ele>
        <time>2022-09-17T16:00:12.000Z</time>
      </trkpt>
      <trkpt lat="45.11499" lon="5.31799">
        <ele>214.8</ele>
        <time>2022-09-17T16:00:13.000Z</time>
      </trkpt>
      <trkpt lat="45.11503" lon="5.31804">
        <ele>214.8</ele>
        <time>2022-09-17T16:00:14.000Z</time>
      </trkpt>
      <trkpt lat="45.11506" lon="5.31808">
        <ele>214.8</ele>
        <time>2022-09-17T16:00:15.000Z</time>
      </trkpt>
      <trkpt lat="45.1151" lon="5.31813">
        <ele>214.6</ele>
        <time>2022-09-17T16:00:16.000Z</time>
      </trkpt>
      <trkpt lat="45.11513" lon="5.31817">
        <ele>214.5</ele>
        <time>2022-09-17T16:00:17.000Z</time>
      </trkpt>
      <trkpt lat="45.11516" lon="5.31821">
        <ele>214.4</ele>
        <time>2022-09-17T16:00:18.000Z</time>
      </trkpt>
      <trkpt lat="45.11517" lon="5.31824">
        <ele>214.4</ele>
        <time>2022-09-17T16:00:19.000Z</time>
      </trkpt>
      <trkpt lat="45.11517" lon="5.31828">
        <ele>214.4</ele>
        <time>2022-09-17T16:00:20.000Z</time>
      </trkpt>
      <trkpt lat="45.11516" lon="5.31831">
        <ele>214.4</ele>
        <time>2022-09-17T16:00:21.000Z</time>
      </trkpt>
      <trkpt lat="45.11514" lon="5.31834">
        <ele>214.5</ele>
        <time>2022-09-17T16:00:22.000Z</time>
      </trkpt>
      <trkpt lat="45.1151" lon="5.31836">
        <ele>214.6</ele>
        <time>2022-09-17T16:00:23.000Z</time>
      </trkpt>
      <trkpt lat="45.11506" lon="5.31838">
        <ele>214.8</ele>
        <time>2022-09-17T16:00:24.000Z</time>
      </trkpt>
      <trkpt lat="45.11503" lon="5.3184">
        <ele>214.9</ele>
        <time>2022-09-17T16:00:25.000Z</time>
      </trkpt>
      <trkpt lat="45.115" lon="5.31843">
        <ele>215</ele>
        <time>2022-09-17T16:00:26.000Z</time>
      </trkpt>
      <trkpt lat="45.11497" lon="5.31846">
        <ele>215</ele>
        <time>2022-09-17T16:00:27.000Z</time>
      </trkpt>
      <trkpt lat="45.11497" lon="5.31849">
        <ele>215</ele>
        <time>2022-09-17T16:00:29.000Z</time>
      </trkpt>
    </trkseg>
  </trk>
</gpx>